73922 lines
2.4 MiB
Plaintext
73922 lines
2.4 MiB
Plaintext
<?xml version='1.0' encoding='UTF-8'?>
|
|
<gpx version="1.1" creator="https://www.komoot.de" xmlns="http://www.topografix.com/GPX/1/1" xmlns:xsi="http://www.w3.org/2001/XMLSchema-instance" xsi:schemaLocation="http://www.topografix.com/GPX/1/1 http://www.topografix.com/GPX/1/1/gpx.xsd">
|
|
<metadata>
|
|
<name>Vilalev Shelterplads to Blochsgård Shelterplads</name>
|
|
<author>
|
|
<link href="https://www.komoot.de">
|
|
<text>komoot</text>
|
|
<type>text/html</type>
|
|
</link>
|
|
</author>
|
|
</metadata>
|
|
<trk>
|
|
<name>Vilalev Shelterplads to Blochsgård Shelterplads</name>
|
|
<type>racebike</type>
|
|
<trkseg>
|
|
<trkpt lat="55.394737" lon="8.712618">
|
|
<ele>7.307130</ele>
|
|
<time>2026-07-11T07:42:11.000Z</time>
|
|
</trkpt>
|
|
<trkpt lat="55.394712" lon="8.712563">
|
|
<ele>7.307130</ele>
|
|
<time>2026-07-11T07:42:22.000Z</time>
|
|
</trkpt>
|
|
<trkpt lat="55.394697" lon="8.712548">
|
|
<ele>7.307130</ele>
|
|
<time>2026-07-11T07:42:23.000Z</time>
|
|
</trkpt>
|
|
<trkpt lat="55.394679" lon="8.712534">
|
|
<ele>7.307130</ele>
|
|
<time>2026-07-11T07:42:24.000Z</time>
|
|
</trkpt>
|
|
<trkpt lat="55.394659" lon="8.712521">
|
|
<ele>7.307130</ele>
|
|
<time>2026-07-11T07:42:25.000Z</time>
|
|
</trkpt>
|
|
<trkpt lat="55.394638" lon="8.712506">
|
|
<ele>7.307130</ele>
|
|
<time>2026-07-11T07:42:26.000Z</time>
|
|
</trkpt>
|
|
<trkpt lat="55.394621" lon="8.712496">
|
|
<ele>7.307130</ele>
|
|
<time>2026-07-11T07:42:27.000Z</time>
|
|
</trkpt>
|
|
<trkpt lat="55.394603" lon="8.712491">
|
|
<ele>7.307130</ele>
|
|
<time>2026-07-11T07:42:28.000Z</time>
|
|
</trkpt>
|
|
<trkpt lat="55.394583" lon="8.712487">
|
|
<ele>7.307130</ele>
|
|
<time>2026-07-11T07:42:29.000Z</time>
|
|
</trkpt>
|
|
<trkpt lat="55.394557" lon="8.712481">
|
|
<ele>7.307130</ele>
|
|
<time>2026-07-11T07:42:30.000Z</time>
|
|
</trkpt>
|
|
<trkpt lat="55.394536" lon="8.712481">
|
|
<ele>7.307130</ele>
|
|
<time>2026-07-11T07:42:31.000Z</time>
|
|
</trkpt>
|
|
<trkpt lat="55.394509" lon="8.712479">
|
|
<ele>7.307130</ele>
|
|
<time>2026-07-11T07:42:32.000Z</time>
|
|
</trkpt>
|
|
<trkpt lat="55.394485" lon="8.712479">
|
|
<ele>7.307130</ele>
|
|
<time>2026-07-11T07:42:33.000Z</time>
|
|
</trkpt>
|
|
<trkpt lat="55.394462" lon="8.712481">
|
|
<ele>7.307130</ele>
|
|
<time>2026-07-11T07:42:34.000Z</time>
|
|
</trkpt>
|
|
<trkpt lat="55.394443" lon="8.712489">
|
|
<ele>7.307130</ele>
|
|
<time>2026-07-11T07:42:35.000Z</time>
|
|
</trkpt>
|
|
<trkpt lat="55.394420" lon="8.712505">
|
|
<ele>7.307130</ele>
|
|
<time>2026-07-11T07:42:36.000Z</time>
|
|
</trkpt>
|
|
<trkpt lat="55.394400" lon="8.712520">
|
|
<ele>7.307130</ele>
|
|
<time>2026-07-11T07:42:37.000Z</time>
|
|
</trkpt>
|
|
<trkpt lat="55.394379" lon="8.712539">
|
|
<ele>7.307130</ele>
|
|
<time>2026-07-11T07:42:38.000Z</time>
|
|
</trkpt>
|
|
<trkpt lat="55.394362" lon="8.712562">
|
|
<ele>7.307130</ele>
|
|
<time>2026-07-11T07:42:39.000Z</time>
|
|
</trkpt>
|
|
<trkpt lat="55.394346" lon="8.712591">
|
|
<ele>7.307130</ele>
|
|
<time>2026-07-11T07:42:40.000Z</time>
|
|
</trkpt>
|
|
<trkpt lat="55.394335" lon="8.712622">
|
|
<ele>7.307130</ele>
|
|
<time>2026-07-11T07:42:41.000Z</time>
|
|
</trkpt>
|
|
<trkpt lat="55.394329" lon="8.712665">
|
|
<ele>7.307130</ele>
|
|
<time>2026-07-11T07:42:42.000Z</time>
|
|
</trkpt>
|
|
<trkpt lat="55.394328" lon="8.712710">
|
|
<ele>7.307130</ele>
|
|
<time>2026-07-11T07:42:43.000Z</time>
|
|
</trkpt>
|
|
<trkpt lat="55.394327" lon="8.712766">
|
|
<ele>7.307130</ele>
|
|
<time>2026-07-11T07:42:44.000Z</time>
|
|
</trkpt>
|
|
<trkpt lat="55.394328" lon="8.712813">
|
|
<ele>7.307130</ele>
|
|
<time>2026-07-11T07:42:45.000Z</time>
|
|
</trkpt>
|
|
<trkpt lat="55.394325" lon="8.712877">
|
|
<ele>7.307130</ele>
|
|
<time>2026-07-11T07:42:46.000Z</time>
|
|
</trkpt>
|
|
<trkpt lat="55.394326" lon="8.712936">
|
|
<ele>7.307130</ele>
|
|
<time>2026-07-11T07:42:47.000Z</time>
|
|
</trkpt>
|
|
<trkpt lat="55.394330" lon="8.713001">
|
|
<ele>7.307130</ele>
|
|
<time>2026-07-11T07:42:48.000Z</time>
|
|
</trkpt>
|
|
<trkpt lat="55.394333" lon="8.713054">
|
|
<ele>7.307130</ele>
|
|
<time>2026-07-11T07:42:49.000Z</time>
|
|
</trkpt>
|
|
<trkpt lat="55.394337" lon="8.713102">
|
|
<ele>7.307130</ele>
|
|
<time>2026-07-11T07:42:50.000Z</time>
|
|
</trkpt>
|
|
<trkpt lat="55.394337" lon="8.713149">
|
|
<ele>7.307130</ele>
|
|
<time>2026-07-11T07:42:51.000Z</time>
|
|
</trkpt>
|
|
<trkpt lat="55.394342" lon="8.713191">
|
|
<ele>7.307130</ele>
|
|
<time>2026-07-11T07:42:52.000Z</time>
|
|
</trkpt>
|
|
<trkpt lat="55.394348" lon="8.713220">
|
|
<ele>7.307130</ele>
|
|
<time>2026-07-11T07:42:53.000Z</time>
|
|
</trkpt>
|
|
<trkpt lat="55.394362" lon="8.713244">
|
|
<ele>7.307130</ele>
|
|
<time>2026-07-11T07:42:54.000Z</time>
|
|
</trkpt>
|
|
<trkpt lat="55.394379" lon="8.713259">
|
|
<ele>7.307130</ele>
|
|
<time>2026-07-11T07:42:55.000Z</time>
|
|
</trkpt>
|
|
<trkpt lat="55.394407" lon="8.713275">
|
|
<ele>7.307130</ele>
|
|
<time>2026-07-11T07:42:56.000Z</time>
|
|
</trkpt>
|
|
<trkpt lat="55.394429" lon="8.713286">
|
|
<ele>7.307130</ele>
|
|
<time>2026-07-11T07:42:57.000Z</time>
|
|
</trkpt>
|
|
<trkpt lat="55.394463" lon="8.713300">
|
|
<ele>7.306190</ele>
|
|
<time>2026-07-11T07:42:58.000Z</time>
|
|
</trkpt>
|
|
<trkpt lat="55.394489" lon="8.713309">
|
|
<ele>7.305083</ele>
|
|
<time>2026-07-11T07:42:59.000Z</time>
|
|
</trkpt>
|
|
<trkpt lat="55.394528" lon="8.713320">
|
|
<ele>7.303431</ele>
|
|
<time>2026-07-11T07:43:00.000Z</time>
|
|
</trkpt>
|
|
<trkpt lat="55.394558" lon="8.713321">
|
|
<ele>7.302177</ele>
|
|
<time>2026-07-11T07:43:01.000Z</time>
|
|
</trkpt>
|
|
<trkpt lat="55.394595" lon="8.713322">
|
|
<ele>7.300629</ele>
|
|
<time>2026-07-11T07:43:02.000Z</time>
|
|
</trkpt>
|
|
<trkpt lat="55.394634" lon="8.713323">
|
|
<ele>7.298999</ele>
|
|
<time>2026-07-11T07:43:03.000Z</time>
|
|
</trkpt>
|
|
<trkpt lat="55.394676" lon="8.713326">
|
|
<ele>7.297241</ele>
|
|
<time>2026-07-11T07:43:04.000Z</time>
|
|
</trkpt>
|
|
<trkpt lat="55.394751" lon="8.713336">
|
|
<ele>7.294096</ele>
|
|
<time>2026-07-11T07:43:05.000Z</time>
|
|
</trkpt>
|
|
<trkpt lat="55.394796" lon="8.713343">
|
|
<ele>7.292207</ele>
|
|
<time>2026-07-11T07:43:06.000Z</time>
|
|
</trkpt>
|
|
<trkpt lat="55.394841" lon="8.713349">
|
|
<ele>7.290320</ele>
|
|
<time>2026-07-11T07:43:07.000Z</time>
|
|
</trkpt>
|
|
<trkpt lat="55.394889" lon="8.713357">
|
|
<ele>7.288304</ele>
|
|
<time>2026-07-11T07:43:08.000Z</time>
|
|
</trkpt>
|
|
<trkpt lat="55.394937" lon="8.713366">
|
|
<ele>7.286286</ele>
|
|
<time>2026-07-11T07:43:09.000Z</time>
|
|
</trkpt>
|
|
<trkpt lat="55.394983" lon="8.713373">
|
|
<ele>7.284356</ele>
|
|
<time>2026-07-11T07:43:10.000Z</time>
|
|
</trkpt>
|
|
<trkpt lat="55.395033" lon="8.713381">
|
|
<ele>7.282256</ele>
|
|
<time>2026-07-11T07:43:11.000Z</time>
|
|
</trkpt>
|
|
<trkpt lat="55.395084" lon="8.713388">
|
|
<ele>7.280118</ele>
|
|
<time>2026-07-11T07:43:12.000Z</time>
|
|
</trkpt>
|
|
<trkpt lat="55.395132" lon="8.713398">
|
|
<ele>7.278097</ele>
|
|
<time>2026-07-11T07:43:13.000Z</time>
|
|
</trkpt>
|
|
<trkpt lat="55.395180" lon="8.713407">
|
|
<ele>7.276078</ele>
|
|
<time>2026-07-11T07:43:14.000Z</time>
|
|
</trkpt>
|
|
<trkpt lat="55.395229" lon="8.713412">
|
|
<ele>7.274026</ele>
|
|
<time>2026-07-11T07:43:15.000Z</time>
|
|
</trkpt>
|
|
<trkpt lat="55.395283" lon="8.713417">
|
|
<ele>7.271765</ele>
|
|
<time>2026-07-11T07:43:16.000Z</time>
|
|
</trkpt>
|
|
<trkpt lat="55.395337" lon="8.713423">
|
|
<ele>7.269503</ele>
|
|
<time>2026-07-11T07:43:17.000Z</time>
|
|
</trkpt>
|
|
<trkpt lat="55.395390" lon="8.713429">
|
|
<ele>7.267282</ele>
|
|
<time>2026-07-11T07:43:18.000Z</time>
|
|
</trkpt>
|
|
<trkpt lat="55.395442" lon="8.713437">
|
|
<ele>7.265100</ele>
|
|
<time>2026-07-11T07:43:19.000Z</time>
|
|
</trkpt>
|
|
<trkpt lat="55.395499" lon="8.713446">
|
|
<ele>7.262707</ele>
|
|
<time>2026-07-11T07:43:20.000Z</time>
|
|
</trkpt>
|
|
<trkpt lat="55.395557" lon="8.713454">
|
|
<ele>7.260274</ele>
|
|
<time>2026-07-11T07:43:21.000Z</time>
|
|
</trkpt>
|
|
<trkpt lat="55.395614" lon="8.713463">
|
|
<ele>7.257882</ele>
|
|
<time>2026-07-11T07:43:22.000Z</time>
|
|
</trkpt>
|
|
<trkpt lat="55.395668" lon="8.713474">
|
|
<ele>7.255609</ele>
|
|
<time>2026-07-11T07:43:23.000Z</time>
|
|
</trkpt>
|
|
<trkpt lat="55.395724" lon="8.713486">
|
|
<ele>7.253250</ele>
|
|
<time>2026-07-11T07:43:24.000Z</time>
|
|
</trkpt>
|
|
<trkpt lat="55.395784" lon="8.713501">
|
|
<ele>7.250716</ele>
|
|
<time>2026-07-11T07:43:25.000Z</time>
|
|
</trkpt>
|
|
<trkpt lat="55.395839" lon="8.713517">
|
|
<ele>7.248385</ele>
|
|
<time>2026-07-11T07:43:26.000Z</time>
|
|
</trkpt>
|
|
<trkpt lat="55.395899" lon="8.713531">
|
|
<ele>7.245855</ele>
|
|
<time>2026-07-11T07:43:27.000Z</time>
|
|
</trkpt>
|
|
<trkpt lat="55.395957" lon="8.713540">
|
|
<ele>7.243420</ele>
|
|
<time>2026-07-11T07:43:28.000Z</time>
|
|
</trkpt>
|
|
<trkpt lat="55.396014" lon="8.713550">
|
|
<ele>7.241025</ele>
|
|
<time>2026-07-11T07:43:29.000Z</time>
|
|
</trkpt>
|
|
<trkpt lat="55.396071" lon="8.713561">
|
|
<ele>7.238627</ele>
|
|
<time>2026-07-11T07:43:30.000Z</time>
|
|
</trkpt>
|
|
<trkpt lat="55.396129" lon="8.713575">
|
|
<ele>7.236180</ele>
|
|
<time>2026-07-11T07:43:31.000Z</time>
|
|
</trkpt>
|
|
<trkpt lat="55.396186" lon="8.713587">
|
|
<ele>7.233779</ele>
|
|
<time>2026-07-11T07:43:32.000Z</time>
|
|
</trkpt>
|
|
<trkpt lat="55.396241" lon="8.713597">
|
|
<ele>7.225440</ele>
|
|
<time>2026-07-11T07:43:33.000Z</time>
|
|
</trkpt>
|
|
<trkpt lat="55.396299" lon="8.713605">
|
|
<ele>7.190999</ele>
|
|
<time>2026-07-11T07:43:34.000Z</time>
|
|
</trkpt>
|
|
<trkpt lat="55.396364" lon="8.713615">
|
|
<ele>7.152371</ele>
|
|
<time>2026-07-11T07:43:35.000Z</time>
|
|
</trkpt>
|
|
<trkpt lat="55.396422" lon="8.713625">
|
|
<ele>7.117871</ele>
|
|
<time>2026-07-11T07:43:36.000Z</time>
|
|
</trkpt>
|
|
<trkpt lat="55.396484" lon="8.713635">
|
|
<ele>7.081012</ele>
|
|
<time>2026-07-11T07:43:37.000Z</time>
|
|
</trkpt>
|
|
<trkpt lat="55.396541" lon="8.713647">
|
|
<ele>7.047028</ele>
|
|
<time>2026-07-11T07:43:38.000Z</time>
|
|
</trkpt>
|
|
<trkpt lat="55.396597" lon="8.713662">
|
|
<ele>7.013494</ele>
|
|
<time>2026-07-11T07:43:39.000Z</time>
|
|
</trkpt>
|
|
<trkpt lat="55.396654" lon="8.713676">
|
|
<ele>6.979423</ele>
|
|
<time>2026-07-11T07:43:40.000Z</time>
|
|
</trkpt>
|
|
<trkpt lat="55.396714" lon="8.713689">
|
|
<ele>6.943634</ele>
|
|
<time>2026-07-11T07:43:41.000Z</time>
|
|
</trkpt>
|
|
<trkpt lat="55.396775" lon="8.713702">
|
|
<ele>6.907258</ele>
|
|
<time>2026-07-11T07:43:42.000Z</time>
|
|
</trkpt>
|
|
<trkpt lat="55.396838" lon="8.713712">
|
|
<ele>6.869810</ele>
|
|
<time>2026-07-11T07:43:43.000Z</time>
|
|
</trkpt>
|
|
<trkpt lat="55.396899" lon="8.713721">
|
|
<ele>6.833571</ele>
|
|
<time>2026-07-11T07:43:44.000Z</time>
|
|
</trkpt>
|
|
<trkpt lat="55.396957" lon="8.713732">
|
|
<ele>6.799036</ele>
|
|
<time>2026-07-11T07:43:45.000Z</time>
|
|
</trkpt>
|
|
<trkpt lat="55.397020" lon="8.713745">
|
|
<ele>6.761484</ele>
|
|
<time>2026-07-11T07:43:46.000Z</time>
|
|
</trkpt>
|
|
<trkpt lat="55.397083" lon="8.713761">
|
|
<ele>6.723802</ele>
|
|
<time>2026-07-11T07:43:47.000Z</time>
|
|
</trkpt>
|
|
<trkpt lat="55.397140" lon="8.713776">
|
|
<ele>6.689683</ele>
|
|
<time>2026-07-11T07:43:48.000Z</time>
|
|
</trkpt>
|
|
<trkpt lat="55.397195" lon="8.713788">
|
|
<ele>6.656873</ele>
|
|
<time>2026-07-11T07:43:49.000Z</time>
|
|
</trkpt>
|
|
<trkpt lat="55.397247" lon="8.713797">
|
|
<ele>6.625941</ele>
|
|
<time>2026-07-11T07:43:50.000Z</time>
|
|
</trkpt>
|
|
<trkpt lat="55.397295" lon="8.713805">
|
|
<ele>6.597397</ele>
|
|
<time>2026-07-11T07:43:51.000Z</time>
|
|
</trkpt>
|
|
<trkpt lat="55.397335" lon="8.713812">
|
|
<ele>6.573600</ele>
|
|
<time>2026-07-11T07:43:52.000Z</time>
|
|
</trkpt>
|
|
<trkpt lat="55.397368" lon="8.713813">
|
|
<ele>6.554061</ele>
|
|
<time>2026-07-11T07:43:53.000Z</time>
|
|
</trkpt>
|
|
<trkpt lat="55.397393" lon="8.713804">
|
|
<ele>6.538955</ele>
|
|
<time>2026-07-11T07:43:54.000Z</time>
|
|
</trkpt>
|
|
<trkpt lat="55.397413" lon="8.713786">
|
|
<ele>6.525658</ele>
|
|
<time>2026-07-11T07:43:55.000Z</time>
|
|
</trkpt>
|
|
<trkpt lat="55.397434" lon="8.713770">
|
|
<ele>6.512112</ele>
|
|
<time>2026-07-11T07:43:56.000Z</time>
|
|
</trkpt>
|
|
<trkpt lat="55.397454" lon="8.713762">
|
|
<ele>6.499970</ele>
|
|
<time>2026-07-11T07:43:57.000Z</time>
|
|
</trkpt>
|
|
<trkpt lat="55.397472" lon="8.713759">
|
|
<ele>6.489266</ele>
|
|
<time>2026-07-11T07:43:58.000Z</time>
|
|
</trkpt>
|
|
<trkpt lat="55.397484" lon="8.713749">
|
|
<ele>6.481407</ele>
|
|
<time>2026-07-11T07:43:59.000Z</time>
|
|
</trkpt>
|
|
<trkpt lat="55.397493" lon="8.713731">
|
|
<ele>6.473344</ele>
|
|
<time>2026-07-11T07:44:00.000Z</time>
|
|
</trkpt>
|
|
<trkpt lat="55.397502" lon="8.713710">
|
|
<ele>6.464499</ele>
|
|
<time>2026-07-11T07:44:01.000Z</time>
|
|
</trkpt>
|
|
<trkpt lat="55.397508" lon="8.713686">
|
|
<ele>6.455683</ele>
|
|
<time>2026-07-11T07:44:02.000Z</time>
|
|
</trkpt>
|
|
<trkpt lat="55.397512" lon="8.713660">
|
|
<ele>6.446627</ele>
|
|
<time>2026-07-11T07:44:03.000Z</time>
|
|
</trkpt>
|
|
<trkpt lat="55.397519" lon="8.713634">
|
|
<ele>6.436954</ele>
|
|
<time>2026-07-11T07:44:04.000Z</time>
|
|
</trkpt>
|
|
<trkpt lat="55.397530" lon="8.713604">
|
|
<ele>6.424948</ele>
|
|
<time>2026-07-11T07:44:05.000Z</time>
|
|
</trkpt>
|
|
<trkpt lat="55.397544" lon="8.713570">
|
|
<ele>6.410829</ele>
|
|
<time>2026-07-11T07:44:06.000Z</time>
|
|
</trkpt>
|
|
<trkpt lat="55.397558" lon="8.713534">
|
|
<ele>6.396161</ele>
|
|
<time>2026-07-11T07:44:07.000Z</time>
|
|
</trkpt>
|
|
<trkpt lat="55.397567" lon="8.713491">
|
|
<ele>6.380754</ele>
|
|
<time>2026-07-11T07:44:08.000Z</time>
|
|
</trkpt>
|
|
<trkpt lat="55.397572" lon="8.713440">
|
|
<ele>6.363354</ele>
|
|
<time>2026-07-11T07:44:09.000Z</time>
|
|
</trkpt>
|
|
<trkpt lat="55.397572" lon="8.713382">
|
|
<ele>6.343856</ele>
|
|
<time>2026-07-11T07:44:10.000Z</time>
|
|
</trkpt>
|
|
<trkpt lat="55.397573" lon="8.713317">
|
|
<ele>6.321995</ele>
|
|
<time>2026-07-11T07:44:11.000Z</time>
|
|
</trkpt>
|
|
<trkpt lat="55.397579" lon="8.713252">
|
|
<ele>6.299856</ele>
|
|
<time>2026-07-11T07:44:12.000Z</time>
|
|
</trkpt>
|
|
<trkpt lat="55.397585" lon="8.713184">
|
|
<ele>6.276721</ele>
|
|
<time>2026-07-11T07:44:13.000Z</time>
|
|
</trkpt>
|
|
<trkpt lat="55.397588" lon="8.713111">
|
|
<ele>6.252115</ele>
|
|
<time>2026-07-11T07:44:14.000Z</time>
|
|
</trkpt>
|
|
<trkpt lat="55.397594" lon="8.713033">
|
|
<ele>6.225653</ele>
|
|
<time>2026-07-11T07:44:15.000Z</time>
|
|
</trkpt>
|
|
<trkpt lat="55.397602" lon="8.712955">
|
|
<ele>6.199006</ele>
|
|
<time>2026-07-11T07:44:16.000Z</time>
|
|
</trkpt>
|
|
<trkpt lat="55.397609" lon="8.712874">
|
|
<ele>6.171461</ele>
|
|
<time>2026-07-11T07:44:17.000Z</time>
|
|
</trkpt>
|
|
<trkpt lat="55.397619" lon="8.712792">
|
|
<ele>6.163744</ele>
|
|
<time>2026-07-11T07:44:18.000Z</time>
|
|
</trkpt>
|
|
<trkpt lat="55.397628" lon="8.712709">
|
|
<ele>6.159731</ele>
|
|
<time>2026-07-11T07:44:19.000Z</time>
|
|
</trkpt>
|
|
<trkpt lat="55.397638" lon="8.712627">
|
|
<ele>6.155747</ele>
|
|
<time>2026-07-11T07:44:20.000Z</time>
|
|
</trkpt>
|
|
<trkpt lat="55.397649" lon="8.712545">
|
|
<ele>6.151746</ele>
|
|
<time>2026-07-11T07:44:21.000Z</time>
|
|
</trkpt>
|
|
<trkpt lat="55.397661" lon="8.712458">
|
|
<ele>6.147493</ele>
|
|
<time>2026-07-11T07:44:22.000Z</time>
|
|
</trkpt>
|
|
<trkpt lat="55.397672" lon="8.712370">
|
|
<ele>6.143214</ele>
|
|
<time>2026-07-11T07:44:23.000Z</time>
|
|
</trkpt>
|
|
<trkpt lat="55.397682" lon="8.712282">
|
|
<ele>6.138951</ele>
|
|
<time>2026-07-11T07:44:24.000Z</time>
|
|
</trkpt>
|
|
<trkpt lat="55.397691" lon="8.712195">
|
|
<ele>6.134751</ele>
|
|
<time>2026-07-11T07:44:25.000Z</time>
|
|
</trkpt>
|
|
<trkpt lat="55.397703" lon="8.712106">
|
|
<ele>6.130407</ele>
|
|
<time>2026-07-11T07:44:26.000Z</time>
|
|
</trkpt>
|
|
<trkpt lat="55.397714" lon="8.712017">
|
|
<ele>6.126081</ele>
|
|
<time>2026-07-11T07:44:27.000Z</time>
|
|
</trkpt>
|
|
<trkpt lat="55.397727" lon="8.711928">
|
|
<ele>6.121716</ele>
|
|
<time>2026-07-11T07:44:28.000Z</time>
|
|
</trkpt>
|
|
<trkpt lat="55.397740" lon="8.711844">
|
|
<ele>6.117581</ele>
|
|
<time>2026-07-11T07:44:29.000Z</time>
|
|
</trkpt>
|
|
<trkpt lat="55.397751" lon="8.711759">
|
|
<ele>6.113441</ele>
|
|
<time>2026-07-11T07:44:30.000Z</time>
|
|
</trkpt>
|
|
<trkpt lat="55.397763" lon="8.711659">
|
|
<ele>6.108586</ele>
|
|
<time>2026-07-11T07:44:31.000Z</time>
|
|
</trkpt>
|
|
<trkpt lat="55.397773" lon="8.711568">
|
|
<ele>6.104184</ele>
|
|
<time>2026-07-11T07:44:32.000Z</time>
|
|
</trkpt>
|
|
<trkpt lat="55.397783" lon="8.711471">
|
|
<ele>6.099502</ele>
|
|
<time>2026-07-11T07:44:33.000Z</time>
|
|
</trkpt>
|
|
<trkpt lat="55.397796" lon="8.711381">
|
|
<ele>6.095091</ele>
|
|
<time>2026-07-11T07:44:34.000Z</time>
|
|
</trkpt>
|
|
<trkpt lat="55.397811" lon="8.711297">
|
|
<ele>6.090909</ele>
|
|
<time>2026-07-11T07:44:35.000Z</time>
|
|
</trkpt>
|
|
<trkpt lat="55.397824" lon="8.711214">
|
|
<ele>6.086820</ele>
|
|
<time>2026-07-11T07:44:36.000Z</time>
|
|
</trkpt>
|
|
<trkpt lat="55.397836" lon="8.711129">
|
|
<ele>6.082660</ele>
|
|
<time>2026-07-11T07:44:37.000Z</time>
|
|
</trkpt>
|
|
<trkpt lat="55.397849" lon="8.711043">
|
|
<ele>6.078433</ele>
|
|
<time>2026-07-11T07:44:38.000Z</time>
|
|
</trkpt>
|
|
<trkpt lat="55.397863" lon="8.710958">
|
|
<ele>6.074230</ele>
|
|
<time>2026-07-11T07:44:39.000Z</time>
|
|
</trkpt>
|
|
<trkpt lat="55.397873" lon="8.710870">
|
|
<ele>6.069967</ele>
|
|
<time>2026-07-11T07:44:40.000Z</time>
|
|
</trkpt>
|
|
<trkpt lat="55.397882" lon="8.710780">
|
|
<ele>6.065627</ele>
|
|
<time>2026-07-11T07:44:41.000Z</time>
|
|
</trkpt>
|
|
<trkpt lat="55.397893" lon="8.710691">
|
|
<ele>6.061301</ele>
|
|
<time>2026-07-11T07:44:42.000Z</time>
|
|
</trkpt>
|
|
<trkpt lat="55.397904" lon="8.710600">
|
|
<ele>6.056882</ele>
|
|
<time>2026-07-11T07:44:43.000Z</time>
|
|
</trkpt>
|
|
<trkpt lat="55.397916" lon="8.710506">
|
|
<ele>6.052306</ele>
|
|
<time>2026-07-11T07:44:44.000Z</time>
|
|
</trkpt>
|
|
<trkpt lat="55.397928" lon="8.710416">
|
|
<ele>6.047916</ele>
|
|
<time>2026-07-11T07:44:45.000Z</time>
|
|
</trkpt>
|
|
<trkpt lat="55.397939" lon="8.710328">
|
|
<ele>6.043636</ele>
|
|
<time>2026-07-11T07:44:46.000Z</time>
|
|
</trkpt>
|
|
<trkpt lat="55.397951" lon="8.710241">
|
|
<ele>6.039384</ele>
|
|
<time>2026-07-11T07:44:47.000Z</time>
|
|
</trkpt>
|
|
<trkpt lat="55.397962" lon="8.710152">
|
|
<ele>6.035058</ele>
|
|
<time>2026-07-11T07:44:48.000Z</time>
|
|
</trkpt>
|
|
<trkpt lat="55.397975" lon="8.710063">
|
|
<ele>6.030693</ele>
|
|
<time>2026-07-11T07:44:49.000Z</time>
|
|
</trkpt>
|
|
<trkpt lat="55.397987" lon="8.709978">
|
|
<ele>6.026533</ele>
|
|
<time>2026-07-11T07:44:50.000Z</time>
|
|
</trkpt>
|
|
<trkpt lat="55.397995" lon="8.709892">
|
|
<ele>6.022394</ele>
|
|
<time>2026-07-11T07:44:51.000Z</time>
|
|
</trkpt>
|
|
<trkpt lat="55.397999" lon="8.709805">
|
|
<ele>6.018249</ele>
|
|
<time>2026-07-11T07:44:52.000Z</time>
|
|
</trkpt>
|
|
<trkpt lat="55.397999" lon="8.709717">
|
|
<ele>6.008730</ele>
|
|
<time>2026-07-11T07:44:53.000Z</time>
|
|
</trkpt>
|
|
<trkpt lat="55.397997" lon="8.709626">
|
|
<ele>5.995567</ele>
|
|
<time>2026-07-11T07:44:54.000Z</time>
|
|
</trkpt>
|
|
<trkpt lat="55.397992" lon="8.709534">
|
|
<ele>5.982209</ele>
|
|
<time>2026-07-11T07:44:55.000Z</time>
|
|
</trkpt>
|
|
<trkpt lat="55.397984" lon="8.709440">
|
|
<ele>5.968471</ele>
|
|
<time>2026-07-11T07:44:56.000Z</time>
|
|
</trkpt>
|
|
<trkpt lat="55.397976" lon="8.709348">
|
|
<ele>5.955019</ele>
|
|
<time>2026-07-11T07:44:57.000Z</time>
|
|
</trkpt>
|
|
<trkpt lat="55.397970" lon="8.709259">
|
|
<ele>5.942064</ele>
|
|
<time>2026-07-11T07:44:58.000Z</time>
|
|
</trkpt>
|
|
<trkpt lat="55.397962" lon="8.709164">
|
|
<ele>5.928183</ele>
|
|
<time>2026-07-11T07:44:59.000Z</time>
|
|
</trkpt>
|
|
<trkpt lat="55.397946" lon="8.709065">
|
|
<ele>5.913306</ele>
|
|
<time>2026-07-11T07:45:00.000Z</time>
|
|
</trkpt>
|
|
<trkpt lat="55.397933" lon="8.708968">
|
|
<ele>5.898901</ele>
|
|
<time>2026-07-11T07:45:01.000Z</time>
|
|
</trkpt>
|
|
<trkpt lat="55.397919" lon="8.708869">
|
|
<ele>5.884154</ele>
|
|
<time>2026-07-11T07:45:02.000Z</time>
|
|
</trkpt>
|
|
<trkpt lat="55.397905" lon="8.708769">
|
|
<ele>5.869268</ele>
|
|
<time>2026-07-11T07:45:03.000Z</time>
|
|
</trkpt>
|
|
<trkpt lat="55.397888" lon="8.708666">
|
|
<ele>5.853764</ele>
|
|
<time>2026-07-11T07:45:04.000Z</time>
|
|
</trkpt>
|
|
<trkpt lat="55.397870" lon="8.708565">
|
|
<ele>5.838464</ele>
|
|
<time>2026-07-11T07:45:05.000Z</time>
|
|
</trkpt>
|
|
<trkpt lat="55.397856" lon="8.708466">
|
|
<ele>5.823718</ele>
|
|
<time>2026-07-11T07:45:06.000Z</time>
|
|
</trkpt>
|
|
<trkpt lat="55.397845" lon="8.708365">
|
|
<ele>5.808854</ele>
|
|
<time>2026-07-11T07:45:07.000Z</time>
|
|
</trkpt>
|
|
<trkpt lat="55.397835" lon="8.708266">
|
|
<ele>5.794320</ele>
|
|
<time>2026-07-11T07:45:08.000Z</time>
|
|
</trkpt>
|
|
<trkpt lat="55.397823" lon="8.708171">
|
|
<ele>5.780253</ele>
|
|
<time>2026-07-11T07:45:09.000Z</time>
|
|
</trkpt>
|
|
<trkpt lat="55.397807" lon="8.708077">
|
|
<ele>5.766069</ele>
|
|
<time>2026-07-11T07:45:10.000Z</time>
|
|
</trkpt>
|
|
<trkpt lat="55.397795" lon="8.707982">
|
|
<ele>5.752003</ele>
|
|
<time>2026-07-11T07:45:11.000Z</time>
|
|
</trkpt>
|
|
<trkpt lat="55.397782" lon="8.707880">
|
|
<ele>5.736893</ele>
|
|
<time>2026-07-11T07:45:12.000Z</time>
|
|
</trkpt>
|
|
<trkpt lat="55.397765" lon="8.707777">
|
|
<ele>5.721389</ele>
|
|
<time>2026-07-11T07:45:13.000Z</time>
|
|
</trkpt>
|
|
<trkpt lat="55.397748" lon="8.707678">
|
|
<ele>5.706440</ele>
|
|
<time>2026-07-11T07:45:14.000Z</time>
|
|
</trkpt>
|
|
<trkpt lat="55.397734" lon="8.707581">
|
|
<ele>5.691974</ele>
|
|
<time>2026-07-11T07:45:15.000Z</time>
|
|
</trkpt>
|
|
<trkpt lat="55.397722" lon="8.707483">
|
|
<ele>5.677484</ele>
|
|
<time>2026-07-11T07:45:16.000Z</time>
|
|
</trkpt>
|
|
<trkpt lat="55.397704" lon="8.707379">
|
|
<ele>5.661769</ele>
|
|
<time>2026-07-11T07:45:17.000Z</time>
|
|
</trkpt>
|
|
<trkpt lat="55.397688" lon="8.707280">
|
|
<ele>5.646892</ele>
|
|
<time>2026-07-11T07:45:18.000Z</time>
|
|
</trkpt>
|
|
<trkpt lat="55.397674" lon="8.707181">
|
|
<ele>5.632146</ele>
|
|
<time>2026-07-11T07:45:19.000Z</time>
|
|
</trkpt>
|
|
<trkpt lat="55.397663" lon="8.707068">
|
|
<ele>5.615575</ele>
|
|
<time>2026-07-11T07:45:20.000Z</time>
|
|
</trkpt>
|
|
<trkpt lat="55.397658" lon="8.706963">
|
|
<ele>5.600345</ele>
|
|
<time>2026-07-11T07:45:21.000Z</time>
|
|
</trkpt>
|
|
<trkpt lat="55.397654" lon="8.706859">
|
|
<ele>5.585278</ele>
|
|
<time>2026-07-11T07:45:22.000Z</time>
|
|
</trkpt>
|
|
<trkpt lat="55.397650" lon="8.706754">
|
|
<ele>5.570068</ele>
|
|
<time>2026-07-11T07:45:23.000Z</time>
|
|
</trkpt>
|
|
<trkpt lat="55.397648" lon="8.706651">
|
|
<ele>5.562929</ele>
|
|
<time>2026-07-11T07:45:24.000Z</time>
|
|
</trkpt>
|
|
<trkpt lat="55.397649" lon="8.706555">
|
|
<ele>5.578046</ele>
|
|
<time>2026-07-11T07:45:25.000Z</time>
|
|
</trkpt>
|
|
<trkpt lat="55.397652" lon="8.706460">
|
|
<ele>5.593025</ele>
|
|
<time>2026-07-11T07:45:26.000Z</time>
|
|
</trkpt>
|
|
<trkpt lat="55.397652" lon="8.706351">
|
|
<ele>5.610186</ele>
|
|
<time>2026-07-11T07:45:27.000Z</time>
|
|
</trkpt>
|
|
<trkpt lat="55.397653" lon="8.706245">
|
|
<ele>5.626877</ele>
|
|
<time>2026-07-11T07:45:28.000Z</time>
|
|
</trkpt>
|
|
<trkpt lat="55.397655" lon="8.706144">
|
|
<ele>5.642788</ele>
|
|
<time>2026-07-11T07:45:29.000Z</time>
|
|
</trkpt>
|
|
<trkpt lat="55.397654" lon="8.706043">
|
|
<ele>5.658691</ele>
|
|
<time>2026-07-11T07:45:30.000Z</time>
|
|
</trkpt>
|
|
<trkpt lat="55.397652" lon="8.705939">
|
|
<ele>5.675074</ele>
|
|
<time>2026-07-11T07:45:31.000Z</time>
|
|
</trkpt>
|
|
<trkpt lat="55.397650" lon="8.705839">
|
|
<ele>5.690828</ele>
|
|
<time>2026-07-11T07:45:32.000Z</time>
|
|
</trkpt>
|
|
<trkpt lat="55.397648" lon="8.705740">
|
|
<ele>5.706424</ele>
|
|
<time>2026-07-11T07:45:33.000Z</time>
|
|
</trkpt>
|
|
<trkpt lat="55.397646" lon="8.705642">
|
|
<ele>5.721863</ele>
|
|
<time>2026-07-11T07:45:34.000Z</time>
|
|
</trkpt>
|
|
<trkpt lat="55.397644" lon="8.705541">
|
|
<ele>5.737774</ele>
|
|
<time>2026-07-11T07:45:35.000Z</time>
|
|
</trkpt>
|
|
<trkpt lat="55.397644" lon="8.705437">
|
|
<ele>5.754148</ele>
|
|
<time>2026-07-11T07:45:36.000Z</time>
|
|
</trkpt>
|
|
<trkpt lat="55.397642" lon="8.705333">
|
|
<ele>5.770531</ele>
|
|
<time>2026-07-11T07:45:37.000Z</time>
|
|
</trkpt>
|
|
<trkpt lat="55.397639" lon="8.705231">
|
|
<ele>5.786611</ele>
|
|
<time>2026-07-11T07:45:38.000Z</time>
|
|
</trkpt>
|
|
<trkpt lat="55.397633" lon="8.705129">
|
|
<ele>5.802755</ele>
|
|
<time>2026-07-11T07:45:39.000Z</time>
|
|
</trkpt>
|
|
<trkpt lat="55.397625" lon="8.705026">
|
|
<ele>5.819123</ele>
|
|
<time>2026-07-11T07:45:40.000Z</time>
|
|
</trkpt>
|
|
<trkpt lat="55.397619" lon="8.704924">
|
|
<ele>5.835267</ele>
|
|
<time>2026-07-11T07:45:41.000Z</time>
|
|
</trkpt>
|
|
<trkpt lat="55.397614" lon="8.704821">
|
|
<ele>5.851543</ele>
|
|
<time>2026-07-11T07:45:42.000Z</time>
|
|
</trkpt>
|
|
<trkpt lat="55.397606" lon="8.704719">
|
|
<ele>5.867754</ele>
|
|
<time>2026-07-11T07:45:43.000Z</time>
|
|
</trkpt>
|
|
<trkpt lat="55.397599" lon="8.704620">
|
|
<ele>5.883460</ele>
|
|
<time>2026-07-11T07:45:44.000Z</time>
|
|
</trkpt>
|
|
<trkpt lat="55.397589" lon="8.704522">
|
|
<ele>5.899137</ele>
|
|
<time>2026-07-11T07:45:45.000Z</time>
|
|
</trkpt>
|
|
<trkpt lat="55.397576" lon="8.704425">
|
|
<ele>5.914828</ele>
|
|
<time>2026-07-11T07:45:46.000Z</time>
|
|
</trkpt>
|
|
<trkpt lat="55.397559" lon="8.704327">
|
|
<ele>5.930960</ele>
|
|
<time>2026-07-11T07:45:47.000Z</time>
|
|
</trkpt>
|
|
<trkpt lat="55.397540" lon="8.704229">
|
|
<ele>5.947264</ele>
|
|
<time>2026-07-11T07:45:48.000Z</time>
|
|
</trkpt>
|
|
<trkpt lat="55.397519" lon="8.704135">
|
|
<ele>5.963167</ele>
|
|
<time>2026-07-11T07:45:49.000Z</time>
|
|
</trkpt>
|
|
<trkpt lat="55.397495" lon="8.704044">
|
|
<ele>5.978964</ele>
|
|
<time>2026-07-11T07:45:50.000Z</time>
|
|
</trkpt>
|
|
<trkpt lat="55.397466" lon="8.703951">
|
|
<ele>5.995668</ele>
|
|
<time>2026-07-11T07:45:51.000Z</time>
|
|
</trkpt>
|
|
<trkpt lat="55.397437" lon="8.703856">
|
|
<ele>6.012648</ele>
|
|
<time>2026-07-11T07:45:52.000Z</time>
|
|
</trkpt>
|
|
<trkpt lat="55.397411" lon="8.703757">
|
|
<ele>6.029821</ele>
|
|
<time>2026-07-11T07:45:53.000Z</time>
|
|
</trkpt>
|
|
<trkpt lat="55.397386" lon="8.703656">
|
|
<ele>6.047167</ele>
|
|
<time>2026-07-11T07:45:54.000Z</time>
|
|
</trkpt>
|
|
<trkpt lat="55.397367" lon="8.703551">
|
|
<ele>6.039020</ele>
|
|
<time>2026-07-11T07:45:55.000Z</time>
|
|
</trkpt>
|
|
<trkpt lat="55.397353" lon="8.703437">
|
|
<ele>5.990278</ele>
|
|
<time>2026-07-11T07:45:56.000Z</time>
|
|
</trkpt>
|
|
<trkpt lat="55.397343" lon="8.703328">
|
|
<ele>5.944137</ele>
|
|
<time>2026-07-11T07:45:57.000Z</time>
|
|
</trkpt>
|
|
<trkpt lat="55.397337" lon="8.703223">
|
|
<ele>5.900036</ele>
|
|
<time>2026-07-11T07:45:58.000Z</time>
|
|
</trkpt>
|
|
<trkpt lat="55.397335" lon="8.703122">
|
|
<ele>5.857802</ele>
|
|
<time>2026-07-11T07:45:59.000Z</time>
|
|
</trkpt>
|
|
<trkpt lat="55.397335" lon="8.703022">
|
|
<ele>5.816013</ele>
|
|
<time>2026-07-11T07:46:00.000Z</time>
|
|
</trkpt>
|
|
<trkpt lat="55.397339" lon="8.702930">
|
|
<ele>5.777453</ele>
|
|
<time>2026-07-11T07:46:01.000Z</time>
|
|
</trkpt>
|
|
<trkpt lat="55.397348" lon="8.702847">
|
|
<ele>5.742141</ele>
|
|
<time>2026-07-11T07:46:02.000Z</time>
|
|
</trkpt>
|
|
<trkpt lat="55.397356" lon="8.702768">
|
|
<ele>5.708606</ele>
|
|
<time>2026-07-11T07:46:03.000Z</time>
|
|
</trkpt>
|
|
<trkpt lat="55.397355" lon="8.702686">
|
|
<ele>5.674331</ele>
|
|
<time>2026-07-11T07:46:04.000Z</time>
|
|
</trkpt>
|
|
<trkpt lat="55.397345" lon="8.702604">
|
|
<ele>5.639282</ele>
|
|
<time>2026-07-11T07:46:05.000Z</time>
|
|
</trkpt>
|
|
<trkpt lat="55.397332" lon="8.702517">
|
|
<ele>5.601687</ele>
|
|
<time>2026-07-11T07:46:06.000Z</time>
|
|
</trkpt>
|
|
<trkpt lat="55.397317" lon="8.702421">
|
|
<ele>5.560078</ele>
|
|
<time>2026-07-11T07:46:07.000Z</time>
|
|
</trkpt>
|
|
<trkpt lat="55.397305" lon="8.702323">
|
|
<ele>5.518183</ele>
|
|
<time>2026-07-11T07:46:08.000Z</time>
|
|
</trkpt>
|
|
<trkpt lat="55.397297" lon="8.702223">
|
|
<ele>5.475980</ele>
|
|
<time>2026-07-11T07:46:09.000Z</time>
|
|
</trkpt>
|
|
<trkpt lat="55.397290" lon="8.702126">
|
|
<ele>5.435118</ele>
|
|
<time>2026-07-11T07:46:10.000Z</time>
|
|
</trkpt>
|
|
<trkpt lat="55.397282" lon="8.702026">
|
|
<ele>5.392915</ele>
|
|
<time>2026-07-11T07:46:11.000Z</time>
|
|
</trkpt>
|
|
<trkpt lat="55.397274" lon="8.701919">
|
|
<ele>5.347814</ele>
|
|
<time>2026-07-11T07:46:12.000Z</time>
|
|
</trkpt>
|
|
<trkpt lat="55.397265" lon="8.701813">
|
|
<ele>5.303024</ele>
|
|
<time>2026-07-11T07:46:13.000Z</time>
|
|
</trkpt>
|
|
<trkpt lat="55.397252" lon="8.701711">
|
|
<ele>5.259338</ele>
|
|
<time>2026-07-11T07:46:14.000Z</time>
|
|
</trkpt>
|
|
<trkpt lat="55.397235" lon="8.701608">
|
|
<ele>5.214513</ele>
|
|
<time>2026-07-11T07:46:15.000Z</time>
|
|
</trkpt>
|
|
<trkpt lat="55.397213" lon="8.701504">
|
|
<ele>5.168134</ele>
|
|
<time>2026-07-11T07:46:16.000Z</time>
|
|
</trkpt>
|
|
<trkpt lat="55.397188" lon="8.701404">
|
|
<ele>5.122474</ele>
|
|
<time>2026-07-11T07:46:17.000Z</time>
|
|
</trkpt>
|
|
<trkpt lat="55.397166" lon="8.701305">
|
|
<ele>5.078047</ele>
|
|
<time>2026-07-11T07:46:18.000Z</time>
|
|
</trkpt>
|
|
<trkpt lat="55.397144" lon="8.701205">
|
|
<ele>5.033231</ele>
|
|
<time>2026-07-11T07:46:19.000Z</time>
|
|
</trkpt>
|
|
<trkpt lat="55.397121" lon="8.701099">
|
|
<ele>4.985810</ele>
|
|
<time>2026-07-11T07:46:20.000Z</time>
|
|
</trkpt>
|
|
<trkpt lat="55.397099" lon="8.700990">
|
|
<ele>4.937467</ele>
|
|
<time>2026-07-11T07:46:21.000Z</time>
|
|
</trkpt>
|
|
<trkpt lat="55.397078" lon="8.700882">
|
|
<ele>4.889761</ele>
|
|
<time>2026-07-11T07:46:22.000Z</time>
|
|
</trkpt>
|
|
<trkpt lat="55.397059" lon="8.700774">
|
|
<ele>4.842512</ele>
|
|
<time>2026-07-11T07:46:23.000Z</time>
|
|
</trkpt>
|
|
<trkpt lat="55.397042" lon="8.700667">
|
|
<ele>4.796079</ele>
|
|
<time>2026-07-11T07:46:24.000Z</time>
|
|
</trkpt>
|
|
<trkpt lat="55.397030" lon="8.700561">
|
|
<ele>4.750910</ele>
|
|
<time>2026-07-11T07:46:25.000Z</time>
|
|
</trkpt>
|
|
<trkpt lat="55.397023" lon="8.700454">
|
|
<ele>4.744582</ele>
|
|
<time>2026-07-11T07:46:26.000Z</time>
|
|
</trkpt>
|
|
<trkpt lat="55.397018" lon="8.700340">
|
|
<ele>4.762725</ele>
|
|
<time>2026-07-11T07:46:27.000Z</time>
|
|
</trkpt>
|
|
<trkpt lat="55.397018" lon="8.700229">
|
|
<ele>4.780339</ele>
|
|
<time>2026-07-11T07:46:28.000Z</time>
|
|
</trkpt>
|
|
<trkpt lat="55.397020" lon="8.700122">
|
|
<ele>4.797327</ele>
|
|
<time>2026-07-11T07:46:29.000Z</time>
|
|
</trkpt>
|
|
<trkpt lat="55.397022" lon="8.700018">
|
|
<ele>4.813839</ele>
|
|
<time>2026-07-11T07:46:30.000Z</time>
|
|
</trkpt>
|
|
<trkpt lat="55.397024" lon="8.699912">
|
|
<ele>4.830669</ele>
|
|
<time>2026-07-11T07:46:31.000Z</time>
|
|
</trkpt>
|
|
<trkpt lat="55.397028" lon="8.699805">
|
|
<ele>4.847684</ele>
|
|
<time>2026-07-11T07:46:32.000Z</time>
|
|
</trkpt>
|
|
<trkpt lat="55.397032" lon="8.699698">
|
|
<ele>4.864700</ele>
|
|
<time>2026-07-11T07:46:33.000Z</time>
|
|
</trkpt>
|
|
<trkpt lat="55.397035" lon="8.699592">
|
|
<ele>4.881541</ele>
|
|
<time>2026-07-11T07:46:34.000Z</time>
|
|
</trkpt>
|
|
<trkpt lat="55.397036" lon="8.699482">
|
|
<ele>4.898998</ele>
|
|
<time>2026-07-11T07:46:35.000Z</time>
|
|
</trkpt>
|
|
<trkpt lat="55.397034" lon="8.699370">
|
|
<ele>4.916779</ele>
|
|
<time>2026-07-11T07:46:36.000Z</time>
|
|
</trkpt>
|
|
<trkpt lat="55.397034" lon="8.699265">
|
|
<ele>4.933440</ele>
|
|
<time>2026-07-11T07:46:37.000Z</time>
|
|
</trkpt>
|
|
<trkpt lat="55.397034" lon="8.699161">
|
|
<ele>4.949943</ele>
|
|
<time>2026-07-11T07:46:38.000Z</time>
|
|
</trkpt>
|
|
<trkpt lat="55.397030" lon="8.699057">
|
|
<ele>4.966484</ele>
|
|
<time>2026-07-11T07:46:39.000Z</time>
|
|
</trkpt>
|
|
<trkpt lat="55.397019" lon="8.698956">
|
|
<ele>4.982803</ele>
|
|
<time>2026-07-11T07:46:40.000Z</time>
|
|
</trkpt>
|
|
<trkpt lat="55.396999" lon="8.698858">
|
|
<ele>4.999327</ele>
|
|
<time>2026-07-11T07:46:41.000Z</time>
|
|
</trkpt>
|
|
<trkpt lat="55.396970" lon="8.698767">
|
|
<ele>5.015885</ele>
|
|
<time>2026-07-11T07:46:42.000Z</time>
|
|
</trkpt>
|
|
<trkpt lat="55.396936" lon="8.698684">
|
|
<ele>5.032125</ele>
|
|
<time>2026-07-11T07:46:43.000Z</time>
|
|
</trkpt>
|
|
<trkpt lat="55.396898" lon="8.698607">
|
|
<ele>5.048312</ele>
|
|
<time>2026-07-11T07:46:44.000Z</time>
|
|
</trkpt>
|
|
<trkpt lat="55.396862" lon="8.698540">
|
|
<ele>5.062948</ele>
|
|
<time>2026-07-11T07:46:45.000Z</time>
|
|
</trkpt>
|
|
<trkpt lat="55.396827" lon="8.698478">
|
|
<ele>5.076821</ele>
|
|
<time>2026-07-11T07:46:46.000Z</time>
|
|
</trkpt>
|
|
<trkpt lat="55.396788" lon="8.698414">
|
|
<ele>5.091717</ele>
|
|
<time>2026-07-11T07:46:47.000Z</time>
|
|
</trkpt>
|
|
<trkpt lat="55.396747" lon="8.698354">
|
|
<ele>5.106613</ele>
|
|
<time>2026-07-11T07:46:48.000Z</time>
|
|
</trkpt>
|
|
<trkpt lat="55.396708" lon="8.698298">
|
|
<ele>5.120674</ele>
|
|
<time>2026-07-11T07:46:49.000Z</time>
|
|
</trkpt>
|
|
<trkpt lat="55.396668" lon="8.698248">
|
|
<ele>5.134381</ele>
|
|
<time>2026-07-11T07:46:50.000Z</time>
|
|
</trkpt>
|
|
<trkpt lat="55.396624" lon="8.698200">
|
|
<ele>5.148844</ele>
|
|
<time>2026-07-11T07:46:51.000Z</time>
|
|
</trkpt>
|
|
<trkpt lat="55.396580" lon="8.698153">
|
|
<ele>5.163224</ele>
|
|
<time>2026-07-11T07:46:52.000Z</time>
|
|
</trkpt>
|
|
<trkpt lat="55.396536" lon="8.698106">
|
|
<ele>5.177603</ele>
|
|
<time>2026-07-11T07:46:53.000Z</time>
|
|
</trkpt>
|
|
<trkpt lat="55.396491" lon="8.698062">
|
|
<ele>5.191986</ele>
|
|
<time>2026-07-11T07:46:54.000Z</time>
|
|
</trkpt>
|
|
<trkpt lat="55.396448" lon="8.698021">
|
|
<ele>5.205649</ele>
|
|
<time>2026-07-11T07:46:55.000Z</time>
|
|
</trkpt>
|
|
<trkpt lat="55.396404" lon="8.697974">
|
|
<ele>5.220029</ele>
|
|
<time>2026-07-11T07:46:56.000Z</time>
|
|
</trkpt>
|
|
<trkpt lat="55.396359" lon="8.697918">
|
|
<ele>5.235426</ele>
|
|
<time>2026-07-11T07:46:57.000Z</time>
|
|
</trkpt>
|
|
<trkpt lat="55.396319" lon="8.697860">
|
|
<ele>5.256624</ele>
|
|
<time>2026-07-11T07:46:58.000Z</time>
|
|
</trkpt>
|
|
<trkpt lat="55.396282" lon="8.697788">
|
|
<ele>5.279767</ele>
|
|
<time>2026-07-11T07:46:59.000Z</time>
|
|
</trkpt>
|
|
<trkpt lat="55.396253" lon="8.697699">
|
|
<ele>5.304222</ele>
|
|
<time>2026-07-11T07:47:00.000Z</time>
|
|
</trkpt>
|
|
<trkpt lat="55.396233" lon="8.697600">
|
|
<ele>5.329265</ele>
|
|
<time>2026-07-11T07:47:01.000Z</time>
|
|
</trkpt>
|
|
<trkpt lat="55.396227" lon="8.697501">
|
|
<ele>5.352994</ele>
|
|
<time>2026-07-11T07:47:02.000Z</time>
|
|
</trkpt>
|
|
<trkpt lat="55.396239" lon="8.697403">
|
|
<ele>5.376887</ele>
|
|
<time>2026-07-11T07:47:03.000Z</time>
|
|
</trkpt>
|
|
<trkpt lat="55.396262" lon="8.697319">
|
|
<ele>5.399113</ele>
|
|
<time>2026-07-11T07:47:04.000Z</time>
|
|
</trkpt>
|
|
<trkpt lat="55.396288" lon="8.697247">
|
|
<ele>5.419448</ele>
|
|
<time>2026-07-11T07:47:05.000Z</time>
|
|
</trkpt>
|
|
<trkpt lat="55.396327" lon="8.697160">
|
|
<ele>5.445864</ele>
|
|
<time>2026-07-11T07:47:06.000Z</time>
|
|
</trkpt>
|
|
<trkpt lat="55.396365" lon="8.697071">
|
|
<ele>5.472402</ele>
|
|
<time>2026-07-11T07:47:07.000Z</time>
|
|
</trkpt>
|
|
<trkpt lat="55.396399" lon="8.696993">
|
|
<ele>5.495837</ele>
|
|
<time>2026-07-11T07:47:08.000Z</time>
|
|
</trkpt>
|
|
<trkpt lat="55.396429" lon="8.696914">
|
|
<ele>5.518487</ele>
|
|
<time>2026-07-11T07:47:09.000Z</time>
|
|
</trkpt>
|
|
<trkpt lat="55.396460" lon="8.696833">
|
|
<ele>5.541766</ele>
|
|
<time>2026-07-11T07:47:10.000Z</time>
|
|
</trkpt>
|
|
<trkpt lat="55.396490" lon="8.696749">
|
|
<ele>5.565416</ele>
|
|
<time>2026-07-11T07:47:11.000Z</time>
|
|
</trkpt>
|
|
<trkpt lat="55.396521" lon="8.696666">
|
|
<ele>5.589092</ele>
|
|
<time>2026-07-11T07:47:12.000Z</time>
|
|
</trkpt>
|
|
<trkpt lat="55.396551" lon="8.696587">
|
|
<ele>5.611742</ele>
|
|
<time>2026-07-11T07:47:13.000Z</time>
|
|
</trkpt>
|
|
<trkpt lat="55.396582" lon="8.696511">
|
|
<ele>5.634043</ele>
|
|
<time>2026-07-11T07:47:14.000Z</time>
|
|
</trkpt>
|
|
<trkpt lat="55.396610" lon="8.696434">
|
|
<ele>5.655834</ele>
|
|
<time>2026-07-11T07:47:15.000Z</time>
|
|
</trkpt>
|
|
<trkpt lat="55.396640" lon="8.696355">
|
|
<ele>5.678484</ele>
|
|
<time>2026-07-11T07:47:16.000Z</time>
|
|
</trkpt>
|
|
<trkpt lat="55.396674" lon="8.696275">
|
|
<ele>5.702298</ele>
|
|
<time>2026-07-11T07:47:17.000Z</time>
|
|
</trkpt>
|
|
<trkpt lat="55.396705" lon="8.696198">
|
|
<ele>5.724793</ele>
|
|
<time>2026-07-11T07:47:18.000Z</time>
|
|
</trkpt>
|
|
<trkpt lat="55.396740" lon="8.696118">
|
|
<ele>5.748861</ele>
|
|
<time>2026-07-11T07:47:19.000Z</time>
|
|
</trkpt>
|
|
<trkpt lat="55.396774" lon="8.696039">
|
|
<ele>5.772486</ele>
|
|
<time>2026-07-11T07:47:20.000Z</time>
|
|
</trkpt>
|
|
<trkpt lat="55.396807" lon="8.695963">
|
|
<ele>5.795286</ele>
|
|
<time>2026-07-11T07:47:21.000Z</time>
|
|
</trkpt>
|
|
<trkpt lat="55.396839" lon="8.695887">
|
|
<ele>5.817835</ele>
|
|
<time>2026-07-11T07:47:22.000Z</time>
|
|
</trkpt>
|
|
<trkpt lat="55.396874" lon="8.695807">
|
|
<ele>5.841903</ele>
|
|
<time>2026-07-11T07:47:23.000Z</time>
|
|
</trkpt>
|
|
<trkpt lat="55.396910" lon="8.695729">
|
|
<ele>5.865858</ele>
|
|
<time>2026-07-11T07:47:24.000Z</time>
|
|
</trkpt>
|
|
<trkpt lat="55.396949" lon="8.695654">
|
|
<ele>5.890094</ele>
|
|
<time>2026-07-11T07:47:25.000Z</time>
|
|
</trkpt>
|
|
<trkpt lat="55.396989" lon="8.695578">
|
|
<ele>5.914790</ele>
|
|
<time>2026-07-11T07:47:26.000Z</time>
|
|
</trkpt>
|
|
<trkpt lat="55.397028" lon="8.695498">
|
|
<ele>5.939918</ele>
|
|
<time>2026-07-11T07:47:27.000Z</time>
|
|
</trkpt>
|
|
<trkpt lat="55.397066" lon="8.695419">
|
|
<ele>5.964592</ele>
|
|
<time>2026-07-11T07:47:28.000Z</time>
|
|
</trkpt>
|
|
<trkpt lat="55.397103" lon="8.695339">
|
|
<ele>5.989181</ele>
|
|
<time>2026-07-11T07:47:29.000Z</time>
|
|
</trkpt>
|
|
<trkpt lat="55.397137" lon="8.695259">
|
|
<ele>5.979522</ele>
|
|
<time>2026-07-11T07:47:30.000Z</time>
|
|
</trkpt>
|
|
<trkpt lat="55.397173" lon="8.695179">
|
|
<ele>5.966206</ele>
|
|
<time>2026-07-11T07:47:31.000Z</time>
|
|
</trkpt>
|
|
<trkpt lat="55.397209" lon="8.695097">
|
|
<ele>5.952685</ele>
|
|
<time>2026-07-11T07:47:32.000Z</time>
|
|
</trkpt>
|
|
<trkpt lat="55.397242" lon="8.695013">
|
|
<ele>5.939361</ele>
|
|
<time>2026-07-11T07:47:33.000Z</time>
|
|
</trkpt>
|
|
<trkpt lat="55.397273" lon="8.694926">
|
|
<ele>5.925962</ele>
|
|
<time>2026-07-11T07:47:34.000Z</time>
|
|
</trkpt>
|
|
<trkpt lat="55.397303" lon="8.694841">
|
|
<ele>5.912906</ele>
|
|
<time>2026-07-11T07:47:35.000Z</time>
|
|
</trkpt>
|
|
<trkpt lat="55.397334" lon="8.694762">
|
|
<ele>5.900379</ele>
|
|
<time>2026-07-11T07:47:36.000Z</time>
|
|
</trkpt>
|
|
<trkpt lat="55.397362" lon="8.694682">
|
|
<ele>5.888120</ele>
|
|
<time>2026-07-11T07:47:37.000Z</time>
|
|
</trkpt>
|
|
<trkpt lat="55.397391" lon="8.694602">
|
|
<ele>5.875739</ele>
|
|
<time>2026-07-11T07:47:38.000Z</time>
|
|
</trkpt>
|
|
<trkpt lat="55.397420" lon="8.694521">
|
|
<ele>5.863248</ele>
|
|
<time>2026-07-11T07:47:39.000Z</time>
|
|
</trkpt>
|
|
<trkpt lat="55.397448" lon="8.694441">
|
|
<ele>5.850988</ele>
|
|
<time>2026-07-11T07:47:40.000Z</time>
|
|
</trkpt>
|
|
<trkpt lat="55.397477" lon="8.694358">
|
|
<ele>5.838275</ele>
|
|
<time>2026-07-11T07:47:41.000Z</time>
|
|
</trkpt>
|
|
<trkpt lat="55.397504" lon="8.694275">
|
|
<ele>5.825797</ele>
|
|
<time>2026-07-11T07:47:42.000Z</time>
|
|
</trkpt>
|
|
<trkpt lat="55.397530" lon="8.694192">
|
|
<ele>5.813432</ele>
|
|
<time>2026-07-11T07:47:43.000Z</time>
|
|
</trkpt>
|
|
<trkpt lat="55.397553" lon="8.694105">
|
|
<ele>5.800913</ele>
|
|
<time>2026-07-11T07:47:44.000Z</time>
|
|
</trkpt>
|
|
<trkpt lat="55.397571" lon="8.694013">
|
|
<ele>5.788219</ele>
|
|
<time>2026-07-11T07:47:45.000Z</time>
|
|
</trkpt>
|
|
<trkpt lat="55.397586" lon="8.693919">
|
|
<ele>5.775481</ele>
|
|
<time>2026-07-11T07:47:46.000Z</time>
|
|
</trkpt>
|
|
<trkpt lat="55.397603" lon="8.693828">
|
|
<ele>5.762984</ele>
|
|
<time>2026-07-11T07:47:47.000Z</time>
|
|
</trkpt>
|
|
<trkpt lat="55.397619" lon="8.693737">
|
|
<ele>5.750557</ele>
|
|
<time>2026-07-11T07:47:48.000Z</time>
|
|
</trkpt>
|
|
<trkpt lat="55.397632" lon="8.693646">
|
|
<ele>5.738316</ele>
|
|
<time>2026-07-11T07:47:49.000Z</time>
|
|
</trkpt>
|
|
<trkpt lat="55.397644" lon="8.693553">
|
|
<ele>5.725875</ele>
|
|
<time>2026-07-11T07:47:50.000Z</time>
|
|
</trkpt>
|
|
<trkpt lat="55.397653" lon="8.693459">
|
|
<ele>5.713439</ele>
|
|
<time>2026-07-11T07:47:51.000Z</time>
|
|
</trkpt>
|
|
<trkpt lat="55.397664" lon="8.693367">
|
|
<ele>5.701174</ele>
|
|
<time>2026-07-11T07:47:52.000Z</time>
|
|
</trkpt>
|
|
<trkpt lat="55.397677" lon="8.693275">
|
|
<ele>5.688807</ele>
|
|
<time>2026-07-11T07:47:53.000Z</time>
|
|
</trkpt>
|
|
<trkpt lat="55.397691" lon="8.693182">
|
|
<ele>5.676256</ele>
|
|
<time>2026-07-11T07:47:54.000Z</time>
|
|
</trkpt>
|
|
<trkpt lat="55.397701" lon="8.693088">
|
|
<ele>5.663780</ele>
|
|
<time>2026-07-11T07:47:55.000Z</time>
|
|
</trkpt>
|
|
<trkpt lat="55.397708" lon="8.692990">
|
|
<ele>5.650895</ele>
|
|
<time>2026-07-11T07:47:56.000Z</time>
|
|
</trkpt>
|
|
<trkpt lat="55.397714" lon="8.692886">
|
|
<ele>5.637258</ele>
|
|
<time>2026-07-11T07:47:57.000Z</time>
|
|
</trkpt>
|
|
<trkpt lat="55.397721" lon="8.692786">
|
|
<ele>5.624114</ele>
|
|
<time>2026-07-11T07:47:58.000Z</time>
|
|
</trkpt>
|
|
<trkpt lat="55.397733" lon="8.692685">
|
|
<ele>5.610653</ele>
|
|
<time>2026-07-11T07:47:59.000Z</time>
|
|
</trkpt>
|
|
<trkpt lat="55.397745" lon="8.692582">
|
|
<ele>5.596937</ele>
|
|
<time>2026-07-11T07:48:00.000Z</time>
|
|
</trkpt>
|
|
<trkpt lat="55.397754" lon="8.692478">
|
|
<ele>5.583213</ele>
|
|
<time>2026-07-11T07:48:01.000Z</time>
|
|
</trkpt>
|
|
<trkpt lat="55.397764" lon="8.692376">
|
|
<ele>5.566594</ele>
|
|
<time>2026-07-11T07:48:02.000Z</time>
|
|
</trkpt>
|
|
<trkpt lat="55.397775" lon="8.692273">
|
|
<ele>5.547894</ele>
|
|
<time>2026-07-11T07:48:03.000Z</time>
|
|
</trkpt>
|
|
<trkpt lat="55.397785" lon="8.692169">
|
|
<ele>5.529072</ele>
|
|
<time>2026-07-11T07:48:04.000Z</time>
|
|
</trkpt>
|
|
<trkpt lat="55.397794" lon="8.692065">
|
|
<ele>5.510301</ele>
|
|
<time>2026-07-11T07:48:05.000Z</time>
|
|
</trkpt>
|
|
<trkpt lat="55.397805" lon="8.691959">
|
|
<ele>5.491074</ele>
|
|
<time>2026-07-11T07:48:06.000Z</time>
|
|
</trkpt>
|
|
<trkpt lat="55.397817" lon="8.691855">
|
|
<ele>5.472137</ele>
|
|
<time>2026-07-11T07:48:07.000Z</time>
|
|
</trkpt>
|
|
<trkpt lat="55.397829" lon="8.691751">
|
|
<ele>5.453201</ele>
|
|
<time>2026-07-11T07:48:08.000Z</time>
|
|
</trkpt>
|
|
<trkpt lat="55.397842" lon="8.691646">
|
|
<ele>5.434025</ele>
|
|
<time>2026-07-11T07:48:09.000Z</time>
|
|
</trkpt>
|
|
<trkpt lat="55.397855" lon="8.691543">
|
|
<ele>5.415198</ele>
|
|
<time>2026-07-11T07:48:10.000Z</time>
|
|
</trkpt>
|
|
<trkpt lat="55.397865" lon="8.691439">
|
|
<ele>5.396377</ele>
|
|
<time>2026-07-11T07:48:11.000Z</time>
|
|
</trkpt>
|
|
<trkpt lat="55.397873" lon="8.691335">
|
|
<ele>5.377650</ele>
|
|
<time>2026-07-11T07:48:12.000Z</time>
|
|
</trkpt>
|
|
<trkpt lat="55.397882" lon="8.691232">
|
|
<ele>5.359055</ele>
|
|
<time>2026-07-11T07:48:13.000Z</time>
|
|
</trkpt>
|
|
<trkpt lat="55.397892" lon="8.691130">
|
|
<ele>5.340586</ele>
|
|
<time>2026-07-11T07:48:14.000Z</time>
|
|
</trkpt>
|
|
<trkpt lat="55.397901" lon="8.691030">
|
|
<ele>5.322520</ele>
|
|
<time>2026-07-11T07:48:15.000Z</time>
|
|
</trkpt>
|
|
<trkpt lat="55.397912" lon="8.690930">
|
|
<ele>5.304345</ele>
|
|
<time>2026-07-11T07:48:16.000Z</time>
|
|
</trkpt>
|
|
<trkpt lat="55.397924" lon="8.690826">
|
|
<ele>5.285408</ele>
|
|
<time>2026-07-11T07:48:17.000Z</time>
|
|
</trkpt>
|
|
<trkpt lat="55.397935" lon="8.690731">
|
|
<ele>5.268108</ele>
|
|
<time>2026-07-11T07:48:18.000Z</time>
|
|
</trkpt>
|
|
<trkpt lat="55.397947" lon="8.690632">
|
|
<ele>5.250046</ele>
|
|
<time>2026-07-11T07:48:19.000Z</time>
|
|
</trkpt>
|
|
<trkpt lat="55.397962" lon="8.690523">
|
|
<ele>5.230033</ele>
|
|
<time>2026-07-11T07:48:20.000Z</time>
|
|
</trkpt>
|
|
<trkpt lat="55.397975" lon="8.690421">
|
|
<ele>5.211380</ele>
|
|
<time>2026-07-11T07:48:21.000Z</time>
|
|
</trkpt>
|
|
<trkpt lat="55.397989" lon="8.690320">
|
|
<ele>5.192830</ele>
|
|
<time>2026-07-11T07:48:22.000Z</time>
|
|
</trkpt>
|
|
<trkpt lat="55.398003" lon="8.690221">
|
|
<ele>5.174625</ele>
|
|
<time>2026-07-11T07:48:23.000Z</time>
|
|
</trkpt>
|
|
<trkpt lat="55.398022" lon="8.690122">
|
|
<ele>5.155979</ele>
|
|
<time>2026-07-11T07:48:24.000Z</time>
|
|
</trkpt>
|
|
<trkpt lat="55.398043" lon="8.690026">
|
|
<ele>5.137622</ele>
|
|
<time>2026-07-11T07:48:25.000Z</time>
|
|
</trkpt>
|
|
<trkpt lat="55.398064" lon="8.689929">
|
|
<ele>5.119099</ele>
|
|
<time>2026-07-11T07:48:26.000Z</time>
|
|
</trkpt>
|
|
<trkpt lat="55.398085" lon="8.689828">
|
|
<ele>5.099907</ele>
|
|
<time>2026-07-11T07:48:27.000Z</time>
|
|
</trkpt>
|
|
<trkpt lat="55.398108" lon="8.689729">
|
|
<ele>5.080821</ele>
|
|
<time>2026-07-11T07:48:28.000Z</time>
|
|
</trkpt>
|
|
<trkpt lat="55.398131" lon="8.689636">
|
|
<ele>5.062722</ele>
|
|
<time>2026-07-11T07:48:29.000Z</time>
|
|
</trkpt>
|
|
<trkpt lat="55.398153" lon="8.689542">
|
|
<ele>5.044580</ele>
|
|
<time>2026-07-11T07:48:30.000Z</time>
|
|
</trkpt>
|
|
<trkpt lat="55.398175" lon="8.689441">
|
|
<ele>5.025278</ele>
|
|
<time>2026-07-11T07:48:31.000Z</time>
|
|
</trkpt>
|
|
<trkpt lat="55.398196" lon="8.689346">
|
|
<ele>5.012869</ele>
|
|
<time>2026-07-11T07:48:32.000Z</time>
|
|
</trkpt>
|
|
<trkpt lat="55.398219" lon="8.689248">
|
|
<ele>5.012379</ele>
|
|
<time>2026-07-11T07:48:33.000Z</time>
|
|
</trkpt>
|
|
<trkpt lat="55.398240" lon="8.689150">
|
|
<ele>5.011895</ele>
|
|
<time>2026-07-11T07:48:34.000Z</time>
|
|
</trkpt>
|
|
<trkpt lat="55.398261" lon="8.689056">
|
|
<ele>5.011429</ele>
|
|
<time>2026-07-11T07:48:35.000Z</time>
|
|
</trkpt>
|
|
<trkpt lat="55.398283" lon="8.688960">
|
|
<ele>5.010951</ele>
|
|
<time>2026-07-11T07:48:36.000Z</time>
|
|
</trkpt>
|
|
<trkpt lat="55.398305" lon="8.688861">
|
|
<ele>5.010460</ele>
|
|
<time>2026-07-11T07:48:37.000Z</time>
|
|
</trkpt>
|
|
<trkpt lat="55.398326" lon="8.688763">
|
|
<ele>5.009977</ele>
|
|
<time>2026-07-11T07:48:38.000Z</time>
|
|
</trkpt>
|
|
<trkpt lat="55.398347" lon="8.688667">
|
|
<ele>5.009502</ele>
|
|
<time>2026-07-11T07:48:39.000Z</time>
|
|
</trkpt>
|
|
<trkpt lat="55.398368" lon="8.688572">
|
|
<ele>5.009031</ele>
|
|
<time>2026-07-11T07:48:40.000Z</time>
|
|
</trkpt>
|
|
<trkpt lat="55.398390" lon="8.688479">
|
|
<ele>5.008566</ele>
|
|
<time>2026-07-11T07:48:41.000Z</time>
|
|
</trkpt>
|
|
<trkpt lat="55.398413" lon="8.688384">
|
|
<ele>5.008089</ele>
|
|
<time>2026-07-11T07:48:42.000Z</time>
|
|
</trkpt>
|
|
<trkpt lat="55.398435" lon="8.688285">
|
|
<ele>5.007598</ele>
|
|
<time>2026-07-11T07:48:43.000Z</time>
|
|
</trkpt>
|
|
<trkpt lat="55.398456" lon="8.688188">
|
|
<ele>5.007119</ele>
|
|
<time>2026-07-11T07:48:44.000Z</time>
|
|
</trkpt>
|
|
<trkpt lat="55.398478" lon="8.688094">
|
|
<ele>5.006650</ele>
|
|
<time>2026-07-11T07:48:45.000Z</time>
|
|
</trkpt>
|
|
<trkpt lat="55.398501" lon="8.687999">
|
|
<ele>5.006173</ele>
|
|
<time>2026-07-11T07:48:46.000Z</time>
|
|
</trkpt>
|
|
<trkpt lat="55.398526" lon="8.687901">
|
|
<ele>5.005677</ele>
|
|
<time>2026-07-11T07:48:47.000Z</time>
|
|
</trkpt>
|
|
<trkpt lat="55.398553" lon="8.687807">
|
|
<ele>5.005190</ele>
|
|
<time>2026-07-11T07:48:48.000Z</time>
|
|
</trkpt>
|
|
<trkpt lat="55.398579" lon="8.687714">
|
|
<ele>5.004712</ele>
|
|
<time>2026-07-11T07:48:49.000Z</time>
|
|
</trkpt>
|
|
<trkpt lat="55.398605" lon="8.687622">
|
|
<ele>5.004237</ele>
|
|
<time>2026-07-11T07:48:50.000Z</time>
|
|
</trkpt>
|
|
<trkpt lat="55.398634" lon="8.687529">
|
|
<ele>5.003748</ele>
|
|
<time>2026-07-11T07:48:51.000Z</time>
|
|
</trkpt>
|
|
<trkpt lat="55.398665" lon="8.687436">
|
|
<ele>5.003250</ele>
|
|
<time>2026-07-11T07:48:52.000Z</time>
|
|
</trkpt>
|
|
<trkpt lat="55.398693" lon="8.687345">
|
|
<ele>5.002772</ele>
|
|
<time>2026-07-11T07:48:53.000Z</time>
|
|
</trkpt>
|
|
<trkpt lat="55.398720" lon="8.687252">
|
|
<ele>5.002290</ele>
|
|
<time>2026-07-11T07:48:54.000Z</time>
|
|
</trkpt>
|
|
<trkpt lat="55.398746" lon="8.687164">
|
|
<ele>5.001832</ele>
|
|
<time>2026-07-11T07:48:55.000Z</time>
|
|
</trkpt>
|
|
<trkpt lat="55.398772" lon="8.687074">
|
|
<ele>5.001365</ele>
|
|
<time>2026-07-11T07:48:56.000Z</time>
|
|
</trkpt>
|
|
<trkpt lat="55.398800" lon="8.686975">
|
|
<ele>5.000855</ele>
|
|
<time>2026-07-11T07:48:57.000Z</time>
|
|
</trkpt>
|
|
<trkpt lat="55.398825" lon="8.686884">
|
|
<ele>5.000388</ele>
|
|
<time>2026-07-11T07:48:58.000Z</time>
|
|
</trkpt>
|
|
<trkpt lat="55.398850" lon="8.686792">
|
|
<ele>4.999917</ele>
|
|
<time>2026-07-11T07:48:59.000Z</time>
|
|
</trkpt>
|
|
<trkpt lat="55.398875" lon="8.686708">
|
|
<ele>4.999479</ele>
|
|
<time>2026-07-11T07:49:00.000Z</time>
|
|
</trkpt>
|
|
<trkpt lat="55.398898" lon="8.686627">
|
|
<ele>4.999061</ele>
|
|
<time>2026-07-11T07:49:01.000Z</time>
|
|
</trkpt>
|
|
<trkpt lat="55.398921" lon="8.686545">
|
|
<ele>4.998639</ele>
|
|
<time>2026-07-11T07:49:02.000Z</time>
|
|
</trkpt>
|
|
<trkpt lat="55.398942" lon="8.686464">
|
|
<ele>4.990007</ele>
|
|
<time>2026-07-11T07:49:03.000Z</time>
|
|
</trkpt>
|
|
<trkpt lat="55.398961" lon="8.686377">
|
|
<ele>4.968867</ele>
|
|
<time>2026-07-11T07:49:04.000Z</time>
|
|
</trkpt>
|
|
<trkpt lat="55.398980" lon="8.686290">
|
|
<ele>4.947726</ele>
|
|
<time>2026-07-11T07:49:05.000Z</time>
|
|
</trkpt>
|
|
<trkpt lat="55.399001" lon="8.686202">
|
|
<ele>4.926076</ele>
|
|
<time>2026-07-11T07:49:06.000Z</time>
|
|
</trkpt>
|
|
<trkpt lat="55.399022" lon="8.686112">
|
|
<ele>4.904008</ele>
|
|
<time>2026-07-11T07:49:07.000Z</time>
|
|
</trkpt>
|
|
<trkpt lat="55.399041" lon="8.686023">
|
|
<ele>4.882443</ele>
|
|
<time>2026-07-11T07:49:08.000Z</time>
|
|
</trkpt>
|
|
<trkpt lat="55.399062" lon="8.685934">
|
|
<ele>4.860585</ele>
|
|
<time>2026-07-11T07:49:09.000Z</time>
|
|
</trkpt>
|
|
<trkpt lat="55.399084" lon="8.685850">
|
|
<ele>4.839605</ele>
|
|
<time>2026-07-11T07:49:10.000Z</time>
|
|
</trkpt>
|
|
<trkpt lat="55.399104" lon="8.685765">
|
|
<ele>4.818737</ele>
|
|
<time>2026-07-11T07:49:11.000Z</time>
|
|
</trkpt>
|
|
<trkpt lat="55.399125" lon="8.685670">
|
|
<ele>4.795616</ele>
|
|
<time>2026-07-11T07:49:12.000Z</time>
|
|
</trkpt>
|
|
<trkpt lat="55.399144" lon="8.685584">
|
|
<ele>4.774686</ele>
|
|
<time>2026-07-11T07:49:13.000Z</time>
|
|
</trkpt>
|
|
<trkpt lat="55.399163" lon="8.685500">
|
|
<ele>4.754179</ele>
|
|
<time>2026-07-11T07:49:14.000Z</time>
|
|
</trkpt>
|
|
<trkpt lat="55.399182" lon="8.685419">
|
|
<ele>4.734303</ele>
|
|
<time>2026-07-11T07:49:15.000Z</time>
|
|
</trkpt>
|
|
<trkpt lat="55.399201" lon="8.685338">
|
|
<ele>4.714426</ele>
|
|
<time>2026-07-11T07:49:16.000Z</time>
|
|
</trkpt>
|
|
<trkpt lat="55.399221" lon="8.685251">
|
|
<ele>4.693139</ele>
|
|
<time>2026-07-11T07:49:17.000Z</time>
|
|
</trkpt>
|
|
<trkpt lat="55.399239" lon="8.685164">
|
|
<ele>4.672138</ele>
|
|
<time>2026-07-11T07:49:18.000Z</time>
|
|
</trkpt>
|
|
<trkpt lat="55.399260" lon="8.685075">
|
|
<ele>4.650280</ele>
|
|
<time>2026-07-11T07:49:19.000Z</time>
|
|
</trkpt>
|
|
<trkpt lat="55.399282" lon="8.684983">
|
|
<ele>4.627639</ele>
|
|
<time>2026-07-11T07:49:20.000Z</time>
|
|
</trkpt>
|
|
<trkpt lat="55.399302" lon="8.684894">
|
|
<ele>4.605931</ele>
|
|
<time>2026-07-11T07:49:21.000Z</time>
|
|
</trkpt>
|
|
<trkpt lat="55.399323" lon="8.684803">
|
|
<ele>4.583653</ele>
|
|
<time>2026-07-11T07:49:22.000Z</time>
|
|
</trkpt>
|
|
<trkpt lat="55.399344" lon="8.684708">
|
|
<ele>4.560532</ele>
|
|
<time>2026-07-11T07:49:23.000Z</time>
|
|
</trkpt>
|
|
<trkpt lat="55.399367" lon="8.684614">
|
|
<ele>4.537317</ele>
|
|
<time>2026-07-11T07:49:24.000Z</time>
|
|
</trkpt>
|
|
<trkpt lat="55.399390" lon="8.684518">
|
|
<ele>4.513686</ele>
|
|
<time>2026-07-11T07:49:25.000Z</time>
|
|
</trkpt>
|
|
<trkpt lat="55.399411" lon="8.684419">
|
|
<ele>4.489717</ele>
|
|
<time>2026-07-11T07:49:26.000Z</time>
|
|
</trkpt>
|
|
<trkpt lat="55.399432" lon="8.684323">
|
|
<ele>4.466385</ele>
|
|
<time>2026-07-11T07:49:27.000Z</time>
|
|
</trkpt>
|
|
<trkpt lat="55.399455" lon="8.684231">
|
|
<ele>4.443586</ele>
|
|
<time>2026-07-11T07:49:28.000Z</time>
|
|
</trkpt>
|
|
<trkpt lat="55.399478" lon="8.684136">
|
|
<ele>4.420164</ele>
|
|
<time>2026-07-11T07:49:29.000Z</time>
|
|
</trkpt>
|
|
<trkpt lat="55.399501" lon="8.684042">
|
|
<ele>4.396950</ele>
|
|
<time>2026-07-11T07:49:30.000Z</time>
|
|
</trkpt>
|
|
<trkpt lat="55.399524" lon="8.683948">
|
|
<ele>4.373736</ele>
|
|
<time>2026-07-11T07:49:31.000Z</time>
|
|
</trkpt>
|
|
<trkpt lat="55.399546" lon="8.683856">
|
|
<ele>4.351095</ele>
|
|
<time>2026-07-11T07:49:32.000Z</time>
|
|
</trkpt>
|
|
<trkpt lat="55.399567" lon="8.683762">
|
|
<ele>4.328186</ele>
|
|
<time>2026-07-11T07:49:33.000Z</time>
|
|
</trkpt>
|
|
<trkpt lat="55.399589" lon="8.683662">
|
|
<ele>4.303863</ele>
|
|
<time>2026-07-11T07:49:34.000Z</time>
|
|
</trkpt>
|
|
<trkpt lat="55.399609" lon="8.683568">
|
|
<ele>4.281096</ele>
|
|
<time>2026-07-11T07:49:35.000Z</time>
|
|
</trkpt>
|
|
<trkpt lat="55.399630" lon="8.683473">
|
|
<ele>4.249944</ele>
|
|
<time>2026-07-11T07:49:36.000Z</time>
|
|
</trkpt>
|
|
<trkpt lat="55.399651" lon="8.683376">
|
|
<ele>4.217822</ele>
|
|
<time>2026-07-11T07:49:37.000Z</time>
|
|
</trkpt>
|
|
<trkpt lat="55.399670" lon="8.683280">
|
|
<ele>4.186365</ele>
|
|
<time>2026-07-11T07:49:38.000Z</time>
|
|
</trkpt>
|
|
<trkpt lat="55.399690" lon="8.683188">
|
|
<ele>4.155882</ele>
|
|
<time>2026-07-11T07:49:39.000Z</time>
|
|
</trkpt>
|
|
<trkpt lat="55.399712" lon="8.683097">
|
|
<ele>4.125278</ele>
|
|
<time>2026-07-11T07:49:40.000Z</time>
|
|
</trkpt>
|
|
<trkpt lat="55.399738" lon="8.682997">
|
|
<ele>4.091246</ele>
|
|
<time>2026-07-11T07:49:41.000Z</time>
|
|
</trkpt>
|
|
<trkpt lat="55.399762" lon="8.682908">
|
|
<ele>4.060760</ele>
|
|
<time>2026-07-11T07:49:42.000Z</time>
|
|
</trkpt>
|
|
<trkpt lat="55.399781" lon="8.682815">
|
|
<ele>4.030177</ele>
|
|
<time>2026-07-11T07:49:43.000Z</time>
|
|
</trkpt>
|
|
<trkpt lat="55.399800" lon="8.682725">
|
|
<ele>4.000466</ele>
|
|
<time>2026-07-11T07:49:44.000Z</time>
|
|
</trkpt>
|
|
<trkpt lat="55.399819" lon="8.682633">
|
|
<ele>3.970174</ele>
|
|
<time>2026-07-11T07:49:45.000Z</time>
|
|
</trkpt>
|
|
<trkpt lat="55.399840" lon="8.682542">
|
|
<ele>3.939780</ele>
|
|
<time>2026-07-11T07:49:46.000Z</time>
|
|
</trkpt>
|
|
<trkpt lat="55.399865" lon="8.682447">
|
|
<ele>3.907381</ele>
|
|
<time>2026-07-11T07:49:47.000Z</time>
|
|
</trkpt>
|
|
<trkpt lat="55.399890" lon="8.682353">
|
|
<ele>3.875263</ele>
|
|
<time>2026-07-11T07:49:48.000Z</time>
|
|
</trkpt>
|
|
<trkpt lat="55.399914" lon="8.682260">
|
|
<ele>3.843654</ele>
|
|
<time>2026-07-11T07:49:49.000Z</time>
|
|
</trkpt>
|
|
<trkpt lat="55.399938" lon="8.682166">
|
|
<ele>3.811763</ele>
|
|
<time>2026-07-11T07:49:50.000Z</time>
|
|
</trkpt>
|
|
<trkpt lat="55.399957" lon="8.682070">
|
|
<ele>3.780305</ele>
|
|
<time>2026-07-11T07:49:51.000Z</time>
|
|
</trkpt>
|
|
<trkpt lat="55.399978" lon="8.681975">
|
|
<ele>3.748761</ele>
|
|
<time>2026-07-11T07:49:52.000Z</time>
|
|
</trkpt>
|
|
<trkpt lat="55.400000" lon="8.681883">
|
|
<ele>3.717872</ele>
|
|
<time>2026-07-11T07:49:53.000Z</time>
|
|
</trkpt>
|
|
<trkpt lat="55.400021" lon="8.681787">
|
|
<ele>3.686039</ele>
|
|
<time>2026-07-11T07:49:54.000Z</time>
|
|
</trkpt>
|
|
<trkpt lat="55.400039" lon="8.681688">
|
|
<ele>3.653874</ele>
|
|
<time>2026-07-11T07:49:55.000Z</time>
|
|
</trkpt>
|
|
<trkpt lat="55.400054" lon="8.681588">
|
|
<ele>3.621870</ele>
|
|
<time>2026-07-11T07:49:56.000Z</time>
|
|
</trkpt>
|
|
<trkpt lat="55.400069" lon="8.681488">
|
|
<ele>3.589866</ele>
|
|
<time>2026-07-11T07:49:57.000Z</time>
|
|
</trkpt>
|
|
<trkpt lat="55.400085" lon="8.681387">
|
|
<ele>3.557421</ele>
|
|
<time>2026-07-11T07:49:58.000Z</time>
|
|
</trkpt>
|
|
<trkpt lat="55.400098" lon="8.681288">
|
|
<ele>3.525979</ele>
|
|
<time>2026-07-11T07:49:59.000Z</time>
|
|
</trkpt>
|
|
<trkpt lat="55.400110" lon="8.681191">
|
|
<ele>3.495261</ele>
|
|
<time>2026-07-11T07:50:00.000Z</time>
|
|
</trkpt>
|
|
<trkpt lat="55.400121" lon="8.681094">
|
|
<ele>3.464654</ele>
|
|
<time>2026-07-11T07:50:01.000Z</time>
|
|
</trkpt>
|
|
<trkpt lat="55.400131" lon="8.680998">
|
|
<ele>3.434453</ele>
|
|
<time>2026-07-11T07:50:02.000Z</time>
|
|
</trkpt>
|
|
<trkpt lat="55.400138" lon="8.680903">
|
|
<ele>3.404811</ele>
|
|
<time>2026-07-11T07:50:03.000Z</time>
|
|
</trkpt>
|
|
<trkpt lat="55.400144" lon="8.680805">
|
|
<ele>3.374312</ele>
|
|
<time>2026-07-11T07:50:04.000Z</time>
|
|
</trkpt>
|
|
<trkpt lat="55.400150" lon="8.680706">
|
|
<ele>3.343505</ele>
|
|
<time>2026-07-11T07:50:05.000Z</time>
|
|
</trkpt>
|
|
<trkpt lat="55.400157" lon="8.680607">
|
|
<ele>3.312635</ele>
|
|
<time>2026-07-11T07:50:06.000Z</time>
|
|
</trkpt>
|
|
<trkpt lat="55.400163" lon="8.680508">
|
|
<ele>3.290868</ele>
|
|
<time>2026-07-11T07:50:07.000Z</time>
|
|
</trkpt>
|
|
<trkpt lat="55.400167" lon="8.680412">
|
|
<ele>3.275975</ele>
|
|
<time>2026-07-11T07:50:08.000Z</time>
|
|
</trkpt>
|
|
<trkpt lat="55.400169" lon="8.680312">
|
|
<ele>3.260493</ele>
|
|
<time>2026-07-11T07:50:09.000Z</time>
|
|
</trkpt>
|
|
<trkpt lat="55.400169" lon="8.680211">
|
|
<ele>3.244865</ele>
|
|
<time>2026-07-11T07:50:10.000Z</time>
|
|
</trkpt>
|
|
<trkpt lat="55.400168" lon="8.680111">
|
|
<ele>3.229390</ele>
|
|
<time>2026-07-11T07:50:11.000Z</time>
|
|
</trkpt>
|
|
<trkpt lat="55.400166" lon="8.680012">
|
|
<ele>3.214063</ele>
|
|
<time>2026-07-11T07:50:12.000Z</time>
|
|
</trkpt>
|
|
<trkpt lat="55.400164" lon="8.679914">
|
|
<ele>3.198890</ele>
|
|
<time>2026-07-11T07:50:13.000Z</time>
|
|
</trkpt>
|
|
<trkpt lat="55.400162" lon="8.679815">
|
|
<ele>3.183562</ele>
|
|
<time>2026-07-11T07:50:14.000Z</time>
|
|
</trkpt>
|
|
<trkpt lat="55.400158" lon="8.679716">
|
|
<ele>3.168205</ele>
|
|
<time>2026-07-11T07:50:15.000Z</time>
|
|
</trkpt>
|
|
<trkpt lat="55.400151" lon="8.679616">
|
|
<ele>3.152615</ele>
|
|
<time>2026-07-11T07:50:16.000Z</time>
|
|
</trkpt>
|
|
<trkpt lat="55.400140" lon="8.679516">
|
|
<ele>3.136855</ele>
|
|
<time>2026-07-11T07:50:17.000Z</time>
|
|
</trkpt>
|
|
<trkpt lat="55.400126" lon="8.679419">
|
|
<ele>3.121369</ele>
|
|
<time>2026-07-11T07:50:18.000Z</time>
|
|
</trkpt>
|
|
<trkpt lat="55.400115" lon="8.679321">
|
|
<ele>3.105913</ele>
|
|
<time>2026-07-11T07:50:19.000Z</time>
|
|
</trkpt>
|
|
<trkpt lat="55.400103" lon="8.679221">
|
|
<ele>3.090098</ele>
|
|
<time>2026-07-11T07:50:20.000Z</time>
|
|
</trkpt>
|
|
<trkpt lat="55.400093" lon="8.679124">
|
|
<ele>3.074845</ele>
|
|
<time>2026-07-11T07:50:21.000Z</time>
|
|
</trkpt>
|
|
<trkpt lat="55.400084" lon="8.679028">
|
|
<ele>3.059790</ele>
|
|
<time>2026-07-11T07:50:22.000Z</time>
|
|
</trkpt>
|
|
<trkpt lat="55.400071" lon="8.678934">
|
|
<ele>3.044820</ele>
|
|
<time>2026-07-11T07:50:23.000Z</time>
|
|
</trkpt>
|
|
<trkpt lat="55.400054" lon="8.678838">
|
|
<ele>3.029261</ele>
|
|
<time>2026-07-11T07:50:24.000Z</time>
|
|
</trkpt>
|
|
<trkpt lat="55.400037" lon="8.678740">
|
|
<ele>3.013406</ele>
|
|
<time>2026-07-11T07:50:25.000Z</time>
|
|
</trkpt>
|
|
<trkpt lat="55.400021" lon="8.678644">
|
|
<ele>2.997926</ele>
|
|
<time>2026-07-11T07:50:26.000Z</time>
|
|
</trkpt>
|
|
<trkpt lat="55.400006" lon="8.678549">
|
|
<ele>2.982669</ele>
|
|
<time>2026-07-11T07:50:27.000Z</time>
|
|
</trkpt>
|
|
<trkpt lat="55.399989" lon="8.678458">
|
|
<ele>2.967846</ele>
|
|
<time>2026-07-11T07:50:28.000Z</time>
|
|
</trkpt>
|
|
<trkpt lat="55.399972" lon="8.678365">
|
|
<ele>2.952729</ele>
|
|
<time>2026-07-11T07:50:29.000Z</time>
|
|
</trkpt>
|
|
<trkpt lat="55.399957" lon="8.678271">
|
|
<ele>2.937622</ele>
|
|
<time>2026-07-11T07:50:30.000Z</time>
|
|
</trkpt>
|
|
<trkpt lat="55.399940" lon="8.678178">
|
|
<ele>2.922505</ele>
|
|
<time>2026-07-11T07:50:31.000Z</time>
|
|
</trkpt>
|
|
<trkpt lat="55.399921" lon="8.678084">
|
|
<ele>2.907067</ele>
|
|
<time>2026-07-11T07:50:32.000Z</time>
|
|
</trkpt>
|
|
<trkpt lat="55.399903" lon="8.677989">
|
|
<ele>2.891571</ele>
|
|
<time>2026-07-11T07:50:33.000Z</time>
|
|
</trkpt>
|
|
<trkpt lat="55.399887" lon="8.677897">
|
|
<ele>2.876683</ele>
|
|
<time>2026-07-11T07:50:34.000Z</time>
|
|
</trkpt>
|
|
<trkpt lat="55.399871" lon="8.677803">
|
|
<ele>2.861499</ele>
|
|
<time>2026-07-11T07:50:35.000Z</time>
|
|
</trkpt>
|
|
<trkpt lat="55.399856" lon="8.677705">
|
|
<ele>2.845795</ele>
|
|
<time>2026-07-11T07:50:36.000Z</time>
|
|
</trkpt>
|
|
<trkpt lat="55.399838" lon="8.677605">
|
|
<ele>2.829563</ele>
|
|
<time>2026-07-11T07:50:37.000Z</time>
|
|
</trkpt>
|
|
<trkpt lat="55.399821" lon="8.677508">
|
|
<ele>2.813856</ele>
|
|
<time>2026-07-11T07:50:38.000Z</time>
|
|
</trkpt>
|
|
<trkpt lat="55.399802" lon="8.677413">
|
|
<ele>2.799302</ele>
|
|
<time>2026-07-11T07:50:39.000Z</time>
|
|
</trkpt>
|
|
<trkpt lat="55.399785" lon="8.677318">
|
|
<ele>2.785265</ele>
|
|
<time>2026-07-11T07:50:40.000Z</time>
|
|
</trkpt>
|
|
<trkpt lat="55.399769" lon="8.677225">
|
|
<ele>2.771571</ele>
|
|
<time>2026-07-11T07:50:41.000Z</time>
|
|
</trkpt>
|
|
<trkpt lat="55.399753" lon="8.677134">
|
|
<ele>2.758146</ele>
|
|
<time>2026-07-11T07:50:42.000Z</time>
|
|
</trkpt>
|
|
<trkpt lat="55.399736" lon="8.677042">
|
|
<ele>2.744512</ele>
|
|
<time>2026-07-11T07:50:43.000Z</time>
|
|
</trkpt>
|
|
<trkpt lat="55.399720" lon="8.676947">
|
|
<ele>2.730547</ele>
|
|
<time>2026-07-11T07:50:44.000Z</time>
|
|
</trkpt>
|
|
<trkpt lat="55.399703" lon="8.676854">
|
|
<ele>2.716779</ele>
|
|
<time>2026-07-11T07:50:45.000Z</time>
|
|
</trkpt>
|
|
<trkpt lat="55.399686" lon="8.676762">
|
|
<ele>2.703145</ele>
|
|
<time>2026-07-11T07:50:46.000Z</time>
|
|
</trkpt>
|
|
<trkpt lat="55.399669" lon="8.676665">
|
|
<ele>2.688839</ele>
|
|
<time>2026-07-11T07:50:47.000Z</time>
|
|
</trkpt>
|
|
<trkpt lat="55.399651" lon="8.676575">
|
|
<ele>2.675392</ele>
|
|
<time>2026-07-11T07:50:48.000Z</time>
|
|
</trkpt>
|
|
<trkpt lat="55.399635" lon="8.676485">
|
|
<ele>2.662102</ele>
|
|
<time>2026-07-11T07:50:49.000Z</time>
|
|
</trkpt>
|
|
<trkpt lat="55.399617" lon="8.676390">
|
|
<ele>2.647989</ele>
|
|
<time>2026-07-11T07:50:50.000Z</time>
|
|
</trkpt>
|
|
<trkpt lat="55.399602" lon="8.676296">
|
|
<ele>2.634229</ele>
|
|
<time>2026-07-11T07:50:51.000Z</time>
|
|
</trkpt>
|
|
<trkpt lat="55.399586" lon="8.676202">
|
|
<ele>2.620399</ele>
|
|
<time>2026-07-11T07:50:52.000Z</time>
|
|
</trkpt>
|
|
<trkpt lat="55.399573" lon="8.676109">
|
|
<ele>2.606902</ele>
|
|
<time>2026-07-11T07:50:53.000Z</time>
|
|
</trkpt>
|
|
<trkpt lat="55.399561" lon="8.676014">
|
|
<ele>2.593187</ele>
|
|
<time>2026-07-11T07:50:54.000Z</time>
|
|
</trkpt>
|
|
<trkpt lat="55.399550" lon="8.675919">
|
|
<ele>2.579524</ele>
|
|
<time>2026-07-11T07:50:55.000Z</time>
|
|
</trkpt>
|
|
<trkpt lat="55.399542" lon="8.675824">
|
|
<ele>2.565990</ele>
|
|
<time>2026-07-11T07:50:56.000Z</time>
|
|
</trkpt>
|
|
<trkpt lat="55.399536" lon="8.675726">
|
|
<ele>2.552099</ele>
|
|
<time>2026-07-11T07:50:57.000Z</time>
|
|
</trkpt>
|
|
<trkpt lat="55.399531" lon="8.675629">
|
|
<ele>2.538373</ele>
|
|
<time>2026-07-11T07:50:58.000Z</time>
|
|
</trkpt>
|
|
<trkpt lat="55.399529" lon="8.675535">
|
|
<ele>2.525117</ele>
|
|
<time>2026-07-11T07:50:59.000Z</time>
|
|
</trkpt>
|
|
<trkpt lat="55.399527" lon="8.675441">
|
|
<ele>2.511861</ele>
|
|
<time>2026-07-11T07:51:00.000Z</time>
|
|
</trkpt>
|
|
<trkpt lat="55.399523" lon="8.675344">
|
|
<ele>2.498155</ele>
|
|
<time>2026-07-11T07:51:01.000Z</time>
|
|
</trkpt>
|
|
<trkpt lat="55.399523" lon="8.675247">
|
|
<ele>2.484485</ele>
|
|
<time>2026-07-11T07:51:02.000Z</time>
|
|
</trkpt>
|
|
<trkpt lat="55.399525" lon="8.675151">
|
|
<ele>2.470947</ele>
|
|
<time>2026-07-11T07:51:03.000Z</time>
|
|
</trkpt>
|
|
<trkpt lat="55.399526" lon="8.675057">
|
|
<ele>2.457698</ele>
|
|
<time>2026-07-11T07:51:04.000Z</time>
|
|
</trkpt>
|
|
<trkpt lat="55.399531" lon="8.674964">
|
|
<ele>2.444533</ele>
|
|
<time>2026-07-11T07:51:05.000Z</time>
|
|
</trkpt>
|
|
<trkpt lat="55.399538" lon="8.674867">
|
|
<ele>2.430754</ele>
|
|
<time>2026-07-11T07:51:06.000Z</time>
|
|
</trkpt>
|
|
<trkpt lat="55.399545" lon="8.674766">
|
|
<ele>2.416415</ele>
|
|
<time>2026-07-11T07:51:07.000Z</time>
|
|
</trkpt>
|
|
<trkpt lat="55.399555" lon="8.674668">
|
|
<ele>2.402383</ele>
|
|
<time>2026-07-11T07:51:08.000Z</time>
|
|
</trkpt>
|
|
<trkpt lat="55.399564" lon="8.674574">
|
|
<ele>2.388949</ele>
|
|
<time>2026-07-11T07:51:09.000Z</time>
|
|
</trkpt>
|
|
<trkpt lat="55.399575" lon="8.674478">
|
|
<ele>2.375148</ele>
|
|
<time>2026-07-11T07:51:10.000Z</time>
|
|
</trkpt>
|
|
<trkpt lat="55.399587" lon="8.674384">
|
|
<ele>2.363880</ele>
|
|
<time>2026-07-11T07:51:11.000Z</time>
|
|
</trkpt>
|
|
<trkpt lat="55.399602" lon="8.674292">
|
|
<ele>2.367053</ele>
|
|
<time>2026-07-11T07:51:12.000Z</time>
|
|
</trkpt>
|
|
<trkpt lat="55.399620" lon="8.674204">
|
|
<ele>2.370153</ele>
|
|
<time>2026-07-11T07:51:13.000Z</time>
|
|
</trkpt>
|
|
<trkpt lat="55.399637" lon="8.674114">
|
|
<ele>2.373297</ele>
|
|
<time>2026-07-11T07:51:14.000Z</time>
|
|
</trkpt>
|
|
<trkpt lat="55.399656" lon="8.674019">
|
|
<ele>2.376636</ele>
|
|
<time>2026-07-11T07:51:15.000Z</time>
|
|
</trkpt>
|
|
<trkpt lat="55.399676" lon="8.673929">
|
|
<ele>2.379840</ele>
|
|
<time>2026-07-11T07:51:16.000Z</time>
|
|
</trkpt>
|
|
<trkpt lat="55.399693" lon="8.673838">
|
|
<ele>2.383016</ele>
|
|
<time>2026-07-11T07:51:17.000Z</time>
|
|
</trkpt>
|
|
<trkpt lat="55.399714" lon="8.673748">
|
|
<ele>2.386241</ele>
|
|
<time>2026-07-11T07:51:18.000Z</time>
|
|
</trkpt>
|
|
<trkpt lat="55.399735" lon="8.673659">
|
|
<ele>2.389436</ele>
|
|
<time>2026-07-11T07:51:19.000Z</time>
|
|
</trkpt>
|
|
<trkpt lat="55.399754" lon="8.673570">
|
|
<ele>2.392588</ele>
|
|
<time>2026-07-11T07:51:20.000Z</time>
|
|
</trkpt>
|
|
<trkpt lat="55.399774" lon="8.673486">
|
|
<ele>2.395608</ele>
|
|
<time>2026-07-11T07:51:21.000Z</time>
|
|
</trkpt>
|
|
<trkpt lat="55.399795" lon="8.673400">
|
|
<ele>2.398711</ele>
|
|
<time>2026-07-11T07:51:22.000Z</time>
|
|
</trkpt>
|
|
<trkpt lat="55.399815" lon="8.673306">
|
|
<ele>2.402039</ele>
|
|
<time>2026-07-11T07:51:23.000Z</time>
|
|
</trkpt>
|
|
<trkpt lat="55.399835" lon="8.673215">
|
|
<ele>2.405273</ele>
|
|
<time>2026-07-11T07:51:24.000Z</time>
|
|
</trkpt>
|
|
<trkpt lat="55.399855" lon="8.673128">
|
|
<ele>2.408385</ele>
|
|
<time>2026-07-11T07:51:25.000Z</time>
|
|
</trkpt>
|
|
<trkpt lat="55.399876" lon="8.673043">
|
|
<ele>2.411458</ele>
|
|
<time>2026-07-11T07:51:26.000Z</time>
|
|
</trkpt>
|
|
<trkpt lat="55.399897" lon="8.672958">
|
|
<ele>2.414530</ele>
|
|
<time>2026-07-11T07:51:27.000Z</time>
|
|
</trkpt>
|
|
<trkpt lat="55.399918" lon="8.672870">
|
|
<ele>2.417695</ele>
|
|
<time>2026-07-11T07:51:28.000Z</time>
|
|
</trkpt>
|
|
<trkpt lat="55.399937" lon="8.672779">
|
|
<ele>2.420909</ele>
|
|
<time>2026-07-11T07:51:29.000Z</time>
|
|
</trkpt>
|
|
<trkpt lat="55.399955" lon="8.672688">
|
|
<ele>2.424103</ele>
|
|
<time>2026-07-11T07:51:30.000Z</time>
|
|
</trkpt>
|
|
<trkpt lat="55.399972" lon="8.672596">
|
|
<ele>2.427310</ele>
|
|
<time>2026-07-11T07:51:31.000Z</time>
|
|
</trkpt>
|
|
<trkpt lat="55.399992" lon="8.672505">
|
|
<ele>2.430545</ele>
|
|
<time>2026-07-11T07:51:32.000Z</time>
|
|
</trkpt>
|
|
<trkpt lat="55.400013" lon="8.672414">
|
|
<ele>2.433801</ele>
|
|
<time>2026-07-11T07:51:33.000Z</time>
|
|
</trkpt>
|
|
<trkpt lat="55.400033" lon="8.672320">
|
|
<ele>2.437129</ele>
|
|
<time>2026-07-11T07:51:34.000Z</time>
|
|
</trkpt>
|
|
<trkpt lat="55.400055" lon="8.672230">
|
|
<ele>2.440377</ele>
|
|
<time>2026-07-11T07:51:35.000Z</time>
|
|
</trkpt>
|
|
<trkpt lat="55.400079" lon="8.672142">
|
|
<ele>2.443613</ele>
|
|
<time>2026-07-11T07:51:36.000Z</time>
|
|
</trkpt>
|
|
<trkpt lat="55.400103" lon="8.672051">
|
|
<ele>2.446939</ele>
|
|
<time>2026-07-11T07:51:37.000Z</time>
|
|
</trkpt>
|
|
<trkpt lat="55.400128" lon="8.671962">
|
|
<ele>2.450231</ele>
|
|
<time>2026-07-11T07:51:38.000Z</time>
|
|
</trkpt>
|
|
<trkpt lat="55.400153" lon="8.671877">
|
|
<ele>2.453404</ele>
|
|
<time>2026-07-11T07:51:39.000Z</time>
|
|
</trkpt>
|
|
<trkpt lat="55.400178" lon="8.671794">
|
|
<ele>2.456519</ele>
|
|
<time>2026-07-11T07:51:40.000Z</time>
|
|
</trkpt>
|
|
<trkpt lat="55.400207" lon="8.671710">
|
|
<ele>2.459777</ele>
|
|
<time>2026-07-11T07:51:41.000Z</time>
|
|
</trkpt>
|
|
<trkpt lat="55.400235" lon="8.671627">
|
|
<ele>2.462978</ele>
|
|
<time>2026-07-11T07:51:42.000Z</time>
|
|
</trkpt>
|
|
<trkpt lat="55.400262" lon="8.671540">
|
|
<ele>2.466264</ele>
|
|
<time>2026-07-11T07:51:43.000Z</time>
|
|
</trkpt>
|
|
<trkpt lat="55.400289" lon="8.671452">
|
|
<ele>2.467469</ele>
|
|
<time>2026-07-11T07:51:44.000Z</time>
|
|
</trkpt>
|
|
<trkpt lat="55.400315" lon="8.671364">
|
|
<ele>2.464662</ele>
|
|
<time>2026-07-11T07:51:45.000Z</time>
|
|
</trkpt>
|
|
<trkpt lat="55.400342" lon="8.671277">
|
|
<ele>2.461856</ele>
|
|
<time>2026-07-11T07:51:46.000Z</time>
|
|
</trkpt>
|
|
<trkpt lat="55.400369" lon="8.671190">
|
|
<ele>2.459051</ele>
|
|
<time>2026-07-11T07:51:47.000Z</time>
|
|
</trkpt>
|
|
<trkpt lat="55.400395" lon="8.671102">
|
|
<ele>2.456244</ele>
|
|
<time>2026-07-11T07:51:48.000Z</time>
|
|
</trkpt>
|
|
<trkpt lat="55.400422" lon="8.671011">
|
|
<ele>2.453338</ele>
|
|
<time>2026-07-11T07:51:49.000Z</time>
|
|
</trkpt>
|
|
<trkpt lat="55.400449" lon="8.670921">
|
|
<ele>2.450458</ele>
|
|
<time>2026-07-11T07:51:50.000Z</time>
|
|
</trkpt>
|
|
<trkpt lat="55.400477" lon="8.670835">
|
|
<ele>2.447653</ele>
|
|
<time>2026-07-11T07:51:51.000Z</time>
|
|
</trkpt>
|
|
<trkpt lat="55.400508" lon="8.670749">
|
|
<ele>2.444770</ele>
|
|
<time>2026-07-11T07:51:52.000Z</time>
|
|
</trkpt>
|
|
<trkpt lat="55.400538" lon="8.670665">
|
|
<ele>2.441962</ele>
|
|
<time>2026-07-11T07:51:53.000Z</time>
|
|
</trkpt>
|
|
<trkpt lat="55.400568" lon="8.670582">
|
|
<ele>2.439178</ele>
|
|
<time>2026-07-11T07:51:54.000Z</time>
|
|
</trkpt>
|
|
<trkpt lat="55.400599" lon="8.670499">
|
|
<ele>2.436367</ele>
|
|
<time>2026-07-11T07:51:55.000Z</time>
|
|
</trkpt>
|
|
<trkpt lat="55.400631" lon="8.670416">
|
|
<ele>2.433528</ele>
|
|
<time>2026-07-11T07:51:56.000Z</time>
|
|
</trkpt>
|
|
<trkpt lat="55.400666" lon="8.670336">
|
|
<ele>2.430671</ele>
|
|
<time>2026-07-11T07:51:57.000Z</time>
|
|
</trkpt>
|
|
<trkpt lat="55.400698" lon="8.670259">
|
|
<ele>2.427970</ele>
|
|
<time>2026-07-11T07:51:58.000Z</time>
|
|
</trkpt>
|
|
<trkpt lat="55.400732" lon="8.670182">
|
|
<ele>2.425210</ele>
|
|
<time>2026-07-11T07:51:59.000Z</time>
|
|
</trkpt>
|
|
<trkpt lat="55.400771" lon="8.670106">
|
|
<ele>2.422312</ele>
|
|
<time>2026-07-11T07:52:00.000Z</time>
|
|
</trkpt>
|
|
<trkpt lat="55.400810" lon="8.670033">
|
|
<ele>2.419476</ele>
|
|
<time>2026-07-11T07:52:01.000Z</time>
|
|
</trkpt>
|
|
<trkpt lat="55.400848" lon="8.669955">
|
|
<ele>2.416567</ele>
|
|
<time>2026-07-11T07:52:02.000Z</time>
|
|
</trkpt>
|
|
<trkpt lat="55.400883" lon="8.669877">
|
|
<ele>2.413754</ele>
|
|
<time>2026-07-11T07:52:03.000Z</time>
|
|
</trkpt>
|
|
<trkpt lat="55.400919" lon="8.669803">
|
|
<ele>2.410997</ele>
|
|
<time>2026-07-11T07:52:04.000Z</time>
|
|
</trkpt>
|
|
<trkpt lat="55.400955" lon="8.669728">
|
|
<ele>2.408218</ele>
|
|
<time>2026-07-11T07:52:05.000Z</time>
|
|
</trkpt>
|
|
<trkpt lat="55.400989" lon="8.669653">
|
|
<ele>2.405502</ele>
|
|
<time>2026-07-11T07:52:06.000Z</time>
|
|
</trkpt>
|
|
<trkpt lat="55.401026" lon="8.669575">
|
|
<ele>2.402627</ele>
|
|
<time>2026-07-11T07:52:07.000Z</time>
|
|
</trkpt>
|
|
<trkpt lat="55.401062" lon="8.669499">
|
|
<ele>2.399826</ele>
|
|
<time>2026-07-11T07:52:08.000Z</time>
|
|
</trkpt>
|
|
<trkpt lat="55.401097" lon="8.669423">
|
|
<ele>2.397057</ele>
|
|
<time>2026-07-11T07:52:09.000Z</time>
|
|
</trkpt>
|
|
<trkpt lat="55.401131" lon="8.669348">
|
|
<ele>2.394341</ele>
|
|
<time>2026-07-11T07:52:10.000Z</time>
|
|
</trkpt>
|
|
<trkpt lat="55.401166" lon="8.669274">
|
|
<ele>2.391616</ele>
|
|
<time>2026-07-11T07:52:11.000Z</time>
|
|
</trkpt>
|
|
<trkpt lat="55.401202" lon="8.669198">
|
|
<ele>2.388816</ele>
|
|
<time>2026-07-11T07:52:12.000Z</time>
|
|
</trkpt>
|
|
<trkpt lat="55.401237" lon="8.669120">
|
|
<ele>2.386003</ele>
|
|
<time>2026-07-11T07:52:13.000Z</time>
|
|
</trkpt>
|
|
<trkpt lat="55.401274" lon="8.669042">
|
|
<ele>2.383127</ele>
|
|
<time>2026-07-11T07:52:14.000Z</time>
|
|
</trkpt>
|
|
<trkpt lat="55.401311" lon="8.668964">
|
|
<ele>2.380251</ele>
|
|
<time>2026-07-11T07:52:15.000Z</time>
|
|
</trkpt>
|
|
<trkpt lat="55.401345" lon="8.668889">
|
|
<ele>2.375357</ele>
|
|
<time>2026-07-11T07:52:16.000Z</time>
|
|
</trkpt>
|
|
<trkpt lat="55.401379" lon="8.668813">
|
|
<ele>2.367940</ele>
|
|
<time>2026-07-11T07:52:17.000Z</time>
|
|
</trkpt>
|
|
<trkpt lat="55.401413" lon="8.668737">
|
|
<ele>2.360524</ele>
|
|
<time>2026-07-11T07:52:18.000Z</time>
|
|
</trkpt>
|
|
<trkpt lat="55.401449" lon="8.668659">
|
|
<ele>2.352819</ele>
|
|
<time>2026-07-11T07:52:19.000Z</time>
|
|
</trkpt>
|
|
<trkpt lat="55.401486" lon="8.668580">
|
|
<ele>2.344969</ele>
|
|
<time>2026-07-11T07:52:20.000Z</time>
|
|
</trkpt>
|
|
<trkpt lat="55.401520" lon="8.668502">
|
|
<ele>2.337431</ele>
|
|
<time>2026-07-11T07:52:21.000Z</time>
|
|
</trkpt>
|
|
<trkpt lat="55.401555" lon="8.668425">
|
|
<ele>2.329870</ele>
|
|
<time>2026-07-11T07:52:22.000Z</time>
|
|
</trkpt>
|
|
<trkpt lat="55.401590" lon="8.668349">
|
|
<ele>2.322370</ele>
|
|
<time>2026-07-11T07:52:23.000Z</time>
|
|
</trkpt>
|
|
<trkpt lat="55.401626" lon="8.668275">
|
|
<ele>2.314900</ele>
|
|
<time>2026-07-11T07:52:24.000Z</time>
|
|
</trkpt>
|
|
<trkpt lat="55.401660" lon="8.668199">
|
|
<ele>2.307483</ele>
|
|
<time>2026-07-11T07:52:25.000Z</time>
|
|
</trkpt>
|
|
<trkpt lat="55.401696" lon="8.668120">
|
|
<ele>2.299719</ele>
|
|
<time>2026-07-11T07:52:26.000Z</time>
|
|
</trkpt>
|
|
<trkpt lat="55.401729" lon="8.668046">
|
|
<ele>2.292506</ele>
|
|
<time>2026-07-11T07:52:27.000Z</time>
|
|
</trkpt>
|
|
<trkpt lat="55.401762" lon="8.667972">
|
|
<ele>2.285293</ele>
|
|
<time>2026-07-11T07:52:28.000Z</time>
|
|
</trkpt>
|
|
<trkpt lat="55.401798" lon="8.667891">
|
|
<ele>2.277409</ele>
|
|
<time>2026-07-11T07:52:29.000Z</time>
|
|
</trkpt>
|
|
<trkpt lat="55.401834" lon="8.667814">
|
|
<ele>2.269763</ele>
|
|
<time>2026-07-11T07:52:30.000Z</time>
|
|
</trkpt>
|
|
<trkpt lat="55.401871" lon="8.667737">
|
|
<ele>2.262031</ele>
|
|
<time>2026-07-11T07:52:31.000Z</time>
|
|
</trkpt>
|
|
<trkpt lat="55.401904" lon="8.667661">
|
|
<ele>2.254697</ele>
|
|
<time>2026-07-11T07:52:32.000Z</time>
|
|
</trkpt>
|
|
<trkpt lat="55.401938" lon="8.667585">
|
|
<ele>2.247280</ele>
|
|
<time>2026-07-11T07:52:33.000Z</time>
|
|
</trkpt>
|
|
<trkpt lat="55.401974" lon="8.667508">
|
|
<ele>2.239635</ele>
|
|
<time>2026-07-11T07:52:34.000Z</time>
|
|
</trkpt>
|
|
<trkpt lat="55.402009" lon="8.667432">
|
|
<ele>2.232134</ele>
|
|
<time>2026-07-11T07:52:35.000Z</time>
|
|
</trkpt>
|
|
<trkpt lat="55.402043" lon="8.667357">
|
|
<ele>2.224777</ele>
|
|
<time>2026-07-11T07:52:36.000Z</time>
|
|
</trkpt>
|
|
<trkpt lat="55.402077" lon="8.667282">
|
|
<ele>2.217421</ele>
|
|
<time>2026-07-11T07:52:37.000Z</time>
|
|
</trkpt>
|
|
<trkpt lat="55.402108" lon="8.667213">
|
|
<ele>2.210676</ele>
|
|
<time>2026-07-11T07:52:38.000Z</time>
|
|
</trkpt>
|
|
<trkpt lat="55.402138" lon="8.667142">
|
|
<ele>2.203893</ele>
|
|
<time>2026-07-11T07:52:39.000Z</time>
|
|
</trkpt>
|
|
<trkpt lat="55.402171" lon="8.667064">
|
|
<ele>2.196436</ele>
|
|
<time>2026-07-11T07:52:40.000Z</time>
|
|
</trkpt>
|
|
<trkpt lat="55.402201" lon="8.666987">
|
|
<ele>2.189278</ele>
|
|
<time>2026-07-11T07:52:41.000Z</time>
|
|
</trkpt>
|
|
<trkpt lat="55.402232" lon="8.666906">
|
|
<ele>2.181791</ele>
|
|
<time>2026-07-11T07:52:42.000Z</time>
|
|
</trkpt>
|
|
<trkpt lat="55.402260" lon="8.666825">
|
|
<ele>2.174522</ele>
|
|
<time>2026-07-11T07:52:43.000Z</time>
|
|
</trkpt>
|
|
<trkpt lat="55.402287" lon="8.666742">
|
|
<ele>2.167189</ele>
|
|
<time>2026-07-11T07:52:44.000Z</time>
|
|
</trkpt>
|
|
<trkpt lat="55.402312" lon="8.666654">
|
|
<ele>2.159647</ele>
|
|
<time>2026-07-11T07:52:45.000Z</time>
|
|
</trkpt>
|
|
<trkpt lat="55.402335" lon="8.666567">
|
|
<ele>2.152291</ele>
|
|
<time>2026-07-11T07:52:46.000Z</time>
|
|
</trkpt>
|
|
<trkpt lat="55.402356" lon="8.666478">
|
|
<ele>2.144903</ele>
|
|
<time>2026-07-11T07:52:47.000Z</time>
|
|
</trkpt>
|
|
<trkpt lat="55.402377" lon="8.666391">
|
|
<ele>2.137657</ele>
|
|
<time>2026-07-11T07:52:48.000Z</time>
|
|
</trkpt>
|
|
<trkpt lat="55.402398" lon="8.666302">
|
|
<ele>2.144616</ele>
|
|
<time>2026-07-11T07:52:49.000Z</time>
|
|
</trkpt>
|
|
<trkpt lat="55.402419" lon="8.666208">
|
|
<ele>2.156262</ele>
|
|
<time>2026-07-11T07:52:50.000Z</time>
|
|
</trkpt>
|
|
<trkpt lat="55.402440" lon="8.666114">
|
|
<ele>2.167909</ele>
|
|
<time>2026-07-11T07:52:51.000Z</time>
|
|
</trkpt>
|
|
<trkpt lat="55.402459" lon="8.666022">
|
|
<ele>2.179196</ele>
|
|
<time>2026-07-11T07:52:52.000Z</time>
|
|
</trkpt>
|
|
<trkpt lat="55.402478" lon="8.665929">
|
|
<ele>2.190592</ele>
|
|
<time>2026-07-11T07:52:53.000Z</time>
|
|
</trkpt>
|
|
<trkpt lat="55.402499" lon="8.665837">
|
|
<ele>2.202025</ele>
|
|
<time>2026-07-11T07:52:54.000Z</time>
|
|
</trkpt>
|
|
<trkpt lat="55.402518" lon="8.665743">
|
|
<ele>2.213529</ele>
|
|
<time>2026-07-11T07:52:55.000Z</time>
|
|
</trkpt>
|
|
<trkpt lat="55.402537" lon="8.665649">
|
|
<ele>2.225033</ele>
|
|
<time>2026-07-11T07:52:56.000Z</time>
|
|
</trkpt>
|
|
<trkpt lat="55.402557" lon="8.665556">
|
|
<ele>2.236499</ele>
|
|
<time>2026-07-11T07:52:57.000Z</time>
|
|
</trkpt>
|
|
<trkpt lat="55.402574" lon="8.665466">
|
|
<ele>2.247435</ele>
|
|
<time>2026-07-11T07:52:58.000Z</time>
|
|
</trkpt>
|
|
<trkpt lat="55.402591" lon="8.665379">
|
|
<ele>2.258043</ele>
|
|
<time>2026-07-11T07:52:59.000Z</time>
|
|
</trkpt>
|
|
<trkpt lat="55.402606" lon="8.665291">
|
|
<ele>2.268637</ele>
|
|
<time>2026-07-11T07:53:00.000Z</time>
|
|
</trkpt>
|
|
<trkpt lat="55.402622" lon="8.665203">
|
|
<ele>2.279291</ele>
|
|
<time>2026-07-11T07:53:01.000Z</time>
|
|
</trkpt>
|
|
<trkpt lat="55.402638" lon="8.665113">
|
|
<ele>2.290164</ele>
|
|
<time>2026-07-11T07:53:02.000Z</time>
|
|
</trkpt>
|
|
<trkpt lat="55.402659" lon="8.665020">
|
|
<ele>2.301704</ele>
|
|
<time>2026-07-11T07:53:03.000Z</time>
|
|
</trkpt>
|
|
<trkpt lat="55.402681" lon="8.664928">
|
|
<ele>2.313213</ele>
|
|
<time>2026-07-11T07:53:04.000Z</time>
|
|
</trkpt>
|
|
<trkpt lat="55.402702" lon="8.664836">
|
|
<ele>2.324646</ele>
|
|
<time>2026-07-11T07:53:05.000Z</time>
|
|
</trkpt>
|
|
<trkpt lat="55.402724" lon="8.664743">
|
|
<ele>2.336262</ele>
|
|
<time>2026-07-11T07:53:06.000Z</time>
|
|
</trkpt>
|
|
<trkpt lat="55.402745" lon="8.664650">
|
|
<ele>2.347801</ele>
|
|
<time>2026-07-11T07:53:07.000Z</time>
|
|
</trkpt>
|
|
<trkpt lat="55.402763" lon="8.664558">
|
|
<ele>2.359021</ele>
|
|
<time>2026-07-11T07:53:08.000Z</time>
|
|
</trkpt>
|
|
<trkpt lat="55.402778" lon="8.664465">
|
|
<ele>2.370168</ele>
|
|
<time>2026-07-11T07:53:09.000Z</time>
|
|
</trkpt>
|
|
<trkpt lat="55.402793" lon="8.664371">
|
|
<ele>2.381425</ele>
|
|
<time>2026-07-11T07:53:10.000Z</time>
|
|
</trkpt>
|
|
<trkpt lat="55.402808" lon="8.664278">
|
|
<ele>2.392572</ele>
|
|
<time>2026-07-11T07:53:11.000Z</time>
|
|
</trkpt>
|
|
<trkpt lat="55.402824" lon="8.664184">
|
|
<ele>2.403887</ele>
|
|
<time>2026-07-11T07:53:12.000Z</time>
|
|
</trkpt>
|
|
<trkpt lat="55.402839" lon="8.664090">
|
|
<ele>2.415144</ele>
|
|
<time>2026-07-11T07:53:13.000Z</time>
|
|
</trkpt>
|
|
<trkpt lat="55.402854" lon="8.663997">
|
|
<ele>2.426291</ele>
|
|
<time>2026-07-11T07:53:14.000Z</time>
|
|
</trkpt>
|
|
<trkpt lat="55.402868" lon="8.663902">
|
|
<ele>2.437607</ele>
|
|
<time>2026-07-11T07:53:15.000Z</time>
|
|
</trkpt>
|
|
<trkpt lat="55.402881" lon="8.663806">
|
|
<ele>2.448986</ele>
|
|
<time>2026-07-11T07:53:16.000Z</time>
|
|
</trkpt>
|
|
<trkpt lat="55.402895" lon="8.663713">
|
|
<ele>2.460079</ele>
|
|
<time>2026-07-11T07:53:17.000Z</time>
|
|
</trkpt>
|
|
<trkpt lat="55.402906" lon="8.663621">
|
|
<ele>2.470919</ele>
|
|
<time>2026-07-11T07:53:18.000Z</time>
|
|
</trkpt>
|
|
<trkpt lat="55.402916" lon="8.663529">
|
|
<ele>2.481719</ele>
|
|
<time>2026-07-11T07:53:19.000Z</time>
|
|
</trkpt>
|
|
<trkpt lat="55.402925" lon="8.663436">
|
|
<ele>2.492597</ele>
|
|
<time>2026-07-11T07:53:20.000Z</time>
|
|
</trkpt>
|
|
<trkpt lat="55.402936" lon="8.663343">
|
|
<ele>2.509741</ele>
|
|
<time>2026-07-11T07:53:21.000Z</time>
|
|
</trkpt>
|
|
<trkpt lat="55.402946" lon="8.663250">
|
|
<ele>2.549758</ele>
|
|
<time>2026-07-11T07:53:22.000Z</time>
|
|
</trkpt>
|
|
<trkpt lat="55.402955" lon="8.663161">
|
|
<ele>2.587977</ele>
|
|
<time>2026-07-11T07:53:23.000Z</time>
|
|
</trkpt>
|
|
<trkpt lat="55.402965" lon="8.663073">
|
|
<ele>2.625918</ele>
|
|
<time>2026-07-11T07:53:24.000Z</time>
|
|
</trkpt>
|
|
<trkpt lat="55.402975" lon="8.662986">
|
|
<ele>2.663446</ele>
|
|
<time>2026-07-11T07:53:25.000Z</time>
|
|
</trkpt>
|
|
<trkpt lat="55.402984" lon="8.662900">
|
|
<ele>2.700417</ele>
|
|
<time>2026-07-11T07:53:26.000Z</time>
|
|
</trkpt>
|
|
<trkpt lat="55.402994" lon="8.662812">
|
|
<ele>2.738359</ele>
|
|
<time>2026-07-11T07:53:27.000Z</time>
|
|
</trkpt>
|
|
<trkpt lat="55.403003" lon="8.662723">
|
|
<ele>2.776577</ele>
|
|
<time>2026-07-11T07:53:28.000Z</time>
|
|
</trkpt>
|
|
<trkpt lat="55.403011" lon="8.662633">
|
|
<ele>2.815091</ele>
|
|
<time>2026-07-11T07:53:29.000Z</time>
|
|
</trkpt>
|
|
<trkpt lat="55.403019" lon="8.662542">
|
|
<ele>2.854021</ele>
|
|
<time>2026-07-11T07:53:30.000Z</time>
|
|
</trkpt>
|
|
<trkpt lat="55.403026" lon="8.662454">
|
|
<ele>2.891589</ele>
|
|
<time>2026-07-11T07:53:31.000Z</time>
|
|
</trkpt>
|
|
<trkpt lat="55.403035" lon="8.662363">
|
|
<ele>2.930640</ele>
|
|
<time>2026-07-11T07:53:32.000Z</time>
|
|
</trkpt>
|
|
<trkpt lat="55.403045" lon="8.662274">
|
|
<ele>2.968997</ele>
|
|
<time>2026-07-11T07:53:33.000Z</time>
|
|
</trkpt>
|
|
<trkpt lat="55.403052" lon="8.662188">
|
|
<ele>3.005727</ele>
|
|
<time>2026-07-11T07:53:34.000Z</time>
|
|
</trkpt>
|
|
<trkpt lat="55.403062" lon="8.662089">
|
|
<ele>3.048238</ele>
|
|
<time>2026-07-11T07:53:35.000Z</time>
|
|
</trkpt>
|
|
<trkpt lat="55.403072" lon="8.661997">
|
|
<ele>3.087840</ele>
|
|
<time>2026-07-11T07:53:36.000Z</time>
|
|
</trkpt>
|
|
<trkpt lat="55.403080" lon="8.661904">
|
|
<ele>3.127606</ele>
|
|
<time>2026-07-11T07:53:37.000Z</time>
|
|
</trkpt>
|
|
<trkpt lat="55.403089" lon="8.661812">
|
|
<ele>3.167075</ele>
|
|
<time>2026-07-11T07:53:38.000Z</time>
|
|
</trkpt>
|
|
<trkpt lat="55.403100" lon="8.661722">
|
|
<ele>3.205996</ele>
|
|
<time>2026-07-11T07:53:39.000Z</time>
|
|
</trkpt>
|
|
<trkpt lat="55.403110" lon="8.661630">
|
|
<ele>3.245597</ele>
|
|
<time>2026-07-11T07:53:40.000Z</time>
|
|
</trkpt>
|
|
<trkpt lat="55.403118" lon="8.661536">
|
|
<ele>3.285781</ele>
|
|
<time>2026-07-11T07:53:41.000Z</time>
|
|
</trkpt>
|
|
<trkpt lat="55.403125" lon="8.661446">
|
|
<ele>3.324186</ele>
|
|
<time>2026-07-11T07:53:42.000Z</time>
|
|
</trkpt>
|
|
<trkpt lat="55.403133" lon="8.661356">
|
|
<ele>3.362699</ele>
|
|
<time>2026-07-11T07:53:43.000Z</time>
|
|
</trkpt>
|
|
<trkpt lat="55.403141" lon="8.661266">
|
|
<ele>3.401212</ele>
|
|
<time>2026-07-11T07:53:44.000Z</time>
|
|
</trkpt>
|
|
<trkpt lat="55.403150" lon="8.661175">
|
|
<ele>3.440264</ele>
|
|
<time>2026-07-11T07:53:45.000Z</time>
|
|
</trkpt>
|
|
<trkpt lat="55.403160" lon="8.661083">
|
|
<ele>3.479865</ele>
|
|
<time>2026-07-11T07:53:46.000Z</time>
|
|
</trkpt>
|
|
<trkpt lat="55.403169" lon="8.660990">
|
|
<ele>3.519750</ele>
|
|
<time>2026-07-11T07:53:47.000Z</time>
|
|
</trkpt>
|
|
<trkpt lat="55.403179" lon="8.660894">
|
|
<ele>3.561013</ele>
|
|
<time>2026-07-11T07:53:48.000Z</time>
|
|
</trkpt>
|
|
<trkpt lat="55.403188" lon="8.660801">
|
|
<ele>3.600898</ele>
|
|
<time>2026-07-11T07:53:49.000Z</time>
|
|
</trkpt>
|
|
<trkpt lat="55.403200" lon="8.660710">
|
|
<ele>3.640394</ele>
|
|
<time>2026-07-11T07:53:50.000Z</time>
|
|
</trkpt>
|
|
<trkpt lat="55.403211" lon="8.660620">
|
|
<ele>3.679315</ele>
|
|
<time>2026-07-11T07:53:51.000Z</time>
|
|
</trkpt>
|
|
<trkpt lat="55.403221" lon="8.660530">
|
|
<ele>3.718086</ele>
|
|
<time>2026-07-11T07:53:52.000Z</time>
|
|
</trkpt>
|
|
<trkpt lat="55.403228" lon="8.660438">
|
|
<ele>3.757329</ele>
|
|
<time>2026-07-11T07:53:53.000Z</time>
|
|
</trkpt>
|
|
<trkpt lat="55.403236" lon="8.660346">
|
|
<ele>3.796677</ele>
|
|
<time>2026-07-11T07:53:54.000Z</time>
|
|
</trkpt>
|
|
<trkpt lat="55.403245" lon="8.660257">
|
|
<ele>3.834896</ele>
|
|
<time>2026-07-11T07:53:55.000Z</time>
|
|
</trkpt>
|
|
<trkpt lat="55.403255" lon="8.660169">
|
|
<ele>3.836045</ele>
|
|
<time>2026-07-11T07:53:56.000Z</time>
|
|
</trkpt>
|
|
<trkpt lat="55.403263" lon="8.660082">
|
|
<ele>3.830960</ele>
|
|
<time>2026-07-11T07:53:57.000Z</time>
|
|
</trkpt>
|
|
<trkpt lat="55.403272" lon="8.659994">
|
|
<ele>3.825801</ele>
|
|
<time>2026-07-11T07:53:58.000Z</time>
|
|
</trkpt>
|
|
<trkpt lat="55.403284" lon="8.659904">
|
|
<ele>3.820467</ele>
|
|
<time>2026-07-11T07:53:59.000Z</time>
|
|
</trkpt>
|
|
<trkpt lat="55.403295" lon="8.659817">
|
|
<ele>3.815324</ele>
|
|
<time>2026-07-11T07:54:00.000Z</time>
|
|
</trkpt>
|
|
<trkpt lat="55.403307" lon="8.659729">
|
|
<ele>3.810103</ele>
|
|
<time>2026-07-11T07:54:01.000Z</time>
|
|
</trkpt>
|
|
<trkpt lat="55.403313" lon="8.659642">
|
|
<ele>3.805046</ele>
|
|
<time>2026-07-11T07:54:02.000Z</time>
|
|
</trkpt>
|
|
<trkpt lat="55.403313" lon="8.659555">
|
|
<ele>3.800026</ele>
|
|
<time>2026-07-11T07:54:03.000Z</time>
|
|
</trkpt>
|
|
<trkpt lat="55.403313" lon="8.659467">
|
|
<ele>3.794949</ele>
|
|
<time>2026-07-11T07:54:04.000Z</time>
|
|
</trkpt>
|
|
<trkpt lat="55.403314" lon="8.659377">
|
|
<ele>3.789755</ele>
|
|
<time>2026-07-11T07:54:05.000Z</time>
|
|
</trkpt>
|
|
<trkpt lat="55.403322" lon="8.659285">
|
|
<ele>3.784385</ele>
|
|
<time>2026-07-11T07:54:06.000Z</time>
|
|
</trkpt>
|
|
<trkpt lat="55.403331" lon="8.659195">
|
|
<ele>3.779113</ele>
|
|
<time>2026-07-11T07:54:07.000Z</time>
|
|
</trkpt>
|
|
<trkpt lat="55.403339" lon="8.659101">
|
|
<ele>3.773629</ele>
|
|
<time>2026-07-11T07:54:08.000Z</time>
|
|
</trkpt>
|
|
<trkpt lat="55.403348" lon="8.659007">
|
|
<ele>3.768129</ele>
|
|
<time>2026-07-11T07:54:09.000Z</time>
|
|
</trkpt>
|
|
<trkpt lat="55.403358" lon="8.658913">
|
|
<ele>3.762611</ele>
|
|
<time>2026-07-11T07:54:10.000Z</time>
|
|
</trkpt>
|
|
<trkpt lat="55.403366" lon="8.658816">
|
|
<ele>3.756956</ele>
|
|
<time>2026-07-11T07:54:11.000Z</time>
|
|
</trkpt>
|
|
<trkpt lat="55.403372" lon="8.658719">
|
|
<ele>3.751326</ele>
|
|
<time>2026-07-11T07:54:12.000Z</time>
|
|
</trkpt>
|
|
<trkpt lat="55.403375" lon="8.658625">
|
|
<ele>3.745894</ele>
|
|
<time>2026-07-11T07:54:13.000Z</time>
|
|
</trkpt>
|
|
<trkpt lat="55.403379" lon="8.658533">
|
|
<ele>3.740570</ele>
|
|
<time>2026-07-11T07:54:14.000Z</time>
|
|
</trkpt>
|
|
<trkpt lat="55.403383" lon="8.658438">
|
|
<ele>3.735074</ele>
|
|
<time>2026-07-11T07:54:15.000Z</time>
|
|
</trkpt>
|
|
<trkpt lat="55.403390" lon="8.658341">
|
|
<ele>3.729432</ele>
|
|
<time>2026-07-11T07:54:16.000Z</time>
|
|
</trkpt>
|
|
<trkpt lat="55.403398" lon="8.658245">
|
|
<ele>3.723834</ele>
|
|
<time>2026-07-11T07:54:17.000Z</time>
|
|
</trkpt>
|
|
<trkpt lat="55.403404" lon="8.658149">
|
|
<ele>3.718262</ele>
|
|
<time>2026-07-11T07:54:18.000Z</time>
|
|
</trkpt>
|
|
<trkpt lat="55.403410" lon="8.658054">
|
|
<ele>3.712747</ele>
|
|
<time>2026-07-11T07:54:19.000Z</time>
|
|
</trkpt>
|
|
<trkpt lat="55.403412" lon="8.657956">
|
|
<ele>3.707089</ele>
|
|
<time>2026-07-11T07:54:20.000Z</time>
|
|
</trkpt>
|
|
<trkpt lat="55.403410" lon="8.657858">
|
|
<ele>3.701431</ele>
|
|
<time>2026-07-11T07:54:21.000Z</time>
|
|
</trkpt>
|
|
<trkpt lat="55.403403" lon="8.657760">
|
|
<ele>3.695732</ele>
|
|
<time>2026-07-11T07:54:22.000Z</time>
|
|
</trkpt>
|
|
<trkpt lat="55.403390" lon="8.657663">
|
|
<ele>3.689982</ele>
|
|
<time>2026-07-11T07:54:23.000Z</time>
|
|
</trkpt>
|
|
<trkpt lat="55.403369" lon="8.657574">
|
|
<ele>3.684421</ele>
|
|
<time>2026-07-11T07:54:24.000Z</time>
|
|
</trkpt>
|
|
<trkpt lat="55.403339" lon="8.657494">
|
|
<ele>3.678890</ele>
|
|
<time>2026-07-11T07:54:25.000Z</time>
|
|
</trkpt>
|
|
<trkpt lat="55.403298" lon="8.657414">
|
|
<ele>3.672672</ele>
|
|
<time>2026-07-11T07:54:26.000Z</time>
|
|
</trkpt>
|
|
<trkpt lat="55.403235" lon="8.657329">
|
|
<ele>3.664607</ele>
|
|
<time>2026-07-11T07:54:27.000Z</time>
|
|
</trkpt>
|
|
<trkpt lat="55.403178" lon="8.657276">
|
|
<ele>3.658058</ele>
|
|
<time>2026-07-11T07:54:28.000Z</time>
|
|
</trkpt>
|
|
<trkpt lat="55.403116" lon="8.657238">
|
|
<ele>3.632003</ele>
|
|
<time>2026-07-11T07:54:29.000Z</time>
|
|
</trkpt>
|
|
<trkpt lat="55.403050" lon="8.657217">
|
|
<ele>3.604242</ele>
|
|
<time>2026-07-11T07:54:30.000Z</time>
|
|
</trkpt>
|
|
<trkpt lat="55.402982" lon="8.657211">
|
|
<ele>3.576060</ele>
|
|
<time>2026-07-11T07:54:31.000Z</time>
|
|
</trkpt>
|
|
<trkpt lat="55.402911" lon="8.657215">
|
|
<ele>3.546656</ele>
|
|
<time>2026-07-11T07:54:32.000Z</time>
|
|
</trkpt>
|
|
<trkpt lat="55.402841" lon="8.657225">
|
|
<ele>3.517586</ele>
|
|
<time>2026-07-11T07:54:33.000Z</time>
|
|
</trkpt>
|
|
<trkpt lat="55.402772" lon="8.657235">
|
|
<ele>3.488928</ele>
|
|
<time>2026-07-11T07:54:34.000Z</time>
|
|
</trkpt>
|
|
<trkpt lat="55.402707" lon="8.657245">
|
|
<ele>3.461921</ele>
|
|
<time>2026-07-11T07:54:35.000Z</time>
|
|
</trkpt>
|
|
<trkpt lat="55.402640" lon="8.657257">
|
|
<ele>3.434045</ele>
|
|
<time>2026-07-11T07:54:36.000Z</time>
|
|
</trkpt>
|
|
<trkpt lat="55.402574" lon="8.657270">
|
|
<ele>3.406555</ele>
|
|
<time>2026-07-11T07:54:37.000Z</time>
|
|
</trkpt>
|
|
<trkpt lat="55.402507" lon="8.657284">
|
|
<ele>3.378628</ele>
|
|
<time>2026-07-11T07:54:38.000Z</time>
|
|
</trkpt>
|
|
<trkpt lat="55.402440" lon="8.657297">
|
|
<ele>3.350727</ele>
|
|
<time>2026-07-11T07:54:39.000Z</time>
|
|
</trkpt>
|
|
<trkpt lat="55.402374" lon="8.657311">
|
|
<ele>3.323210</ele>
|
|
<time>2026-07-11T07:54:40.000Z</time>
|
|
</trkpt>
|
|
<trkpt lat="55.402307" lon="8.657324">
|
|
<ele>3.295309</ele>
|
|
<time>2026-07-11T07:54:41.000Z</time>
|
|
</trkpt>
|
|
<trkpt lat="55.402243" lon="8.657337">
|
|
<ele>3.268642</ele>
|
|
<time>2026-07-11T07:54:42.000Z</time>
|
|
</trkpt>
|
|
<trkpt lat="55.402177" lon="8.657349">
|
|
<ele>3.241178</ele>
|
|
<time>2026-07-11T07:54:43.000Z</time>
|
|
</trkpt>
|
|
<trkpt lat="55.402113" lon="8.657359">
|
|
<ele>3.214583</ele>
|
|
<time>2026-07-11T07:54:44.000Z</time>
|
|
</trkpt>
|
|
<trkpt lat="55.402049" lon="8.657369">
|
|
<ele>3.187987</ele>
|
|
<time>2026-07-11T07:54:45.000Z</time>
|
|
</trkpt>
|
|
<trkpt lat="55.401984" lon="8.657381">
|
|
<ele>3.160935</ele>
|
|
<time>2026-07-11T07:54:46.000Z</time>
|
|
</trkpt>
|
|
<trkpt lat="55.401921" lon="8.657395">
|
|
<ele>3.134651</ele>
|
|
<time>2026-07-11T07:54:47.000Z</time>
|
|
</trkpt>
|
|
<trkpt lat="55.401856" lon="8.657409">
|
|
<ele>3.107545</ele>
|
|
<time>2026-07-11T07:54:48.000Z</time>
|
|
</trkpt>
|
|
<trkpt lat="55.401790" lon="8.657420">
|
|
<ele>3.080104</ele>
|
|
<time>2026-07-11T07:54:49.000Z</time>
|
|
</trkpt>
|
|
<trkpt lat="55.401723" lon="8.657430">
|
|
<ele>3.052271</ele>
|
|
<time>2026-07-11T07:54:50.000Z</time>
|
|
</trkpt>
|
|
<trkpt lat="55.401658" lon="8.657441">
|
|
<ele>3.025242</ele>
|
|
<time>2026-07-11T07:54:51.000Z</time>
|
|
</trkpt>
|
|
<trkpt lat="55.401593" lon="8.657451">
|
|
<ele>2.998234</ele>
|
|
<time>2026-07-11T07:54:52.000Z</time>
|
|
</trkpt>
|
|
<trkpt lat="55.401528" lon="8.657463">
|
|
<ele>2.971182</ele>
|
|
<time>2026-07-11T07:54:53.000Z</time>
|
|
</trkpt>
|
|
<trkpt lat="55.401470" lon="8.657474">
|
|
<ele>2.947035</ele>
|
|
<time>2026-07-11T07:54:54.000Z</time>
|
|
</trkpt>
|
|
<trkpt lat="55.401413" lon="8.657486">
|
|
<ele>2.923274</ele>
|
|
<time>2026-07-11T07:54:55.000Z</time>
|
|
</trkpt>
|
|
<trkpt lat="55.401338" lon="8.657498">
|
|
<ele>2.876297</ele>
|
|
<time>2026-07-11T07:54:56.000Z</time>
|
|
</trkpt>
|
|
<trkpt lat="55.401273" lon="8.657505">
|
|
<ele>2.829140</ele>
|
|
<time>2026-07-11T07:54:57.000Z</time>
|
|
</trkpt>
|
|
<trkpt lat="55.401208" lon="8.657506">
|
|
<ele>2.782068</ele>
|
|
<time>2026-07-11T07:54:58.000Z</time>
|
|
</trkpt>
|
|
<trkpt lat="55.401145" lon="8.657498">
|
|
<ele>2.736328</ele>
|
|
<time>2026-07-11T07:54:59.000Z</time>
|
|
</trkpt>
|
|
<trkpt lat="55.401085" lon="8.657478">
|
|
<ele>2.692108</ele>
|
|
<time>2026-07-11T07:55:00.000Z</time>
|
|
</trkpt>
|
|
<trkpt lat="55.401025" lon="8.657443">
|
|
<ele>2.646337</ele>
|
|
<time>2026-07-11T07:55:01.000Z</time>
|
|
</trkpt>
|
|
<trkpt lat="55.400970" lon="8.657393">
|
|
<ele>2.601516</ele>
|
|
<time>2026-07-11T07:55:02.000Z</time>
|
|
</trkpt>
|
|
<trkpt lat="55.400917" lon="8.657332">
|
|
<ele>2.555666</ele>
|
|
<time>2026-07-11T07:55:03.000Z</time>
|
|
</trkpt>
|
|
<trkpt lat="55.400870" lon="8.657264">
|
|
<ele>2.511618</ele>
|
|
<time>2026-07-11T07:55:04.000Z</time>
|
|
</trkpt>
|
|
<trkpt lat="55.400826" lon="8.657191">
|
|
<ele>2.467843</ele>
|
|
<time>2026-07-11T07:55:05.000Z</time>
|
|
</trkpt>
|
|
<trkpt lat="55.400787" lon="8.657111">
|
|
<ele>2.424488</ele>
|
|
<time>2026-07-11T07:55:06.000Z</time>
|
|
</trkpt>
|
|
<trkpt lat="55.400754" lon="8.657024">
|
|
<ele>2.381466</ele>
|
|
<time>2026-07-11T07:55:07.000Z</time>
|
|
</trkpt>
|
|
<trkpt lat="55.400727" lon="8.656931">
|
|
<ele>2.338516</ele>
|
|
<time>2026-07-11T07:55:08.000Z</time>
|
|
</trkpt>
|
|
<trkpt lat="55.400706" lon="8.656832">
|
|
<ele>2.295060</ele>
|
|
<time>2026-07-11T07:55:09.000Z</time>
|
|
</trkpt>
|
|
<trkpt lat="55.400691" lon="8.656733">
|
|
<ele>2.252928</ele>
|
|
<time>2026-07-11T07:55:10.000Z</time>
|
|
</trkpt>
|
|
<trkpt lat="55.400681" lon="8.656631">
|
|
<ele>2.210365</ele>
|
|
<time>2026-07-11T07:55:11.000Z</time>
|
|
</trkpt>
|
|
<trkpt lat="55.400673" lon="8.656532">
|
|
<ele>2.169246</ele>
|
|
<time>2026-07-11T07:55:12.000Z</time>
|
|
</trkpt>
|
|
<trkpt lat="55.400666" lon="8.656432">
|
|
<ele>2.127815</ele>
|
|
<time>2026-07-11T07:55:13.000Z</time>
|
|
</trkpt>
|
|
<trkpt lat="55.400660" lon="8.656334">
|
|
<ele>2.087285</ele>
|
|
<time>2026-07-11T07:55:14.000Z</time>
|
|
</trkpt>
|
|
<trkpt lat="55.400655" lon="8.656240">
|
|
<ele>2.048463</ele>
|
|
<time>2026-07-11T07:55:15.000Z</time>
|
|
</trkpt>
|
|
<trkpt lat="55.400648" lon="8.656123">
|
|
<ele>2.000086</ele>
|
|
<time>2026-07-11T07:55:16.000Z</time>
|
|
</trkpt>
|
|
<trkpt lat="55.400644" lon="8.656021">
|
|
<ele>1.958044</ele>
|
|
<time>2026-07-11T07:55:17.000Z</time>
|
|
</trkpt>
|
|
<trkpt lat="55.400641" lon="8.655919">
|
|
<ele>1.916046</ele>
|
|
<time>2026-07-11T07:55:18.000Z</time>
|
|
</trkpt>
|
|
<trkpt lat="55.400637" lon="8.655818">
|
|
<ele>1.874414</ele>
|
|
<time>2026-07-11T07:55:19.000Z</time>
|
|
</trkpt>
|
|
<trkpt lat="55.400633" lon="8.655717">
|
|
<ele>1.832783</ele>
|
|
<time>2026-07-11T07:55:20.000Z</time>
|
|
</trkpt>
|
|
<trkpt lat="55.400629" lon="8.655616">
|
|
<ele>1.791151</ele>
|
|
<time>2026-07-11T07:55:21.000Z</time>
|
|
</trkpt>
|
|
<trkpt lat="55.400625" lon="8.655517">
|
|
<ele>1.750339</ele>
|
|
<time>2026-07-11T07:55:22.000Z</time>
|
|
</trkpt>
|
|
<trkpt lat="55.400620" lon="8.655417">
|
|
<ele>1.709060</ele>
|
|
<time>2026-07-11T07:55:23.000Z</time>
|
|
</trkpt>
|
|
<trkpt lat="55.400614" lon="8.655317">
|
|
<ele>1.667712</ele>
|
|
<time>2026-07-11T07:55:24.000Z</time>
|
|
</trkpt>
|
|
<trkpt lat="55.400612" lon="8.655220">
|
|
<ele>1.627799</ele>
|
|
<time>2026-07-11T07:55:25.000Z</time>
|
|
</trkpt>
|
|
<trkpt lat="55.400610" lon="8.655123">
|
|
<ele>1.601662</ele>
|
|
<time>2026-07-11T07:55:26.000Z</time>
|
|
</trkpt>
|
|
<trkpt lat="55.400605" lon="8.655026">
|
|
<ele>1.585794</ele>
|
|
<time>2026-07-11T07:55:27.000Z</time>
|
|
</trkpt>
|
|
<trkpt lat="55.400599" lon="8.654927">
|
|
<ele>1.569573</ele>
|
|
<time>2026-07-11T07:55:28.000Z</time>
|
|
</trkpt>
|
|
<trkpt lat="55.400595" lon="8.654827">
|
|
<ele>1.553241</ele>
|
|
<time>2026-07-11T07:55:29.000Z</time>
|
|
</trkpt>
|
|
<trkpt lat="55.400589" lon="8.654729">
|
|
<ele>1.537183</ele>
|
|
<time>2026-07-11T07:55:30.000Z</time>
|
|
</trkpt>
|
|
<trkpt lat="55.400583" lon="8.654631">
|
|
<ele>1.521124</ele>
|
|
<time>2026-07-11T07:55:31.000Z</time>
|
|
</trkpt>
|
|
<trkpt lat="55.400580" lon="8.654533">
|
|
<ele>1.505135</ele>
|
|
<time>2026-07-11T07:55:32.000Z</time>
|
|
</trkpt>
|
|
<trkpt lat="55.400574" lon="8.654435">
|
|
<ele>1.489076</ele>
|
|
<time>2026-07-11T07:55:33.000Z</time>
|
|
</trkpt>
|
|
<trkpt lat="55.400568" lon="8.654337">
|
|
<ele>1.473017</ele>
|
|
<time>2026-07-11T07:55:34.000Z</time>
|
|
</trkpt>
|
|
<trkpt lat="55.400563" lon="8.654239">
|
|
<ele>1.456987</ele>
|
|
<time>2026-07-11T07:55:35.000Z</time>
|
|
</trkpt>
|
|
<trkpt lat="55.400558" lon="8.654142">
|
|
<ele>1.441119</ele>
|
|
<time>2026-07-11T07:55:36.000Z</time>
|
|
</trkpt>
|
|
<trkpt lat="55.400555" lon="8.654044">
|
|
<ele>1.425130</ele>
|
|
<time>2026-07-11T07:55:37.000Z</time>
|
|
</trkpt>
|
|
<trkpt lat="55.400549" lon="8.653945">
|
|
<ele>1.408909</ele>
|
|
<time>2026-07-11T07:55:38.000Z</time>
|
|
</trkpt>
|
|
<trkpt lat="55.400545" lon="8.653847">
|
|
<ele>1.392902</ele>
|
|
<time>2026-07-11T07:55:39.000Z</time>
|
|
</trkpt>
|
|
<trkpt lat="55.400540" lon="8.653748">
|
|
<ele>1.376709</ele>
|
|
<time>2026-07-11T07:55:40.000Z</time>
|
|
</trkpt>
|
|
<trkpt lat="55.400532" lon="8.653647">
|
|
<ele>1.360095</ele>
|
|
<time>2026-07-11T07:55:41.000Z</time>
|
|
</trkpt>
|
|
<trkpt lat="55.400526" lon="8.653548">
|
|
<ele>1.343874</ele>
|
|
<time>2026-07-11T07:55:42.000Z</time>
|
|
</trkpt>
|
|
<trkpt lat="55.400521" lon="8.653449">
|
|
<ele>1.327682</ele>
|
|
<time>2026-07-11T07:55:43.000Z</time>
|
|
</trkpt>
|
|
<trkpt lat="55.400516" lon="8.653350">
|
|
<ele>1.311489</ele>
|
|
<time>2026-07-11T07:55:44.000Z</time>
|
|
</trkpt>
|
|
<trkpt lat="55.400513" lon="8.653252">
|
|
<ele>1.295500</ele>
|
|
<time>2026-07-11T07:55:45.000Z</time>
|
|
</trkpt>
|
|
<trkpt lat="55.400507" lon="8.653151">
|
|
<ele>1.278955</ele>
|
|
<time>2026-07-11T07:55:46.000Z</time>
|
|
</trkpt>
|
|
<trkpt lat="55.400505" lon="8.653051">
|
|
<ele>1.262653</ele>
|
|
<time>2026-07-11T07:55:47.000Z</time>
|
|
</trkpt>
|
|
<trkpt lat="55.400502" lon="8.652953">
|
|
<ele>1.246664</ele>
|
|
<time>2026-07-11T07:55:48.000Z</time>
|
|
</trkpt>
|
|
<trkpt lat="55.400496" lon="8.652855">
|
|
<ele>1.230605</ele>
|
|
<time>2026-07-11T07:55:49.000Z</time>
|
|
</trkpt>
|
|
<trkpt lat="55.400492" lon="8.652760">
|
|
<ele>1.215085</ele>
|
|
<time>2026-07-11T07:55:50.000Z</time>
|
|
</trkpt>
|
|
<trkpt lat="55.400488" lon="8.652664">
|
|
<ele>1.199403</ele>
|
|
<time>2026-07-11T07:55:51.000Z</time>
|
|
</trkpt>
|
|
<trkpt lat="55.400484" lon="8.652568">
|
|
<ele>1.183721</ele>
|
|
<time>2026-07-11T07:55:52.000Z</time>
|
|
</trkpt>
|
|
<trkpt lat="55.400480" lon="8.652471">
|
|
<ele>1.167876</ele>
|
|
<time>2026-07-11T07:55:53.000Z</time>
|
|
</trkpt>
|
|
<trkpt lat="55.400475" lon="8.652374">
|
|
<ele>1.152008</ele>
|
|
<time>2026-07-11T07:55:54.000Z</time>
|
|
</trkpt>
|
|
<trkpt lat="55.400467" lon="8.652277">
|
|
<ele>1.136039</ele>
|
|
<time>2026-07-11T07:55:55.000Z</time>
|
|
</trkpt>
|
|
<trkpt lat="55.400461" lon="8.652179">
|
|
<ele>1.119980</ele>
|
|
<time>2026-07-11T07:55:56.000Z</time>
|
|
</trkpt>
|
|
<trkpt lat="55.400458" lon="8.652082">
|
|
<ele>1.104153</ele>
|
|
<time>2026-07-11T07:55:57.000Z</time>
|
|
</trkpt>
|
|
<trkpt lat="55.400454" lon="8.651986">
|
|
<ele>1.101426</ele>
|
|
<time>2026-07-11T07:55:58.000Z</time>
|
|
</trkpt>
|
|
<trkpt lat="55.400450" lon="8.651889">
|
|
<ele>1.118812</ele>
|
|
<time>2026-07-11T07:55:59.000Z</time>
|
|
</trkpt>
|
|
<trkpt lat="55.400444" lon="8.651793">
|
|
<ele>1.136077</ele>
|
|
<time>2026-07-11T07:56:00.000Z</time>
|
|
</trkpt>
|
|
<trkpt lat="55.400438" lon="8.651697">
|
|
<ele>1.153341</ele>
|
|
<time>2026-07-11T07:56:01.000Z</time>
|
|
</trkpt>
|
|
<trkpt lat="55.400433" lon="8.651601">
|
|
<ele>1.170575</ele>
|
|
<time>2026-07-11T07:56:02.000Z</time>
|
|
</trkpt>
|
|
<trkpt lat="55.400427" lon="8.651505">
|
|
<ele>1.187840</ele>
|
|
<time>2026-07-11T07:56:03.000Z</time>
|
|
</trkpt>
|
|
<trkpt lat="55.400421" lon="8.651408">
|
|
<ele>1.205282</ele>
|
|
<time>2026-07-11T07:56:04.000Z</time>
|
|
</trkpt>
|
|
<trkpt lat="55.400416" lon="8.651310">
|
|
<ele>1.222871</ele>
|
|
<time>2026-07-11T07:56:05.000Z</time>
|
|
</trkpt>
|
|
<trkpt lat="55.400410" lon="8.651214">
|
|
<ele>1.240136</ele>
|
|
<time>2026-07-11T07:56:06.000Z</time>
|
|
</trkpt>
|
|
<trkpt lat="55.400404" lon="8.651122">
|
|
<ele>1.256691</ele>
|
|
<time>2026-07-11T07:56:07.000Z</time>
|
|
</trkpt>
|
|
<trkpt lat="55.400401" lon="8.651027">
|
|
<ele>1.273699</ele>
|
|
<time>2026-07-11T07:56:08.000Z</time>
|
|
</trkpt>
|
|
<trkpt lat="55.400395" lon="8.650926">
|
|
<ele>1.291853</ele>
|
|
<time>2026-07-11T07:56:09.000Z</time>
|
|
</trkpt>
|
|
<trkpt lat="55.400389" lon="8.650830">
|
|
<ele>1.309118</ele>
|
|
<time>2026-07-11T07:56:10.000Z</time>
|
|
</trkpt>
|
|
<trkpt lat="55.400385" lon="8.650745">
|
|
<ele>1.324365</ele>
|
|
<time>2026-07-11T07:56:11.000Z</time>
|
|
</trkpt>
|
|
<trkpt lat="55.400381" lon="8.650661">
|
|
<ele>1.339434</ele>
|
|
<time>2026-07-11T07:56:12.000Z</time>
|
|
</trkpt>
|
|
<trkpt lat="55.400374" lon="8.650548">
|
|
<ele>1.359754</ele>
|
|
<time>2026-07-11T07:56:13.000Z</time>
|
|
</trkpt>
|
|
<trkpt lat="55.400370" lon="8.650453">
|
|
<ele>1.376783</ele>
|
|
<time>2026-07-11T07:56:14.000Z</time>
|
|
</trkpt>
|
|
<trkpt lat="55.400364" lon="8.650359">
|
|
<ele>1.393693</ele>
|
|
<time>2026-07-11T07:56:15.000Z</time>
|
|
</trkpt>
|
|
<trkpt lat="55.400358" lon="8.650265">
|
|
<ele>1.410602</ele>
|
|
<time>2026-07-11T07:56:16.000Z</time>
|
|
</trkpt>
|
|
<trkpt lat="55.400353" lon="8.650174">
|
|
<ele>1.426946</ele>
|
|
<time>2026-07-11T07:56:17.000Z</time>
|
|
</trkpt>
|
|
<trkpt lat="55.400347" lon="8.650083">
|
|
<ele>1.443322</ele>
|
|
<time>2026-07-11T07:56:18.000Z</time>
|
|
</trkpt>
|
|
<trkpt lat="55.400341" lon="8.649992">
|
|
<ele>1.459699</ele>
|
|
<time>2026-07-11T07:56:19.000Z</time>
|
|
</trkpt>
|
|
<trkpt lat="55.400336" lon="8.649903">
|
|
<ele>1.475687</ele>
|
|
<time>2026-07-11T07:56:20.000Z</time>
|
|
</trkpt>
|
|
<trkpt lat="55.400332" lon="8.649813">
|
|
<ele>1.491825</ele>
|
|
<time>2026-07-11T07:56:21.000Z</time>
|
|
</trkpt>
|
|
<trkpt lat="55.400328" lon="8.649722">
|
|
<ele>1.508141</ele>
|
|
<time>2026-07-11T07:56:22.000Z</time>
|
|
</trkpt>
|
|
<trkpt lat="55.400324" lon="8.649632">
|
|
<ele>1.524279</ele>
|
|
<time>2026-07-11T07:56:23.000Z</time>
|
|
</trkpt>
|
|
<trkpt lat="55.400319" lon="8.649541">
|
|
<ele>1.540622</ele>
|
|
<time>2026-07-11T07:56:24.000Z</time>
|
|
</trkpt>
|
|
<trkpt lat="55.400313" lon="8.649447">
|
|
<ele>1.557532</ele>
|
|
<time>2026-07-11T07:56:25.000Z</time>
|
|
</trkpt>
|
|
<trkpt lat="55.400309" lon="8.649355">
|
|
<ele>1.574026</ele>
|
|
<time>2026-07-11T07:56:26.000Z</time>
|
|
</trkpt>
|
|
<trkpt lat="55.400303" lon="8.649262">
|
|
<ele>1.590758</ele>
|
|
<time>2026-07-11T07:56:27.000Z</time>
|
|
</trkpt>
|
|
<trkpt lat="55.400297" lon="8.649170">
|
|
<ele>1.607312</ele>
|
|
<time>2026-07-11T07:56:28.000Z</time>
|
|
</trkpt>
|
|
<trkpt lat="55.400294" lon="8.649080">
|
|
<ele>1.623429</ele>
|
|
<time>2026-07-11T07:56:29.000Z</time>
|
|
</trkpt>
|
|
<trkpt lat="55.400290" lon="8.648993">
|
|
<ele>1.639032</ele>
|
|
<time>2026-07-11T07:56:30.000Z</time>
|
|
</trkpt>
|
|
<trkpt lat="55.400286" lon="8.648909">
|
|
<ele>1.654101</ele>
|
|
<time>2026-07-11T07:56:31.000Z</time>
|
|
</trkpt>
|
|
<trkpt lat="55.400282" lon="8.648830">
|
|
<ele>1.656969</ele>
|
|
<time>2026-07-11T07:56:32.000Z</time>
|
|
</trkpt>
|
|
<trkpt lat="55.400279" lon="8.648748">
|
|
<ele>1.649188</ele>
|
|
<time>2026-07-11T07:56:33.000Z</time>
|
|
</trkpt>
|
|
<trkpt lat="55.400274" lon="8.648652">
|
|
<ele>1.640059</ele>
|
|
<time>2026-07-11T07:56:34.000Z</time>
|
|
</trkpt>
|
|
<trkpt lat="55.400272" lon="8.648562">
|
|
<ele>1.631530</ele>
|
|
<time>2026-07-11T07:56:35.000Z</time>
|
|
</trkpt>
|
|
<trkpt lat="55.400271" lon="8.648470">
|
|
<ele>1.622816</ele>
|
|
<time>2026-07-11T07:56:36.000Z</time>
|
|
</trkpt>
|
|
<trkpt lat="55.400267" lon="8.648377">
|
|
<ele>1.613984</ele>
|
|
<time>2026-07-11T07:56:37.000Z</time>
|
|
</trkpt>
|
|
<trkpt lat="55.400261" lon="8.648282">
|
|
<ele>1.604932</ele>
|
|
<time>2026-07-11T07:56:38.000Z</time>
|
|
</trkpt>
|
|
<trkpt lat="55.400255" lon="8.648186">
|
|
<ele>1.595787</ele>
|
|
<time>2026-07-11T07:56:39.000Z</time>
|
|
</trkpt>
|
|
<trkpt lat="55.400250" lon="8.648090">
|
|
<ele>1.586658</ele>
|
|
<time>2026-07-11T07:56:40.000Z</time>
|
|
</trkpt>
|
|
<trkpt lat="55.400244" lon="8.647995">
|
|
<ele>1.577606</ele>
|
|
<time>2026-07-11T07:56:41.000Z</time>
|
|
</trkpt>
|
|
<trkpt lat="55.400240" lon="8.647902">
|
|
<ele>1.568774</ele>
|
|
<time>2026-07-11T07:56:42.000Z</time>
|
|
</trkpt>
|
|
<trkpt lat="55.400235" lon="8.647809">
|
|
<ele>1.559928</ele>
|
|
<time>2026-07-11T07:56:43.000Z</time>
|
|
</trkpt>
|
|
<trkpt lat="55.400227" lon="8.647713">
|
|
<ele>1.550740</ele>
|
|
<time>2026-07-11T07:56:44.000Z</time>
|
|
</trkpt>
|
|
<trkpt lat="55.400221" lon="8.647616">
|
|
<ele>1.541500</ele>
|
|
<time>2026-07-11T07:56:45.000Z</time>
|
|
</trkpt>
|
|
<trkpt lat="55.400217" lon="8.647520">
|
|
<ele>1.532385</ele>
|
|
<time>2026-07-11T07:56:46.000Z</time>
|
|
</trkpt>
|
|
<trkpt lat="55.400212" lon="8.647424">
|
|
<ele>1.523256</ele>
|
|
<time>2026-07-11T07:56:47.000Z</time>
|
|
</trkpt>
|
|
<trkpt lat="55.400206" lon="8.647328">
|
|
<ele>1.514110</ele>
|
|
<time>2026-07-11T07:56:48.000Z</time>
|
|
</trkpt>
|
|
<trkpt lat="55.400200" lon="8.647233">
|
|
<ele>1.505059</ele>
|
|
<time>2026-07-11T07:56:49.000Z</time>
|
|
</trkpt>
|
|
<trkpt lat="55.400194" lon="8.647137">
|
|
<ele>1.495913</ele>
|
|
<time>2026-07-11T07:56:50.000Z</time>
|
|
</trkpt>
|
|
<trkpt lat="55.400191" lon="8.647041">
|
|
<ele>1.486809</ele>
|
|
<time>2026-07-11T07:56:51.000Z</time>
|
|
</trkpt>
|
|
<trkpt lat="55.400185" lon="8.646945">
|
|
<ele>1.477663</ele>
|
|
<time>2026-07-11T07:56:52.000Z</time>
|
|
</trkpt>
|
|
<trkpt lat="55.400177" lon="8.646851">
|
|
<ele>1.468662</ele>
|
|
<time>2026-07-11T07:56:53.000Z</time>
|
|
</trkpt>
|
|
<trkpt lat="55.400171" lon="8.646759">
|
|
<ele>1.459893</ele>
|
|
<time>2026-07-11T07:56:54.000Z</time>
|
|
</trkpt>
|
|
<trkpt lat="55.400168" lon="8.646666">
|
|
<ele>1.451072</ele>
|
|
<time>2026-07-11T07:56:55.000Z</time>
|
|
</trkpt>
|
|
<trkpt lat="55.400164" lon="8.646571">
|
|
<ele>1.442051</ele>
|
|
<time>2026-07-11T07:56:56.000Z</time>
|
|
</trkpt>
|
|
<trkpt lat="55.400158" lon="8.646477">
|
|
<ele>1.433094</ele>
|
|
<time>2026-07-11T07:56:57.000Z</time>
|
|
</trkpt>
|
|
<trkpt lat="55.400152" lon="8.646382">
|
|
<ele>1.424042</ele>
|
|
<time>2026-07-11T07:56:58.000Z</time>
|
|
</trkpt>
|
|
<trkpt lat="55.400149" lon="8.646294">
|
|
<ele>1.415694</ele>
|
|
<time>2026-07-11T07:56:59.000Z</time>
|
|
</trkpt>
|
|
<trkpt lat="55.400144" lon="8.646203">
|
|
<ele>1.407036</ele>
|
|
<time>2026-07-11T07:57:00.000Z</time>
|
|
</trkpt>
|
|
<trkpt lat="55.400137" lon="8.646101">
|
|
<ele>1.397307</ele>
|
|
<time>2026-07-11T07:57:01.000Z</time>
|
|
</trkpt>
|
|
<trkpt lat="55.400132" lon="8.646008">
|
|
<ele>1.388461</ele>
|
|
<time>2026-07-11T07:57:02.000Z</time>
|
|
</trkpt>
|
|
<trkpt lat="55.400126" lon="8.645915">
|
|
<ele>1.379597</ele>
|
|
<time>2026-07-11T07:57:03.000Z</time>
|
|
</trkpt>
|
|
<trkpt lat="55.400122" lon="8.645822">
|
|
<ele>1.370766</ele>
|
|
<time>2026-07-11T07:57:04.000Z</time>
|
|
</trkpt>
|
|
<trkpt lat="55.400116" lon="8.645731">
|
|
<ele>1.362090</ele>
|
|
<time>2026-07-11T07:57:05.000Z</time>
|
|
</trkpt>
|
|
<trkpt lat="55.400110" lon="8.645637">
|
|
<ele>1.361251</ele>
|
|
<time>2026-07-11T07:57:06.000Z</time>
|
|
</trkpt>
|
|
<trkpt lat="55.400105" lon="8.645545">
|
|
<ele>1.361605</ele>
|
|
<time>2026-07-11T07:57:07.000Z</time>
|
|
</trkpt>
|
|
<trkpt lat="55.400099" lon="8.645453">
|
|
<ele>1.361959</ele>
|
|
<time>2026-07-11T07:57:08.000Z</time>
|
|
</trkpt>
|
|
<trkpt lat="55.400095" lon="8.645362">
|
|
<ele>1.362308</ele>
|
|
<time>2026-07-11T07:57:09.000Z</time>
|
|
</trkpt>
|
|
<trkpt lat="55.400090" lon="8.645270">
|
|
<ele>1.362662</ele>
|
|
<time>2026-07-11T07:57:10.000Z</time>
|
|
</trkpt>
|
|
<trkpt lat="55.400084" lon="8.645178">
|
|
<ele>1.363017</ele>
|
|
<time>2026-07-11T07:57:11.000Z</time>
|
|
</trkpt>
|
|
<trkpt lat="55.400080" lon="8.645089">
|
|
<ele>1.363358</ele>
|
|
<time>2026-07-11T07:57:12.000Z</time>
|
|
</trkpt>
|
|
<trkpt lat="55.400076" lon="8.645000">
|
|
<ele>1.363700</ele>
|
|
<time>2026-07-11T07:57:13.000Z</time>
|
|
</trkpt>
|
|
<trkpt lat="55.400072" lon="8.644911">
|
|
<ele>1.364042</ele>
|
|
<time>2026-07-11T07:57:14.000Z</time>
|
|
</trkpt>
|
|
<trkpt lat="55.400067" lon="8.644822">
|
|
<ele>1.364384</ele>
|
|
<time>2026-07-11T07:57:15.000Z</time>
|
|
</trkpt>
|
|
<trkpt lat="55.400061" lon="8.644731">
|
|
<ele>1.364735</ele>
|
|
<time>2026-07-11T07:57:16.000Z</time>
|
|
</trkpt>
|
|
<trkpt lat="55.400057" lon="8.644641">
|
|
<ele>1.365080</ele>
|
|
<time>2026-07-11T07:57:17.000Z</time>
|
|
</trkpt>
|
|
<trkpt lat="55.400053" lon="8.644552">
|
|
<ele>1.365422</ele>
|
|
<time>2026-07-11T07:57:18.000Z</time>
|
|
</trkpt>
|
|
<trkpt lat="55.400048" lon="8.644463">
|
|
<ele>1.365764</ele>
|
|
<time>2026-07-11T07:57:19.000Z</time>
|
|
</trkpt>
|
|
<trkpt lat="55.400042" lon="8.644370">
|
|
<ele>1.366122</ele>
|
|
<time>2026-07-11T07:57:20.000Z</time>
|
|
</trkpt>
|
|
<trkpt lat="55.400038" lon="8.644277">
|
|
<ele>1.366479</ele>
|
|
<time>2026-07-11T07:57:21.000Z</time>
|
|
</trkpt>
|
|
<trkpt lat="55.400033" lon="8.644183">
|
|
<ele>1.366841</ele>
|
|
<time>2026-07-11T07:57:22.000Z</time>
|
|
</trkpt>
|
|
<trkpt lat="55.400026" lon="8.644088">
|
|
<ele>1.367207</ele>
|
|
<time>2026-07-11T07:57:23.000Z</time>
|
|
</trkpt>
|
|
<trkpt lat="55.400021" lon="8.643994">
|
|
<ele>1.367569</ele>
|
|
<time>2026-07-11T07:57:24.000Z</time>
|
|
</trkpt>
|
|
<trkpt lat="55.400015" lon="8.643897">
|
|
<ele>1.367942</ele>
|
|
<time>2026-07-11T07:57:25.000Z</time>
|
|
</trkpt>
|
|
<trkpt lat="55.400010" lon="8.643800">
|
|
<ele>1.368315</ele>
|
|
<time>2026-07-11T07:57:26.000Z</time>
|
|
</trkpt>
|
|
<trkpt lat="55.400004" lon="8.643704">
|
|
<ele>1.368685</ele>
|
|
<time>2026-07-11T07:57:27.000Z</time>
|
|
</trkpt>
|
|
<trkpt lat="55.400000" lon="8.643605">
|
|
<ele>1.369065</ele>
|
|
<time>2026-07-11T07:57:28.000Z</time>
|
|
</trkpt>
|
|
<trkpt lat="55.399994" lon="8.643513">
|
|
<ele>1.369419</ele>
|
|
<time>2026-07-11T07:57:29.000Z</time>
|
|
</trkpt>
|
|
<trkpt lat="55.399988" lon="8.643419">
|
|
<ele>1.369781</ele>
|
|
<time>2026-07-11T07:57:30.000Z</time>
|
|
</trkpt>
|
|
<trkpt lat="55.399984" lon="8.643323">
|
|
<ele>1.370150</ele>
|
|
<time>2026-07-11T07:57:31.000Z</time>
|
|
</trkpt>
|
|
<trkpt lat="55.399981" lon="8.643228">
|
|
<ele>1.370514</ele>
|
|
<time>2026-07-11T07:57:32.000Z</time>
|
|
</trkpt>
|
|
<trkpt lat="55.399977" lon="8.643133">
|
|
<ele>1.370878</ele>
|
|
<time>2026-07-11T07:57:33.000Z</time>
|
|
</trkpt>
|
|
<trkpt lat="55.399971" lon="8.643039">
|
|
<ele>1.371240</ele>
|
|
<time>2026-07-11T07:57:34.000Z</time>
|
|
</trkpt>
|
|
<trkpt lat="55.399964" lon="8.642944">
|
|
<ele>1.371607</ele>
|
|
<time>2026-07-11T07:57:35.000Z</time>
|
|
</trkpt>
|
|
<trkpt lat="55.399958" lon="8.642847">
|
|
<ele>1.371980</ele>
|
|
<time>2026-07-11T07:57:36.000Z</time>
|
|
</trkpt>
|
|
<trkpt lat="55.399952" lon="8.642754">
|
|
<ele>1.372339</ele>
|
|
<time>2026-07-11T07:57:37.000Z</time>
|
|
</trkpt>
|
|
<trkpt lat="55.399946" lon="8.642660">
|
|
<ele>1.372701</ele>
|
|
<time>2026-07-11T07:57:38.000Z</time>
|
|
</trkpt>
|
|
<trkpt lat="55.399941" lon="8.642567">
|
|
<ele>1.373058</ele>
|
|
<time>2026-07-11T07:57:39.000Z</time>
|
|
</trkpt>
|
|
<trkpt lat="55.399933" lon="8.642475">
|
|
<ele>1.377763</ele>
|
|
<time>2026-07-11T07:57:40.000Z</time>
|
|
</trkpt>
|
|
<trkpt lat="55.399926" lon="8.642382">
|
|
<ele>1.382513</ele>
|
|
<time>2026-07-11T07:57:41.000Z</time>
|
|
</trkpt>
|
|
<trkpt lat="55.399918" lon="8.642290">
|
|
<ele>1.387227</ele>
|
|
<time>2026-07-11T07:57:42.000Z</time>
|
|
</trkpt>
|
|
<trkpt lat="55.399912" lon="8.642199">
|
|
<ele>1.391866</ele>
|
|
<time>2026-07-11T07:57:43.000Z</time>
|
|
</trkpt>
|
|
<trkpt lat="55.399910" lon="8.642108">
|
|
<ele>1.396478</ele>
|
|
<time>2026-07-11T07:57:44.000Z</time>
|
|
</trkpt>
|
|
<trkpt lat="55.399907" lon="8.642017">
|
|
<ele>1.401094</ele>
|
|
<time>2026-07-11T07:57:45.000Z</time>
|
|
</trkpt>
|
|
<trkpt lat="55.399901" lon="8.641924">
|
|
<ele>1.405834</ele>
|
|
<time>2026-07-11T07:57:46.000Z</time>
|
|
</trkpt>
|
|
<trkpt lat="55.399893" lon="8.641832">
|
|
<ele>1.410547</ele>
|
|
<time>2026-07-11T07:57:47.000Z</time>
|
|
</trkpt>
|
|
<trkpt lat="55.399885" lon="8.641742">
|
|
<ele>1.415160</ele>
|
|
<time>2026-07-11T07:57:48.000Z</time>
|
|
</trkpt>
|
|
<trkpt lat="55.399880" lon="8.641652">
|
|
<ele>1.419740</ele>
|
|
<time>2026-07-11T07:57:49.000Z</time>
|
|
</trkpt>
|
|
<trkpt lat="55.399874" lon="8.641563">
|
|
<ele>1.424278</ele>
|
|
<time>2026-07-11T07:57:50.000Z</time>
|
|
</trkpt>
|
|
<trkpt lat="55.399868" lon="8.641472">
|
|
<ele>1.428918</ele>
|
|
<time>2026-07-11T07:57:51.000Z</time>
|
|
</trkpt>
|
|
<trkpt lat="55.399861" lon="8.641383">
|
|
<ele>1.433468</ele>
|
|
<time>2026-07-11T07:57:52.000Z</time>
|
|
</trkpt>
|
|
<trkpt lat="55.399855" lon="8.641292">
|
|
<ele>1.438107</ele>
|
|
<time>2026-07-11T07:57:53.000Z</time>
|
|
</trkpt>
|
|
<trkpt lat="55.399849" lon="8.641200">
|
|
<ele>1.442796</ele>
|
|
<time>2026-07-11T07:57:54.000Z</time>
|
|
</trkpt>
|
|
<trkpt lat="55.399843" lon="8.641108">
|
|
<ele>1.447486</ele>
|
|
<time>2026-07-11T07:57:55.000Z</time>
|
|
</trkpt>
|
|
<trkpt lat="55.399838" lon="8.641015">
|
|
<ele>1.452217</ele>
|
|
<time>2026-07-11T07:57:56.000Z</time>
|
|
</trkpt>
|
|
<trkpt lat="55.399832" lon="8.640923">
|
|
<ele>1.456906</ele>
|
|
<time>2026-07-11T07:57:57.000Z</time>
|
|
</trkpt>
|
|
<trkpt lat="55.399826" lon="8.640828">
|
|
<ele>1.461747</ele>
|
|
<time>2026-07-11T07:57:58.000Z</time>
|
|
</trkpt>
|
|
<trkpt lat="55.399819" lon="8.640734">
|
|
<ele>1.466548</ele>
|
|
<time>2026-07-11T07:57:59.000Z</time>
|
|
</trkpt>
|
|
<trkpt lat="55.399811" lon="8.640640">
|
|
<ele>1.471361</ele>
|
|
<time>2026-07-11T07:58:00.000Z</time>
|
|
</trkpt>
|
|
<trkpt lat="55.399805" lon="8.640547">
|
|
<ele>1.476101</ele>
|
|
<time>2026-07-11T07:58:01.000Z</time>
|
|
</trkpt>
|
|
<trkpt lat="55.399800" lon="8.640452">
|
|
<ele>1.480933</ele>
|
|
<time>2026-07-11T07:58:02.000Z</time>
|
|
</trkpt>
|
|
<trkpt lat="55.399794" lon="8.640354">
|
|
<ele>1.485924</ele>
|
|
<time>2026-07-11T07:58:03.000Z</time>
|
|
</trkpt>
|
|
<trkpt lat="55.399788" lon="8.640260">
|
|
<ele>1.490715</ele>
|
|
<time>2026-07-11T07:58:04.000Z</time>
|
|
</trkpt>
|
|
<trkpt lat="55.399781" lon="8.640168">
|
|
<ele>1.495415</ele>
|
|
<time>2026-07-11T07:58:05.000Z</time>
|
|
</trkpt>
|
|
<trkpt lat="55.399773" lon="8.640075">
|
|
<ele>1.500178</ele>
|
|
<time>2026-07-11T07:58:06.000Z</time>
|
|
</trkpt>
|
|
<trkpt lat="55.399765" lon="8.639978">
|
|
<ele>1.505142</ele>
|
|
<time>2026-07-11T07:58:07.000Z</time>
|
|
</trkpt>
|
|
<trkpt lat="55.399759" lon="8.639882">
|
|
<ele>1.510033</ele>
|
|
<time>2026-07-11T07:58:08.000Z</time>
|
|
</trkpt>
|
|
<trkpt lat="55.399756" lon="8.639789">
|
|
<ele>1.514750</ele>
|
|
<time>2026-07-11T07:58:09.000Z</time>
|
|
</trkpt>
|
|
<trkpt lat="55.399752" lon="8.639697">
|
|
<ele>1.519423</ele>
|
|
<time>2026-07-11T07:58:10.000Z</time>
|
|
</trkpt>
|
|
<trkpt lat="55.399746" lon="8.639607">
|
|
<ele>1.524012</ele>
|
|
<time>2026-07-11T07:58:11.000Z</time>
|
|
</trkpt>
|
|
<trkpt lat="55.399741" lon="8.639519">
|
|
<ele>1.528491</ele>
|
|
<time>2026-07-11T07:58:12.000Z</time>
|
|
</trkpt>
|
|
<trkpt lat="55.399735" lon="8.639427">
|
|
<ele>1.533180</ele>
|
|
<time>2026-07-11T07:58:13.000Z</time>
|
|
</trkpt>
|
|
<trkpt lat="55.399727" lon="8.639335">
|
|
<ele>1.563872</ele>
|
|
<time>2026-07-11T07:58:14.000Z</time>
|
|
</trkpt>
|
|
<trkpt lat="55.399720" lon="8.639245">
|
|
<ele>1.595449</ele>
|
|
<time>2026-07-11T07:58:15.000Z</time>
|
|
</trkpt>
|
|
<trkpt lat="55.399714" lon="8.639151">
|
|
<ele>1.628330</ele>
|
|
<time>2026-07-11T07:58:16.000Z</time>
|
|
</trkpt>
|
|
<trkpt lat="55.399708" lon="8.639060">
|
|
<ele>1.660175</ele>
|
|
<time>2026-07-11T07:58:17.000Z</time>
|
|
</trkpt>
|
|
<trkpt lat="55.399702" lon="8.638970">
|
|
<ele>1.691675</ele>
|
|
<time>2026-07-11T07:58:18.000Z</time>
|
|
</trkpt>
|
|
<trkpt lat="55.399697" lon="8.638879">
|
|
<ele>1.723456</ele>
|
|
<time>2026-07-11T07:58:19.000Z</time>
|
|
</trkpt>
|
|
<trkpt lat="55.399689" lon="8.638787">
|
|
<ele>1.755809</ele>
|
|
<time>2026-07-11T07:58:20.000Z</time>
|
|
</trkpt>
|
|
<trkpt lat="55.399681" lon="8.638696">
|
|
<ele>1.787818</ele>
|
|
<time>2026-07-11T07:58:21.000Z</time>
|
|
</trkpt>
|
|
<trkpt lat="55.399676" lon="8.638606">
|
|
<ele>1.819252</ele>
|
|
<time>2026-07-11T07:58:22.000Z</time>
|
|
</trkpt>
|
|
<trkpt lat="55.399670" lon="8.638520">
|
|
<ele>1.849372</ele>
|
|
<time>2026-07-11T07:58:23.000Z</time>
|
|
</trkpt>
|
|
<trkpt lat="55.399666" lon="8.638436">
|
|
<ele>1.878673</ele>
|
|
<time>2026-07-11T07:58:24.000Z</time>
|
|
</trkpt>
|
|
<trkpt lat="55.399662" lon="8.638353">
|
|
<ele>1.907629</ele>
|
|
<time>2026-07-11T07:58:25.000Z</time>
|
|
</trkpt>
|
|
<trkpt lat="55.399657" lon="8.638270">
|
|
<ele>1.936642</ele>
|
|
<time>2026-07-11T07:58:26.000Z</time>
|
|
</trkpt>
|
|
<trkpt lat="55.399651" lon="8.638187">
|
|
<ele>1.965727</ele>
|
|
<time>2026-07-11T07:58:27.000Z</time>
|
|
</trkpt>
|
|
<trkpt lat="55.399645" lon="8.638104">
|
|
<ele>1.994811</ele>
|
|
<time>2026-07-11T07:58:28.000Z</time>
|
|
</trkpt>
|
|
<trkpt lat="55.399639" lon="8.638022">
|
|
<ele>2.023551</ele>
|
|
<time>2026-07-11T07:58:29.000Z</time>
|
|
</trkpt>
|
|
<trkpt lat="55.399634" lon="8.637944">
|
|
<ele>2.050837</ele>
|
|
<time>2026-07-11T07:58:30.000Z</time>
|
|
</trkpt>
|
|
<trkpt lat="55.399633" lon="8.637871">
|
|
<ele>2.076220</ele>
|
|
<time>2026-07-11T07:58:31.000Z</time>
|
|
</trkpt>
|
|
<trkpt lat="55.399637" lon="8.637802">
|
|
<ele>2.100330</ele>
|
|
<time>2026-07-11T07:58:32.000Z</time>
|
|
</trkpt>
|
|
<trkpt lat="55.399646" lon="8.637742">
|
|
<ele>2.121902</ele>
|
|
<time>2026-07-11T07:58:33.000Z</time>
|
|
</trkpt>
|
|
<trkpt lat="55.399664" lon="8.637694">
|
|
<ele>2.141897</ele>
|
|
<time>2026-07-11T07:58:34.000Z</time>
|
|
</trkpt>
|
|
<trkpt lat="55.399687" lon="8.637663">
|
|
<ele>2.159627</ele>
|
|
<time>2026-07-11T07:58:35.000Z</time>
|
|
</trkpt>
|
|
<trkpt lat="55.399712" lon="8.637651">
|
|
<ele>2.175490</ele>
|
|
<time>2026-07-11T07:58:36.000Z</time>
|
|
</trkpt>
|
|
<trkpt lat="55.399735" lon="8.637650">
|
|
<ele>2.189573</ele>
|
|
<time>2026-07-11T07:58:37.000Z</time>
|
|
</trkpt>
|
|
<trkpt lat="55.399755" lon="8.637648">
|
|
<ele>2.201836</ele>
|
|
<time>2026-07-11T07:58:38.000Z</time>
|
|
</trkpt>
|
|
<trkpt lat="55.399775" lon="8.637637">
|
|
<ele>2.214662</ele>
|
|
<time>2026-07-11T07:58:39.000Z</time>
|
|
</trkpt>
|
|
<trkpt lat="55.399801" lon="8.637623">
|
|
<ele>2.231306</ele>
|
|
<time>2026-07-11T07:58:40.000Z</time>
|
|
</trkpt>
|
|
<trkpt lat="55.399832" lon="8.637606">
|
|
<ele>2.251181</ele>
|
|
<time>2026-07-11T07:58:41.000Z</time>
|
|
</trkpt>
|
|
<trkpt lat="55.399866" lon="8.637595">
|
|
<ele>2.272343</ele>
|
|
<time>2026-07-11T07:58:42.000Z</time>
|
|
</trkpt>
|
|
<trkpt lat="55.399910" lon="8.637584">
|
|
<ele>2.299548</ele>
|
|
<time>2026-07-11T07:58:43.000Z</time>
|
|
</trkpt>
|
|
<trkpt lat="55.399952" lon="8.637575">
|
|
<ele>2.325448</ele>
|
|
<time>2026-07-11T07:58:44.000Z</time>
|
|
</trkpt>
|
|
<trkpt lat="55.399994" lon="8.637568">
|
|
<ele>2.351273</ele>
|
|
<time>2026-07-11T07:58:45.000Z</time>
|
|
</trkpt>
|
|
<trkpt lat="55.400039" lon="8.637561">
|
|
<ele>2.378928</ele>
|
|
<time>2026-07-11T07:58:46.000Z</time>
|
|
</trkpt>
|
|
<trkpt lat="55.400089" lon="8.637556">
|
|
<ele>2.409585</ele>
|
|
<time>2026-07-11T07:58:47.000Z</time>
|
|
</trkpt>
|
|
<trkpt lat="55.400137" lon="8.637551">
|
|
<ele>2.439019</ele>
|
|
<time>2026-07-11T07:58:48.000Z</time>
|
|
</trkpt>
|
|
<trkpt lat="55.400184" lon="8.637546">
|
|
<ele>2.467843</ele>
|
|
<time>2026-07-11T07:58:49.000Z</time>
|
|
</trkpt>
|
|
<trkpt lat="55.400232" lon="8.637540">
|
|
<ele>2.497300</ele>
|
|
<time>2026-07-11T07:58:50.000Z</time>
|
|
</trkpt>
|
|
<trkpt lat="55.400280" lon="8.637532">
|
|
<ele>2.526815</ele>
|
|
<time>2026-07-11T07:58:51.000Z</time>
|
|
</trkpt>
|
|
<trkpt lat="55.400330" lon="8.637525">
|
|
<ele>2.557519</ele>
|
|
<time>2026-07-11T07:58:52.000Z</time>
|
|
</trkpt>
|
|
<trkpt lat="55.400377" lon="8.637519">
|
|
<ele>2.586366</ele>
|
|
<time>2026-07-11T07:58:53.000Z</time>
|
|
</trkpt>
|
|
<trkpt lat="55.400425" lon="8.637513">
|
|
<ele>2.615823</ele>
|
|
<time>2026-07-11T07:58:54.000Z</time>
|
|
</trkpt>
|
|
<trkpt lat="55.400474" lon="8.637509">
|
|
<ele>2.630008</ele>
|
|
<time>2026-07-11T07:58:55.000Z</time>
|
|
</trkpt>
|
|
<trkpt lat="55.400524" lon="8.637504">
|
|
<ele>2.617837</ele>
|
|
<time>2026-07-11T07:58:56.000Z</time>
|
|
</trkpt>
|
|
<trkpt lat="55.400572" lon="8.637498">
|
|
<ele>2.606143</ele>
|
|
<time>2026-07-11T07:58:57.000Z</time>
|
|
</trkpt>
|
|
<trkpt lat="55.400621" lon="8.637489">
|
|
<ele>2.594170</ele>
|
|
<time>2026-07-11T07:58:58.000Z</time>
|
|
</trkpt>
|
|
<trkpt lat="55.400674" lon="8.637479">
|
|
<ele>2.581216</ele>
|
|
<time>2026-07-11T07:58:59.000Z</time>
|
|
</trkpt>
|
|
<trkpt lat="55.400728" lon="8.637467">
|
|
<ele>2.567988</ele>
|
|
<time>2026-07-11T07:59:00.000Z</time>
|
|
</trkpt>
|
|
<trkpt lat="55.400780" lon="8.637454">
|
|
<ele>2.555224</ele>
|
|
<time>2026-07-11T07:59:01.000Z</time>
|
|
</trkpt>
|
|
<trkpt lat="55.400831" lon="8.637443">
|
|
<ele>2.542738</ele>
|
|
<time>2026-07-11T07:59:02.000Z</time>
|
|
</trkpt>
|
|
<trkpt lat="55.400884" lon="8.637431">
|
|
<ele>2.529751</ele>
|
|
<time>2026-07-11T07:59:03.000Z</time>
|
|
</trkpt>
|
|
<trkpt lat="55.400938" lon="8.637417">
|
|
<ele>2.516486</ele>
|
|
<time>2026-07-11T07:59:04.000Z</time>
|
|
</trkpt>
|
|
<trkpt lat="55.400987" lon="8.637404">
|
|
<ele>2.504444</ele>
|
|
<time>2026-07-11T07:59:05.000Z</time>
|
|
</trkpt>
|
|
<trkpt lat="55.401037" lon="8.637389">
|
|
<ele>2.492118</ele>
|
|
<time>2026-07-11T07:59:06.000Z</time>
|
|
</trkpt>
|
|
<trkpt lat="55.401101" lon="8.637370">
|
|
<ele>2.476344</ele>
|
|
<time>2026-07-11T07:59:07.000Z</time>
|
|
</trkpt>
|
|
<trkpt lat="55.401157" lon="8.637355">
|
|
<ele>2.462579</ele>
|
|
<time>2026-07-11T07:59:08.000Z</time>
|
|
</trkpt>
|
|
<trkpt lat="55.401212" lon="8.637338">
|
|
<ele>2.449008</ele>
|
|
<time>2026-07-11T07:59:09.000Z</time>
|
|
</trkpt>
|
|
<trkpt lat="55.401265" lon="8.637319">
|
|
<ele>2.435863</ele>
|
|
<time>2026-07-11T07:59:10.000Z</time>
|
|
</trkpt>
|
|
<trkpt lat="55.401318" lon="8.637298">
|
|
<ele>2.422661</ele>
|
|
<time>2026-07-11T07:59:11.000Z</time>
|
|
</trkpt>
|
|
<trkpt lat="55.401372" lon="8.637274">
|
|
<ele>2.409126</ele>
|
|
<time>2026-07-11T07:59:12.000Z</time>
|
|
</trkpt>
|
|
<trkpt lat="55.401425" lon="8.637250">
|
|
<ele>2.395827</ele>
|
|
<time>2026-07-11T07:59:13.000Z</time>
|
|
</trkpt>
|
|
<trkpt lat="55.401479" lon="8.637227">
|
|
<ele>2.382325</ele>
|
|
<time>2026-07-11T07:59:14.000Z</time>
|
|
</trkpt>
|
|
<trkpt lat="55.401534" lon="8.637207">
|
|
<ele>2.368677</ele>
|
|
<time>2026-07-11T07:59:15.000Z</time>
|
|
</trkpt>
|
|
<trkpt lat="55.401591" lon="8.637185">
|
|
<ele>2.354496</ele>
|
|
<time>2026-07-11T07:59:16.000Z</time>
|
|
</trkpt>
|
|
<trkpt lat="55.401646" lon="8.637161">
|
|
<ele>2.340725</ele>
|
|
<time>2026-07-11T07:59:17.000Z</time>
|
|
</trkpt>
|
|
<trkpt lat="55.401700" lon="8.637135">
|
|
<ele>2.327120</ele>
|
|
<time>2026-07-11T07:59:18.000Z</time>
|
|
</trkpt>
|
|
<trkpt lat="55.401754" lon="8.637109">
|
|
<ele>2.313515</ele>
|
|
<time>2026-07-11T07:59:19.000Z</time>
|
|
</trkpt>
|
|
<trkpt lat="55.401807" lon="8.637084">
|
|
<ele>2.300181</ele>
|
|
<time>2026-07-11T07:59:20.000Z</time>
|
|
</trkpt>
|
|
<trkpt lat="55.401861" lon="8.637058">
|
|
<ele>2.286576</ele>
|
|
<time>2026-07-11T07:59:21.000Z</time>
|
|
</trkpt>
|
|
<trkpt lat="55.401913" lon="8.637033">
|
|
<ele>2.273476</ele>
|
|
<time>2026-07-11T07:59:22.000Z</time>
|
|
</trkpt>
|
|
<trkpt lat="55.401964" lon="8.637007">
|
|
<ele>2.260573</ele>
|
|
<time>2026-07-11T07:59:23.000Z</time>
|
|
</trkpt>
|
|
<trkpt lat="55.402017" lon="8.636980">
|
|
<ele>2.247165</ele>
|
|
<time>2026-07-11T07:59:24.000Z</time>
|
|
</trkpt>
|
|
<trkpt lat="55.402071" lon="8.636950">
|
|
<ele>2.233404</ele>
|
|
<time>2026-07-11T07:59:25.000Z</time>
|
|
</trkpt>
|
|
<trkpt lat="55.402121" lon="8.636919">
|
|
<ele>2.220522</ele>
|
|
<time>2026-07-11T07:59:26.000Z</time>
|
|
</trkpt>
|
|
<trkpt lat="55.402170" lon="8.636886">
|
|
<ele>2.207773</ele>
|
|
<time>2026-07-11T07:59:27.000Z</time>
|
|
</trkpt>
|
|
<trkpt lat="55.402220" lon="8.636853">
|
|
<ele>2.197371</ele>
|
|
<time>2026-07-11T07:59:28.000Z</time>
|
|
</trkpt>
|
|
<trkpt lat="55.402267" lon="8.636819">
|
|
<ele>2.197258</ele>
|
|
<time>2026-07-11T07:59:29.000Z</time>
|
|
</trkpt>
|
|
<trkpt lat="55.402312" lon="8.636785">
|
|
<ele>2.197149</ele>
|
|
<time>2026-07-11T07:59:30.000Z</time>
|
|
</trkpt>
|
|
<trkpt lat="55.402359" lon="8.636754">
|
|
<ele>2.197037</ele>
|
|
<time>2026-07-11T07:59:31.000Z</time>
|
|
</trkpt>
|
|
<trkpt lat="55.402413" lon="8.636715">
|
|
<ele>2.196907</ele>
|
|
<time>2026-07-11T07:59:32.000Z</time>
|
|
</trkpt>
|
|
<trkpt lat="55.402462" lon="8.636677">
|
|
<ele>2.196788</ele>
|
|
<time>2026-07-11T07:59:33.000Z</time>
|
|
</trkpt>
|
|
<trkpt lat="55.402515" lon="8.636636">
|
|
<ele>2.196658</ele>
|
|
<time>2026-07-11T07:59:34.000Z</time>
|
|
</trkpt>
|
|
<trkpt lat="55.402565" lon="8.636598">
|
|
<ele>2.196537</ele>
|
|
<time>2026-07-11T07:59:35.000Z</time>
|
|
</trkpt>
|
|
<trkpt lat="55.402615" lon="8.636560">
|
|
<ele>2.196416</ele>
|
|
<time>2026-07-11T07:59:36.000Z</time>
|
|
</trkpt>
|
|
<trkpt lat="55.402667" lon="8.636520">
|
|
<ele>2.196289</ele>
|
|
<time>2026-07-11T07:59:37.000Z</time>
|
|
</trkpt>
|
|
<trkpt lat="55.402717" lon="8.636478">
|
|
<ele>2.196166</ele>
|
|
<time>2026-07-11T07:59:38.000Z</time>
|
|
</trkpt>
|
|
<trkpt lat="55.402769" lon="8.636437">
|
|
<ele>2.196039</ele>
|
|
<time>2026-07-11T07:59:39.000Z</time>
|
|
</trkpt>
|
|
<trkpt lat="55.402818" lon="8.636396">
|
|
<ele>2.195918</ele>
|
|
<time>2026-07-11T07:59:40.000Z</time>
|
|
</trkpt>
|
|
<trkpt lat="55.402869" lon="8.636354">
|
|
<ele>2.195792</ele>
|
|
<time>2026-07-11T07:59:41.000Z</time>
|
|
</trkpt>
|
|
<trkpt lat="55.402923" lon="8.636309">
|
|
<ele>2.195659</ele>
|
|
<time>2026-07-11T07:59:42.000Z</time>
|
|
</trkpt>
|
|
<trkpt lat="55.402974" lon="8.636265">
|
|
<ele>2.195532</ele>
|
|
<time>2026-07-11T07:59:43.000Z</time>
|
|
</trkpt>
|
|
<trkpt lat="55.403026" lon="8.636222">
|
|
<ele>2.195404</ele>
|
|
<time>2026-07-11T07:59:44.000Z</time>
|
|
</trkpt>
|
|
<trkpt lat="55.403076" lon="8.636178">
|
|
<ele>2.195280</ele>
|
|
<time>2026-07-11T07:59:45.000Z</time>
|
|
</trkpt>
|
|
<trkpt lat="55.403126" lon="8.636135">
|
|
<ele>2.195156</ele>
|
|
<time>2026-07-11T07:59:46.000Z</time>
|
|
</trkpt>
|
|
<trkpt lat="55.403175" lon="8.636092">
|
|
<ele>2.195034</ele>
|
|
<time>2026-07-11T07:59:47.000Z</time>
|
|
</trkpt>
|
|
<trkpt lat="55.403227" lon="8.636051">
|
|
<ele>2.194906</ele>
|
|
<time>2026-07-11T07:59:48.000Z</time>
|
|
</trkpt>
|
|
<trkpt lat="55.403278" lon="8.636009">
|
|
<ele>2.194781</ele>
|
|
<time>2026-07-11T07:59:49.000Z</time>
|
|
</trkpt>
|
|
<trkpt lat="55.403325" lon="8.635967">
|
|
<ele>2.194663</ele>
|
|
<time>2026-07-11T07:59:50.000Z</time>
|
|
</trkpt>
|
|
<trkpt lat="55.403373" lon="8.635924">
|
|
<ele>2.194543</ele>
|
|
<time>2026-07-11T07:59:51.000Z</time>
|
|
</trkpt>
|
|
<trkpt lat="55.403423" lon="8.635881">
|
|
<ele>2.194419</ele>
|
|
<time>2026-07-11T07:59:52.000Z</time>
|
|
</trkpt>
|
|
<trkpt lat="55.403474" lon="8.635839">
|
|
<ele>2.194294</ele>
|
|
<time>2026-07-11T07:59:53.000Z</time>
|
|
</trkpt>
|
|
<trkpt lat="55.403526" lon="8.635796">
|
|
<ele>2.194166</ele>
|
|
<time>2026-07-11T07:59:54.000Z</time>
|
|
</trkpt>
|
|
<trkpt lat="55.403574" lon="8.635750">
|
|
<ele>2.194044</ele>
|
|
<time>2026-07-11T07:59:55.000Z</time>
|
|
</trkpt>
|
|
<trkpt lat="55.403623" lon="8.635703">
|
|
<ele>2.193919</ele>
|
|
<time>2026-07-11T07:59:56.000Z</time>
|
|
</trkpt>
|
|
<trkpt lat="55.403675" lon="8.635655">
|
|
<ele>2.193789</ele>
|
|
<time>2026-07-11T07:59:57.000Z</time>
|
|
</trkpt>
|
|
<trkpt lat="55.403726" lon="8.635609">
|
|
<ele>2.193661</ele>
|
|
<time>2026-07-11T07:59:58.000Z</time>
|
|
</trkpt>
|
|
<trkpt lat="55.403777" lon="8.635563">
|
|
<ele>2.193533</ele>
|
|
<time>2026-07-11T07:59:59.000Z</time>
|
|
</trkpt>
|
|
<trkpt lat="55.403829" lon="8.635518">
|
|
<ele>2.193404</ele>
|
|
<time>2026-07-11T08:00:00.000Z</time>
|
|
</trkpt>
|
|
<trkpt lat="55.403881" lon="8.635474">
|
|
<ele>2.202531</ele>
|
|
<time>2026-07-11T08:00:01.000Z</time>
|
|
</trkpt>
|
|
<trkpt lat="55.403930" lon="8.635431">
|
|
<ele>2.212701</ele>
|
|
<time>2026-07-11T08:00:02.000Z</time>
|
|
</trkpt>
|
|
<trkpt lat="55.403982" lon="8.635388">
|
|
<ele>2.223371</ele>
|
|
<time>2026-07-11T08:00:03.000Z</time>
|
|
</trkpt>
|
|
<trkpt lat="55.404033" lon="8.635346">
|
|
<ele>2.233829</ele>
|
|
<time>2026-07-11T08:00:04.000Z</time>
|
|
</trkpt>
|
|
<trkpt lat="55.404082" lon="8.635305">
|
|
<ele>2.243906</ele>
|
|
<time>2026-07-11T08:00:05.000Z</time>
|
|
</trkpt>
|
|
<trkpt lat="55.404134" lon="8.635261">
|
|
<ele>2.254622</ele>
|
|
<time>2026-07-11T08:00:06.000Z</time>
|
|
</trkpt>
|
|
<trkpt lat="55.404186" lon="8.635217">
|
|
<ele>2.265338</ele>
|
|
<time>2026-07-11T08:00:07.000Z</time>
|
|
</trkpt>
|
|
<trkpt lat="55.404235" lon="8.635174">
|
|
<ele>2.275507</ele>
|
|
<time>2026-07-11T08:00:08.000Z</time>
|
|
</trkpt>
|
|
<trkpt lat="55.404283" lon="8.635132">
|
|
<ele>2.285463</ele>
|
|
<time>2026-07-11T08:00:09.000Z</time>
|
|
</trkpt>
|
|
<trkpt lat="55.404329" lon="8.635093">
|
|
<ele>2.294946</ele>
|
|
<time>2026-07-11T08:00:10.000Z</time>
|
|
</trkpt>
|
|
<trkpt lat="55.404377" lon="8.635054">
|
|
<ele>2.304765</ele>
|
|
<time>2026-07-11T08:00:11.000Z</time>
|
|
</trkpt>
|
|
<trkpt lat="55.404426" lon="8.635014">
|
|
<ele>2.314797</ele>
|
|
<time>2026-07-11T08:00:12.000Z</time>
|
|
</trkpt>
|
|
<trkpt lat="55.404476" lon="8.634976">
|
|
<ele>2.324912</ele>
|
|
<time>2026-07-11T08:00:13.000Z</time>
|
|
</trkpt>
|
|
<trkpt lat="55.404525" lon="8.634938">
|
|
<ele>2.334857</ele>
|
|
<time>2026-07-11T08:00:14.000Z</time>
|
|
</trkpt>
|
|
<trkpt lat="55.404575" lon="8.634898">
|
|
<ele>2.345058</ele>
|
|
<time>2026-07-11T08:00:15.000Z</time>
|
|
</trkpt>
|
|
<trkpt lat="55.404625" lon="8.634858">
|
|
<ele>2.355259</ele>
|
|
<time>2026-07-11T08:00:16.000Z</time>
|
|
</trkpt>
|
|
<trkpt lat="55.404677" lon="8.634819">
|
|
<ele>2.365757</ele>
|
|
<time>2026-07-11T08:00:17.000Z</time>
|
|
</trkpt>
|
|
<trkpt lat="55.404729" lon="8.634783">
|
|
<ele>2.376136</ele>
|
|
<time>2026-07-11T08:00:18.000Z</time>
|
|
</trkpt>
|
|
<trkpt lat="55.404782" lon="8.634749">
|
|
<ele>2.386613</ele>
|
|
<time>2026-07-11T08:00:19.000Z</time>
|
|
</trkpt>
|
|
<trkpt lat="55.404838" lon="8.634715">
|
|
<ele>2.397616</ele>
|
|
<time>2026-07-11T08:00:20.000Z</time>
|
|
</trkpt>
|
|
<trkpt lat="55.404894" lon="8.634682">
|
|
<ele>2.408585</ele>
|
|
<time>2026-07-11T08:00:21.000Z</time>
|
|
</trkpt>
|
|
<trkpt lat="55.404949" lon="8.634647">
|
|
<ele>2.419448</ele>
|
|
<time>2026-07-11T08:00:22.000Z</time>
|
|
</trkpt>
|
|
<trkpt lat="55.405004" lon="8.634615">
|
|
<ele>2.430207</ele>
|
|
<time>2026-07-11T08:00:23.000Z</time>
|
|
</trkpt>
|
|
<trkpt lat="55.405057" lon="8.634586">
|
|
<ele>2.440516</ele>
|
|
<time>2026-07-11T08:00:24.000Z</time>
|
|
</trkpt>
|
|
<trkpt lat="55.405111" lon="8.634556">
|
|
<ele>2.451034</ele>
|
|
<time>2026-07-11T08:00:25.000Z</time>
|
|
</trkpt>
|
|
<trkpt lat="55.405164" lon="8.634526">
|
|
<ele>2.461375</ele>
|
|
<time>2026-07-11T08:00:26.000Z</time>
|
|
</trkpt>
|
|
<trkpt lat="55.405217" lon="8.634496">
|
|
<ele>2.471715</ele>
|
|
<time>2026-07-11T08:00:27.000Z</time>
|
|
</trkpt>
|
|
<trkpt lat="55.405273" lon="8.634464">
|
|
<ele>2.482651</ele>
|
|
<time>2026-07-11T08:00:28.000Z</time>
|
|
</trkpt>
|
|
<trkpt lat="55.405328" lon="8.634433">
|
|
<ele>2.493378</ele>
|
|
<time>2026-07-11T08:00:29.000Z</time>
|
|
</trkpt>
|
|
<trkpt lat="55.405384" lon="8.634403">
|
|
<ele>2.504251</ele>
|
|
<time>2026-07-11T08:00:30.000Z</time>
|
|
</trkpt>
|
|
<trkpt lat="55.405441" lon="8.634372">
|
|
<ele>2.515332</ele>
|
|
<time>2026-07-11T08:00:31.000Z</time>
|
|
</trkpt>
|
|
<trkpt lat="55.405496" lon="8.634337">
|
|
<ele>2.526195</ele>
|
|
<time>2026-07-11T08:00:32.000Z</time>
|
|
</trkpt>
|
|
<trkpt lat="55.405549" lon="8.634301">
|
|
<ele>2.535510</ele>
|
|
<time>2026-07-11T08:00:33.000Z</time>
|
|
</trkpt>
|
|
<trkpt lat="55.405605" lon="8.634265">
|
|
<ele>2.545104</ele>
|
|
<time>2026-07-11T08:00:34.000Z</time>
|
|
</trkpt>
|
|
<trkpt lat="55.405660" lon="8.634229">
|
|
<ele>2.554548</ele>
|
|
<time>2026-07-11T08:00:35.000Z</time>
|
|
</trkpt>
|
|
<trkpt lat="55.405715" lon="8.634194">
|
|
<ele>2.563960</ele>
|
|
<time>2026-07-11T08:00:36.000Z</time>
|
|
</trkpt>
|
|
<trkpt lat="55.405773" lon="8.634163">
|
|
<ele>2.573715</ele>
|
|
<time>2026-07-11T08:00:37.000Z</time>
|
|
</trkpt>
|
|
<trkpt lat="55.405830" lon="8.634133">
|
|
<ele>2.583290</ele>
|
|
<time>2026-07-11T08:00:38.000Z</time>
|
|
</trkpt>
|
|
<trkpt lat="55.405887" lon="8.634103">
|
|
<ele>2.592865</ele>
|
|
<time>2026-07-11T08:00:39.000Z</time>
|
|
</trkpt>
|
|
<trkpt lat="55.405943" lon="8.634071">
|
|
<ele>2.602340</ele>
|
|
<time>2026-07-11T08:00:40.000Z</time>
|
|
</trkpt>
|
|
<trkpt lat="55.405998" lon="8.634038">
|
|
<ele>2.611692</ele>
|
|
<time>2026-07-11T08:00:41.000Z</time>
|
|
</trkpt>
|
|
<trkpt lat="55.406055" lon="8.634005">
|
|
<ele>2.621348</ele>
|
|
<time>2026-07-11T08:00:42.000Z</time>
|
|
</trkpt>
|
|
<trkpt lat="55.406112" lon="8.633974">
|
|
<ele>2.630950</ele>
|
|
<time>2026-07-11T08:00:43.000Z</time>
|
|
</trkpt>
|
|
<trkpt lat="55.406169" lon="8.633945">
|
|
<ele>2.640499</ele>
|
|
<time>2026-07-11T08:00:44.000Z</time>
|
|
</trkpt>
|
|
<trkpt lat="55.406225" lon="8.633916">
|
|
<ele>2.649893</ele>
|
|
<time>2026-07-11T08:00:45.000Z</time>
|
|
</trkpt>
|
|
<trkpt lat="55.406279" lon="8.633887">
|
|
<ele>2.658979</ele>
|
|
<time>2026-07-11T08:00:46.000Z</time>
|
|
</trkpt>
|
|
<trkpt lat="55.406336" lon="8.633857">
|
|
<ele>2.668554</ele>
|
|
<time>2026-07-11T08:00:47.000Z</time>
|
|
</trkpt>
|
|
<trkpt lat="55.406394" lon="8.633825">
|
|
<ele>2.678336</ele>
|
|
<time>2026-07-11T08:00:48.000Z</time>
|
|
</trkpt>
|
|
<trkpt lat="55.406453" lon="8.633795">
|
|
<ele>2.688220</ele>
|
|
<time>2026-07-11T08:00:49.000Z</time>
|
|
</trkpt>
|
|
<trkpt lat="55.406513" lon="8.633765">
|
|
<ele>2.698258</ele>
|
|
<time>2026-07-11T08:00:50.000Z</time>
|
|
</trkpt>
|
|
<trkpt lat="55.406572" lon="8.633735">
|
|
<ele>2.708142</ele>
|
|
<time>2026-07-11T08:00:51.000Z</time>
|
|
</trkpt>
|
|
<trkpt lat="55.406630" lon="8.633704">
|
|
<ele>2.717897</ele>
|
|
<time>2026-07-11T08:00:52.000Z</time>
|
|
</trkpt>
|
|
<trkpt lat="55.406688" lon="8.633671">
|
|
<ele>2.727707</ele>
|
|
<time>2026-07-11T08:00:53.000Z</time>
|
|
</trkpt>
|
|
<trkpt lat="55.406746" lon="8.633636">
|
|
<ele>2.737574</ele>
|
|
<time>2026-07-11T08:00:54.000Z</time>
|
|
</trkpt>
|
|
<trkpt lat="55.406803" lon="8.633600">
|
|
<ele>2.747320</ele>
|
|
<time>2026-07-11T08:00:55.000Z</time>
|
|
</trkpt>
|
|
<trkpt lat="55.406858" lon="8.633564">
|
|
<ele>2.756764</ele>
|
|
<time>2026-07-11T08:00:56.000Z</time>
|
|
</trkpt>
|
|
<trkpt lat="55.406915" lon="8.633526">
|
|
<ele>2.766573</ele>
|
|
<time>2026-07-11T08:00:57.000Z</time>
|
|
</trkpt>
|
|
<trkpt lat="55.406974" lon="8.633483">
|
|
<ele>2.776849</ele>
|
|
<time>2026-07-11T08:00:58.000Z</time>
|
|
</trkpt>
|
|
<trkpt lat="55.407031" lon="8.633439">
|
|
<ele>2.786866</ele>
|
|
<time>2026-07-11T08:00:59.000Z</time>
|
|
</trkpt>
|
|
<trkpt lat="55.407090" lon="8.633393">
|
|
<ele>2.797250</ele>
|
|
<time>2026-07-11T08:01:00.000Z</time>
|
|
</trkpt>
|
|
<trkpt lat="55.407152" lon="8.633348">
|
|
<ele>2.808043</ele>
|
|
<time>2026-07-11T08:01:01.000Z</time>
|
|
</trkpt>
|
|
<trkpt lat="55.407211" lon="8.633305">
|
|
<ele>2.815237</ele>
|
|
<time>2026-07-11T08:01:02.000Z</time>
|
|
</trkpt>
|
|
<trkpt lat="55.407271" lon="8.633267">
|
|
<ele>2.802041</ele>
|
|
<time>2026-07-11T08:01:03.000Z</time>
|
|
</trkpt>
|
|
<trkpt lat="55.407333" lon="8.633232">
|
|
<ele>2.788567</ele>
|
|
<time>2026-07-11T08:01:04.000Z</time>
|
|
</trkpt>
|
|
<trkpt lat="55.407392" lon="8.633197">
|
|
<ele>2.775683</ele>
|
|
<time>2026-07-11T08:01:05.000Z</time>
|
|
</trkpt>
|
|
<trkpt lat="55.407453" lon="8.633163">
|
|
<ele>2.762442</ele>
|
|
<time>2026-07-11T08:01:06.000Z</time>
|
|
</trkpt>
|
|
<trkpt lat="55.407514" lon="8.633130">
|
|
<ele>2.749236</ele>
|
|
<time>2026-07-11T08:01:07.000Z</time>
|
|
</trkpt>
|
|
<trkpt lat="55.407577" lon="8.633097">
|
|
<ele>2.735634</ele>
|
|
<time>2026-07-11T08:01:08.000Z</time>
|
|
</trkpt>
|
|
<trkpt lat="55.407640" lon="8.633064">
|
|
<ele>2.722031</ele>
|
|
<time>2026-07-11T08:01:09.000Z</time>
|
|
</trkpt>
|
|
<trkpt lat="55.407701" lon="8.633028">
|
|
<ele>2.708717</ele>
|
|
<time>2026-07-11T08:01:10.000Z</time>
|
|
</trkpt>
|
|
<trkpt lat="55.407762" lon="8.632990">
|
|
<ele>2.695327</ele>
|
|
<time>2026-07-11T08:01:11.000Z</time>
|
|
</trkpt>
|
|
<trkpt lat="55.407823" lon="8.632950">
|
|
<ele>2.681856</ele>
|
|
<time>2026-07-11T08:01:12.000Z</time>
|
|
</trkpt>
|
|
<trkpt lat="55.407884" lon="8.632909">
|
|
<ele>2.668344</ele>
|
|
<time>2026-07-11T08:01:13.000Z</time>
|
|
</trkpt>
|
|
<trkpt lat="55.407945" lon="8.632867">
|
|
<ele>2.654790</ele>
|
|
<time>2026-07-11T08:01:14.000Z</time>
|
|
</trkpt>
|
|
<trkpt lat="55.408006" lon="8.632821">
|
|
<ele>2.641057</ele>
|
|
<time>2026-07-11T08:01:15.000Z</time>
|
|
</trkpt>
|
|
<trkpt lat="55.408065" lon="8.632772">
|
|
<ele>2.627558</ele>
|
|
<time>2026-07-11T08:01:16.000Z</time>
|
|
</trkpt>
|
|
<trkpt lat="55.408122" lon="8.632719">
|
|
<ele>2.614219</ele>
|
|
<time>2026-07-11T08:01:17.000Z</time>
|
|
</trkpt>
|
|
<trkpt lat="55.408178" lon="8.632665">
|
|
<ele>2.601006</ele>
|
|
<time>2026-07-11T08:01:18.000Z</time>
|
|
</trkpt>
|
|
<trkpt lat="55.408233" lon="8.632609">
|
|
<ele>2.587859</ele>
|
|
<time>2026-07-11T08:01:19.000Z</time>
|
|
</trkpt>
|
|
<trkpt lat="55.408290" lon="8.632554">
|
|
<ele>2.574409</ele>
|
|
<time>2026-07-11T08:01:20.000Z</time>
|
|
</trkpt>
|
|
<trkpt lat="55.408345" lon="8.632501">
|
|
<ele>2.561434</ele>
|
|
<time>2026-07-11T08:01:21.000Z</time>
|
|
</trkpt>
|
|
<trkpt lat="55.408401" lon="8.632444">
|
|
<ele>2.548049</ele>
|
|
<time>2026-07-11T08:01:22.000Z</time>
|
|
</trkpt>
|
|
<trkpt lat="55.408456" lon="8.632387">
|
|
<ele>2.534842</ele>
|
|
<time>2026-07-11T08:01:23.000Z</time>
|
|
</trkpt>
|
|
<trkpt lat="55.408512" lon="8.632330">
|
|
<ele>2.521457</ele>
|
|
<time>2026-07-11T08:01:24.000Z</time>
|
|
</trkpt>
|
|
<trkpt lat="55.408567" lon="8.632269">
|
|
<ele>2.508006</ele>
|
|
<time>2026-07-11T08:01:25.000Z</time>
|
|
</trkpt>
|
|
<trkpt lat="55.408621" lon="8.632207">
|
|
<ele>2.494666</ele>
|
|
<time>2026-07-11T08:01:26.000Z</time>
|
|
</trkpt>
|
|
<trkpt lat="55.408676" lon="8.632148">
|
|
<ele>2.481339</ele>
|
|
<time>2026-07-11T08:01:27.000Z</time>
|
|
</trkpt>
|
|
<trkpt lat="55.408731" lon="8.632092">
|
|
<ele>2.468192</ele>
|
|
<time>2026-07-11T08:01:28.000Z</time>
|
|
</trkpt>
|
|
<trkpt lat="55.408784" lon="8.632038">
|
|
<ele>2.455521</ele>
|
|
<time>2026-07-11T08:01:29.000Z</time>
|
|
</trkpt>
|
|
<trkpt lat="55.408839" lon="8.631986">
|
|
<ele>2.445562</ele>
|
|
<time>2026-07-11T08:01:30.000Z</time>
|
|
</trkpt>
|
|
<trkpt lat="55.408896" lon="8.631934">
|
|
<ele>2.450709</ele>
|
|
<time>2026-07-11T08:01:31.000Z</time>
|
|
</trkpt>
|
|
<trkpt lat="55.408954" lon="8.631879">
|
|
<ele>2.455991</ele>
|
|
<time>2026-07-11T08:01:32.000Z</time>
|
|
</trkpt>
|
|
<trkpt lat="55.409009" lon="8.631823">
|
|
<ele>2.461084</ele>
|
|
<time>2026-07-11T08:01:33.000Z</time>
|
|
</trkpt>
|
|
<trkpt lat="55.409063" lon="8.631766">
|
|
<ele>2.466132</ele>
|
|
<time>2026-07-11T08:01:34.000Z</time>
|
|
</trkpt>
|
|
<trkpt lat="55.409116" lon="8.631709">
|
|
<ele>2.471111</ele>
|
|
<time>2026-07-11T08:01:35.000Z</time>
|
|
</trkpt>
|
|
<trkpt lat="55.409169" lon="8.631653">
|
|
<ele>2.476067</ele>
|
|
<time>2026-07-11T08:01:36.000Z</time>
|
|
</trkpt>
|
|
<trkpt lat="55.409225" lon="8.631595">
|
|
<ele>2.481276</ele>
|
|
<time>2026-07-11T08:01:37.000Z</time>
|
|
</trkpt>
|
|
<trkpt lat="55.409282" lon="8.631534">
|
|
<ele>2.486624</ele>
|
|
<time>2026-07-11T08:01:38.000Z</time>
|
|
</trkpt>
|
|
<trkpt lat="55.409337" lon="8.631479">
|
|
<ele>2.491695</ele>
|
|
<time>2026-07-11T08:01:39.000Z</time>
|
|
</trkpt>
|
|
<trkpt lat="55.409390" lon="8.631426">
|
|
<ele>2.496582</ele>
|
|
<time>2026-07-11T08:01:40.000Z</time>
|
|
</trkpt>
|
|
<trkpt lat="55.409441" lon="8.631377">
|
|
<ele>2.501240</ele>
|
|
<time>2026-07-11T08:01:41.000Z</time>
|
|
</trkpt>
|
|
<trkpt lat="55.409491" lon="8.631326">
|
|
<ele>2.505873</ele>
|
|
<time>2026-07-11T08:01:42.000Z</time>
|
|
</trkpt>
|
|
<trkpt lat="55.409550" lon="8.631263">
|
|
<ele>2.511405</ele>
|
|
<time>2026-07-11T08:01:43.000Z</time>
|
|
</trkpt>
|
|
<trkpt lat="55.409604" lon="8.631204">
|
|
<ele>2.516500</ele>
|
|
<time>2026-07-11T08:01:44.000Z</time>
|
|
</trkpt>
|
|
<trkpt lat="55.409658" lon="8.631145">
|
|
<ele>2.521595</ele>
|
|
<time>2026-07-11T08:01:45.000Z</time>
|
|
</trkpt>
|
|
<trkpt lat="55.409710" lon="8.631087">
|
|
<ele>2.526530</ele>
|
|
<time>2026-07-11T08:01:46.000Z</time>
|
|
</trkpt>
|
|
<trkpt lat="55.409761" lon="8.631031">
|
|
<ele>2.531349</ele>
|
|
<time>2026-07-11T08:01:47.000Z</time>
|
|
</trkpt>
|
|
<trkpt lat="55.409816" lon="8.630977">
|
|
<ele>2.536398</ele>
|
|
<time>2026-07-11T08:01:48.000Z</time>
|
|
</trkpt>
|
|
<trkpt lat="55.409872" lon="8.630923">
|
|
<ele>2.541517</ele>
|
|
<time>2026-07-11T08:01:49.000Z</time>
|
|
</trkpt>
|
|
<trkpt lat="55.409926" lon="8.630867">
|
|
<ele>2.546541</ele>
|
|
<time>2026-07-11T08:01:50.000Z</time>
|
|
</trkpt>
|
|
<trkpt lat="55.409982" lon="8.630809">
|
|
<ele>2.551750</ele>
|
|
<time>2026-07-11T08:01:51.000Z</time>
|
|
</trkpt>
|
|
<trkpt lat="55.410036" lon="8.630753">
|
|
<ele>2.556775</ele>
|
|
<time>2026-07-11T08:01:52.000Z</time>
|
|
</trkpt>
|
|
<trkpt lat="55.410091" lon="8.630699">
|
|
<ele>2.561824</ele>
|
|
<time>2026-07-11T08:01:53.000Z</time>
|
|
</trkpt>
|
|
<trkpt lat="55.410146" lon="8.630646">
|
|
<ele>2.566850</ele>
|
|
<time>2026-07-11T08:01:54.000Z</time>
|
|
</trkpt>
|
|
<trkpt lat="55.410202" lon="8.630591">
|
|
<ele>2.571991</ele>
|
|
<time>2026-07-11T08:01:55.000Z</time>
|
|
</trkpt>
|
|
<trkpt lat="55.410257" lon="8.630538">
|
|
<ele>2.577018</ele>
|
|
<time>2026-07-11T08:01:56.000Z</time>
|
|
</trkpt>
|
|
<trkpt lat="55.410310" lon="8.630485">
|
|
<ele>2.581905</ele>
|
|
<time>2026-07-11T08:01:57.000Z</time>
|
|
</trkpt>
|
|
<trkpt lat="55.410364" lon="8.630432">
|
|
<ele>2.586862</ele>
|
|
<time>2026-07-11T08:01:58.000Z</time>
|
|
</trkpt>
|
|
<trkpt lat="55.410416" lon="8.630384">
|
|
<ele>2.590003</ele>
|
|
<time>2026-07-11T08:01:59.000Z</time>
|
|
</trkpt>
|
|
<trkpt lat="55.410471" lon="8.630337">
|
|
<ele>2.591968</ele>
|
|
<time>2026-07-11T08:02:00.000Z</time>
|
|
</trkpt>
|
|
<trkpt lat="55.410527" lon="8.630290">
|
|
<ele>2.593961</ele>
|
|
<time>2026-07-11T08:02:01.000Z</time>
|
|
</trkpt>
|
|
<trkpt lat="55.410582" lon="8.630246">
|
|
<ele>2.595903</ele>
|
|
<time>2026-07-11T08:02:02.000Z</time>
|
|
</trkpt>
|
|
<trkpt lat="55.410639" lon="8.630202">
|
|
<ele>2.597903</ele>
|
|
<time>2026-07-11T08:02:03.000Z</time>
|
|
</trkpt>
|
|
<trkpt lat="55.410697" lon="8.630160">
|
|
<ele>2.599918</ele>
|
|
<time>2026-07-11T08:02:04.000Z</time>
|
|
</trkpt>
|
|
<trkpt lat="55.410755" lon="8.630120">
|
|
<ele>2.601920</ele>
|
|
<time>2026-07-11T08:02:05.000Z</time>
|
|
</trkpt>
|
|
<trkpt lat="55.410808" lon="8.630082">
|
|
<ele>2.603759</ele>
|
|
<time>2026-07-11T08:02:06.000Z</time>
|
|
</trkpt>
|
|
<trkpt lat="55.410861" lon="8.630043">
|
|
<ele>2.605605</ele>
|
|
<time>2026-07-11T08:02:07.000Z</time>
|
|
</trkpt>
|
|
<trkpt lat="55.410922" lon="8.630003">
|
|
<ele>2.607697</ele>
|
|
<time>2026-07-11T08:02:08.000Z</time>
|
|
</trkpt>
|
|
<trkpt lat="55.410981" lon="8.629967">
|
|
<ele>2.609703</ele>
|
|
<time>2026-07-11T08:02:09.000Z</time>
|
|
</trkpt>
|
|
<trkpt lat="55.411041" lon="8.629933">
|
|
<ele>2.611729</ele>
|
|
<time>2026-07-11T08:02:10.000Z</time>
|
|
</trkpt>
|
|
<trkpt lat="55.411100" lon="8.629899">
|
|
<ele>2.613724</ele>
|
|
<time>2026-07-11T08:02:11.000Z</time>
|
|
</trkpt>
|
|
<trkpt lat="55.411159" lon="8.629863">
|
|
<ele>2.615731</ele>
|
|
<time>2026-07-11T08:02:12.000Z</time>
|
|
</trkpt>
|
|
<trkpt lat="55.411217" lon="8.629827">
|
|
<ele>2.617707</ele>
|
|
<time>2026-07-11T08:02:13.000Z</time>
|
|
</trkpt>
|
|
<trkpt lat="55.411275" lon="8.629792">
|
|
<ele>2.619677</ele>
|
|
<time>2026-07-11T08:02:14.000Z</time>
|
|
</trkpt>
|
|
<trkpt lat="55.411335" lon="8.629758">
|
|
<ele>2.621703</ele>
|
|
<time>2026-07-11T08:02:15.000Z</time>
|
|
</trkpt>
|
|
<trkpt lat="55.411392" lon="8.629726">
|
|
<ele>2.623626</ele>
|
|
<time>2026-07-11T08:02:16.000Z</time>
|
|
</trkpt>
|
|
<trkpt lat="55.411448" lon="8.629698">
|
|
<ele>2.625496</ele>
|
|
<time>2026-07-11T08:02:17.000Z</time>
|
|
</trkpt>
|
|
<trkpt lat="55.411507" lon="8.629667">
|
|
<ele>2.627475</ele>
|
|
<time>2026-07-11T08:02:18.000Z</time>
|
|
</trkpt>
|
|
<trkpt lat="55.411566" lon="8.629633">
|
|
<ele>2.629470</ele>
|
|
<time>2026-07-11T08:02:19.000Z</time>
|
|
</trkpt>
|
|
<trkpt lat="55.411621" lon="8.629599">
|
|
<ele>2.631343</ele>
|
|
<time>2026-07-11T08:02:20.000Z</time>
|
|
</trkpt>
|
|
<trkpt lat="55.411679" lon="8.629565">
|
|
<ele>2.633308</ele>
|
|
<time>2026-07-11T08:02:21.000Z</time>
|
|
</trkpt>
|
|
<trkpt lat="55.411742" lon="8.629528">
|
|
<ele>2.635442</ele>
|
|
<time>2026-07-11T08:02:22.000Z</time>
|
|
</trkpt>
|
|
<trkpt lat="55.411801" lon="8.629494">
|
|
<ele>2.637437</ele>
|
|
<time>2026-07-11T08:02:23.000Z</time>
|
|
</trkpt>
|
|
<trkpt lat="55.411859" lon="8.629460">
|
|
<ele>2.639402</ele>
|
|
<time>2026-07-11T08:02:24.000Z</time>
|
|
</trkpt>
|
|
<trkpt lat="55.411914" lon="8.629426">
|
|
<ele>2.641275</ele>
|
|
<time>2026-07-11T08:02:25.000Z</time>
|
|
</trkpt>
|
|
<trkpt lat="55.411969" lon="8.629396">
|
|
<ele>2.643125</ele>
|
|
<time>2026-07-11T08:02:26.000Z</time>
|
|
</trkpt>
|
|
<trkpt lat="55.412026" lon="8.629365">
|
|
<ele>2.645042</ele>
|
|
<time>2026-07-11T08:02:27.000Z</time>
|
|
</trkpt>
|
|
<trkpt lat="55.412089" lon="8.629331">
|
|
<ele>2.647283</ele>
|
|
<time>2026-07-11T08:02:28.000Z</time>
|
|
</trkpt>
|
|
<trkpt lat="55.412148" lon="8.629298">
|
|
<ele>2.649888</ele>
|
|
<time>2026-07-11T08:02:29.000Z</time>
|
|
</trkpt>
|
|
<trkpt lat="55.412205" lon="8.629264">
|
|
<ele>2.652419</ele>
|
|
<time>2026-07-11T08:02:30.000Z</time>
|
|
</trkpt>
|
|
<trkpt lat="55.412258" lon="8.629230">
|
|
<ele>2.654792</ele>
|
|
<time>2026-07-11T08:02:31.000Z</time>
|
|
</trkpt>
|
|
<trkpt lat="55.412310" lon="8.629197">
|
|
<ele>2.657117</ele>
|
|
<time>2026-07-11T08:02:32.000Z</time>
|
|
</trkpt>
|
|
<trkpt lat="55.412363" lon="8.629162">
|
|
<ele>2.659499</ele>
|
|
<time>2026-07-11T08:02:33.000Z</time>
|
|
</trkpt>
|
|
<trkpt lat="55.412424" lon="8.629124">
|
|
<ele>2.662221</ele>
|
|
<time>2026-07-11T08:02:34.000Z</time>
|
|
</trkpt>
|
|
<trkpt lat="55.412489" lon="8.629088">
|
|
<ele>2.665087</ele>
|
|
<time>2026-07-11T08:02:35.000Z</time>
|
|
</trkpt>
|
|
<trkpt lat="55.412546" lon="8.629056">
|
|
<ele>2.667604</ele>
|
|
<time>2026-07-11T08:02:36.000Z</time>
|
|
</trkpt>
|
|
<trkpt lat="55.412606" lon="8.629023">
|
|
<ele>2.670248</ele>
|
|
<time>2026-07-11T08:02:37.000Z</time>
|
|
</trkpt>
|
|
<trkpt lat="55.412667" lon="8.628989">
|
|
<ele>2.672940</ele>
|
|
<time>2026-07-11T08:02:38.000Z</time>
|
|
</trkpt>
|
|
<trkpt lat="55.412728" lon="8.628954">
|
|
<ele>2.675639</ele>
|
|
<time>2026-07-11T08:02:39.000Z</time>
|
|
</trkpt>
|
|
<trkpt lat="55.412787" lon="8.628917">
|
|
<ele>2.678273</ele>
|
|
<time>2026-07-11T08:02:40.000Z</time>
|
|
</trkpt>
|
|
<trkpt lat="55.412847" lon="8.628881">
|
|
<ele>2.680940</ele>
|
|
<time>2026-07-11T08:02:41.000Z</time>
|
|
</trkpt>
|
|
<trkpt lat="55.412906" lon="8.628846">
|
|
<ele>2.683559</ele>
|
|
<time>2026-07-11T08:02:42.000Z</time>
|
|
</trkpt>
|
|
<trkpt lat="55.412965" lon="8.628814">
|
|
<ele>2.686156</ele>
|
|
<time>2026-07-11T08:02:43.000Z</time>
|
|
</trkpt>
|
|
<trkpt lat="55.413024" lon="8.628782">
|
|
<ele>2.688753</ele>
|
|
<time>2026-07-11T08:02:44.000Z</time>
|
|
</trkpt>
|
|
<trkpt lat="55.413080" lon="8.628750">
|
|
<ele>2.691230</ele>
|
|
<time>2026-07-11T08:02:45.000Z</time>
|
|
</trkpt>
|
|
<trkpt lat="55.413137" lon="8.628715">
|
|
<ele>2.693769</ele>
|
|
<time>2026-07-11T08:02:46.000Z</time>
|
|
</trkpt>
|
|
<trkpt lat="55.413197" lon="8.628680">
|
|
<ele>2.696428</ele>
|
|
<time>2026-07-11T08:02:47.000Z</time>
|
|
</trkpt>
|
|
<trkpt lat="55.413257" lon="8.628646">
|
|
<ele>2.699079</ele>
|
|
<time>2026-07-11T08:02:48.000Z</time>
|
|
</trkpt>
|
|
<trkpt lat="55.413316" lon="8.628612">
|
|
<ele>2.701691</ele>
|
|
<time>2026-07-11T08:02:49.000Z</time>
|
|
</trkpt>
|
|
<trkpt lat="55.413377" lon="8.628578">
|
|
<ele>2.704382</ele>
|
|
<time>2026-07-11T08:02:50.000Z</time>
|
|
</trkpt>
|
|
<trkpt lat="55.413436" lon="8.628544">
|
|
<ele>2.706994</ele>
|
|
<time>2026-07-11T08:02:51.000Z</time>
|
|
</trkpt>
|
|
<trkpt lat="55.413495" lon="8.628510">
|
|
<ele>2.709605</ele>
|
|
<time>2026-07-11T08:02:52.000Z</time>
|
|
</trkpt>
|
|
<trkpt lat="55.413554" lon="8.628477">
|
|
<ele>2.712210</ele>
|
|
<time>2026-07-11T08:02:53.000Z</time>
|
|
</trkpt>
|
|
<trkpt lat="55.413612" lon="8.628447">
|
|
<ele>2.714753</ele>
|
|
<time>2026-07-11T08:02:54.000Z</time>
|
|
</trkpt>
|
|
<trkpt lat="55.413672" lon="8.628419">
|
|
<ele>2.717364</ele>
|
|
<time>2026-07-11T08:02:55.000Z</time>
|
|
</trkpt>
|
|
<trkpt lat="55.413732" lon="8.628389">
|
|
<ele>2.719988</ele>
|
|
<time>2026-07-11T08:02:56.000Z</time>
|
|
</trkpt>
|
|
<trkpt lat="55.413790" lon="8.628360">
|
|
<ele>2.722837</ele>
|
|
<time>2026-07-11T08:02:57.000Z</time>
|
|
</trkpt>
|
|
<trkpt lat="55.413846" lon="8.628333">
|
|
<ele>2.733203</ele>
|
|
<time>2026-07-11T08:02:58.000Z</time>
|
|
</trkpt>
|
|
<trkpt lat="55.413906" lon="8.628305">
|
|
<ele>2.744285</ele>
|
|
<time>2026-07-11T08:02:59.000Z</time>
|
|
</trkpt>
|
|
<trkpt lat="55.413961" lon="8.628279">
|
|
<ele>2.754452</ele>
|
|
<time>2026-07-11T08:03:00.000Z</time>
|
|
</trkpt>
|
|
<trkpt lat="55.414013" lon="8.628257">
|
|
<ele>2.764000</ele>
|
|
<time>2026-07-11T08:03:01.000Z</time>
|
|
</trkpt>
|
|
<trkpt lat="55.414059" lon="8.628250">
|
|
<ele>2.772244</ele>
|
|
<time>2026-07-11T08:03:02.000Z</time>
|
|
</trkpt>
|
|
<trkpt lat="55.414094" lon="8.628258">
|
|
<ele>2.778545</ele>
|
|
<time>2026-07-11T08:03:03.000Z</time>
|
|
</trkpt>
|
|
<trkpt lat="55.414121" lon="8.628263">
|
|
<ele>2.783393</ele>
|
|
<time>2026-07-11T08:03:04.000Z</time>
|
|
</trkpt>
|
|
<trkpt lat="55.414144" lon="8.628252">
|
|
<ele>2.787648</ele>
|
|
<time>2026-07-11T08:03:05.000Z</time>
|
|
</trkpt>
|
|
<trkpt lat="55.414166" lon="8.628235">
|
|
<ele>2.791937</ele>
|
|
<time>2026-07-11T08:03:06.000Z</time>
|
|
</trkpt>
|
|
<trkpt lat="55.414193" lon="8.628215">
|
|
<ele>2.797166</ele>
|
|
<time>2026-07-11T08:03:07.000Z</time>
|
|
</trkpt>
|
|
<trkpt lat="55.414221" lon="8.628192">
|
|
<ele>2.802682</ele>
|
|
<time>2026-07-11T08:03:08.000Z</time>
|
|
</trkpt>
|
|
<trkpt lat="55.414251" lon="8.628168">
|
|
<ele>2.808565</ele>
|
|
<time>2026-07-11T08:03:09.000Z</time>
|
|
</trkpt>
|
|
<trkpt lat="55.414283" lon="8.628140">
|
|
<ele>2.814944</ele>
|
|
<time>2026-07-11T08:03:10.000Z</time>
|
|
</trkpt>
|
|
<trkpt lat="55.414317" lon="8.628107">
|
|
<ele>2.821875</ele>
|
|
<time>2026-07-11T08:03:11.000Z</time>
|
|
</trkpt>
|
|
<trkpt lat="55.414350" lon="8.628072">
|
|
<ele>2.828752</ele>
|
|
<time>2026-07-11T08:03:12.000Z</time>
|
|
</trkpt>
|
|
<trkpt lat="55.414380" lon="8.628034">
|
|
<ele>2.835349</ele>
|
|
<time>2026-07-11T08:03:13.000Z</time>
|
|
</trkpt>
|
|
<trkpt lat="55.414413" lon="8.627994">
|
|
<ele>2.842501</ele>
|
|
<time>2026-07-11T08:03:14.000Z</time>
|
|
</trkpt>
|
|
<trkpt lat="55.414448" lon="8.627961">
|
|
<ele>2.849589</ele>
|
|
<time>2026-07-11T08:03:15.000Z</time>
|
|
</trkpt>
|
|
<trkpt lat="55.414484" lon="8.627938">
|
|
<ele>2.856426</ele>
|
|
<time>2026-07-11T08:03:16.000Z</time>
|
|
</trkpt>
|
|
<trkpt lat="55.414517" lon="8.627928">
|
|
<ele>2.862404</ele>
|
|
<time>2026-07-11T08:03:17.000Z</time>
|
|
</trkpt>
|
|
<trkpt lat="55.414542" lon="8.627924">
|
|
<ele>2.866886</ele>
|
|
<time>2026-07-11T08:03:18.000Z</time>
|
|
</trkpt>
|
|
<trkpt lat="55.414561" lon="8.627915">
|
|
<ele>2.870399</ele>
|
|
<time>2026-07-11T08:03:19.000Z</time>
|
|
</trkpt>
|
|
<trkpt lat="55.414580" lon="8.627900">
|
|
<ele>2.874117</ele>
|
|
<time>2026-07-11T08:03:20.000Z</time>
|
|
</trkpt>
|
|
<trkpt lat="55.414602" lon="8.627879">
|
|
<ele>2.878584</ele>
|
|
<time>2026-07-11T08:03:21.000Z</time>
|
|
</trkpt>
|
|
<trkpt lat="55.414626" lon="8.627850">
|
|
<ele>2.883780</ele>
|
|
<time>2026-07-11T08:03:22.000Z</time>
|
|
</trkpt>
|
|
<trkpt lat="55.414658" lon="8.627822">
|
|
<ele>2.890159</ele>
|
|
<time>2026-07-11T08:03:23.000Z</time>
|
|
</trkpt>
|
|
<trkpt lat="55.414691" lon="8.627801">
|
|
<ele>2.896424</ele>
|
|
<time>2026-07-11T08:03:24.000Z</time>
|
|
</trkpt>
|
|
<trkpt lat="55.414728" lon="8.627783">
|
|
<ele>2.903277</ele>
|
|
<time>2026-07-11T08:03:25.000Z</time>
|
|
</trkpt>
|
|
<trkpt lat="55.414770" lon="8.627765">
|
|
<ele>2.910995</ele>
|
|
<time>2026-07-11T08:03:26.000Z</time>
|
|
</trkpt>
|
|
<trkpt lat="55.414813" lon="8.627746">
|
|
<ele>2.918910</ele>
|
|
<time>2026-07-11T08:03:27.000Z</time>
|
|
</trkpt>
|
|
<trkpt lat="55.414857" lon="8.627724">
|
|
<ele>2.927076</ele>
|
|
<time>2026-07-11T08:03:28.000Z</time>
|
|
</trkpt>
|
|
<trkpt lat="55.414907" lon="8.627699">
|
|
<ele>2.936356</ele>
|
|
<time>2026-07-11T08:03:29.000Z</time>
|
|
</trkpt>
|
|
<trkpt lat="55.414954" lon="8.627675">
|
|
<ele>2.945093</ele>
|
|
<time>2026-07-11T08:03:30.000Z</time>
|
|
</trkpt>
|
|
<trkpt lat="55.415004" lon="8.627653">
|
|
<ele>2.954294</ele>
|
|
<time>2026-07-11T08:03:31.000Z</time>
|
|
</trkpt>
|
|
<trkpt lat="55.415051" lon="8.627631">
|
|
<ele>2.962977</ele>
|
|
<time>2026-07-11T08:03:32.000Z</time>
|
|
</trkpt>
|
|
<trkpt lat="55.415098" lon="8.627609">
|
|
<ele>2.971659</ele>
|
|
<time>2026-07-11T08:03:33.000Z</time>
|
|
</trkpt>
|
|
<trkpt lat="55.415147" lon="8.627585">
|
|
<ele>2.980740</ele>
|
|
<time>2026-07-11T08:03:34.000Z</time>
|
|
</trkpt>
|
|
<trkpt lat="55.415193" lon="8.627564">
|
|
<ele>2.989224</ele>
|
|
<time>2026-07-11T08:03:35.000Z</time>
|
|
</trkpt>
|
|
<trkpt lat="55.415242" lon="8.627541">
|
|
<ele>2.998278</ele>
|
|
<time>2026-07-11T08:03:36.000Z</time>
|
|
</trkpt>
|
|
<trkpt lat="55.415291" lon="8.627518">
|
|
<ele>3.007331</ele>
|
|
<time>2026-07-11T08:03:37.000Z</time>
|
|
</trkpt>
|
|
<trkpt lat="55.415340" lon="8.627493">
|
|
<ele>3.016440</ele>
|
|
<time>2026-07-11T08:03:38.000Z</time>
|
|
</trkpt>
|
|
<trkpt lat="55.415393" lon="8.627470">
|
|
<ele>3.026185</ele>
|
|
<time>2026-07-11T08:03:39.000Z</time>
|
|
</trkpt>
|
|
<trkpt lat="55.415444" lon="8.627446">
|
|
<ele>3.035610</ele>
|
|
<time>2026-07-11T08:03:40.000Z</time>
|
|
</trkpt>
|
|
<trkpt lat="55.415498" lon="8.627421">
|
|
<ele>3.041508</ele>
|
|
<time>2026-07-11T08:03:41.000Z</time>
|
|
</trkpt>
|
|
<trkpt lat="55.415551" lon="8.627396">
|
|
<ele>3.031529</ele>
|
|
<time>2026-07-11T08:03:42.000Z</time>
|
|
</trkpt>
|
|
<trkpt lat="55.415605" lon="8.627371">
|
|
<ele>3.021374</ele>
|
|
<time>2026-07-11T08:03:43.000Z</time>
|
|
</trkpt>
|
|
<trkpt lat="55.415661" lon="8.627346">
|
|
<ele>3.010867</ele>
|
|
<time>2026-07-11T08:03:44.000Z</time>
|
|
</trkpt>
|
|
<trkpt lat="55.415715" lon="8.627321">
|
|
<ele>3.000712</ele>
|
|
<time>2026-07-11T08:03:45.000Z</time>
|
|
</trkpt>
|
|
<trkpt lat="55.415768" lon="8.627296">
|
|
<ele>2.990733</ele>
|
|
<time>2026-07-11T08:03:46.000Z</time>
|
|
</trkpt>
|
|
<trkpt lat="55.415823" lon="8.627271">
|
|
<ele>2.980402</ele>
|
|
<time>2026-07-11T08:03:47.000Z</time>
|
|
</trkpt>
|
|
<trkpt lat="55.415880" lon="8.627245">
|
|
<ele>2.969694</ele>
|
|
<time>2026-07-11T08:03:48.000Z</time>
|
|
</trkpt>
|
|
<trkpt lat="55.415935" lon="8.627221">
|
|
<ele>2.959388</ele>
|
|
<time>2026-07-11T08:03:49.000Z</time>
|
|
</trkpt>
|
|
<trkpt lat="55.415991" lon="8.627194">
|
|
<ele>2.948828</ele>
|
|
<time>2026-07-11T08:03:50.000Z</time>
|
|
</trkpt>
|
|
<trkpt lat="55.416046" lon="8.627166">
|
|
<ele>2.938416</ele>
|
|
<time>2026-07-11T08:03:51.000Z</time>
|
|
</trkpt>
|
|
<trkpt lat="55.416102" lon="8.627139">
|
|
<ele>2.927856</ele>
|
|
<time>2026-07-11T08:03:52.000Z</time>
|
|
</trkpt>
|
|
<trkpt lat="55.416158" lon="8.627114">
|
|
<ele>2.917349</ele>
|
|
<time>2026-07-11T08:03:53.000Z</time>
|
|
</trkpt>
|
|
<trkpt lat="55.416213" lon="8.627087">
|
|
<ele>2.906965</ele>
|
|
<time>2026-07-11T08:03:54.000Z</time>
|
|
</trkpt>
|
|
<trkpt lat="55.416270" lon="8.627060">
|
|
<ele>2.896230</ele>
|
|
<time>2026-07-11T08:03:55.000Z</time>
|
|
</trkpt>
|
|
<trkpt lat="55.416325" lon="8.627033">
|
|
<ele>2.885846</ele>
|
|
<time>2026-07-11T08:03:56.000Z</time>
|
|
</trkpt>
|
|
<trkpt lat="55.416380" lon="8.627006">
|
|
<ele>2.875461</ele>
|
|
<time>2026-07-11T08:03:57.000Z</time>
|
|
</trkpt>
|
|
<trkpt lat="55.416436" lon="8.626980">
|
|
<ele>2.864928</ele>
|
|
<time>2026-07-11T08:03:58.000Z</time>
|
|
</trkpt>
|
|
<trkpt lat="55.416491" lon="8.626955">
|
|
<ele>2.854598</ele>
|
|
<time>2026-07-11T08:03:59.000Z</time>
|
|
</trkpt>
|
|
<trkpt lat="55.416548" lon="8.626932">
|
|
<ele>2.843962</ele>
|
|
<time>2026-07-11T08:04:00.000Z</time>
|
|
</trkpt>
|
|
<trkpt lat="55.416602" lon="8.626910">
|
|
<ele>2.833882</ele>
|
|
<time>2026-07-11T08:04:01.000Z</time>
|
|
</trkpt>
|
|
<trkpt lat="55.416657" lon="8.626885">
|
|
<ele>2.823551</ele>
|
|
<time>2026-07-11T08:04:02.000Z</time>
|
|
</trkpt>
|
|
<trkpt lat="55.416716" lon="8.626858">
|
|
<ele>2.812464</ele>
|
|
<time>2026-07-11T08:04:03.000Z</time>
|
|
</trkpt>
|
|
<trkpt lat="55.416771" lon="8.626830">
|
|
<ele>2.802052</ele>
|
|
<time>2026-07-11T08:04:04.000Z</time>
|
|
</trkpt>
|
|
<trkpt lat="55.416825" lon="8.626803">
|
|
<ele>2.791842</ele>
|
|
<time>2026-07-11T08:04:05.000Z</time>
|
|
</trkpt>
|
|
<trkpt lat="55.416879" lon="8.626777">
|
|
<ele>2.781661</ele>
|
|
<time>2026-07-11T08:04:06.000Z</time>
|
|
</trkpt>
|
|
<trkpt lat="55.416935" lon="8.626750">
|
|
<ele>2.771101</ele>
|
|
<time>2026-07-11T08:04:07.000Z</time>
|
|
</trkpt>
|
|
<trkpt lat="55.416990" lon="8.626721">
|
|
<ele>2.760660</ele>
|
|
<time>2026-07-11T08:04:08.000Z</time>
|
|
</trkpt>
|
|
<trkpt lat="55.417048" lon="8.626694">
|
|
<ele>2.749749</ele>
|
|
<time>2026-07-11T08:04:09.000Z</time>
|
|
</trkpt>
|
|
<trkpt lat="55.417103" lon="8.626669">
|
|
<ele>2.739418</ele>
|
|
<time>2026-07-11T08:04:10.000Z</time>
|
|
</trkpt>
|
|
<trkpt lat="55.417158" lon="8.626643">
|
|
<ele>2.729061</ele>
|
|
<time>2026-07-11T08:04:11.000Z</time>
|
|
</trkpt>
|
|
<trkpt lat="55.417215" lon="8.626618">
|
|
<ele>2.718378</ele>
|
|
<time>2026-07-11T08:04:12.000Z</time>
|
|
</trkpt>
|
|
<trkpt lat="55.417272" lon="8.626594">
|
|
<ele>2.743103</ele>
|
|
<time>2026-07-11T08:04:13.000Z</time>
|
|
</trkpt>
|
|
<trkpt lat="55.417325" lon="8.626568">
|
|
<ele>2.773738</ele>
|
|
<time>2026-07-11T08:04:14.000Z</time>
|
|
</trkpt>
|
|
<trkpt lat="55.417377" lon="8.626543">
|
|
<ele>2.803751</ele>
|
|
<time>2026-07-11T08:04:15.000Z</time>
|
|
</trkpt>
|
|
<trkpt lat="55.417444" lon="8.626513">
|
|
<ele>2.842245</ele>
|
|
<time>2026-07-11T08:04:16.000Z</time>
|
|
</trkpt>
|
|
<trkpt lat="55.417500" lon="8.626488">
|
|
<ele>2.874412</ele>
|
|
<time>2026-07-11T08:04:17.000Z</time>
|
|
</trkpt>
|
|
<trkpt lat="55.417555" lon="8.626466">
|
|
<ele>2.905817</ele>
|
|
<time>2026-07-11T08:04:18.000Z</time>
|
|
</trkpt>
|
|
<trkpt lat="55.417611" lon="8.626444">
|
|
<ele>2.937765</ele>
|
|
<time>2026-07-11T08:04:19.000Z</time>
|
|
</trkpt>
|
|
<trkpt lat="55.417665" lon="8.626422">
|
|
<ele>2.968627</ele>
|
|
<time>2026-07-11T08:04:20.000Z</time>
|
|
</trkpt>
|
|
<trkpt lat="55.417721" lon="8.626401">
|
|
<ele>3.000508</ele>
|
|
<time>2026-07-11T08:04:21.000Z</time>
|
|
</trkpt>
|
|
<trkpt lat="55.417776" lon="8.626379">
|
|
<ele>3.031913</ele>
|
|
<time>2026-07-11T08:04:22.000Z</time>
|
|
</trkpt>
|
|
<trkpt lat="55.417831" lon="8.626358">
|
|
<ele>3.063249</ele>
|
|
<time>2026-07-11T08:04:23.000Z</time>
|
|
</trkpt>
|
|
<trkpt lat="55.417884" lon="8.626338">
|
|
<ele>3.093431</ele>
|
|
<time>2026-07-11T08:04:24.000Z</time>
|
|
</trkpt>
|
|
<trkpt lat="55.417939" lon="8.626318">
|
|
<ele>3.124701</ele>
|
|
<time>2026-07-11T08:04:25.000Z</time>
|
|
</trkpt>
|
|
<trkpt lat="55.417996" lon="8.626299">
|
|
<ele>3.157004</ele>
|
|
<time>2026-07-11T08:04:26.000Z</time>
|
|
</trkpt>
|
|
<trkpt lat="55.418050" lon="8.626281">
|
|
<ele>3.187606</ele>
|
|
<time>2026-07-11T08:04:27.000Z</time>
|
|
</trkpt>
|
|
<trkpt lat="55.418107" lon="8.626259">
|
|
<ele>3.220097</ele>
|
|
<time>2026-07-11T08:04:28.000Z</time>
|
|
</trkpt>
|
|
<trkpt lat="55.418166" lon="8.626238">
|
|
<ele>3.253614</ele>
|
|
<time>2026-07-11T08:04:29.000Z</time>
|
|
</trkpt>
|
|
<trkpt lat="55.418222" lon="8.626221">
|
|
<ele>3.285256</ele>
|
|
<time>2026-07-11T08:04:30.000Z</time>
|
|
</trkpt>
|
|
<trkpt lat="55.418279" lon="8.626205">
|
|
<ele>3.317395</ele>
|
|
<time>2026-07-11T08:04:31.000Z</time>
|
|
</trkpt>
|
|
<trkpt lat="55.418338" lon="8.626186">
|
|
<ele>3.350792</ele>
|
|
<time>2026-07-11T08:04:32.000Z</time>
|
|
</trkpt>
|
|
<trkpt lat="55.418397" lon="8.626166">
|
|
<ele>3.384247</ele>
|
|
<time>2026-07-11T08:04:33.000Z</time>
|
|
</trkpt>
|
|
<trkpt lat="55.418455" lon="8.626146">
|
|
<ele>3.417156</ele>
|
|
<time>2026-07-11T08:04:34.000Z</time>
|
|
</trkpt>
|
|
<trkpt lat="55.418512" lon="8.626124">
|
|
<ele>3.449648</ele>
|
|
<time>2026-07-11T08:04:35.000Z</time>
|
|
</trkpt>
|
|
<trkpt lat="55.418571" lon="8.626105">
|
|
<ele>3.483045</ele>
|
|
<time>2026-07-11T08:04:36.000Z</time>
|
|
</trkpt>
|
|
<trkpt lat="55.418630" lon="8.626090">
|
|
<ele>3.516238</ele>
|
|
<time>2026-07-11T08:04:37.000Z</time>
|
|
</trkpt>
|
|
<trkpt lat="55.418687" lon="8.626080">
|
|
<ele>3.548134</ele>
|
|
<time>2026-07-11T08:04:38.000Z</time>
|
|
</trkpt>
|
|
<trkpt lat="55.418746" lon="8.626072">
|
|
<ele>3.581084</ele>
|
|
<time>2026-07-11T08:04:39.000Z</time>
|
|
</trkpt>
|
|
<trkpt lat="55.418807" lon="8.626064">
|
|
<ele>3.615144</ele>
|
|
<time>2026-07-11T08:04:40.000Z</time>
|
|
</trkpt>
|
|
<trkpt lat="55.418861" lon="8.626056">
|
|
<ele>3.645319</ele>
|
|
<time>2026-07-11T08:04:41.000Z</time>
|
|
</trkpt>
|
|
<trkpt lat="55.418918" lon="8.626047">
|
|
<ele>3.677185</ele>
|
|
<time>2026-07-11T08:04:42.000Z</time>
|
|
</trkpt>
|
|
<trkpt lat="55.418982" lon="8.626035">
|
|
<ele>3.713023</ele>
|
|
<time>2026-07-11T08:04:43.000Z</time>
|
|
</trkpt>
|
|
<trkpt lat="55.419037" lon="8.626024">
|
|
<ele>3.675187</ele>
|
|
<time>2026-07-11T08:04:44.000Z</time>
|
|
</trkpt>
|
|
<trkpt lat="55.419086" lon="8.626014">
|
|
<ele>3.629793</ele>
|
|
<time>2026-07-11T08:04:45.000Z</time>
|
|
</trkpt>
|
|
<trkpt lat="55.419126" lon="8.626002">
|
|
<ele>3.592454</ele>
|
|
<time>2026-07-11T08:04:46.000Z</time>
|
|
</trkpt>
|
|
<trkpt lat="55.419161" lon="8.625988">
|
|
<ele>3.559425</ele>
|
|
<time>2026-07-11T08:04:47.000Z</time>
|
|
</trkpt>
|
|
<trkpt lat="55.419190" lon="8.625977">
|
|
<ele>3.532127</ele>
|
|
<time>2026-07-11T08:04:48.000Z</time>
|
|
</trkpt>
|
|
<trkpt lat="55.419215" lon="8.625971">
|
|
<ele>3.508908</ele>
|
|
<time>2026-07-11T08:04:49.000Z</time>
|
|
</trkpt>
|
|
<trkpt lat="55.419236" lon="8.625970">
|
|
<ele>3.489576</ele>
|
|
<time>2026-07-11T08:04:50.000Z</time>
|
|
</trkpt>
|
|
<trkpt lat="55.419254" lon="8.625967">
|
|
<ele>3.472937</ele>
|
|
<time>2026-07-11T08:04:51.000Z</time>
|
|
</trkpt>
|
|
<trkpt lat="55.419270" lon="8.625960">
|
|
<ele>3.457766</ele>
|
|
<time>2026-07-11T08:04:52.000Z</time>
|
|
</trkpt>
|
|
<trkpt lat="55.419286" lon="8.625953">
|
|
<ele>3.442595</ele>
|
|
<time>2026-07-11T08:04:53.000Z</time>
|
|
</trkpt>
|
|
<trkpt lat="55.419296" lon="8.625946">
|
|
<ele>3.432693</ele>
|
|
<time>2026-07-11T08:04:54.000Z</time>
|
|
</trkpt>
|
|
<trkpt lat="55.419307" lon="8.625946">
|
|
<ele>3.422570</ele>
|
|
<time>2026-07-11T08:05:06.000Z</time>
|
|
</trkpt>
|
|
<trkpt lat="55.419333" lon="8.625948">
|
|
<ele>3.398621</ele>
|
|
<time>2026-07-11T08:05:07.000Z</time>
|
|
</trkpt>
|
|
<trkpt lat="55.419362" lon="8.625949">
|
|
<ele>3.371929</ele>
|
|
<time>2026-07-11T08:05:08.000Z</time>
|
|
</trkpt>
|
|
<trkpt lat="55.419390" lon="8.625945">
|
|
<ele>3.346077</ele>
|
|
<time>2026-07-11T08:05:09.000Z</time>
|
|
</trkpt>
|
|
<trkpt lat="55.419424" lon="8.625935">
|
|
<ele>3.314356</ele>
|
|
<time>2026-07-11T08:05:10.000Z</time>
|
|
</trkpt>
|
|
<trkpt lat="55.419458" lon="8.625924">
|
|
<ele>3.282544</ele>
|
|
<time>2026-07-11T08:05:11.000Z</time>
|
|
</trkpt>
|
|
<trkpt lat="55.419488" lon="8.625914">
|
|
<ele>3.254447</ele>
|
|
<time>2026-07-11T08:05:12.000Z</time>
|
|
</trkpt>
|
|
<trkpt lat="55.419520" lon="8.625902">
|
|
<ele>3.224340</ele>
|
|
<time>2026-07-11T08:05:13.000Z</time>
|
|
</trkpt>
|
|
<trkpt lat="55.419556" lon="8.625891">
|
|
<ele>3.190716</ele>
|
|
<time>2026-07-11T08:05:14.000Z</time>
|
|
</trkpt>
|
|
<trkpt lat="55.419595" lon="8.625880">
|
|
<ele>3.154370</ele>
|
|
<time>2026-07-11T08:05:15.000Z</time>
|
|
</trkpt>
|
|
<trkpt lat="55.419633" lon="8.625868">
|
|
<ele>3.118843</ele>
|
|
<time>2026-07-11T08:05:16.000Z</time>
|
|
</trkpt>
|
|
<trkpt lat="55.419672" lon="8.625854">
|
|
<ele>3.082216</ele>
|
|
<time>2026-07-11T08:05:17.000Z</time>
|
|
</trkpt>
|
|
<trkpt lat="55.419708" lon="8.625841">
|
|
<ele>3.048399</ele>
|
|
<time>2026-07-11T08:05:18.000Z</time>
|
|
</trkpt>
|
|
<trkpt lat="55.419742" lon="8.625828">
|
|
<ele>3.016382</ele>
|
|
<time>2026-07-11T08:05:19.000Z</time>
|
|
</trkpt>
|
|
<trkpt lat="55.419776" lon="8.625815">
|
|
<ele>2.984365</ele>
|
|
<time>2026-07-11T08:05:20.000Z</time>
|
|
</trkpt>
|
|
<trkpt lat="55.419806" lon="8.625803">
|
|
<ele>2.956055</ele>
|
|
<time>2026-07-11T08:05:21.000Z</time>
|
|
</trkpt>
|
|
<trkpt lat="55.419830" lon="8.625789">
|
|
<ele>2.932790</ele>
|
|
<time>2026-07-11T08:05:22.000Z</time>
|
|
</trkpt>
|
|
<trkpt lat="55.419857" lon="8.625769">
|
|
<ele>2.905837</ele>
|
|
<time>2026-07-11T08:05:23.000Z</time>
|
|
</trkpt>
|
|
<trkpt lat="55.419877" lon="8.625749">
|
|
<ele>2.884674</ele>
|
|
<time>2026-07-11T08:05:24.000Z</time>
|
|
</trkpt>
|
|
<trkpt lat="55.419896" lon="8.625736">
|
|
<ele>2.865918</ele>
|
|
<time>2026-07-11T08:05:25.000Z</time>
|
|
</trkpt>
|
|
<trkpt lat="55.419913" lon="8.625730">
|
|
<ele>2.849963</ele>
|
|
<time>2026-07-11T08:05:26.000Z</time>
|
|
</trkpt>
|
|
<trkpt lat="55.419931" lon="8.625733">
|
|
<ele>2.833324</ele>
|
|
<time>2026-07-11T08:05:27.000Z</time>
|
|
</trkpt>
|
|
<trkpt lat="55.419956" lon="8.625742">
|
|
<ele>2.809843</ele>
|
|
<time>2026-07-11T08:05:28.000Z</time>
|
|
</trkpt>
|
|
<trkpt lat="55.419984" lon="8.625747">
|
|
<ele>2.783944</ele>
|
|
<time>2026-07-11T08:05:29.000Z</time>
|
|
</trkpt>
|
|
<trkpt lat="55.420016" lon="8.625747">
|
|
<ele>2.754496</ele>
|
|
<time>2026-07-11T08:05:30.000Z</time>
|
|
</trkpt>
|
|
<trkpt lat="55.420049" lon="8.625743">
|
|
<ele>2.724056</ele>
|
|
<time>2026-07-11T08:05:31.000Z</time>
|
|
</trkpt>
|
|
<trkpt lat="55.420085" lon="8.625737">
|
|
<ele>2.690779</ele>
|
|
<time>2026-07-11T08:05:32.000Z</time>
|
|
</trkpt>
|
|
<trkpt lat="55.420119" lon="8.625729">
|
|
<ele>2.659213</ele>
|
|
<time>2026-07-11T08:05:33.000Z</time>
|
|
</trkpt>
|
|
<trkpt lat="55.420152" lon="8.625719">
|
|
<ele>2.628399</ele>
|
|
<time>2026-07-11T08:05:34.000Z</time>
|
|
</trkpt>
|
|
<trkpt lat="55.420181" lon="8.625711">
|
|
<ele>2.601387</ele>
|
|
<time>2026-07-11T08:05:35.000Z</time>
|
|
</trkpt>
|
|
<trkpt lat="55.420212" lon="8.625706">
|
|
<ele>2.572740</ele>
|
|
<time>2026-07-11T08:05:36.000Z</time>
|
|
</trkpt>
|
|
<trkpt lat="55.420237" lon="8.625705">
|
|
<ele>2.549728</ele>
|
|
<time>2026-07-11T08:05:37.000Z</time>
|
|
</trkpt>
|
|
<trkpt lat="55.420256" lon="8.625702">
|
|
<ele>2.532173</ele>
|
|
<time>2026-07-11T08:05:38.000Z</time>
|
|
</trkpt>
|
|
<trkpt lat="55.420272" lon="8.625692">
|
|
<ele>2.516550</ele>
|
|
<time>2026-07-11T08:05:39.000Z</time>
|
|
</trkpt>
|
|
<trkpt lat="55.420287" lon="8.625675">
|
|
<ele>2.500137</ele>
|
|
<time>2026-07-11T08:05:40.000Z</time>
|
|
</trkpt>
|
|
<trkpt lat="55.420303" lon="8.625655">
|
|
<ele>2.482084</ele>
|
|
<time>2026-07-11T08:05:41.000Z</time>
|
|
</trkpt>
|
|
<trkpt lat="55.420326" lon="8.625634">
|
|
<ele>2.458245</ele>
|
|
<time>2026-07-11T08:05:42.000Z</time>
|
|
</trkpt>
|
|
<trkpt lat="55.420362" lon="8.625612">
|
|
<ele>2.423180</ele>
|
|
<time>2026-07-11T08:05:43.000Z</time>
|
|
</trkpt>
|
|
<trkpt lat="55.420399" lon="8.625592">
|
|
<ele>2.387565</ele>
|
|
<time>2026-07-11T08:05:44.000Z</time>
|
|
</trkpt>
|
|
<trkpt lat="55.420434" lon="8.625569">
|
|
<ele>2.353189</ele>
|
|
<time>2026-07-11T08:05:45.000Z</time>
|
|
</trkpt>
|
|
<trkpt lat="55.420476" lon="8.625543">
|
|
<ele>2.312223</ele>
|
|
<time>2026-07-11T08:05:46.000Z</time>
|
|
</trkpt>
|
|
<trkpt lat="55.420520" lon="8.625516">
|
|
<ele>2.269346</ele>
|
|
<time>2026-07-11T08:05:47.000Z</time>
|
|
</trkpt>
|
|
<trkpt lat="55.420563" lon="8.625487">
|
|
<ele>2.226976</ele>
|
|
<time>2026-07-11T08:05:48.000Z</time>
|
|
</trkpt>
|
|
<trkpt lat="55.420611" lon="8.625459">
|
|
<ele>2.180446</ele>
|
|
<time>2026-07-11T08:05:49.000Z</time>
|
|
</trkpt>
|
|
<trkpt lat="55.420658" lon="8.625431">
|
|
<ele>2.134789</ele>
|
|
<time>2026-07-11T08:05:50.000Z</time>
|
|
</trkpt>
|
|
<trkpt lat="55.420706" lon="8.625399">
|
|
<ele>2.087561</ele>
|
|
<time>2026-07-11T08:05:51.000Z</time>
|
|
</trkpt>
|
|
<trkpt lat="55.420757" lon="8.625365">
|
|
<ele>2.064704</ele>
|
|
<time>2026-07-11T08:05:52.000Z</time>
|
|
</trkpt>
|
|
<trkpt lat="55.420805" lon="8.625334">
|
|
<ele>2.068297</ele>
|
|
<time>2026-07-11T08:05:53.000Z</time>
|
|
</trkpt>
|
|
<trkpt lat="55.420851" lon="8.625303">
|
|
<ele>2.071759</ele>
|
|
<time>2026-07-11T08:05:54.000Z</time>
|
|
</trkpt>
|
|
<trkpt lat="55.420901" lon="8.625272">
|
|
<ele>2.075485</ele>
|
|
<time>2026-07-11T08:05:55.000Z</time>
|
|
</trkpt>
|
|
<trkpt lat="55.420949" lon="8.625239">
|
|
<ele>2.079106</ele>
|
|
<time>2026-07-11T08:05:56.000Z</time>
|
|
</trkpt>
|
|
<trkpt lat="55.420997" lon="8.625205">
|
|
<ele>2.082742</ele>
|
|
<time>2026-07-11T08:05:57.000Z</time>
|
|
</trkpt>
|
|
<trkpt lat="55.421045" lon="8.625169">
|
|
<ele>2.086409</ele>
|
|
<time>2026-07-11T08:05:58.000Z</time>
|
|
</trkpt>
|
|
<trkpt lat="55.421092" lon="8.625136">
|
|
<ele>2.089965</ele>
|
|
<time>2026-07-11T08:05:59.000Z</time>
|
|
</trkpt>
|
|
<trkpt lat="55.421142" lon="8.625105">
|
|
<ele>2.093691</ele>
|
|
<time>2026-07-11T08:06:00.000Z</time>
|
|
</trkpt>
|
|
<trkpt lat="55.421191" lon="8.625077">
|
|
<ele>2.097312</ele>
|
|
<time>2026-07-11T08:06:01.000Z</time>
|
|
</trkpt>
|
|
<trkpt lat="55.421243" lon="8.625050">
|
|
<ele>2.101122</ele>
|
|
<time>2026-07-11T08:06:02.000Z</time>
|
|
</trkpt>
|
|
<trkpt lat="55.421295" lon="8.625024">
|
|
<ele>2.104921</ele>
|
|
<time>2026-07-11T08:06:03.000Z</time>
|
|
</trkpt>
|
|
<trkpt lat="55.421344" lon="8.625003">
|
|
<ele>2.108466</ele>
|
|
<time>2026-07-11T08:06:04.000Z</time>
|
|
</trkpt>
|
|
<trkpt lat="55.421397" lon="8.624983">
|
|
<ele>2.112276</ele>
|
|
<time>2026-07-11T08:06:05.000Z</time>
|
|
</trkpt>
|
|
<trkpt lat="55.421452" lon="8.624964">
|
|
<ele>2.116215</ele>
|
|
<time>2026-07-11T08:06:06.000Z</time>
|
|
</trkpt>
|
|
<trkpt lat="55.421505" lon="8.624947">
|
|
<ele>2.120002</ele>
|
|
<time>2026-07-11T08:06:07.000Z</time>
|
|
</trkpt>
|
|
<trkpt lat="55.421561" lon="8.624931">
|
|
<ele>2.123989</ele>
|
|
<time>2026-07-11T08:06:08.000Z</time>
|
|
</trkpt>
|
|
<trkpt lat="55.421616" lon="8.624916">
|
|
<ele>2.127901</ele>
|
|
<time>2026-07-11T08:06:09.000Z</time>
|
|
</trkpt>
|
|
<trkpt lat="55.421671" lon="8.624903">
|
|
<ele>2.131802</ele>
|
|
<time>2026-07-11T08:06:10.000Z</time>
|
|
</trkpt>
|
|
<trkpt lat="55.421728" lon="8.624890">
|
|
<ele>2.135842</ele>
|
|
<time>2026-07-11T08:06:11.000Z</time>
|
|
</trkpt>
|
|
<trkpt lat="55.421781" lon="8.624879">
|
|
<ele>2.139593</ele>
|
|
<time>2026-07-11T08:06:12.000Z</time>
|
|
</trkpt>
|
|
<trkpt lat="55.421835" lon="8.624869">
|
|
<ele>2.143409</ele>
|
|
<time>2026-07-11T08:06:13.000Z</time>
|
|
</trkpt>
|
|
<trkpt lat="55.421893" lon="8.624862">
|
|
<ele>2.147495</ele>
|
|
<time>2026-07-11T08:06:14.000Z</time>
|
|
</trkpt>
|
|
<trkpt lat="55.421950" lon="8.624854">
|
|
<ele>2.151514</ele>
|
|
<time>2026-07-11T08:06:15.000Z</time>
|
|
</trkpt>
|
|
<trkpt lat="55.422005" lon="8.624847">
|
|
<ele>2.155390</ele>
|
|
<time>2026-07-11T08:06:16.000Z</time>
|
|
</trkpt>
|
|
<trkpt lat="55.422060" lon="8.624841">
|
|
<ele>2.159264</ele>
|
|
<time>2026-07-11T08:06:17.000Z</time>
|
|
</trkpt>
|
|
<trkpt lat="55.422116" lon="8.624835">
|
|
<ele>2.163207</ele>
|
|
<time>2026-07-11T08:06:18.000Z</time>
|
|
</trkpt>
|
|
<trkpt lat="55.422172" lon="8.624828">
|
|
<ele>2.167153</ele>
|
|
<time>2026-07-11T08:06:19.000Z</time>
|
|
</trkpt>
|
|
<trkpt lat="55.422227" lon="8.624821">
|
|
<ele>2.171029</ele>
|
|
<time>2026-07-11T08:06:20.000Z</time>
|
|
</trkpt>
|
|
<trkpt lat="55.422280" lon="8.624813">
|
|
<ele>2.174768</ele>
|
|
<time>2026-07-11T08:06:21.000Z</time>
|
|
</trkpt>
|
|
<trkpt lat="55.422336" lon="8.624807">
|
|
<ele>2.178711</ele>
|
|
<time>2026-07-11T08:06:22.000Z</time>
|
|
</trkpt>
|
|
<trkpt lat="55.422393" lon="8.624803">
|
|
<ele>2.182721</ele>
|
|
<time>2026-07-11T08:06:23.000Z</time>
|
|
</trkpt>
|
|
<trkpt lat="55.422448" lon="8.624798">
|
|
<ele>2.186592</ele>
|
|
<time>2026-07-11T08:06:24.000Z</time>
|
|
</trkpt>
|
|
<trkpt lat="55.422503" lon="8.624793">
|
|
<ele>2.190473</ele>
|
|
<time>2026-07-11T08:06:25.000Z</time>
|
|
</trkpt>
|
|
<trkpt lat="55.422560" lon="8.624787">
|
|
<ele>2.194519</ele>
|
|
<time>2026-07-11T08:06:26.000Z</time>
|
|
</trkpt>
|
|
<trkpt lat="55.422617" lon="8.624781">
|
|
<ele>2.198565</ele>
|
|
<time>2026-07-11T08:06:27.000Z</time>
|
|
</trkpt>
|
|
<trkpt lat="55.422674" lon="8.624776">
|
|
<ele>2.202608</ele>
|
|
<time>2026-07-11T08:06:28.000Z</time>
|
|
</trkpt>
|
|
<trkpt lat="55.422731" lon="8.624770">
|
|
<ele>2.206654</ele>
|
|
<time>2026-07-11T08:06:29.000Z</time>
|
|
</trkpt>
|
|
<trkpt lat="55.422784" lon="8.624764">
|
|
<ele>2.210417</ele>
|
|
<time>2026-07-11T08:06:30.000Z</time>
|
|
</trkpt>
|
|
<trkpt lat="55.422839" lon="8.624758">
|
|
<ele>2.214321</ele>
|
|
<time>2026-07-11T08:06:31.000Z</time>
|
|
</trkpt>
|
|
<trkpt lat="55.422897" lon="8.624751">
|
|
<ele>2.218441</ele>
|
|
<time>2026-07-11T08:06:32.000Z</time>
|
|
</trkpt>
|
|
<trkpt lat="55.422953" lon="8.624746">
|
|
<ele>2.222413</ele>
|
|
<time>2026-07-11T08:06:33.000Z</time>
|
|
</trkpt>
|
|
<trkpt lat="55.423009" lon="8.624740">
|
|
<ele>2.226388</ele>
|
|
<time>2026-07-11T08:06:34.000Z</time>
|
|
</trkpt>
|
|
<trkpt lat="55.423063" lon="8.624734">
|
|
<ele>2.230222</ele>
|
|
<time>2026-07-11T08:06:35.000Z</time>
|
|
</trkpt>
|
|
<trkpt lat="55.423117" lon="8.624728">
|
|
<ele>2.234056</ele>
|
|
<time>2026-07-11T08:06:36.000Z</time>
|
|
</trkpt>
|
|
<trkpt lat="55.423174" lon="8.624722">
|
|
<ele>2.238102</ele>
|
|
<time>2026-07-11T08:06:37.000Z</time>
|
|
</trkpt>
|
|
<trkpt lat="55.423229" lon="8.624716">
|
|
<ele>2.242006</ele>
|
|
<time>2026-07-11T08:06:38.000Z</time>
|
|
</trkpt>
|
|
<trkpt lat="55.423284" lon="8.624710">
|
|
<ele>2.245910</ele>
|
|
<time>2026-07-11T08:06:39.000Z</time>
|
|
</trkpt>
|
|
<trkpt lat="55.423342" lon="8.624703">
|
|
<ele>2.250029</ele>
|
|
<time>2026-07-11T08:06:40.000Z</time>
|
|
</trkpt>
|
|
<trkpt lat="55.423398" lon="8.624697">
|
|
<ele>2.254004</ele>
|
|
<time>2026-07-11T08:06:41.000Z</time>
|
|
</trkpt>
|
|
<trkpt lat="55.423454" lon="8.624691">
|
|
<ele>2.257979</ele>
|
|
<time>2026-07-11T08:06:42.000Z</time>
|
|
</trkpt>
|
|
<trkpt lat="55.423510" lon="8.624685">
|
|
<ele>2.261954</ele>
|
|
<time>2026-07-11T08:06:43.000Z</time>
|
|
</trkpt>
|
|
<trkpt lat="55.423564" lon="8.624679">
|
|
<ele>2.265788</ele>
|
|
<time>2026-07-11T08:06:44.000Z</time>
|
|
</trkpt>
|
|
<trkpt lat="55.423619" lon="8.624672">
|
|
<ele>2.269695</ele>
|
|
<time>2026-07-11T08:06:45.000Z</time>
|
|
</trkpt>
|
|
<trkpt lat="55.423676" lon="8.624666">
|
|
<ele>2.273741</ele>
|
|
<time>2026-07-11T08:06:46.000Z</time>
|
|
</trkpt>
|
|
<trkpt lat="55.423734" lon="8.624661">
|
|
<ele>2.277855</ele>
|
|
<time>2026-07-11T08:06:47.000Z</time>
|
|
</trkpt>
|
|
<trkpt lat="55.423792" lon="8.624656">
|
|
<ele>2.281970</ele>
|
|
<time>2026-07-11T08:06:48.000Z</time>
|
|
</trkpt>
|
|
<trkpt lat="55.423848" lon="8.624651">
|
|
<ele>2.285942</ele>
|
|
<time>2026-07-11T08:06:49.000Z</time>
|
|
</trkpt>
|
|
<trkpt lat="55.423903" lon="8.624645">
|
|
<ele>2.289847</ele>
|
|
<time>2026-07-11T08:06:50.000Z</time>
|
|
</trkpt>
|
|
<trkpt lat="55.423961" lon="8.624639">
|
|
<ele>2.293963</ele>
|
|
<time>2026-07-11T08:06:51.000Z</time>
|
|
</trkpt>
|
|
<trkpt lat="55.424020" lon="8.624635">
|
|
<ele>2.298147</ele>
|
|
<time>2026-07-11T08:06:52.000Z</time>
|
|
</trkpt>
|
|
<trkpt lat="55.424074" lon="8.624630">
|
|
<ele>2.301978</ele>
|
|
<time>2026-07-11T08:06:53.000Z</time>
|
|
</trkpt>
|
|
<trkpt lat="55.424131" lon="8.624625">
|
|
<ele>2.306022</ele>
|
|
<time>2026-07-11T08:06:54.000Z</time>
|
|
</trkpt>
|
|
<trkpt lat="55.424191" lon="8.624620">
|
|
<ele>2.310278</ele>
|
|
<time>2026-07-11T08:06:55.000Z</time>
|
|
</trkpt>
|
|
<trkpt lat="55.424248" lon="8.624617">
|
|
<ele>2.314318</ele>
|
|
<time>2026-07-11T08:06:56.000Z</time>
|
|
</trkpt>
|
|
<trkpt lat="55.424308" lon="8.624612">
|
|
<ele>2.311248</ele>
|
|
<time>2026-07-11T08:06:57.000Z</time>
|
|
</trkpt>
|
|
<trkpt lat="55.424367" lon="8.624608">
|
|
<ele>2.299689</ele>
|
|
<time>2026-07-11T08:06:58.000Z</time>
|
|
</trkpt>
|
|
<trkpt lat="55.424425" lon="8.624603">
|
|
<ele>2.288320</ele>
|
|
<time>2026-07-11T08:06:59.000Z</time>
|
|
</trkpt>
|
|
<trkpt lat="55.424480" lon="8.624598">
|
|
<ele>2.277538</ele>
|
|
<time>2026-07-11T08:07:00.000Z</time>
|
|
</trkpt>
|
|
<trkpt lat="55.424538" lon="8.624592">
|
|
<ele>2.266163</ele>
|
|
<time>2026-07-11T08:07:01.000Z</time>
|
|
</trkpt>
|
|
<trkpt lat="55.424602" lon="8.624585">
|
|
<ele>2.253609</ele>
|
|
<time>2026-07-11T08:07:02.000Z</time>
|
|
</trkpt>
|
|
<trkpt lat="55.424661" lon="8.624579">
|
|
<ele>2.242039</ele>
|
|
<time>2026-07-11T08:07:03.000Z</time>
|
|
</trkpt>
|
|
<trkpt lat="55.424718" lon="8.624572">
|
|
<ele>2.230853</ele>
|
|
<time>2026-07-11T08:07:04.000Z</time>
|
|
</trkpt>
|
|
<trkpt lat="55.424776" lon="8.624564">
|
|
<ele>2.219463</ele>
|
|
<time>2026-07-11T08:07:05.000Z</time>
|
|
</trkpt>
|
|
<trkpt lat="55.424835" lon="8.624558">
|
|
<ele>2.207893</ele>
|
|
<time>2026-07-11T08:07:06.000Z</time>
|
|
</trkpt>
|
|
<trkpt lat="55.424894" lon="8.624551">
|
|
<ele>2.196315</ele>
|
|
<time>2026-07-11T08:07:07.000Z</time>
|
|
</trkpt>
|
|
<trkpt lat="55.424951" lon="8.624545">
|
|
<ele>2.185136</ele>
|
|
<time>2026-07-11T08:07:08.000Z</time>
|
|
</trkpt>
|
|
<trkpt lat="55.425009" lon="8.624538">
|
|
<ele>2.173754</ele>
|
|
<time>2026-07-11T08:07:09.000Z</time>
|
|
</trkpt>
|
|
<trkpt lat="55.425071" lon="8.624531">
|
|
<ele>2.161591</ele>
|
|
<time>2026-07-11T08:07:10.000Z</time>
|
|
</trkpt>
|
|
<trkpt lat="55.425130" lon="8.624524">
|
|
<ele>2.150014</ele>
|
|
<time>2026-07-11T08:07:11.000Z</time>
|
|
</trkpt>
|
|
<trkpt lat="55.425187" lon="8.624518">
|
|
<ele>2.138835</ele>
|
|
<time>2026-07-11T08:07:12.000Z</time>
|
|
</trkpt>
|
|
<trkpt lat="55.425244" lon="8.624512">
|
|
<ele>2.127656</ele>
|
|
<time>2026-07-11T08:07:13.000Z</time>
|
|
</trkpt>
|
|
<trkpt lat="55.425301" lon="8.624505">
|
|
<ele>2.116469</ele>
|
|
<time>2026-07-11T08:07:14.000Z</time>
|
|
</trkpt>
|
|
<trkpt lat="55.425363" lon="8.624498">
|
|
<ele>2.104306</ele>
|
|
<time>2026-07-11T08:07:15.000Z</time>
|
|
</trkpt>
|
|
<trkpt lat="55.425421" lon="8.624491">
|
|
<ele>2.092924</ele>
|
|
<time>2026-07-11T08:07:16.000Z</time>
|
|
</trkpt>
|
|
<trkpt lat="55.425480" lon="8.624484">
|
|
<ele>2.081347</ele>
|
|
<time>2026-07-11T08:07:17.000Z</time>
|
|
</trkpt>
|
|
<trkpt lat="55.425541" lon="8.624479">
|
|
<ele>2.069392</ele>
|
|
<time>2026-07-11T08:07:18.000Z</time>
|
|
</trkpt>
|
|
<trkpt lat="55.425602" lon="8.624474">
|
|
<ele>2.057436</ele>
|
|
<time>2026-07-11T08:07:19.000Z</time>
|
|
</trkpt>
|
|
<trkpt lat="55.425663" lon="8.624466">
|
|
<ele>2.045461</ele>
|
|
<time>2026-07-11T08:07:20.000Z</time>
|
|
</trkpt>
|
|
<trkpt lat="55.425721" lon="8.624460">
|
|
<ele>2.034086</ele>
|
|
<time>2026-07-11T08:07:21.000Z</time>
|
|
</trkpt>
|
|
<trkpt lat="55.425780" lon="8.624454">
|
|
<ele>2.022516</ele>
|
|
<time>2026-07-11T08:07:22.000Z</time>
|
|
</trkpt>
|
|
<trkpt lat="55.425837" lon="8.624450">
|
|
<ele>2.011348</ele>
|
|
<time>2026-07-11T08:07:23.000Z</time>
|
|
</trkpt>
|
|
<trkpt lat="55.425898" lon="8.624446">
|
|
<ele>1.999397</ele>
|
|
<time>2026-07-11T08:07:24.000Z</time>
|
|
</trkpt>
|
|
<trkpt lat="55.425960" lon="8.624440">
|
|
<ele>1.987240</ele>
|
|
<time>2026-07-11T08:07:25.000Z</time>
|
|
</trkpt>
|
|
<trkpt lat="55.426021" lon="8.624433">
|
|
<ele>1.975273</ele>
|
|
<time>2026-07-11T08:07:26.000Z</time>
|
|
</trkpt>
|
|
<trkpt lat="55.426080" lon="8.624426">
|
|
<ele>1.964404</ele>
|
|
<time>2026-07-11T08:07:27.000Z</time>
|
|
</trkpt>
|
|
<trkpt lat="55.426139" lon="8.624416">
|
|
<ele>1.963133</ele>
|
|
<time>2026-07-11T08:07:28.000Z</time>
|
|
</trkpt>
|
|
<trkpt lat="55.426199" lon="8.624403">
|
|
<ele>1.961836</ele>
|
|
<time>2026-07-11T08:07:29.000Z</time>
|
|
</trkpt>
|
|
<trkpt lat="55.426258" lon="8.624388">
|
|
<ele>1.960558</ele>
|
|
<time>2026-07-11T08:07:30.000Z</time>
|
|
</trkpt>
|
|
<trkpt lat="55.426315" lon="8.624372">
|
|
<ele>1.959320</ele>
|
|
<time>2026-07-11T08:07:31.000Z</time>
|
|
</trkpt>
|
|
<trkpt lat="55.426374" lon="8.624352">
|
|
<ele>1.958031</ele>
|
|
<time>2026-07-11T08:07:32.000Z</time>
|
|
</trkpt>
|
|
<trkpt lat="55.426433" lon="8.624329">
|
|
<ele>1.956736</ele>
|
|
<time>2026-07-11T08:07:33.000Z</time>
|
|
</trkpt>
|
|
<trkpt lat="55.426492" lon="8.624306">
|
|
<ele>1.955440</ele>
|
|
<time>2026-07-11T08:07:34.000Z</time>
|
|
</trkpt>
|
|
<trkpt lat="55.426552" lon="8.624283">
|
|
<ele>1.954123</ele>
|
|
<time>2026-07-11T08:07:35.000Z</time>
|
|
</trkpt>
|
|
<trkpt lat="55.426609" lon="8.624260">
|
|
<ele>1.952869</ele>
|
|
<time>2026-07-11T08:07:36.000Z</time>
|
|
</trkpt>
|
|
<trkpt lat="55.426666" lon="8.624233">
|
|
<ele>1.951603</ele>
|
|
<time>2026-07-11T08:07:37.000Z</time>
|
|
</trkpt>
|
|
<trkpt lat="55.426723" lon="8.624203">
|
|
<ele>1.950327</ele>
|
|
<time>2026-07-11T08:07:38.000Z</time>
|
|
</trkpt>
|
|
<trkpt lat="55.426779" lon="8.624171">
|
|
<ele>1.949064</ele>
|
|
<time>2026-07-11T08:07:39.000Z</time>
|
|
</trkpt>
|
|
<trkpt lat="55.426834" lon="8.624138">
|
|
<ele>1.947818</ele>
|
|
<time>2026-07-11T08:07:40.000Z</time>
|
|
</trkpt>
|
|
<trkpt lat="55.426891" lon="8.624104">
|
|
<ele>1.946528</ele>
|
|
<time>2026-07-11T08:07:41.000Z</time>
|
|
</trkpt>
|
|
<trkpt lat="55.426946" lon="8.624070">
|
|
<ele>1.945278</ele>
|
|
<time>2026-07-11T08:07:42.000Z</time>
|
|
</trkpt>
|
|
<trkpt lat="55.427002" lon="8.624033">
|
|
<ele>1.943995</ele>
|
|
<time>2026-07-11T08:07:43.000Z</time>
|
|
</trkpt>
|
|
<trkpt lat="55.427057" lon="8.623996">
|
|
<ele>1.942732</ele>
|
|
<time>2026-07-11T08:07:44.000Z</time>
|
|
</trkpt>
|
|
<trkpt lat="55.427109" lon="8.623958">
|
|
<ele>1.941525</ele>
|
|
<time>2026-07-11T08:07:45.000Z</time>
|
|
</trkpt>
|
|
<trkpt lat="55.427162" lon="8.623920">
|
|
<ele>1.940298</ele>
|
|
<time>2026-07-11T08:07:46.000Z</time>
|
|
</trkpt>
|
|
<trkpt lat="55.427219" lon="8.623881">
|
|
<ele>1.938987</ele>
|
|
<time>2026-07-11T08:07:47.000Z</time>
|
|
</trkpt>
|
|
<trkpt lat="55.427274" lon="8.623843">
|
|
<ele>1.937720</ele>
|
|
<time>2026-07-11T08:07:48.000Z</time>
|
|
</trkpt>
|
|
<trkpt lat="55.427328" lon="8.623803">
|
|
<ele>1.936463</ele>
|
|
<time>2026-07-11T08:07:49.000Z</time>
|
|
</trkpt>
|
|
<trkpt lat="55.427381" lon="8.623762">
|
|
<ele>1.935222</ele>
|
|
<time>2026-07-11T08:07:50.000Z</time>
|
|
</trkpt>
|
|
<trkpt lat="55.427434" lon="8.623722">
|
|
<ele>1.933986</ele>
|
|
<time>2026-07-11T08:07:51.000Z</time>
|
|
</trkpt>
|
|
<trkpt lat="55.427486" lon="8.623683">
|
|
<ele>1.932774</ele>
|
|
<time>2026-07-11T08:07:52.000Z</time>
|
|
</trkpt>
|
|
<trkpt lat="55.427538" lon="8.623645">
|
|
<ele>1.931566</ele>
|
|
<time>2026-07-11T08:07:53.000Z</time>
|
|
</trkpt>
|
|
<trkpt lat="55.427591" lon="8.623607">
|
|
<ele>1.930339</ele>
|
|
<time>2026-07-11T08:07:54.000Z</time>
|
|
</trkpt>
|
|
<trkpt lat="55.427646" lon="8.623570">
|
|
<ele>1.929076</ele>
|
|
<time>2026-07-11T08:07:55.000Z</time>
|
|
</trkpt>
|
|
<trkpt lat="55.427702" lon="8.623532">
|
|
<ele>1.927790</ele>
|
|
<time>2026-07-11T08:07:56.000Z</time>
|
|
</trkpt>
|
|
<trkpt lat="55.427755" lon="8.623492">
|
|
<ele>1.926553</ele>
|
|
<time>2026-07-11T08:07:57.000Z</time>
|
|
</trkpt>
|
|
<trkpt lat="55.427808" lon="8.623452">
|
|
<ele>1.930895</ele>
|
|
<time>2026-07-11T08:07:58.000Z</time>
|
|
</trkpt>
|
|
<trkpt lat="55.427864" lon="8.623414">
|
|
<ele>1.941575</ele>
|
|
<time>2026-07-11T08:07:59.000Z</time>
|
|
</trkpt>
|
|
<trkpt lat="55.427919" lon="8.623374">
|
|
<ele>1.952165</ele>
|
|
<time>2026-07-11T08:08:00.000Z</time>
|
|
</trkpt>
|
|
<trkpt lat="55.427973" lon="8.623334">
|
|
<ele>1.962590</ele>
|
|
<time>2026-07-11T08:08:01.000Z</time>
|
|
</trkpt>
|
|
<trkpt lat="55.428026" lon="8.623294">
|
|
<ele>1.972851</ele>
|
|
<time>2026-07-11T08:08:02.000Z</time>
|
|
</trkpt>
|
|
<trkpt lat="55.428079" lon="8.623254">
|
|
<ele>1.983112</ele>
|
|
<time>2026-07-11T08:08:03.000Z</time>
|
|
</trkpt>
|
|
<trkpt lat="55.428133" lon="8.623217">
|
|
<ele>1.993424</ele>
|
|
<time>2026-07-11T08:08:04.000Z</time>
|
|
</trkpt>
|
|
<trkpt lat="55.428186" lon="8.623179">
|
|
<ele>2.003608</ele>
|
|
<time>2026-07-11T08:08:05.000Z</time>
|
|
</trkpt>
|
|
<trkpt lat="55.428238" lon="8.623140">
|
|
<ele>2.013666</ele>
|
|
<time>2026-07-11T08:08:06.000Z</time>
|
|
</trkpt>
|
|
<trkpt lat="55.428289" lon="8.623101">
|
|
<ele>2.023560</ele>
|
|
<time>2026-07-11T08:08:07.000Z</time>
|
|
</trkpt>
|
|
<trkpt lat="55.428343" lon="8.623065">
|
|
<ele>2.033835</ele>
|
|
<time>2026-07-11T08:08:08.000Z</time>
|
|
</trkpt>
|
|
<trkpt lat="55.428396" lon="8.623028">
|
|
<ele>2.043981</ele>
|
|
<time>2026-07-11T08:08:09.000Z</time>
|
|
</trkpt>
|
|
<trkpt lat="55.428449" lon="8.622992">
|
|
<ele>2.054090</ele>
|
|
<time>2026-07-11T08:08:10.000Z</time>
|
|
</trkpt>
|
|
<trkpt lat="55.428502" lon="8.622955">
|
|
<ele>2.064236</ele>
|
|
<time>2026-07-11T08:08:11.000Z</time>
|
|
</trkpt>
|
|
<trkpt lat="55.428554" lon="8.622915">
|
|
<ele>2.074334</ele>
|
|
<time>2026-07-11T08:08:12.000Z</time>
|
|
</trkpt>
|
|
<trkpt lat="55.428607" lon="8.622876">
|
|
<ele>2.084556</ele>
|
|
<time>2026-07-11T08:08:13.000Z</time>
|
|
</trkpt>
|
|
<trkpt lat="55.428663" lon="8.622837">
|
|
<ele>2.095273</ele>
|
|
<time>2026-07-11T08:08:14.000Z</time>
|
|
</trkpt>
|
|
<trkpt lat="55.428715" lon="8.622796">
|
|
<ele>2.105412</ele>
|
|
<time>2026-07-11T08:08:15.000Z</time>
|
|
</trkpt>
|
|
<trkpt lat="55.428766" lon="8.622756">
|
|
<ele>2.115347</ele>
|
|
<time>2026-07-11T08:08:16.000Z</time>
|
|
</trkpt>
|
|
<trkpt lat="55.428819" lon="8.622719">
|
|
<ele>2.125493</ele>
|
|
<time>2026-07-11T08:08:17.000Z</time>
|
|
</trkpt>
|
|
<trkpt lat="55.428873" lon="8.622682">
|
|
<ele>2.135804</ele>
|
|
<time>2026-07-11T08:08:18.000Z</time>
|
|
</trkpt>
|
|
<trkpt lat="55.428926" lon="8.622643">
|
|
<ele>2.146026</ele>
|
|
<time>2026-07-11T08:08:19.000Z</time>
|
|
</trkpt>
|
|
<trkpt lat="55.428979" lon="8.622603">
|
|
<ele>2.156288</ele>
|
|
<time>2026-07-11T08:08:20.000Z</time>
|
|
</trkpt>
|
|
<trkpt lat="55.429033" lon="8.622563">
|
|
<ele>2.166713</ele>
|
|
<time>2026-07-11T08:08:21.000Z</time>
|
|
</trkpt>
|
|
<trkpt lat="55.429086" lon="8.622525">
|
|
<ele>2.176896</ele>
|
|
<time>2026-07-11T08:08:22.000Z</time>
|
|
</trkpt>
|
|
<trkpt lat="55.429137" lon="8.622488">
|
|
<ele>2.186712</ele>
|
|
<time>2026-07-11T08:08:23.000Z</time>
|
|
</trkpt>
|
|
<trkpt lat="55.429189" lon="8.622449">
|
|
<ele>2.196770</ele>
|
|
<time>2026-07-11T08:08:24.000Z</time>
|
|
</trkpt>
|
|
<trkpt lat="55.429243" lon="8.622410">
|
|
<ele>2.207156</ele>
|
|
<time>2026-07-11T08:08:25.000Z</time>
|
|
</trkpt>
|
|
<trkpt lat="55.429296" lon="8.622370">
|
|
<ele>2.217418</ele>
|
|
<time>2026-07-11T08:08:26.000Z</time>
|
|
</trkpt>
|
|
<trkpt lat="55.429349" lon="8.622332">
|
|
<ele>2.227601</ele>
|
|
<time>2026-07-11T08:08:27.000Z</time>
|
|
</trkpt>
|
|
<trkpt lat="55.429401" lon="8.622294">
|
|
<ele>2.237620</ele>
|
|
<time>2026-07-11T08:08:28.000Z</time>
|
|
</trkpt>
|
|
<trkpt lat="55.429453" lon="8.622256">
|
|
<ele>2.245284</ele>
|
|
<time>2026-07-11T08:08:29.000Z</time>
|
|
</trkpt>
|
|
<trkpt lat="55.429504" lon="8.622218">
|
|
<ele>2.240699</ele>
|
|
<time>2026-07-11T08:08:30.000Z</time>
|
|
</trkpt>
|
|
<trkpt lat="55.429556" lon="8.622181">
|
|
<ele>2.236054</ele>
|
|
<time>2026-07-11T08:08:31.000Z</time>
|
|
</trkpt>
|
|
<trkpt lat="55.429607" lon="8.622142">
|
|
<ele>2.231450</ele>
|
|
<time>2026-07-11T08:08:32.000Z</time>
|
|
</trkpt>
|
|
<trkpt lat="55.429658" lon="8.622103">
|
|
<ele>2.226846</ele>
|
|
<time>2026-07-11T08:08:33.000Z</time>
|
|
</trkpt>
|
|
<trkpt lat="55.429710" lon="8.622064">
|
|
<ele>2.222166</ele>
|
|
<time>2026-07-11T08:08:34.000Z</time>
|
|
</trkpt>
|
|
<trkpt lat="55.429761" lon="8.622025">
|
|
<ele>2.217561</ele>
|
|
<time>2026-07-11T08:08:35.000Z</time>
|
|
</trkpt>
|
|
<trkpt lat="55.429812" lon="8.621987">
|
|
<ele>2.212976</ele>
|
|
<time>2026-07-11T08:08:36.000Z</time>
|
|
</trkpt>
|
|
<trkpt lat="55.429864" lon="8.621949">
|
|
<ele>2.208314</ele>
|
|
<time>2026-07-11T08:08:37.000Z</time>
|
|
</trkpt>
|
|
<trkpt lat="55.429916" lon="8.621911">
|
|
<ele>2.203651</ele>
|
|
<time>2026-07-11T08:08:38.000Z</time>
|
|
</trkpt>
|
|
<trkpt lat="55.429967" lon="8.621873">
|
|
<ele>2.199066</ele>
|
|
<time>2026-07-11T08:08:39.000Z</time>
|
|
</trkpt>
|
|
<trkpt lat="55.430021" lon="8.621835">
|
|
<ele>2.194250</ele>
|
|
<time>2026-07-11T08:08:40.000Z</time>
|
|
</trkpt>
|
|
<trkpt lat="55.430073" lon="8.621797">
|
|
<ele>2.189588</ele>
|
|
<time>2026-07-11T08:08:41.000Z</time>
|
|
</trkpt>
|
|
<trkpt lat="55.430122" lon="8.621759">
|
|
<ele>2.185154</ele>
|
|
<time>2026-07-11T08:08:42.000Z</time>
|
|
</trkpt>
|
|
<trkpt lat="55.430174" lon="8.621721">
|
|
<ele>2.180492</ele>
|
|
<time>2026-07-11T08:08:43.000Z</time>
|
|
</trkpt>
|
|
<trkpt lat="55.430225" lon="8.621683">
|
|
<ele>2.175907</ele>
|
|
<time>2026-07-11T08:08:44.000Z</time>
|
|
</trkpt>
|
|
<trkpt lat="55.430275" lon="8.621646">
|
|
<ele>2.171415</ele>
|
|
<time>2026-07-11T08:08:45.000Z</time>
|
|
</trkpt>
|
|
<trkpt lat="55.430326" lon="8.621609">
|
|
<ele>2.166848</ele>
|
|
<time>2026-07-11T08:08:46.000Z</time>
|
|
</trkpt>
|
|
<trkpt lat="55.430380" lon="8.621572">
|
|
<ele>2.162050</ele>
|
|
<time>2026-07-11T08:08:47.000Z</time>
|
|
</trkpt>
|
|
<trkpt lat="55.430431" lon="8.621534">
|
|
<ele>2.157464</ele>
|
|
<time>2026-07-11T08:08:48.000Z</time>
|
|
</trkpt>
|
|
<trkpt lat="55.430479" lon="8.621494">
|
|
<ele>2.153067</ele>
|
|
<time>2026-07-11T08:08:49.000Z</time>
|
|
</trkpt>
|
|
<trkpt lat="55.430527" lon="8.621449">
|
|
<ele>2.148564</ele>
|
|
<time>2026-07-11T08:08:50.000Z</time>
|
|
</trkpt>
|
|
<trkpt lat="55.430576" lon="8.621404">
|
|
<ele>2.143988</ele>
|
|
<time>2026-07-11T08:08:51.000Z</time>
|
|
</trkpt>
|
|
<trkpt lat="55.430624" lon="8.621358">
|
|
<ele>2.139463</ele>
|
|
<time>2026-07-11T08:08:52.000Z</time>
|
|
</trkpt>
|
|
<trkpt lat="55.430672" lon="8.621312">
|
|
<ele>2.134938</ele>
|
|
<time>2026-07-11T08:08:53.000Z</time>
|
|
</trkpt>
|
|
<trkpt lat="55.430720" lon="8.621267">
|
|
<ele>2.130435</ele>
|
|
<time>2026-07-11T08:08:54.000Z</time>
|
|
</trkpt>
|
|
<trkpt lat="55.430765" lon="8.621222">
|
|
<ele>2.126150</ele>
|
|
<time>2026-07-11T08:08:55.000Z</time>
|
|
</trkpt>
|
|
<trkpt lat="55.430811" lon="8.621175">
|
|
<ele>2.121747</ele>
|
|
<time>2026-07-11T08:08:56.000Z</time>
|
|
</trkpt>
|
|
<trkpt lat="55.430857" lon="8.621125">
|
|
<ele>2.117271</ele>
|
|
<time>2026-07-11T08:08:57.000Z</time>
|
|
</trkpt>
|
|
<trkpt lat="55.430902" lon="8.621075">
|
|
<ele>2.112865</ele>
|
|
<time>2026-07-11T08:08:58.000Z</time>
|
|
</trkpt>
|
|
<trkpt lat="55.430948" lon="8.621023">
|
|
<ele>2.108339</ele>
|
|
<time>2026-07-11T08:08:59.000Z</time>
|
|
</trkpt>
|
|
<trkpt lat="55.430994" lon="8.620972">
|
|
<ele>2.103838</ele>
|
|
<time>2026-07-11T08:09:00.000Z</time>
|
|
</trkpt>
|
|
<trkpt lat="55.431039" lon="8.620923">
|
|
<ele>2.099457</ele>
|
|
<time>2026-07-11T08:09:01.000Z</time>
|
|
</trkpt>
|
|
<trkpt lat="55.431084" lon="8.620871">
|
|
<ele>2.098633</ele>
|
|
<time>2026-07-11T08:09:02.000Z</time>
|
|
</trkpt>
|
|
<trkpt lat="55.431125" lon="8.620816">
|
|
<ele>2.101854</ele>
|
|
<time>2026-07-11T08:09:03.000Z</time>
|
|
</trkpt>
|
|
<trkpt lat="55.431167" lon="8.620757">
|
|
<ele>2.105211</ele>
|
|
<time>2026-07-11T08:09:04.000Z</time>
|
|
</trkpt>
|
|
<trkpt lat="55.431211" lon="8.620699">
|
|
<ele>2.108645</ele>
|
|
<time>2026-07-11T08:09:05.000Z</time>
|
|
</trkpt>
|
|
<trkpt lat="55.431256" lon="8.620642">
|
|
<ele>2.112109</ele>
|
|
<time>2026-07-11T08:09:06.000Z</time>
|
|
</trkpt>
|
|
<trkpt lat="55.431298" lon="8.620584">
|
|
<ele>2.115444</ele>
|
|
<time>2026-07-11T08:09:07.000Z</time>
|
|
</trkpt>
|
|
<trkpt lat="55.431341" lon="8.620525">
|
|
<ele>2.118850</ele>
|
|
<time>2026-07-11T08:09:08.000Z</time>
|
|
</trkpt>
|
|
<trkpt lat="55.431385" lon="8.620466">
|
|
<ele>2.122306</ele>
|
|
<time>2026-07-11T08:09:09.000Z</time>
|
|
</trkpt>
|
|
<trkpt lat="55.431427" lon="8.620406">
|
|
<ele>2.125685</ele>
|
|
<time>2026-07-11T08:09:10.000Z</time>
|
|
</trkpt>
|
|
<trkpt lat="55.431468" lon="8.620344">
|
|
<ele>2.129062</ele>
|
|
<time>2026-07-11T08:09:11.000Z</time>
|
|
</trkpt>
|
|
<trkpt lat="55.431510" lon="8.620282">
|
|
<ele>2.132486</ele>
|
|
<time>2026-07-11T08:09:12.000Z</time>
|
|
</trkpt>
|
|
<trkpt lat="55.431553" lon="8.620217">
|
|
<ele>2.136027</ele>
|
|
<time>2026-07-11T08:09:13.000Z</time>
|
|
</trkpt>
|
|
<trkpt lat="55.431595" lon="8.620151">
|
|
<ele>2.139544</ele>
|
|
<time>2026-07-11T08:09:14.000Z</time>
|
|
</trkpt>
|
|
<trkpt lat="55.431635" lon="8.620085">
|
|
<ele>2.142969</ele>
|
|
<time>2026-07-11T08:09:15.000Z</time>
|
|
</trkpt>
|
|
<trkpt lat="55.431673" lon="8.620017">
|
|
<ele>2.146353</ele>
|
|
<time>2026-07-11T08:09:16.000Z</time>
|
|
</trkpt>
|
|
<trkpt lat="55.431713" lon="8.619949">
|
|
<ele>2.149827</ele>
|
|
<time>2026-07-11T08:09:17.000Z</time>
|
|
</trkpt>
|
|
<trkpt lat="55.431755" lon="8.619881">
|
|
<ele>2.153392</ele>
|
|
<time>2026-07-11T08:09:18.000Z</time>
|
|
</trkpt>
|
|
<trkpt lat="55.431797" lon="8.619815">
|
|
<ele>2.156909</ele>
|
|
<time>2026-07-11T08:09:19.000Z</time>
|
|
</trkpt>
|
|
<trkpt lat="55.431837" lon="8.619748">
|
|
<ele>2.160358</ele>
|
|
<time>2026-07-11T08:09:20.000Z</time>
|
|
</trkpt>
|
|
<trkpt lat="55.431875" lon="8.619682">
|
|
<ele>2.163693</ele>
|
|
<time>2026-07-11T08:09:21.000Z</time>
|
|
</trkpt>
|
|
<trkpt lat="55.431914" lon="8.619616">
|
|
<ele>2.167072</ele>
|
|
<time>2026-07-11T08:09:22.000Z</time>
|
|
</trkpt>
|
|
<trkpt lat="55.431950" lon="8.619548">
|
|
<ele>2.170370</ele>
|
|
<time>2026-07-11T08:09:23.000Z</time>
|
|
</trkpt>
|
|
<trkpt lat="55.431985" lon="8.619484">
|
|
<ele>2.173523</ele>
|
|
<time>2026-07-11T08:09:24.000Z</time>
|
|
</trkpt>
|
|
<trkpt lat="55.432019" lon="8.619418">
|
|
<ele>2.176684</ele>
|
|
<time>2026-07-11T08:09:25.000Z</time>
|
|
</trkpt>
|
|
<trkpt lat="55.432053" lon="8.619355">
|
|
<ele>2.179768</ele>
|
|
<time>2026-07-11T08:09:26.000Z</time>
|
|
</trkpt>
|
|
<trkpt lat="55.432086" lon="8.619294">
|
|
<ele>2.182757</ele>
|
|
<time>2026-07-11T08:09:27.000Z</time>
|
|
</trkpt>
|
|
<trkpt lat="55.432114" lon="8.619233">
|
|
<ele>2.185539</ele>
|
|
<time>2026-07-11T08:09:28.000Z</time>
|
|
</trkpt>
|
|
<trkpt lat="55.432139" lon="8.619172">
|
|
<ele>2.188208</ele>
|
|
<time>2026-07-11T08:09:29.000Z</time>
|
|
</trkpt>
|
|
<trkpt lat="55.432155" lon="8.619112">
|
|
<ele>2.190559</ele>
|
|
<time>2026-07-11T08:09:30.000Z</time>
|
|
</trkpt>
|
|
<trkpt lat="55.432158" lon="8.619064">
|
|
<ele>2.192271</ele>
|
|
<time>2026-07-11T08:09:31.000Z</time>
|
|
</trkpt>
|
|
<trkpt lat="55.432156" lon="8.619028">
|
|
<ele>2.193554</ele>
|
|
<time>2026-07-11T08:09:32.000Z</time>
|
|
</trkpt>
|
|
<trkpt lat="55.432161" lon="8.618998">
|
|
<ele>2.194663</ele>
|
|
<time>2026-07-11T08:09:33.000Z</time>
|
|
</trkpt>
|
|
<trkpt lat="55.432172" lon="8.618972">
|
|
<ele>2.195813</ele>
|
|
<time>2026-07-11T08:09:34.000Z</time>
|
|
</trkpt>
|
|
<trkpt lat="55.432186" lon="8.618950">
|
|
<ele>2.196986</ele>
|
|
<time>2026-07-11T08:09:35.000Z</time>
|
|
</trkpt>
|
|
<trkpt lat="55.432203" lon="8.618932">
|
|
<ele>2.198225</ele>
|
|
<time>2026-07-11T08:09:36.000Z</time>
|
|
</trkpt>
|
|
<trkpt lat="55.432222" lon="8.618913">
|
|
<ele>2.199591</ele>
|
|
<time>2026-07-11T08:09:37.000Z</time>
|
|
</trkpt>
|
|
<trkpt lat="55.432241" lon="8.618890">
|
|
<ele>2.201031</ele>
|
|
<time>2026-07-11T08:09:38.000Z</time>
|
|
</trkpt>
|
|
<trkpt lat="55.432261" lon="8.618862">
|
|
<ele>2.202628</ele>
|
|
<time>2026-07-11T08:09:39.000Z</time>
|
|
</trkpt>
|
|
<trkpt lat="55.432286" lon="8.618829">
|
|
<ele>2.204580</ele>
|
|
<time>2026-07-11T08:09:40.000Z</time>
|
|
</trkpt>
|
|
<trkpt lat="55.432315" lon="8.618794">
|
|
<ele>2.206777</ele>
|
|
<time>2026-07-11T08:09:41.000Z</time>
|
|
</trkpt>
|
|
<trkpt lat="55.432345" lon="8.618756">
|
|
<ele>2.209086</ele>
|
|
<time>2026-07-11T08:09:42.000Z</time>
|
|
</trkpt>
|
|
<trkpt lat="55.432376" lon="8.618711">
|
|
<ele>2.207832</ele>
|
|
<time>2026-07-11T08:09:43.000Z</time>
|
|
</trkpt>
|
|
<trkpt lat="55.432408" lon="8.618659">
|
|
<ele>2.205684</ele>
|
|
<time>2026-07-11T08:09:44.000Z</time>
|
|
</trkpt>
|
|
<trkpt lat="55.432441" lon="8.618601">
|
|
<ele>2.203383</ele>
|
|
<time>2026-07-11T08:09:45.000Z</time>
|
|
</trkpt>
|
|
<trkpt lat="55.432473" lon="8.618540">
|
|
<ele>2.201056</ele>
|
|
<time>2026-07-11T08:09:46.000Z</time>
|
|
</trkpt>
|
|
<trkpt lat="55.432505" lon="8.618481">
|
|
<ele>2.198771</ele>
|
|
<time>2026-07-11T08:09:47.000Z</time>
|
|
</trkpt>
|
|
<trkpt lat="55.432536" lon="8.618422">
|
|
<ele>2.196518</ele>
|
|
<time>2026-07-11T08:09:48.000Z</time>
|
|
</trkpt>
|
|
<trkpt lat="55.432566" lon="8.618363">
|
|
<ele>2.194299</ele>
|
|
<time>2026-07-11T08:09:49.000Z</time>
|
|
</trkpt>
|
|
<trkpt lat="55.432599" lon="8.618303">
|
|
<ele>2.191959</ele>
|
|
<time>2026-07-11T08:09:50.000Z</time>
|
|
</trkpt>
|
|
<trkpt lat="55.432633" lon="8.618241">
|
|
<ele>2.189544</ele>
|
|
<time>2026-07-11T08:09:51.000Z</time>
|
|
</trkpt>
|
|
<trkpt lat="55.432666" lon="8.618177">
|
|
<ele>2.187122</ele>
|
|
<time>2026-07-11T08:09:52.000Z</time>
|
|
</trkpt>
|
|
<trkpt lat="55.432696" lon="8.618111">
|
|
<ele>2.184754</ele>
|
|
<time>2026-07-11T08:09:53.000Z</time>
|
|
</trkpt>
|
|
<trkpt lat="55.432727" lon="8.618044">
|
|
<ele>2.182332</ele>
|
|
<time>2026-07-11T08:09:54.000Z</time>
|
|
</trkpt>
|
|
<trkpt lat="55.432755" lon="8.617977">
|
|
<ele>2.180002</ele>
|
|
<time>2026-07-11T08:09:55.000Z</time>
|
|
</trkpt>
|
|
<trkpt lat="55.432782" lon="8.617913">
|
|
<ele>2.177768</ele>
|
|
<time>2026-07-11T08:09:56.000Z</time>
|
|
</trkpt>
|
|
<trkpt lat="55.432809" lon="8.617850">
|
|
<ele>2.175557</ele>
|
|
<time>2026-07-11T08:09:57.000Z</time>
|
|
</trkpt>
|
|
<trkpt lat="55.432835" lon="8.617792">
|
|
<ele>2.173487</ele>
|
|
<time>2026-07-11T08:09:58.000Z</time>
|
|
</trkpt>
|
|
<trkpt lat="55.432862" lon="8.617734">
|
|
<ele>2.171385</ele>
|
|
<time>2026-07-11T08:09:59.000Z</time>
|
|
</trkpt>
|
|
<trkpt lat="55.432889" lon="8.617672">
|
|
<ele>2.169196</ele>
|
|
<time>2026-07-11T08:10:00.000Z</time>
|
|
</trkpt>
|
|
<trkpt lat="55.432915" lon="8.617606">
|
|
<ele>2.166946</ele>
|
|
<time>2026-07-11T08:10:01.000Z</time>
|
|
</trkpt>
|
|
<trkpt lat="55.432942" lon="8.617536">
|
|
<ele>2.164575</ele>
|
|
<time>2026-07-11T08:10:02.000Z</time>
|
|
</trkpt>
|
|
<trkpt lat="55.432971" lon="8.617463">
|
|
<ele>2.162080</ele>
|
|
<time>2026-07-11T08:10:03.000Z</time>
|
|
</trkpt>
|
|
<trkpt lat="55.433001" lon="8.617391">
|
|
<ele>2.159578</ele>
|
|
<time>2026-07-11T08:10:04.000Z</time>
|
|
</trkpt>
|
|
<trkpt lat="55.433032" lon="8.617317">
|
|
<ele>2.157002</ele>
|
|
<time>2026-07-11T08:10:05.000Z</time>
|
|
</trkpt>
|
|
<trkpt lat="55.433060" lon="8.617241">
|
|
<ele>2.154464</ele>
|
|
<time>2026-07-11T08:10:06.000Z</time>
|
|
</trkpt>
|
|
<trkpt lat="55.433089" lon="8.617162">
|
|
<ele>2.151828</ele>
|
|
<time>2026-07-11T08:10:07.000Z</time>
|
|
</trkpt>
|
|
<trkpt lat="55.433120" lon="8.617084">
|
|
<ele>2.149161</ele>
|
|
<time>2026-07-11T08:10:08.000Z</time>
|
|
</trkpt>
|
|
<trkpt lat="55.433150" lon="8.617003">
|
|
<ele>2.146452</ele>
|
|
<time>2026-07-11T08:10:09.000Z</time>
|
|
</trkpt>
|
|
<trkpt lat="55.433181" lon="8.616923">
|
|
<ele>2.143739</ele>
|
|
<time>2026-07-11T08:10:10.000Z</time>
|
|
</trkpt>
|
|
<trkpt lat="55.433211" lon="8.616842">
|
|
<ele>2.141030</ele>
|
|
<time>2026-07-11T08:10:11.000Z</time>
|
|
</trkpt>
|
|
<trkpt lat="55.433242" lon="8.616758">
|
|
<ele>2.138223</ele>
|
|
<time>2026-07-11T08:10:12.000Z</time>
|
|
</trkpt>
|
|
<trkpt lat="55.433270" lon="8.616675">
|
|
<ele>2.135519</ele>
|
|
<time>2026-07-11T08:10:13.000Z</time>
|
|
</trkpt>
|
|
<trkpt lat="55.433297" lon="8.616590">
|
|
<ele>2.132791</ele>
|
|
<time>2026-07-11T08:10:14.000Z</time>
|
|
</trkpt>
|
|
<trkpt lat="55.433324" lon="8.616504">
|
|
<ele>2.130038</ele>
|
|
<time>2026-07-11T08:10:15.000Z</time>
|
|
</trkpt>
|
|
<trkpt lat="55.433352" lon="8.616418">
|
|
<ele>2.127261</ele>
|
|
<time>2026-07-11T08:10:16.000Z</time>
|
|
</trkpt>
|
|
<trkpt lat="55.433381" lon="8.616331">
|
|
<ele>2.124435</ele>
|
|
<time>2026-07-11T08:10:17.000Z</time>
|
|
</trkpt>
|
|
<trkpt lat="55.433408" lon="8.616243">
|
|
<ele>2.121633</ele>
|
|
<time>2026-07-11T08:10:18.000Z</time>
|
|
</trkpt>
|
|
<trkpt lat="55.433433" lon="8.616154">
|
|
<ele>2.118825</ele>
|
|
<time>2026-07-11T08:10:19.000Z</time>
|
|
</trkpt>
|
|
<trkpt lat="55.433457" lon="8.616064">
|
|
<ele>2.115999</ele>
|
|
<time>2026-07-11T08:10:20.000Z</time>
|
|
</trkpt>
|
|
<trkpt lat="55.433482" lon="8.615973">
|
|
<ele>2.113126</ele>
|
|
<time>2026-07-11T08:10:21.000Z</time>
|
|
</trkpt>
|
|
<trkpt lat="55.433503" lon="8.615881">
|
|
<ele>2.110308</ele>
|
|
<time>2026-07-11T08:10:22.000Z</time>
|
|
</trkpt>
|
|
<trkpt lat="55.433524" lon="8.615790">
|
|
<ele>2.107516</ele>
|
|
<time>2026-07-11T08:10:23.000Z</time>
|
|
</trkpt>
|
|
<trkpt lat="55.433547" lon="8.615698">
|
|
<ele>2.104659</ele>
|
|
<time>2026-07-11T08:10:24.000Z</time>
|
|
</trkpt>
|
|
<trkpt lat="55.433568" lon="8.615606">
|
|
<ele>2.101841</ele>
|
|
<time>2026-07-11T08:10:25.000Z</time>
|
|
</trkpt>
|
|
<trkpt lat="55.433586" lon="8.615514">
|
|
<ele>2.099076</ele>
|
|
<time>2026-07-11T08:10:26.000Z</time>
|
|
</trkpt>
|
|
<trkpt lat="55.433603" lon="8.615422">
|
|
<ele>2.096326</ele>
|
|
<time>2026-07-11T08:10:27.000Z</time>
|
|
</trkpt>
|
|
<trkpt lat="55.433622" lon="8.615330">
|
|
<ele>2.093544</ele>
|
|
<time>2026-07-11T08:10:28.000Z</time>
|
|
</trkpt>
|
|
<trkpt lat="55.433639" lon="8.615238">
|
|
<ele>2.090795</ele>
|
|
<time>2026-07-11T08:10:29.000Z</time>
|
|
</trkpt>
|
|
<trkpt lat="55.433656" lon="8.615146">
|
|
<ele>2.088045</ele>
|
|
<time>2026-07-11T08:10:30.000Z</time>
|
|
</trkpt>
|
|
<trkpt lat="55.433673" lon="8.615053">
|
|
<ele>2.085269</ele>
|
|
<time>2026-07-11T08:10:31.000Z</time>
|
|
</trkpt>
|
|
<trkpt lat="55.433687" lon="8.614959">
|
|
<ele>2.082507</ele>
|
|
<time>2026-07-11T08:10:32.000Z</time>
|
|
</trkpt>
|
|
<trkpt lat="55.433698" lon="8.614867">
|
|
<ele>2.079835</ele>
|
|
<time>2026-07-11T08:10:33.000Z</time>
|
|
</trkpt>
|
|
<trkpt lat="55.433710" lon="8.614773">
|
|
<ele>2.077098</ele>
|
|
<time>2026-07-11T08:10:34.000Z</time>
|
|
</trkpt>
|
|
<trkpt lat="55.433721" lon="8.614678">
|
|
<ele>2.074342</ele>
|
|
<time>2026-07-11T08:10:35.000Z</time>
|
|
</trkpt>
|
|
<trkpt lat="55.433731" lon="8.614584">
|
|
<ele>2.071625</ele>
|
|
<time>2026-07-11T08:10:36.000Z</time>
|
|
</trkpt>
|
|
<trkpt lat="55.433738" lon="8.614489">
|
|
<ele>2.068902</ele>
|
|
<time>2026-07-11T08:10:37.000Z</time>
|
|
</trkpt>
|
|
<trkpt lat="55.433746" lon="8.614392">
|
|
<ele>2.066117</ele>
|
|
<time>2026-07-11T08:10:38.000Z</time>
|
|
</trkpt>
|
|
<trkpt lat="55.433752" lon="8.614295">
|
|
<ele>2.063344</ele>
|
|
<time>2026-07-11T08:10:39.000Z</time>
|
|
</trkpt>
|
|
<trkpt lat="55.433756" lon="8.614197">
|
|
<ele>2.060552</ele>
|
|
<time>2026-07-11T08:10:40.000Z</time>
|
|
</trkpt>
|
|
<trkpt lat="55.433758" lon="8.614100">
|
|
<ele>2.057794</ele>
|
|
<time>2026-07-11T08:10:41.000Z</time>
|
|
</trkpt>
|
|
<trkpt lat="55.433758" lon="8.614001">
|
|
<ele>2.054981</ele>
|
|
<time>2026-07-11T08:10:42.000Z</time>
|
|
</trkpt>
|
|
<trkpt lat="55.433756" lon="8.613900">
|
|
<ele>2.052109</ele>
|
|
<time>2026-07-11T08:10:43.000Z</time>
|
|
</trkpt>
|
|
<trkpt lat="55.433752" lon="8.613799">
|
|
<ele>2.049232</ele>
|
|
<time>2026-07-11T08:10:44.000Z</time>
|
|
</trkpt>
|
|
<trkpt lat="55.433748" lon="8.613699">
|
|
<ele>2.046384</ele>
|
|
<time>2026-07-11T08:10:45.000Z</time>
|
|
</trkpt>
|
|
<trkpt lat="55.433745" lon="8.613602">
|
|
<ele>2.043623</ele>
|
|
<time>2026-07-11T08:10:46.000Z</time>
|
|
</trkpt>
|
|
<trkpt lat="55.433739" lon="8.613504">
|
|
<ele>2.040822</ele>
|
|
<time>2026-07-11T08:10:47.000Z</time>
|
|
</trkpt>
|
|
<trkpt lat="55.433730" lon="8.613403">
|
|
<ele>2.037917</ele>
|
|
<time>2026-07-11T08:10:48.000Z</time>
|
|
</trkpt>
|
|
<trkpt lat="55.433717" lon="8.613303">
|
|
<ele>2.035002</ele>
|
|
<time>2026-07-11T08:10:49.000Z</time>
|
|
</trkpt>
|
|
<trkpt lat="55.433703" lon="8.613202">
|
|
<ele>2.032047</ele>
|
|
<time>2026-07-11T08:10:50.000Z</time>
|
|
</trkpt>
|
|
<trkpt lat="55.433690" lon="8.613100">
|
|
<ele>2.026701</ele>
|
|
<time>2026-07-11T08:10:51.000Z</time>
|
|
</trkpt>
|
|
<trkpt lat="55.433673" lon="8.612999">
|
|
<ele>2.019106</ele>
|
|
<time>2026-07-11T08:10:52.000Z</time>
|
|
</trkpt>
|
|
<trkpt lat="55.433652" lon="8.612900">
|
|
<ele>2.011487</ele>
|
|
<time>2026-07-11T08:10:53.000Z</time>
|
|
</trkpt>
|
|
<trkpt lat="55.433627" lon="8.612805">
|
|
<ele>2.003938</ele>
|
|
<time>2026-07-11T08:10:54.000Z</time>
|
|
</trkpt>
|
|
<trkpt lat="55.433599" lon="8.612714">
|
|
<ele>1.996475</ele>
|
|
<time>2026-07-11T08:10:55.000Z</time>
|
|
</trkpt>
|
|
<trkpt lat="55.433567" lon="8.612630">
|
|
<ele>1.989181</ele>
|
|
<time>2026-07-11T08:10:56.000Z</time>
|
|
</trkpt>
|
|
<trkpt lat="55.433531" lon="8.612550">
|
|
<ele>1.981821</ele>
|
|
<time>2026-07-11T08:10:57.000Z</time>
|
|
</trkpt>
|
|
<trkpt lat="55.433492" lon="8.612477">
|
|
<ele>1.974592</ele>
|
|
<time>2026-07-11T08:10:58.000Z</time>
|
|
</trkpt>
|
|
<trkpt lat="55.433454" lon="8.612409">
|
|
<ele>1.967712</ele>
|
|
<time>2026-07-11T08:10:59.000Z</time>
|
|
</trkpt>
|
|
<trkpt lat="55.433418" lon="8.612340">
|
|
<ele>1.960954</ele>
|
|
<time>2026-07-11T08:11:00.000Z</time>
|
|
</trkpt>
|
|
<trkpt lat="55.433385" lon="8.612266">
|
|
<ele>1.954169</ele>
|
|
<time>2026-07-11T08:11:01.000Z</time>
|
|
</trkpt>
|
|
<trkpt lat="55.433358" lon="8.612184">
|
|
<ele>1.947334</ele>
|
|
<time>2026-07-11T08:11:02.000Z</time>
|
|
</trkpt>
|
|
<trkpt lat="55.433337" lon="8.612097">
|
|
<ele>1.940519</ele>
|
|
<time>2026-07-11T08:11:03.000Z</time>
|
|
</trkpt>
|
|
<trkpt lat="55.433318" lon="8.612006">
|
|
<ele>1.933529</ele>
|
|
<time>2026-07-11T08:11:04.000Z</time>
|
|
</trkpt>
|
|
<trkpt lat="55.433301" lon="8.611912">
|
|
<ele>1.926416</ele>
|
|
<time>2026-07-11T08:11:05.000Z</time>
|
|
</trkpt>
|
|
<trkpt lat="55.433284" lon="8.611813">
|
|
<ele>1.918960</ele>
|
|
<time>2026-07-11T08:11:06.000Z</time>
|
|
</trkpt>
|
|
<trkpt lat="55.433268" lon="8.611715">
|
|
<ele>1.911608</ele>
|
|
<time>2026-07-11T08:11:07.000Z</time>
|
|
</trkpt>
|
|
<trkpt lat="55.433255" lon="8.611619">
|
|
<ele>1.904493</ele>
|
|
<time>2026-07-11T08:11:08.000Z</time>
|
|
</trkpt>
|
|
<trkpt lat="55.433241" lon="8.611523">
|
|
<ele>1.897348</ele>
|
|
<time>2026-07-11T08:11:09.000Z</time>
|
|
</trkpt>
|
|
<trkpt lat="55.433230" lon="8.611428">
|
|
<ele>1.890358</ele>
|
|
<time>2026-07-11T08:11:10.000Z</time>
|
|
</trkpt>
|
|
<trkpt lat="55.433220" lon="8.611336">
|
|
<ele>1.883605</ele>
|
|
<time>2026-07-11T08:11:11.000Z</time>
|
|
</trkpt>
|
|
<trkpt lat="55.433211" lon="8.611246">
|
|
<ele>1.877017</ele>
|
|
<time>2026-07-11T08:11:12.000Z</time>
|
|
</trkpt>
|
|
<trkpt lat="55.433198" lon="8.611156">
|
|
<ele>1.870322</ele>
|
|
<time>2026-07-11T08:11:13.000Z</time>
|
|
</trkpt>
|
|
<trkpt lat="55.433184" lon="8.611068">
|
|
<ele>1.863734</ele>
|
|
<time>2026-07-11T08:11:14.000Z</time>
|
|
</trkpt>
|
|
<trkpt lat="55.433171" lon="8.610976">
|
|
<ele>1.856899</ele>
|
|
<time>2026-07-11T08:11:15.000Z</time>
|
|
</trkpt>
|
|
<trkpt lat="55.433157" lon="8.610881">
|
|
<ele>1.849823</ele>
|
|
<time>2026-07-11T08:11:16.000Z</time>
|
|
</trkpt>
|
|
<trkpt lat="55.433146" lon="8.610788">
|
|
<ele>1.842975</ele>
|
|
<time>2026-07-11T08:11:17.000Z</time>
|
|
</trkpt>
|
|
<trkpt lat="55.433137" lon="8.610692">
|
|
<ele>1.835960</ele>
|
|
<time>2026-07-11T08:11:18.000Z</time>
|
|
</trkpt>
|
|
<trkpt lat="55.433129" lon="8.610593">
|
|
<ele>1.828752</ele>
|
|
<time>2026-07-11T08:11:19.000Z</time>
|
|
</trkpt>
|
|
<trkpt lat="55.433121" lon="8.610494">
|
|
<ele>1.821543</ele>
|
|
<time>2026-07-11T08:11:20.000Z</time>
|
|
</trkpt>
|
|
<trkpt lat="55.433115" lon="8.610393">
|
|
<ele>1.814222</ele>
|
|
<time>2026-07-11T08:11:21.000Z</time>
|
|
</trkpt>
|
|
<trkpt lat="55.433111" lon="8.610295">
|
|
<ele>1.807139</ele>
|
|
<time>2026-07-11T08:11:22.000Z</time>
|
|
</trkpt>
|
|
<trkpt lat="55.433109" lon="8.610199">
|
|
<ele>1.803525</ele>
|
|
<time>2026-07-11T08:11:23.000Z</time>
|
|
</trkpt>
|
|
<trkpt lat="55.433108" lon="8.610099">
|
|
<ele>1.809052</ele>
|
|
<time>2026-07-11T08:11:24.000Z</time>
|
|
</trkpt>
|
|
<trkpt lat="55.433106" lon="8.609997">
|
|
<ele>1.814692</ele>
|
|
<time>2026-07-11T08:11:25.000Z</time>
|
|
</trkpt>
|
|
<trkpt lat="55.433106" lon="8.609895">
|
|
<ele>1.820329</ele>
|
|
<time>2026-07-11T08:11:26.000Z</time>
|
|
</trkpt>
|
|
<trkpt lat="55.433106" lon="8.609793">
|
|
<ele>1.825965</ele>
|
|
<time>2026-07-11T08:11:27.000Z</time>
|
|
</trkpt>
|
|
<trkpt lat="55.433104" lon="8.609691">
|
|
<ele>1.831605</ele>
|
|
<time>2026-07-11T08:11:28.000Z</time>
|
|
</trkpt>
|
|
<trkpt lat="55.433103" lon="8.609589">
|
|
<ele>1.837243</ele>
|
|
<time>2026-07-11T08:11:29.000Z</time>
|
|
</trkpt>
|
|
<trkpt lat="55.433107" lon="8.609489">
|
|
<ele>1.842783</ele>
|
|
<time>2026-07-11T08:11:30.000Z</time>
|
|
</trkpt>
|
|
<trkpt lat="55.433111" lon="8.609390">
|
|
<ele>1.848268</ele>
|
|
<time>2026-07-11T08:11:31.000Z</time>
|
|
</trkpt>
|
|
<trkpt lat="55.433115" lon="8.609292">
|
|
<ele>1.853697</ele>
|
|
<time>2026-07-11T08:11:32.000Z</time>
|
|
</trkpt>
|
|
<trkpt lat="55.433122" lon="8.609195">
|
|
<ele>1.859101</ele>
|
|
<time>2026-07-11T08:11:33.000Z</time>
|
|
</trkpt>
|
|
<trkpt lat="55.433132" lon="8.609099">
|
|
<ele>1.864495</ele>
|
|
<time>2026-07-11T08:11:34.000Z</time>
|
|
</trkpt>
|
|
<trkpt lat="55.433139" lon="8.609003">
|
|
<ele>1.869844</ele>
|
|
<time>2026-07-11T08:11:35.000Z</time>
|
|
</trkpt>
|
|
<trkpt lat="55.433149" lon="8.608906">
|
|
<ele>1.875292</ele>
|
|
<time>2026-07-11T08:11:36.000Z</time>
|
|
</trkpt>
|
|
<trkpt lat="55.433162" lon="8.608811">
|
|
<ele>1.880692</ele>
|
|
<time>2026-07-11T08:11:37.000Z</time>
|
|
</trkpt>
|
|
<trkpt lat="55.433175" lon="8.608713">
|
|
<ele>1.886254</ele>
|
|
<time>2026-07-11T08:11:38.000Z</time>
|
|
</trkpt>
|
|
<trkpt lat="55.433189" lon="8.608615">
|
|
<ele>1.891839</ele>
|
|
<time>2026-07-11T08:11:39.000Z</time>
|
|
</trkpt>
|
|
<trkpt lat="55.433202" lon="8.608517">
|
|
<ele>1.897400</ele>
|
|
<time>2026-07-11T08:11:40.000Z</time>
|
|
</trkpt>
|
|
<trkpt lat="55.433214" lon="8.608421">
|
|
<ele>1.902833</ele>
|
|
<time>2026-07-11T08:11:41.000Z</time>
|
|
</trkpt>
|
|
<trkpt lat="55.433227" lon="8.608324">
|
|
<ele>1.908341</ele>
|
|
<time>2026-07-11T08:11:42.000Z</time>
|
|
</trkpt>
|
|
<trkpt lat="55.433239" lon="8.608227">
|
|
<ele>1.913827</ele>
|
|
<time>2026-07-11T08:11:43.000Z</time>
|
|
</trkpt>
|
|
<trkpt lat="55.433246" lon="8.608131">
|
|
<ele>1.919176</ele>
|
|
<time>2026-07-11T08:11:44.000Z</time>
|
|
</trkpt>
|
|
<trkpt lat="55.433252" lon="8.608033">
|
|
<ele>1.924623</ele>
|
|
<time>2026-07-11T08:11:45.000Z</time>
|
|
</trkpt>
|
|
<trkpt lat="55.433256" lon="8.607936">
|
|
<ele>1.929997</ele>
|
|
<time>2026-07-11T08:11:46.000Z</time>
|
|
</trkpt>
|
|
<trkpt lat="55.433258" lon="8.607841">
|
|
<ele>1.935251</ele>
|
|
<time>2026-07-11T08:11:47.000Z</time>
|
|
</trkpt>
|
|
<trkpt lat="55.433256" lon="8.607747">
|
|
<ele>1.940449</ele>
|
|
<time>2026-07-11T08:11:48.000Z</time>
|
|
</trkpt>
|
|
<trkpt lat="55.433251" lon="8.607655">
|
|
<ele>1.945557</ele>
|
|
<time>2026-07-11T08:11:49.000Z</time>
|
|
</trkpt>
|
|
<trkpt lat="55.433243" lon="8.607563">
|
|
<ele>1.950700</ele>
|
|
<time>2026-07-11T08:11:50.000Z</time>
|
|
</trkpt>
|
|
<trkpt lat="55.433239" lon="8.607471">
|
|
<ele>1.955799</ele>
|
|
<time>2026-07-11T08:11:51.000Z</time>
|
|
</trkpt>
|
|
<trkpt lat="55.433242" lon="8.607380">
|
|
<ele>1.960836</ele>
|
|
<time>2026-07-11T08:11:52.000Z</time>
|
|
</trkpt>
|
|
<trkpt lat="55.433254" lon="8.607288">
|
|
<ele>1.966053</ele>
|
|
<time>2026-07-11T08:11:53.000Z</time>
|
|
</trkpt>
|
|
<trkpt lat="55.433267" lon="8.607199">
|
|
<ele>1.971132</ele>
|
|
<time>2026-07-11T08:11:54.000Z</time>
|
|
</trkpt>
|
|
<trkpt lat="55.433284" lon="8.607114">
|
|
<ele>1.976112</ele>
|
|
<time>2026-07-11T08:11:55.000Z</time>
|
|
</trkpt>
|
|
<trkpt lat="55.433307" lon="8.607039">
|
|
<ele>1.990649</ele>
|
|
<time>2026-07-11T08:11:56.000Z</time>
|
|
</trkpt>
|
|
<trkpt lat="55.433331" lon="8.606971">
|
|
<ele>2.007335</ele>
|
|
<time>2026-07-11T08:11:57.000Z</time>
|
|
</trkpt>
|
|
<trkpt lat="55.433356" lon="8.606906">
|
|
<ele>2.023697</ele>
|
|
<time>2026-07-11T08:11:58.000Z</time>
|
|
</trkpt>
|
|
<trkpt lat="55.433377" lon="8.606835">
|
|
<ele>2.040380</ele>
|
|
<time>2026-07-11T08:11:59.000Z</time>
|
|
</trkpt>
|
|
<trkpt lat="55.433396" lon="8.606766">
|
|
<ele>2.056361</ele>
|
|
<time>2026-07-11T08:12:00.000Z</time>
|
|
</trkpt>
|
|
<trkpt lat="55.433414" lon="8.606700">
|
|
<ele>2.071619</ele>
|
|
<time>2026-07-11T08:12:01.000Z</time>
|
|
</trkpt>
|
|
<trkpt lat="55.433429" lon="8.606633">
|
|
<ele>2.086627</ele>
|
|
<time>2026-07-11T08:12:02.000Z</time>
|
|
</trkpt>
|
|
<trkpt lat="55.433444" lon="8.606570">
|
|
<ele>2.100862</ele>
|
|
<time>2026-07-11T08:12:03.000Z</time>
|
|
</trkpt>
|
|
<trkpt lat="55.433457" lon="8.606509">
|
|
<ele>2.114439</ele>
|
|
<time>2026-07-11T08:12:04.000Z</time>
|
|
</trkpt>
|
|
<trkpt lat="55.433468" lon="8.606453">
|
|
<ele>2.126787</ele>
|
|
<time>2026-07-11T08:12:05.000Z</time>
|
|
</trkpt>
|
|
<trkpt lat="55.433473" lon="8.606407">
|
|
<ele>2.136546</ele>
|
|
<time>2026-07-11T08:12:06.000Z</time>
|
|
</trkpt>
|
|
<trkpt lat="55.433477" lon="8.606371">
|
|
<ele>2.144189</ele>
|
|
<time>2026-07-11T08:12:07.000Z</time>
|
|
</trkpt>
|
|
<trkpt lat="55.433481" lon="8.606341">
|
|
<ele>2.150610</ele>
|
|
<time>2026-07-11T08:12:08.000Z</time>
|
|
</trkpt>
|
|
<trkpt lat="55.433490" lon="8.606313">
|
|
<ele>2.157316</ele>
|
|
<time>2026-07-11T08:12:09.000Z</time>
|
|
</trkpt>
|
|
<trkpt lat="55.433505" lon="8.606285">
|
|
<ele>2.165339</ele>
|
|
<time>2026-07-11T08:12:10.000Z</time>
|
|
</trkpt>
|
|
<trkpt lat="55.433524" lon="8.606250">
|
|
<ele>2.175432</ele>
|
|
<time>2026-07-11T08:12:11.000Z</time>
|
|
</trkpt>
|
|
<trkpt lat="55.433545" lon="8.606207">
|
|
<ele>2.187254</ele>
|
|
<time>2026-07-11T08:12:12.000Z</time>
|
|
</trkpt>
|
|
<trkpt lat="55.433562" lon="8.606158">
|
|
<ele>2.199221</ele>
|
|
<time>2026-07-11T08:12:13.000Z</time>
|
|
</trkpt>
|
|
<trkpt lat="55.433578" lon="8.606103">
|
|
<ele>2.212099</ele>
|
|
<time>2026-07-11T08:12:14.000Z</time>
|
|
</trkpt>
|
|
<trkpt lat="55.433595" lon="8.606044">
|
|
<ele>2.225887</ele>
|
|
<time>2026-07-11T08:12:15.000Z</time>
|
|
</trkpt>
|
|
<trkpt lat="55.433611" lon="8.605981">
|
|
<ele>2.240269</ele>
|
|
<time>2026-07-11T08:12:16.000Z</time>
|
|
</trkpt>
|
|
<trkpt lat="55.433626" lon="8.605916">
|
|
<ele>2.254890</ele>
|
|
<time>2026-07-11T08:12:17.000Z</time>
|
|
</trkpt>
|
|
<trkpt lat="55.433645" lon="8.605852">
|
|
<ele>2.269940</ele>
|
|
<time>2026-07-11T08:12:18.000Z</time>
|
|
</trkpt>
|
|
<trkpt lat="55.433664" lon="8.605786">
|
|
<ele>2.285360</ele>
|
|
<time>2026-07-11T08:12:19.000Z</time>
|
|
</trkpt>
|
|
<trkpt lat="55.433684" lon="8.605719">
|
|
<ele>2.301135</ele>
|
|
<time>2026-07-11T08:12:20.000Z</time>
|
|
</trkpt>
|
|
<trkpt lat="55.433705" lon="8.605652">
|
|
<ele>2.317083</ele>
|
|
<time>2026-07-11T08:12:21.000Z</time>
|
|
</trkpt>
|
|
<trkpt lat="55.433726" lon="8.605585">
|
|
<ele>2.333032</ele>
|
|
<time>2026-07-11T08:12:22.000Z</time>
|
|
</trkpt>
|
|
<trkpt lat="55.433747" lon="8.605518">
|
|
<ele>2.348981</ele>
|
|
<time>2026-07-11T08:12:23.000Z</time>
|
|
</trkpt>
|
|
<trkpt lat="55.433768" lon="8.605452">
|
|
<ele>2.364747</ele>
|
|
<time>2026-07-11T08:12:24.000Z</time>
|
|
</trkpt>
|
|
<trkpt lat="55.433791" lon="8.605387">
|
|
<ele>2.380709</ele>
|
|
<time>2026-07-11T08:12:25.000Z</time>
|
|
</trkpt>
|
|
<trkpt lat="55.433814" lon="8.605322">
|
|
<ele>2.396670</ele>
|
|
<time>2026-07-11T08:12:26.000Z</time>
|
|
</trkpt>
|
|
<trkpt lat="55.433837" lon="8.605257">
|
|
<ele>2.412631</ele>
|
|
<time>2026-07-11T08:12:27.000Z</time>
|
|
</trkpt>
|
|
<trkpt lat="55.433860" lon="8.605192">
|
|
<ele>2.428593</ele>
|
|
<time>2026-07-11T08:12:28.000Z</time>
|
|
</trkpt>
|
|
<trkpt lat="55.433883" lon="8.605127">
|
|
<ele>2.444554</ele>
|
|
<time>2026-07-11T08:12:29.000Z</time>
|
|
</trkpt>
|
|
<trkpt lat="55.433906" lon="8.605062">
|
|
<ele>2.460515</ele>
|
|
<time>2026-07-11T08:12:30.000Z</time>
|
|
</trkpt>
|
|
<trkpt lat="55.433930" lon="8.604997">
|
|
<ele>2.476674</ele>
|
|
<time>2026-07-11T08:12:31.000Z</time>
|
|
</trkpt>
|
|
<trkpt lat="55.433955" lon="8.604934">
|
|
<ele>2.492693</ele>
|
|
<time>2026-07-11T08:12:32.000Z</time>
|
|
</trkpt>
|
|
<trkpt lat="55.433980" lon="8.604869">
|
|
<ele>2.509054</ele>
|
|
<time>2026-07-11T08:12:33.000Z</time>
|
|
</trkpt>
|
|
<trkpt lat="55.434007" lon="8.604806">
|
|
<ele>2.525505</ele>
|
|
<time>2026-07-11T08:12:34.000Z</time>
|
|
</trkpt>
|
|
<trkpt lat="55.434033" lon="8.604743">
|
|
<ele>2.541737</ele>
|
|
<time>2026-07-11T08:12:35.000Z</time>
|
|
</trkpt>
|
|
<trkpt lat="55.434058" lon="8.604681">
|
|
<ele>2.557585</ele>
|
|
<time>2026-07-11T08:12:36.000Z</time>
|
|
</trkpt>
|
|
<trkpt lat="55.434083" lon="8.604618">
|
|
<ele>2.573604</ele>
|
|
<time>2026-07-11T08:12:37.000Z</time>
|
|
</trkpt>
|
|
<trkpt lat="55.434108" lon="8.604552">
|
|
<ele>2.590139</ele>
|
|
<time>2026-07-11T08:12:38.000Z</time>
|
|
</trkpt>
|
|
<trkpt lat="55.434132" lon="8.604486">
|
|
<ele>2.606472</ele>
|
|
<time>2026-07-11T08:12:39.000Z</time>
|
|
</trkpt>
|
|
<trkpt lat="55.434159" lon="8.604417">
|
|
<ele>2.623937</ele>
|
|
<time>2026-07-11T08:12:40.000Z</time>
|
|
</trkpt>
|
|
<trkpt lat="55.434184" lon="8.604347">
|
|
<ele>2.638763</ele>
|
|
<time>2026-07-11T08:12:41.000Z</time>
|
|
</trkpt>
|
|
<trkpt lat="55.434210" lon="8.604276">
|
|
<ele>2.643736</ele>
|
|
<time>2026-07-11T08:12:42.000Z</time>
|
|
</trkpt>
|
|
<trkpt lat="55.434239" lon="8.604206">
|
|
<ele>2.648836</ele>
|
|
<time>2026-07-11T08:12:43.000Z</time>
|
|
</trkpt>
|
|
<trkpt lat="55.434265" lon="8.604136">
|
|
<ele>2.653760</ele>
|
|
<time>2026-07-11T08:12:44.000Z</time>
|
|
</trkpt>
|
|
<trkpt lat="55.434294" lon="8.604064">
|
|
<ele>2.658956</ele>
|
|
<time>2026-07-11T08:12:45.000Z</time>
|
|
</trkpt>
|
|
<trkpt lat="55.434323" lon="8.603993">
|
|
<ele>2.664104</ele>
|
|
<time>2026-07-11T08:12:46.000Z</time>
|
|
</trkpt>
|
|
<trkpt lat="55.434352" lon="8.603922">
|
|
<ele>2.669252</ele>
|
|
<time>2026-07-11T08:12:47.000Z</time>
|
|
</trkpt>
|
|
<trkpt lat="55.434380" lon="8.603851">
|
|
<ele>2.674340</ele>
|
|
<time>2026-07-11T08:12:48.000Z</time>
|
|
</trkpt>
|
|
<trkpt lat="55.434407" lon="8.603779">
|
|
<ele>2.679419</ele>
|
|
<time>2026-07-11T08:12:49.000Z</time>
|
|
</trkpt>
|
|
<trkpt lat="55.434434" lon="8.603708">
|
|
<ele>2.684449</ele>
|
|
<time>2026-07-11T08:12:50.000Z</time>
|
|
</trkpt>
|
|
<trkpt lat="55.434461" lon="8.603635">
|
|
<ele>2.689577</ele>
|
|
<time>2026-07-11T08:12:51.000Z</time>
|
|
</trkpt>
|
|
<trkpt lat="55.434489" lon="8.603565">
|
|
<ele>2.694616</ele>
|
|
<time>2026-07-11T08:12:52.000Z</time>
|
|
</trkpt>
|
|
<trkpt lat="55.434520" lon="8.603495">
|
|
<ele>2.699842</ele>
|
|
<time>2026-07-11T08:12:53.000Z</time>
|
|
</trkpt>
|
|
<trkpt lat="55.434550" lon="8.603424">
|
|
<ele>2.705051</ele>
|
|
<time>2026-07-11T08:12:54.000Z</time>
|
|
</trkpt>
|
|
<trkpt lat="55.434579" lon="8.603353">
|
|
<ele>2.710199</ele>
|
|
<time>2026-07-11T08:12:55.000Z</time>
|
|
</trkpt>
|
|
<trkpt lat="55.434607" lon="8.603283">
|
|
<ele>2.715239</ele>
|
|
<time>2026-07-11T08:12:56.000Z</time>
|
|
</trkpt>
|
|
<trkpt lat="55.434637" lon="8.603212">
|
|
<ele>2.720449</ele>
|
|
<time>2026-07-11T08:12:57.000Z</time>
|
|
</trkpt>
|
|
<trkpt lat="55.434666" lon="8.603141">
|
|
<ele>2.725597</ele>
|
|
<time>2026-07-11T08:12:58.000Z</time>
|
|
</trkpt>
|
|
<trkpt lat="55.434695" lon="8.603069">
|
|
<ele>2.730793</ele>
|
|
<time>2026-07-11T08:12:59.000Z</time>
|
|
</trkpt>
|
|
<trkpt lat="55.434724" lon="8.602998">
|
|
<ele>2.735941</ele>
|
|
<time>2026-07-11T08:13:00.000Z</time>
|
|
</trkpt>
|
|
<trkpt lat="55.434750" lon="8.602926">
|
|
<ele>2.740963</ele>
|
|
<time>2026-07-11T08:13:01.000Z</time>
|
|
</trkpt>
|
|
<trkpt lat="55.434777" lon="8.602852">
|
|
<ele>2.746140</ele>
|
|
<time>2026-07-11T08:13:02.000Z</time>
|
|
</trkpt>
|
|
<trkpt lat="55.434804" lon="8.602780">
|
|
<ele>2.751219</ele>
|
|
<time>2026-07-11T08:13:03.000Z</time>
|
|
</trkpt>
|
|
<trkpt lat="55.434832" lon="8.602707">
|
|
<ele>2.756404</ele>
|
|
<time>2026-07-11T08:13:04.000Z</time>
|
|
</trkpt>
|
|
<trkpt lat="55.434861" lon="8.602635">
|
|
<ele>2.761600</ele>
|
|
<time>2026-07-11T08:13:05.000Z</time>
|
|
</trkpt>
|
|
<trkpt lat="55.434889" lon="8.602563">
|
|
<ele>2.766737</ele>
|
|
<time>2026-07-11T08:13:06.000Z</time>
|
|
</trkpt>
|
|
<trkpt lat="55.434918" lon="8.602491">
|
|
<ele>2.771933</ele>
|
|
<time>2026-07-11T08:13:07.000Z</time>
|
|
</trkpt>
|
|
<trkpt lat="55.434945" lon="8.602417">
|
|
<ele>2.777110</ele>
|
|
<time>2026-07-11T08:13:08.000Z</time>
|
|
</trkpt>
|
|
<trkpt lat="55.434973" lon="8.602346">
|
|
<ele>2.782198</ele>
|
|
<time>2026-07-11T08:13:09.000Z</time>
|
|
</trkpt>
|
|
<trkpt lat="55.435002" lon="8.602275">
|
|
<ele>2.787346</ele>
|
|
<time>2026-07-11T08:13:10.000Z</time>
|
|
</trkpt>
|
|
<trkpt lat="55.435031" lon="8.602204">
|
|
<ele>2.792494</ele>
|
|
<time>2026-07-11T08:13:11.000Z</time>
|
|
</trkpt>
|
|
<trkpt lat="55.435061" lon="8.602133">
|
|
<ele>2.797703</ele>
|
|
<time>2026-07-11T08:13:12.000Z</time>
|
|
</trkpt>
|
|
<trkpt lat="55.435090" lon="8.602061">
|
|
<ele>2.802899</ele>
|
|
<time>2026-07-11T08:13:13.000Z</time>
|
|
</trkpt>
|
|
<trkpt lat="55.435117" lon="8.601988">
|
|
<ele>2.808027</ele>
|
|
<time>2026-07-11T08:13:14.000Z</time>
|
|
</trkpt>
|
|
<trkpt lat="55.435143" lon="8.601915">
|
|
<ele>2.813099</ele>
|
|
<time>2026-07-11T08:13:15.000Z</time>
|
|
</trkpt>
|
|
<trkpt lat="55.435170" lon="8.601843">
|
|
<ele>2.818178</ele>
|
|
<time>2026-07-11T08:13:16.000Z</time>
|
|
</trkpt>
|
|
<trkpt lat="55.435197" lon="8.601770">
|
|
<ele>2.823306</ele>
|
|
<time>2026-07-11T08:13:17.000Z</time>
|
|
</trkpt>
|
|
<trkpt lat="55.435220" lon="8.601694">
|
|
<ele>2.816288</ele>
|
|
<time>2026-07-11T08:13:18.000Z</time>
|
|
</trkpt>
|
|
<trkpt lat="55.435241" lon="8.601616">
|
|
<ele>2.806035</ele>
|
|
<time>2026-07-11T08:13:19.000Z</time>
|
|
</trkpt>
|
|
<trkpt lat="55.435264" lon="8.601541">
|
|
<ele>2.795910</ele>
|
|
<time>2026-07-11T08:13:20.000Z</time>
|
|
</trkpt>
|
|
<trkpt lat="55.435288" lon="8.601465">
|
|
<ele>2.785581</ele>
|
|
<time>2026-07-11T08:13:21.000Z</time>
|
|
</trkpt>
|
|
<trkpt lat="55.435313" lon="8.601389">
|
|
<ele>2.775148</ele>
|
|
<time>2026-07-11T08:13:22.000Z</time>
|
|
</trkpt>
|
|
<trkpt lat="55.435336" lon="8.601312">
|
|
<ele>2.764814</ele>
|
|
<time>2026-07-11T08:13:23.000Z</time>
|
|
</trkpt>
|
|
<trkpt lat="55.435359" lon="8.601234">
|
|
<ele>2.754374</ele>
|
|
<time>2026-07-11T08:13:24.000Z</time>
|
|
</trkpt>
|
|
<trkpt lat="55.435384" lon="8.601155">
|
|
<ele>2.743632</ele>
|
|
<time>2026-07-11T08:13:25.000Z</time>
|
|
</trkpt>
|
|
<trkpt lat="55.435409" lon="8.601075">
|
|
<ele>2.732786</ele>
|
|
<time>2026-07-11T08:13:26.000Z</time>
|
|
</trkpt>
|
|
<trkpt lat="55.435433" lon="8.600993">
|
|
<ele>2.721828</ele>
|
|
<time>2026-07-11T08:13:27.000Z</time>
|
|
</trkpt>
|
|
<trkpt lat="55.435458" lon="8.600909">
|
|
<ele>2.710563</ele>
|
|
<time>2026-07-11T08:13:28.000Z</time>
|
|
</trkpt>
|
|
<trkpt lat="55.435481" lon="8.600824">
|
|
<ele>2.699380</ele>
|
|
<time>2026-07-11T08:13:29.000Z</time>
|
|
</trkpt>
|
|
<trkpt lat="55.435506" lon="8.600740">
|
|
<ele>2.688115</ele>
|
|
<time>2026-07-11T08:13:30.000Z</time>
|
|
</trkpt>
|
|
<trkpt lat="55.435531" lon="8.600657">
|
|
<ele>2.676955</ele>
|
|
<time>2026-07-11T08:13:31.000Z</time>
|
|
</trkpt>
|
|
<trkpt lat="55.435554" lon="8.600578">
|
|
<ele>2.666411</ele>
|
|
<time>2026-07-11T08:13:32.000Z</time>
|
|
</trkpt>
|
|
<trkpt lat="55.435576" lon="8.600498">
|
|
<ele>2.655853</ele>
|
|
<time>2026-07-11T08:13:33.000Z</time>
|
|
</trkpt>
|
|
<trkpt lat="55.435599" lon="8.600414">
|
|
<ele>2.644777</ele>
|
|
<time>2026-07-11T08:13:34.000Z</time>
|
|
</trkpt>
|
|
<trkpt lat="55.435622" lon="8.600329">
|
|
<ele>2.633593</ele>
|
|
<time>2026-07-11T08:13:35.000Z</time>
|
|
</trkpt>
|
|
<trkpt lat="55.435647" lon="8.600244">
|
|
<ele>2.622223</ele>
|
|
<time>2026-07-11T08:13:36.000Z</time>
|
|
</trkpt>
|
|
<trkpt lat="55.435673" lon="8.600160">
|
|
<ele>2.610860</ele>
|
|
<time>2026-07-11T08:13:37.000Z</time>
|
|
</trkpt>
|
|
<trkpt lat="55.435698" lon="8.600071">
|
|
<ele>2.599066</ele>
|
|
<time>2026-07-11T08:13:38.000Z</time>
|
|
</trkpt>
|
|
<trkpt lat="55.435721" lon="8.599980">
|
|
<ele>2.587235</ele>
|
|
<time>2026-07-11T08:13:39.000Z</time>
|
|
</trkpt>
|
|
<trkpt lat="55.435746" lon="8.599891">
|
|
<ele>2.575442</ele>
|
|
<time>2026-07-11T08:13:40.000Z</time>
|
|
</trkpt>
|
|
<trkpt lat="55.435773" lon="8.599802">
|
|
<ele>2.563456</ele>
|
|
<time>2026-07-11T08:13:41.000Z</time>
|
|
</trkpt>
|
|
<trkpt lat="55.435799" lon="8.599713">
|
|
<ele>2.551568</ele>
|
|
<time>2026-07-11T08:13:42.000Z</time>
|
|
</trkpt>
|
|
<trkpt lat="55.435825" lon="8.599624">
|
|
<ele>2.539680</ele>
|
|
<time>2026-07-11T08:13:43.000Z</time>
|
|
</trkpt>
|
|
<trkpt lat="55.435849" lon="8.599536">
|
|
<ele>2.528085</ele>
|
|
<time>2026-07-11T08:13:44.000Z</time>
|
|
</trkpt>
|
|
<trkpt lat="55.435876" lon="8.599447">
|
|
<ele>2.516100</ele>
|
|
<time>2026-07-11T08:13:45.000Z</time>
|
|
</trkpt>
|
|
<trkpt lat="55.435901" lon="8.599358">
|
|
<ele>2.504306</ele>
|
|
<time>2026-07-11T08:13:46.000Z</time>
|
|
</trkpt>
|
|
<trkpt lat="55.435924" lon="8.599270">
|
|
<ele>2.492800</ele>
|
|
<time>2026-07-11T08:13:47.000Z</time>
|
|
</trkpt>
|
|
<trkpt lat="55.435946" lon="8.599184">
|
|
<ele>2.481597</ele>
|
|
<time>2026-07-11T08:13:48.000Z</time>
|
|
</trkpt>
|
|
<trkpt lat="55.435969" lon="8.599096">
|
|
<ele>2.470091</ele>
|
|
<time>2026-07-11T08:13:49.000Z</time>
|
|
</trkpt>
|
|
<trkpt lat="55.435994" lon="8.599009">
|
|
<ele>2.458510</ele>
|
|
<time>2026-07-11T08:13:50.000Z</time>
|
|
</trkpt>
|
|
<trkpt lat="55.436019" lon="8.598923">
|
|
<ele>2.448618</ele>
|
|
<time>2026-07-11T08:13:51.000Z</time>
|
|
</trkpt>
|
|
<trkpt lat="55.436042" lon="8.598837">
|
|
<ele>2.458611</ele>
|
|
<time>2026-07-11T08:13:52.000Z</time>
|
|
</trkpt>
|
|
<trkpt lat="55.436066" lon="8.598749">
|
|
<ele>2.468873</ele>
|
|
<time>2026-07-11T08:13:53.000Z</time>
|
|
</trkpt>
|
|
<trkpt lat="55.436091" lon="8.598662">
|
|
<ele>2.479123</ele>
|
|
<time>2026-07-11T08:13:54.000Z</time>
|
|
</trkpt>
|
|
<trkpt lat="55.436116" lon="8.598574">
|
|
<ele>2.489467</ele>
|
|
<time>2026-07-11T08:13:55.000Z</time>
|
|
</trkpt>
|
|
<trkpt lat="55.436141" lon="8.598486">
|
|
<ele>2.499811</ele>
|
|
<time>2026-07-11T08:13:56.000Z</time>
|
|
</trkpt>
|
|
<trkpt lat="55.436166" lon="8.598399">
|
|
<ele>2.510061</ele>
|
|
<time>2026-07-11T08:13:57.000Z</time>
|
|
</trkpt>
|
|
<trkpt lat="55.436194" lon="8.598313">
|
|
<ele>2.520483</ele>
|
|
<time>2026-07-11T08:13:58.000Z</time>
|
|
</trkpt>
|
|
<trkpt lat="55.436224" lon="8.598228">
|
|
<ele>2.531004</ele>
|
|
<time>2026-07-11T08:13:59.000Z</time>
|
|
</trkpt>
|
|
<trkpt lat="55.436255" lon="8.598140">
|
|
<ele>2.541891</ele>
|
|
<time>2026-07-11T08:14:00.000Z</time>
|
|
</trkpt>
|
|
<trkpt lat="55.436286" lon="8.598054">
|
|
<ele>2.552600</ele>
|
|
<time>2026-07-11T08:14:01.000Z</time>
|
|
</trkpt>
|
|
<trkpt lat="55.436318" lon="8.597970">
|
|
<ele>2.563235</ele>
|
|
<time>2026-07-11T08:14:02.000Z</time>
|
|
</trkpt>
|
|
<trkpt lat="55.436354" lon="8.597889">
|
|
<ele>2.574049</ele>
|
|
<time>2026-07-11T08:14:03.000Z</time>
|
|
</trkpt>
|
|
<trkpt lat="55.436394" lon="8.597811">
|
|
<ele>2.585100</ele>
|
|
<time>2026-07-11T08:14:04.000Z</time>
|
|
</trkpt>
|
|
<trkpt lat="55.436434" lon="8.597734">
|
|
<ele>2.596073</ele>
|
|
<time>2026-07-11T08:14:05.000Z</time>
|
|
</trkpt>
|
|
<trkpt lat="55.436474" lon="8.597660">
|
|
<ele>2.606816</ele>
|
|
<time>2026-07-11T08:14:06.000Z</time>
|
|
</trkpt>
|
|
<trkpt lat="55.436514" lon="8.597589">
|
|
<ele>2.617332</ele>
|
|
<time>2026-07-11T08:14:07.000Z</time>
|
|
</trkpt>
|
|
<trkpt lat="55.436556" lon="8.597521">
|
|
<ele>2.627897</ele>
|
|
<time>2026-07-11T08:14:08.000Z</time>
|
|
</trkpt>
|
|
<trkpt lat="55.436600" lon="8.597456">
|
|
<ele>2.638533</ele>
|
|
<time>2026-07-11T08:14:09.000Z</time>
|
|
</trkpt>
|
|
<trkpt lat="55.436644" lon="8.597392">
|
|
<ele>2.649102</ele>
|
|
<time>2026-07-11T08:14:10.000Z</time>
|
|
</trkpt>
|
|
<trkpt lat="55.436688" lon="8.597327">
|
|
<ele>2.659737</ele>
|
|
<time>2026-07-11T08:14:11.000Z</time>
|
|
</trkpt>
|
|
<trkpt lat="55.436731" lon="8.597264">
|
|
<ele>2.670096</ele>
|
|
<time>2026-07-11T08:14:12.000Z</time>
|
|
</trkpt>
|
|
<trkpt lat="55.436777" lon="8.597200">
|
|
<ele>2.680953</ele>
|
|
<time>2026-07-11T08:14:13.000Z</time>
|
|
</trkpt>
|
|
<trkpt lat="55.436823" lon="8.597136">
|
|
<ele>2.691809</ele>
|
|
<time>2026-07-11T08:14:14.000Z</time>
|
|
</trkpt>
|
|
<trkpt lat="55.436868" lon="8.597072">
|
|
<ele>2.702521</ele>
|
|
<time>2026-07-11T08:14:15.000Z</time>
|
|
</trkpt>
|
|
<trkpt lat="55.436914" lon="8.597007">
|
|
<ele>2.713444</ele>
|
|
<time>2026-07-11T08:14:16.000Z</time>
|
|
</trkpt>
|
|
<trkpt lat="55.436960" lon="8.596943">
|
|
<ele>2.724300</ele>
|
|
<time>2026-07-11T08:14:17.000Z</time>
|
|
</trkpt>
|
|
<trkpt lat="55.437004" lon="8.596880">
|
|
<ele>2.734802</ele>
|
|
<time>2026-07-11T08:14:18.000Z</time>
|
|
</trkpt>
|
|
<trkpt lat="55.437048" lon="8.596817">
|
|
<ele>2.745304</ele>
|
|
<time>2026-07-11T08:14:19.000Z</time>
|
|
</trkpt>
|
|
<trkpt lat="55.437094" lon="8.596754">
|
|
<ele>2.756096</ele>
|
|
<time>2026-07-11T08:14:20.000Z</time>
|
|
</trkpt>
|
|
<trkpt lat="55.437140" lon="8.596690">
|
|
<ele>2.766953</ele>
|
|
<time>2026-07-11T08:14:21.000Z</time>
|
|
</trkpt>
|
|
<trkpt lat="55.437185" lon="8.596625">
|
|
<ele>2.777731</ele>
|
|
<time>2026-07-11T08:14:22.000Z</time>
|
|
</trkpt>
|
|
<trkpt lat="55.437231" lon="8.596560">
|
|
<ele>2.776978</ele>
|
|
<time>2026-07-11T08:14:23.000Z</time>
|
|
</trkpt>
|
|
<trkpt lat="55.437277" lon="8.596496">
|
|
<ele>2.771072</ele>
|
|
<time>2026-07-11T08:14:24.000Z</time>
|
|
</trkpt>
|
|
<trkpt lat="55.437323" lon="8.596431">
|
|
<ele>2.765130</ele>
|
|
<time>2026-07-11T08:14:25.000Z</time>
|
|
</trkpt>
|
|
<trkpt lat="55.437369" lon="8.596368">
|
|
<ele>2.759259</ele>
|
|
<time>2026-07-11T08:14:26.000Z</time>
|
|
</trkpt>
|
|
<trkpt lat="55.437414" lon="8.596306">
|
|
<ele>2.753503</ele>
|
|
<time>2026-07-11T08:14:27.000Z</time>
|
|
</trkpt>
|
|
<trkpt lat="55.437462" lon="8.596243">
|
|
<ele>2.747471</ele>
|
|
<time>2026-07-11T08:14:28.000Z</time>
|
|
</trkpt>
|
|
<trkpt lat="55.437510" lon="8.596180">
|
|
<ele>2.741440</ele>
|
|
<time>2026-07-11T08:14:29.000Z</time>
|
|
</trkpt>
|
|
<trkpt lat="55.437555" lon="8.596115">
|
|
<ele>2.735576</ele>
|
|
<time>2026-07-11T08:14:30.000Z</time>
|
|
</trkpt>
|
|
<trkpt lat="55.437599" lon="8.596049">
|
|
<ele>2.729753</ele>
|
|
<time>2026-07-11T08:14:31.000Z</time>
|
|
</trkpt>
|
|
<trkpt lat="55.437645" lon="8.595983">
|
|
<ele>2.723776</ele>
|
|
<time>2026-07-11T08:14:32.000Z</time>
|
|
</trkpt>
|
|
<trkpt lat="55.437691" lon="8.595919">
|
|
<ele>2.717869</ele>
|
|
<time>2026-07-11T08:14:33.000Z</time>
|
|
</trkpt>
|
|
<trkpt lat="55.437736" lon="8.595857">
|
|
<ele>2.712113</ele>
|
|
<time>2026-07-11T08:14:34.000Z</time>
|
|
</trkpt>
|
|
<trkpt lat="55.437782" lon="8.595795">
|
|
<ele>2.706277</ele>
|
|
<time>2026-07-11T08:14:35.000Z</time>
|
|
</trkpt>
|
|
<trkpt lat="55.437828" lon="8.595731">
|
|
<ele>2.700371</ele>
|
|
<time>2026-07-11T08:14:36.000Z</time>
|
|
</trkpt>
|
|
<trkpt lat="55.437874" lon="8.595667">
|
|
<ele>2.694464</ele>
|
|
<time>2026-07-11T08:14:37.000Z</time>
|
|
</trkpt>
|
|
<trkpt lat="55.437918" lon="8.595602">
|
|
<ele>2.688678</ele>
|
|
<time>2026-07-11T08:14:38.000Z</time>
|
|
</trkpt>
|
|
<trkpt lat="55.437963" lon="8.595536">
|
|
<ele>2.682778</ele>
|
|
<time>2026-07-11T08:14:39.000Z</time>
|
|
</trkpt>
|
|
<trkpt lat="55.438009" lon="8.595471">
|
|
<ele>2.676837</ele>
|
|
<time>2026-07-11T08:14:40.000Z</time>
|
|
</trkpt>
|
|
<trkpt lat="55.438055" lon="8.595407">
|
|
<ele>2.670930</ele>
|
|
<time>2026-07-11T08:14:41.000Z</time>
|
|
</trkpt>
|
|
<trkpt lat="55.438101" lon="8.595341">
|
|
<ele>2.664953</ele>
|
|
<time>2026-07-11T08:14:42.000Z</time>
|
|
</trkpt>
|
|
<trkpt lat="55.438147" lon="8.595275">
|
|
<ele>2.658975</ele>
|
|
<time>2026-07-11T08:14:43.000Z</time>
|
|
</trkpt>
|
|
<trkpt lat="55.438192" lon="8.595209">
|
|
<ele>2.653075</ele>
|
|
<time>2026-07-11T08:14:44.000Z</time>
|
|
</trkpt>
|
|
<trkpt lat="55.438238" lon="8.595144">
|
|
<ele>2.647133</ele>
|
|
<time>2026-07-11T08:14:45.000Z</time>
|
|
</trkpt>
|
|
<trkpt lat="55.438284" lon="8.595080">
|
|
<ele>2.641227</ele>
|
|
<time>2026-07-11T08:14:46.000Z</time>
|
|
</trkpt>
|
|
<trkpt lat="55.438330" lon="8.595015">
|
|
<ele>2.635285</ele>
|
|
<time>2026-07-11T08:14:47.000Z</time>
|
|
</trkpt>
|
|
<trkpt lat="55.438375" lon="8.594952">
|
|
<ele>2.629493</ele>
|
|
<time>2026-07-11T08:14:48.000Z</time>
|
|
</trkpt>
|
|
<trkpt lat="55.438423" lon="8.594888">
|
|
<ele>2.623428</ele>
|
|
<time>2026-07-11T08:14:49.000Z</time>
|
|
</trkpt>
|
|
<trkpt lat="55.438471" lon="8.594824">
|
|
<ele>2.617362</ele>
|
|
<time>2026-07-11T08:14:50.000Z</time>
|
|
</trkpt>
|
|
<trkpt lat="55.438517" lon="8.594759">
|
|
<ele>2.611420</ele>
|
|
<time>2026-07-11T08:14:51.000Z</time>
|
|
</trkpt>
|
|
<trkpt lat="55.438563" lon="8.594693">
|
|
<ele>2.605442</ele>
|
|
<time>2026-07-11T08:14:52.000Z</time>
|
|
</trkpt>
|
|
<trkpt lat="55.438608" lon="8.594627">
|
|
<ele>2.599989</ele>
|
|
<time>2026-07-11T08:14:53.000Z</time>
|
|
</trkpt>
|
|
<trkpt lat="55.438652" lon="8.594559">
|
|
<ele>2.603775</ele>
|
|
<time>2026-07-11T08:14:54.000Z</time>
|
|
</trkpt>
|
|
<trkpt lat="55.438696" lon="8.594491">
|
|
<ele>2.607561</ele>
|
|
<time>2026-07-11T08:14:55.000Z</time>
|
|
</trkpt>
|
|
<trkpt lat="55.438744" lon="8.594424">
|
|
<ele>2.611523</ele>
|
|
<time>2026-07-11T08:14:56.000Z</time>
|
|
</trkpt>
|
|
<trkpt lat="55.438791" lon="8.594355">
|
|
<ele>2.615481</ele>
|
|
<time>2026-07-11T08:14:57.000Z</time>
|
|
</trkpt>
|
|
<trkpt lat="55.438837" lon="8.594288">
|
|
<ele>2.619342</ele>
|
|
<time>2026-07-11T08:14:58.000Z</time>
|
|
</trkpt>
|
|
<trkpt lat="55.438885" lon="8.594222">
|
|
<ele>2.623281</ele>
|
|
<time>2026-07-11T08:14:59.000Z</time>
|
|
</trkpt>
|
|
<trkpt lat="55.438933" lon="8.594156">
|
|
<ele>2.627220</ele>
|
|
<time>2026-07-11T08:15:00.000Z</time>
|
|
</trkpt>
|
|
<trkpt lat="55.438978" lon="8.594088">
|
|
<ele>2.631055</ele>
|
|
<time>2026-07-11T08:15:01.000Z</time>
|
|
</trkpt>
|
|
<trkpt lat="55.439022" lon="8.594020">
|
|
<ele>2.634841</ele>
|
|
<time>2026-07-11T08:15:02.000Z</time>
|
|
</trkpt>
|
|
<trkpt lat="55.439064" lon="8.593953">
|
|
<ele>2.638506</ele>
|
|
<time>2026-07-11T08:15:03.000Z</time>
|
|
</trkpt>
|
|
<trkpt lat="55.439108" lon="8.593885">
|
|
<ele>2.642293</ele>
|
|
<time>2026-07-11T08:15:04.000Z</time>
|
|
</trkpt>
|
|
<trkpt lat="55.439153" lon="8.593817">
|
|
<ele>2.646128</ele>
|
|
<time>2026-07-11T08:15:05.000Z</time>
|
|
</trkpt>
|
|
<trkpt lat="55.439198" lon="8.593746">
|
|
<ele>2.650035</ele>
|
|
<time>2026-07-11T08:15:06.000Z</time>
|
|
</trkpt>
|
|
<trkpt lat="55.439240" lon="8.593677">
|
|
<ele>2.653750</ele>
|
|
<time>2026-07-11T08:15:07.000Z</time>
|
|
</trkpt>
|
|
<trkpt lat="55.439283" lon="8.593610">
|
|
<ele>2.657464</ele>
|
|
<time>2026-07-11T08:15:08.000Z</time>
|
|
</trkpt>
|
|
<trkpt lat="55.439327" lon="8.593542">
|
|
<ele>2.661250</ele>
|
|
<time>2026-07-11T08:15:09.000Z</time>
|
|
</trkpt>
|
|
<trkpt lat="55.439369" lon="8.593469">
|
|
<ele>2.665066</ele>
|
|
<time>2026-07-11T08:15:10.000Z</time>
|
|
</trkpt>
|
|
<trkpt lat="55.439411" lon="8.593396">
|
|
<ele>2.668883</ele>
|
|
<time>2026-07-11T08:15:11.000Z</time>
|
|
</trkpt>
|
|
<trkpt lat="55.439451" lon="8.593324">
|
|
<ele>2.672582</ele>
|
|
<time>2026-07-11T08:15:12.000Z</time>
|
|
</trkpt>
|
|
<trkpt lat="55.439491" lon="8.593249">
|
|
<ele>2.676360</ele>
|
|
<time>2026-07-11T08:15:13.000Z</time>
|
|
</trkpt>
|
|
<trkpt lat="55.439530" lon="8.593173">
|
|
<ele>2.680122</ele>
|
|
<time>2026-07-11T08:15:14.000Z</time>
|
|
</trkpt>
|
|
<trkpt lat="55.439566" lon="8.593095">
|
|
<ele>2.683813</ele>
|
|
<time>2026-07-11T08:15:15.000Z</time>
|
|
</trkpt>
|
|
<trkpt lat="55.439606" lon="8.593020">
|
|
<ele>2.687592</ele>
|
|
<time>2026-07-11T08:15:16.000Z</time>
|
|
</trkpt>
|
|
<trkpt lat="55.439646" lon="8.592947">
|
|
<ele>2.691317</ele>
|
|
<time>2026-07-11T08:15:17.000Z</time>
|
|
</trkpt>
|
|
<trkpt lat="55.439684" lon="8.592873">
|
|
<ele>2.694981</ele>
|
|
<time>2026-07-11T08:15:18.000Z</time>
|
|
</trkpt>
|
|
<trkpt lat="55.439722" lon="8.592797">
|
|
<ele>2.698699</ele>
|
|
<time>2026-07-11T08:15:19.000Z</time>
|
|
</trkpt>
|
|
<trkpt lat="55.439760" lon="8.592722">
|
|
<ele>2.702390</ele>
|
|
<time>2026-07-11T08:15:20.000Z</time>
|
|
</trkpt>
|
|
<trkpt lat="55.439799" lon="8.592644">
|
|
<ele>2.706207</ele>
|
|
<time>2026-07-11T08:15:21.000Z</time>
|
|
</trkpt>
|
|
<trkpt lat="55.439835" lon="8.592567">
|
|
<ele>2.709869</ele>
|
|
<time>2026-07-11T08:15:22.000Z</time>
|
|
</trkpt>
|
|
<trkpt lat="55.439871" lon="8.592488">
|
|
<ele>2.713589</ele>
|
|
<time>2026-07-11T08:15:23.000Z</time>
|
|
</trkpt>
|
|
<trkpt lat="55.439909" lon="8.592409">
|
|
<ele>2.713604</ele>
|
|
<time>2026-07-11T08:15:24.000Z</time>
|
|
</trkpt>
|
|
<trkpt lat="55.439946" lon="8.592330">
|
|
<ele>2.705446</ele>
|
|
<time>2026-07-11T08:15:25.000Z</time>
|
|
</trkpt>
|
|
<trkpt lat="55.439982" lon="8.592250">
|
|
<ele>2.697314</ele>
|
|
<time>2026-07-11T08:15:26.000Z</time>
|
|
</trkpt>
|
|
<trkpt lat="55.440018" lon="8.592169">
|
|
<ele>2.689120</ele>
|
|
<time>2026-07-11T08:15:27.000Z</time>
|
|
</trkpt>
|
|
<trkpt lat="55.440054" lon="8.592087">
|
|
<ele>2.680863</ele>
|
|
<time>2026-07-11T08:15:28.000Z</time>
|
|
</trkpt>
|
|
<trkpt lat="55.440091" lon="8.592004">
|
|
<ele>2.672457</ele>
|
|
<time>2026-07-11T08:15:29.000Z</time>
|
|
</trkpt>
|
|
<trkpt lat="55.440125" lon="8.591920">
|
|
<ele>2.664240</ele>
|
|
<time>2026-07-11T08:15:30.000Z</time>
|
|
</trkpt>
|
|
<trkpt lat="55.440159" lon="8.591836">
|
|
<ele>2.656023</ele>
|
|
<time>2026-07-11T08:15:31.000Z</time>
|
|
</trkpt>
|
|
<trkpt lat="55.440193" lon="8.591752">
|
|
<ele>2.647806</ele>
|
|
<time>2026-07-11T08:15:32.000Z</time>
|
|
</trkpt>
|
|
<trkpt lat="55.440228" lon="8.591668">
|
|
<ele>2.639506</ele>
|
|
<time>2026-07-11T08:15:33.000Z</time>
|
|
</trkpt>
|
|
<trkpt lat="55.440262" lon="8.591583">
|
|
<ele>2.631224</ele>
|
|
<time>2026-07-11T08:15:34.000Z</time>
|
|
</trkpt>
|
|
<trkpt lat="55.440297" lon="8.591498">
|
|
<ele>2.622860</ele>
|
|
<time>2026-07-11T08:15:35.000Z</time>
|
|
</trkpt>
|
|
<trkpt lat="55.440331" lon="8.591412">
|
|
<ele>2.614513</ele>
|
|
<time>2026-07-11T08:15:36.000Z</time>
|
|
</trkpt>
|
|
<trkpt lat="55.440365" lon="8.591328">
|
|
<ele>2.606296</ele>
|
|
<time>2026-07-11T08:15:37.000Z</time>
|
|
</trkpt>
|
|
<trkpt lat="55.440400" lon="8.591244">
|
|
<ele>2.597996</ele>
|
|
<time>2026-07-11T08:15:38.000Z</time>
|
|
</trkpt>
|
|
<trkpt lat="55.440434" lon="8.591163">
|
|
<ele>2.589972</ele>
|
|
<time>2026-07-11T08:15:39.000Z</time>
|
|
</trkpt>
|
|
<trkpt lat="55.440471" lon="8.591081">
|
|
<ele>2.581629</ele>
|
|
<time>2026-07-11T08:15:40.000Z</time>
|
|
</trkpt>
|
|
<trkpt lat="55.440506" lon="8.590993">
|
|
<ele>2.573070</ele>
|
|
<time>2026-07-11T08:15:41.000Z</time>
|
|
</trkpt>
|
|
<trkpt lat="55.440541" lon="8.590907">
|
|
<ele>2.564642</ele>
|
|
<time>2026-07-11T08:15:42.000Z</time>
|
|
</trkpt>
|
|
<trkpt lat="55.440575" lon="8.590822">
|
|
<ele>2.556360</ele>
|
|
<time>2026-07-11T08:15:43.000Z</time>
|
|
</trkpt>
|
|
<trkpt lat="55.440609" lon="8.590738">
|
|
<ele>2.548143</ele>
|
|
<time>2026-07-11T08:15:44.000Z</time>
|
|
</trkpt>
|
|
<trkpt lat="55.440644" lon="8.590652">
|
|
<ele>2.539714</ele>
|
|
<time>2026-07-11T08:15:45.000Z</time>
|
|
</trkpt>
|
|
<trkpt lat="55.440678" lon="8.590567">
|
|
<ele>2.531432</ele>
|
|
<time>2026-07-11T08:15:46.000Z</time>
|
|
</trkpt>
|
|
<trkpt lat="55.440712" lon="8.590481">
|
|
<ele>2.523085</ele>
|
|
<time>2026-07-11T08:15:47.000Z</time>
|
|
</trkpt>
|
|
<trkpt lat="55.440747" lon="8.590394">
|
|
<ele>2.514592</ele>
|
|
<time>2026-07-11T08:15:48.000Z</time>
|
|
</trkpt>
|
|
<trkpt lat="55.440783" lon="8.590310">
|
|
<ele>2.506209</ele>
|
|
<time>2026-07-11T08:15:49.000Z</time>
|
|
</trkpt>
|
|
<trkpt lat="55.440819" lon="8.590226">
|
|
<ele>2.497825</ele>
|
|
<time>2026-07-11T08:15:50.000Z</time>
|
|
</trkpt>
|
|
<trkpt lat="55.440853" lon="8.590140">
|
|
<ele>2.489478</ele>
|
|
<time>2026-07-11T08:15:51.000Z</time>
|
|
</trkpt>
|
|
<trkpt lat="55.440888" lon="8.590055">
|
|
<ele>2.481114</ele>
|
|
<time>2026-07-11T08:15:52.000Z</time>
|
|
</trkpt>
|
|
<trkpt lat="55.440922" lon="8.589970">
|
|
<ele>2.472832</ele>
|
|
<time>2026-07-11T08:15:53.000Z</time>
|
|
</trkpt>
|
|
<trkpt lat="55.440957" lon="8.589883">
|
|
<ele>2.464339</ele>
|
|
<time>2026-07-11T08:15:54.000Z</time>
|
|
</trkpt>
|
|
<trkpt lat="55.440991" lon="8.589798">
|
|
<ele>2.474924</ele>
|
|
<time>2026-07-11T08:15:55.000Z</time>
|
|
</trkpt>
|
|
<trkpt lat="55.441027" lon="8.589713">
|
|
<ele>2.487306</ele>
|
|
<time>2026-07-11T08:15:56.000Z</time>
|
|
</trkpt>
|
|
<trkpt lat="55.441063" lon="8.589629">
|
|
<ele>2.499595</ele>
|
|
<time>2026-07-11T08:15:57.000Z</time>
|
|
</trkpt>
|
|
<trkpt lat="55.441100" lon="8.589545">
|
|
<ele>2.512009</ele>
|
|
<time>2026-07-11T08:15:58.000Z</time>
|
|
</trkpt>
|
|
<trkpt lat="55.441136" lon="8.589461">
|
|
<ele>2.524298</ele>
|
|
<time>2026-07-11T08:15:59.000Z</time>
|
|
</trkpt>
|
|
<trkpt lat="55.441170" lon="8.589377">
|
|
<ele>2.536343</ele>
|
|
<time>2026-07-11T08:16:00.000Z</time>
|
|
</trkpt>
|
|
<trkpt lat="55.441205" lon="8.589296">
|
|
<ele>2.548229</ele>
|
|
<time>2026-07-11T08:16:01.000Z</time>
|
|
</trkpt>
|
|
<trkpt lat="55.441239" lon="8.589213">
|
|
<ele>2.560179</ele>
|
|
<time>2026-07-11T08:16:02.000Z</time>
|
|
</trkpt>
|
|
<trkpt lat="55.441273" lon="8.589130">
|
|
<ele>2.572130</ele>
|
|
<time>2026-07-11T08:16:03.000Z</time>
|
|
</trkpt>
|
|
<trkpt lat="55.441306" lon="8.589047">
|
|
<ele>2.583961</ele>
|
|
<time>2026-07-11T08:16:04.000Z</time>
|
|
</trkpt>
|
|
<trkpt lat="55.441338" lon="8.588965">
|
|
<ele>2.595579</ele>
|
|
<time>2026-07-11T08:16:05.000Z</time>
|
|
</trkpt>
|
|
<trkpt lat="55.441372" lon="8.588883">
|
|
<ele>2.607435</ele>
|
|
<time>2026-07-11T08:16:06.000Z</time>
|
|
</trkpt>
|
|
<trkpt lat="55.441407" lon="8.588801">
|
|
<ele>2.619413</ele>
|
|
<time>2026-07-11T08:16:07.000Z</time>
|
|
</trkpt>
|
|
<trkpt lat="55.441441" lon="8.588719">
|
|
<ele>2.631269</ele>
|
|
<time>2026-07-11T08:16:08.000Z</time>
|
|
</trkpt>
|
|
<trkpt lat="55.441474" lon="8.588637">
|
|
<ele>2.643005</ele>
|
|
<time>2026-07-11T08:16:09.000Z</time>
|
|
</trkpt>
|
|
<trkpt lat="55.441508" lon="8.588557">
|
|
<ele>2.654673</ele>
|
|
<time>2026-07-11T08:16:10.000Z</time>
|
|
</trkpt>
|
|
<trkpt lat="55.441544" lon="8.588478">
|
|
<ele>2.666502</ele>
|
|
<time>2026-07-11T08:16:11.000Z</time>
|
|
</trkpt>
|
|
<trkpt lat="55.441580" lon="8.588400">
|
|
<ele>2.678239</ele>
|
|
<time>2026-07-11T08:16:12.000Z</time>
|
|
</trkpt>
|
|
<trkpt lat="55.441616" lon="8.588322">
|
|
<ele>2.689977</ele>
|
|
<time>2026-07-11T08:16:13.000Z</time>
|
|
</trkpt>
|
|
<trkpt lat="55.441653" lon="8.588243">
|
|
<ele>2.701935</ele>
|
|
<time>2026-07-11T08:16:14.000Z</time>
|
|
</trkpt>
|
|
<trkpt lat="55.441689" lon="8.588165">
|
|
<ele>2.713673</ele>
|
|
<time>2026-07-11T08:16:15.000Z</time>
|
|
</trkpt>
|
|
<trkpt lat="55.441723" lon="8.588088">
|
|
<ele>2.725063</ele>
|
|
<time>2026-07-11T08:16:16.000Z</time>
|
|
</trkpt>
|
|
<trkpt lat="55.441758" lon="8.588010">
|
|
<ele>2.736672</ele>
|
|
<time>2026-07-11T08:16:17.000Z</time>
|
|
</trkpt>
|
|
<trkpt lat="55.441790" lon="8.587933">
|
|
<ele>2.747814</ele>
|
|
<time>2026-07-11T08:16:18.000Z</time>
|
|
</trkpt>
|
|
<trkpt lat="55.441821" lon="8.587857">
|
|
<ele>2.758740</ele>
|
|
<time>2026-07-11T08:16:19.000Z</time>
|
|
</trkpt>
|
|
<trkpt lat="55.441853" lon="8.587783">
|
|
<ele>2.769601</ele>
|
|
<time>2026-07-11T08:16:20.000Z</time>
|
|
</trkpt>
|
|
<trkpt lat="55.441884" lon="8.587711">
|
|
<ele>2.780152</ele>
|
|
<time>2026-07-11T08:16:21.000Z</time>
|
|
</trkpt>
|
|
<trkpt lat="55.441912" lon="8.587644">
|
|
<ele>2.789866</ele>
|
|
<time>2026-07-11T08:16:22.000Z</time>
|
|
</trkpt>
|
|
<trkpt lat="55.441941" lon="8.587585">
|
|
<ele>2.798979</ele>
|
|
<time>2026-07-11T08:16:23.000Z</time>
|
|
</trkpt>
|
|
<trkpt lat="55.441967" lon="8.587537">
|
|
<ele>2.806726</ele>
|
|
<time>2026-07-11T08:16:24.000Z</time>
|
|
</trkpt>
|
|
<trkpt lat="55.441992" lon="8.587501">
|
|
<ele>2.813368</ele>
|
|
<time>2026-07-11T08:16:25.000Z</time>
|
|
</trkpt>
|
|
<trkpt lat="55.442013" lon="8.587467">
|
|
<ele>2.819235</ele>
|
|
<time>2026-07-11T08:16:26.000Z</time>
|
|
</trkpt>
|
|
<trkpt lat="55.442029" lon="8.587432">
|
|
<ele>2.824482</ele>
|
|
<time>2026-07-11T08:16:27.000Z</time>
|
|
</trkpt>
|
|
<trkpt lat="55.442041" lon="8.587387">
|
|
<ele>2.830286</ele>
|
|
<time>2026-07-11T08:16:28.000Z</time>
|
|
</trkpt>
|
|
<trkpt lat="55.442052" lon="8.587335">
|
|
<ele>2.836427</ele>
|
|
<time>2026-07-11T08:16:29.000Z</time>
|
|
</trkpt>
|
|
<trkpt lat="55.442065" lon="8.587278">
|
|
<ele>2.842775</ele>
|
|
<time>2026-07-11T08:16:30.000Z</time>
|
|
</trkpt>
|
|
<trkpt lat="55.442083" lon="8.587221">
|
|
<ele>2.849516</ele>
|
|
<time>2026-07-11T08:16:31.000Z</time>
|
|
</trkpt>
|
|
<trkpt lat="55.442102" lon="8.587164">
|
|
<ele>2.856348</ele>
|
|
<time>2026-07-11T08:16:32.000Z</time>
|
|
</trkpt>
|
|
<trkpt lat="55.442122" lon="8.587108">
|
|
<ele>2.863185</ele>
|
|
<time>2026-07-11T08:16:33.000Z</time>
|
|
</trkpt>
|
|
<trkpt lat="55.442143" lon="8.587052">
|
|
<ele>2.870122</ele>
|
|
<time>2026-07-11T08:16:34.000Z</time>
|
|
</trkpt>
|
|
<trkpt lat="55.442164" lon="8.586998">
|
|
<ele>2.876887</ele>
|
|
<time>2026-07-11T08:16:35.000Z</time>
|
|
</trkpt>
|
|
<trkpt lat="55.442186" lon="8.586944">
|
|
<ele>2.883757</ele>
|
|
<time>2026-07-11T08:16:36.000Z</time>
|
|
</trkpt>
|
|
<trkpt lat="55.442211" lon="8.586891">
|
|
<ele>2.890880</ele>
|
|
<time>2026-07-11T08:16:37.000Z</time>
|
|
</trkpt>
|
|
<trkpt lat="55.442239" lon="8.586843">
|
|
<ele>2.897994</ele>
|
|
<time>2026-07-11T08:16:38.000Z</time>
|
|
</trkpt>
|
|
<trkpt lat="55.442265" lon="8.586803">
|
|
<ele>2.904280</ele>
|
|
<time>2026-07-11T08:16:39.000Z</time>
|
|
</trkpt>
|
|
<trkpt lat="55.442290" lon="8.586771">
|
|
<ele>2.909908</ele>
|
|
<time>2026-07-11T08:16:40.000Z</time>
|
|
</trkpt>
|
|
<trkpt lat="55.442311" lon="8.586740">
|
|
<ele>2.914897</ele>
|
|
<time>2026-07-11T08:16:41.000Z</time>
|
|
</trkpt>
|
|
<trkpt lat="55.442327" lon="8.586702">
|
|
<ele>2.919787</ele>
|
|
<time>2026-07-11T08:16:42.000Z</time>
|
|
</trkpt>
|
|
<trkpt lat="55.442337" lon="8.586656">
|
|
<ele>2.924877</ele>
|
|
<time>2026-07-11T08:16:43.000Z</time>
|
|
</trkpt>
|
|
<trkpt lat="55.442348" lon="8.586600">
|
|
<ele>2.931001</ele>
|
|
<time>2026-07-11T08:16:44.000Z</time>
|
|
</trkpt>
|
|
<trkpt lat="55.442365" lon="8.586541">
|
|
<ele>2.937839</ele>
|
|
<time>2026-07-11T08:16:45.000Z</time>
|
|
</trkpt>
|
|
<trkpt lat="55.442385" lon="8.586482">
|
|
<ele>2.944941</ele>
|
|
<time>2026-07-11T08:16:46.000Z</time>
|
|
</trkpt>
|
|
<trkpt lat="55.442410" lon="8.586425">
|
|
<ele>2.952386</ele>
|
|
<time>2026-07-11T08:16:47.000Z</time>
|
|
</trkpt>
|
|
<trkpt lat="55.442438" lon="8.586366">
|
|
<ele>2.960334</ele>
|
|
<time>2026-07-11T08:16:48.000Z</time>
|
|
</trkpt>
|
|
<trkpt lat="55.442467" lon="8.586305">
|
|
<ele>2.968558</ele>
|
|
<time>2026-07-11T08:16:49.000Z</time>
|
|
</trkpt>
|
|
<trkpt lat="55.442496" lon="8.586241">
|
|
<ele>2.977022</ele>
|
|
<time>2026-07-11T08:16:50.000Z</time>
|
|
</trkpt>
|
|
<trkpt lat="55.442525" lon="8.586176">
|
|
<ele>2.985567</ele>
|
|
<time>2026-07-11T08:16:51.000Z</time>
|
|
</trkpt>
|
|
<trkpt lat="55.442551" lon="8.586109">
|
|
<ele>2.993955</ele>
|
|
<time>2026-07-11T08:16:52.000Z</time>
|
|
</trkpt>
|
|
<trkpt lat="55.442578" lon="8.586041">
|
|
<ele>3.002532</ele>
|
|
<time>2026-07-11T08:16:53.000Z</time>
|
|
</trkpt>
|
|
<trkpt lat="55.442603" lon="8.585976">
|
|
<ele>3.010647</ele>
|
|
<time>2026-07-11T08:16:54.000Z</time>
|
|
</trkpt>
|
|
<trkpt lat="55.442624" lon="8.585912">
|
|
<ele>3.018286</ele>
|
|
<time>2026-07-11T08:16:55.000Z</time>
|
|
</trkpt>
|
|
<trkpt lat="55.442643" lon="8.585851">
|
|
<ele>3.025477</ele>
|
|
<time>2026-07-11T08:16:56.000Z</time>
|
|
</trkpt>
|
|
<trkpt lat="55.442662" lon="8.585792">
|
|
<ele>3.032487</ele>
|
|
<time>2026-07-11T08:16:57.000Z</time>
|
|
</trkpt>
|
|
<trkpt lat="55.442681" lon="8.585736">
|
|
<ele>3.039230</ele>
|
|
<time>2026-07-11T08:16:58.000Z</time>
|
|
</trkpt>
|
|
<trkpt lat="55.442699" lon="8.585688">
|
|
<ele>3.045176</ele>
|
|
<time>2026-07-11T08:16:59.000Z</time>
|
|
</trkpt>
|
|
<trkpt lat="55.442712" lon="8.585649">
|
|
<ele>3.049850</ele>
|
|
<time>2026-07-11T08:17:00.000Z</time>
|
|
</trkpt>
|
|
<trkpt lat="55.442724" lon="8.585624">
|
|
<ele>3.053234</ele>
|
|
<time>2026-07-11T08:17:01.000Z</time>
|
|
</trkpt>
|
|
<trkpt lat="55.442733" lon="8.585601">
|
|
<ele>3.056121</ele>
|
|
<time>2026-07-11T08:17:41.000Z</time>
|
|
</trkpt>
|
|
<trkpt lat="55.442741" lon="8.585571">
|
|
<ele>3.059546</ele>
|
|
<time>2026-07-11T08:17:42.000Z</time>
|
|
</trkpt>
|
|
<trkpt lat="55.442762" lon="8.585520">
|
|
<ele>3.066058</ele>
|
|
<time>2026-07-11T08:17:43.000Z</time>
|
|
</trkpt>
|
|
<trkpt lat="55.442776" lon="8.585482">
|
|
<ele>3.070740</ele>
|
|
<time>2026-07-11T08:17:44.000Z</time>
|
|
</trkpt>
|
|
<trkpt lat="55.442794" lon="8.585442">
|
|
<ele>3.076016</ele>
|
|
<time>2026-07-11T08:17:45.000Z</time>
|
|
</trkpt>
|
|
<trkpt lat="55.442809" lon="8.585401">
|
|
<ele>3.081057</ele>
|
|
<time>2026-07-11T08:17:46.000Z</time>
|
|
</trkpt>
|
|
<trkpt lat="55.442823" lon="8.585367">
|
|
<ele>3.085398</ele>
|
|
<time>2026-07-11T08:17:47.000Z</time>
|
|
</trkpt>
|
|
<trkpt lat="55.442833" lon="8.585346">
|
|
<ele>3.088231</ele>
|
|
<time>2026-07-11T08:17:48.000Z</time>
|
|
</trkpt>
|
|
<trkpt lat="55.442837" lon="8.585339">
|
|
<ele>3.089258</ele>
|
|
<time>2026-07-11T08:17:49.000Z</time>
|
|
</trkpt>
|
|
<trkpt lat="55.442837" lon="8.585339">
|
|
<ele>3.089258</ele>
|
|
<time>2026-07-11T08:17:50.000Z</time>
|
|
</trkpt>
|
|
<trkpt lat="55.442837" lon="8.585339">
|
|
<ele>3.089258</ele>
|
|
<time>2026-07-11T08:17:53.000Z</time>
|
|
</trkpt>
|
|
<trkpt lat="55.442838" lon="8.585328">
|
|
<ele>3.090409</ele>
|
|
<time>2026-07-11T08:17:57.000Z</time>
|
|
</trkpt>
|
|
<trkpt lat="55.442845" lon="8.585301">
|
|
<ele>3.093476</ele>
|
|
<time>2026-07-11T08:17:58.000Z</time>
|
|
</trkpt>
|
|
<trkpt lat="55.442859" lon="8.585268">
|
|
<ele>3.097734</ele>
|
|
<time>2026-07-11T08:17:59.000Z</time>
|
|
</trkpt>
|
|
<trkpt lat="55.442876" lon="8.585227">
|
|
<ele>3.102982</ele>
|
|
<time>2026-07-11T08:18:00.000Z</time>
|
|
</trkpt>
|
|
<trkpt lat="55.442893" lon="8.585178">
|
|
<ele>3.108917</ele>
|
|
<time>2026-07-11T08:18:01.000Z</time>
|
|
</trkpt>
|
|
<trkpt lat="55.442912" lon="8.585129">
|
|
<ele>3.115050</ele>
|
|
<time>2026-07-11T08:18:02.000Z</time>
|
|
</trkpt>
|
|
<trkpt lat="55.442933" lon="8.585078">
|
|
<ele>3.121562</ele>
|
|
<time>2026-07-11T08:18:03.000Z</time>
|
|
</trkpt>
|
|
<trkpt lat="55.442954" lon="8.585025">
|
|
<ele>3.128242</ele>
|
|
<time>2026-07-11T08:18:04.000Z</time>
|
|
</trkpt>
|
|
<trkpt lat="55.442977" lon="8.584970">
|
|
<ele>3.135302</ele>
|
|
<time>2026-07-11T08:18:05.000Z</time>
|
|
</trkpt>
|
|
<trkpt lat="55.443000" lon="8.584914">
|
|
<ele>3.142446</ele>
|
|
<time>2026-07-11T08:18:06.000Z</time>
|
|
</trkpt>
|
|
<trkpt lat="55.443023" lon="8.584857">
|
|
<ele>3.149674</ele>
|
|
<time>2026-07-11T08:18:07.000Z</time>
|
|
</trkpt>
|
|
<trkpt lat="55.443044" lon="8.584801">
|
|
<ele>3.156610</ele>
|
|
<time>2026-07-11T08:18:08.000Z</time>
|
|
</trkpt>
|
|
<trkpt lat="55.443063" lon="8.584748">
|
|
<ele>3.159794</ele>
|
|
<time>2026-07-11T08:18:09.000Z</time>
|
|
</trkpt>
|
|
<trkpt lat="55.443085" lon="8.584693">
|
|
<ele>3.152593</ele>
|
|
<time>2026-07-11T08:18:10.000Z</time>
|
|
</trkpt>
|
|
<trkpt lat="55.443111" lon="8.584636">
|
|
<ele>3.144767</ele>
|
|
<time>2026-07-11T08:18:11.000Z</time>
|
|
</trkpt>
|
|
<trkpt lat="55.443134" lon="8.584579">
|
|
<ele>3.137283</ele>
|
|
<time>2026-07-11T08:18:12.000Z</time>
|
|
</trkpt>
|
|
<trkpt lat="55.443158" lon="8.584521">
|
|
<ele>3.129602</ele>
|
|
<time>2026-07-11T08:18:13.000Z</time>
|
|
</trkpt>
|
|
<trkpt lat="55.443183" lon="8.584462">
|
|
<ele>3.121723</ele>
|
|
<time>2026-07-11T08:18:14.000Z</time>
|
|
</trkpt>
|
|
<trkpt lat="55.443206" lon="8.584403">
|
|
<ele>3.114063</ele>
|
|
<time>2026-07-11T08:18:15.000Z</time>
|
|
</trkpt>
|
|
<trkpt lat="55.443229" lon="8.584345">
|
|
<ele>3.106492</ele>
|
|
<time>2026-07-11T08:18:16.000Z</time>
|
|
</trkpt>
|
|
<trkpt lat="55.443251" lon="8.584287">
|
|
<ele>3.099027</ele>
|
|
<time>2026-07-11T08:18:17.000Z</time>
|
|
</trkpt>
|
|
<trkpt lat="55.443276" lon="8.584225">
|
|
<ele>3.090888</ele>
|
|
<time>2026-07-11T08:18:18.000Z</time>
|
|
</trkpt>
|
|
<trkpt lat="55.443301" lon="8.584160">
|
|
<ele>3.082486</ele>
|
|
<time>2026-07-11T08:18:19.000Z</time>
|
|
</trkpt>
|
|
<trkpt lat="55.443328" lon="8.584091">
|
|
<ele>3.073517</ele>
|
|
<time>2026-07-11T08:18:20.000Z</time>
|
|
</trkpt>
|
|
<trkpt lat="55.443356" lon="8.584022">
|
|
<ele>3.064440</ele>
|
|
<time>2026-07-11T08:18:21.000Z</time>
|
|
</trkpt>
|
|
<trkpt lat="55.443385" lon="8.583952">
|
|
<ele>3.055166</ele>
|
|
<time>2026-07-11T08:18:22.000Z</time>
|
|
</trkpt>
|
|
<trkpt lat="55.443414" lon="8.583879">
|
|
<ele>3.045631</ele>
|
|
<time>2026-07-11T08:18:23.000Z</time>
|
|
</trkpt>
|
|
<trkpt lat="55.443440" lon="8.583805">
|
|
<ele>3.036317</ele>
|
|
<time>2026-07-11T08:18:24.000Z</time>
|
|
</trkpt>
|
|
<trkpt lat="55.443467" lon="8.583730">
|
|
<ele>3.026814</ele>
|
|
<time>2026-07-11T08:18:25.000Z</time>
|
|
</trkpt>
|
|
<trkpt lat="55.443496" lon="8.583655">
|
|
<ele>3.017102</ele>
|
|
<time>2026-07-11T08:18:26.000Z</time>
|
|
</trkpt>
|
|
<trkpt lat="55.443526" lon="8.583581">
|
|
<ele>3.007371</ele>
|
|
<time>2026-07-11T08:18:27.000Z</time>
|
|
</trkpt>
|
|
<trkpt lat="55.443555" lon="8.583505">
|
|
<ele>2.997571</ele>
|
|
<time>2026-07-11T08:18:28.000Z</time>
|
|
</trkpt>
|
|
<trkpt lat="55.443583" lon="8.583428">
|
|
<ele>2.987785</ele>
|
|
<time>2026-07-11T08:18:29.000Z</time>
|
|
</trkpt>
|
|
<trkpt lat="55.443612" lon="8.583351">
|
|
<ele>2.977896</ele>
|
|
<time>2026-07-11T08:18:30.000Z</time>
|
|
</trkpt>
|
|
<trkpt lat="55.443638" lon="8.583276">
|
|
<ele>2.968492</ele>
|
|
<time>2026-07-11T08:18:31.000Z</time>
|
|
</trkpt>
|
|
<trkpt lat="55.443665" lon="8.583199">
|
|
<ele>2.958807</ele>
|
|
<time>2026-07-11T08:18:32.000Z</time>
|
|
</trkpt>
|
|
<trkpt lat="55.443692" lon="8.583121">
|
|
<ele>2.949030</ele>
|
|
<time>2026-07-11T08:18:33.000Z</time>
|
|
</trkpt>
|
|
<trkpt lat="55.443719" lon="8.583043">
|
|
<ele>2.939254</ele>
|
|
<time>2026-07-11T08:18:34.000Z</time>
|
|
</trkpt>
|
|
<trkpt lat="55.443745" lon="8.582964">
|
|
<ele>2.929482</ele>
|
|
<time>2026-07-11T08:18:35.000Z</time>
|
|
</trkpt>
|
|
<trkpt lat="55.443772" lon="8.582885">
|
|
<ele>2.919614</ele>
|
|
<time>2026-07-11T08:18:36.000Z</time>
|
|
</trkpt>
|
|
<trkpt lat="55.443797" lon="8.582806">
|
|
<ele>2.909936</ele>
|
|
<time>2026-07-11T08:18:37.000Z</time>
|
|
</trkpt>
|
|
<trkpt lat="55.443822" lon="8.582728">
|
|
<ele>2.900350</ele>
|
|
<time>2026-07-11T08:18:38.000Z</time>
|
|
</trkpt>
|
|
<trkpt lat="55.443848" lon="8.582649">
|
|
<ele>2.890579</ele>
|
|
<time>2026-07-11T08:18:39.000Z</time>
|
|
</trkpt>
|
|
<trkpt lat="55.443875" lon="8.582568">
|
|
<ele>2.880527</ele>
|
|
<time>2026-07-11T08:18:40.000Z</time>
|
|
</trkpt>
|
|
<trkpt lat="55.443900" lon="8.582489">
|
|
<ele>2.870848</ele>
|
|
<time>2026-07-11T08:18:41.000Z</time>
|
|
</trkpt>
|
|
<trkpt lat="55.443923" lon="8.582409">
|
|
<ele>2.861252</ele>
|
|
<time>2026-07-11T08:18:42.000Z</time>
|
|
</trkpt>
|
|
<trkpt lat="55.443946" lon="8.582329">
|
|
<ele>2.851657</ele>
|
|
<time>2026-07-11T08:18:43.000Z</time>
|
|
</trkpt>
|
|
<trkpt lat="55.443971" lon="8.582251">
|
|
<ele>2.842071</ele>
|
|
<time>2026-07-11T08:18:44.000Z</time>
|
|
</trkpt>
|
|
<trkpt lat="55.443996" lon="8.582172">
|
|
<ele>2.832393</ele>
|
|
<time>2026-07-11T08:18:45.000Z</time>
|
|
</trkpt>
|
|
<trkpt lat="55.444018" lon="8.582092">
|
|
<ele>2.822881</ele>
|
|
<time>2026-07-11T08:18:46.000Z</time>
|
|
</trkpt>
|
|
<trkpt lat="55.444041" lon="8.582014">
|
|
<ele>2.820503</ele>
|
|
<time>2026-07-11T08:18:47.000Z</time>
|
|
</trkpt>
|
|
<trkpt lat="55.444064" lon="8.581937">
|
|
<ele>2.818686</ele>
|
|
<time>2026-07-11T08:18:48.000Z</time>
|
|
</trkpt>
|
|
<trkpt lat="55.444088" lon="8.581858">
|
|
<ele>2.816815</ele>
|
|
<time>2026-07-11T08:18:49.000Z</time>
|
|
</trkpt>
|
|
<trkpt lat="55.444112" lon="8.581778">
|
|
<ele>2.814925</ele>
|
|
<time>2026-07-11T08:18:50.000Z</time>
|
|
</trkpt>
|
|
<trkpt lat="55.444133" lon="8.581698">
|
|
<ele>2.813085</ele>
|
|
<time>2026-07-11T08:18:51.000Z</time>
|
|
</trkpt>
|
|
<trkpt lat="55.444155" lon="8.581620">
|
|
<ele>2.811266</ele>
|
|
<time>2026-07-11T08:18:52.000Z</time>
|
|
</trkpt>
|
|
<trkpt lat="55.444178" lon="8.581541">
|
|
<ele>2.809412</ele>
|
|
<time>2026-07-11T08:18:53.000Z</time>
|
|
</trkpt>
|
|
<trkpt lat="55.444200" lon="8.581460">
|
|
<ele>2.807537</ele>
|
|
<time>2026-07-11T08:18:54.000Z</time>
|
|
</trkpt>
|
|
<trkpt lat="55.444219" lon="8.581379">
|
|
<ele>2.805707</ele>
|
|
<time>2026-07-11T08:18:55.000Z</time>
|
|
</trkpt>
|
|
<trkpt lat="55.444238" lon="8.581297">
|
|
<ele>2.803858</ele>
|
|
<time>2026-07-11T08:18:56.000Z</time>
|
|
</trkpt>
|
|
<trkpt lat="55.444255" lon="8.581216">
|
|
<ele>2.802055</ele>
|
|
<time>2026-07-11T08:18:57.000Z</time>
|
|
</trkpt>
|
|
<trkpt lat="55.444274" lon="8.581133">
|
|
<ele>2.800186</ele>
|
|
<time>2026-07-11T08:18:58.000Z</time>
|
|
</trkpt>
|
|
<trkpt lat="55.444295" lon="8.581049">
|
|
<ele>2.798269</ele>
|
|
<time>2026-07-11T08:18:59.000Z</time>
|
|
</trkpt>
|
|
<trkpt lat="55.444315" lon="8.580963">
|
|
<ele>2.796329</ele>
|
|
<time>2026-07-11T08:19:00.000Z</time>
|
|
</trkpt>
|
|
<trkpt lat="55.444337" lon="8.580876">
|
|
<ele>2.794340</ele>
|
|
<time>2026-07-11T08:19:01.000Z</time>
|
|
</trkpt>
|
|
<trkpt lat="55.444356" lon="8.580790">
|
|
<ele>2.792413</ele>
|
|
<time>2026-07-11T08:19:02.000Z</time>
|
|
</trkpt>
|
|
<trkpt lat="55.444373" lon="8.580705">
|
|
<ele>2.790531</ele>
|
|
<time>2026-07-11T08:19:03.000Z</time>
|
|
</trkpt>
|
|
<trkpt lat="55.444390" lon="8.580620">
|
|
<ele>2.788650</ele>
|
|
<time>2026-07-11T08:19:04.000Z</time>
|
|
</trkpt>
|
|
<trkpt lat="55.444409" lon="8.580538">
|
|
<ele>2.786800</ele>
|
|
<time>2026-07-11T08:19:05.000Z</time>
|
|
</trkpt>
|
|
<trkpt lat="55.444427" lon="8.580454">
|
|
<ele>2.784925</ele>
|
|
<time>2026-07-11T08:19:06.000Z</time>
|
|
</trkpt>
|
|
<trkpt lat="55.444444" lon="8.580369">
|
|
<ele>2.783044</ele>
|
|
<time>2026-07-11T08:19:07.000Z</time>
|
|
</trkpt>
|
|
<trkpt lat="55.444461" lon="8.580285">
|
|
<ele>2.781182</ele>
|
|
<time>2026-07-11T08:19:08.000Z</time>
|
|
</trkpt>
|
|
<trkpt lat="55.444478" lon="8.580202">
|
|
<ele>2.779339</ele>
|
|
<time>2026-07-11T08:19:09.000Z</time>
|
|
</trkpt>
|
|
<trkpt lat="55.444496" lon="8.580118">
|
|
<ele>2.777464</ele>
|
|
<time>2026-07-11T08:19:10.000Z</time>
|
|
</trkpt>
|
|
<trkpt lat="55.444511" lon="8.580035">
|
|
<ele>2.775646</ele>
|
|
<time>2026-07-11T08:19:11.000Z</time>
|
|
</trkpt>
|
|
<trkpt lat="55.444526" lon="8.579951">
|
|
<ele>2.773807</ele>
|
|
<time>2026-07-11T08:19:12.000Z</time>
|
|
</trkpt>
|
|
<trkpt lat="55.444541" lon="8.579867">
|
|
<ele>2.771968</ele>
|
|
<time>2026-07-11T08:19:13.000Z</time>
|
|
</trkpt>
|
|
<trkpt lat="55.444555" lon="8.579783">
|
|
<ele>2.770141</ele>
|
|
<time>2026-07-11T08:19:14.000Z</time>
|
|
</trkpt>
|
|
<trkpt lat="55.444568" lon="8.579699">
|
|
<ele>2.768323</ele>
|
|
<time>2026-07-11T08:19:15.000Z</time>
|
|
</trkpt>
|
|
<trkpt lat="55.444583" lon="8.579614">
|
|
<ele>2.766464</ele>
|
|
<time>2026-07-11T08:19:16.000Z</time>
|
|
</trkpt>
|
|
<trkpt lat="55.444599" lon="8.579530">
|
|
<ele>2.764614</ele>
|
|
<time>2026-07-11T08:19:17.000Z</time>
|
|
</trkpt>
|
|
<trkpt lat="55.444614" lon="8.579448">
|
|
<ele>2.762815</ele>
|
|
<time>2026-07-11T08:19:18.000Z</time>
|
|
</trkpt>
|
|
<trkpt lat="55.444627" lon="8.579363">
|
|
<ele>2.760977</ele>
|
|
<time>2026-07-11T08:19:19.000Z</time>
|
|
</trkpt>
|
|
<trkpt lat="55.444640" lon="8.579279">
|
|
<ele>2.759159</ele>
|
|
<time>2026-07-11T08:19:20.000Z</time>
|
|
</trkpt>
|
|
<trkpt lat="55.444654" lon="8.579195">
|
|
<ele>2.757331</ele>
|
|
<time>2026-07-11T08:19:21.000Z</time>
|
|
</trkpt>
|
|
<trkpt lat="55.444665" lon="8.579112">
|
|
<ele>2.757256</ele>
|
|
<time>2026-07-11T08:19:22.000Z</time>
|
|
</trkpt>
|
|
<trkpt lat="55.444678" lon="8.579029">
|
|
<ele>2.762288</ele>
|
|
<time>2026-07-11T08:19:23.000Z</time>
|
|
</trkpt>
|
|
<trkpt lat="55.444692" lon="8.578941">
|
|
<ele>2.767629</ele>
|
|
<time>2026-07-11T08:19:24.000Z</time>
|
|
</trkpt>
|
|
<trkpt lat="55.444704" lon="8.578854">
|
|
<ele>2.772861</ele>
|
|
<time>2026-07-11T08:19:25.000Z</time>
|
|
</trkpt>
|
|
<trkpt lat="55.444717" lon="8.578767">
|
|
<ele>2.778118</ele>
|
|
<time>2026-07-11T08:19:26.000Z</time>
|
|
</trkpt>
|
|
<trkpt lat="55.444730" lon="8.578678">
|
|
<ele>2.783489</ele>
|
|
<time>2026-07-11T08:19:27.000Z</time>
|
|
</trkpt>
|
|
<trkpt lat="55.444743" lon="8.578591">
|
|
<ele>2.788746</ele>
|
|
<time>2026-07-11T08:19:28.000Z</time>
|
|
</trkpt>
|
|
<trkpt lat="55.444757" lon="8.578504">
|
|
<ele>2.794030</ele>
|
|
<time>2026-07-11T08:19:29.000Z</time>
|
|
</trkpt>
|
|
<trkpt lat="55.444770" lon="8.578415">
|
|
<ele>2.799401</ele>
|
|
<time>2026-07-11T08:19:30.000Z</time>
|
|
</trkpt>
|
|
<trkpt lat="55.444784" lon="8.578326">
|
|
<ele>2.804798</ele>
|
|
<time>2026-07-11T08:19:31.000Z</time>
|
|
</trkpt>
|
|
<trkpt lat="55.444797" lon="8.578238">
|
|
<ele>2.810112</ele>
|
|
<time>2026-07-11T08:19:32.000Z</time>
|
|
</trkpt>
|
|
<trkpt lat="55.444810" lon="8.578151">
|
|
<ele>2.815369</ele>
|
|
<time>2026-07-11T08:19:33.000Z</time>
|
|
</trkpt>
|
|
<trkpt lat="55.444823" lon="8.578064">
|
|
<ele>2.820626</ele>
|
|
<time>2026-07-11T08:19:34.000Z</time>
|
|
</trkpt>
|
|
<trkpt lat="55.444839" lon="8.577977">
|
|
<ele>2.825971</ele>
|
|
<time>2026-07-11T08:19:35.000Z</time>
|
|
</trkpt>
|
|
<trkpt lat="55.444854" lon="8.577892">
|
|
<ele>2.831172</ele>
|
|
<time>2026-07-11T08:19:36.000Z</time>
|
|
</trkpt>
|
|
<trkpt lat="55.444871" lon="8.577807">
|
|
<ele>2.836439</ele>
|
|
<time>2026-07-11T08:19:37.000Z</time>
|
|
</trkpt>
|
|
<trkpt lat="55.444888" lon="8.577726">
|
|
<ele>2.841486</ele>
|
|
<time>2026-07-11T08:19:38.000Z</time>
|
|
</trkpt>
|
|
<trkpt lat="55.444905" lon="8.577645">
|
|
<ele>2.846533</ele>
|
|
<time>2026-07-11T08:19:39.000Z</time>
|
|
</trkpt>
|
|
<trkpt lat="55.444926" lon="8.577565">
|
|
<ele>2.851684</ele>
|
|
<time>2026-07-11T08:19:40.000Z</time>
|
|
</trkpt>
|
|
<trkpt lat="55.444949" lon="8.577489">
|
|
<ele>2.856718</ele>
|
|
<time>2026-07-11T08:19:41.000Z</time>
|
|
</trkpt>
|
|
<trkpt lat="55.444974" lon="8.577415">
|
|
<ele>2.861751</ele>
|
|
<time>2026-07-11T08:19:42.000Z</time>
|
|
</trkpt>
|
|
<trkpt lat="55.444999" lon="8.577343">
|
|
<ele>2.866684</ele>
|
|
<time>2026-07-11T08:19:43.000Z</time>
|
|
</trkpt>
|
|
<trkpt lat="55.445022" lon="8.577269">
|
|
<ele>2.871615</ele>
|
|
<time>2026-07-11T08:19:44.000Z</time>
|
|
</trkpt>
|
|
<trkpt lat="55.445044" lon="8.577195">
|
|
<ele>2.876497</ele>
|
|
<time>2026-07-11T08:19:45.000Z</time>
|
|
</trkpt>
|
|
<trkpt lat="55.445069" lon="8.577120">
|
|
<ele>2.881580</ele>
|
|
<time>2026-07-11T08:19:46.000Z</time>
|
|
</trkpt>
|
|
<trkpt lat="55.445096" lon="8.577044">
|
|
<ele>2.886820</ele>
|
|
<time>2026-07-11T08:19:47.000Z</time>
|
|
</trkpt>
|
|
<trkpt lat="55.445121" lon="8.576969">
|
|
<ele>2.891904</ele>
|
|
<time>2026-07-11T08:19:48.000Z</time>
|
|
</trkpt>
|
|
<trkpt lat="55.445145" lon="8.576893">
|
|
<ele>2.896987</ele>
|
|
<time>2026-07-11T08:19:49.000Z</time>
|
|
</trkpt>
|
|
<trkpt lat="55.445172" lon="8.576816">
|
|
<ele>2.902277</ele>
|
|
<time>2026-07-11T08:19:50.000Z</time>
|
|
</trkpt>
|
|
<trkpt lat="55.445195" lon="8.576739">
|
|
<ele>2.907362</ele>
|
|
<time>2026-07-11T08:19:51.000Z</time>
|
|
</trkpt>
|
|
<trkpt lat="55.445216" lon="8.576661">
|
|
<ele>2.912407</ele>
|
|
<time>2026-07-11T08:19:52.000Z</time>
|
|
</trkpt>
|
|
<trkpt lat="55.445239" lon="8.576583">
|
|
<ele>2.917544</ele>
|
|
<time>2026-07-11T08:19:53.000Z</time>
|
|
</trkpt>
|
|
<trkpt lat="55.445260" lon="8.576502">
|
|
<ele>2.922748</ele>
|
|
<time>2026-07-11T08:19:54.000Z</time>
|
|
</trkpt>
|
|
<trkpt lat="55.445278" lon="8.576419">
|
|
<ele>2.927941</ele>
|
|
<time>2026-07-11T08:19:55.000Z</time>
|
|
</trkpt>
|
|
<trkpt lat="55.445293" lon="8.576335">
|
|
<ele>2.933087</ele>
|
|
<time>2026-07-11T08:19:56.000Z</time>
|
|
</trkpt>
|
|
<trkpt lat="55.445308" lon="8.576249">
|
|
<ele>2.938344</ele>
|
|
<time>2026-07-11T08:19:57.000Z</time>
|
|
</trkpt>
|
|
<trkpt lat="55.445322" lon="8.576159">
|
|
<ele>2.933566</ele>
|
|
<time>2026-07-11T08:19:58.000Z</time>
|
|
</trkpt>
|
|
<trkpt lat="55.445333" lon="8.576069">
|
|
<ele>2.916879</ele>
|
|
<time>2026-07-11T08:19:59.000Z</time>
|
|
</trkpt>
|
|
<trkpt lat="55.445346" lon="8.575980">
|
|
<ele>2.900221</ele>
|
|
<time>2026-07-11T08:20:00.000Z</time>
|
|
</trkpt>
|
|
<trkpt lat="55.445363" lon="8.575893">
|
|
<ele>2.883542</ele>
|
|
<time>2026-07-11T08:20:01.000Z</time>
|
|
</trkpt>
|
|
<trkpt lat="55.445379" lon="8.575807">
|
|
<ele>2.867137</ele>
|
|
<time>2026-07-11T08:20:02.000Z</time>
|
|
</trkpt>
|
|
<trkpt lat="55.445392" lon="8.575720">
|
|
<ele>2.850830</ele>
|
|
<time>2026-07-11T08:20:03.000Z</time>
|
|
</trkpt>
|
|
<trkpt lat="55.445407" lon="8.575633">
|
|
<ele>2.834348</ele>
|
|
<time>2026-07-11T08:20:04.000Z</time>
|
|
</trkpt>
|
|
<trkpt lat="55.445421" lon="8.575544">
|
|
<ele>2.817607</ele>
|
|
<time>2026-07-11T08:20:05.000Z</time>
|
|
</trkpt>
|
|
<trkpt lat="55.445432" lon="8.575453">
|
|
<ele>2.800743</ele>
|
|
<time>2026-07-11T08:20:06.000Z</time>
|
|
</trkpt>
|
|
<trkpt lat="55.445445" lon="8.575363">
|
|
<ele>2.783909</ele>
|
|
<time>2026-07-11T08:20:07.000Z</time>
|
|
</trkpt>
|
|
<trkpt lat="55.445459" lon="8.575272">
|
|
<ele>2.766819</ele>
|
|
<time>2026-07-11T08:20:08.000Z</time>
|
|
</trkpt>
|
|
<trkpt lat="55.445472" lon="8.575181">
|
|
<ele>2.749810</ele>
|
|
<time>2026-07-11T08:20:09.000Z</time>
|
|
</trkpt>
|
|
<trkpt lat="55.445487" lon="8.575089">
|
|
<ele>2.732459</ele>
|
|
<time>2026-07-11T08:20:10.000Z</time>
|
|
</trkpt>
|
|
<trkpt lat="55.445503" lon="8.574995">
|
|
<ele>2.714670</ele>
|
|
<time>2026-07-11T08:20:11.000Z</time>
|
|
</trkpt>
|
|
<trkpt lat="55.445518" lon="8.574902">
|
|
<ele>2.697145</ele>
|
|
<time>2026-07-11T08:20:12.000Z</time>
|
|
</trkpt>
|
|
<trkpt lat="55.445531" lon="8.574808">
|
|
<ele>2.679608</ele>
|
|
<time>2026-07-11T08:20:13.000Z</time>
|
|
</trkpt>
|
|
<trkpt lat="55.445545" lon="8.574713">
|
|
<ele>2.661817</ele>
|
|
<time>2026-07-11T08:20:14.000Z</time>
|
|
</trkpt>
|
|
<trkpt lat="55.445560" lon="8.574618">
|
|
<ele>2.643943</ele>
|
|
<time>2026-07-11T08:20:15.000Z</time>
|
|
</trkpt>
|
|
<trkpt lat="55.445575" lon="8.574522">
|
|
<ele>2.625895</ele>
|
|
<time>2026-07-11T08:20:16.000Z</time>
|
|
</trkpt>
|
|
<trkpt lat="55.445590" lon="8.574424">
|
|
<ele>2.607497</ele>
|
|
<time>2026-07-11T08:20:17.000Z</time>
|
|
</trkpt>
|
|
<trkpt lat="55.445606" lon="8.574328">
|
|
<ele>2.589360</ele>
|
|
<time>2026-07-11T08:20:18.000Z</time>
|
|
</trkpt>
|
|
<trkpt lat="55.445619" lon="8.574234">
|
|
<ele>2.571823</ele>
|
|
<time>2026-07-11T08:20:19.000Z</time>
|
|
</trkpt>
|
|
<trkpt lat="55.445632" lon="8.574140">
|
|
<ele>2.554286</ele>
|
|
<time>2026-07-11T08:20:20.000Z</time>
|
|
</trkpt>
|
|
<trkpt lat="55.445646" lon="8.574046">
|
|
<ele>2.536671</ele>
|
|
<time>2026-07-11T08:20:21.000Z</time>
|
|
</trkpt>
|
|
<trkpt lat="55.445659" lon="8.573953">
|
|
<ele>2.519310</ele>
|
|
<time>2026-07-11T08:20:22.000Z</time>
|
|
</trkpt>
|
|
<trkpt lat="55.445673" lon="8.573861">
|
|
<ele>2.502045</ele>
|
|
<time>2026-07-11T08:20:23.000Z</time>
|
|
</trkpt>
|
|
<trkpt lat="55.445684" lon="8.573770">
|
|
<ele>2.485180</ele>
|
|
<time>2026-07-11T08:20:24.000Z</time>
|
|
</trkpt>
|
|
<trkpt lat="55.445697" lon="8.573679">
|
|
<ele>2.468171</ele>
|
|
<time>2026-07-11T08:20:25.000Z</time>
|
|
</trkpt>
|
|
<trkpt lat="55.445711" lon="8.573590">
|
|
<ele>2.451431</ele>
|
|
<time>2026-07-11T08:20:26.000Z</time>
|
|
</trkpt>
|
|
<trkpt lat="55.445722" lon="8.573498">
|
|
<ele>2.434389</ele>
|
|
<time>2026-07-11T08:20:27.000Z</time>
|
|
</trkpt>
|
|
<trkpt lat="55.445735" lon="8.573403">
|
|
<ele>2.416676</ele>
|
|
<time>2026-07-11T08:20:28.000Z</time>
|
|
</trkpt>
|
|
<trkpt lat="55.445751" lon="8.573310">
|
|
<ele>2.399061</ele>
|
|
<time>2026-07-11T08:20:29.000Z</time>
|
|
</trkpt>
|
|
<trkpt lat="55.445762" lon="8.573218">
|
|
<ele>2.382019</ele>
|
|
<time>2026-07-11T08:20:30.000Z</time>
|
|
</trkpt>
|
|
<trkpt lat="55.445773" lon="8.573126">
|
|
<ele>2.367108</ele>
|
|
<time>2026-07-11T08:20:31.000Z</time>
|
|
</trkpt>
|
|
<trkpt lat="55.445789" lon="8.573036">
|
|
<ele>2.373645</ele>
|
|
<time>2026-07-11T08:20:32.000Z</time>
|
|
</trkpt>
|
|
<trkpt lat="55.445804" lon="8.572946">
|
|
<ele>2.380148</ele>
|
|
<time>2026-07-11T08:20:33.000Z</time>
|
|
</trkpt>
|
|
<trkpt lat="55.445817" lon="8.572855">
|
|
<ele>2.386652</ele>
|
|
<time>2026-07-11T08:20:34.000Z</time>
|
|
</trkpt>
|
|
<trkpt lat="55.445829" lon="8.572765">
|
|
<ele>2.393061</ele>
|
|
<time>2026-07-11T08:20:35.000Z</time>
|
|
</trkpt>
|
|
<trkpt lat="55.445842" lon="8.572673">
|
|
<ele>2.399633</ele>
|
|
<time>2026-07-11T08:20:36.000Z</time>
|
|
</trkpt>
|
|
<trkpt lat="55.445856" lon="8.572581">
|
|
<ele>2.406235</ele>
|
|
<time>2026-07-11T08:20:37.000Z</time>
|
|
</trkpt>
|
|
<trkpt lat="55.445867" lon="8.572491">
|
|
<ele>2.412617</ele>
|
|
<time>2026-07-11T08:20:38.000Z</time>
|
|
</trkpt>
|
|
<trkpt lat="55.445880" lon="8.572400">
|
|
<ele>2.419121</ele>
|
|
<time>2026-07-11T08:20:39.000Z</time>
|
|
</trkpt>
|
|
<trkpt lat="55.445894" lon="8.572309">
|
|
<ele>2.425657</ele>
|
|
<time>2026-07-11T08:20:40.000Z</time>
|
|
</trkpt>
|
|
<trkpt lat="55.445905" lon="8.572219">
|
|
<ele>2.432038</ele>
|
|
<time>2026-07-11T08:20:41.000Z</time>
|
|
</trkpt>
|
|
<trkpt lat="55.445916" lon="8.572129">
|
|
<ele>2.438420</ele>
|
|
<time>2026-07-11T08:20:42.000Z</time>
|
|
</trkpt>
|
|
<trkpt lat="55.445930" lon="8.572040">
|
|
<ele>2.444822</ele>
|
|
<time>2026-07-11T08:20:43.000Z</time>
|
|
</trkpt>
|
|
<trkpt lat="55.445943" lon="8.571949">
|
|
<ele>2.451326</ele>
|
|
<time>2026-07-11T08:20:44.000Z</time>
|
|
</trkpt>
|
|
<trkpt lat="55.445955" lon="8.571860">
|
|
<ele>2.457667</ele>
|
|
<time>2026-07-11T08:20:45.000Z</time>
|
|
</trkpt>
|
|
<trkpt lat="55.445966" lon="8.571771">
|
|
<ele>2.463981</ele>
|
|
<time>2026-07-11T08:20:46.000Z</time>
|
|
</trkpt>
|
|
<trkpt lat="55.445978" lon="8.571682">
|
|
<ele>2.470322</ele>
|
|
<time>2026-07-11T08:20:47.000Z</time>
|
|
</trkpt>
|
|
<trkpt lat="55.445989" lon="8.571593">
|
|
<ele>2.476636</ele>
|
|
<time>2026-07-11T08:20:48.000Z</time>
|
|
</trkpt>
|
|
<trkpt lat="55.446001" lon="8.571505">
|
|
<ele>2.482909</ele>
|
|
<time>2026-07-11T08:20:49.000Z</time>
|
|
</trkpt>
|
|
<trkpt lat="55.446014" lon="8.571416">
|
|
<ele>2.489279</ele>
|
|
<time>2026-07-11T08:20:50.000Z</time>
|
|
</trkpt>
|
|
<trkpt lat="55.446029" lon="8.571327">
|
|
<ele>2.495715</ele>
|
|
<time>2026-07-11T08:20:51.000Z</time>
|
|
</trkpt>
|
|
<trkpt lat="55.446044" lon="8.571239">
|
|
<ele>2.502084</ele>
|
|
<time>2026-07-11T08:20:52.000Z</time>
|
|
</trkpt>
|
|
<trkpt lat="55.446060" lon="8.571150">
|
|
<ele>2.508556</ele>
|
|
<time>2026-07-11T08:20:53.000Z</time>
|
|
</trkpt>
|
|
<trkpt lat="55.446073" lon="8.571060">
|
|
<ele>2.514993</ele>
|
|
<time>2026-07-11T08:20:54.000Z</time>
|
|
</trkpt>
|
|
<trkpt lat="55.446086" lon="8.570968">
|
|
<ele>2.521565</ele>
|
|
<time>2026-07-11T08:20:55.000Z</time>
|
|
</trkpt>
|
|
<trkpt lat="55.446100" lon="8.570876">
|
|
<ele>2.528167</ele>
|
|
<time>2026-07-11T08:20:56.000Z</time>
|
|
</trkpt>
|
|
<trkpt lat="55.446113" lon="8.570783">
|
|
<ele>2.534807</ele>
|
|
<time>2026-07-11T08:20:57.000Z</time>
|
|
</trkpt>
|
|
<trkpt lat="55.446128" lon="8.570690">
|
|
<ele>2.541508</ele>
|
|
<time>2026-07-11T08:20:58.000Z</time>
|
|
</trkpt>
|
|
<trkpt lat="55.446143" lon="8.570597">
|
|
<ele>2.548210</ele>
|
|
<time>2026-07-11T08:20:59.000Z</time>
|
|
</trkpt>
|
|
<trkpt lat="55.446159" lon="8.570503">
|
|
<ele>2.555013</ele>
|
|
<time>2026-07-11T08:21:00.000Z</time>
|
|
</trkpt>
|
|
<trkpt lat="55.446172" lon="8.570409">
|
|
<ele>2.561719</ele>
|
|
<time>2026-07-11T08:21:01.000Z</time>
|
|
</trkpt>
|
|
<trkpt lat="55.446185" lon="8.570314">
|
|
<ele>2.568493</ele>
|
|
<time>2026-07-11T08:21:02.000Z</time>
|
|
</trkpt>
|
|
<trkpt lat="55.446201" lon="8.570221">
|
|
<ele>2.575229</ele>
|
|
<time>2026-07-11T08:21:03.000Z</time>
|
|
</trkpt>
|
|
<trkpt lat="55.446216" lon="8.570128">
|
|
<ele>2.581931</ele>
|
|
<time>2026-07-11T08:21:04.000Z</time>
|
|
</trkpt>
|
|
<trkpt lat="55.446231" lon="8.570035">
|
|
<ele>2.582300</ele>
|
|
<time>2026-07-11T08:21:05.000Z</time>
|
|
</trkpt>
|
|
<trkpt lat="55.446246" lon="8.569941">
|
|
<ele>2.570473</ele>
|
|
<time>2026-07-11T08:21:06.000Z</time>
|
|
</trkpt>
|
|
<trkpt lat="55.446260" lon="8.569846">
|
|
<ele>2.558584</ele>
|
|
<time>2026-07-11T08:21:07.000Z</time>
|
|
</trkpt>
|
|
<trkpt lat="55.446271" lon="8.569748">
|
|
<ele>2.546484</ele>
|
|
<time>2026-07-11T08:21:08.000Z</time>
|
|
</trkpt>
|
|
<trkpt lat="55.446283" lon="8.569652">
|
|
<ele>2.534577</ele>
|
|
<time>2026-07-11T08:21:09.000Z</time>
|
|
</trkpt>
|
|
<trkpt lat="55.446296" lon="8.569556">
|
|
<ele>2.522622</ele>
|
|
<time>2026-07-11T08:21:10.000Z</time>
|
|
</trkpt>
|
|
<trkpt lat="55.446311" lon="8.569459">
|
|
<ele>2.510445</ele>
|
|
<time>2026-07-11T08:21:11.000Z</time>
|
|
</trkpt>
|
|
<trkpt lat="55.446326" lon="8.569360">
|
|
<ele>2.498033</ele>
|
|
<time>2026-07-11T08:21:12.000Z</time>
|
|
</trkpt>
|
|
<trkpt lat="55.446343" lon="8.569256">
|
|
<ele>2.484924</ele>
|
|
<time>2026-07-11T08:21:13.000Z</time>
|
|
</trkpt>
|
|
<trkpt lat="55.446361" lon="8.569154">
|
|
<ele>2.471985</ele>
|
|
<time>2026-07-11T08:21:14.000Z</time>
|
|
</trkpt>
|
|
<trkpt lat="55.446378" lon="8.569050">
|
|
<ele>2.458876</ele>
|
|
<time>2026-07-11T08:21:15.000Z</time>
|
|
</trkpt>
|
|
<trkpt lat="55.446398" lon="8.568945">
|
|
<ele>2.445460</ele>
|
|
<time>2026-07-11T08:21:16.000Z</time>
|
|
</trkpt>
|
|
<trkpt lat="55.446421" lon="8.568838">
|
|
<ele>2.431600</ele>
|
|
<time>2026-07-11T08:21:17.000Z</time>
|
|
</trkpt>
|
|
<trkpt lat="55.446444" lon="8.568731">
|
|
<ele>2.417740</ele>
|
|
<time>2026-07-11T08:21:18.000Z</time>
|
|
</trkpt>
|
|
<trkpt lat="55.446465" lon="8.568623">
|
|
<ele>2.403912</ele>
|
|
<time>2026-07-11T08:21:19.000Z</time>
|
|
</trkpt>
|
|
<trkpt lat="55.446486" lon="8.568516">
|
|
<ele>2.390198</ele>
|
|
<time>2026-07-11T08:21:20.000Z</time>
|
|
</trkpt>
|
|
<trkpt lat="55.446509" lon="8.568410">
|
|
<ele>2.376451</ele>
|
|
<time>2026-07-11T08:21:21.000Z</time>
|
|
</trkpt>
|
|
<trkpt lat="55.446530" lon="8.568303">
|
|
<ele>2.362737</ele>
|
|
<time>2026-07-11T08:21:22.000Z</time>
|
|
</trkpt>
|
|
<trkpt lat="55.446553" lon="8.568195">
|
|
<ele>2.348765</ele>
|
|
<time>2026-07-11T08:21:23.000Z</time>
|
|
</trkpt>
|
|
<trkpt lat="55.446579" lon="8.568090">
|
|
<ele>2.334888</ele>
|
|
<time>2026-07-11T08:21:24.000Z</time>
|
|
</trkpt>
|
|
<trkpt lat="55.446606" lon="8.567990">
|
|
<ele>2.321473</ele>
|
|
<time>2026-07-11T08:21:25.000Z</time>
|
|
</trkpt>
|
|
<trkpt lat="55.446634" lon="8.567891">
|
|
<ele>2.308074</ele>
|
|
<time>2026-07-11T08:21:26.000Z</time>
|
|
</trkpt>
|
|
<trkpt lat="55.446663" lon="8.567792">
|
|
<ele>2.294578</ele>
|
|
<time>2026-07-11T08:21:27.000Z</time>
|
|
</trkpt>
|
|
<trkpt lat="55.446690" lon="8.567690">
|
|
<ele>2.280944</ele>
|
|
<time>2026-07-11T08:21:28.000Z</time>
|
|
</trkpt>
|
|
<trkpt lat="55.446718" lon="8.567587">
|
|
<ele>2.267110</ele>
|
|
<time>2026-07-11T08:21:29.000Z</time>
|
|
</trkpt>
|
|
<trkpt lat="55.446749" lon="8.567485">
|
|
<ele>2.253094</ele>
|
|
<time>2026-07-11T08:21:30.000Z</time>
|
|
</trkpt>
|
|
<trkpt lat="55.446781" lon="8.567384">
|
|
<ele>2.239081</ele>
|
|
<time>2026-07-11T08:21:31.000Z</time>
|
|
</trkpt>
|
|
<trkpt lat="55.446813" lon="8.567286">
|
|
<ele>2.225385</ele>
|
|
<time>2026-07-11T08:21:32.000Z</time>
|
|
</trkpt>
|
|
<trkpt lat="55.446845" lon="8.567187">
|
|
<ele>2.211583</ele>
|
|
<time>2026-07-11T08:21:33.000Z</time>
|
|
</trkpt>
|
|
<trkpt lat="55.446875" lon="8.567088">
|
|
<ele>2.205320</ele>
|
|
<time>2026-07-11T08:21:34.000Z</time>
|
|
</trkpt>
|
|
<trkpt lat="55.446905" lon="8.566989">
|
|
<ele>2.215264</ele>
|
|
<time>2026-07-11T08:21:35.000Z</time>
|
|
</trkpt>
|
|
<trkpt lat="55.446936" lon="8.566891">
|
|
<ele>2.225204</ele>
|
|
<time>2026-07-11T08:21:36.000Z</time>
|
|
</trkpt>
|
|
<trkpt lat="55.446967" lon="8.566794">
|
|
<ele>2.235068</ele>
|
|
<time>2026-07-11T08:21:37.000Z</time>
|
|
</trkpt>
|
|
<trkpt lat="55.446999" lon="8.566699">
|
|
<ele>2.244856</ele>
|
|
<time>2026-07-11T08:21:38.000Z</time>
|
|
</trkpt>
|
|
<trkpt lat="55.447032" lon="8.566602">
|
|
<ele>2.254877</ele>
|
|
<time>2026-07-11T08:21:39.000Z</time>
|
|
</trkpt>
|
|
<trkpt lat="55.447062" lon="8.566504">
|
|
<ele>2.264742</ele>
|
|
<time>2026-07-11T08:21:40.000Z</time>
|
|
</trkpt>
|
|
<trkpt lat="55.447094" lon="8.566408">
|
|
<ele>2.274607</ele>
|
|
<time>2026-07-11T08:21:41.000Z</time>
|
|
</trkpt>
|
|
<trkpt lat="55.447127" lon="8.566313">
|
|
<ele>2.284476</ele>
|
|
<time>2026-07-11T08:21:42.000Z</time>
|
|
</trkpt>
|
|
<trkpt lat="55.447159" lon="8.566217">
|
|
<ele>2.294340</ele>
|
|
<time>2026-07-11T08:21:43.000Z</time>
|
|
</trkpt>
|
|
<trkpt lat="55.447192" lon="8.566119">
|
|
<ele>2.304437</ele>
|
|
<time>2026-07-11T08:21:44.000Z</time>
|
|
</trkpt>
|
|
<trkpt lat="55.447224" lon="8.566023">
|
|
<ele>2.314301</ele>
|
|
<time>2026-07-11T08:21:45.000Z</time>
|
|
</trkpt>
|
|
<trkpt lat="55.447257" lon="8.565928">
|
|
<ele>2.324170</ele>
|
|
<time>2026-07-11T08:21:46.000Z</time>
|
|
</trkpt>
|
|
<trkpt lat="55.447289" lon="8.565833">
|
|
<ele>2.333959</ele>
|
|
<time>2026-07-11T08:21:47.000Z</time>
|
|
</trkpt>
|
|
<trkpt lat="55.447321" lon="8.565734">
|
|
<ele>2.344053</ele>
|
|
<time>2026-07-11T08:21:48.000Z</time>
|
|
</trkpt>
|
|
<trkpt lat="55.447354" lon="8.565635">
|
|
<ele>2.354226</ele>
|
|
<time>2026-07-11T08:21:49.000Z</time>
|
|
</trkpt>
|
|
<trkpt lat="55.447386" lon="8.565538">
|
|
<ele>2.364167</ele>
|
|
<time>2026-07-11T08:21:50.000Z</time>
|
|
</trkpt>
|
|
<trkpt lat="55.447417" lon="8.565442">
|
|
<ele>2.373953</ele>
|
|
<time>2026-07-11T08:21:51.000Z</time>
|
|
</trkpt>
|
|
<trkpt lat="55.447450" lon="8.565344">
|
|
<ele>2.384050</ele>
|
|
<time>2026-07-11T08:21:52.000Z</time>
|
|
</trkpt>
|
|
<trkpt lat="55.447483" lon="8.565245">
|
|
<ele>2.394222</ele>
|
|
<time>2026-07-11T08:21:53.000Z</time>
|
|
</trkpt>
|
|
<trkpt lat="55.447518" lon="8.565147">
|
|
<ele>2.404482</ele>
|
|
<time>2026-07-11T08:21:54.000Z</time>
|
|
</trkpt>
|
|
<trkpt lat="55.447551" lon="8.565051">
|
|
<ele>2.414426</ele>
|
|
<time>2026-07-11T08:21:55.000Z</time>
|
|
</trkpt>
|
|
<trkpt lat="55.447583" lon="8.564954">
|
|
<ele>2.424367</ele>
|
|
<time>2026-07-11T08:21:56.000Z</time>
|
|
</trkpt>
|
|
<trkpt lat="55.447615" lon="8.564855">
|
|
<ele>2.434462</ele>
|
|
<time>2026-07-11T08:21:57.000Z</time>
|
|
</trkpt>
|
|
<trkpt lat="55.447646" lon="8.564753">
|
|
<ele>2.444713</ele>
|
|
<time>2026-07-11T08:21:58.000Z</time>
|
|
</trkpt>
|
|
<trkpt lat="55.447678" lon="8.564653">
|
|
<ele>2.454885</ele>
|
|
<time>2026-07-11T08:21:59.000Z</time>
|
|
</trkpt>
|
|
<trkpt lat="55.447712" lon="8.564553">
|
|
<ele>2.465214</ele>
|
|
<time>2026-07-11T08:22:00.000Z</time>
|
|
</trkpt>
|
|
<trkpt lat="55.447745" lon="8.564455">
|
|
<ele>2.475310</ele>
|
|
<time>2026-07-11T08:22:01.000Z</time>
|
|
</trkpt>
|
|
<trkpt lat="55.447777" lon="8.564358">
|
|
<ele>2.486883</ele>
|
|
<time>2026-07-11T08:22:02.000Z</time>
|
|
</trkpt>
|
|
<trkpt lat="55.447812" lon="8.564261">
|
|
<ele>2.505025</ele>
|
|
<time>2026-07-11T08:22:03.000Z</time>
|
|
</trkpt>
|
|
<trkpt lat="55.447844" lon="8.564164">
|
|
<ele>2.522734</ele>
|
|
<time>2026-07-11T08:22:04.000Z</time>
|
|
</trkpt>
|
|
<trkpt lat="55.447876" lon="8.564068">
|
|
<ele>2.540306</ele>
|
|
<time>2026-07-11T08:22:05.000Z</time>
|
|
</trkpt>
|
|
<trkpt lat="55.447913" lon="8.563971">
|
|
<ele>2.558753</ele>
|
|
<time>2026-07-11T08:22:06.000Z</time>
|
|
</trkpt>
|
|
<trkpt lat="55.447951" lon="8.563876">
|
|
<ele>2.577098</ele>
|
|
<time>2026-07-11T08:22:07.000Z</time>
|
|
</trkpt>
|
|
<trkpt lat="55.447989" lon="8.563785">
|
|
<ele>2.594931</ele>
|
|
<time>2026-07-11T08:22:08.000Z</time>
|
|
</trkpt>
|
|
<trkpt lat="55.448029" lon="8.563698">
|
|
<ele>2.612605</ele>
|
|
<time>2026-07-11T08:22:09.000Z</time>
|
|
</trkpt>
|
|
<trkpt lat="55.448072" lon="8.563614">
|
|
<ele>2.630462</ele>
|
|
<time>2026-07-11T08:22:10.000Z</time>
|
|
</trkpt>
|
|
<trkpt lat="55.448118" lon="8.563531">
|
|
<ele>2.648775</ele>
|
|
<time>2026-07-11T08:22:11.000Z</time>
|
|
</trkpt>
|
|
<trkpt lat="55.448165" lon="8.563454">
|
|
<ele>2.666626</ele>
|
|
<time>2026-07-11T08:22:12.000Z</time>
|
|
</trkpt>
|
|
<trkpt lat="55.448212" lon="8.563380">
|
|
<ele>2.684159</ele>
|
|
<time>2026-07-11T08:22:13.000Z</time>
|
|
</trkpt>
|
|
<trkpt lat="55.448263" lon="8.563309">
|
|
<ele>2.702239</ele>
|
|
<time>2026-07-11T08:22:14.000Z</time>
|
|
</trkpt>
|
|
<trkpt lat="55.448316" lon="8.563243">
|
|
<ele>2.720293</ele>
|
|
<time>2026-07-11T08:22:15.000Z</time>
|
|
</trkpt>
|
|
<trkpt lat="55.448370" lon="8.563180">
|
|
<ele>2.738310</ele>
|
|
<time>2026-07-11T08:22:16.000Z</time>
|
|
</trkpt>
|
|
<trkpt lat="55.448425" lon="8.563119">
|
|
<ele>2.756389</ele>
|
|
<time>2026-07-11T08:22:17.000Z</time>
|
|
</trkpt>
|
|
<trkpt lat="55.448482" lon="8.563061">
|
|
<ele>2.774700</ele>
|
|
<time>2026-07-11T08:22:18.000Z</time>
|
|
</trkpt>
|
|
<trkpt lat="55.448538" lon="8.563009">
|
|
<ele>2.792310</ele>
|
|
<time>2026-07-11T08:22:19.000Z</time>
|
|
</trkpt>
|
|
<trkpt lat="55.448595" lon="8.562962">
|
|
<ele>2.809819</ele>
|
|
<time>2026-07-11T08:22:20.000Z</time>
|
|
</trkpt>
|
|
<trkpt lat="55.448654" lon="8.562918">
|
|
<ele>2.827643</ele>
|
|
<time>2026-07-11T08:22:21.000Z</time>
|
|
</trkpt>
|
|
<trkpt lat="55.448713" lon="8.562879">
|
|
<ele>2.845175</ele>
|
|
<time>2026-07-11T08:22:22.000Z</time>
|
|
</trkpt>
|
|
<trkpt lat="55.448774" lon="8.562845">
|
|
<ele>2.862976</ele>
|
|
<time>2026-07-11T08:22:23.000Z</time>
|
|
</trkpt>
|
|
<trkpt lat="55.448835" lon="8.562815">
|
|
<ele>2.880596</ele>
|
|
<time>2026-07-11T08:22:24.000Z</time>
|
|
</trkpt>
|
|
<trkpt lat="55.448896" lon="8.562788">
|
|
<ele>2.898096</ele>
|
|
<time>2026-07-11T08:22:25.000Z</time>
|
|
</trkpt>
|
|
<trkpt lat="55.448957" lon="8.562767">
|
|
<ele>2.915389</ele>
|
|
<time>2026-07-11T08:22:26.000Z</time>
|
|
</trkpt>
|
|
<trkpt lat="55.449020" lon="8.562751">
|
|
<ele>2.933099</ele>
|
|
<time>2026-07-11T08:22:27.000Z</time>
|
|
</trkpt>
|
|
<trkpt lat="55.449083" lon="8.562736">
|
|
<ele>2.950788</ele>
|
|
<time>2026-07-11T08:22:28.000Z</time>
|
|
</trkpt>
|
|
<trkpt lat="55.449145" lon="8.562728">
|
|
<ele>2.968085</ele>
|
|
<time>2026-07-11T08:22:29.000Z</time>
|
|
</trkpt>
|
|
<trkpt lat="55.449210" lon="8.562725">
|
|
<ele>3.001545</ele>
|
|
<time>2026-07-11T08:22:30.000Z</time>
|
|
</trkpt>
|
|
<trkpt lat="55.449275" lon="8.562728">
|
|
<ele>3.128470</ele>
|
|
<time>2026-07-11T08:22:31.000Z</time>
|
|
</trkpt>
|
|
<trkpt lat="55.449340" lon="8.562735">
|
|
<ele>3.255588</ele>
|
|
<time>2026-07-11T08:22:32.000Z</time>
|
|
</trkpt>
|
|
<trkpt lat="55.449403" lon="8.562743">
|
|
<ele>3.378884</ele>
|
|
<time>2026-07-11T08:22:33.000Z</time>
|
|
</trkpt>
|
|
<trkpt lat="55.449466" lon="8.562753">
|
|
<ele>3.502358</ele>
|
|
<time>2026-07-11T08:22:34.000Z</time>
|
|
</trkpt>
|
|
<trkpt lat="55.449529" lon="8.562766">
|
|
<ele>3.626175</ele>
|
|
<time>2026-07-11T08:22:35.000Z</time>
|
|
</trkpt>
|
|
<trkpt lat="55.449590" lon="8.562785">
|
|
<ele>3.747092</ele>
|
|
<time>2026-07-11T08:22:36.000Z</time>
|
|
</trkpt>
|
|
<trkpt lat="55.449651" lon="8.562807">
|
|
<ele>3.868631</ele>
|
|
<time>2026-07-11T08:22:37.000Z</time>
|
|
</trkpt>
|
|
<trkpt lat="55.449712" lon="8.562828">
|
|
<ele>3.989952</ele>
|
|
<time>2026-07-11T08:22:38.000Z</time>
|
|
</trkpt>
|
|
<trkpt lat="55.449772" lon="8.562851">
|
|
<ele>4.109809</ele>
|
|
<time>2026-07-11T08:22:39.000Z</time>
|
|
</trkpt>
|
|
<trkpt lat="55.449829" lon="8.562878">
|
|
<ele>4.225020</ele>
|
|
<time>2026-07-11T08:22:40.000Z</time>
|
|
</trkpt>
|
|
<trkpt lat="55.449884" lon="8.562902">
|
|
<ele>4.335620</ele>
|
|
<time>2026-07-11T08:22:41.000Z</time>
|
|
</trkpt>
|
|
<trkpt lat="55.449938" lon="8.562928">
|
|
<ele>4.444888</ele>
|
|
<time>2026-07-11T08:22:42.000Z</time>
|
|
</trkpt>
|
|
<trkpt lat="55.449991" lon="8.562957">
|
|
<ele>4.553212</ele>
|
|
<time>2026-07-11T08:22:43.000Z</time>
|
|
</trkpt>
|
|
<trkpt lat="55.450044" lon="8.562986">
|
|
<ele>4.661536</ele>
|
|
<time>2026-07-11T08:22:44.000Z</time>
|
|
</trkpt>
|
|
<trkpt lat="55.450097" lon="8.563014">
|
|
<ele>4.769537</ele>
|
|
<time>2026-07-11T08:22:45.000Z</time>
|
|
</trkpt>
|
|
<trkpt lat="55.450147" lon="8.563038">
|
|
<ele>4.870690</ele>
|
|
<time>2026-07-11T08:22:46.000Z</time>
|
|
</trkpt>
|
|
<trkpt lat="55.450190" lon="8.563052">
|
|
<ele>4.956046</ele>
|
|
<time>2026-07-11T08:22:47.000Z</time>
|
|
</trkpt>
|
|
<trkpt lat="55.450221" lon="8.563057">
|
|
<ele>5.016811</ele>
|
|
<time>2026-07-11T08:22:48.000Z</time>
|
|
</trkpt>
|
|
<trkpt lat="55.450242" lon="8.563059">
|
|
<ele>5.057863</ele>
|
|
<time>2026-07-11T08:22:49.000Z</time>
|
|
</trkpt>
|
|
<trkpt lat="55.450259" lon="8.563066">
|
|
<ele>5.091940</ele>
|
|
<time>2026-07-11T08:22:50.000Z</time>
|
|
</trkpt>
|
|
<trkpt lat="55.450275" lon="8.563079">
|
|
<ele>5.126329</ele>
|
|
<time>2026-07-11T08:22:51.000Z</time>
|
|
</trkpt>
|
|
<trkpt lat="55.450292" lon="8.563099">
|
|
<ele>5.166221</ele>
|
|
<time>2026-07-11T08:22:52.000Z</time>
|
|
</trkpt>
|
|
<trkpt lat="55.450314" lon="8.563121">
|
|
<ele>5.215591</ele>
|
|
<time>2026-07-11T08:22:53.000Z</time>
|
|
</trkpt>
|
|
<trkpt lat="55.450345" lon="8.563143">
|
|
<ele>5.280821</ele>
|
|
<time>2026-07-11T08:22:54.000Z</time>
|
|
</trkpt>
|
|
<trkpt lat="55.450379" lon="8.563166">
|
|
<ele>5.351906</ele>
|
|
<time>2026-07-11T08:22:55.000Z</time>
|
|
</trkpt>
|
|
<trkpt lat="55.450413" lon="8.563188">
|
|
<ele>5.422603</ele>
|
|
<time>2026-07-11T08:22:56.000Z</time>
|
|
</trkpt>
|
|
<trkpt lat="55.450451" lon="8.563212">
|
|
<ele>5.501394</ele>
|
|
<time>2026-07-11T08:22:57.000Z</time>
|
|
</trkpt>
|
|
<trkpt lat="55.450493" lon="8.563238">
|
|
<ele>5.588285</ele>
|
|
<time>2026-07-11T08:22:58.000Z</time>
|
|
</trkpt>
|
|
<trkpt lat="55.450534" lon="8.563263">
|
|
<ele>5.672968</ele>
|
|
<time>2026-07-11T08:22:59.000Z</time>
|
|
</trkpt>
|
|
<trkpt lat="55.450575" lon="8.563288">
|
|
<ele>5.757651</ele>
|
|
<time>2026-07-11T08:23:00.000Z</time>
|
|
</trkpt>
|
|
<trkpt lat="55.450617" lon="8.563311">
|
|
<ele>5.843499</ele>
|
|
<time>2026-07-11T08:23:01.000Z</time>
|
|
</trkpt>
|
|
<trkpt lat="55.450662" lon="8.563334">
|
|
<ele>5.934955</ele>
|
|
<time>2026-07-11T08:23:02.000Z</time>
|
|
</trkpt>
|
|
<trkpt lat="55.450708" lon="8.563359">
|
|
<ele>6.028917</ele>
|
|
<time>2026-07-11T08:23:03.000Z</time>
|
|
</trkpt>
|
|
<trkpt lat="55.450752" lon="8.563385">
|
|
<ele>6.119500</ele>
|
|
<time>2026-07-11T08:23:04.000Z</time>
|
|
</trkpt>
|
|
<trkpt lat="55.450794" lon="8.563413">
|
|
<ele>6.207149</ele>
|
|
<time>2026-07-11T08:23:05.000Z</time>
|
|
</trkpt>
|
|
<trkpt lat="55.450838" lon="8.563438">
|
|
<ele>6.297387</ele>
|
|
<time>2026-07-11T08:23:06.000Z</time>
|
|
</trkpt>
|
|
<trkpt lat="55.450884" lon="8.563461">
|
|
<ele>6.390720</ele>
|
|
<time>2026-07-11T08:23:07.000Z</time>
|
|
</trkpt>
|
|
<trkpt lat="55.450928" lon="8.563484">
|
|
<ele>6.480303</ele>
|
|
<time>2026-07-11T08:23:08.000Z</time>
|
|
</trkpt>
|
|
<trkpt lat="55.450973" lon="8.563511">
|
|
<ele>6.504296</ele>
|
|
<time>2026-07-11T08:23:09.000Z</time>
|
|
</trkpt>
|
|
<trkpt lat="55.451021" lon="8.563539">
|
|
<ele>6.516471</ele>
|
|
<time>2026-07-11T08:23:10.000Z</time>
|
|
</trkpt>
|
|
<trkpt lat="55.451067" lon="8.563562">
|
|
<ele>6.527985</ele>
|
|
<time>2026-07-11T08:23:11.000Z</time>
|
|
</trkpt>
|
|
<trkpt lat="55.451113" lon="8.563577">
|
|
<ele>6.539250</ele>
|
|
<time>2026-07-11T08:23:12.000Z</time>
|
|
</trkpt>
|
|
<trkpt lat="55.451159" lon="8.563591">
|
|
<ele>6.550491</ele>
|
|
<time>2026-07-11T08:23:13.000Z</time>
|
|
</trkpt>
|
|
<trkpt lat="55.451203" lon="8.563609">
|
|
<ele>6.561368</ele>
|
|
<time>2026-07-11T08:23:14.000Z</time>
|
|
</trkpt>
|
|
<trkpt lat="55.451244" lon="8.563628">
|
|
<ele>6.571577</ele>
|
|
<time>2026-07-11T08:23:15.000Z</time>
|
|
</trkpt>
|
|
<trkpt lat="55.451287" lon="8.563647">
|
|
<ele>6.582252</ele>
|
|
<time>2026-07-11T08:23:16.000Z</time>
|
|
</trkpt>
|
|
<trkpt lat="55.451330" lon="8.563665">
|
|
<ele>6.592895</ele>
|
|
<time>2026-07-11T08:23:17.000Z</time>
|
|
</trkpt>
|
|
<trkpt lat="55.451370" lon="8.563683">
|
|
<ele>6.602836</ele>
|
|
<time>2026-07-11T08:23:18.000Z</time>
|
|
</trkpt>
|
|
<trkpt lat="55.451409" lon="8.563700">
|
|
<ele>6.612510</ele>
|
|
<time>2026-07-11T08:23:19.000Z</time>
|
|
</trkpt>
|
|
<trkpt lat="55.451445" lon="8.563717">
|
|
<ele>6.621485</ele>
|
|
<time>2026-07-11T08:23:20.000Z</time>
|
|
</trkpt>
|
|
<trkpt lat="55.451481" lon="8.563732">
|
|
<ele>6.630393</ele>
|
|
<time>2026-07-11T08:23:21.000Z</time>
|
|
</trkpt>
|
|
<trkpt lat="55.451513" lon="8.563746">
|
|
<ele>6.638333</ele>
|
|
<time>2026-07-11T08:23:22.000Z</time>
|
|
</trkpt>
|
|
<trkpt lat="55.451544" lon="8.563761">
|
|
<ele>6.646074</ele>
|
|
<time>2026-07-11T08:23:23.000Z</time>
|
|
</trkpt>
|
|
<trkpt lat="55.451578" lon="8.563779">
|
|
<ele>6.654622</ele>
|
|
<time>2026-07-11T08:23:24.000Z</time>
|
|
</trkpt>
|
|
<trkpt lat="55.451609" lon="8.563794">
|
|
<ele>6.662364</ele>
|
|
<time>2026-07-11T08:23:25.000Z</time>
|
|
</trkpt>
|
|
<trkpt lat="55.451642" lon="8.563805">
|
|
<ele>6.670451</ele>
|
|
<time>2026-07-11T08:23:26.000Z</time>
|
|
</trkpt>
|
|
<trkpt lat="55.451672" lon="8.563816">
|
|
<ele>6.677830</ele>
|
|
<time>2026-07-11T08:23:27.000Z</time>
|
|
</trkpt>
|
|
<trkpt lat="55.451702" lon="8.563830">
|
|
<ele>6.685303</ele>
|
|
<time>2026-07-11T08:23:28.000Z</time>
|
|
</trkpt>
|
|
<trkpt lat="55.451735" lon="8.563844">
|
|
<ele>6.693477</ele>
|
|
<time>2026-07-11T08:23:29.000Z</time>
|
|
</trkpt>
|
|
<trkpt lat="55.451769" lon="8.563859">
|
|
<ele>6.701917</ele>
|
|
<time>2026-07-11T08:23:30.000Z</time>
|
|
</trkpt>
|
|
<trkpt lat="55.451809" lon="8.563876">
|
|
<ele>6.711825</ele>
|
|
<time>2026-07-11T08:23:31.000Z</time>
|
|
</trkpt>
|
|
<trkpt lat="55.451850" lon="8.563894">
|
|
<ele>6.722000</ele>
|
|
<time>2026-07-11T08:23:32.000Z</time>
|
|
</trkpt>
|
|
<trkpt lat="55.451896" lon="8.563914">
|
|
<ele>6.733409</ele>
|
|
<time>2026-07-11T08:23:33.000Z</time>
|
|
</trkpt>
|
|
<trkpt lat="55.451944" lon="8.563934">
|
|
<ele>6.745286</ele>
|
|
<time>2026-07-11T08:23:34.000Z</time>
|
|
</trkpt>
|
|
<trkpt lat="55.451992" lon="8.563954">
|
|
<ele>6.757163</ele>
|
|
<time>2026-07-11T08:23:35.000Z</time>
|
|
</trkpt>
|
|
<trkpt lat="55.452043" lon="8.563976">
|
|
<ele>6.769807</ele>
|
|
<time>2026-07-11T08:23:36.000Z</time>
|
|
</trkpt>
|
|
<trkpt lat="55.452098" lon="8.563998">
|
|
<ele>6.783388</ele>
|
|
<time>2026-07-11T08:23:37.000Z</time>
|
|
</trkpt>
|
|
<trkpt lat="55.452153" lon="8.564021">
|
|
<ele>6.797000</ele>
|
|
<time>2026-07-11T08:23:38.000Z</time>
|
|
</trkpt>
|
|
<trkpt lat="55.452206" lon="8.564047">
|
|
<ele>6.810248</ele>
|
|
<time>2026-07-11T08:23:39.000Z</time>
|
|
</trkpt>
|
|
<trkpt lat="55.452261" lon="8.564073">
|
|
<ele>6.823960</ele>
|
|
<time>2026-07-11T08:23:40.000Z</time>
|
|
</trkpt>
|
|
<trkpt lat="55.452317" lon="8.564100">
|
|
<ele>6.837941</ele>
|
|
<time>2026-07-11T08:23:41.000Z</time>
|
|
</trkpt>
|
|
<trkpt lat="55.452371" lon="8.564127">
|
|
<ele>6.851457</ele>
|
|
<time>2026-07-11T08:23:42.000Z</time>
|
|
</trkpt>
|
|
<trkpt lat="55.452424" lon="8.564153">
|
|
<ele>6.864705</ele>
|
|
<time>2026-07-11T08:23:43.000Z</time>
|
|
</trkpt>
|
|
<trkpt lat="55.452476" lon="8.564177">
|
|
<ele>6.877649</ele>
|
|
<time>2026-07-11T08:23:44.000Z</time>
|
|
</trkpt>
|
|
<trkpt lat="55.452528" lon="8.564197">
|
|
<ele>6.890466</ele>
|
|
<time>2026-07-11T08:23:45.000Z</time>
|
|
</trkpt>
|
|
<trkpt lat="55.452578" lon="8.564215">
|
|
<ele>6.902754</ele>
|
|
<time>2026-07-11T08:23:46.000Z</time>
|
|
</trkpt>
|
|
<trkpt lat="55.452621" lon="8.564233">
|
|
<ele>6.913397</ele>
|
|
<time>2026-07-11T08:23:47.000Z</time>
|
|
</trkpt>
|
|
<trkpt lat="55.452662" lon="8.564250">
|
|
<ele>6.923540</ele>
|
|
<time>2026-07-11T08:23:48.000Z</time>
|
|
</trkpt>
|
|
<trkpt lat="55.452694" lon="8.564268">
|
|
<ele>6.939369</ele>
|
|
<time>2026-07-11T08:23:49.000Z</time>
|
|
</trkpt>
|
|
<trkpt lat="55.452721" lon="8.564290">
|
|
<ele>6.960826</ele>
|
|
<time>2026-07-11T08:23:50.000Z</time>
|
|
</trkpt>
|
|
<trkpt lat="55.452750" lon="8.564327">
|
|
<ele>6.986648</ele>
|
|
<time>2026-07-11T08:23:51.000Z</time>
|
|
</trkpt>
|
|
<trkpt lat="55.452771" lon="8.564374">
|
|
<ele>7.011127</ele>
|
|
<time>2026-07-11T08:23:52.000Z</time>
|
|
</trkpt>
|
|
<trkpt lat="55.452791" lon="8.564426">
|
|
<ele>7.036832</ele>
|
|
<time>2026-07-11T08:23:53.000Z</time>
|
|
</trkpt>
|
|
<trkpt lat="55.452810" lon="8.564487">
|
|
<ele>7.065303</ele>
|
|
<time>2026-07-11T08:23:54.000Z</time>
|
|
</trkpt>
|
|
<trkpt lat="55.452827" lon="8.564564">
|
|
<ele>7.099107</ele>
|
|
<time>2026-07-11T08:23:55.000Z</time>
|
|
</trkpt>
|
|
<trkpt lat="55.452840" lon="8.564638">
|
|
<ele>7.130800</ele>
|
|
<time>2026-07-11T08:23:56.000Z</time>
|
|
</trkpt>
|
|
<trkpt lat="55.452853" lon="8.564713">
|
|
<ele>7.162884</ele>
|
|
<time>2026-07-11T08:23:57.000Z</time>
|
|
</trkpt>
|
|
<trkpt lat="55.452870" lon="8.564785">
|
|
<ele>7.194790</ele>
|
|
<time>2026-07-11T08:23:58.000Z</time>
|
|
</trkpt>
|
|
<trkpt lat="55.452889" lon="8.564857">
|
|
<ele>7.227278</ele>
|
|
<time>2026-07-11T08:23:59.000Z</time>
|
|
</trkpt>
|
|
<trkpt lat="55.452910" lon="8.564926">
|
|
<ele>7.259315</ele>
|
|
<time>2026-07-11T08:24:00.000Z</time>
|
|
</trkpt>
|
|
<trkpt lat="55.452932" lon="8.564997">
|
|
<ele>7.292414</ele>
|
|
<time>2026-07-11T08:24:01.000Z</time>
|
|
</trkpt>
|
|
<trkpt lat="55.452952" lon="8.565071">
|
|
<ele>7.325950</ele>
|
|
<time>2026-07-11T08:24:02.000Z</time>
|
|
</trkpt>
|
|
<trkpt lat="55.452971" lon="8.565147">
|
|
<ele>7.359929</ele>
|
|
<time>2026-07-11T08:24:03.000Z</time>
|
|
</trkpt>
|
|
<trkpt lat="55.452988" lon="8.565225">
|
|
<ele>7.394114</ele>
|
|
<time>2026-07-11T08:24:04.000Z</time>
|
|
</trkpt>
|
|
<trkpt lat="55.453007" lon="8.565302">
|
|
<ele>7.428468</ele>
|
|
<time>2026-07-11T08:24:05.000Z</time>
|
|
</trkpt>
|
|
<trkpt lat="55.453027" lon="8.565384">
|
|
<ele>7.464985</ele>
|
|
<time>2026-07-11T08:24:06.000Z</time>
|
|
</trkpt>
|
|
<trkpt lat="55.453046" lon="8.565463">
|
|
<ele>7.500090</ele>
|
|
<time>2026-07-11T08:24:07.000Z</time>
|
|
</trkpt>
|
|
<trkpt lat="55.453065" lon="8.565544">
|
|
<ele>7.535950</ele>
|
|
<time>2026-07-11T08:24:08.000Z</time>
|
|
</trkpt>
|
|
<trkpt lat="55.453084" lon="8.565621">
|
|
<ele>7.570304</ele>
|
|
<time>2026-07-11T08:24:09.000Z</time>
|
|
</trkpt>
|
|
<trkpt lat="55.453103" lon="8.565698">
|
|
<ele>7.604657</ele>
|
|
<time>2026-07-11T08:24:10.000Z</time>
|
|
</trkpt>
|
|
<trkpt lat="55.453124" lon="8.565776">
|
|
<ele>7.639980</ele>
|
|
<time>2026-07-11T08:24:11.000Z</time>
|
|
</trkpt>
|
|
<trkpt lat="55.453145" lon="8.565856">
|
|
<ele>7.676044</ele>
|
|
<time>2026-07-11T08:24:12.000Z</time>
|
|
</trkpt>
|
|
<trkpt lat="55.453164" lon="8.565939">
|
|
<ele>7.712662</ele>
|
|
<time>2026-07-11T08:24:13.000Z</time>
|
|
</trkpt>
|
|
<trkpt lat="55.453183" lon="8.566023">
|
|
<ele>7.749659</ele>
|
|
<time>2026-07-11T08:24:14.000Z</time>
|
|
</trkpt>
|
|
<trkpt lat="55.453202" lon="8.566106">
|
|
<ele>7.786276</ele>
|
|
<time>2026-07-11T08:24:15.000Z</time>
|
|
</trkpt>
|
|
<trkpt lat="55.453221" lon="8.566186">
|
|
<ele>7.821758</ele>
|
|
<time>2026-07-11T08:24:16.000Z</time>
|
|
</trkpt>
|
|
<trkpt lat="55.453241" lon="8.566266">
|
|
<ele>7.857525</ele>
|
|
<time>2026-07-11T08:24:17.000Z</time>
|
|
</trkpt>
|
|
<trkpt lat="55.453259" lon="8.566340">
|
|
<ele>7.890466</ele>
|
|
<time>2026-07-11T08:24:18.000Z</time>
|
|
</trkpt>
|
|
<trkpt lat="55.453279" lon="8.566413">
|
|
<ele>7.923632</ele>
|
|
<time>2026-07-11T08:24:19.000Z</time>
|
|
</trkpt>
|
|
<trkpt lat="55.453302" lon="8.566490">
|
|
<ele>7.959235</ele>
|
|
<time>2026-07-11T08:24:20.000Z</time>
|
|
</trkpt>
|
|
<trkpt lat="55.453320" lon="8.566566">
|
|
<ele>7.992929</ele>
|
|
<time>2026-07-11T08:24:21.000Z</time>
|
|
</trkpt>
|
|
<trkpt lat="55.453338" lon="8.566641">
|
|
<ele>8.026246</ele>
|
|
<time>2026-07-11T08:24:22.000Z</time>
|
|
</trkpt>
|
|
<trkpt lat="55.453353" lon="8.566713">
|
|
<ele>8.057626</ele>
|
|
<time>2026-07-11T08:24:23.000Z</time>
|
|
</trkpt>
|
|
<trkpt lat="55.453368" lon="8.566783">
|
|
<ele>8.088239</ele>
|
|
<time>2026-07-11T08:24:24.000Z</time>
|
|
</trkpt>
|
|
<trkpt lat="55.453382" lon="8.566852">
|
|
<ele>8.118219</ele>
|
|
<time>2026-07-11T08:24:25.000Z</time>
|
|
</trkpt>
|
|
<trkpt lat="55.453397" lon="8.566921">
|
|
<ele>8.148450</ele>
|
|
<time>2026-07-11T08:24:26.000Z</time>
|
|
</trkpt>
|
|
<trkpt lat="55.453414" lon="8.566986">
|
|
<ele>8.177733</ele>
|
|
<time>2026-07-11T08:24:27.000Z</time>
|
|
</trkpt>
|
|
<trkpt lat="55.453431" lon="8.567053">
|
|
<ele>8.207761</ele>
|
|
<time>2026-07-11T08:24:28.000Z</time>
|
|
</trkpt>
|
|
<trkpt lat="55.453449" lon="8.567119">
|
|
<ele>8.213980</ele>
|
|
<time>2026-07-11T08:24:29.000Z</time>
|
|
</trkpt>
|
|
<trkpt lat="55.453464" lon="8.567186">
|
|
<ele>8.187080</ele>
|
|
<time>2026-07-11T08:24:30.000Z</time>
|
|
</trkpt>
|
|
<trkpt lat="55.453479" lon="8.567256">
|
|
<ele>8.159135</ele>
|
|
<time>2026-07-11T08:24:31.000Z</time>
|
|
</trkpt>
|
|
<trkpt lat="55.453494" lon="8.567328">
|
|
<ele>8.130490</ele>
|
|
<time>2026-07-11T08:24:32.000Z</time>
|
|
</trkpt>
|
|
<trkpt lat="55.453511" lon="8.567400">
|
|
<ele>8.101365</ele>
|
|
<time>2026-07-11T08:24:33.000Z</time>
|
|
</trkpt>
|
|
<trkpt lat="55.453529" lon="8.567473">
|
|
<ele>8.071638</ele>
|
|
<time>2026-07-11T08:24:34.000Z</time>
|
|
</trkpt>
|
|
<trkpt lat="55.453546" lon="8.567544">
|
|
<ele>8.042857</ele>
|
|
<time>2026-07-11T08:24:35.000Z</time>
|
|
</trkpt>
|
|
<trkpt lat="55.453565" lon="8.567616">
|
|
<ele>8.013201</ele>
|
|
<time>2026-07-11T08:24:36.000Z</time>
|
|
</trkpt>
|
|
<trkpt lat="55.453582" lon="8.567689">
|
|
<ele>7.983731</ele>
|
|
<time>2026-07-11T08:24:37.000Z</time>
|
|
</trkpt>
|
|
<trkpt lat="55.453599" lon="8.567764">
|
|
<ele>7.953568</ele>
|
|
<time>2026-07-11T08:24:38.000Z</time>
|
|
</trkpt>
|
|
<trkpt lat="55.453616" lon="8.567839">
|
|
<ele>7.923406</ele>
|
|
<time>2026-07-11T08:24:39.000Z</time>
|
|
</trkpt>
|
|
<trkpt lat="55.453632" lon="8.567915">
|
|
<ele>7.893131</ele>
|
|
<time>2026-07-11T08:24:40.000Z</time>
|
|
</trkpt>
|
|
<trkpt lat="55.453647" lon="8.567994">
|
|
<ele>7.862020</ele>
|
|
<time>2026-07-11T08:24:41.000Z</time>
|
|
</trkpt>
|
|
<trkpt lat="55.453664" lon="8.568071">
|
|
<ele>7.831163</ele>
|
|
<time>2026-07-11T08:24:42.000Z</time>
|
|
</trkpt>
|
|
<trkpt lat="55.453680" lon="8.568143">
|
|
<ele>7.802284</ele>
|
|
<time>2026-07-11T08:24:43.000Z</time>
|
|
</trkpt>
|
|
<trkpt lat="55.453691" lon="8.568214">
|
|
<ele>7.774798</ele>
|
|
<time>2026-07-11T08:24:44.000Z</time>
|
|
</trkpt>
|
|
<trkpt lat="55.453701" lon="8.568285">
|
|
<ele>7.747478</ele>
|
|
<time>2026-07-11T08:24:45.000Z</time>
|
|
</trkpt>
|
|
<trkpt lat="55.453708" lon="8.568350">
|
|
<ele>7.722771</ele>
|
|
<time>2026-07-11T08:24:46.000Z</time>
|
|
</trkpt>
|
|
<trkpt lat="55.453716" lon="8.568411">
|
|
<ele>7.699390</ele>
|
|
<time>2026-07-11T08:24:47.000Z</time>
|
|
</trkpt>
|
|
<trkpt lat="55.453725" lon="8.568470">
|
|
<ele>7.676574</ele>
|
|
<time>2026-07-11T08:24:48.000Z</time>
|
|
</trkpt>
|
|
<trkpt lat="55.453735" lon="8.568523">
|
|
<ele>7.655715</ele>
|
|
<time>2026-07-11T08:24:49.000Z</time>
|
|
</trkpt>
|
|
<trkpt lat="55.453744" lon="8.568576">
|
|
<ele>7.635054</ele>
|
|
<time>2026-07-11T08:24:50.000Z</time>
|
|
</trkpt>
|
|
<trkpt lat="55.453758" lon="8.568630">
|
|
<ele>7.612881</ele>
|
|
<time>2026-07-11T08:24:51.000Z</time>
|
|
</trkpt>
|
|
<trkpt lat="55.453773" lon="8.568685">
|
|
<ele>7.590090</ele>
|
|
<time>2026-07-11T08:24:52.000Z</time>
|
|
</trkpt>
|
|
<trkpt lat="55.453790" lon="8.568741">
|
|
<ele>7.566369</ele>
|
|
<time>2026-07-11T08:24:53.000Z</time>
|
|
</trkpt>
|
|
<trkpt lat="55.453812" lon="8.568801">
|
|
<ele>7.539687</ele>
|
|
<time>2026-07-11T08:24:54.000Z</time>
|
|
</trkpt>
|
|
<trkpt lat="55.453841" lon="8.568859">
|
|
<ele>7.510811</ele>
|
|
<time>2026-07-11T08:24:55.000Z</time>
|
|
</trkpt>
|
|
<trkpt lat="55.453869" lon="8.568916">
|
|
<ele>7.482649</ele>
|
|
<time>2026-07-11T08:24:56.000Z</time>
|
|
</trkpt>
|
|
<trkpt lat="55.453894" lon="8.568978">
|
|
<ele>7.454239</ele>
|
|
<time>2026-07-11T08:24:57.000Z</time>
|
|
</trkpt>
|
|
<trkpt lat="55.453918" lon="8.569047">
|
|
<ele>7.424011</ele>
|
|
<time>2026-07-11T08:24:58.000Z</time>
|
|
</trkpt>
|
|
<trkpt lat="55.453942" lon="8.569117">
|
|
<ele>7.393464</ele>
|
|
<time>2026-07-11T08:24:59.000Z</time>
|
|
</trkpt>
|
|
<trkpt lat="55.453967" lon="8.569188">
|
|
<ele>7.362254</ele>
|
|
<time>2026-07-11T08:25:00.000Z</time>
|
|
</trkpt>
|
|
<trkpt lat="55.453990" lon="8.569259">
|
|
<ele>7.331719</ele>
|
|
<time>2026-07-11T08:25:01.000Z</time>
|
|
</trkpt>
|
|
<trkpt lat="55.454013" lon="8.569328">
|
|
<ele>7.301830</ele>
|
|
<time>2026-07-11T08:25:02.000Z</time>
|
|
</trkpt>
|
|
<trkpt lat="55.454036" lon="8.569395">
|
|
<ele>7.272582</ele>
|
|
<time>2026-07-11T08:25:03.000Z</time>
|
|
</trkpt>
|
|
<trkpt lat="55.454059" lon="8.569461">
|
|
<ele>7.243653</ele>
|
|
<time>2026-07-11T08:25:04.000Z</time>
|
|
</trkpt>
|
|
<trkpt lat="55.454080" lon="8.569525">
|
|
<ele>7.216041</ele>
|
|
<time>2026-07-11T08:25:05.000Z</time>
|
|
</trkpt>
|
|
<trkpt lat="55.454100" lon="8.569590">
|
|
<ele>7.188424</ele>
|
|
<time>2026-07-11T08:25:06.000Z</time>
|
|
</trkpt>
|
|
<trkpt lat="55.454123" lon="8.569657">
|
|
<ele>7.159177</ele>
|
|
<time>2026-07-11T08:25:07.000Z</time>
|
|
</trkpt>
|
|
<trkpt lat="55.454148" lon="8.569723">
|
|
<ele>7.129537</ele>
|
|
<time>2026-07-11T08:25:08.000Z</time>
|
|
</trkpt>
|
|
<trkpt lat="55.454176" lon="8.569787">
|
|
<ele>7.099351</ele>
|
|
<time>2026-07-11T08:25:09.000Z</time>
|
|
</trkpt>
|
|
<trkpt lat="55.454209" lon="8.569845">
|
|
<ele>7.068669</ele>
|
|
<time>2026-07-11T08:25:10.000Z</time>
|
|
</trkpt>
|
|
<trkpt lat="55.454245" lon="8.569897">
|
|
<ele>7.040885</ele>
|
|
<time>2026-07-11T08:25:11.000Z</time>
|
|
</trkpt>
|
|
<trkpt lat="55.454283" lon="8.569943">
|
|
<ele>7.041442</ele>
|
|
<time>2026-07-11T08:25:12.000Z</time>
|
|
</trkpt>
|
|
<trkpt lat="55.454321" lon="8.569985">
|
|
<ele>7.041984</ele>
|
|
<time>2026-07-11T08:25:13.000Z</time>
|
|
</trkpt>
|
|
<trkpt lat="55.454361" lon="8.570023">
|
|
<ele>7.042533</ele>
|
|
<time>2026-07-11T08:25:14.000Z</time>
|
|
</trkpt>
|
|
<trkpt lat="55.454404" lon="8.570058">
|
|
<ele>7.043105</ele>
|
|
<time>2026-07-11T08:25:15.000Z</time>
|
|
</trkpt>
|
|
<trkpt lat="55.454451" lon="8.570089">
|
|
<ele>7.043711</ele>
|
|
<time>2026-07-11T08:25:16.000Z</time>
|
|
</trkpt>
|
|
<trkpt lat="55.454496" lon="8.570119">
|
|
<ele>7.044293</ele>
|
|
<time>2026-07-11T08:25:17.000Z</time>
|
|
</trkpt>
|
|
<trkpt lat="55.454544" lon="8.570148">
|
|
<ele>7.044906</ele>
|
|
<time>2026-07-11T08:25:18.000Z</time>
|
|
</trkpt>
|
|
<trkpt lat="55.454592" lon="8.570176">
|
|
<ele>7.045517</ele>
|
|
<time>2026-07-11T08:25:19.000Z</time>
|
|
</trkpt>
|
|
<trkpt lat="55.454641" lon="8.570203">
|
|
<ele>7.046137</ele>
|
|
<time>2026-07-11T08:25:20.000Z</time>
|
|
</trkpt>
|
|
<trkpt lat="55.454693" lon="8.570233">
|
|
<ele>7.046798</ele>
|
|
<time>2026-07-11T08:25:21.000Z</time>
|
|
</trkpt>
|
|
<trkpt lat="55.454742" lon="8.570268">
|
|
<ele>7.047437</ele>
|
|
<time>2026-07-11T08:25:22.000Z</time>
|
|
</trkpt>
|
|
<trkpt lat="55.454791" lon="8.570300">
|
|
<ele>7.048068</ele>
|
|
<time>2026-07-11T08:25:23.000Z</time>
|
|
</trkpt>
|
|
<trkpt lat="55.454843" lon="8.570330">
|
|
<ele>7.048729</ele>
|
|
<time>2026-07-11T08:25:24.000Z</time>
|
|
</trkpt>
|
|
<trkpt lat="55.454896" lon="8.570364">
|
|
<ele>7.049411</ele>
|
|
<time>2026-07-11T08:25:25.000Z</time>
|
|
</trkpt>
|
|
<trkpt lat="55.454948" lon="8.570397">
|
|
<ele>7.050079</ele>
|
|
<time>2026-07-11T08:25:26.000Z</time>
|
|
</trkpt>
|
|
<trkpt lat="55.454999" lon="8.570429">
|
|
<ele>7.050733</ele>
|
|
<time>2026-07-11T08:25:27.000Z</time>
|
|
</trkpt>
|
|
<trkpt lat="55.455053" lon="8.570461">
|
|
<ele>7.051421</ele>
|
|
<time>2026-07-11T08:25:28.000Z</time>
|
|
</trkpt>
|
|
<trkpt lat="55.455106" lon="8.570493">
|
|
<ele>7.052098</ele>
|
|
<time>2026-07-11T08:25:29.000Z</time>
|
|
</trkpt>
|
|
<trkpt lat="55.455160" lon="8.570524">
|
|
<ele>7.052784</ele>
|
|
<time>2026-07-11T08:25:30.000Z</time>
|
|
</trkpt>
|
|
<trkpt lat="55.455211" lon="8.570556">
|
|
<ele>7.053438</ele>
|
|
<time>2026-07-11T08:25:31.000Z</time>
|
|
</trkpt>
|
|
<trkpt lat="55.455262" lon="8.570586">
|
|
<ele>7.054088</ele>
|
|
<time>2026-07-11T08:25:32.000Z</time>
|
|
</trkpt>
|
|
<trkpt lat="55.455314" lon="8.570614">
|
|
<ele>7.054745</ele>
|
|
<time>2026-07-11T08:25:33.000Z</time>
|
|
</trkpt>
|
|
<trkpt lat="55.455366" lon="8.570644">
|
|
<ele>7.055406</ele>
|
|
<time>2026-07-11T08:25:34.000Z</time>
|
|
</trkpt>
|
|
<trkpt lat="55.455418" lon="8.570675">
|
|
<ele>7.056069</ele>
|
|
<time>2026-07-11T08:25:35.000Z</time>
|
|
</trkpt>
|
|
<trkpt lat="55.455469" lon="8.570708">
|
|
<ele>7.056726</ele>
|
|
<time>2026-07-11T08:25:36.000Z</time>
|
|
</trkpt>
|
|
<trkpt lat="55.455520" lon="8.570741">
|
|
<ele>7.057382</ele>
|
|
<time>2026-07-11T08:25:37.000Z</time>
|
|
</trkpt>
|
|
<trkpt lat="55.455571" lon="8.570771">
|
|
<ele>7.058032</ele>
|
|
<time>2026-07-11T08:25:38.000Z</time>
|
|
</trkpt>
|
|
<trkpt lat="55.455624" lon="8.570800">
|
|
<ele>7.058702</ele>
|
|
<time>2026-07-11T08:25:39.000Z</time>
|
|
</trkpt>
|
|
<trkpt lat="55.455679" lon="8.570831">
|
|
<ele>7.059400</ele>
|
|
<time>2026-07-11T08:25:40.000Z</time>
|
|
</trkpt>
|
|
<trkpt lat="55.455732" lon="8.570864">
|
|
<ele>7.060079</ele>
|
|
<time>2026-07-11T08:25:41.000Z</time>
|
|
</trkpt>
|
|
<trkpt lat="55.455783" lon="8.570897">
|
|
<ele>7.060736</ele>
|
|
<time>2026-07-11T08:25:42.000Z</time>
|
|
</trkpt>
|
|
<trkpt lat="55.455836" lon="8.570930">
|
|
<ele>7.061415</ele>
|
|
<time>2026-07-11T08:25:43.000Z</time>
|
|
</trkpt>
|
|
<trkpt lat="55.455892" lon="8.570963">
|
|
<ele>7.062128</ele>
|
|
<time>2026-07-11T08:25:44.000Z</time>
|
|
</trkpt>
|
|
<trkpt lat="55.455946" lon="8.570995">
|
|
<ele>7.081883</ele>
|
|
<time>2026-07-11T08:25:45.000Z</time>
|
|
</trkpt>
|
|
<trkpt lat="55.455999" lon="8.571027">
|
|
<ele>7.134285</ele>
|
|
<time>2026-07-11T08:25:46.000Z</time>
|
|
</trkpt>
|
|
<trkpt lat="55.456051" lon="8.571060">
|
|
<ele>7.185980</ele>
|
|
<time>2026-07-11T08:25:47.000Z</time>
|
|
</trkpt>
|
|
<trkpt lat="55.456102" lon="8.571093">
|
|
<ele>7.236796</ele>
|
|
<time>2026-07-11T08:25:48.000Z</time>
|
|
</trkpt>
|
|
<trkpt lat="55.456154" lon="8.571124">
|
|
<ele>7.288142</ele>
|
|
<time>2026-07-11T08:25:49.000Z</time>
|
|
</trkpt>
|
|
<trkpt lat="55.456205" lon="8.571155">
|
|
<ele>7.338602</ele>
|
|
<time>2026-07-11T08:25:50.000Z</time>
|
|
</trkpt>
|
|
<trkpt lat="55.456256" lon="8.571185">
|
|
<ele>7.388892</ele>
|
|
<time>2026-07-11T08:25:51.000Z</time>
|
|
</trkpt>
|
|
<trkpt lat="55.456306" lon="8.571214">
|
|
<ele>7.438128</ele>
|
|
<time>2026-07-11T08:25:52.000Z</time>
|
|
</trkpt>
|
|
<trkpt lat="55.456354" lon="8.571242">
|
|
<ele>7.485420</ele>
|
|
<time>2026-07-11T08:25:53.000Z</time>
|
|
</trkpt>
|
|
<trkpt lat="55.456402" lon="8.571269">
|
|
<ele>7.532549</ele>
|
|
<time>2026-07-11T08:25:54.000Z</time>
|
|
</trkpt>
|
|
<trkpt lat="55.456450" lon="8.571295">
|
|
<ele>7.579519</ele>
|
|
<time>2026-07-11T08:25:55.000Z</time>
|
|
</trkpt>
|
|
<trkpt lat="55.456495" lon="8.571319">
|
|
<ele>7.623495</ele>
|
|
<time>2026-07-11T08:25:56.000Z</time>
|
|
</trkpt>
|
|
<trkpt lat="55.456542" lon="8.571345">
|
|
<ele>7.669572</ele>
|
|
<time>2026-07-11T08:25:57.000Z</time>
|
|
</trkpt>
|
|
<trkpt lat="55.456591" lon="8.571373">
|
|
<ele>7.717753</ele>
|
|
<time>2026-07-11T08:25:58.000Z</time>
|
|
</trkpt>
|
|
<trkpt lat="55.456633" lon="8.571400">
|
|
<ele>7.759569</ele>
|
|
<time>2026-07-11T08:25:59.000Z</time>
|
|
</trkpt>
|
|
<trkpt lat="55.456676" lon="8.571429">
|
|
<ele>7.802633</ele>
|
|
<time>2026-07-11T08:26:00.000Z</time>
|
|
</trkpt>
|
|
<trkpt lat="55.456728" lon="8.571464">
|
|
<ele>7.854697</ele>
|
|
<time>2026-07-11T08:26:01.000Z</time>
|
|
</trkpt>
|
|
<trkpt lat="55.456773" lon="8.571496">
|
|
<ele>7.900084</ele>
|
|
<time>2026-07-11T08:26:02.000Z</time>
|
|
</trkpt>
|
|
<trkpt lat="55.456820" lon="8.571526">
|
|
<ele>7.946839</ele>
|
|
<time>2026-07-11T08:26:03.000Z</time>
|
|
</trkpt>
|
|
<trkpt lat="55.456870" lon="8.571554">
|
|
<ele>7.995911</ele>
|
|
<time>2026-07-11T08:26:04.000Z</time>
|
|
</trkpt>
|
|
<trkpt lat="55.456918" lon="8.571584">
|
|
<ele>8.043547</ele>
|
|
<time>2026-07-11T08:26:05.000Z</time>
|
|
</trkpt>
|
|
<trkpt lat="55.456966" lon="8.571614">
|
|
<ele>8.091184</ele>
|
|
<time>2026-07-11T08:26:06.000Z</time>
|
|
</trkpt>
|
|
<trkpt lat="55.457017" lon="8.571644">
|
|
<ele>8.141473</ele>
|
|
<time>2026-07-11T08:26:07.000Z</time>
|
|
</trkpt>
|
|
<trkpt lat="55.457069" lon="8.571673">
|
|
<ele>8.192489</ele>
|
|
<time>2026-07-11T08:26:08.000Z</time>
|
|
</trkpt>
|
|
<trkpt lat="55.457119" lon="8.571701">
|
|
<ele>8.241561</ele>
|
|
<time>2026-07-11T08:26:09.000Z</time>
|
|
</trkpt>
|
|
<trkpt lat="55.457168" lon="8.571729">
|
|
<ele>8.289743</ele>
|
|
<time>2026-07-11T08:26:10.000Z</time>
|
|
</trkpt>
|
|
<trkpt lat="55.457218" lon="8.571759">
|
|
<ele>8.339146</ele>
|
|
<time>2026-07-11T08:26:11.000Z</time>
|
|
</trkpt>
|
|
<trkpt lat="55.457269" lon="8.571790">
|
|
<ele>8.389606</ele>
|
|
<time>2026-07-11T08:26:12.000Z</time>
|
|
</trkpt>
|
|
<trkpt lat="55.457323" lon="8.571820">
|
|
<ele>8.442566</ele>
|
|
<time>2026-07-11T08:26:13.000Z</time>
|
|
</trkpt>
|
|
<trkpt lat="55.457376" lon="8.571847">
|
|
<ele>8.494170</ele>
|
|
<time>2026-07-11T08:26:14.000Z</time>
|
|
</trkpt>
|
|
<trkpt lat="55.457428" lon="8.571874">
|
|
<ele>8.544875</ele>
|
|
<time>2026-07-11T08:26:15.000Z</time>
|
|
</trkpt>
|
|
<trkpt lat="55.457479" lon="8.571904">
|
|
<ele>8.595165</ele>
|
|
<time>2026-07-11T08:26:16.000Z</time>
|
|
</trkpt>
|
|
<trkpt lat="55.457532" lon="8.571936">
|
|
<ele>8.647567</ele>
|
|
<time>2026-07-11T08:26:17.000Z</time>
|
|
</trkpt>
|
|
<trkpt lat="55.457584" lon="8.571969">
|
|
<ele>8.699262</ele>
|
|
<time>2026-07-11T08:26:18.000Z</time>
|
|
</trkpt>
|
|
<trkpt lat="55.457633" lon="8.572003">
|
|
<ele>8.743092</ele>
|
|
<time>2026-07-11T08:26:19.000Z</time>
|
|
</trkpt>
|
|
<trkpt lat="55.457685" lon="8.572033">
|
|
<ele>8.714285</ele>
|
|
<time>2026-07-11T08:26:20.000Z</time>
|
|
</trkpt>
|
|
<trkpt lat="55.457738" lon="8.572059">
|
|
<ele>8.685320</ele>
|
|
<time>2026-07-11T08:26:21.000Z</time>
|
|
</trkpt>
|
|
<trkpt lat="55.457792" lon="8.572085">
|
|
<ele>8.655846</ele>
|
|
<time>2026-07-11T08:26:22.000Z</time>
|
|
</trkpt>
|
|
<trkpt lat="55.457842" lon="8.572112">
|
|
<ele>8.628314</ele>
|
|
<time>2026-07-11T08:26:23.000Z</time>
|
|
</trkpt>
|
|
<trkpt lat="55.457889" lon="8.572138">
|
|
<ele>8.602378</ele>
|
|
<time>2026-07-11T08:26:24.000Z</time>
|
|
</trkpt>
|
|
<trkpt lat="55.457938" lon="8.572165">
|
|
<ele>8.575348</ele>
|
|
<time>2026-07-11T08:26:25.000Z</time>
|
|
</trkpt>
|
|
<trkpt lat="55.457988" lon="8.572194">
|
|
<ele>8.547635</ele>
|
|
<time>2026-07-11T08:26:26.000Z</time>
|
|
</trkpt>
|
|
<trkpt lat="55.458038" lon="8.572225">
|
|
<ele>8.519729</ele>
|
|
<time>2026-07-11T08:26:27.000Z</time>
|
|
</trkpt>
|
|
<trkpt lat="55.458089" lon="8.572255">
|
|
<ele>8.491422</ele>
|
|
<time>2026-07-11T08:26:28.000Z</time>
|
|
</trkpt>
|
|
<trkpt lat="55.458141" lon="8.572283">
|
|
<ele>8.462795</ele>
|
|
<time>2026-07-11T08:26:29.000Z</time>
|
|
</trkpt>
|
|
<trkpt lat="55.458190" lon="8.572309">
|
|
<ele>8.435852</ele>
|
|
<time>2026-07-11T08:26:30.000Z</time>
|
|
</trkpt>
|
|
<trkpt lat="55.458241" lon="8.572334">
|
|
<ele>8.407982</ele>
|
|
<time>2026-07-11T08:26:31.000Z</time>
|
|
</trkpt>
|
|
<trkpt lat="55.458293" lon="8.572362">
|
|
<ele>8.379354</ele>
|
|
<time>2026-07-11T08:26:32.000Z</time>
|
|
</trkpt>
|
|
<trkpt lat="55.458343" lon="8.572393">
|
|
<ele>8.351449</ele>
|
|
<time>2026-07-11T08:26:33.000Z</time>
|
|
</trkpt>
|
|
<trkpt lat="55.458394" lon="8.572428">
|
|
<ele>8.322634</ele>
|
|
<time>2026-07-11T08:26:34.000Z</time>
|
|
</trkpt>
|
|
<trkpt lat="55.458446" lon="8.572464">
|
|
<ele>8.293221</ele>
|
|
<time>2026-07-11T08:26:35.000Z</time>
|
|
</trkpt>
|
|
<trkpt lat="55.458496" lon="8.572497">
|
|
<ele>8.265112</ele>
|
|
<time>2026-07-11T08:26:36.000Z</time>
|
|
</trkpt>
|
|
<trkpt lat="55.458545" lon="8.572527">
|
|
<ele>8.237801</ele>
|
|
<time>2026-07-11T08:26:37.000Z</time>
|
|
</trkpt>
|
|
<trkpt lat="55.458596" lon="8.572553">
|
|
<ele>8.209849</ele>
|
|
<time>2026-07-11T08:26:38.000Z</time>
|
|
</trkpt>
|
|
<trkpt lat="55.458648" lon="8.572580">
|
|
<ele>8.181308</ele>
|
|
<time>2026-07-11T08:26:39.000Z</time>
|
|
</trkpt>
|
|
<trkpt lat="55.458696" lon="8.572609">
|
|
<ele>8.154593</ele>
|
|
<time>2026-07-11T08:26:40.000Z</time>
|
|
</trkpt>
|
|
<trkpt lat="55.458740" lon="8.572643">
|
|
<ele>8.129299</ele>
|
|
<time>2026-07-11T08:26:41.000Z</time>
|
|
</trkpt>
|
|
<trkpt lat="55.458784" lon="8.572678">
|
|
<ele>8.103885</ele>
|
|
<time>2026-07-11T08:26:42.000Z</time>
|
|
</trkpt>
|
|
<trkpt lat="55.458828" lon="8.572708">
|
|
<ele>8.079047</ele>
|
|
<time>2026-07-11T08:26:43.000Z</time>
|
|
</trkpt>
|
|
<trkpt lat="55.458867" lon="8.572736">
|
|
<ele>8.056876</ele>
|
|
<time>2026-07-11T08:26:44.000Z</time>
|
|
</trkpt>
|
|
<trkpt lat="55.458899" lon="8.572761">
|
|
<ele>8.038448</ele>
|
|
<time>2026-07-11T08:26:45.000Z</time>
|
|
</trkpt>
|
|
<trkpt lat="55.458926" lon="8.572781">
|
|
<ele>8.023029</ele>
|
|
<time>2026-07-11T08:26:46.000Z</time>
|
|
</trkpt>
|
|
<trkpt lat="55.458945" lon="8.572794">
|
|
<ele>8.012298</ele>
|
|
<time>2026-07-11T08:26:47.000Z</time>
|
|
</trkpt>
|
|
<trkpt lat="55.458957" lon="8.572801">
|
|
<ele>8.005643</ele>
|
|
<time>2026-07-11T08:26:48.000Z</time>
|
|
</trkpt>
|
|
<trkpt lat="55.458968" lon="8.572800">
|
|
<ele>7.999844</ele>
|
|
<time>2026-07-11T08:26:49.000Z</time>
|
|
</trkpt>
|
|
<trkpt lat="55.458985" lon="8.572787">
|
|
<ele>7.990088</ele>
|
|
<time>2026-07-11T08:26:50.000Z</time>
|
|
</trkpt>
|
|
<trkpt lat="55.459006" lon="8.572767">
|
|
<ele>7.977521</ele>
|
|
<time>2026-07-11T08:26:51.000Z</time>
|
|
</trkpt>
|
|
<trkpt lat="55.459028" lon="8.572735">
|
|
<ele>7.962507</ele>
|
|
<time>2026-07-11T08:26:52.000Z</time>
|
|
</trkpt>
|
|
<trkpt lat="55.459051" lon="8.572691">
|
|
<ele>7.944640</ele>
|
|
<time>2026-07-11T08:26:53.000Z</time>
|
|
</trkpt>
|
|
<trkpt lat="55.459069" lon="8.572637">
|
|
<ele>7.925940</ele>
|
|
<time>2026-07-11T08:26:54.000Z</time>
|
|
</trkpt>
|
|
<trkpt lat="55.459083" lon="8.572566">
|
|
<ele>7.903498</ele>
|
|
<time>2026-07-11T08:26:55.000Z</time>
|
|
</trkpt>
|
|
<trkpt lat="55.459098" lon="8.572497">
|
|
<ele>7.881437</ele>
|
|
<time>2026-07-11T08:26:56.000Z</time>
|
|
</trkpt>
|
|
<trkpt lat="55.459113" lon="8.572428">
|
|
<ele>7.859376</ele>
|
|
<time>2026-07-11T08:26:57.000Z</time>
|
|
</trkpt>
|
|
<trkpt lat="55.459129" lon="8.572355">
|
|
<ele>7.836011</ele>
|
|
<time>2026-07-11T08:26:58.000Z</time>
|
|
</trkpt>
|
|
<trkpt lat="55.459142" lon="8.572278">
|
|
<ele>7.812026</ele>
|
|
<time>2026-07-11T08:26:59.000Z</time>
|
|
</trkpt>
|
|
<trkpt lat="55.459157" lon="8.572202">
|
|
<ele>7.784614</ele>
|
|
<time>2026-07-11T08:27:00.000Z</time>
|
|
</trkpt>
|
|
<trkpt lat="55.459174" lon="8.572124">
|
|
<ele>7.751223</ele>
|
|
<time>2026-07-11T08:27:01.000Z</time>
|
|
</trkpt>
|
|
<trkpt lat="55.459191" lon="8.572045">
|
|
<ele>7.717459</ele>
|
|
<time>2026-07-11T08:27:02.000Z</time>
|
|
</trkpt>
|
|
<trkpt lat="55.459209" lon="8.571964">
|
|
<ele>7.682695</ele>
|
|
<time>2026-07-11T08:27:03.000Z</time>
|
|
</trkpt>
|
|
<trkpt lat="55.459226" lon="8.571882">
|
|
<ele>7.647808</ele>
|
|
<time>2026-07-11T08:27:04.000Z</time>
|
|
</trkpt>
|
|
<trkpt lat="55.459245" lon="8.571796">
|
|
<ele>7.610927</ele>
|
|
<time>2026-07-11T08:27:05.000Z</time>
|
|
</trkpt>
|
|
<trkpt lat="55.459262" lon="8.571709">
|
|
<ele>7.574156</ele>
|
|
<time>2026-07-11T08:27:06.000Z</time>
|
|
</trkpt>
|
|
<trkpt lat="55.459281" lon="8.571619">
|
|
<ele>7.535782</ele>
|
|
<time>2026-07-11T08:27:07.000Z</time>
|
|
</trkpt>
|
|
<trkpt lat="55.459302" lon="8.571528">
|
|
<ele>7.496523</ele>
|
|
<time>2026-07-11T08:27:08.000Z</time>
|
|
</trkpt>
|
|
<trkpt lat="55.459319" lon="8.571436">
|
|
<ele>7.457859</ele>
|
|
<time>2026-07-11T08:27:09.000Z</time>
|
|
</trkpt>
|
|
<trkpt lat="55.459336" lon="8.571345">
|
|
<ele>7.419574</ele>
|
|
<time>2026-07-11T08:27:10.000Z</time>
|
|
</trkpt>
|
|
<trkpt lat="55.459354" lon="8.571254">
|
|
<ele>7.381062</ele>
|
|
<time>2026-07-11T08:27:11.000Z</time>
|
|
</trkpt>
|
|
<trkpt lat="55.459372" lon="8.571160">
|
|
<ele>7.341417</ele>
|
|
<time>2026-07-11T08:27:12.000Z</time>
|
|
</trkpt>
|
|
<trkpt lat="55.459393" lon="8.571064">
|
|
<ele>7.300301</ele>
|
|
<time>2026-07-11T08:27:13.000Z</time>
|
|
</trkpt>
|
|
<trkpt lat="55.459416" lon="8.570968">
|
|
<ele>7.258657</ele>
|
|
<time>2026-07-11T08:27:14.000Z</time>
|
|
</trkpt>
|
|
<trkpt lat="55.459441" lon="8.570871">
|
|
<ele>7.216081</ele>
|
|
<time>2026-07-11T08:27:15.000Z</time>
|
|
</trkpt>
|
|
<trkpt lat="55.459464" lon="8.570775">
|
|
<ele>7.174437</ele>
|
|
<time>2026-07-11T08:27:16.000Z</time>
|
|
</trkpt>
|
|
<trkpt lat="55.459485" lon="8.570680">
|
|
<ele>7.133694</ele>
|
|
<time>2026-07-11T08:27:17.000Z</time>
|
|
</trkpt>
|
|
<trkpt lat="55.459504" lon="8.570583">
|
|
<ele>7.092687</ele>
|
|
<time>2026-07-11T08:27:18.000Z</time>
|
|
</trkpt>
|
|
<trkpt lat="55.459525" lon="8.570483">
|
|
<ele>7.050076</ele>
|
|
<time>2026-07-11T08:27:19.000Z</time>
|
|
</trkpt>
|
|
<trkpt lat="55.459548" lon="8.570385">
|
|
<ele>7.007695</ele>
|
|
<time>2026-07-11T08:27:20.000Z</time>
|
|
</trkpt>
|
|
<trkpt lat="55.459571" lon="8.570287">
|
|
<ele>6.965314</ele>
|
|
<time>2026-07-11T08:27:21.000Z</time>
|
|
</trkpt>
|
|
<trkpt lat="55.459591" lon="8.570186">
|
|
<ele>6.922566</ele>
|
|
<time>2026-07-11T08:27:22.000Z</time>
|
|
</trkpt>
|
|
<trkpt lat="55.459611" lon="8.570082">
|
|
<ele>6.878684</ele>
|
|
<time>2026-07-11T08:27:23.000Z</time>
|
|
</trkpt>
|
|
<trkpt lat="55.459628" lon="8.569978">
|
|
<ele>6.835435</ele>
|
|
<time>2026-07-11T08:27:24.000Z</time>
|
|
</trkpt>
|
|
<trkpt lat="55.459644" lon="8.569876">
|
|
<ele>6.793147</ele>
|
|
<time>2026-07-11T08:27:25.000Z</time>
|
|
</trkpt>
|
|
<trkpt lat="55.459662" lon="8.569775">
|
|
<ele>6.750843</ele>
|
|
<time>2026-07-11T08:27:26.000Z</time>
|
|
</trkpt>
|
|
<trkpt lat="55.459684" lon="8.569676">
|
|
<ele>6.708354</ele>
|
|
<time>2026-07-11T08:27:27.000Z</time>
|
|
</trkpt>
|
|
<trkpt lat="55.459706" lon="8.569578">
|
|
<ele>6.666238</ele>
|
|
<time>2026-07-11T08:27:28.000Z</time>
|
|
</trkpt>
|
|
<trkpt lat="55.459731" lon="8.569475">
|
|
<ele>6.621468</ele>
|
|
<time>2026-07-11T08:27:29.000Z</time>
|
|
</trkpt>
|
|
<trkpt lat="55.459754" lon="8.569366">
|
|
<ele>6.574996</ele>
|
|
<time>2026-07-11T08:27:30.000Z</time>
|
|
</trkpt>
|
|
<trkpt lat="55.459778" lon="8.569255">
|
|
<ele>6.525122</ele>
|
|
<time>2026-07-11T08:27:31.000Z</time>
|
|
</trkpt>
|
|
<trkpt lat="55.459805" lon="8.569147">
|
|
<ele>6.438839</ele>
|
|
<time>2026-07-11T08:27:32.000Z</time>
|
|
</trkpt>
|
|
<trkpt lat="55.459833" lon="8.569040">
|
|
<ele>6.352692</ele>
|
|
<time>2026-07-11T08:27:33.000Z</time>
|
|
</trkpt>
|
|
<trkpt lat="55.459862" lon="8.568932">
|
|
<ele>6.265337</ele>
|
|
<time>2026-07-11T08:27:34.000Z</time>
|
|
</trkpt>
|
|
<trkpt lat="55.459891" lon="8.568825">
|
|
<ele>6.178642</ele>
|
|
<time>2026-07-11T08:27:35.000Z</time>
|
|
</trkpt>
|
|
<trkpt lat="55.459919" lon="8.568717">
|
|
<ele>6.091831</ele>
|
|
<time>2026-07-11T08:27:36.000Z</time>
|
|
</trkpt>
|
|
<trkpt lat="55.459948" lon="8.568610">
|
|
<ele>6.005136</ele>
|
|
<time>2026-07-11T08:27:37.000Z</time>
|
|
</trkpt>
|
|
<trkpt lat="55.459977" lon="8.568504">
|
|
<ele>5.919101</ele>
|
|
<time>2026-07-11T08:27:38.000Z</time>
|
|
</trkpt>
|
|
<trkpt lat="55.460004" lon="8.568400">
|
|
<ele>5.835485</ele>
|
|
<time>2026-07-11T08:27:39.000Z</time>
|
|
</trkpt>
|
|
<trkpt lat="55.460030" lon="8.568297">
|
|
<ele>5.753067</ele>
|
|
<time>2026-07-11T08:27:40.000Z</time>
|
|
</trkpt>
|
|
<trkpt lat="55.460057" lon="8.568195">
|
|
<ele>5.670779</ele>
|
|
<time>2026-07-11T08:27:41.000Z</time>
|
|
</trkpt>
|
|
<trkpt lat="55.460084" lon="8.568091">
|
|
<ele>5.587163</ele>
|
|
<time>2026-07-11T08:27:42.000Z</time>
|
|
</trkpt>
|
|
<trkpt lat="55.460110" lon="8.567986">
|
|
<ele>5.503407</ele>
|
|
<time>2026-07-11T08:27:43.000Z</time>
|
|
</trkpt>
|
|
<trkpt lat="55.460135" lon="8.567884">
|
|
<ele>5.422176</ele>
|
|
<time>2026-07-11T08:27:44.000Z</time>
|
|
</trkpt>
|
|
<trkpt lat="55.460161" lon="8.567780">
|
|
<ele>5.339090</ele>
|
|
<time>2026-07-11T08:27:45.000Z</time>
|
|
</trkpt>
|
|
<trkpt lat="55.460191" lon="8.567674">
|
|
<ele>5.252486</ele>
|
|
<time>2026-07-11T08:27:46.000Z</time>
|
|
</trkpt>
|
|
<trkpt lat="55.460219" lon="8.567571">
|
|
<ele>5.168986</ele>
|
|
<time>2026-07-11T08:27:47.000Z</time>
|
|
</trkpt>
|
|
<trkpt lat="55.460248" lon="8.567467">
|
|
<ele>5.084265</ele>
|
|
<time>2026-07-11T08:27:48.000Z</time>
|
|
</trkpt>
|
|
<trkpt lat="55.460276" lon="8.567363">
|
|
<ele>5.000105</ele>
|
|
<time>2026-07-11T08:27:49.000Z</time>
|
|
</trkpt>
|
|
<trkpt lat="55.460305" lon="8.567258">
|
|
<ele>4.914728</ele>
|
|
<time>2026-07-11T08:27:50.000Z</time>
|
|
</trkpt>
|
|
<trkpt lat="55.460332" lon="8.567154">
|
|
<ele>4.831113</ele>
|
|
<time>2026-07-11T08:27:51.000Z</time>
|
|
</trkpt>
|
|
<trkpt lat="55.460357" lon="8.567049">
|
|
<ele>4.747865</ele>
|
|
<time>2026-07-11T08:27:52.000Z</time>
|
|
</trkpt>
|
|
<trkpt lat="55.460381" lon="8.566944">
|
|
<ele>4.665108</ele>
|
|
<time>2026-07-11T08:27:53.000Z</time>
|
|
</trkpt>
|
|
<trkpt lat="55.460408" lon="8.566838">
|
|
<ele>4.580162</ele>
|
|
<time>2026-07-11T08:27:54.000Z</time>
|
|
</trkpt>
|
|
<trkpt lat="55.460434" lon="8.566734">
|
|
<ele>4.497076</ele>
|
|
<time>2026-07-11T08:27:55.000Z</time>
|
|
</trkpt>
|
|
<trkpt lat="55.460460" lon="8.566628">
|
|
<ele>4.412650</ele>
|
|
<time>2026-07-11T08:27:56.000Z</time>
|
|
</trkpt>
|
|
<trkpt lat="55.460488" lon="8.566518">
|
|
<ele>4.324508</ele>
|
|
<time>2026-07-11T08:27:57.000Z</time>
|
|
</trkpt>
|
|
<trkpt lat="55.460517" lon="8.566412">
|
|
<ele>4.238473</ele>
|
|
<time>2026-07-11T08:27:58.000Z</time>
|
|
</trkpt>
|
|
<trkpt lat="55.460545" lon="8.566306">
|
|
<ele>4.179215</ele>
|
|
<time>2026-07-11T08:27:59.000Z</time>
|
|
</trkpt>
|
|
<trkpt lat="55.460572" lon="8.566199">
|
|
<ele>4.132009</ele>
|
|
<time>2026-07-11T08:28:00.000Z</time>
|
|
</trkpt>
|
|
<trkpt lat="55.460599" lon="8.566089">
|
|
<ele>4.083694</ele>
|
|
<time>2026-07-11T08:28:01.000Z</time>
|
|
</trkpt>
|
|
<trkpt lat="55.460627" lon="8.565980">
|
|
<ele>4.035461</ele>
|
|
<time>2026-07-11T08:28:02.000Z</time>
|
|
</trkpt>
|
|
<trkpt lat="55.460656" lon="8.565872">
|
|
<ele>3.987294</ele>
|
|
<time>2026-07-11T08:28:03.000Z</time>
|
|
</trkpt>
|
|
<trkpt lat="55.460683" lon="8.565764">
|
|
<ele>3.939719</ele>
|
|
<time>2026-07-11T08:28:04.000Z</time>
|
|
</trkpt>
|
|
<trkpt lat="55.460708" lon="8.565656">
|
|
<ele>3.892699</ele>
|
|
<time>2026-07-11T08:28:05.000Z</time>
|
|
</trkpt>
|
|
<trkpt lat="55.460733" lon="8.565549">
|
|
<ele>3.846053</ele>
|
|
<time>2026-07-11T08:28:06.000Z</time>
|
|
</trkpt>
|
|
<trkpt lat="55.460762" lon="8.565444">
|
|
<ele>3.798976</ele>
|
|
<time>2026-07-11T08:28:07.000Z</time>
|
|
</trkpt>
|
|
<trkpt lat="55.460789" lon="8.565332">
|
|
<ele>3.749921</ele>
|
|
<time>2026-07-11T08:28:08.000Z</time>
|
|
</trkpt>
|
|
<trkpt lat="55.460816" lon="8.565222">
|
|
<ele>3.701607</ele>
|
|
<time>2026-07-11T08:28:09.000Z</time>
|
|
</trkpt>
|
|
<trkpt lat="55.460843" lon="8.565114">
|
|
<ele>3.654032</ele>
|
|
<time>2026-07-11T08:28:10.000Z</time>
|
|
</trkpt>
|
|
<trkpt lat="55.460869" lon="8.565013">
|
|
<ele>3.609323</ele>
|
|
<time>2026-07-11T08:28:11.000Z</time>
|
|
</trkpt>
|
|
<trkpt lat="55.460898" lon="8.564912">
|
|
<ele>3.563690</ele>
|
|
<time>2026-07-11T08:28:12.000Z</time>
|
|
</trkpt>
|
|
<trkpt lat="55.460930" lon="8.564795">
|
|
<ele>3.511331</ele>
|
|
<time>2026-07-11T08:28:13.000Z</time>
|
|
</trkpt>
|
|
<trkpt lat="55.460957" lon="8.564687">
|
|
<ele>3.463756</ele>
|
|
<time>2026-07-11T08:28:14.000Z</time>
|
|
</trkpt>
|
|
<trkpt lat="55.460984" lon="8.564579">
|
|
<ele>3.416181</ele>
|
|
<time>2026-07-11T08:28:15.000Z</time>
|
|
</trkpt>
|
|
<trkpt lat="55.461011" lon="8.564471">
|
|
<ele>3.368606</ele>
|
|
<time>2026-07-11T08:28:16.000Z</time>
|
|
</trkpt>
|
|
<trkpt lat="55.461038" lon="8.564364">
|
|
<ele>3.321400</ele>
|
|
<time>2026-07-11T08:28:17.000Z</time>
|
|
</trkpt>
|
|
<trkpt lat="55.461064" lon="8.564258">
|
|
<ele>3.274848</ele>
|
|
<time>2026-07-11T08:28:18.000Z</time>
|
|
</trkpt>
|
|
<trkpt lat="55.461091" lon="8.564154">
|
|
<ele>3.228744</ele>
|
|
<time>2026-07-11T08:28:19.000Z</time>
|
|
</trkpt>
|
|
<trkpt lat="55.461118" lon="8.564051">
|
|
<ele>3.183006</ele>
|
|
<time>2026-07-11T08:28:20.000Z</time>
|
|
</trkpt>
|
|
<trkpt lat="55.461143" lon="8.563948">
|
|
<ele>3.137846</ele>
|
|
<time>2026-07-11T08:28:21.000Z</time>
|
|
</trkpt>
|
|
<trkpt lat="55.461167" lon="8.563845">
|
|
<ele>3.092961</ele>
|
|
<time>2026-07-11T08:28:22.000Z</time>
|
|
</trkpt>
|
|
<trkpt lat="55.461194" lon="8.563746">
|
|
<ele>3.048681</ele>
|
|
<time>2026-07-11T08:28:23.000Z</time>
|
|
</trkpt>
|
|
<trkpt lat="55.461221" lon="8.563648">
|
|
<ele>3.004764</ele>
|
|
<time>2026-07-11T08:28:24.000Z</time>
|
|
</trkpt>
|
|
<trkpt lat="55.461246" lon="8.563551">
|
|
<ele>2.961817</ele>
|
|
<time>2026-07-11T08:28:25.000Z</time>
|
|
</trkpt>
|
|
<trkpt lat="55.461270" lon="8.563459">
|
|
<ele>2.950362</ele>
|
|
<time>2026-07-11T08:28:26.000Z</time>
|
|
</trkpt>
|
|
<trkpt lat="55.461296" lon="8.563365">
|
|
<ele>3.013372</ele>
|
|
<time>2026-07-11T08:28:27.000Z</time>
|
|
</trkpt>
|
|
<trkpt lat="55.461324" lon="8.563269">
|
|
<ele>3.078412</ele>
|
|
<time>2026-07-11T08:28:28.000Z</time>
|
|
</trkpt>
|
|
<trkpt lat="55.461350" lon="8.563176">
|
|
<ele>3.140881</ele>
|
|
<time>2026-07-11T08:28:29.000Z</time>
|
|
</trkpt>
|
|
<trkpt lat="55.461377" lon="8.563086">
|
|
<ele>3.202224</ele>
|
|
<time>2026-07-11T08:28:30.000Z</time>
|
|
</trkpt>
|
|
<trkpt lat="55.461405" lon="8.562997">
|
|
<ele>3.263544</ele>
|
|
<time>2026-07-11T08:28:31.000Z</time>
|
|
</trkpt>
|
|
<trkpt lat="55.461434" lon="8.562910">
|
|
<ele>3.324344</ele>
|
|
<time>2026-07-11T08:28:32.000Z</time>
|
|
</trkpt>
|
|
<trkpt lat="55.461461" lon="8.562823">
|
|
<ele>3.384095</ele>
|
|
<time>2026-07-11T08:28:33.000Z</time>
|
|
</trkpt>
|
|
<trkpt lat="55.461488" lon="8.562736">
|
|
<ele>3.443847</ele>
|
|
<time>2026-07-11T08:28:34.000Z</time>
|
|
</trkpt>
|
|
<trkpt lat="55.461516" lon="8.562652">
|
|
<ele>3.502551</ele>
|
|
<time>2026-07-11T08:28:35.000Z</time>
|
|
</trkpt>
|
|
<trkpt lat="55.461545" lon="8.562568">
|
|
<ele>3.561800</ele>
|
|
<time>2026-07-11T08:28:36.000Z</time>
|
|
</trkpt>
|
|
<trkpt lat="55.461573" lon="8.562486">
|
|
<ele>3.619468</ele>
|
|
<time>2026-07-11T08:28:37.000Z</time>
|
|
</trkpt>
|
|
<trkpt lat="55.461601" lon="8.562405">
|
|
<ele>3.676621</ele>
|
|
<time>2026-07-11T08:28:38.000Z</time>
|
|
</trkpt>
|
|
<trkpt lat="55.461628" lon="8.562323">
|
|
<ele>3.733749</ele>
|
|
<time>2026-07-11T08:28:39.000Z</time>
|
|
</trkpt>
|
|
<trkpt lat="55.461655" lon="8.562243">
|
|
<ele>3.789837</ele>
|
|
<time>2026-07-11T08:28:40.000Z</time>
|
|
</trkpt>
|
|
<trkpt lat="55.461682" lon="8.562159">
|
|
<ele>3.848009</ele>
|
|
<time>2026-07-11T08:28:41.000Z</time>
|
|
</trkpt>
|
|
<trkpt lat="55.461709" lon="8.562079">
|
|
<ele>3.904098</ele>
|
|
<time>2026-07-11T08:28:42.000Z</time>
|
|
</trkpt>
|
|
<trkpt lat="55.461735" lon="8.562002">
|
|
<ele>3.958090</ele>
|
|
<time>2026-07-11T08:28:43.000Z</time>
|
|
</trkpt>
|
|
<trkpt lat="55.461762" lon="8.561927">
|
|
<ele>4.011612</ele>
|
|
<time>2026-07-11T08:28:44.000Z</time>
|
|
</trkpt>
|
|
<trkpt lat="55.461789" lon="8.561848">
|
|
<ele>4.067184</ele>
|
|
<time>2026-07-11T08:28:45.000Z</time>
|
|
</trkpt>
|
|
<trkpt lat="55.461814" lon="8.561767">
|
|
<ele>4.122744</ele>
|
|
<time>2026-07-11T08:28:46.000Z</time>
|
|
</trkpt>
|
|
<trkpt lat="55.461836" lon="8.561684">
|
|
<ele>4.177941</ele>
|
|
<time>2026-07-11T08:28:47.000Z</time>
|
|
</trkpt>
|
|
<trkpt lat="55.461858" lon="8.561601">
|
|
<ele>4.233139</ele>
|
|
<time>2026-07-11T08:28:48.000Z</time>
|
|
</trkpt>
|
|
<trkpt lat="55.461880" lon="8.561517">
|
|
<ele>4.288882</ele>
|
|
<time>2026-07-11T08:28:49.000Z</time>
|
|
</trkpt>
|
|
<trkpt lat="55.461902" lon="8.561434">
|
|
<ele>4.344080</ele>
|
|
<time>2026-07-11T08:28:50.000Z</time>
|
|
</trkpt>
|
|
<trkpt lat="55.461917" lon="8.561348">
|
|
<ele>4.398286</ele>
|
|
<time>2026-07-11T08:28:51.000Z</time>
|
|
</trkpt>
|
|
<trkpt lat="55.461931" lon="8.561264">
|
|
<ele>4.451032</ele>
|
|
<time>2026-07-11T08:28:52.000Z</time>
|
|
</trkpt>
|
|
<trkpt lat="55.461942" lon="8.561183">
|
|
<ele>4.501210</ele>
|
|
<time>2026-07-11T08:28:53.000Z</time>
|
|
</trkpt>
|
|
<trkpt lat="55.461957" lon="8.561109">
|
|
<ele>4.548554</ele>
|
|
<time>2026-07-11T08:28:54.000Z</time>
|
|
</trkpt>
|
|
<trkpt lat="55.461976" lon="8.561046">
|
|
<ele>4.591544</ele>
|
|
<time>2026-07-11T08:28:55.000Z</time>
|
|
</trkpt>
|
|
<trkpt lat="55.461999" lon="8.561003">
|
|
<ele>4.627158</ele>
|
|
<time>2026-07-11T08:28:56.000Z</time>
|
|
</trkpt>
|
|
<trkpt lat="55.462027" lon="8.560978">
|
|
<ele>4.660505</ele>
|
|
<time>2026-07-11T08:28:57.000Z</time>
|
|
</trkpt>
|
|
<trkpt lat="55.462054" lon="8.560959">
|
|
<ele>4.691394</ele>
|
|
<time>2026-07-11T08:28:58.000Z</time>
|
|
</trkpt>
|
|
<trkpt lat="55.462072" lon="8.560947">
|
|
<ele>4.711841</ele>
|
|
<time>2026-07-11T08:28:59.000Z</time>
|
|
</trkpt>
|
|
<trkpt lat="55.462086" lon="8.560899">
|
|
<ele>4.744361</ele>
|
|
<time>2026-07-11T08:29:04.000Z</time>
|
|
</trkpt>
|
|
<trkpt lat="55.462087" lon="8.560849">
|
|
<ele>4.774501</ele>
|
|
<time>2026-07-11T08:29:05.000Z</time>
|
|
</trkpt>
|
|
<trkpt lat="55.462091" lon="8.560801">
|
|
<ele>4.803729</ele>
|
|
<time>2026-07-11T08:29:06.000Z</time>
|
|
</trkpt>
|
|
<trkpt lat="55.462099" lon="8.560746">
|
|
<ele>4.837936</ele>
|
|
<time>2026-07-11T08:29:07.000Z</time>
|
|
</trkpt>
|
|
<trkpt lat="55.462112" lon="8.560687">
|
|
<ele>4.856060</ele>
|
|
<time>2026-07-11T08:29:08.000Z</time>
|
|
</trkpt>
|
|
<trkpt lat="55.462132" lon="8.560631">
|
|
<ele>4.871061</ele>
|
|
<time>2026-07-11T08:29:09.000Z</time>
|
|
</trkpt>
|
|
<trkpt lat="55.462160" lon="8.560578">
|
|
<ele>4.887480</ele>
|
|
<time>2026-07-11T08:29:10.000Z</time>
|
|
</trkpt>
|
|
<trkpt lat="55.462192" lon="8.560526">
|
|
<ele>4.904873</ele>
|
|
<time>2026-07-11T08:29:11.000Z</time>
|
|
</trkpt>
|
|
<trkpt lat="55.462227" lon="8.560472">
|
|
<ele>4.923462</ele>
|
|
<time>2026-07-11T08:29:12.000Z</time>
|
|
</trkpt>
|
|
<trkpt lat="55.462265" lon="8.560410">
|
|
<ele>4.944156</ele>
|
|
<time>2026-07-11T08:29:13.000Z</time>
|
|
</trkpt>
|
|
<trkpt lat="55.462299" lon="8.560345">
|
|
<ele>4.964200</ele>
|
|
<time>2026-07-11T08:29:14.000Z</time>
|
|
</trkpt>
|
|
<trkpt lat="55.462332" lon="8.560273">
|
|
<ele>4.985184</ele>
|
|
<time>2026-07-11T08:29:15.000Z</time>
|
|
</trkpt>
|
|
<trkpt lat="55.462361" lon="8.560193">
|
|
<ele>5.006705</ele>
|
|
<time>2026-07-11T08:29:16.000Z</time>
|
|
</trkpt>
|
|
<trkpt lat="55.462388" lon="8.560110">
|
|
<ele>5.028393</ele>
|
|
<time>2026-07-11T08:29:17.000Z</time>
|
|
</trkpt>
|
|
<trkpt lat="55.462414" lon="8.560025">
|
|
<ele>5.050282</ele>
|
|
<time>2026-07-11T08:29:18.000Z</time>
|
|
</trkpt>
|
|
<trkpt lat="55.462439" lon="8.559938">
|
|
<ele>5.072388</ele>
|
|
<time>2026-07-11T08:29:19.000Z</time>
|
|
</trkpt>
|
|
<trkpt lat="55.462462" lon="8.559850">
|
|
<ele>5.094350</ele>
|
|
<time>2026-07-11T08:29:20.000Z</time>
|
|
</trkpt>
|
|
<trkpt lat="55.462485" lon="8.559759">
|
|
<ele>5.116931</ele>
|
|
<time>2026-07-11T08:29:21.000Z</time>
|
|
</trkpt>
|
|
<trkpt lat="55.462508" lon="8.559669">
|
|
<ele>5.139306</ele>
|
|
<time>2026-07-11T08:29:22.000Z</time>
|
|
</trkpt>
|
|
<trkpt lat="55.462529" lon="8.559580">
|
|
<ele>5.161154</ele>
|
|
<time>2026-07-11T08:29:23.000Z</time>
|
|
</trkpt>
|
|
<trkpt lat="55.462548" lon="8.559491">
|
|
<ele>5.182708</ele>
|
|
<time>2026-07-11T08:29:24.000Z</time>
|
|
</trkpt>
|
|
<trkpt lat="55.462567" lon="8.559403">
|
|
<ele>5.204049</ele>
|
|
<time>2026-07-11T08:29:25.000Z</time>
|
|
</trkpt>
|
|
<trkpt lat="55.462586" lon="8.559312">
|
|
<ele>5.226028</ele>
|
|
<time>2026-07-11T08:29:26.000Z</time>
|
|
</trkpt>
|
|
<trkpt lat="55.462605" lon="8.559219">
|
|
<ele>5.248432</ele>
|
|
<time>2026-07-11T08:29:27.000Z</time>
|
|
</trkpt>
|
|
<trkpt lat="55.462625" lon="8.559126">
|
|
<ele>5.270976</ele>
|
|
<time>2026-07-11T08:29:28.000Z</time>
|
|
</trkpt>
|
|
<trkpt lat="55.462644" lon="8.559042">
|
|
<ele>5.291473</ele>
|
|
<time>2026-07-11T08:29:29.000Z</time>
|
|
</trkpt>
|
|
<trkpt lat="55.462664" lon="8.558957">
|
|
<ele>5.312330</ele>
|
|
<time>2026-07-11T08:29:30.000Z</time>
|
|
</trkpt>
|
|
<trkpt lat="55.462687" lon="8.558856">
|
|
<ele>5.336999</ele>
|
|
<time>2026-07-11T08:29:31.000Z</time>
|
|
</trkpt>
|
|
<trkpt lat="55.462708" lon="8.558766">
|
|
<ele>5.359056</ele>
|
|
<time>2026-07-11T08:29:32.000Z</time>
|
|
</trkpt>
|
|
<trkpt lat="55.462729" lon="8.558673">
|
|
<ele>5.381744</ele>
|
|
<time>2026-07-11T08:29:33.000Z</time>
|
|
</trkpt>
|
|
<trkpt lat="55.462750" lon="8.558581">
|
|
<ele>5.404222</ele>
|
|
<time>2026-07-11T08:29:34.000Z</time>
|
|
</trkpt>
|
|
<trkpt lat="55.462769" lon="8.558491">
|
|
<ele>5.425988</ele>
|
|
<time>2026-07-11T08:29:35.000Z</time>
|
|
</trkpt>
|
|
<trkpt lat="55.462790" lon="8.558400">
|
|
<ele>5.448255</ele>
|
|
<time>2026-07-11T08:29:36.000Z</time>
|
|
</trkpt>
|
|
<trkpt lat="55.462810" lon="8.558311">
|
|
<ele>5.469953</ele>
|
|
<time>2026-07-11T08:29:37.000Z</time>
|
|
</trkpt>
|
|
<trkpt lat="55.462826" lon="8.558222">
|
|
<ele>5.491114</ele>
|
|
<time>2026-07-11T08:29:38.000Z</time>
|
|
</trkpt>
|
|
<trkpt lat="55.462847" lon="8.558132">
|
|
<ele>5.513171</ele>
|
|
<time>2026-07-11T08:29:39.000Z</time>
|
|
</trkpt>
|
|
<trkpt lat="55.462868" lon="8.558044">
|
|
<ele>5.534810</ele>
|
|
<time>2026-07-11T08:29:40.000Z</time>
|
|
</trkpt>
|
|
<trkpt lat="55.462887" lon="8.557954">
|
|
<ele>5.556576</ele>
|
|
<time>2026-07-11T08:29:41.000Z</time>
|
|
</trkpt>
|
|
<trkpt lat="55.462906" lon="8.557863">
|
|
<ele>5.571039</ele>
|
|
<time>2026-07-11T08:29:42.000Z</time>
|
|
</trkpt>
|
|
<trkpt lat="55.462924" lon="8.557774">
|
|
<ele>5.582094</ele>
|
|
<time>2026-07-11T08:29:43.000Z</time>
|
|
</trkpt>
|
|
<trkpt lat="55.462941" lon="8.557683">
|
|
<ele>5.593304</ele>
|
|
<time>2026-07-11T08:29:44.000Z</time>
|
|
</trkpt>
|
|
<trkpt lat="55.462962" lon="8.557591">
|
|
<ele>5.604908</ele>
|
|
<time>2026-07-11T08:29:45.000Z</time>
|
|
</trkpt>
|
|
<trkpt lat="55.462981" lon="8.557500">
|
|
<ele>5.616254</ele>
|
|
<time>2026-07-11T08:29:46.000Z</time>
|
|
</trkpt>
|
|
<trkpt lat="55.462998" lon="8.557409">
|
|
<ele>5.627464</ele>
|
|
<time>2026-07-11T08:29:47.000Z</time>
|
|
</trkpt>
|
|
<trkpt lat="55.463019" lon="8.557317">
|
|
<ele>5.639067</ele>
|
|
<time>2026-07-11T08:29:48.000Z</time>
|
|
</trkpt>
|
|
<trkpt lat="55.463040" lon="8.557222">
|
|
<ele>5.650997</ele>
|
|
<time>2026-07-11T08:29:49.000Z</time>
|
|
</trkpt>
|
|
<trkpt lat="55.463059" lon="8.557127">
|
|
<ele>5.662783</ele>
|
|
<time>2026-07-11T08:29:50.000Z</time>
|
|
</trkpt>
|
|
<trkpt lat="55.463079" lon="8.557033">
|
|
<ele>5.674530</ele>
|
|
<time>2026-07-11T08:29:51.000Z</time>
|
|
</trkpt>
|
|
<trkpt lat="55.463099" lon="8.556942">
|
|
<ele>5.685949</ele>
|
|
<time>2026-07-11T08:29:52.000Z</time>
|
|
</trkpt>
|
|
<trkpt lat="55.463119" lon="8.556850">
|
|
<ele>5.697477</ele>
|
|
<time>2026-07-11T08:29:53.000Z</time>
|
|
</trkpt>
|
|
<trkpt lat="55.463136" lon="8.556758">
|
|
<ele>5.708798</ele>
|
|
<time>2026-07-11T08:29:54.000Z</time>
|
|
</trkpt>
|
|
<trkpt lat="55.463153" lon="8.556666">
|
|
<ele>5.720119</ele>
|
|
<time>2026-07-11T08:29:55.000Z</time>
|
|
</trkpt>
|
|
<trkpt lat="55.463168" lon="8.556575">
|
|
<ele>5.731207</ele>
|
|
<time>2026-07-11T08:29:56.000Z</time>
|
|
</trkpt>
|
|
<trkpt lat="55.463183" lon="8.556482">
|
|
<ele>5.742519</ele>
|
|
<time>2026-07-11T08:29:57.000Z</time>
|
|
</trkpt>
|
|
<trkpt lat="55.463199" lon="8.556388">
|
|
<ele>5.754002</ele>
|
|
<time>2026-07-11T08:29:58.000Z</time>
|
|
</trkpt>
|
|
<trkpt lat="55.463212" lon="8.556295">
|
|
<ele>5.765209</ele>
|
|
<time>2026-07-11T08:29:59.000Z</time>
|
|
</trkpt>
|
|
<trkpt lat="55.463225" lon="8.556200">
|
|
<ele>5.776643</ele>
|
|
<time>2026-07-11T08:30:00.000Z</time>
|
|
</trkpt>
|
|
<trkpt lat="55.463239" lon="8.556104">
|
|
<ele>5.788240</ele>
|
|
<time>2026-07-11T08:30:01.000Z</time>
|
|
</trkpt>
|
|
<trkpt lat="55.463251" lon="8.556006">
|
|
<ele>5.799970</ele>
|
|
<time>2026-07-11T08:30:02.000Z</time>
|
|
</trkpt>
|
|
<trkpt lat="55.463262" lon="8.555909">
|
|
<ele>5.811544</ele>
|
|
<time>2026-07-11T08:30:03.000Z</time>
|
|
</trkpt>
|
|
<trkpt lat="55.463275" lon="8.555812">
|
|
<ele>5.823205</ele>
|
|
<time>2026-07-11T08:30:04.000Z</time>
|
|
</trkpt>
|
|
<trkpt lat="55.463289" lon="8.555716">
|
|
<ele>5.834803</ele>
|
|
<time>2026-07-11T08:30:05.000Z</time>
|
|
</trkpt>
|
|
<trkpt lat="55.463300" lon="8.555622">
|
|
<ele>5.846032</ele>
|
|
<time>2026-07-11T08:30:06.000Z</time>
|
|
</trkpt>
|
|
<trkpt lat="55.463311" lon="8.555528">
|
|
<ele>5.857262</ele>
|
|
<time>2026-07-11T08:30:07.000Z</time>
|
|
</trkpt>
|
|
<trkpt lat="55.463321" lon="8.555432">
|
|
<ele>5.868681</ele>
|
|
<time>2026-07-11T08:30:08.000Z</time>
|
|
</trkpt>
|
|
<trkpt lat="55.463327" lon="8.555337">
|
|
<ele>5.879865</ele>
|
|
<time>2026-07-11T08:30:09.000Z</time>
|
|
</trkpt>
|
|
<trkpt lat="55.463331" lon="8.555241">
|
|
<ele>5.891127</ele>
|
|
<time>2026-07-11T08:30:10.000Z</time>
|
|
</trkpt>
|
|
<trkpt lat="55.463333" lon="8.555144">
|
|
<ele>5.902483</ele>
|
|
<time>2026-07-11T08:30:11.000Z</time>
|
|
</trkpt>
|
|
<trkpt lat="55.463335" lon="8.555049">
|
|
<ele>5.913606</ele>
|
|
<time>2026-07-11T08:30:12.000Z</time>
|
|
</trkpt>
|
|
<trkpt lat="55.463340" lon="8.554958">
|
|
<ele>5.924302</ele>
|
|
<time>2026-07-11T08:30:13.000Z</time>
|
|
</trkpt>
|
|
<trkpt lat="55.463349" lon="8.554863">
|
|
<ele>5.931491</ele>
|
|
<time>2026-07-11T08:30:14.000Z</time>
|
|
</trkpt>
|
|
<trkpt lat="55.463361" lon="8.554764">
|
|
<ele>5.908044</ele>
|
|
<time>2026-07-11T08:30:15.000Z</time>
|
|
</trkpt>
|
|
<trkpt lat="55.463373" lon="8.554669">
|
|
<ele>5.885502</ele>
|
|
<time>2026-07-11T08:30:16.000Z</time>
|
|
</trkpt>
|
|
<trkpt lat="55.463384" lon="8.554575">
|
|
<ele>5.863272</ele>
|
|
<time>2026-07-11T08:30:17.000Z</time>
|
|
</trkpt>
|
|
<trkpt lat="55.463396" lon="8.554480">
|
|
<ele>5.840730</ele>
|
|
<time>2026-07-11T08:30:18.000Z</time>
|
|
</trkpt>
|
|
<trkpt lat="55.463407" lon="8.554382">
|
|
<ele>5.817593</ele>
|
|
<time>2026-07-11T08:30:19.000Z</time>
|
|
</trkpt>
|
|
<trkpt lat="55.463418" lon="8.554284">
|
|
<ele>5.794455</ele>
|
|
<time>2026-07-11T08:30:20.000Z</time>
|
|
</trkpt>
|
|
<trkpt lat="55.463432" lon="8.554185">
|
|
<ele>5.770824</ele>
|
|
<time>2026-07-11T08:30:21.000Z</time>
|
|
</trkpt>
|
|
<trkpt lat="55.463447" lon="8.554090">
|
|
<ele>5.747984</ele>
|
|
<time>2026-07-11T08:30:22.000Z</time>
|
|
</trkpt>
|
|
<trkpt lat="55.463460" lon="8.553992">
|
|
<ele>5.724674</ele>
|
|
<time>2026-07-11T08:30:23.000Z</time>
|
|
</trkpt>
|
|
<trkpt lat="55.463474" lon="8.553890">
|
|
<ele>5.700368</ele>
|
|
<time>2026-07-11T08:30:24.000Z</time>
|
|
</trkpt>
|
|
<trkpt lat="55.463487" lon="8.553789">
|
|
<ele>5.676381</ele>
|
|
<time>2026-07-11T08:30:25.000Z</time>
|
|
</trkpt>
|
|
<trkpt lat="55.463500" lon="8.553690">
|
|
<ele>5.652845</ele>
|
|
<time>2026-07-11T08:30:26.000Z</time>
|
|
</trkpt>
|
|
<trkpt lat="55.463515" lon="8.553593">
|
|
<ele>5.629559</ele>
|
|
<time>2026-07-11T08:30:27.000Z</time>
|
|
</trkpt>
|
|
<trkpt lat="55.463531" lon="8.553496">
|
|
<ele>5.606162</ele>
|
|
<time>2026-07-11T08:30:28.000Z</time>
|
|
</trkpt>
|
|
<trkpt lat="55.463547" lon="8.553403">
|
|
<ele>5.583653</ele>
|
|
<time>2026-07-11T08:30:29.000Z</time>
|
|
</trkpt>
|
|
<trkpt lat="55.463568" lon="8.553309">
|
|
<ele>5.560253</ele>
|
|
<time>2026-07-11T08:30:30.000Z</time>
|
|
</trkpt>
|
|
<trkpt lat="55.463590" lon="8.553212">
|
|
<ele>5.536057</ele>
|
|
<time>2026-07-11T08:30:31.000Z</time>
|
|
</trkpt>
|
|
<trkpt lat="55.463607" lon="8.553121">
|
|
<ele>5.513866</ele>
|
|
<time>2026-07-11T08:30:32.000Z</time>
|
|
</trkpt>
|
|
<trkpt lat="55.463626" lon="8.553030">
|
|
<ele>5.491406</ele>
|
|
<time>2026-07-11T08:30:33.000Z</time>
|
|
</trkpt>
|
|
<trkpt lat="55.463645" lon="8.552936">
|
|
<ele>5.468293</ele>
|
|
<time>2026-07-11T08:30:34.000Z</time>
|
|
</trkpt>
|
|
<trkpt lat="55.463660" lon="8.552842">
|
|
<ele>5.445677</ele>
|
|
<time>2026-07-11T08:30:35.000Z</time>
|
|
</trkpt>
|
|
<trkpt lat="55.463674" lon="8.552745">
|
|
<ele>5.422495</ele>
|
|
<time>2026-07-11T08:30:36.000Z</time>
|
|
</trkpt>
|
|
<trkpt lat="55.463687" lon="8.552650">
|
|
<ele>5.399861</ele>
|
|
<time>2026-07-11T08:30:37.000Z</time>
|
|
</trkpt>
|
|
<trkpt lat="55.463700" lon="8.552554">
|
|
<ele>5.377002</ele>
|
|
<time>2026-07-11T08:30:38.000Z</time>
|
|
</trkpt>
|
|
<trkpt lat="55.463714" lon="8.552455">
|
|
<ele>5.353371</ele>
|
|
<time>2026-07-11T08:30:39.000Z</time>
|
|
</trkpt>
|
|
<trkpt lat="55.463728" lon="8.552357">
|
|
<ele>5.329964</ele>
|
|
<time>2026-07-11T08:30:40.000Z</time>
|
|
</trkpt>
|
|
<trkpt lat="55.463739" lon="8.552260">
|
|
<ele>5.307054</ele>
|
|
<time>2026-07-11T08:30:41.000Z</time>
|
|
</trkpt>
|
|
<trkpt lat="55.463750" lon="8.552164">
|
|
<ele>5.284371</ele>
|
|
<time>2026-07-11T08:30:42.000Z</time>
|
|
</trkpt>
|
|
<trkpt lat="55.463764" lon="8.552068">
|
|
<ele>5.261413</ele>
|
|
<time>2026-07-11T08:30:43.000Z</time>
|
|
</trkpt>
|
|
<trkpt lat="55.463777" lon="8.551972">
|
|
<ele>5.238554</ele>
|
|
<time>2026-07-11T08:30:44.000Z</time>
|
|
</trkpt>
|
|
<trkpt lat="55.463788" lon="8.551882">
|
|
<ele>5.217231</ele>
|
|
<time>2026-07-11T08:30:45.000Z</time>
|
|
</trkpt>
|
|
<trkpt lat="55.463799" lon="8.551793">
|
|
<ele>5.204143</ele>
|
|
<time>2026-07-11T08:30:46.000Z</time>
|
|
</trkpt>
|
|
<trkpt lat="55.463811" lon="8.551690">
|
|
<ele>5.239156</ele>
|
|
<time>2026-07-11T08:30:47.000Z</time>
|
|
</trkpt>
|
|
<trkpt lat="55.463823" lon="8.551594">
|
|
<ele>5.271889</ele>
|
|
<time>2026-07-11T08:30:48.000Z</time>
|
|
</trkpt>
|
|
<trkpt lat="55.463836" lon="8.551498">
|
|
<ele>5.304754</ele>
|
|
<time>2026-07-11T08:30:49.000Z</time>
|
|
</trkpt>
|
|
<trkpt lat="55.463849" lon="8.551405">
|
|
<ele>5.336648</ele>
|
|
<time>2026-07-11T08:30:50.000Z</time>
|
|
</trkpt>
|
|
<trkpt lat="55.463861" lon="8.551311">
|
|
<ele>5.368731</ele>
|
|
<time>2026-07-11T08:30:51.000Z</time>
|
|
</trkpt>
|
|
<trkpt lat="55.463872" lon="8.551215">
|
|
<ele>5.401342</ele>
|
|
<time>2026-07-11T08:30:52.000Z</time>
|
|
</trkpt>
|
|
<trkpt lat="55.463884" lon="8.551120">
|
|
<ele>5.433750</ele>
|
|
<time>2026-07-11T08:30:53.000Z</time>
|
|
</trkpt>
|
|
<trkpt lat="55.463895" lon="8.551026">
|
|
<ele>5.465709</ele>
|
|
<time>2026-07-11T08:30:54.000Z</time>
|
|
</trkpt>
|
|
<trkpt lat="55.463908" lon="8.550933">
|
|
<ele>5.497603</ele>
|
|
<time>2026-07-11T08:30:55.000Z</time>
|
|
</trkpt>
|
|
<trkpt lat="55.463922" lon="8.550839">
|
|
<ele>5.529964</ele>
|
|
<time>2026-07-11T08:30:56.000Z</time>
|
|
</trkpt>
|
|
<trkpt lat="55.463933" lon="8.550744">
|
|
<ele>5.562250</ele>
|
|
<time>2026-07-11T08:30:57.000Z</time>
|
|
</trkpt>
|
|
<trkpt lat="55.463945" lon="8.550651">
|
|
<ele>5.594008</ele>
|
|
<time>2026-07-11T08:30:58.000Z</time>
|
|
</trkpt>
|
|
<trkpt lat="55.463956" lon="8.550557">
|
|
<ele>5.625967</ele>
|
|
<time>2026-07-11T08:30:59.000Z</time>
|
|
</trkpt>
|
|
<trkpt lat="55.463968" lon="8.550464">
|
|
<ele>5.657725</ele>
|
|
<time>2026-07-11T08:31:00.000Z</time>
|
|
</trkpt>
|
|
<trkpt lat="55.463979" lon="8.550370">
|
|
<ele>5.689684</ele>
|
|
<time>2026-07-11T08:31:01.000Z</time>
|
|
</trkpt>
|
|
<trkpt lat="55.463991" lon="8.550276">
|
|
<ele>5.721767</ele>
|
|
<time>2026-07-11T08:31:02.000Z</time>
|
|
</trkpt>
|
|
<trkpt lat="55.464002" lon="8.550183">
|
|
<ele>5.753400</ele>
|
|
<time>2026-07-11T08:31:03.000Z</time>
|
|
</trkpt>
|
|
<trkpt lat="55.464013" lon="8.550090">
|
|
<ele>5.785033</ele>
|
|
<time>2026-07-11T08:31:04.000Z</time>
|
|
</trkpt>
|
|
<trkpt lat="55.464027" lon="8.549997">
|
|
<ele>5.817072</ele>
|
|
<time>2026-07-11T08:31:05.000Z</time>
|
|
</trkpt>
|
|
<trkpt lat="55.464040" lon="8.549904">
|
|
<ele>5.848966</ele>
|
|
<time>2026-07-11T08:31:06.000Z</time>
|
|
</trkpt>
|
|
<trkpt lat="55.464052" lon="8.549811">
|
|
<ele>5.880724</ele>
|
|
<time>2026-07-11T08:31:07.000Z</time>
|
|
</trkpt>
|
|
<trkpt lat="55.464063" lon="8.549720">
|
|
<ele>5.911705</ele>
|
|
<time>2026-07-11T08:31:08.000Z</time>
|
|
</trkpt>
|
|
<trkpt lat="55.464075" lon="8.549632">
|
|
<ele>5.941843</ele>
|
|
<time>2026-07-11T08:31:09.000Z</time>
|
|
</trkpt>
|
|
<trkpt lat="55.464086" lon="8.549541">
|
|
<ele>5.972824</ele>
|
|
<time>2026-07-11T08:31:10.000Z</time>
|
|
</trkpt>
|
|
<trkpt lat="55.464097" lon="8.549459">
|
|
<ele>6.000881</ele>
|
|
<time>2026-07-11T08:31:11.000Z</time>
|
|
</trkpt>
|
|
<trkpt lat="55.464107" lon="8.549377">
|
|
<ele>6.028809</ele>
|
|
<time>2026-07-11T08:31:12.000Z</time>
|
|
</trkpt>
|
|
<trkpt lat="55.464118" lon="8.549283">
|
|
<ele>6.060768</ele>
|
|
<time>2026-07-11T08:31:13.000Z</time>
|
|
</trkpt>
|
|
<trkpt lat="55.464127" lon="8.549200">
|
|
<ele>6.088906</ele>
|
|
<time>2026-07-11T08:31:14.000Z</time>
|
|
</trkpt>
|
|
<trkpt lat="55.464139" lon="8.549111">
|
|
<ele>6.119367</ele>
|
|
<time>2026-07-11T08:31:15.000Z</time>
|
|
</trkpt>
|
|
<trkpt lat="55.464149" lon="8.549028">
|
|
<ele>6.147620</ele>
|
|
<time>2026-07-11T08:31:16.000Z</time>
|
|
</trkpt>
|
|
<trkpt lat="55.464160" lon="8.548944">
|
|
<ele>6.176326</ele>
|
|
<time>2026-07-11T08:31:17.000Z</time>
|
|
</trkpt>
|
|
<trkpt lat="55.464174" lon="8.548862">
|
|
<ele>6.204841</ele>
|
|
<time>2026-07-11T08:31:18.000Z</time>
|
|
</trkpt>
|
|
<trkpt lat="55.464184" lon="8.548781">
|
|
<ele>6.232443</ele>
|
|
<time>2026-07-11T08:31:19.000Z</time>
|
|
</trkpt>
|
|
<trkpt lat="55.464193" lon="8.548699">
|
|
<ele>6.255550</ele>
|
|
<time>2026-07-11T08:31:20.000Z</time>
|
|
</trkpt>
|
|
<trkpt lat="55.464204" lon="8.548618">
|
|
<ele>6.253908</ele>
|
|
<time>2026-07-11T08:31:21.000Z</time>
|
|
</trkpt>
|
|
<trkpt lat="55.464216" lon="8.548535">
|
|
<ele>6.252220</ele>
|
|
<time>2026-07-11T08:31:22.000Z</time>
|
|
</trkpt>
|
|
<trkpt lat="55.464227" lon="8.548451">
|
|
<ele>6.250521</ele>
|
|
<time>2026-07-11T08:31:23.000Z</time>
|
|
</trkpt>
|
|
<trkpt lat="55.464238" lon="8.548369">
|
|
<ele>6.248860</ele>
|
|
<time>2026-07-11T08:31:24.000Z</time>
|
|
</trkpt>
|
|
<trkpt lat="55.464250" lon="8.548285">
|
|
<ele>6.247152</ele>
|
|
<time>2026-07-11T08:31:25.000Z</time>
|
|
</trkpt>
|
|
<trkpt lat="55.464260" lon="8.548201">
|
|
<ele>6.245460</ele>
|
|
<time>2026-07-11T08:31:26.000Z</time>
|
|
</trkpt>
|
|
<trkpt lat="55.464269" lon="8.548120">
|
|
<ele>6.243833</ele>
|
|
<time>2026-07-11T08:31:27.000Z</time>
|
|
</trkpt>
|
|
<trkpt lat="55.464281" lon="8.548040">
|
|
<ele>6.242202</ele>
|
|
<time>2026-07-11T08:31:28.000Z</time>
|
|
</trkpt>
|
|
<trkpt lat="55.464290" lon="8.547959">
|
|
<ele>6.240575</ele>
|
|
<time>2026-07-11T08:31:29.000Z</time>
|
|
</trkpt>
|
|
<trkpt lat="55.464298" lon="8.547877">
|
|
<ele>6.238935</ele>
|
|
<time>2026-07-11T08:31:30.000Z</time>
|
|
</trkpt>
|
|
<trkpt lat="55.464307" lon="8.547795">
|
|
<ele>6.237288</ele>
|
|
<time>2026-07-11T08:31:31.000Z</time>
|
|
</trkpt>
|
|
<trkpt lat="55.464319" lon="8.547712">
|
|
<ele>6.235600</ele>
|
|
<time>2026-07-11T08:31:32.000Z</time>
|
|
</trkpt>
|
|
<trkpt lat="55.464328" lon="8.547629">
|
|
<ele>6.233934</ele>
|
|
<time>2026-07-11T08:31:33.000Z</time>
|
|
</trkpt>
|
|
<trkpt lat="55.464338" lon="8.547547">
|
|
<ele>6.232281</ele>
|
|
<time>2026-07-11T08:31:34.000Z</time>
|
|
</trkpt>
|
|
<trkpt lat="55.464349" lon="8.547465">
|
|
<ele>6.230620</ele>
|
|
<time>2026-07-11T08:31:35.000Z</time>
|
|
</trkpt>
|
|
<trkpt lat="55.464358" lon="8.547391">
|
|
<ele>6.229128</ele>
|
|
<time>2026-07-11T08:31:36.000Z</time>
|
|
</trkpt>
|
|
<trkpt lat="55.464366" lon="8.547322">
|
|
<ele>6.227739</ele>
|
|
<time>2026-07-11T08:31:37.000Z</time>
|
|
</trkpt>
|
|
<trkpt lat="55.464382" lon="8.547216">
|
|
<ele>6.225577</ele>
|
|
<time>2026-07-11T08:31:38.000Z</time>
|
|
</trkpt>
|
|
<trkpt lat="55.464391" lon="8.547130">
|
|
<ele>6.223853</ele>
|
|
<time>2026-07-11T08:31:39.000Z</time>
|
|
</trkpt>
|
|
<trkpt lat="55.464401" lon="8.547044">
|
|
<ele>6.222123</ele>
|
|
<time>2026-07-11T08:31:40.000Z</time>
|
|
</trkpt>
|
|
<trkpt lat="55.464412" lon="8.546958">
|
|
<ele>6.220385</ele>
|
|
<time>2026-07-11T08:31:41.000Z</time>
|
|
</trkpt>
|
|
<trkpt lat="55.464425" lon="8.546871">
|
|
<ele>6.218611</ele>
|
|
<time>2026-07-11T08:31:42.000Z</time>
|
|
</trkpt>
|
|
<trkpt lat="55.464438" lon="8.546785">
|
|
<ele>6.216857</ele>
|
|
<time>2026-07-11T08:31:43.000Z</time>
|
|
</trkpt>
|
|
<trkpt lat="55.464452" lon="8.546699">
|
|
<ele>6.215093</ele>
|
|
<time>2026-07-11T08:31:44.000Z</time>
|
|
</trkpt>
|
|
<trkpt lat="55.464464" lon="8.546611">
|
|
<ele>6.213309</ele>
|
|
<time>2026-07-11T08:31:45.000Z</time>
|
|
</trkpt>
|
|
<trkpt lat="55.464475" lon="8.546524">
|
|
<ele>6.211552</ele>
|
|
<time>2026-07-11T08:31:46.000Z</time>
|
|
</trkpt>
|
|
<trkpt lat="55.464487" lon="8.546434">
|
|
<ele>6.209730</ele>
|
|
<time>2026-07-11T08:31:47.000Z</time>
|
|
</trkpt>
|
|
<trkpt lat="55.464498" lon="8.546344">
|
|
<ele>6.207915</ele>
|
|
<time>2026-07-11T08:31:48.000Z</time>
|
|
</trkpt>
|
|
<trkpt lat="55.464509" lon="8.546255">
|
|
<ele>6.206119</ele>
|
|
<time>2026-07-11T08:31:49.000Z</time>
|
|
</trkpt>
|
|
<trkpt lat="55.464521" lon="8.546162">
|
|
<ele>6.204239</ele>
|
|
<time>2026-07-11T08:31:50.000Z</time>
|
|
</trkpt>
|
|
<trkpt lat="55.464532" lon="8.546067">
|
|
<ele>6.202328</ele>
|
|
<time>2026-07-11T08:31:51.000Z</time>
|
|
</trkpt>
|
|
<trkpt lat="55.464544" lon="8.545972">
|
|
<ele>6.200409</ele>
|
|
<time>2026-07-11T08:31:52.000Z</time>
|
|
</trkpt>
|
|
<trkpt lat="55.464555" lon="8.545876">
|
|
<ele>6.198479</ele>
|
|
<time>2026-07-11T08:31:53.000Z</time>
|
|
</trkpt>
|
|
<trkpt lat="55.464568" lon="8.545780">
|
|
<ele>6.196533</ele>
|
|
<time>2026-07-11T08:31:54.000Z</time>
|
|
</trkpt>
|
|
<trkpt lat="55.464582" lon="8.545682">
|
|
<ele>6.194541</ele>
|
|
<time>2026-07-11T08:31:55.000Z</time>
|
|
</trkpt>
|
|
<trkpt lat="55.464593" lon="8.545587">
|
|
<ele>6.171164</ele>
|
|
<time>2026-07-11T08:31:56.000Z</time>
|
|
</trkpt>
|
|
<trkpt lat="55.464603" lon="8.545490">
|
|
<ele>6.104449</ele>
|
|
<time>2026-07-11T08:31:57.000Z</time>
|
|
</trkpt>
|
|
<trkpt lat="55.464612" lon="8.545390">
|
|
<ele>6.035933</ele>
|
|
<time>2026-07-11T08:31:58.000Z</time>
|
|
</trkpt>
|
|
<trkpt lat="55.464626" lon="8.545292">
|
|
<ele>5.967545</ele>
|
|
<time>2026-07-11T08:31:59.000Z</time>
|
|
</trkpt>
|
|
<trkpt lat="55.464639" lon="8.545192">
|
|
<ele>5.898120</ele>
|
|
<time>2026-07-11T08:32:00.000Z</time>
|
|
</trkpt>
|
|
<trkpt lat="55.464651" lon="8.545097">
|
|
<ele>5.832259</ele>
|
|
<time>2026-07-11T08:32:01.000Z</time>
|
|
</trkpt>
|
|
<trkpt lat="55.464666" lon="8.545000">
|
|
<ele>5.764223</ele>
|
|
<time>2026-07-11T08:32:02.000Z</time>
|
|
</trkpt>
|
|
<trkpt lat="55.464681" lon="8.544891">
|
|
<ele>5.688322</ele>
|
|
<time>2026-07-11T08:32:03.000Z</time>
|
|
</trkpt>
|
|
<trkpt lat="55.464694" lon="8.544787">
|
|
<ele>5.616257</ele>
|
|
<time>2026-07-11T08:32:04.000Z</time>
|
|
</trkpt>
|
|
<trkpt lat="55.464708" lon="8.544685">
|
|
<ele>5.545241</ele>
|
|
<time>2026-07-11T08:32:05.000Z</time>
|
|
</trkpt>
|
|
<trkpt lat="55.464719" lon="8.544582">
|
|
<ele>5.474317</ele>
|
|
<time>2026-07-11T08:32:06.000Z</time>
|
|
</trkpt>
|
|
<trkpt lat="55.464732" lon="8.544478">
|
|
<ele>5.402252</ele>
|
|
<time>2026-07-11T08:32:07.000Z</time>
|
|
</trkpt>
|
|
<trkpt lat="55.464746" lon="8.544374">
|
|
<ele>5.329920</ele>
|
|
<time>2026-07-11T08:32:08.000Z</time>
|
|
</trkpt>
|
|
<trkpt lat="55.464759" lon="8.544270">
|
|
<ele>5.257855</ele>
|
|
<time>2026-07-11T08:32:09.000Z</time>
|
|
</trkpt>
|
|
<trkpt lat="55.464774" lon="8.544168">
|
|
<ele>5.186549</ele>
|
|
<time>2026-07-11T08:32:10.000Z</time>
|
|
</trkpt>
|
|
<trkpt lat="55.464788" lon="8.544066">
|
|
<ele>5.115534</ele>
|
|
<time>2026-07-11T08:32:11.000Z</time>
|
|
</trkpt>
|
|
<trkpt lat="55.464799" lon="8.543965">
|
|
<ele>5.045939</ele>
|
|
<time>2026-07-11T08:32:12.000Z</time>
|
|
</trkpt>
|
|
<trkpt lat="55.464812" lon="8.543864">
|
|
<ele>4.975855</ele>
|
|
<time>2026-07-11T08:32:13.000Z</time>
|
|
</trkpt>
|
|
<trkpt lat="55.464826" lon="8.543761">
|
|
<ele>4.904182</ele>
|
|
<time>2026-07-11T08:32:14.000Z</time>
|
|
</trkpt>
|
|
<trkpt lat="55.464837" lon="8.543657">
|
|
<ele>4.832593</ele>
|
|
<time>2026-07-11T08:32:15.000Z</time>
|
|
</trkpt>
|
|
<trkpt lat="55.464850" lon="8.543555">
|
|
<ele>4.761849</ele>
|
|
<time>2026-07-11T08:32:16.000Z</time>
|
|
</trkpt>
|
|
<trkpt lat="55.464864" lon="8.543454">
|
|
<ele>4.691491</ele>
|
|
<time>2026-07-11T08:32:17.000Z</time>
|
|
</trkpt>
|
|
<trkpt lat="55.464877" lon="8.543352">
|
|
<ele>4.620747</ele>
|
|
<time>2026-07-11T08:32:18.000Z</time>
|
|
</trkpt>
|
|
<trkpt lat="55.464891" lon="8.543248">
|
|
<ele>4.548415</ele>
|
|
<time>2026-07-11T08:32:19.000Z</time>
|
|
</trkpt>
|
|
<trkpt lat="55.464902" lon="8.543148">
|
|
<ele>4.479485</ele>
|
|
<time>2026-07-11T08:32:20.000Z</time>
|
|
</trkpt>
|
|
<trkpt lat="55.464914" lon="8.543048">
|
|
<ele>4.410318</ele>
|
|
<time>2026-07-11T08:32:21.000Z</time>
|
|
</trkpt>
|
|
<trkpt lat="55.464927" lon="8.542949">
|
|
<ele>4.341553</ele>
|
|
<time>2026-07-11T08:32:22.000Z</time>
|
|
</trkpt>
|
|
<trkpt lat="55.464940" lon="8.542852">
|
|
<ele>4.274106</ele>
|
|
<time>2026-07-11T08:32:23.000Z</time>
|
|
</trkpt>
|
|
<trkpt lat="55.464953" lon="8.542757">
|
|
<ele>4.207976</ele>
|
|
<time>2026-07-11T08:32:24.000Z</time>
|
|
</trkpt>
|
|
<trkpt lat="55.464967" lon="8.542660">
|
|
<ele>4.140244</ele>
|
|
<time>2026-07-11T08:32:25.000Z</time>
|
|
</trkpt>
|
|
<trkpt lat="55.464979" lon="8.542560">
|
|
<ele>4.071077</ele>
|
|
<time>2026-07-11T08:32:26.000Z</time>
|
|
</trkpt>
|
|
<trkpt lat="55.464992" lon="8.542464">
|
|
<ele>4.044048</ele>
|
|
<time>2026-07-11T08:32:27.000Z</time>
|
|
</trkpt>
|
|
<trkpt lat="55.465005" lon="8.542367">
|
|
<ele>4.040327</ele>
|
|
<time>2026-07-11T08:32:28.000Z</time>
|
|
</trkpt>
|
|
<trkpt lat="55.465019" lon="8.542267">
|
|
<ele>4.036482</ele>
|
|
<time>2026-07-11T08:32:29.000Z</time>
|
|
</trkpt>
|
|
<trkpt lat="55.465032" lon="8.542169">
|
|
<ele>4.032725</ele>
|
|
<time>2026-07-11T08:32:30.000Z</time>
|
|
</trkpt>
|
|
<trkpt lat="55.465045" lon="8.542073">
|
|
<ele>4.029041</ele>
|
|
<time>2026-07-11T08:32:31.000Z</time>
|
|
</trkpt>
|
|
<trkpt lat="55.465059" lon="8.541976">
|
|
<ele>4.025304</ele>
|
|
<time>2026-07-11T08:32:32.000Z</time>
|
|
</trkpt>
|
|
<trkpt lat="55.465070" lon="8.541879">
|
|
<ele>4.021611</ele>
|
|
<time>2026-07-11T08:32:33.000Z</time>
|
|
</trkpt>
|
|
<trkpt lat="55.465082" lon="8.541782">
|
|
<ele>4.017905</ele>
|
|
<time>2026-07-11T08:32:34.000Z</time>
|
|
</trkpt>
|
|
<trkpt lat="55.465095" lon="8.541686">
|
|
<ele>4.014221</ele>
|
|
<time>2026-07-11T08:32:35.000Z</time>
|
|
</trkpt>
|
|
<trkpt lat="55.465108" lon="8.541588">
|
|
<ele>4.010463</ele>
|
|
<time>2026-07-11T08:32:36.000Z</time>
|
|
</trkpt>
|
|
<trkpt lat="55.465122" lon="8.541491">
|
|
<ele>4.006727</ele>
|
|
<time>2026-07-11T08:32:37.000Z</time>
|
|
</trkpt>
|
|
<trkpt lat="55.465135" lon="8.541396">
|
|
<ele>4.003079</ele>
|
|
<time>2026-07-11T08:32:38.000Z</time>
|
|
</trkpt>
|
|
<trkpt lat="55.465146" lon="8.541302">
|
|
<ele>3.999496</ele>
|
|
<time>2026-07-11T08:32:39.000Z</time>
|
|
</trkpt>
|
|
<trkpt lat="55.465159" lon="8.541204">
|
|
<ele>3.995739</ele>
|
|
<time>2026-07-11T08:32:40.000Z</time>
|
|
</trkpt>
|
|
<trkpt lat="55.465175" lon="8.541107">
|
|
<ele>3.991967</ele>
|
|
<time>2026-07-11T08:32:41.000Z</time>
|
|
</trkpt>
|
|
<trkpt lat="55.465188" lon="8.541012">
|
|
<ele>3.988319</ele>
|
|
<time>2026-07-11T08:32:42.000Z</time>
|
|
</trkpt>
|
|
<trkpt lat="55.465202" lon="8.540918">
|
|
<ele>3.984691</ele>
|
|
<time>2026-07-11T08:32:43.000Z</time>
|
|
</trkpt>
|
|
<trkpt lat="55.465217" lon="8.540824">
|
|
<ele>3.981046</ele>
|
|
<time>2026-07-11T08:32:44.000Z</time>
|
|
</trkpt>
|
|
<trkpt lat="55.465232" lon="8.540730">
|
|
<ele>3.977400</ele>
|
|
<time>2026-07-11T08:32:45.000Z</time>
|
|
</trkpt>
|
|
<trkpt lat="55.465247" lon="8.540635">
|
|
<ele>3.973719</ele>
|
|
<time>2026-07-11T08:32:46.000Z</time>
|
|
</trkpt>
|
|
<trkpt lat="55.465263" lon="8.540542">
|
|
<ele>3.970091</ele>
|
|
<time>2026-07-11T08:32:47.000Z</time>
|
|
</trkpt>
|
|
<trkpt lat="55.465278" lon="8.540448">
|
|
<ele>3.966446</ele>
|
|
<time>2026-07-11T08:32:48.000Z</time>
|
|
</trkpt>
|
|
<trkpt lat="55.465293" lon="8.540354">
|
|
<ele>3.962800</ele>
|
|
<time>2026-07-11T08:32:49.000Z</time>
|
|
</trkpt>
|
|
<trkpt lat="55.465310" lon="8.540261">
|
|
<ele>3.959153</ele>
|
|
<time>2026-07-11T08:32:50.000Z</time>
|
|
</trkpt>
|
|
<trkpt lat="55.465329" lon="8.540167">
|
|
<ele>3.955427</ele>
|
|
<time>2026-07-11T08:32:51.000Z</time>
|
|
</trkpt>
|
|
<trkpt lat="55.465348" lon="8.540075">
|
|
<ele>3.951772</ele>
|
|
<time>2026-07-11T08:32:52.000Z</time>
|
|
</trkpt>
|
|
<trkpt lat="55.465367" lon="8.539983">
|
|
<ele>3.948117</ele>
|
|
<time>2026-07-11T08:32:53.000Z</time>
|
|
</trkpt>
|
|
<trkpt lat="55.465387" lon="8.539891">
|
|
<ele>3.944439</ele>
|
|
<time>2026-07-11T08:32:54.000Z</time>
|
|
</trkpt>
|
|
<trkpt lat="55.465404" lon="8.539801">
|
|
<ele>3.940898</ele>
|
|
<time>2026-07-11T08:32:55.000Z</time>
|
|
</trkpt>
|
|
<trkpt lat="55.465421" lon="8.539712">
|
|
<ele>3.937392</ele>
|
|
<time>2026-07-11T08:32:56.000Z</time>
|
|
</trkpt>
|
|
<trkpt lat="55.465438" lon="8.539623">
|
|
<ele>3.933886</ele>
|
|
<time>2026-07-11T08:32:57.000Z</time>
|
|
</trkpt>
|
|
<trkpt lat="55.465457" lon="8.539534">
|
|
<ele>3.930336</ele>
|
|
<time>2026-07-11T08:32:58.000Z</time>
|
|
</trkpt>
|
|
<trkpt lat="55.465478" lon="8.539446">
|
|
<ele>3.928094</ele>
|
|
<time>2026-07-11T08:32:59.000Z</time>
|
|
</trkpt>
|
|
<trkpt lat="55.465497" lon="8.539359">
|
|
<ele>3.928578</ele>
|
|
<time>2026-07-11T08:33:00.000Z</time>
|
|
</trkpt>
|
|
<trkpt lat="55.465516" lon="8.539274">
|
|
<ele>3.929053</ele>
|
|
<time>2026-07-11T08:33:01.000Z</time>
|
|
</trkpt>
|
|
<trkpt lat="55.465535" lon="8.539186">
|
|
<ele>3.929543</ele>
|
|
<time>2026-07-11T08:33:02.000Z</time>
|
|
</trkpt>
|
|
<trkpt lat="55.465554" lon="8.539099">
|
|
<ele>3.930027</ele>
|
|
<time>2026-07-11T08:33:03.000Z</time>
|
|
</trkpt>
|
|
<trkpt lat="55.465573" lon="8.539013">
|
|
<ele>3.930507</ele>
|
|
<time>2026-07-11T08:33:04.000Z</time>
|
|
</trkpt>
|
|
<trkpt lat="55.465592" lon="8.538926">
|
|
<ele>3.930992</ele>
|
|
<time>2026-07-11T08:33:05.000Z</time>
|
|
</trkpt>
|
|
<trkpt lat="55.465611" lon="8.538840">
|
|
<ele>3.931472</ele>
|
|
<time>2026-07-11T08:33:06.000Z</time>
|
|
</trkpt>
|
|
<trkpt lat="55.465630" lon="8.538754">
|
|
<ele>3.931951</ele>
|
|
<time>2026-07-11T08:33:07.000Z</time>
|
|
</trkpt>
|
|
<trkpt lat="55.465649" lon="8.538668">
|
|
<ele>3.932431</ele>
|
|
<time>2026-07-11T08:33:08.000Z</time>
|
|
</trkpt>
|
|
<trkpt lat="55.465669" lon="8.538581">
|
|
<ele>3.932919</ele>
|
|
<time>2026-07-11T08:33:09.000Z</time>
|
|
</trkpt>
|
|
<trkpt lat="55.465688" lon="8.538495">
|
|
<ele>3.933399</ele>
|
|
<time>2026-07-11T08:33:10.000Z</time>
|
|
</trkpt>
|
|
<trkpt lat="55.465707" lon="8.538410">
|
|
<ele>3.933874</ele>
|
|
<time>2026-07-11T08:33:11.000Z</time>
|
|
</trkpt>
|
|
<trkpt lat="55.465727" lon="8.538323">
|
|
<ele>3.934362</ele>
|
|
<time>2026-07-11T08:33:12.000Z</time>
|
|
</trkpt>
|
|
<trkpt lat="55.465747" lon="8.538235">
|
|
<ele>3.934855</ele>
|
|
<time>2026-07-11T08:33:13.000Z</time>
|
|
</trkpt>
|
|
<trkpt lat="55.465764" lon="8.538147">
|
|
<ele>3.935338</ele>
|
|
<time>2026-07-11T08:33:14.000Z</time>
|
|
</trkpt>
|
|
<trkpt lat="55.465783" lon="8.538058">
|
|
<ele>3.935832</ele>
|
|
<time>2026-07-11T08:33:15.000Z</time>
|
|
</trkpt>
|
|
<trkpt lat="55.465802" lon="8.537970">
|
|
<ele>3.936322</ele>
|
|
<time>2026-07-11T08:33:16.000Z</time>
|
|
</trkpt>
|
|
<trkpt lat="55.465821" lon="8.537880">
|
|
<ele>3.936821</ele>
|
|
<time>2026-07-11T08:33:17.000Z</time>
|
|
</trkpt>
|
|
<trkpt lat="55.465840" lon="8.537789">
|
|
<ele>3.937325</ele>
|
|
<time>2026-07-11T08:33:18.000Z</time>
|
|
</trkpt>
|
|
<trkpt lat="55.465858" lon="8.537706">
|
|
<ele>3.937787</ele>
|
|
<time>2026-07-11T08:33:19.000Z</time>
|
|
</trkpt>
|
|
<trkpt lat="55.465876" lon="8.537624">
|
|
<ele>3.938244</ele>
|
|
<time>2026-07-11T08:33:20.000Z</time>
|
|
</trkpt>
|
|
<trkpt lat="55.465902" lon="8.537520">
|
|
<ele>3.938835</ele>
|
|
<time>2026-07-11T08:33:21.000Z</time>
|
|
</trkpt>
|
|
<trkpt lat="55.465920" lon="8.537431">
|
|
<ele>3.939326</ele>
|
|
<time>2026-07-11T08:33:22.000Z</time>
|
|
</trkpt>
|
|
<trkpt lat="55.465939" lon="8.537343">
|
|
<ele>3.939815</ele>
|
|
<time>2026-07-11T08:33:23.000Z</time>
|
|
</trkpt>
|
|
<trkpt lat="55.465959" lon="8.537253">
|
|
<ele>3.940318</ele>
|
|
<time>2026-07-11T08:33:24.000Z</time>
|
|
</trkpt>
|
|
<trkpt lat="55.465977" lon="8.537165">
|
|
<ele>3.940804</ele>
|
|
<time>2026-07-11T08:33:25.000Z</time>
|
|
</trkpt>
|
|
<trkpt lat="55.465998" lon="8.537078">
|
|
<ele>3.941296</ele>
|
|
<time>2026-07-11T08:33:26.000Z</time>
|
|
</trkpt>
|
|
<trkpt lat="55.466019" lon="8.536986">
|
|
<ele>3.941811</ele>
|
|
<time>2026-07-11T08:33:27.000Z</time>
|
|
</trkpt>
|
|
<trkpt lat="55.466037" lon="8.536895">
|
|
<ele>3.942312</ele>
|
|
<time>2026-07-11T08:33:28.000Z</time>
|
|
</trkpt>
|
|
<trkpt lat="55.466056" lon="8.536805">
|
|
<ele>3.942811</ele>
|
|
<time>2026-07-11T08:33:29.000Z</time>
|
|
</trkpt>
|
|
<trkpt lat="55.466075" lon="8.536713">
|
|
<ele>3.943320</ele>
|
|
<time>2026-07-11T08:33:30.000Z</time>
|
|
</trkpt>
|
|
<trkpt lat="55.466094" lon="8.536622">
|
|
<ele>3.943824</ele>
|
|
<time>2026-07-11T08:33:31.000Z</time>
|
|
</trkpt>
|
|
<trkpt lat="55.466113" lon="8.536532">
|
|
<ele>3.944323</ele>
|
|
<time>2026-07-11T08:33:32.000Z</time>
|
|
</trkpt>
|
|
<trkpt lat="55.466130" lon="8.536440">
|
|
<ele>3.940859</ele>
|
|
<time>2026-07-11T08:33:33.000Z</time>
|
|
</trkpt>
|
|
<trkpt lat="55.466149" lon="8.536346">
|
|
<ele>3.936263</ele>
|
|
<time>2026-07-11T08:33:34.000Z</time>
|
|
</trkpt>
|
|
<trkpt lat="55.466167" lon="8.536253">
|
|
<ele>3.931738</ele>
|
|
<time>2026-07-11T08:33:35.000Z</time>
|
|
</trkpt>
|
|
<trkpt lat="55.466182" lon="8.536159">
|
|
<ele>3.927241</ele>
|
|
<time>2026-07-11T08:33:36.000Z</time>
|
|
</trkpt>
|
|
<trkpt lat="55.466201" lon="8.536068">
|
|
<ele>3.922776</ele>
|
|
<time>2026-07-11T08:33:37.000Z</time>
|
|
</trkpt>
|
|
<trkpt lat="55.466220" lon="8.535978">
|
|
<ele>3.918353</ele>
|
|
<time>2026-07-11T08:33:38.000Z</time>
|
|
</trkpt>
|
|
<trkpt lat="55.466237" lon="8.535886">
|
|
<ele>3.913897</ele>
|
|
<time>2026-07-11T08:33:39.000Z</time>
|
|
</trkpt>
|
|
<trkpt lat="55.466254" lon="8.535795">
|
|
<ele>3.909485</ele>
|
|
<time>2026-07-11T08:33:40.000Z</time>
|
|
</trkpt>
|
|
<trkpt lat="55.466271" lon="8.535703">
|
|
<ele>3.905029</ele>
|
|
<time>2026-07-11T08:33:41.000Z</time>
|
|
</trkpt>
|
|
<trkpt lat="55.466287" lon="8.535609">
|
|
<ele>3.900510</ele>
|
|
<time>2026-07-11T08:33:42.000Z</time>
|
|
</trkpt>
|
|
<trkpt lat="55.466300" lon="8.535521">
|
|
<ele>3.896322</ele>
|
|
<time>2026-07-11T08:33:43.000Z</time>
|
|
</trkpt>
|
|
<trkpt lat="55.466314" lon="8.535431">
|
|
<ele>3.892025</ele>
|
|
<time>2026-07-11T08:33:44.000Z</time>
|
|
</trkpt>
|
|
<trkpt lat="55.466332" lon="8.535333">
|
|
<ele>3.887281</ele>
|
|
<time>2026-07-11T08:33:45.000Z</time>
|
|
</trkpt>
|
|
<trkpt lat="55.466350" lon="8.535240">
|
|
<ele>3.882756</ele>
|
|
<time>2026-07-11T08:33:46.000Z</time>
|
|
</trkpt>
|
|
<trkpt lat="55.466365" lon="8.535147">
|
|
<ele>3.878303</ele>
|
|
<time>2026-07-11T08:33:47.000Z</time>
|
|
</trkpt>
|
|
<trkpt lat="55.466378" lon="8.535052">
|
|
<ele>3.873803</ele>
|
|
<time>2026-07-11T08:33:48.000Z</time>
|
|
</trkpt>
|
|
<trkpt lat="55.466392" lon="8.534954">
|
|
<ele>3.869149</ele>
|
|
<time>2026-07-11T08:33:49.000Z</time>
|
|
</trkpt>
|
|
<trkpt lat="55.466407" lon="8.534858">
|
|
<ele>3.864564</ele>
|
|
<time>2026-07-11T08:33:50.000Z</time>
|
|
</trkpt>
|
|
<trkpt lat="55.466421" lon="8.534762">
|
|
<ele>3.859999</ele>
|
|
<time>2026-07-11T08:33:51.000Z</time>
|
|
</trkpt>
|
|
<trkpt lat="55.466432" lon="8.534666">
|
|
<ele>3.855489</ele>
|
|
<time>2026-07-11T08:33:52.000Z</time>
|
|
</trkpt>
|
|
<trkpt lat="55.466445" lon="8.534570">
|
|
<ele>3.850944</ele>
|
|
<time>2026-07-11T08:33:53.000Z</time>
|
|
</trkpt>
|
|
<trkpt lat="55.466457" lon="8.534477">
|
|
<ele>3.846552</ele>
|
|
<time>2026-07-11T08:33:54.000Z</time>
|
|
</trkpt>
|
|
<trkpt lat="55.466468" lon="8.534384">
|
|
<ele>3.842178</ele>
|
|
<time>2026-07-11T08:33:55.000Z</time>
|
|
</trkpt>
|
|
<trkpt lat="55.466481" lon="8.534289">
|
|
<ele>3.837677</ele>
|
|
<time>2026-07-11T08:33:56.000Z</time>
|
|
</trkpt>
|
|
<trkpt lat="55.466493" lon="8.534196">
|
|
<ele>3.833285</ele>
|
|
<time>2026-07-11T08:33:57.000Z</time>
|
|
</trkpt>
|
|
<trkpt lat="55.466503" lon="8.534100">
|
|
<ele>3.828791</ele>
|
|
<time>2026-07-11T08:33:58.000Z</time>
|
|
</trkpt>
|
|
<trkpt lat="55.466512" lon="8.534007">
|
|
<ele>3.824446</ele>
|
|
<time>2026-07-11T08:33:59.000Z</time>
|
|
</trkpt>
|
|
<trkpt lat="55.466523" lon="8.533912">
|
|
<ele>3.819981</ele>
|
|
<time>2026-07-11T08:34:00.000Z</time>
|
|
</trkpt>
|
|
<trkpt lat="55.466537" lon="8.533812">
|
|
<ele>3.815238</ele>
|
|
<time>2026-07-11T08:34:01.000Z</time>
|
|
</trkpt>
|
|
<trkpt lat="55.466550" lon="8.533716">
|
|
<ele>3.810693</ele>
|
|
<time>2026-07-11T08:34:02.000Z</time>
|
|
</trkpt>
|
|
<trkpt lat="55.466562" lon="8.533618">
|
|
<ele>3.806076</ele>
|
|
<time>2026-07-11T08:34:03.000Z</time>
|
|
</trkpt>
|
|
<trkpt lat="55.466572" lon="8.533521">
|
|
<ele>3.801536</ele>
|
|
<time>2026-07-11T08:34:04.000Z</time>
|
|
</trkpt>
|
|
<trkpt lat="55.466581" lon="8.533423">
|
|
<ele>3.804541</ele>
|
|
<time>2026-07-11T08:34:05.000Z</time>
|
|
</trkpt>
|
|
<trkpt lat="55.466592" lon="8.533326">
|
|
<ele>3.825444</ele>
|
|
<time>2026-07-11T08:34:06.000Z</time>
|
|
</trkpt>
|
|
<trkpt lat="55.466604" lon="8.533230">
|
|
<ele>3.846218</ele>
|
|
<time>2026-07-11T08:34:07.000Z</time>
|
|
</trkpt>
|
|
<trkpt lat="55.466613" lon="8.533134">
|
|
<ele>3.866780</ele>
|
|
<time>2026-07-11T08:34:08.000Z</time>
|
|
</trkpt>
|
|
<trkpt lat="55.466621" lon="8.533036">
|
|
<ele>3.887702</ele>
|
|
<time>2026-07-11T08:34:09.000Z</time>
|
|
</trkpt>
|
|
<trkpt lat="55.466630" lon="8.532940">
|
|
<ele>3.908264</ele>
|
|
<time>2026-07-11T08:34:10.000Z</time>
|
|
</trkpt>
|
|
<trkpt lat="55.466642" lon="8.532843">
|
|
<ele>3.929244</ele>
|
|
<time>2026-07-11T08:34:11.000Z</time>
|
|
</trkpt>
|
|
<trkpt lat="55.466653" lon="8.532746">
|
|
<ele>3.950148</ele>
|
|
<time>2026-07-11T08:34:12.000Z</time>
|
|
</trkpt>
|
|
<trkpt lat="55.466665" lon="8.532649">
|
|
<ele>3.971127</ele>
|
|
<time>2026-07-11T08:34:13.000Z</time>
|
|
</trkpt>
|
|
<trkpt lat="55.466675" lon="8.532552">
|
|
<ele>3.991961</ele>
|
|
<time>2026-07-11T08:34:14.000Z</time>
|
|
</trkpt>
|
|
<trkpt lat="55.466684" lon="8.532454">
|
|
<ele>4.012940</ele>
|
|
<time>2026-07-11T08:34:15.000Z</time>
|
|
</trkpt>
|
|
<trkpt lat="55.466695" lon="8.532356">
|
|
<ele>4.034051</ele>
|
|
<time>2026-07-11T08:34:16.000Z</time>
|
|
</trkpt>
|
|
<trkpt lat="55.466705" lon="8.532259">
|
|
<ele>4.054885</ele>
|
|
<time>2026-07-11T08:34:17.000Z</time>
|
|
</trkpt>
|
|
<trkpt lat="55.466712" lon="8.532164">
|
|
<ele>4.075128</ele>
|
|
<time>2026-07-11T08:34:18.000Z</time>
|
|
</trkpt>
|
|
<trkpt lat="55.466722" lon="8.532065">
|
|
<ele>4.096378</ele>
|
|
<time>2026-07-11T08:34:19.000Z</time>
|
|
</trkpt>
|
|
<trkpt lat="55.466733" lon="8.531968">
|
|
<ele>4.117281</ele>
|
|
<time>2026-07-11T08:34:20.000Z</time>
|
|
</trkpt>
|
|
<trkpt lat="55.466745" lon="8.531871">
|
|
<ele>4.138261</ele>
|
|
<time>2026-07-11T08:34:21.000Z</time>
|
|
</trkpt>
|
|
<trkpt lat="55.466754" lon="8.531772">
|
|
<ele>4.159449</ele>
|
|
<time>2026-07-11T08:34:22.000Z</time>
|
|
</trkpt>
|
|
<trkpt lat="55.466764" lon="8.531675">
|
|
<ele>4.180282</ele>
|
|
<time>2026-07-11T08:34:23.000Z</time>
|
|
</trkpt>
|
|
<trkpt lat="55.466774" lon="8.531577">
|
|
<ele>4.201324</ele>
|
|
<time>2026-07-11T08:34:24.000Z</time>
|
|
</trkpt>
|
|
<trkpt lat="55.466783" lon="8.531479">
|
|
<ele>4.222303</ele>
|
|
<time>2026-07-11T08:34:25.000Z</time>
|
|
</trkpt>
|
|
<trkpt lat="55.466794" lon="8.531383">
|
|
<ele>4.242999</ele>
|
|
<time>2026-07-11T08:34:26.000Z</time>
|
|
</trkpt>
|
|
<trkpt lat="55.466806" lon="8.531289">
|
|
<ele>4.263360</ele>
|
|
<time>2026-07-11T08:34:27.000Z</time>
|
|
</trkpt>
|
|
<trkpt lat="55.466816" lon="8.531194">
|
|
<ele>4.283778</ele>
|
|
<time>2026-07-11T08:34:28.000Z</time>
|
|
</trkpt>
|
|
<trkpt lat="55.466825" lon="8.531100">
|
|
<ele>4.303923</ele>
|
|
<time>2026-07-11T08:34:29.000Z</time>
|
|
</trkpt>
|
|
<trkpt lat="55.466835" lon="8.531006">
|
|
<ele>4.324133</ele>
|
|
<time>2026-07-11T08:34:30.000Z</time>
|
|
</trkpt>
|
|
<trkpt lat="55.466844" lon="8.530911">
|
|
<ele>4.344486</ele>
|
|
<time>2026-07-11T08:34:31.000Z</time>
|
|
</trkpt>
|
|
<trkpt lat="55.466855" lon="8.530816">
|
|
<ele>4.364976</ele>
|
|
<time>2026-07-11T08:34:32.000Z</time>
|
|
</trkpt>
|
|
<trkpt lat="55.466867" lon="8.530720">
|
|
<ele>4.385749</ele>
|
|
<time>2026-07-11T08:34:33.000Z</time>
|
|
</trkpt>
|
|
<trkpt lat="55.466877" lon="8.530625">
|
|
<ele>4.406167</ele>
|
|
<time>2026-07-11T08:34:34.000Z</time>
|
|
</trkpt>
|
|
<trkpt lat="55.466886" lon="8.530530">
|
|
<ele>4.426520</ele>
|
|
<time>2026-07-11T08:34:35.000Z</time>
|
|
</trkpt>
|
|
<trkpt lat="55.466897" lon="8.530439">
|
|
<ele>4.446182</ele>
|
|
<time>2026-07-11T08:34:36.000Z</time>
|
|
</trkpt>
|
|
<trkpt lat="55.466909" lon="8.530349">
|
|
<ele>4.465719</ele>
|
|
<time>2026-07-11T08:34:37.000Z</time>
|
|
</trkpt>
|
|
<trkpt lat="55.466919" lon="8.530258">
|
|
<ele>4.526588</ele>
|
|
<time>2026-07-11T08:34:38.000Z</time>
|
|
</trkpt>
|
|
<trkpt lat="55.466928" lon="8.530167">
|
|
<ele>4.594896</ele>
|
|
<time>2026-07-11T08:34:39.000Z</time>
|
|
</trkpt>
|
|
<trkpt lat="55.466938" lon="8.530075">
|
|
<ele>4.664166</ele>
|
|
<time>2026-07-11T08:34:40.000Z</time>
|
|
</trkpt>
|
|
<trkpt lat="55.466947" lon="8.529981">
|
|
<ele>4.734660</ele>
|
|
<time>2026-07-11T08:34:41.000Z</time>
|
|
</trkpt>
|
|
<trkpt lat="55.466957" lon="8.529890">
|
|
<ele>4.803204</ele>
|
|
<time>2026-07-11T08:34:42.000Z</time>
|
|
</trkpt>
|
|
<trkpt lat="55.466964" lon="8.529801">
|
|
<ele>4.869647</ele>
|
|
<time>2026-07-11T08:34:43.000Z</time>
|
|
</trkpt>
|
|
<trkpt lat="55.466973" lon="8.529710">
|
|
<ele>4.937954</ele>
|
|
<time>2026-07-11T08:34:44.000Z</time>
|
|
</trkpt>
|
|
<trkpt lat="55.466983" lon="8.529617">
|
|
<ele>5.007950</ele>
|
|
<time>2026-07-11T08:34:45.000Z</time>
|
|
</trkpt>
|
|
<trkpt lat="55.466991" lon="8.529526">
|
|
<ele>5.076046</ele>
|
|
<time>2026-07-11T08:34:46.000Z</time>
|
|
</trkpt>
|
|
<trkpt lat="55.467000" lon="8.529435">
|
|
<ele>5.144354</ele>
|
|
<time>2026-07-11T08:34:47.000Z</time>
|
|
</trkpt>
|
|
<trkpt lat="55.467010" lon="8.529343">
|
|
<ele>5.213623</ele>
|
|
<time>2026-07-11T08:34:48.000Z</time>
|
|
</trkpt>
|
|
<trkpt lat="55.467019" lon="8.529250">
|
|
<ele>5.283388</ele>
|
|
<time>2026-07-11T08:34:49.000Z</time>
|
|
</trkpt>
|
|
<trkpt lat="55.467029" lon="8.529159">
|
|
<ele>5.351932</ele>
|
|
<time>2026-07-11T08:34:50.000Z</time>
|
|
</trkpt>
|
|
<trkpt lat="55.467035" lon="8.529066">
|
|
<ele>5.421146</ele>
|
|
<time>2026-07-11T08:34:51.000Z</time>
|
|
</trkpt>
|
|
<trkpt lat="55.467039" lon="8.528976">
|
|
<ele>5.487902</ele>
|
|
<time>2026-07-11T08:34:52.000Z</time>
|
|
</trkpt>
|
|
<trkpt lat="55.467044" lon="8.528889">
|
|
<ele>5.552565</ele>
|
|
<time>2026-07-11T08:34:53.000Z</time>
|
|
</trkpt>
|
|
<trkpt lat="55.467050" lon="8.528799">
|
|
<ele>5.619575</ele>
|
|
<time>2026-07-11T08:34:54.000Z</time>
|
|
</trkpt>
|
|
<trkpt lat="55.467056" lon="8.528707">
|
|
<ele>5.688054</ele>
|
|
<time>2026-07-11T08:34:55.000Z</time>
|
|
</trkpt>
|
|
<trkpt lat="55.467062" lon="8.528617">
|
|
<ele>5.755064</ele>
|
|
<time>2026-07-11T08:34:56.000Z</time>
|
|
</trkpt>
|
|
<trkpt lat="55.467067" lon="8.528529">
|
|
<ele>5.820463</ele>
|
|
<time>2026-07-11T08:34:57.000Z</time>
|
|
</trkpt>
|
|
<trkpt lat="55.467072" lon="8.528440">
|
|
<ele>5.886598</ele>
|
|
<time>2026-07-11T08:34:58.000Z</time>
|
|
</trkpt>
|
|
<trkpt lat="55.467073" lon="8.528353">
|
|
<ele>5.950944</ele>
|
|
<time>2026-07-11T08:34:59.000Z</time>
|
|
</trkpt>
|
|
<trkpt lat="55.467075" lon="8.528269">
|
|
<ele>6.013113</ele>
|
|
<time>2026-07-11T08:35:00.000Z</time>
|
|
</trkpt>
|
|
<trkpt lat="55.467077" lon="8.528182">
|
|
<ele>6.077499</ele>
|
|
<time>2026-07-11T08:35:01.000Z</time>
|
|
</trkpt>
|
|
<trkpt lat="55.467081" lon="8.528093">
|
|
<ele>6.143518</ele>
|
|
<time>2026-07-11T08:35:02.000Z</time>
|
|
</trkpt>
|
|
<trkpt lat="55.467085" lon="8.528002">
|
|
<ele>6.211011</ele>
|
|
<time>2026-07-11T08:35:03.000Z</time>
|
|
</trkpt>
|
|
<trkpt lat="55.467089" lon="8.527913">
|
|
<ele>6.277030</ele>
|
|
<time>2026-07-11T08:35:04.000Z</time>
|
|
</trkpt>
|
|
<trkpt lat="55.467091" lon="8.527831">
|
|
<ele>6.337721</ele>
|
|
<time>2026-07-11T08:35:05.000Z</time>
|
|
</trkpt>
|
|
<trkpt lat="55.467091" lon="8.527747">
|
|
<ele>6.399836</ele>
|
|
<time>2026-07-11T08:35:06.000Z</time>
|
|
</trkpt>
|
|
<trkpt lat="55.467091" lon="8.527644">
|
|
<ele>6.476001</ele>
|
|
<time>2026-07-11T08:35:07.000Z</time>
|
|
</trkpt>
|
|
<trkpt lat="55.467091" lon="8.527549">
|
|
<ele>6.546250</ele>
|
|
<time>2026-07-11T08:35:08.000Z</time>
|
|
</trkpt>
|
|
<trkpt lat="55.467092" lon="8.527455">
|
|
<ele>6.615771</ele>
|
|
<time>2026-07-11T08:35:09.000Z</time>
|
|
</trkpt>
|
|
<trkpt lat="55.467094" lon="8.527361">
|
|
<ele>6.685329</ele>
|
|
<time>2026-07-11T08:35:10.000Z</time>
|
|
</trkpt>
|
|
<trkpt lat="55.467096" lon="8.527267">
|
|
<ele>6.754888</ele>
|
|
<time>2026-07-11T08:35:11.000Z</time>
|
|
</trkpt>
|
|
<trkpt lat="55.467098" lon="8.527173">
|
|
<ele>6.814317</ele>
|
|
<time>2026-07-11T08:35:12.000Z</time>
|
|
</trkpt>
|
|
<trkpt lat="55.467098" lon="8.527079">
|
|
<ele>6.809174</ele>
|
|
<time>2026-07-11T08:35:13.000Z</time>
|
|
</trkpt>
|
|
<trkpt lat="55.467098" lon="8.526985">
|
|
<ele>6.804031</ele>
|
|
<time>2026-07-11T08:35:14.000Z</time>
|
|
</trkpt>
|
|
<trkpt lat="55.467098" lon="8.526892">
|
|
<ele>6.798942</ele>
|
|
<time>2026-07-11T08:35:15.000Z</time>
|
|
</trkpt>
|
|
<trkpt lat="55.467095" lon="8.526802">
|
|
<ele>6.794009</ele>
|
|
<time>2026-07-11T08:35:16.000Z</time>
|
|
</trkpt>
|
|
<trkpt lat="55.467089" lon="8.526711">
|
|
<ele>6.788997</ele>
|
|
<time>2026-07-11T08:35:17.000Z</time>
|
|
</trkpt>
|
|
<trkpt lat="55.467085" lon="8.526619">
|
|
<ele>6.783948</ele>
|
|
<time>2026-07-11T08:35:18.000Z</time>
|
|
</trkpt>
|
|
<trkpt lat="55.467083" lon="8.526530">
|
|
<ele>6.779075</ele>
|
|
<time>2026-07-11T08:35:19.000Z</time>
|
|
</trkpt>
|
|
<trkpt lat="55.467081" lon="8.526439">
|
|
<ele>6.774092</ele>
|
|
<time>2026-07-11T08:35:20.000Z</time>
|
|
</trkpt>
|
|
<trkpt lat="55.467079" lon="8.526348">
|
|
<ele>6.769109</ele>
|
|
<time>2026-07-11T08:35:21.000Z</time>
|
|
</trkpt>
|
|
<trkpt lat="55.467079" lon="8.526260">
|
|
<ele>6.764295</ele>
|
|
<time>2026-07-11T08:35:22.000Z</time>
|
|
</trkpt>
|
|
<trkpt lat="55.467079" lon="8.526169">
|
|
<ele>6.759316</ele>
|
|
<time>2026-07-11T08:35:23.000Z</time>
|
|
</trkpt>
|
|
<trkpt lat="55.467077" lon="8.526078">
|
|
<ele>6.754333</ele>
|
|
<time>2026-07-11T08:35:24.000Z</time>
|
|
</trkpt>
|
|
<trkpt lat="55.467075" lon="8.525987">
|
|
<ele>6.749350</ele>
|
|
<time>2026-07-11T08:35:25.000Z</time>
|
|
</trkpt>
|
|
<trkpt lat="55.467074" lon="8.525894">
|
|
<ele>6.744261</ele>
|
|
<time>2026-07-11T08:35:26.000Z</time>
|
|
</trkpt>
|
|
<trkpt lat="55.467072" lon="8.525804">
|
|
<ele>6.739333</ele>
|
|
<time>2026-07-11T08:35:27.000Z</time>
|
|
</trkpt>
|
|
<trkpt lat="55.467070" lon="8.525712">
|
|
<ele>6.734295</ele>
|
|
<time>2026-07-11T08:35:28.000Z</time>
|
|
</trkpt>
|
|
<trkpt lat="55.467064" lon="8.525617">
|
|
<ele>6.729065</ele>
|
|
<time>2026-07-11T08:35:29.000Z</time>
|
|
</trkpt>
|
|
<trkpt lat="55.467057" lon="8.525523">
|
|
<ele>6.723878</ele>
|
|
<time>2026-07-11T08:35:30.000Z</time>
|
|
</trkpt>
|
|
<trkpt lat="55.467051" lon="8.525430">
|
|
<ele>6.718757</ele>
|
|
<time>2026-07-11T08:35:31.000Z</time>
|
|
</trkpt>
|
|
<trkpt lat="55.467047" lon="8.525338">
|
|
<ele>6.713708</ele>
|
|
<time>2026-07-11T08:35:32.000Z</time>
|
|
</trkpt>
|
|
<trkpt lat="55.467042" lon="8.525246">
|
|
<ele>6.708652</ele>
|
|
<time>2026-07-11T08:35:33.000Z</time>
|
|
</trkpt>
|
|
<trkpt lat="55.467036" lon="8.525151">
|
|
<ele>6.703422</ele>
|
|
<time>2026-07-11T08:35:34.000Z</time>
|
|
</trkpt>
|
|
<trkpt lat="55.467033" lon="8.525056">
|
|
<ele>6.698216</ele>
|
|
<time>2026-07-11T08:35:35.000Z</time>
|
|
</trkpt>
|
|
<trkpt lat="55.467030" lon="8.524960">
|
|
<ele>6.692955</ele>
|
|
<time>2026-07-11T08:35:36.000Z</time>
|
|
</trkpt>
|
|
<trkpt lat="55.467022" lon="8.524863">
|
|
<ele>6.687592</ele>
|
|
<time>2026-07-11T08:35:37.000Z</time>
|
|
</trkpt>
|
|
<trkpt lat="55.467016" lon="8.524763">
|
|
<ele>6.682090</ele>
|
|
<time>2026-07-11T08:35:38.000Z</time>
|
|
</trkpt>
|
|
<trkpt lat="55.467013" lon="8.524663">
|
|
<ele>6.676611</ele>
|
|
<time>2026-07-11T08:35:39.000Z</time>
|
|
</trkpt>
|
|
<trkpt lat="55.467009" lon="8.524560">
|
|
<ele>6.670962</ele>
|
|
<time>2026-07-11T08:35:40.000Z</time>
|
|
</trkpt>
|
|
<trkpt lat="55.467005" lon="8.524455">
|
|
<ele>6.665204</ele>
|
|
<time>2026-07-11T08:35:41.000Z</time>
|
|
</trkpt>
|
|
<trkpt lat="55.467000" lon="8.524348">
|
|
<ele>6.659330</ele>
|
|
<time>2026-07-11T08:35:42.000Z</time>
|
|
</trkpt>
|
|
<trkpt lat="55.466994" lon="8.524241">
|
|
<ele>6.653447</ele>
|
|
<time>2026-07-11T08:35:43.000Z</time>
|
|
</trkpt>
|
|
<trkpt lat="55.466990" lon="8.524138">
|
|
<ele>6.647798</ele>
|
|
<time>2026-07-11T08:35:44.000Z</time>
|
|
</trkpt>
|
|
<trkpt lat="55.466988" lon="8.524032">
|
|
<ele>6.641995</ele>
|
|
<time>2026-07-11T08:35:45.000Z</time>
|
|
</trkpt>
|
|
<trkpt lat="55.466988" lon="8.523924">
|
|
<ele>6.704082</ele>
|
|
<time>2026-07-11T08:35:46.000Z</time>
|
|
</trkpt>
|
|
<trkpt lat="55.466989" lon="8.523820">
|
|
<ele>6.771034</ele>
|
|
<time>2026-07-11T08:35:47.000Z</time>
|
|
</trkpt>
|
|
<trkpt lat="55.466991" lon="8.523714">
|
|
<ele>6.839302</ele>
|
|
<time>2026-07-11T08:35:48.000Z</time>
|
|
</trkpt>
|
|
<trkpt lat="55.466993" lon="8.523607">
|
|
<ele>6.908213</ele>
|
|
<time>2026-07-11T08:35:49.000Z</time>
|
|
</trkpt>
|
|
<trkpt lat="55.466994" lon="8.523500">
|
|
<ele>6.977096</ele>
|
|
<time>2026-07-11T08:35:50.000Z</time>
|
|
</trkpt>
|
|
<trkpt lat="55.466990" lon="8.523395">
|
|
<ele>7.044835</ele>
|
|
<time>2026-07-11T08:35:51.000Z</time>
|
|
</trkpt>
|
|
<trkpt lat="55.466986" lon="8.523296">
|
|
<ele>7.108721</ele>
|
|
<time>2026-07-11T08:35:52.000Z</time>
|
|
</trkpt>
|
|
<trkpt lat="55.466982" lon="8.523195">
|
|
<ele>7.173891</ele>
|
|
<time>2026-07-11T08:35:53.000Z</time>
|
|
</trkpt>
|
|
<trkpt lat="55.466980" lon="8.523091">
|
|
<ele>7.240872</ele>
|
|
<time>2026-07-11T08:35:54.000Z</time>
|
|
</trkpt>
|
|
<trkpt lat="55.466980" lon="8.522988">
|
|
<ele>7.307171</ele>
|
|
<time>2026-07-11T08:35:55.000Z</time>
|
|
</trkpt>
|
|
<trkpt lat="55.466980" lon="8.522887">
|
|
<ele>7.372182</ele>
|
|
<time>2026-07-11T08:35:56.000Z</time>
|
|
</trkpt>
|
|
<trkpt lat="55.466980" lon="8.522788">
|
|
<ele>7.435907</ele>
|
|
<time>2026-07-11T08:35:57.000Z</time>
|
|
</trkpt>
|
|
<trkpt lat="55.466983" lon="8.522696">
|
|
<ele>7.495223</ele>
|
|
<time>2026-07-11T08:35:58.000Z</time>
|
|
</trkpt>
|
|
<trkpt lat="55.466996" lon="8.522615">
|
|
<ele>7.549410</ele>
|
|
<time>2026-07-11T08:35:59.000Z</time>
|
|
</trkpt>
|
|
<trkpt lat="55.467019" lon="8.522560">
|
|
<ele>7.593403</ele>
|
|
<time>2026-07-11T08:36:00.000Z</time>
|
|
</trkpt>
|
|
<trkpt lat="55.467045" lon="8.522530">
|
|
<ele>7.628680</ele>
|
|
<time>2026-07-11T08:36:01.000Z</time>
|
|
</trkpt>
|
|
<trkpt lat="55.467067" lon="8.522504">
|
|
<ele>7.658748</ele>
|
|
<time>2026-07-11T08:36:02.000Z</time>
|
|
</trkpt>
|
|
<trkpt lat="55.467081" lon="8.522473">
|
|
<ele>7.684260</ele>
|
|
<time>2026-07-11T08:36:03.000Z</time>
|
|
</trkpt>
|
|
<trkpt lat="55.467089" lon="8.522437">
|
|
<ele>7.709149</ele>
|
|
<time>2026-07-11T08:36:04.000Z</time>
|
|
</trkpt>
|
|
<trkpt lat="55.467091" lon="8.522397">
|
|
<ele>7.734996</ele>
|
|
<time>2026-07-11T08:36:05.000Z</time>
|
|
</trkpt>
|
|
<trkpt lat="55.467091" lon="8.522355">
|
|
<ele>7.762031</ele>
|
|
<time>2026-07-11T08:36:06.000Z</time>
|
|
</trkpt>
|
|
<trkpt lat="55.467092" lon="8.522308">
|
|
<ele>7.792305</ele>
|
|
<time>2026-07-11T08:36:07.000Z</time>
|
|
</trkpt>
|
|
<trkpt lat="55.467094" lon="8.522256">
|
|
<ele>7.825853</ele>
|
|
<time>2026-07-11T08:36:08.000Z</time>
|
|
</trkpt>
|
|
<trkpt lat="55.467092" lon="8.522206">
|
|
<ele>7.858117</ele>
|
|
<time>2026-07-11T08:36:09.000Z</time>
|
|
</trkpt>
|
|
<trkpt lat="55.467082" lon="8.522160">
|
|
<ele>7.889829</ele>
|
|
<time>2026-07-11T08:36:10.000Z</time>
|
|
</trkpt>
|
|
<trkpt lat="55.467060" lon="8.522114">
|
|
<ele>7.928568</ele>
|
|
<time>2026-07-11T08:36:11.000Z</time>
|
|
</trkpt>
|
|
<trkpt lat="55.467034" lon="8.522085">
|
|
<ele>7.963497</ele>
|
|
<time>2026-07-11T08:36:12.000Z</time>
|
|
</trkpt>
|
|
<trkpt lat="55.467005" lon="8.522057">
|
|
<ele>8.001035</ele>
|
|
<time>2026-07-11T08:36:13.000Z</time>
|
|
</trkpt>
|
|
<trkpt lat="55.466976" lon="8.522021">
|
|
<ele>8.041300</ele>
|
|
<time>2026-07-11T08:36:14.000Z</time>
|
|
</trkpt>
|
|
<trkpt lat="55.466953" lon="8.521969">
|
|
<ele>8.083754</ele>
|
|
<time>2026-07-11T08:36:15.000Z</time>
|
|
</trkpt>
|
|
<trkpt lat="55.466935" lon="8.521908">
|
|
<ele>8.128020</ele>
|
|
<time>2026-07-11T08:36:16.000Z</time>
|
|
</trkpt>
|
|
<trkpt lat="55.466922" lon="8.521843">
|
|
<ele>8.172386</ele>
|
|
<time>2026-07-11T08:36:17.000Z</time>
|
|
</trkpt>
|
|
<trkpt lat="55.466909" lon="8.521775">
|
|
<ele>8.218579</ele>
|
|
<time>2026-07-11T08:36:18.000Z</time>
|
|
</trkpt>
|
|
<trkpt lat="55.466897" lon="8.521706">
|
|
<ele>8.265036</ele>
|
|
<time>2026-07-11T08:36:19.000Z</time>
|
|
</trkpt>
|
|
<trkpt lat="55.466890" lon="8.521632">
|
|
<ele>8.313327</ele>
|
|
<time>2026-07-11T08:36:20.000Z</time>
|
|
</trkpt>
|
|
<trkpt lat="55.466882" lon="8.521548">
|
|
<ele>8.368154</ele>
|
|
<time>2026-07-11T08:36:21.000Z</time>
|
|
</trkpt>
|
|
<trkpt lat="55.466876" lon="8.521469">
|
|
<ele>8.419459</ele>
|
|
<time>2026-07-11T08:36:22.000Z</time>
|
|
</trkpt>
|
|
<trkpt lat="55.466873" lon="8.521375">
|
|
<ele>8.480061</ele>
|
|
<time>2026-07-11T08:36:23.000Z</time>
|
|
</trkpt>
|
|
<trkpt lat="55.466870" lon="8.521290">
|
|
<ele>8.534879</ele>
|
|
<time>2026-07-11T08:36:24.000Z</time>
|
|
</trkpt>
|
|
<trkpt lat="55.466864" lon="8.521207">
|
|
<ele>8.588737</ele>
|
|
<time>2026-07-11T08:36:25.000Z</time>
|
|
</trkpt>
|
|
<trkpt lat="55.466858" lon="8.521124">
|
|
<ele>8.642596</ele>
|
|
<time>2026-07-11T08:36:26.000Z</time>
|
|
</trkpt>
|
|
<trkpt lat="55.466852" lon="8.521040">
|
|
<ele>8.688736</ele>
|
|
<time>2026-07-11T08:36:27.000Z</time>
|
|
</trkpt>
|
|
<trkpt lat="55.466849" lon="8.520956">
|
|
<ele>8.709041</ele>
|
|
<time>2026-07-11T08:36:28.000Z</time>
|
|
</trkpt>
|
|
<trkpt lat="55.466846" lon="8.520873">
|
|
<ele>8.729105</ele>
|
|
<time>2026-07-11T08:36:29.000Z</time>
|
|
</trkpt>
|
|
<trkpt lat="55.466843" lon="8.520789">
|
|
<ele>8.749409</ele>
|
|
<time>2026-07-11T08:36:30.000Z</time>
|
|
</trkpt>
|
|
<trkpt lat="55.466837" lon="8.520703">
|
|
<ele>8.770313</ele>
|
|
<time>2026-07-11T08:36:31.000Z</time>
|
|
</trkpt>
|
|
<trkpt lat="55.466832" lon="8.520619">
|
|
<ele>8.790689</ele>
|
|
<time>2026-07-11T08:36:32.000Z</time>
|
|
</trkpt>
|
|
<trkpt lat="55.466826" lon="8.520532">
|
|
<ele>8.811832</ele>
|
|
<time>2026-07-11T08:36:33.000Z</time>
|
|
</trkpt>
|
|
<trkpt lat="55.466822" lon="8.520444">
|
|
<ele>8.833130</ele>
|
|
<time>2026-07-11T08:36:34.000Z</time>
|
|
</trkpt>
|
|
<trkpt lat="55.466818" lon="8.520358">
|
|
<ele>8.853947</ele>
|
|
<time>2026-07-11T08:36:35.000Z</time>
|
|
</trkpt>
|
|
<trkpt lat="55.466813" lon="8.520276">
|
|
<ele>8.873843</ele>
|
|
<time>2026-07-11T08:36:36.000Z</time>
|
|
</trkpt>
|
|
<trkpt lat="55.466805" lon="8.520197">
|
|
<ele>8.893203</ele>
|
|
<time>2026-07-11T08:36:37.000Z</time>
|
|
</trkpt>
|
|
<trkpt lat="55.466799" lon="8.520116">
|
|
<ele>8.912910</ele>
|
|
<time>2026-07-11T08:36:38.000Z</time>
|
|
</trkpt>
|
|
<trkpt lat="55.466793" lon="8.520034">
|
|
<ele>8.932857</ele>
|
|
<time>2026-07-11T08:36:39.000Z</time>
|
|
</trkpt>
|
|
<trkpt lat="55.466788" lon="8.519953">
|
|
<ele>8.952513</ele>
|
|
<time>2026-07-11T08:36:40.000Z</time>
|
|
</trkpt>
|
|
<trkpt lat="55.466784" lon="8.519872">
|
|
<ele>8.972128</ele>
|
|
<time>2026-07-11T08:36:41.000Z</time>
|
|
</trkpt>
|
|
<trkpt lat="55.466778" lon="8.519792">
|
|
<ele>8.991596</ele>
|
|
<time>2026-07-11T08:36:42.000Z</time>
|
|
</trkpt>
|
|
<trkpt lat="55.466771" lon="8.519707">
|
|
<ele>9.012317</ele>
|
|
<time>2026-07-11T08:36:43.000Z</time>
|
|
</trkpt>
|
|
<trkpt lat="55.466763" lon="8.519625">
|
|
<ele>9.032390</ele>
|
|
<time>2026-07-11T08:36:44.000Z</time>
|
|
</trkpt>
|
|
<trkpt lat="55.466756" lon="8.519542">
|
|
<ele>9.052634</ele>
|
|
<time>2026-07-11T08:36:45.000Z</time>
|
|
</trkpt>
|
|
<trkpt lat="55.466750" lon="8.519450">
|
|
<ele>9.074975</ele>
|
|
<time>2026-07-11T08:36:46.000Z</time>
|
|
</trkpt>
|
|
<trkpt lat="55.466746" lon="8.519369">
|
|
<ele>9.094590</ele>
|
|
<time>2026-07-11T08:36:47.000Z</time>
|
|
</trkpt>
|
|
<trkpt lat="55.466743" lon="8.519279">
|
|
<ele>9.116340</ele>
|
|
<time>2026-07-11T08:36:48.000Z</time>
|
|
</trkpt>
|
|
<trkpt lat="55.466742" lon="8.519163">
|
|
<ele>9.144327</ele>
|
|
<time>2026-07-11T08:36:49.000Z</time>
|
|
</trkpt>
|
|
<trkpt lat="55.466740" lon="8.519046">
|
|
<ele>9.172566</ele>
|
|
<time>2026-07-11T08:36:50.000Z</time>
|
|
</trkpt>
|
|
<trkpt lat="55.466725" lon="8.518968">
|
|
<ele>9.192437</ele>
|
|
<time>2026-07-11T08:36:51.000Z</time>
|
|
</trkpt>
|
|
<trkpt lat="55.466713" lon="8.518896">
|
|
<ele>9.210541</ele>
|
|
<time>2026-07-11T08:36:52.000Z</time>
|
|
</trkpt>
|
|
<trkpt lat="55.466713" lon="8.518790">
|
|
<ele>9.236114</ele>
|
|
<time>2026-07-11T08:36:53.000Z</time>
|
|
</trkpt>
|
|
<trkpt lat="55.466706" lon="8.518693">
|
|
<ele>9.259703</ele>
|
|
<time>2026-07-11T08:36:54.000Z</time>
|
|
</trkpt>
|
|
<trkpt lat="55.466698" lon="8.518600">
|
|
<ele>9.282396</ele>
|
|
<time>2026-07-11T08:36:55.000Z</time>
|
|
</trkpt>
|
|
<trkpt lat="55.466694" lon="8.518506">
|
|
<ele>9.305137</ele>
|
|
<time>2026-07-11T08:36:56.000Z</time>
|
|
</trkpt>
|
|
<trkpt lat="55.466694" lon="8.518415">
|
|
<ele>9.327091</ele>
|
|
<time>2026-07-11T08:36:57.000Z</time>
|
|
</trkpt>
|
|
<trkpt lat="55.466694" lon="8.518328">
|
|
<ele>9.348079</ele>
|
|
<time>2026-07-11T08:36:58.000Z</time>
|
|
</trkpt>
|
|
<trkpt lat="55.466692" lon="8.518236">
|
|
<ele>9.370290</ele>
|
|
<time>2026-07-11T08:36:59.000Z</time>
|
|
</trkpt>
|
|
<trkpt lat="55.466688" lon="8.518142">
|
|
<ele>9.393031</ele>
|
|
<time>2026-07-11T08:37:00.000Z</time>
|
|
</trkpt>
|
|
<trkpt lat="55.466683" lon="8.518049">
|
|
<ele>9.415568</ele>
|
|
<time>2026-07-11T08:37:01.000Z</time>
|
|
</trkpt>
|
|
<trkpt lat="55.466677" lon="8.517957">
|
|
<ele>9.437909</ele>
|
|
<time>2026-07-11T08:37:02.000Z</time>
|
|
</trkpt>
|
|
<trkpt lat="55.466673" lon="8.517866">
|
|
<ele>9.428314</ele>
|
|
<time>2026-07-11T08:37:03.000Z</time>
|
|
</trkpt>
|
|
<trkpt lat="55.466669" lon="8.517777">
|
|
<ele>9.386581</ele>
|
|
<time>2026-07-11T08:37:04.000Z</time>
|
|
</trkpt>
|
|
<trkpt lat="55.466665" lon="8.517688">
|
|
<ele>9.344848</ele>
|
|
<time>2026-07-11T08:37:05.000Z</time>
|
|
</trkpt>
|
|
<trkpt lat="55.466662" lon="8.517599">
|
|
<ele>9.303172</ele>
|
|
<time>2026-07-11T08:37:06.000Z</time>
|
|
</trkpt>
|
|
<trkpt lat="55.466658" lon="8.517508">
|
|
<ele>9.260507</ele>
|
|
<time>2026-07-11T08:37:07.000Z</time>
|
|
</trkpt>
|
|
<trkpt lat="55.466654" lon="8.517419">
|
|
<ele>9.218775</ele>
|
|
<time>2026-07-11T08:37:08.000Z</time>
|
|
</trkpt>
|
|
<trkpt lat="55.466650" lon="8.517330">
|
|
<ele>9.177042</ele>
|
|
<time>2026-07-11T08:37:09.000Z</time>
|
|
</trkpt>
|
|
<trkpt lat="55.466646" lon="8.517237">
|
|
<ele>9.133444</ele>
|
|
<time>2026-07-11T08:37:10.000Z</time>
|
|
</trkpt>
|
|
<trkpt lat="55.466641" lon="8.517143">
|
|
<ele>9.089312</ele>
|
|
<time>2026-07-11T08:37:11.000Z</time>
|
|
</trkpt>
|
|
<trkpt lat="55.466635" lon="8.517048">
|
|
<ele>9.044630</ele>
|
|
<time>2026-07-11T08:37:12.000Z</time>
|
|
</trkpt>
|
|
<trkpt lat="55.466631" lon="8.516955">
|
|
<ele>9.001033</ele>
|
|
<time>2026-07-11T08:37:13.000Z</time>
|
|
</trkpt>
|
|
<trkpt lat="55.466627" lon="8.516863">
|
|
<ele>8.957902</ele>
|
|
<time>2026-07-11T08:37:14.000Z</time>
|
|
</trkpt>
|
|
<trkpt lat="55.466623" lon="8.516768">
|
|
<ele>8.913372</ele>
|
|
<time>2026-07-11T08:37:15.000Z</time>
|
|
</trkpt>
|
|
<trkpt lat="55.466620" lon="8.516672">
|
|
<ele>8.868429</ele>
|
|
<time>2026-07-11T08:37:16.000Z</time>
|
|
</trkpt>
|
|
<trkpt lat="55.466616" lon="8.516577">
|
|
<ele>8.823900</ele>
|
|
<time>2026-07-11T08:37:17.000Z</time>
|
|
</trkpt>
|
|
<trkpt lat="55.466612" lon="8.516482">
|
|
<ele>8.779371</ele>
|
|
<time>2026-07-11T08:37:18.000Z</time>
|
|
</trkpt>
|
|
<trkpt lat="55.466607" lon="8.516383">
|
|
<ele>8.732910</ele>
|
|
<time>2026-07-11T08:37:19.000Z</time>
|
|
</trkpt>
|
|
<trkpt lat="55.466601" lon="8.516284">
|
|
<ele>8.686370</ele>
|
|
<time>2026-07-11T08:37:20.000Z</time>
|
|
</trkpt>
|
|
<trkpt lat="55.466597" lon="8.516184">
|
|
<ele>8.639509</ele>
|
|
<time>2026-07-11T08:37:21.000Z</time>
|
|
</trkpt>
|
|
<trkpt lat="55.466591" lon="8.516084">
|
|
<ele>8.592504</ele>
|
|
<time>2026-07-11T08:37:22.000Z</time>
|
|
</trkpt>
|
|
<trkpt lat="55.466585" lon="8.515982">
|
|
<ele>8.544568</ele>
|
|
<time>2026-07-11T08:37:23.000Z</time>
|
|
</trkpt>
|
|
<trkpt lat="55.466580" lon="8.515881">
|
|
<ele>8.497177</ele>
|
|
<time>2026-07-11T08:37:24.000Z</time>
|
|
</trkpt>
|
|
<trkpt lat="55.466574" lon="8.515779">
|
|
<ele>8.449242</ele>
|
|
<time>2026-07-11T08:37:25.000Z</time>
|
|
</trkpt>
|
|
<trkpt lat="55.466570" lon="8.515677">
|
|
<ele>8.401448</ele>
|
|
<time>2026-07-11T08:37:26.000Z</time>
|
|
</trkpt>
|
|
<trkpt lat="55.466566" lon="8.515575">
|
|
<ele>8.353655</ele>
|
|
<time>2026-07-11T08:37:27.000Z</time>
|
|
</trkpt>
|
|
<trkpt lat="55.466561" lon="8.515471">
|
|
<ele>8.304866</ele>
|
|
<time>2026-07-11T08:37:28.000Z</time>
|
|
</trkpt>
|
|
<trkpt lat="55.466555" lon="8.515366">
|
|
<ele>8.255536</ele>
|
|
<time>2026-07-11T08:37:29.000Z</time>
|
|
</trkpt>
|
|
<trkpt lat="55.466549" lon="8.515262">
|
|
<ele>8.206671</ele>
|
|
<time>2026-07-11T08:37:30.000Z</time>
|
|
</trkpt>
|
|
<trkpt lat="55.466543" lon="8.515158">
|
|
<ele>8.157805</ele>
|
|
<time>2026-07-11T08:37:31.000Z</time>
|
|
</trkpt>
|
|
<trkpt lat="55.466538" lon="8.515054">
|
|
<ele>8.109017</ele>
|
|
<time>2026-07-11T08:37:32.000Z</time>
|
|
</trkpt>
|
|
<trkpt lat="55.466532" lon="8.514950">
|
|
<ele>8.060151</ele>
|
|
<time>2026-07-11T08:37:33.000Z</time>
|
|
</trkpt>
|
|
<trkpt lat="55.466526" lon="8.514846">
|
|
<ele>8.011286</ele>
|
|
<time>2026-07-11T08:37:34.000Z</time>
|
|
</trkpt>
|
|
<trkpt lat="55.466521" lon="8.514741">
|
|
<ele>7.963102</ele>
|
|
<time>2026-07-11T08:37:35.000Z</time>
|
|
</trkpt>
|
|
<trkpt lat="55.466515" lon="8.514636">
|
|
<ele>7.926950</ele>
|
|
<time>2026-07-11T08:37:36.000Z</time>
|
|
</trkpt>
|
|
<trkpt lat="55.466509" lon="8.514530">
|
|
<ele>7.890457</ele>
|
|
<time>2026-07-11T08:37:37.000Z</time>
|
|
</trkpt>
|
|
<trkpt lat="55.466505" lon="8.514422">
|
|
<ele>7.853381</ele>
|
|
<time>2026-07-11T08:37:38.000Z</time>
|
|
</trkpt>
|
|
<trkpt lat="55.466501" lon="8.514315">
|
|
<ele>7.816646</ele>
|
|
<time>2026-07-11T08:37:39.000Z</time>
|
|
</trkpt>
|
|
<trkpt lat="55.466498" lon="8.514210">
|
|
<ele>7.780631</ele>
|
|
<time>2026-07-11T08:37:40.000Z</time>
|
|
</trkpt>
|
|
<trkpt lat="55.466494" lon="8.514106">
|
|
<ele>7.744921</ele>
|
|
<time>2026-07-11T08:37:41.000Z</time>
|
|
</trkpt>
|
|
<trkpt lat="55.466488" lon="8.514005">
|
|
<ele>7.710132</ele>
|
|
<time>2026-07-11T08:37:42.000Z</time>
|
|
</trkpt>
|
|
<trkpt lat="55.466481" lon="8.513906">
|
|
<ele>7.675955</ele>
|
|
<time>2026-07-11T08:37:43.000Z</time>
|
|
</trkpt>
|
|
<trkpt lat="55.466475" lon="8.513810">
|
|
<ele>7.642869</ele>
|
|
<time>2026-07-11T08:37:44.000Z</time>
|
|
</trkpt>
|
|
<trkpt lat="55.466471" lon="8.513718">
|
|
<ele>7.611260</ele>
|
|
<time>2026-07-11T08:37:45.000Z</time>
|
|
</trkpt>
|
|
<trkpt lat="55.466467" lon="8.513628">
|
|
<ele>7.580334</ele>
|
|
<time>2026-07-11T08:37:46.000Z</time>
|
|
</trkpt>
|
|
<trkpt lat="55.466463" lon="8.513543">
|
|
<ele>7.551115</ele>
|
|
<time>2026-07-11T08:37:47.000Z</time>
|
|
</trkpt>
|
|
<trkpt lat="55.466459" lon="8.513459">
|
|
<ele>7.522238</ele>
|
|
<time>2026-07-11T08:37:48.000Z</time>
|
|
</trkpt>
|
|
<trkpt lat="55.466457" lon="8.513379">
|
|
<ele>7.494806</ele>
|
|
<time>2026-07-11T08:37:49.000Z</time>
|
|
</trkpt>
|
|
<trkpt lat="55.466459" lon="8.513304">
|
|
<ele>7.469085</ele>
|
|
<time>2026-07-11T08:37:50.000Z</time>
|
|
</trkpt>
|
|
<trkpt lat="55.466465" lon="8.513232">
|
|
<ele>7.444154</ele>
|
|
<time>2026-07-11T08:37:51.000Z</time>
|
|
</trkpt>
|
|
<trkpt lat="55.466475" lon="8.513167">
|
|
<ele>7.421082</ele>
|
|
<time>2026-07-11T08:37:52.000Z</time>
|
|
</trkpt>
|
|
<trkpt lat="55.466496" lon="8.513110">
|
|
<ele>7.397794</ele>
|
|
<time>2026-07-11T08:37:53.000Z</time>
|
|
</trkpt>
|
|
<trkpt lat="55.466531" lon="8.513066">
|
|
<ele>7.371822</ele>
|
|
<time>2026-07-11T08:37:54.000Z</time>
|
|
</trkpt>
|
|
<trkpt lat="55.466569" lon="8.513032">
|
|
<ele>7.346074</ele>
|
|
<time>2026-07-11T08:37:55.000Z</time>
|
|
</trkpt>
|
|
<trkpt lat="55.466607" lon="8.512993">
|
|
<ele>7.319506</ele>
|
|
<time>2026-07-11T08:37:56.000Z</time>
|
|
</trkpt>
|
|
<trkpt lat="55.466647" lon="8.512946">
|
|
<ele>7.290463</ele>
|
|
<time>2026-07-11T08:37:57.000Z</time>
|
|
</trkpt>
|
|
<trkpt lat="55.466688" lon="8.512894">
|
|
<ele>7.259948</ele>
|
|
<time>2026-07-11T08:37:58.000Z</time>
|
|
</trkpt>
|
|
<trkpt lat="55.466726" lon="8.512837">
|
|
<ele>7.229805</ele>
|
|
<time>2026-07-11T08:37:59.000Z</time>
|
|
</trkpt>
|
|
<trkpt lat="55.466762" lon="8.512774">
|
|
<ele>7.199161</ele>
|
|
<time>2026-07-11T08:38:00.000Z</time>
|
|
</trkpt>
|
|
<trkpt lat="55.466793" lon="8.512705">
|
|
<ele>7.169000</ele>
|
|
<time>2026-07-11T08:38:01.000Z</time>
|
|
</trkpt>
|
|
<trkpt lat="55.466816" lon="8.512623">
|
|
<ele>7.137659</ele>
|
|
<time>2026-07-11T08:38:02.000Z</time>
|
|
</trkpt>
|
|
<trkpt lat="55.466834" lon="8.512533">
|
|
<ele>7.104966</ele>
|
|
<time>2026-07-11T08:38:03.000Z</time>
|
|
</trkpt>
|
|
<trkpt lat="55.466848" lon="8.512437">
|
|
<ele>7.071009</ele>
|
|
<time>2026-07-11T08:38:04.000Z</time>
|
|
</trkpt>
|
|
<trkpt lat="55.466859" lon="8.512341">
|
|
<ele>7.037457</ele>
|
|
<time>2026-07-11T08:38:05.000Z</time>
|
|
</trkpt>
|
|
<trkpt lat="55.466872" lon="8.512247">
|
|
<ele>7.004311</ele>
|
|
<time>2026-07-11T08:38:06.000Z</time>
|
|
</trkpt>
|
|
<trkpt lat="55.466886" lon="8.512150">
|
|
<ele>6.970022</ele>
|
|
<time>2026-07-11T08:38:07.000Z</time>
|
|
</trkpt>
|
|
<trkpt lat="55.466899" lon="8.512053">
|
|
<ele>6.935877</ele>
|
|
<time>2026-07-11T08:38:08.000Z</time>
|
|
</trkpt>
|
|
<trkpt lat="55.466911" lon="8.511954">
|
|
<ele>6.901197</ele>
|
|
<time>2026-07-11T08:38:09.000Z</time>
|
|
</trkpt>
|
|
<trkpt lat="55.466920" lon="8.511854">
|
|
<ele>6.899875</ele>
|
|
<time>2026-07-11T08:38:10.000Z</time>
|
|
</trkpt>
|
|
<trkpt lat="55.466930" lon="8.511756">
|
|
<ele>6.956021</ele>
|
|
<time>2026-07-11T08:38:11.000Z</time>
|
|
</trkpt>
|
|
<trkpt lat="55.466939" lon="8.511662">
|
|
<ele>7.009774</ele>
|
|
<time>2026-07-11T08:38:12.000Z</time>
|
|
</trkpt>
|
|
<trkpt lat="55.466950" lon="8.511568">
|
|
<ele>7.063894</ele>
|
|
<time>2026-07-11T08:38:13.000Z</time>
|
|
</trkpt>
|
|
<trkpt lat="55.466964" lon="8.511475">
|
|
<ele>7.118149</ele>
|
|
<time>2026-07-11T08:38:14.000Z</time>
|
|
</trkpt>
|
|
<trkpt lat="55.466977" lon="8.511384">
|
|
<ele>7.171064</ele>
|
|
<time>2026-07-11T08:38:15.000Z</time>
|
|
</trkpt>
|
|
<trkpt lat="55.466988" lon="8.511300">
|
|
<ele>7.219675</ele>
|
|
<time>2026-07-11T08:38:16.000Z</time>
|
|
</trkpt>
|
|
<trkpt lat="55.467001" lon="8.511217">
|
|
<ele>7.268228</ele>
|
|
<time>2026-07-11T08:38:17.000Z</time>
|
|
</trkpt>
|
|
<trkpt lat="55.467017" lon="8.511132">
|
|
<ele>7.318729</ele>
|
|
<time>2026-07-11T08:38:18.000Z</time>
|
|
</trkpt>
|
|
<trkpt lat="55.467029" lon="8.511040">
|
|
<ele>7.371959</ele>
|
|
<time>2026-07-11T08:38:19.000Z</time>
|
|
</trkpt>
|
|
<trkpt lat="55.467037" lon="8.510948">
|
|
<ele>7.424440</ele>
|
|
<time>2026-07-11T08:38:20.000Z</time>
|
|
</trkpt>
|
|
<trkpt lat="55.467044" lon="8.510868">
|
|
<ele>7.470083</ele>
|
|
<time>2026-07-11T08:38:21.000Z</time>
|
|
</trkpt>
|
|
<trkpt lat="55.467054" lon="8.510784">
|
|
<ele>7.518479</ele>
|
|
<time>2026-07-11T08:38:22.000Z</time>
|
|
</trkpt>
|
|
<trkpt lat="55.467067" lon="8.510698">
|
|
<ele>7.568665</ele>
|
|
<time>2026-07-11T08:38:23.000Z</time>
|
|
</trkpt>
|
|
<trkpt lat="55.467080" lon="8.510615">
|
|
<ele>7.617218</ele>
|
|
<time>2026-07-11T08:38:24.000Z</time>
|
|
</trkpt>
|
|
<trkpt lat="55.467093" lon="8.510531">
|
|
<ele>7.666315</ele>
|
|
<time>2026-07-11T08:38:25.000Z</time>
|
|
</trkpt>
|
|
<trkpt lat="55.467106" lon="8.510446">
|
|
<ele>7.715956</ele>
|
|
<time>2026-07-11T08:38:26.000Z</time>
|
|
</trkpt>
|
|
<trkpt lat="55.467120" lon="8.510356">
|
|
<ele>7.768579</ele>
|
|
<time>2026-07-11T08:38:27.000Z</time>
|
|
</trkpt>
|
|
<trkpt lat="55.467134" lon="8.510270">
|
|
<ele>7.819030</ele>
|
|
<time>2026-07-11T08:38:28.000Z</time>
|
|
</trkpt>
|
|
<trkpt lat="55.467145" lon="8.510188">
|
|
<ele>7.866542</ele>
|
|
<time>2026-07-11T08:38:29.000Z</time>
|
|
</trkpt>
|
|
<trkpt lat="55.467158" lon="8.510104">
|
|
<ele>7.915639</ele>
|
|
<time>2026-07-11T08:38:30.000Z</time>
|
|
</trkpt>
|
|
<trkpt lat="55.467167" lon="8.510017">
|
|
<ele>7.965504</ele>
|
|
<time>2026-07-11T08:38:31.000Z</time>
|
|
</trkpt>
|
|
<trkpt lat="55.467167" lon="8.509933">
|
|
<ele>8.012868</ele>
|
|
<time>2026-07-11T08:38:32.000Z</time>
|
|
</trkpt>
|
|
<trkpt lat="55.467160" lon="8.509853">
|
|
<ele>8.058510</ele>
|
|
<time>2026-07-11T08:38:33.000Z</time>
|
|
</trkpt>
|
|
<trkpt lat="55.467142" lon="8.509784">
|
|
<ele>8.101338</ele>
|
|
<time>2026-07-11T08:38:34.000Z</time>
|
|
</trkpt>
|
|
<trkpt lat="55.467118" lon="8.509729">
|
|
<ele>8.140473</ele>
|
|
<time>2026-07-11T08:38:35.000Z</time>
|
|
</trkpt>
|
|
<trkpt lat="55.467086" lon="8.509693">
|
|
<ele>8.178224</ele>
|
|
<time>2026-07-11T08:38:36.000Z</time>
|
|
</trkpt>
|
|
<trkpt lat="55.467044" lon="8.509674">
|
|
<ele>8.221351</ele>
|
|
<time>2026-07-11T08:38:37.000Z</time>
|
|
</trkpt>
|
|
<trkpt lat="55.466996" lon="8.509661">
|
|
<ele>8.269654</ele>
|
|
<time>2026-07-11T08:38:38.000Z</time>
|
|
</trkpt>
|
|
<trkpt lat="55.466948" lon="8.509647">
|
|
<ele>8.318046</ele>
|
|
<time>2026-07-11T08:38:39.000Z</time>
|
|
</trkpt>
|
|
<trkpt lat="55.466900" lon="8.509631">
|
|
<ele>8.366635</ele>
|
|
<time>2026-07-11T08:38:40.000Z</time>
|
|
</trkpt>
|
|
<trkpt lat="55.466854" lon="8.509611">
|
|
<ele>8.413758</ele>
|
|
<time>2026-07-11T08:38:41.000Z</time>
|
|
</trkpt>
|
|
<trkpt lat="55.466810" lon="8.509587">
|
|
<ele>8.459568</ele>
|
|
<time>2026-07-11T08:38:42.000Z</time>
|
|
</trkpt>
|
|
<trkpt lat="55.466769" lon="8.509553">
|
|
<ele>8.504630</ele>
|
|
<time>2026-07-11T08:38:43.000Z</time>
|
|
</trkpt>
|
|
<trkpt lat="55.466739" lon="8.509506">
|
|
<ele>8.544539</ele>
|
|
<time>2026-07-11T08:38:44.000Z</time>
|
|
</trkpt>
|
|
<trkpt lat="55.466725" lon="8.509448">
|
|
<ele>8.580084</ele>
|
|
<time>2026-07-11T08:38:45.000Z</time>
|
|
</trkpt>
|
|
<trkpt lat="55.466724" lon="8.509396">
|
|
<ele>8.609421</ele>
|
|
<time>2026-07-11T08:38:46.000Z</time>
|
|
</trkpt>
|
|
<trkpt lat="55.466731" lon="8.509356">
|
|
<ele>8.633026</ele>
|
|
<time>2026-07-11T08:38:47.000Z</time>
|
|
</trkpt>
|
|
<trkpt lat="55.466739" lon="8.509321">
|
|
<ele>8.654305</ele>
|
|
<time>2026-07-11T08:38:48.000Z</time>
|
|
</trkpt>
|
|
<trkpt lat="55.466747" lon="8.509276">
|
|
<ele>8.680019</ele>
|
|
<time>2026-07-11T08:38:49.000Z</time>
|
|
</trkpt>
|
|
<trkpt lat="55.466754" lon="8.509232">
|
|
<ele>8.704011</ele>
|
|
<time>2026-07-11T08:38:50.000Z</time>
|
|
</trkpt>
|
|
<trkpt lat="55.466761" lon="8.509183">
|
|
<ele>8.730540</ele>
|
|
<time>2026-07-11T08:38:51.000Z</time>
|
|
</trkpt>
|
|
<trkpt lat="55.466770" lon="8.509122">
|
|
<ele>8.763632</ele>
|
|
<time>2026-07-11T08:38:52.000Z</time>
|
|
</trkpt>
|
|
<trkpt lat="55.466779" lon="8.509070">
|
|
<ele>8.792176</ele>
|
|
<time>2026-07-11T08:38:53.000Z</time>
|
|
</trkpt>
|
|
<trkpt lat="55.466792" lon="8.509020">
|
|
<ele>8.821055</ele>
|
|
<time>2026-07-11T08:38:54.000Z</time>
|
|
</trkpt>
|
|
<trkpt lat="55.466807" lon="8.508973">
|
|
<ele>8.849371</ele>
|
|
<time>2026-07-11T08:38:55.000Z</time>
|
|
</trkpt>
|
|
<trkpt lat="55.466821" lon="8.508934">
|
|
<ele>8.873606</ele>
|
|
<time>2026-07-11T08:38:56.000Z</time>
|
|
</trkpt>
|
|
<trkpt lat="55.466832" lon="8.508907">
|
|
<ele>8.891062</ele>
|
|
<time>2026-07-11T08:38:57.000Z</time>
|
|
</trkpt>
|
|
<trkpt lat="55.466850" lon="8.508880">
|
|
<ele>8.912943</ele>
|
|
<time>2026-07-11T08:38:58.000Z</time>
|
|
</trkpt>
|
|
<trkpt lat="55.466874" lon="8.508848">
|
|
<ele>8.940805</ele>
|
|
<time>2026-07-11T08:38:59.000Z</time>
|
|
</trkpt>
|
|
<trkpt lat="55.466881" lon="8.508827">
|
|
<ele>8.953594</ele>
|
|
<time>2026-07-11T08:39:00.000Z</time>
|
|
</trkpt>
|
|
<trkpt lat="55.466877" lon="8.508811">
|
|
<ele>8.962775</ele>
|
|
<time>2026-07-11T08:39:01.000Z</time>
|
|
</trkpt>
|
|
<trkpt lat="55.466872" lon="8.508808">
|
|
<ele>8.967666</ele>
|
|
<time>2026-07-11T08:39:02.000Z</time>
|
|
</trkpt>
|
|
<trkpt lat="55.466866" lon="8.508815">
|
|
<ele>8.974328</ele>
|
|
<time>2026-07-11T08:39:03.000Z</time>
|
|
</trkpt>
|
|
<trkpt lat="55.466858" lon="8.508825">
|
|
<ele>8.983408</ele>
|
|
<time>2026-07-11T08:39:04.000Z</time>
|
|
</trkpt>
|
|
<trkpt lat="55.466847" lon="8.508865">
|
|
<ele>9.006749</ele>
|
|
<time>2026-07-11T08:39:53.000Z</time>
|
|
</trkpt>
|
|
<trkpt lat="55.466840" lon="8.508890">
|
|
<ele>9.021387</ele>
|
|
<time>2026-07-11T08:39:54.000Z</time>
|
|
</trkpt>
|
|
<trkpt lat="55.466829" lon="8.508919">
|
|
<ele>9.039706</ele>
|
|
<time>2026-07-11T08:39:55.000Z</time>
|
|
</trkpt>
|
|
<trkpt lat="55.466815" lon="8.508953">
|
|
<ele>9.061768</ele>
|
|
<time>2026-07-11T08:39:56.000Z</time>
|
|
</trkpt>
|
|
<trkpt lat="55.466803" lon="8.508991">
|
|
<ele>9.084604</ele>
|
|
<time>2026-07-11T08:39:57.000Z</time>
|
|
</trkpt>
|
|
<trkpt lat="55.466792" lon="8.509032">
|
|
<ele>9.108418</ele>
|
|
<time>2026-07-11T08:39:58.000Z</time>
|
|
</trkpt>
|
|
<trkpt lat="55.466782" lon="8.509069">
|
|
<ele>9.129937</ele>
|
|
<time>2026-07-11T08:39:59.000Z</time>
|
|
</trkpt>
|
|
<trkpt lat="55.466774" lon="8.509106">
|
|
<ele>9.150727</ele>
|
|
<time>2026-07-11T08:40:00.000Z</time>
|
|
</trkpt>
|
|
<trkpt lat="55.466762" lon="8.509143">
|
|
<ele>9.173106</ele>
|
|
<time>2026-07-11T08:40:01.000Z</time>
|
|
</trkpt>
|
|
<trkpt lat="55.466754" lon="8.509170">
|
|
<ele>9.189101</ele>
|
|
<time>2026-07-11T08:40:02.000Z</time>
|
|
</trkpt>
|
|
<trkpt lat="55.466750" lon="8.509191">
|
|
<ele>9.200731</ele>
|
|
<time>2026-07-11T08:40:03.000Z</time>
|
|
</trkpt>
|
|
<trkpt lat="55.466747" lon="8.509199">
|
|
<ele>9.205767</ele>
|
|
<time>2026-07-11T08:40:04.000Z</time>
|
|
</trkpt>
|
|
<trkpt lat="55.466747" lon="8.509201">
|
|
<ele>9.206817</ele>
|
|
<time>2026-07-11T08:40:05.000Z</time>
|
|
</trkpt>
|
|
<trkpt lat="55.466747" lon="8.509203">
|
|
<ele>9.207867</ele>
|
|
<time>2026-07-11T08:40:06.000Z</time>
|
|
</trkpt>
|
|
<trkpt lat="55.466751" lon="8.509206">
|
|
<ele>9.211892</ele>
|
|
<time>2026-07-11T08:40:07.000Z</time>
|
|
</trkpt>
|
|
<trkpt lat="55.466757" lon="8.509209">
|
|
<ele>9.217668</ele>
|
|
<time>2026-07-11T08:40:08.000Z</time>
|
|
</trkpt>
|
|
<trkpt lat="55.466770" lon="8.509149">
|
|
<ele>9.251390</ele>
|
|
<time>2026-07-11T08:40:15.000Z</time>
|
|
</trkpt>
|
|
<trkpt lat="55.466771" lon="8.509117">
|
|
<ele>9.268216</ele>
|
|
<time>2026-07-11T08:40:16.000Z</time>
|
|
</trkpt>
|
|
<trkpt lat="55.466778" lon="8.509073">
|
|
<ele>9.292208</ele>
|
|
<time>2026-07-11T08:40:17.000Z</time>
|
|
</trkpt>
|
|
<trkpt lat="55.466792" lon="8.509021">
|
|
<ele>9.322430</ele>
|
|
<time>2026-07-11T08:40:18.000Z</time>
|
|
</trkpt>
|
|
<trkpt lat="55.466808" lon="8.508979">
|
|
<ele>9.348996</ele>
|
|
<time>2026-07-11T08:40:19.000Z</time>
|
|
</trkpt>
|
|
<trkpt lat="55.466824" lon="8.508938">
|
|
<ele>9.375128</ele>
|
|
<time>2026-07-11T08:40:20.000Z</time>
|
|
</trkpt>
|
|
<trkpt lat="55.466847" lon="8.508892">
|
|
<ele>9.407329</ele>
|
|
<time>2026-07-11T08:40:21.000Z</time>
|
|
</trkpt>
|
|
<trkpt lat="55.466877" lon="8.508845">
|
|
<ele>9.444488</ele>
|
|
<time>2026-07-11T08:40:22.000Z</time>
|
|
</trkpt>
|
|
<trkpt lat="55.466906" lon="8.508809">
|
|
<ele>9.477329</ele>
|
|
<time>2026-07-11T08:40:23.000Z</time>
|
|
</trkpt>
|
|
<trkpt lat="55.466940" lon="8.508774">
|
|
<ele>9.513785</ele>
|
|
<time>2026-07-11T08:40:24.000Z</time>
|
|
</trkpt>
|
|
<trkpt lat="55.466967" lon="8.508747">
|
|
<ele>9.542529</ele>
|
|
<time>2026-07-11T08:40:25.000Z</time>
|
|
</trkpt>
|
|
<trkpt lat="55.467010" lon="8.508706">
|
|
<ele>9.587796</ele>
|
|
<time>2026-07-11T08:40:26.000Z</time>
|
|
</trkpt>
|
|
<trkpt lat="55.467044" lon="8.508670">
|
|
<ele>9.624521</ele>
|
|
<time>2026-07-11T08:40:27.000Z</time>
|
|
</trkpt>
|
|
<trkpt lat="55.467075" lon="8.508628">
|
|
<ele>9.660720</ele>
|
|
<time>2026-07-11T08:40:28.000Z</time>
|
|
</trkpt>
|
|
<trkpt lat="55.467100" lon="8.508590">
|
|
<ele>9.691282</ele>
|
|
<time>2026-07-11T08:40:29.000Z</time>
|
|
</trkpt>
|
|
<trkpt lat="55.467131" lon="8.508523">
|
|
<ele>9.736686</ele>
|
|
<time>2026-07-11T08:40:30.000Z</time>
|
|
</trkpt>
|
|
<trkpt lat="55.467146" lon="8.508474">
|
|
<ele>9.765921</ele>
|
|
<time>2026-07-11T08:40:31.000Z</time>
|
|
</trkpt>
|
|
<trkpt lat="55.467156" lon="8.508393">
|
|
<ele>9.809442</ele>
|
|
<time>2026-07-11T08:40:32.000Z</time>
|
|
</trkpt>
|
|
<trkpt lat="55.467159" lon="8.508332">
|
|
<ele>9.841587</ele>
|
|
<time>2026-07-11T08:40:33.000Z</time>
|
|
</trkpt>
|
|
<trkpt lat="55.467155" lon="8.508240">
|
|
<ele>9.890028</ele>
|
|
<time>2026-07-11T08:40:34.000Z</time>
|
|
</trkpt>
|
|
<trkpt lat="55.467151" lon="8.508161">
|
|
<ele>9.931668</ele>
|
|
<time>2026-07-11T08:40:35.000Z</time>
|
|
</trkpt>
|
|
<trkpt lat="55.467143" lon="8.508082">
|
|
<ele>9.973798</ele>
|
|
<time>2026-07-11T08:40:36.000Z</time>
|
|
</trkpt>
|
|
<trkpt lat="55.467137" lon="8.508016">
|
|
<ele>10.008891</ele>
|
|
<time>2026-07-11T08:40:37.000Z</time>
|
|
</trkpt>
|
|
<trkpt lat="55.467126" lon="8.507939">
|
|
<ele>10.050579</ele>
|
|
<time>2026-07-11T08:40:38.000Z</time>
|
|
</trkpt>
|
|
<trkpt lat="55.467121" lon="8.507859">
|
|
<ele>10.092833</ele>
|
|
<time>2026-07-11T08:40:39.000Z</time>
|
|
</trkpt>
|
|
<trkpt lat="55.467114" lon="8.507779">
|
|
<ele>10.135329</ele>
|
|
<time>2026-07-11T08:40:40.000Z</time>
|
|
</trkpt>
|
|
<trkpt lat="55.467107" lon="8.507706">
|
|
<ele>10.174198</ele>
|
|
<time>2026-07-11T08:40:41.000Z</time>
|
|
</trkpt>
|
|
<trkpt lat="55.467100" lon="8.507625">
|
|
<ele>10.217214</ele>
|
|
<time>2026-07-11T08:40:42.000Z</time>
|
|
</trkpt>
|
|
<trkpt lat="55.467093" lon="8.507550">
|
|
<ele>10.257118</ele>
|
|
<time>2026-07-11T08:40:43.000Z</time>
|
|
</trkpt>
|
|
<trkpt lat="55.467083" lon="8.507472">
|
|
<ele>10.299102</ele>
|
|
<time>2026-07-11T08:40:44.000Z</time>
|
|
</trkpt>
|
|
<trkpt lat="55.467074" lon="8.507384">
|
|
<ele>10.344263</ele>
|
|
<time>2026-07-11T08:40:45.000Z</time>
|
|
</trkpt>
|
|
<trkpt lat="55.467063" lon="8.507298">
|
|
<ele>10.383753</ele>
|
|
<time>2026-07-11T08:40:46.000Z</time>
|
|
</trkpt>
|
|
<trkpt lat="55.467055" lon="8.507224">
|
|
<ele>10.417497</ele>
|
|
<time>2026-07-11T08:40:47.000Z</time>
|
|
</trkpt>
|
|
<trkpt lat="55.467047" lon="8.507145">
|
|
<ele>10.453443</ele>
|
|
<time>2026-07-11T08:40:48.000Z</time>
|
|
</trkpt>
|
|
<trkpt lat="55.467045" lon="8.507067">
|
|
<ele>10.488417</ele>
|
|
<time>2026-07-11T08:40:49.000Z</time>
|
|
</trkpt>
|
|
<trkpt lat="55.467049" lon="8.506987">
|
|
<ele>10.524390</ele>
|
|
<time>2026-07-11T08:40:50.000Z</time>
|
|
</trkpt>
|
|
<trkpt lat="55.467063" lon="8.506908">
|
|
<ele>10.561465</ele>
|
|
<time>2026-07-11T08:40:51.000Z</time>
|
|
</trkpt>
|
|
<trkpt lat="55.467087" lon="8.506835">
|
|
<ele>10.599264</ele>
|
|
<time>2026-07-11T08:40:52.000Z</time>
|
|
</trkpt>
|
|
<trkpt lat="55.467132" lon="8.506781">
|
|
<ele>10.642269</ele>
|
|
<time>2026-07-11T08:40:53.000Z</time>
|
|
</trkpt>
|
|
<trkpt lat="55.467185" lon="8.506735">
|
|
<ele>10.688941</ele>
|
|
<time>2026-07-11T08:40:54.000Z</time>
|
|
</trkpt>
|
|
<trkpt lat="55.467240" lon="8.506719">
|
|
<ele>10.732987</ele>
|
|
<time>2026-07-11T08:40:55.000Z</time>
|
|
</trkpt>
|
|
<trkpt lat="55.467294" lon="8.506707">
|
|
<ele>10.775993</ele>
|
|
<time>2026-07-11T08:40:56.000Z</time>
|
|
</trkpt>
|
|
<trkpt lat="55.467345" lon="8.506699">
|
|
<ele>10.816450</ele>
|
|
<time>2026-07-11T08:40:57.000Z</time>
|
|
</trkpt>
|
|
<trkpt lat="55.467388" lon="8.506693">
|
|
<ele>10.850533</ele>
|
|
<time>2026-07-11T08:40:58.000Z</time>
|
|
</trkpt>
|
|
<trkpt lat="55.467446" lon="8.506682">
|
|
<ele>10.896626</ele>
|
|
<time>2026-07-11T08:40:59.000Z</time>
|
|
</trkpt>
|
|
<trkpt lat="55.467495" lon="8.506672">
|
|
<ele>10.935602</ele>
|
|
<time>2026-07-11T08:41:00.000Z</time>
|
|
</trkpt>
|
|
<trkpt lat="55.467542" lon="8.506664">
|
|
<ele>10.972912</ele>
|
|
<time>2026-07-11T08:41:01.000Z</time>
|
|
</trkpt>
|
|
<trkpt lat="55.467596" lon="8.506657">
|
|
<ele>11.015696</ele>
|
|
<time>2026-07-11T08:41:02.000Z</time>
|
|
</trkpt>
|
|
<trkpt lat="55.467654" lon="8.506651">
|
|
<ele>11.061603</ele>
|
|
<time>2026-07-11T08:41:03.000Z</time>
|
|
</trkpt>
|
|
<trkpt lat="55.467701" lon="8.506641">
|
|
<ele>11.099010</ele>
|
|
<time>2026-07-11T08:41:04.000Z</time>
|
|
</trkpt>
|
|
<trkpt lat="55.467745" lon="8.506628">
|
|
<ele>11.134261</ele>
|
|
<time>2026-07-11T08:41:05.000Z</time>
|
|
</trkpt>
|
|
<trkpt lat="55.467799" lon="8.506618">
|
|
<ele>11.177164</ele>
|
|
<time>2026-07-11T08:41:06.000Z</time>
|
|
</trkpt>
|
|
<trkpt lat="55.467844" lon="8.506608">
|
|
<ele>11.213002</ele>
|
|
<time>2026-07-11T08:41:07.000Z</time>
|
|
</trkpt>
|
|
<trkpt lat="55.467892" lon="8.506600">
|
|
<ele>11.251099</ele>
|
|
<time>2026-07-11T08:41:08.000Z</time>
|
|
</trkpt>
|
|
<trkpt lat="55.467931" lon="8.506593">
|
|
<ele>11.282074</ele>
|
|
<time>2026-07-11T08:41:09.000Z</time>
|
|
</trkpt>
|
|
<trkpt lat="55.467980" lon="8.506586">
|
|
<ele>11.320919</ele>
|
|
<time>2026-07-11T08:41:10.000Z</time>
|
|
</trkpt>
|
|
<trkpt lat="55.468040" lon="8.506575">
|
|
<ele>11.368583</ele>
|
|
<time>2026-07-11T08:41:11.000Z</time>
|
|
</trkpt>
|
|
<trkpt lat="55.468086" lon="8.506568">
|
|
<ele>11.405066</ele>
|
|
<time>2026-07-11T08:41:12.000Z</time>
|
|
</trkpt>
|
|
<trkpt lat="55.468129" lon="8.506560">
|
|
<ele>11.439231</ele>
|
|
<time>2026-07-11T08:41:13.000Z</time>
|
|
</trkpt>
|
|
<trkpt lat="55.468185" lon="8.506548">
|
|
<ele>11.483805</ele>
|
|
<time>2026-07-11T08:41:14.000Z</time>
|
|
</trkpt>
|
|
<trkpt lat="55.468239" lon="8.506536">
|
|
<ele>11.526811</ele>
|
|
<time>2026-07-11T08:41:15.000Z</time>
|
|
</trkpt>
|
|
<trkpt lat="55.468282" lon="8.506530">
|
|
<ele>11.560894</ele>
|
|
<time>2026-07-11T08:41:16.000Z</time>
|
|
</trkpt>
|
|
<trkpt lat="55.468337" lon="8.506522">
|
|
<ele>11.604500</ele>
|
|
<time>2026-07-11T08:41:17.000Z</time>
|
|
</trkpt>
|
|
<trkpt lat="55.468389" lon="8.506512">
|
|
<ele>11.645832</ele>
|
|
<time>2026-07-11T08:41:18.000Z</time>
|
|
</trkpt>
|
|
<trkpt lat="55.468440" lon="8.506502">
|
|
<ele>11.686378</ele>
|
|
<time>2026-07-11T08:41:19.000Z</time>
|
|
</trkpt>
|
|
<trkpt lat="55.468492" lon="8.506493">
|
|
<ele>11.727663</ele>
|
|
<time>2026-07-11T08:41:20.000Z</time>
|
|
</trkpt>
|
|
<trkpt lat="55.468541" lon="8.506486">
|
|
<ele>11.771085</ele>
|
|
<time>2026-07-11T08:41:21.000Z</time>
|
|
</trkpt>
|
|
<trkpt lat="55.468591" lon="8.506478">
|
|
<ele>11.826680</ele>
|
|
<time>2026-07-11T08:41:22.000Z</time>
|
|
</trkpt>
|
|
<trkpt lat="55.468664" lon="8.506465">
|
|
<ele>11.907927</ele>
|
|
<time>2026-07-11T08:41:23.000Z</time>
|
|
</trkpt>
|
|
<trkpt lat="55.468747" lon="8.506448">
|
|
<ele>12.000455</ele>
|
|
<time>2026-07-11T08:41:24.000Z</time>
|
|
</trkpt>
|
|
<trkpt lat="55.468802" lon="8.506438">
|
|
<ele>12.061683</ele>
|
|
<time>2026-07-11T08:41:25.000Z</time>
|
|
</trkpt>
|
|
<trkpt lat="55.468853" lon="8.506429">
|
|
<ele>12.118440</ele>
|
|
<time>2026-07-11T08:41:26.000Z</time>
|
|
</trkpt>
|
|
<trkpt lat="55.468905" lon="8.506417">
|
|
<ele>12.176513</ele>
|
|
<time>2026-07-11T08:41:27.000Z</time>
|
|
</trkpt>
|
|
<trkpt lat="55.468953" lon="8.506404">
|
|
<ele>12.230289</ele>
|
|
<time>2026-07-11T08:41:28.000Z</time>
|
|
</trkpt>
|
|
<trkpt lat="55.469002" lon="8.506392">
|
|
<ele>12.285069</ele>
|
|
<time>2026-07-11T08:41:29.000Z</time>
|
|
</trkpt>
|
|
<trkpt lat="55.469054" lon="8.506384">
|
|
<ele>12.342870</ele>
|
|
<time>2026-07-11T08:41:30.000Z</time>
|
|
</trkpt>
|
|
<trkpt lat="55.469100" lon="8.506377">
|
|
<ele>12.393998</ele>
|
|
<time>2026-07-11T08:41:31.000Z</time>
|
|
</trkpt>
|
|
<trkpt lat="55.469144" lon="8.506370">
|
|
<ele>12.442919</ele>
|
|
<time>2026-07-11T08:41:32.000Z</time>
|
|
</trkpt>
|
|
<trkpt lat="55.469194" lon="8.506361">
|
|
<ele>12.498575</ele>
|
|
<time>2026-07-11T08:41:33.000Z</time>
|
|
</trkpt>
|
|
<trkpt lat="55.469243" lon="8.506352">
|
|
<ele>12.553128</ele>
|
|
<time>2026-07-11T08:41:34.000Z</time>
|
|
</trkpt>
|
|
<trkpt lat="55.469290" lon="8.506343">
|
|
<ele>12.605480</ele>
|
|
<time>2026-07-11T08:41:35.000Z</time>
|
|
</trkpt>
|
|
<trkpt lat="55.469338" lon="8.506333">
|
|
<ele>12.659002</ele>
|
|
<time>2026-07-11T08:41:36.000Z</time>
|
|
</trkpt>
|
|
<trkpt lat="55.469392" lon="8.506323">
|
|
<ele>12.719128</ele>
|
|
<time>2026-07-11T08:41:37.000Z</time>
|
|
</trkpt>
|
|
<trkpt lat="55.469442" lon="8.506315">
|
|
<ele>12.774723</ele>
|
|
<time>2026-07-11T08:41:38.000Z</time>
|
|
</trkpt>
|
|
<trkpt lat="55.469490" lon="8.506306">
|
|
<ele>12.828175</ele>
|
|
<time>2026-07-11T08:41:39.000Z</time>
|
|
</trkpt>
|
|
<trkpt lat="55.469539" lon="8.506296">
|
|
<ele>12.882798</ele>
|
|
<time>2026-07-11T08:41:40.000Z</time>
|
|
</trkpt>
|
|
<trkpt lat="55.469588" lon="8.506287">
|
|
<ele>12.937352</ele>
|
|
<time>2026-07-11T08:41:41.000Z</time>
|
|
</trkpt>
|
|
<trkpt lat="55.469634" lon="8.506278">
|
|
<ele>12.988602</ele>
|
|
<time>2026-07-11T08:41:42.000Z</time>
|
|
</trkpt>
|
|
<trkpt lat="55.469683" lon="8.506270">
|
|
<ele>13.043095</ele>
|
|
<time>2026-07-11T08:41:43.000Z</time>
|
|
</trkpt>
|
|
<trkpt lat="55.469726" lon="8.506256">
|
|
<ele>13.091515</ele>
|
|
<time>2026-07-11T08:41:44.000Z</time>
|
|
</trkpt>
|
|
<trkpt lat="55.469777" lon="8.506220">
|
|
<ele>13.152343</ele>
|
|
<time>2026-07-11T08:41:45.000Z</time>
|
|
</trkpt>
|
|
<trkpt lat="55.469813" lon="8.506174">
|
|
<ele>13.201566</ele>
|
|
<time>2026-07-11T08:41:46.000Z</time>
|
|
</trkpt>
|
|
<trkpt lat="55.469840" lon="8.506118">
|
|
<ele>13.247713</ele>
|
|
<time>2026-07-11T08:41:47.000Z</time>
|
|
</trkpt>
|
|
<trkpt lat="55.469862" lon="8.506031">
|
|
<ele>13.307510</ele>
|
|
<time>2026-07-11T08:41:48.000Z</time>
|
|
</trkpt>
|
|
<trkpt lat="55.469867" lon="8.505963">
|
|
<ele>13.350550</ele>
|
|
<time>2026-07-11T08:41:49.000Z</time>
|
|
</trkpt>
|
|
<trkpt lat="55.469863" lon="8.505887">
|
|
<ele>13.398460</ele>
|
|
<time>2026-07-11T08:41:50.000Z</time>
|
|
</trkpt>
|
|
<trkpt lat="55.469855" lon="8.505812">
|
|
<ele>13.446364</ele>
|
|
<time>2026-07-11T08:41:51.000Z</time>
|
|
</trkpt>
|
|
<trkpt lat="55.469848" lon="8.505730">
|
|
<ele>13.498415</ele>
|
|
<time>2026-07-11T08:41:52.000Z</time>
|
|
</trkpt>
|
|
<trkpt lat="55.469843" lon="8.505642">
|
|
<ele>13.553929</ele>
|
|
<time>2026-07-11T08:41:53.000Z</time>
|
|
</trkpt>
|
|
<trkpt lat="55.469836" lon="8.505564">
|
|
<ele>13.603499</ele>
|
|
<time>2026-07-11T08:41:54.000Z</time>
|
|
</trkpt>
|
|
<trkpt lat="55.469830" lon="8.505494">
|
|
<ele>13.647937</ele>
|
|
<time>2026-07-11T08:41:55.000Z</time>
|
|
</trkpt>
|
|
<trkpt lat="55.469816" lon="8.505392">
|
|
<ele>13.713812</ele>
|
|
<time>2026-07-11T08:41:56.000Z</time>
|
|
</trkpt>
|
|
<trkpt lat="55.469806" lon="8.505309">
|
|
<ele>13.755734</ele>
|
|
<time>2026-07-11T08:41:57.000Z</time>
|
|
</trkpt>
|
|
<trkpt lat="55.469798" lon="8.505224">
|
|
<ele>13.779499</ele>
|
|
<time>2026-07-11T08:41:58.000Z</time>
|
|
</trkpt>
|
|
<trkpt lat="55.469790" lon="8.505145">
|
|
<ele>13.801634</ele>
|
|
<time>2026-07-11T08:41:59.000Z</time>
|
|
</trkpt>
|
|
<trkpt lat="55.469780" lon="8.505066">
|
|
<ele>13.823960</ele>
|
|
<time>2026-07-11T08:42:00.000Z</time>
|
|
</trkpt>
|
|
<trkpt lat="55.469773" lon="8.504992">
|
|
<ele>13.844653</ele>
|
|
<time>2026-07-11T08:42:01.000Z</time>
|
|
</trkpt>
|
|
<trkpt lat="55.469768" lon="8.504896">
|
|
<ele>13.871242</ele>
|
|
<time>2026-07-11T08:42:02.000Z</time>
|
|
</trkpt>
|
|
<trkpt lat="55.469760" lon="8.504799">
|
|
<ele>13.898278</ele>
|
|
<time>2026-07-11T08:42:03.000Z</time>
|
|
</trkpt>
|
|
<trkpt lat="55.469757" lon="8.504729">
|
|
<ele>13.917640</ele>
|
|
<time>2026-07-11T08:42:04.000Z</time>
|
|
</trkpt>
|
|
<trkpt lat="55.469757" lon="8.504650">
|
|
<ele>13.939430</ele>
|
|
<time>2026-07-11T08:42:05.000Z</time>
|
|
</trkpt>
|
|
<trkpt lat="55.469757" lon="8.504553">
|
|
<ele>13.966184</ele>
|
|
<time>2026-07-11T08:42:06.000Z</time>
|
|
</trkpt>
|
|
<trkpt lat="55.469749" lon="8.504471">
|
|
<ele>13.989133</ele>
|
|
<time>2026-07-11T08:42:07.000Z</time>
|
|
</trkpt>
|
|
<trkpt lat="55.469746" lon="8.504393">
|
|
<ele>14.010697</ele>
|
|
<time>2026-07-11T08:42:08.000Z</time>
|
|
</trkpt>
|
|
<trkpt lat="55.469742" lon="8.504316">
|
|
<ele>14.032023</ele>
|
|
<time>2026-07-11T08:42:09.000Z</time>
|
|
</trkpt>
|
|
<trkpt lat="55.469734" lon="8.504220">
|
|
<ele>14.058786</ele>
|
|
<time>2026-07-11T08:42:10.000Z</time>
|
|
</trkpt>
|
|
<trkpt lat="55.469727" lon="8.504137">
|
|
<ele>14.081931</ele>
|
|
<time>2026-07-11T08:42:11.000Z</time>
|
|
</trkpt>
|
|
<trkpt lat="55.469718" lon="8.504029">
|
|
<ele>14.112039</ele>
|
|
<time>2026-07-11T08:42:12.000Z</time>
|
|
</trkpt>
|
|
<trkpt lat="55.469715" lon="8.503954">
|
|
<ele>14.132777</ele>
|
|
<time>2026-07-11T08:42:13.000Z</time>
|
|
</trkpt>
|
|
<trkpt lat="55.469709" lon="8.503876">
|
|
<ele>14.154488</ele>
|
|
<time>2026-07-11T08:42:14.000Z</time>
|
|
</trkpt>
|
|
<trkpt lat="55.469702" lon="8.503800">
|
|
<ele>14.175725</ele>
|
|
<time>2026-07-11T08:42:15.000Z</time>
|
|
</trkpt>
|
|
<trkpt lat="55.469697" lon="8.503710">
|
|
<ele>14.200667</ele>
|
|
<time>2026-07-11T08:42:16.000Z</time>
|
|
</trkpt>
|
|
<trkpt lat="55.469696" lon="8.503617">
|
|
<ele>14.226323</ele>
|
|
<time>2026-07-11T08:42:17.000Z</time>
|
|
</trkpt>
|
|
<trkpt lat="55.469693" lon="8.503549">
|
|
<ele>14.245135</ele>
|
|
<time>2026-07-11T08:42:18.000Z</time>
|
|
</trkpt>
|
|
<trkpt lat="55.469689" lon="8.503469">
|
|
<ele>14.267286</ele>
|
|
<time>2026-07-11T08:42:19.000Z</time>
|
|
</trkpt>
|
|
<trkpt lat="55.469688" lon="8.503404">
|
|
<ele>14.285221</ele>
|
|
<time>2026-07-11T08:42:20.000Z</time>
|
|
</trkpt>
|
|
<trkpt lat="55.469685" lon="8.503334">
|
|
<ele>14.304583</ele>
|
|
<time>2026-07-11T08:42:21.000Z</time>
|
|
</trkpt>
|
|
<trkpt lat="55.469685" lon="8.503290">
|
|
<ele>14.316719</ele>
|
|
<time>2026-07-11T08:42:22.000Z</time>
|
|
</trkpt>
|
|
<trkpt lat="55.469681" lon="8.503246">
|
|
<ele>14.329010</ele>
|
|
<time>2026-07-11T08:42:23.000Z</time>
|
|
</trkpt>
|
|
<trkpt lat="55.469675" lon="8.503200">
|
|
<ele>14.342029</ele>
|
|
<time>2026-07-11T08:42:24.000Z</time>
|
|
</trkpt>
|
|
<trkpt lat="55.469670" lon="8.503187">
|
|
<ele>14.346362</ele>
|
|
<time>2026-07-11T08:42:25.000Z</time>
|
|
</trkpt>
|
|
<trkpt lat="55.469661" lon="8.503160">
|
|
<ele>14.355001</ele>
|
|
<time>2026-07-11T08:42:26.000Z</time>
|
|
</trkpt>
|
|
<trkpt lat="55.469658" lon="8.503143">
|
|
<ele>14.359912</ele>
|
|
<time>2026-07-11T08:42:27.000Z</time>
|
|
</trkpt>
|
|
<trkpt lat="55.469659" lon="8.503087">
|
|
<ele>14.375365</ele>
|
|
<time>2026-07-11T08:42:28.000Z</time>
|
|
</trkpt>
|
|
<trkpt lat="55.469662" lon="8.503055">
|
|
<ele>14.384312</ele>
|
|
<time>2026-07-11T08:42:29.000Z</time>
|
|
</trkpt>
|
|
<trkpt lat="55.469663" lon="8.502987">
|
|
<ele>14.403073</ele>
|
|
<time>2026-07-11T08:42:30.000Z</time>
|
|
</trkpt>
|
|
<trkpt lat="55.469665" lon="8.502952">
|
|
<ele>14.412776</ele>
|
|
<time>2026-07-11T08:42:31.000Z</time>
|
|
</trkpt>
|
|
<trkpt lat="55.469669" lon="8.502891">
|
|
<ele>14.429713</ele>
|
|
<time>2026-07-11T08:42:32.000Z</time>
|
|
</trkpt>
|
|
<trkpt lat="55.469673" lon="8.502831">
|
|
<ele>14.446376</ele>
|
|
<time>2026-07-11T08:42:33.000Z</time>
|
|
</trkpt>
|
|
<trkpt lat="55.469673" lon="8.502759">
|
|
<ele>14.466235</ele>
|
|
<time>2026-07-11T08:42:34.000Z</time>
|
|
</trkpt>
|
|
<trkpt lat="55.469673" lon="8.502690">
|
|
<ele>14.485266</ele>
|
|
<time>2026-07-11T08:42:35.000Z</time>
|
|
</trkpt>
|
|
<trkpt lat="55.469673" lon="8.502621">
|
|
<ele>14.504297</ele>
|
|
<time>2026-07-11T08:42:36.000Z</time>
|
|
</trkpt>
|
|
<trkpt lat="55.469673" lon="8.502553">
|
|
<ele>14.523053</ele>
|
|
<time>2026-07-11T08:42:37.000Z</time>
|
|
</trkpt>
|
|
<trkpt lat="55.469673" lon="8.502484">
|
|
<ele>14.542084</ele>
|
|
<time>2026-07-11T08:42:38.000Z</time>
|
|
</trkpt>
|
|
<trkpt lat="55.469670" lon="8.502407">
|
|
<ele>14.563372</ele>
|
|
<time>2026-07-11T08:42:39.000Z</time>
|
|
</trkpt>
|
|
<trkpt lat="55.469666" lon="8.502332">
|
|
<ele>14.584150</ele>
|
|
<time>2026-07-11T08:42:40.000Z</time>
|
|
</trkpt>
|
|
<trkpt lat="55.469662" lon="8.502263">
|
|
<ele>14.603280</ele>
|
|
<time>2026-07-11T08:42:41.000Z</time>
|
|
</trkpt>
|
|
<trkpt lat="55.469659" lon="8.502204">
|
|
<ele>14.619619</ele>
|
|
<time>2026-07-11T08:42:42.000Z</time>
|
|
</trkpt>
|
|
<trkpt lat="55.469658" lon="8.502139">
|
|
<ele>14.622872</ele>
|
|
<time>2026-07-11T08:42:43.000Z</time>
|
|
</trkpt>
|
|
<trkpt lat="55.469655" lon="8.502070">
|
|
<ele>14.623899</ele>
|
|
<time>2026-07-11T08:42:44.000Z</time>
|
|
</trkpt>
|
|
<trkpt lat="55.469651" lon="8.501985">
|
|
<ele>14.625166</ele>
|
|
<time>2026-07-11T08:42:45.000Z</time>
|
|
</trkpt>
|
|
<trkpt lat="55.469647" lon="8.501924">
|
|
<ele>14.626078</ele>
|
|
<time>2026-07-11T08:42:46.000Z</time>
|
|
</trkpt>
|
|
<trkpt lat="55.469640" lon="8.501853">
|
|
<ele>14.627148</ele>
|
|
<time>2026-07-11T08:42:47.000Z</time>
|
|
</trkpt>
|
|
<trkpt lat="55.469636" lon="8.501782">
|
|
<ele>14.628207</ele>
|
|
<time>2026-07-11T08:42:48.000Z</time>
|
|
</trkpt>
|
|
<trkpt lat="55.469629" lon="8.501707">
|
|
<ele>14.629336</ele>
|
|
<time>2026-07-11T08:42:49.000Z</time>
|
|
</trkpt>
|
|
<trkpt lat="55.469625" lon="8.501635">
|
|
<ele>14.630410</ele>
|
|
<time>2026-07-11T08:42:50.000Z</time>
|
|
</trkpt>
|
|
<trkpt lat="55.469618" lon="8.501564">
|
|
<ele>14.631480</ele>
|
|
<time>2026-07-11T08:42:51.000Z</time>
|
|
</trkpt>
|
|
<trkpt lat="55.469613" lon="8.501497">
|
|
<ele>14.632483</ele>
|
|
<time>2026-07-11T08:42:52.000Z</time>
|
|
</trkpt>
|
|
<trkpt lat="55.469609" lon="8.501430">
|
|
<ele>14.633484</ele>
|
|
<time>2026-07-11T08:42:53.000Z</time>
|
|
</trkpt>
|
|
<trkpt lat="55.469608" lon="8.501377">
|
|
<ele>14.634271</ele>
|
|
<time>2026-07-11T08:42:54.000Z</time>
|
|
</trkpt>
|
|
<trkpt lat="55.469606" lon="8.501330">
|
|
<ele>14.634971</ele>
|
|
<time>2026-07-11T08:42:55.000Z</time>
|
|
</trkpt>
|
|
<trkpt lat="55.469604" lon="8.501281">
|
|
<ele>14.635701</ele>
|
|
<time>2026-07-11T08:42:56.000Z</time>
|
|
</trkpt>
|
|
<trkpt lat="55.469600" lon="8.501215">
|
|
<ele>14.636686</ele>
|
|
<time>2026-07-11T08:42:57.000Z</time>
|
|
</trkpt>
|
|
<trkpt lat="55.469598" lon="8.501189">
|
|
<ele>14.637076</ele>
|
|
<time>2026-07-11T08:42:58.000Z</time>
|
|
</trkpt>
|
|
<trkpt lat="55.469595" lon="8.501124">
|
|
<ele>14.638044</ele>
|
|
<time>2026-07-11T08:42:59.000Z</time>
|
|
</trkpt>
|
|
<trkpt lat="55.469590" lon="8.501095">
|
|
<ele>14.638494</ele>
|
|
<time>2026-07-11T08:43:00.000Z</time>
|
|
</trkpt>
|
|
<trkpt lat="55.469583" lon="8.501049">
|
|
<ele>14.639201</ele>
|
|
<time>2026-07-11T08:43:01.000Z</time>
|
|
</trkpt>
|
|
<trkpt lat="55.469578" lon="8.500989">
|
|
<ele>14.640102</ele>
|
|
<time>2026-07-11T08:43:02.000Z</time>
|
|
</trkpt>
|
|
<trkpt lat="55.469574" lon="8.500935">
|
|
<ele>14.640911</ele>
|
|
<time>2026-07-11T08:43:03.000Z</time>
|
|
</trkpt>
|
|
<trkpt lat="55.469567" lon="8.500859">
|
|
<ele>14.642054</ele>
|
|
<time>2026-07-11T08:43:04.000Z</time>
|
|
</trkpt>
|
|
<trkpt lat="55.469559" lon="8.500789">
|
|
<ele>14.643114</ele>
|
|
<time>2026-07-11T08:43:05.000Z</time>
|
|
</trkpt>
|
|
<trkpt lat="55.469551" lon="8.500730">
|
|
<ele>14.644015</ele>
|
|
<time>2026-07-11T08:43:06.000Z</time>
|
|
</trkpt>
|
|
<trkpt lat="55.469546" lon="8.500679">
|
|
<ele>14.644784</ele>
|
|
<time>2026-07-11T08:43:07.000Z</time>
|
|
</trkpt>
|
|
<trkpt lat="55.469544" lon="8.500637">
|
|
<ele>14.645409</ele>
|
|
<time>2026-07-11T08:43:08.000Z</time>
|
|
</trkpt>
|
|
<trkpt lat="55.469538" lon="8.500587">
|
|
<ele>14.646168</ele>
|
|
<time>2026-07-11T08:43:09.000Z</time>
|
|
</trkpt>
|
|
<trkpt lat="55.469530" lon="8.500519">
|
|
<ele>14.647200</ele>
|
|
<time>2026-07-11T08:43:10.000Z</time>
|
|
</trkpt>
|
|
<trkpt lat="55.469525" lon="8.500436">
|
|
<ele>14.648439</ele>
|
|
<time>2026-07-11T08:43:11.000Z</time>
|
|
</trkpt>
|
|
<trkpt lat="55.469518" lon="8.500375">
|
|
<ele>14.649363</ele>
|
|
<time>2026-07-11T08:43:12.000Z</time>
|
|
</trkpt>
|
|
<trkpt lat="55.469510" lon="8.500290">
|
|
<ele>14.650642</ele>
|
|
<time>2026-07-11T08:43:13.000Z</time>
|
|
</trkpt>
|
|
<trkpt lat="55.469500" lon="8.500221">
|
|
<ele>14.651700</ele>
|
|
<time>2026-07-11T08:43:14.000Z</time>
|
|
</trkpt>
|
|
<trkpt lat="55.469491" lon="8.500136">
|
|
<ele>14.652984</ele>
|
|
<time>2026-07-11T08:43:15.000Z</time>
|
|
</trkpt>
|
|
<trkpt lat="55.469482" lon="8.500050">
|
|
<ele>14.654283</ele>
|
|
<time>2026-07-11T08:43:16.000Z</time>
|
|
</trkpt>
|
|
<trkpt lat="55.469476" lon="8.499983">
|
|
<ele>14.655290</ele>
|
|
<time>2026-07-11T08:43:17.000Z</time>
|
|
</trkpt>
|
|
<trkpt lat="55.469469" lon="8.499909">
|
|
<ele>14.656404</ele>
|
|
<time>2026-07-11T08:43:18.000Z</time>
|
|
</trkpt>
|
|
<trkpt lat="55.469464" lon="8.499826">
|
|
<ele>14.657643</ele>
|
|
<time>2026-07-11T08:43:19.000Z</time>
|
|
</trkpt>
|
|
<trkpt lat="55.469463" lon="8.499751">
|
|
<ele>14.658757</ele>
|
|
<time>2026-07-11T08:43:20.000Z</time>
|
|
</trkpt>
|
|
<trkpt lat="55.469463" lon="8.499681">
|
|
<ele>14.659796</ele>
|
|
<time>2026-07-11T08:43:21.000Z</time>
|
|
</trkpt>
|
|
<trkpt lat="55.469460" lon="8.499608">
|
|
<ele>14.660883</ele>
|
|
<time>2026-07-11T08:43:22.000Z</time>
|
|
</trkpt>
|
|
<trkpt lat="55.469454" lon="8.499541">
|
|
<ele>14.661891</ele>
|
|
<time>2026-07-11T08:43:23.000Z</time>
|
|
</trkpt>
|
|
<trkpt lat="55.469449" lon="8.499462">
|
|
<ele>14.663071</ele>
|
|
<time>2026-07-11T08:43:24.000Z</time>
|
|
</trkpt>
|
|
<trkpt lat="55.469439" lon="8.499378">
|
|
<ele>14.664345</ele>
|
|
<time>2026-07-11T08:43:25.000Z</time>
|
|
</trkpt>
|
|
<trkpt lat="55.469431" lon="8.499298">
|
|
<ele>14.665552</ele>
|
|
<time>2026-07-11T08:43:26.000Z</time>
|
|
</trkpt>
|
|
<trkpt lat="55.469424" lon="8.499216">
|
|
<ele>14.666783</ele>
|
|
<time>2026-07-11T08:43:27.000Z</time>
|
|
</trkpt>
|
|
<trkpt lat="55.469416" lon="8.499131">
|
|
<ele>14.668062</ele>
|
|
<time>2026-07-11T08:43:28.000Z</time>
|
|
</trkpt>
|
|
<trkpt lat="55.469409" lon="8.499052">
|
|
<ele>14.667087</ele>
|
|
<time>2026-07-11T08:43:29.000Z</time>
|
|
</trkpt>
|
|
<trkpt lat="55.469401" lon="8.498975">
|
|
<ele>14.642372</ele>
|
|
<time>2026-07-11T08:43:30.000Z</time>
|
|
</trkpt>
|
|
<trkpt lat="55.469396" lon="8.498896">
|
|
<ele>14.617275</ele>
|
|
<time>2026-07-11T08:43:31.000Z</time>
|
|
</trkpt>
|
|
<trkpt lat="55.469388" lon="8.498815">
|
|
<ele>14.591317</ele>
|
|
<time>2026-07-11T08:43:32.000Z</time>
|
|
</trkpt>
|
|
<trkpt lat="55.469384" lon="8.498736">
|
|
<ele>14.566276</ele>
|
|
<time>2026-07-11T08:43:33.000Z</time>
|
|
</trkpt>
|
|
<trkpt lat="55.469377" lon="8.498656">
|
|
<ele>14.540719</ele>
|
|
<time>2026-07-11T08:43:34.000Z</time>
|
|
</trkpt>
|
|
<trkpt lat="55.469370" lon="8.498570">
|
|
<ele>14.513289</ele>
|
|
<time>2026-07-11T08:43:35.000Z</time>
|
|
</trkpt>
|
|
<trkpt lat="55.469359" lon="8.498481">
|
|
<ele>14.484530</ele>
|
|
<time>2026-07-11T08:43:36.000Z</time>
|
|
</trkpt>
|
|
<trkpt lat="55.469352" lon="8.498396">
|
|
<ele>14.457413</ele>
|
|
<time>2026-07-11T08:43:37.000Z</time>
|
|
</trkpt>
|
|
<trkpt lat="55.469342" lon="8.498306">
|
|
<ele>14.428457</ele>
|
|
<time>2026-07-11T08:43:38.000Z</time>
|
|
</trkpt>
|
|
<trkpt lat="55.469328" lon="8.498174">
|
|
<ele>14.386060</ele>
|
|
<time>2026-07-11T08:43:39.000Z</time>
|
|
</trkpt>
|
|
<trkpt lat="55.469314" lon="8.498041">
|
|
<ele>14.343351</ele>
|
|
<time>2026-07-11T08:43:40.000Z</time>
|
|
</trkpt>
|
|
<trkpt lat="55.469304" lon="8.497952">
|
|
<ele>14.314706</ele>
|
|
<time>2026-07-11T08:43:41.000Z</time>
|
|
</trkpt>
|
|
<trkpt lat="55.469297" lon="8.497863">
|
|
<ele>14.286338</ele>
|
|
<time>2026-07-11T08:43:42.000Z</time>
|
|
</trkpt>
|
|
<trkpt lat="55.469286" lon="8.497772">
|
|
<ele>14.256962</ele>
|
|
<time>2026-07-11T08:43:43.000Z</time>
|
|
</trkpt>
|
|
<trkpt lat="55.469274" lon="8.497684">
|
|
<ele>14.228386</ele>
|
|
<time>2026-07-11T08:43:44.000Z</time>
|
|
</trkpt>
|
|
<trkpt lat="55.469265" lon="8.497586">
|
|
<ele>14.197042</ele>
|
|
<time>2026-07-11T08:43:45.000Z</time>
|
|
</trkpt>
|
|
<trkpt lat="55.469255" lon="8.497494">
|
|
<ele>14.167467</ele>
|
|
<time>2026-07-11T08:43:46.000Z</time>
|
|
</trkpt>
|
|
<trkpt lat="55.469247" lon="8.497406">
|
|
<ele>14.139329</ele>
|
|
<time>2026-07-11T08:43:47.000Z</time>
|
|
</trkpt>
|
|
<trkpt lat="55.469237" lon="8.497318">
|
|
<ele>14.110993</ele>
|
|
<time>2026-07-11T08:43:48.000Z</time>
|
|
</trkpt>
|
|
<trkpt lat="55.469229" lon="8.497228">
|
|
<ele>14.082231</ele>
|
|
<time>2026-07-11T08:43:49.000Z</time>
|
|
</trkpt>
|
|
<trkpt lat="55.469218" lon="8.497136">
|
|
<ele>14.052546</ele>
|
|
<time>2026-07-11T08:43:50.000Z</time>
|
|
</trkpt>
|
|
<trkpt lat="55.469206" lon="8.497032">
|
|
<ele>14.019038</ele>
|
|
<time>2026-07-11T08:43:51.000Z</time>
|
|
</trkpt>
|
|
<trkpt lat="55.469199" lon="8.496946">
|
|
<ele>13.991608</ele>
|
|
<time>2026-07-11T08:43:52.000Z</time>
|
|
</trkpt>
|
|
<trkpt lat="55.469192" lon="8.496852">
|
|
<ele>13.961675</ele>
|
|
<time>2026-07-11T08:43:53.000Z</time>
|
|
</trkpt>
|
|
<trkpt lat="55.469181" lon="8.496758">
|
|
<ele>13.931372</ele>
|
|
<time>2026-07-11T08:43:54.000Z</time>
|
|
</trkpt>
|
|
<trkpt lat="55.469173" lon="8.496663">
|
|
<ele>13.901050</ele>
|
|
<time>2026-07-11T08:43:55.000Z</time>
|
|
</trkpt>
|
|
<trkpt lat="55.469165" lon="8.496569">
|
|
<ele>13.871039</ele>
|
|
<time>2026-07-11T08:43:56.000Z</time>
|
|
</trkpt>
|
|
<trkpt lat="55.469157" lon="8.496466">
|
|
<ele>13.838217</ele>
|
|
<time>2026-07-11T08:43:57.000Z</time>
|
|
</trkpt>
|
|
<trkpt lat="55.469154" lon="8.496383">
|
|
<ele>13.811959</ele>
|
|
<time>2026-07-11T08:43:58.000Z</time>
|
|
</trkpt>
|
|
<trkpt lat="55.469151" lon="8.496304">
|
|
<ele>13.786961</ele>
|
|
<time>2026-07-11T08:43:59.000Z</time>
|
|
</trkpt>
|
|
<trkpt lat="55.469147" lon="8.496212">
|
|
<ele>13.757830</ele>
|
|
<time>2026-07-11T08:44:00.000Z</time>
|
|
</trkpt>
|
|
<trkpt lat="55.469135" lon="8.496109">
|
|
<ele>13.724631</ele>
|
|
<time>2026-07-11T08:44:01.000Z</time>
|
|
</trkpt>
|
|
<trkpt lat="55.469128" lon="8.496031">
|
|
<ele>13.699698</ele>
|
|
<time>2026-07-11T08:44:02.000Z</time>
|
|
</trkpt>
|
|
<trkpt lat="55.469114" lon="8.495951">
|
|
<ele>13.673265</ele>
|
|
<time>2026-07-11T08:44:03.000Z</time>
|
|
</trkpt>
|
|
<trkpt lat="55.469102" lon="8.495857">
|
|
<ele>13.755603</ele>
|
|
<time>2026-07-11T08:44:04.000Z</time>
|
|
</trkpt>
|
|
<trkpt lat="55.469086" lon="8.495766">
|
|
<ele>13.863861</ele>
|
|
<time>2026-07-11T08:44:05.000Z</time>
|
|
</trkpt>
|
|
<trkpt lat="55.469078" lon="8.495683">
|
|
<ele>13.959523</ele>
|
|
<time>2026-07-11T08:44:06.000Z</time>
|
|
</trkpt>
|
|
<trkpt lat="55.469067" lon="8.495594">
|
|
<ele>14.063024</ele>
|
|
<time>2026-07-11T08:44:07.000Z</time>
|
|
</trkpt>
|
|
<trkpt lat="55.469067" lon="8.495512">
|
|
<ele>14.156196</ele>
|
|
<time>2026-07-11T08:44:08.000Z</time>
|
|
</trkpt>
|
|
<trkpt lat="55.469059" lon="8.495420">
|
|
<ele>14.261954</ele>
|
|
<time>2026-07-11T08:44:09.000Z</time>
|
|
</trkpt>
|
|
<trkpt lat="55.469052" lon="8.495343">
|
|
<ele>14.350562</ele>
|
|
<time>2026-07-11T08:44:10.000Z</time>
|
|
</trkpt>
|
|
<trkpt lat="55.469048" lon="8.495270">
|
|
<ele>14.433895</ele>
|
|
<time>2026-07-11T08:44:11.000Z</time>
|
|
</trkpt>
|
|
<trkpt lat="55.469045" lon="8.495187">
|
|
<ele>14.528394</ele>
|
|
<time>2026-07-11T08:44:12.000Z</time>
|
|
</trkpt>
|
|
<trkpt lat="55.469038" lon="8.495107">
|
|
<ele>14.620370</ele>
|
|
<time>2026-07-11T08:44:13.000Z</time>
|
|
</trkpt>
|
|
<trkpt lat="55.469030" lon="8.495025">
|
|
<ele>14.714912</ele>
|
|
<time>2026-07-11T08:44:14.000Z</time>
|
|
</trkpt>
|
|
<trkpt lat="55.469026" lon="8.494951">
|
|
<ele>14.799376</ele>
|
|
<time>2026-07-11T08:44:15.000Z</time>
|
|
</trkpt>
|
|
<trkpt lat="55.469019" lon="8.494869">
|
|
<ele>14.893598</ele>
|
|
<time>2026-07-11T08:44:16.000Z</time>
|
|
</trkpt>
|
|
<trkpt lat="55.469011" lon="8.494789">
|
|
<ele>14.985902</ele>
|
|
<time>2026-07-11T08:44:17.000Z</time>
|
|
</trkpt>
|
|
<trkpt lat="55.469004" lon="8.494717">
|
|
<ele>15.068906</ele>
|
|
<time>2026-07-11T08:44:18.000Z</time>
|
|
</trkpt>
|
|
<trkpt lat="55.468996" lon="8.494643">
|
|
<ele>15.154503</ele>
|
|
<time>2026-07-11T08:44:19.000Z</time>
|
|
</trkpt>
|
|
<trkpt lat="55.468989" lon="8.494578">
|
|
<ele>15.229680</ele>
|
|
<time>2026-07-11T08:44:20.000Z</time>
|
|
</trkpt>
|
|
<trkpt lat="55.468981" lon="8.494507">
|
|
<ele>15.311932</ele>
|
|
<time>2026-07-11T08:44:21.000Z</time>
|
|
</trkpt>
|
|
<trkpt lat="55.468976" lon="8.494448">
|
|
<ele>15.379716</ele>
|
|
<time>2026-07-11T08:44:22.000Z</time>
|
|
</trkpt>
|
|
<trkpt lat="55.468971" lon="8.494375">
|
|
<ele>15.463265</ele>
|
|
<time>2026-07-11T08:44:23.000Z</time>
|
|
</trkpt>
|
|
<trkpt lat="55.468971" lon="8.494351">
|
|
<ele>15.490535</ele>
|
|
<time>2026-07-11T08:44:24.000Z</time>
|
|
</trkpt>
|
|
<trkpt lat="55.468975" lon="8.494346">
|
|
<ele>15.500361</ele>
|
|
<time>2026-07-11T08:44:26.000Z</time>
|
|
</trkpt>
|
|
<trkpt lat="55.468975" lon="8.494345">
|
|
<ele>15.501498</ele>
|
|
<time>2026-07-11T08:44:27.000Z</time>
|
|
</trkpt>
|
|
<trkpt lat="55.468975" lon="8.494345">
|
|
<ele>15.501498</ele>
|
|
<time>2026-07-11T08:44:28.000Z</time>
|
|
</trkpt>
|
|
<trkpt lat="55.468977" lon="8.494332">
|
|
<ele>15.516803</ele>
|
|
<time>2026-07-11T08:44:30.000Z</time>
|
|
</trkpt>
|
|
<trkpt lat="55.468979" lon="8.494310">
|
|
<ele>15.542120</ele>
|
|
<time>2026-07-11T08:44:31.000Z</time>
|
|
</trkpt>
|
|
<trkpt lat="55.468982" lon="8.494289">
|
|
<ele>15.566727</ele>
|
|
<time>2026-07-11T08:44:32.000Z</time>
|
|
</trkpt>
|
|
<trkpt lat="55.468992" lon="8.494267">
|
|
<ele>15.598769</ele>
|
|
<time>2026-07-11T08:44:33.000Z</time>
|
|
</trkpt>
|
|
<trkpt lat="55.469005" lon="8.494247">
|
|
<ele>15.633344</ele>
|
|
<time>2026-07-11T08:44:34.000Z</time>
|
|
</trkpt>
|
|
<trkpt lat="55.469022" lon="8.494228">
|
|
<ele>15.673683</ele>
|
|
<time>2026-07-11T08:44:35.000Z</time>
|
|
</trkpt>
|
|
<trkpt lat="55.469042" lon="8.494208">
|
|
<ele>15.719766</ele>
|
|
<time>2026-07-11T08:44:36.000Z</time>
|
|
</trkpt>
|
|
<trkpt lat="55.469064" lon="8.494184">
|
|
<ele>15.771615</ele>
|
|
<time>2026-07-11T08:44:37.000Z</time>
|
|
</trkpt>
|
|
<trkpt lat="55.469085" lon="8.494161">
|
|
<ele>15.821162</ele>
|
|
<time>2026-07-11T08:44:38.000Z</time>
|
|
</trkpt>
|
|
<trkpt lat="55.469109" lon="8.494142">
|
|
<ele>15.873891</ele>
|
|
<time>2026-07-11T08:44:39.000Z</time>
|
|
</trkpt>
|
|
<trkpt lat="55.469138" lon="8.494128">
|
|
<ele>15.934159</ele>
|
|
<time>2026-07-11T08:44:40.000Z</time>
|
|
</trkpt>
|
|
<trkpt lat="55.469170" lon="8.494115">
|
|
<ele>15.999981</ele>
|
|
<time>2026-07-11T08:44:41.000Z</time>
|
|
</trkpt>
|
|
<trkpt lat="55.469204" lon="8.494101">
|
|
<ele>16.069965</ele>
|
|
<time>2026-07-11T08:44:42.000Z</time>
|
|
</trkpt>
|
|
<trkpt lat="55.469237" lon="8.494087">
|
|
<ele>16.137999</ele>
|
|
<time>2026-07-11T08:44:43.000Z</time>
|
|
</trkpt>
|
|
<trkpt lat="55.469271" lon="8.494073">
|
|
<ele>16.207983</ele>
|
|
<time>2026-07-11T08:44:44.000Z</time>
|
|
</trkpt>
|
|
<trkpt lat="55.469307" lon="8.494060">
|
|
<ele>16.281641</ele>
|
|
<time>2026-07-11T08:44:45.000Z</time>
|
|
</trkpt>
|
|
<trkpt lat="55.469345" lon="8.494050">
|
|
<ele>16.358654</ele>
|
|
<time>2026-07-11T08:44:46.000Z</time>
|
|
</trkpt>
|
|
<trkpt lat="55.469385" lon="8.494038">
|
|
<ele>16.439984</ele>
|
|
<time>2026-07-11T08:44:47.000Z</time>
|
|
</trkpt>
|
|
<trkpt lat="55.469425" lon="8.494025">
|
|
<ele>16.521513</ele>
|
|
<time>2026-07-11T08:44:48.000Z</time>
|
|
</trkpt>
|
|
<trkpt lat="55.469466" lon="8.494010">
|
|
<ele>16.605445</ele>
|
|
<time>2026-07-11T08:44:49.000Z</time>
|
|
</trkpt>
|
|
<trkpt lat="55.469505" lon="8.493995">
|
|
<ele>16.685456</ele>
|
|
<time>2026-07-11T08:44:50.000Z</time>
|
|
</trkpt>
|
|
<trkpt lat="55.469549" lon="8.493984">
|
|
<ele>16.774534</ele>
|
|
<time>2026-07-11T08:44:51.000Z</time>
|
|
</trkpt>
|
|
<trkpt lat="55.469595" lon="8.493975">
|
|
<ele>16.867306</ele>
|
|
<time>2026-07-11T08:44:52.000Z</time>
|
|
</trkpt>
|
|
<trkpt lat="55.469639" lon="8.493966">
|
|
<ele>16.956094</ele>
|
|
<time>2026-07-11T08:44:53.000Z</time>
|
|
</trkpt>
|
|
<trkpt lat="55.469681" lon="8.493953">
|
|
<ele>17.041568</ele>
|
|
<time>2026-07-11T08:44:54.000Z</time>
|
|
</trkpt>
|
|
<trkpt lat="55.469725" lon="8.493937">
|
|
<ele>17.131620</ele>
|
|
<time>2026-07-11T08:44:55.000Z</time>
|
|
</trkpt>
|
|
<trkpt lat="55.469769" lon="8.493921">
|
|
<ele>17.221671</ele>
|
|
<time>2026-07-11T08:44:56.000Z</time>
|
|
</trkpt>
|
|
<trkpt lat="55.469811" lon="8.493906">
|
|
<ele>17.277065</ele>
|
|
<time>2026-07-11T08:44:57.000Z</time>
|
|
</trkpt>
|
|
<trkpt lat="55.469854" lon="8.493890">
|
|
<ele>17.288069</ele>
|
|
<time>2026-07-11T08:44:58.000Z</time>
|
|
</trkpt>
|
|
<trkpt lat="55.469898" lon="8.493879">
|
|
<ele>17.299197</ele>
|
|
<time>2026-07-11T08:44:59.000Z</time>
|
|
</trkpt>
|
|
<trkpt lat="55.469942" lon="8.493868">
|
|
<ele>17.310324</ele>
|
|
<time>2026-07-11T08:45:00.000Z</time>
|
|
</trkpt>
|
|
<trkpt lat="55.469988" lon="8.493854">
|
|
<ele>17.322013</ele>
|
|
<time>2026-07-11T08:45:01.000Z</time>
|
|
</trkpt>
|
|
<trkpt lat="55.470034" lon="8.493839">
|
|
<ele>17.333726</ele>
|
|
<time>2026-07-11T08:45:02.000Z</time>
|
|
</trkpt>
|
|
<trkpt lat="55.470081" lon="8.493826">
|
|
<ele>17.345639</ele>
|
|
<time>2026-07-11T08:45:03.000Z</time>
|
|
</trkpt>
|
|
<trkpt lat="55.470129" lon="8.493811">
|
|
<ele>17.357845</ele>
|
|
<time>2026-07-11T08:45:04.000Z</time>
|
|
</trkpt>
|
|
<trkpt lat="55.470176" lon="8.493796">
|
|
<ele>17.369805</ele>
|
|
<time>2026-07-11T08:45:05.000Z</time>
|
|
</trkpt>
|
|
<trkpt lat="55.470224" lon="8.493779">
|
|
<ele>17.382064</ele>
|
|
<time>2026-07-11T08:45:06.000Z</time>
|
|
</trkpt>
|
|
<trkpt lat="55.470270" lon="8.493762">
|
|
<ele>17.393833</ele>
|
|
<time>2026-07-11T08:45:07.000Z</time>
|
|
</trkpt>
|
|
<trkpt lat="55.470319" lon="8.493746">
|
|
<ele>17.406311</ele>
|
|
<time>2026-07-11T08:45:08.000Z</time>
|
|
</trkpt>
|
|
<trkpt lat="55.470369" lon="8.493729">
|
|
<ele>17.419061</ele>
|
|
<time>2026-07-11T08:45:09.000Z</time>
|
|
</trkpt>
|
|
<trkpt lat="55.470416" lon="8.493712">
|
|
<ele>17.431075</ele>
|
|
<time>2026-07-11T08:45:10.000Z</time>
|
|
</trkpt>
|
|
<trkpt lat="55.470466" lon="8.493695">
|
|
<ele>17.443825</ele>
|
|
<time>2026-07-11T08:45:11.000Z</time>
|
|
</trkpt>
|
|
<trkpt lat="55.470518" lon="8.493680">
|
|
<ele>17.457019</ele>
|
|
<time>2026-07-11T08:45:12.000Z</time>
|
|
</trkpt>
|
|
<trkpt lat="55.470571" lon="8.493665">
|
|
<ele>17.470460</ele>
|
|
<time>2026-07-11T08:45:13.000Z</time>
|
|
</trkpt>
|
|
<trkpt lat="55.470623" lon="8.493652">
|
|
<ele>17.483611</ele>
|
|
<time>2026-07-11T08:45:14.000Z</time>
|
|
</trkpt>
|
|
<trkpt lat="55.470672" lon="8.493637">
|
|
<ele>17.496064</ele>
|
|
<time>2026-07-11T08:45:15.000Z</time>
|
|
</trkpt>
|
|
<trkpt lat="55.470722" lon="8.493622">
|
|
<ele>17.508764</ele>
|
|
<time>2026-07-11T08:45:16.000Z</time>
|
|
</trkpt>
|
|
<trkpt lat="55.470773" lon="8.493609">
|
|
<ele>17.521667</ele>
|
|
<time>2026-07-11T08:45:17.000Z</time>
|
|
</trkpt>
|
|
<trkpt lat="55.470825" lon="8.493595">
|
|
<ele>17.534838</ele>
|
|
<time>2026-07-11T08:45:18.000Z</time>
|
|
</trkpt>
|
|
<trkpt lat="55.470875" lon="8.493578">
|
|
<ele>17.547589</ele>
|
|
<time>2026-07-11T08:45:19.000Z</time>
|
|
</trkpt>
|
|
<trkpt lat="55.470926" lon="8.493559">
|
|
<ele>17.560641</ele>
|
|
<time>2026-07-11T08:45:20.000Z</time>
|
|
</trkpt>
|
|
<trkpt lat="55.470979" lon="8.493541">
|
|
<ele>17.574156</ele>
|
|
<time>2026-07-11T08:45:21.000Z</time>
|
|
</trkpt>
|
|
<trkpt lat="55.471033" lon="8.493525">
|
|
<ele>17.587867</ele>
|
|
<time>2026-07-11T08:45:22.000Z</time>
|
|
</trkpt>
|
|
<trkpt lat="55.471086" lon="8.493511">
|
|
<ele>17.601286</ele>
|
|
<time>2026-07-11T08:45:23.000Z</time>
|
|
</trkpt>
|
|
<trkpt lat="55.471139" lon="8.493498">
|
|
<ele>17.614685</ele>
|
|
<time>2026-07-11T08:45:24.000Z</time>
|
|
</trkpt>
|
|
<trkpt lat="55.471186" lon="8.493483">
|
|
<ele>17.626645</ele>
|
|
<time>2026-07-11T08:45:25.000Z</time>
|
|
</trkpt>
|
|
<trkpt lat="55.471230" lon="8.493467">
|
|
<ele>17.637894</ele>
|
|
<time>2026-07-11T08:45:26.000Z</time>
|
|
</trkpt>
|
|
<trkpt lat="55.471276" lon="8.493450">
|
|
<ele>17.649662</ele>
|
|
<time>2026-07-11T08:45:27.000Z</time>
|
|
</trkpt>
|
|
<trkpt lat="55.471315" lon="8.493437">
|
|
<ele>17.659601</ele>
|
|
<time>2026-07-11T08:45:28.000Z</time>
|
|
</trkpt>
|
|
<trkpt lat="55.471371" lon="8.493420">
|
|
<ele>17.673829</ele>
|
|
<time>2026-07-11T08:45:29.000Z</time>
|
|
</trkpt>
|
|
<trkpt lat="55.471422" lon="8.493406">
|
|
<ele>17.686754</ele>
|
|
<time>2026-07-11T08:45:30.000Z</time>
|
|
</trkpt>
|
|
<trkpt lat="55.471470" lon="8.493391">
|
|
<ele>17.698960</ele>
|
|
<time>2026-07-11T08:45:31.000Z</time>
|
|
</trkpt>
|
|
<trkpt lat="55.471519" lon="8.493377">
|
|
<ele>17.711389</ele>
|
|
<time>2026-07-11T08:45:32.000Z</time>
|
|
</trkpt>
|
|
<trkpt lat="55.471569" lon="8.493367">
|
|
<ele>17.716719</ele>
|
|
<time>2026-07-11T08:45:33.000Z</time>
|
|
</trkpt>
|
|
<trkpt lat="55.471618" lon="8.493356">
|
|
<ele>17.628857</ele>
|
|
<time>2026-07-11T08:45:34.000Z</time>
|
|
</trkpt>
|
|
<trkpt lat="55.471668" lon="8.493342">
|
|
<ele>17.538806</ele>
|
|
<time>2026-07-11T08:45:35.000Z</time>
|
|
</trkpt>
|
|
<trkpt lat="55.471718" lon="8.493324">
|
|
<ele>17.448036</ele>
|
|
<time>2026-07-11T08:45:36.000Z</time>
|
|
</trkpt>
|
|
<trkpt lat="55.471767" lon="8.493305">
|
|
<ele>17.358796</ele>
|
|
<time>2026-07-11T08:45:37.000Z</time>
|
|
</trkpt>
|
|
<trkpt lat="55.471815" lon="8.493288">
|
|
<ele>17.271713</ele>
|
|
<time>2026-07-11T08:45:38.000Z</time>
|
|
</trkpt>
|
|
<trkpt lat="55.471863" lon="8.493273">
|
|
<ele>17.185003</ele>
|
|
<time>2026-07-11T08:45:39.000Z</time>
|
|
</trkpt>
|
|
<trkpt lat="55.471910" lon="8.493257">
|
|
<ele>17.099860</ele>
|
|
<time>2026-07-11T08:45:40.000Z</time>
|
|
</trkpt>
|
|
<trkpt lat="55.471958" lon="8.493241">
|
|
<ele>17.012969</ele>
|
|
<time>2026-07-11T08:45:41.000Z</time>
|
|
</trkpt>
|
|
<trkpt lat="55.472006" lon="8.493228">
|
|
<ele>16.926589</ele>
|
|
<time>2026-07-11T08:45:42.000Z</time>
|
|
</trkpt>
|
|
<trkpt lat="55.472053" lon="8.493214">
|
|
<ele>16.841804</ele>
|
|
<time>2026-07-11T08:45:43.000Z</time>
|
|
</trkpt>
|
|
<trkpt lat="55.472101" lon="8.493201">
|
|
<ele>16.755424</ele>
|
|
<time>2026-07-11T08:45:44.000Z</time>
|
|
</trkpt>
|
|
<trkpt lat="55.472147" lon="8.493187">
|
|
<ele>16.672392</ele>
|
|
<time>2026-07-11T08:45:45.000Z</time>
|
|
</trkpt>
|
|
<trkpt lat="55.472191" lon="8.493171">
|
|
<ele>16.592482</ele>
|
|
<time>2026-07-11T08:45:46.000Z</time>
|
|
</trkpt>
|
|
<trkpt lat="55.472235" lon="8.493158">
|
|
<ele>16.513127</ele>
|
|
<time>2026-07-11T08:45:47.000Z</time>
|
|
</trkpt>
|
|
<trkpt lat="55.472278" lon="8.493146">
|
|
<ele>16.435690</ele>
|
|
<time>2026-07-11T08:45:48.000Z</time>
|
|
</trkpt>
|
|
<trkpt lat="55.472322" lon="8.493132">
|
|
<ele>16.356162</ele>
|
|
<time>2026-07-11T08:45:49.000Z</time>
|
|
</trkpt>
|
|
<trkpt lat="55.472369" lon="8.493119">
|
|
<ele>16.271539</ele>
|
|
<time>2026-07-11T08:45:50.000Z</time>
|
|
</trkpt>
|
|
<trkpt lat="55.472419" lon="8.493107">
|
|
<ele>16.181782</ele>
|
|
<time>2026-07-11T08:45:51.000Z</time>
|
|
</trkpt>
|
|
<trkpt lat="55.472469" lon="8.493094">
|
|
<ele>16.091884</ele>
|
|
<time>2026-07-11T08:45:52.000Z</time>
|
|
</trkpt>
|
|
<trkpt lat="55.472521" lon="8.493082">
|
|
<ele>15.998601</ele>
|
|
<time>2026-07-11T08:45:53.000Z</time>
|
|
</trkpt>
|
|
<trkpt lat="55.472574" lon="8.493071">
|
|
<ele>15.903677</ele>
|
|
<time>2026-07-11T08:45:54.000Z</time>
|
|
</trkpt>
|
|
<trkpt lat="55.472629" lon="8.493060">
|
|
<ele>15.805219</ele>
|
|
<time>2026-07-11T08:45:55.000Z</time>
|
|
</trkpt>
|
|
<trkpt lat="55.472686" lon="8.493051">
|
|
<ele>15.703425</ele>
|
|
<time>2026-07-11T08:45:56.000Z</time>
|
|
</trkpt>
|
|
<trkpt lat="55.472744" lon="8.493042">
|
|
<ele>15.599859</ele>
|
|
<time>2026-07-11T08:45:57.000Z</time>
|
|
</trkpt>
|
|
<trkpt lat="55.472801" lon="8.493036">
|
|
<ele>15.498289</ele>
|
|
<time>2026-07-11T08:45:58.000Z</time>
|
|
</trkpt>
|
|
<trkpt lat="55.472857" lon="8.493033">
|
|
<ele>15.398633</ele>
|
|
<time>2026-07-11T08:45:59.000Z</time>
|
|
</trkpt>
|
|
<trkpt lat="55.472915" lon="8.493031">
|
|
<ele>15.295446</ele>
|
|
<time>2026-07-11T08:46:00.000Z</time>
|
|
</trkpt>
|
|
<trkpt lat="55.472974" lon="8.493027">
|
|
<ele>15.190422</ele>
|
|
<time>2026-07-11T08:46:01.000Z</time>
|
|
</trkpt>
|
|
<trkpt lat="55.473035" lon="8.493021">
|
|
<ele>15.081749</ele>
|
|
<time>2026-07-11T08:46:02.000Z</time>
|
|
</trkpt>
|
|
<trkpt lat="55.473094" lon="8.493013">
|
|
<ele>14.976493</ele>
|
|
<time>2026-07-11T08:46:03.000Z</time>
|
|
</trkpt>
|
|
<trkpt lat="55.473154" lon="8.493007">
|
|
<ele>14.869597</ele>
|
|
<time>2026-07-11T08:46:04.000Z</time>
|
|
</trkpt>
|
|
<trkpt lat="55.473216" lon="8.493003">
|
|
<ele>14.759240</ele>
|
|
<time>2026-07-11T08:46:05.000Z</time>
|
|
</trkpt>
|
|
<trkpt lat="55.473281" lon="8.493000">
|
|
<ele>14.643582</ele>
|
|
<time>2026-07-11T08:46:06.000Z</time>
|
|
</trkpt>
|
|
<trkpt lat="55.473346" lon="8.492999">
|
|
<ele>14.527958</ele>
|
|
<time>2026-07-11T08:46:07.000Z</time>
|
|
</trkpt>
|
|
<trkpt lat="55.473412" lon="8.492995">
|
|
<ele>14.510849</ele>
|
|
<time>2026-07-11T08:46:08.000Z</time>
|
|
</trkpt>
|
|
<trkpt lat="55.473475" lon="8.492988">
|
|
<ele>14.498061</ele>
|
|
<time>2026-07-11T08:46:09.000Z</time>
|
|
</trkpt>
|
|
<trkpt lat="55.473539" lon="8.492981">
|
|
<ele>14.485071</ele>
|
|
<time>2026-07-11T08:46:10.000Z</time>
|
|
</trkpt>
|
|
<trkpt lat="55.473602" lon="8.492976">
|
|
<ele>14.472295</ele>
|
|
<time>2026-07-11T08:46:11.000Z</time>
|
|
</trkpt>
|
|
<trkpt lat="55.473666" lon="8.492976">
|
|
<ele>14.459330</ele>
|
|
<time>2026-07-11T08:46:12.000Z</time>
|
|
</trkpt>
|
|
<trkpt lat="55.473733" lon="8.492981">
|
|
<ele>14.445744</ele>
|
|
<time>2026-07-11T08:46:13.000Z</time>
|
|
</trkpt>
|
|
<trkpt lat="55.473800" lon="8.492986">
|
|
<ele>14.432159</ele>
|
|
<time>2026-07-11T08:46:14.000Z</time>
|
|
</trkpt>
|
|
<trkpt lat="55.473868" lon="8.492990">
|
|
<ele>14.418376</ele>
|
|
<time>2026-07-11T08:46:15.000Z</time>
|
|
</trkpt>
|
|
<trkpt lat="55.473944" lon="8.492995">
|
|
<ele>14.402969</ele>
|
|
<time>2026-07-11T08:46:16.000Z</time>
|
|
</trkpt>
|
|
<trkpt lat="55.474020" lon="8.493002">
|
|
<ele>14.387551</ele>
|
|
<time>2026-07-11T08:46:17.000Z</time>
|
|
</trkpt>
|
|
<trkpt lat="55.474093" lon="8.493008">
|
|
<ele>14.372747</ele>
|
|
<time>2026-07-11T08:46:18.000Z</time>
|
|
</trkpt>
|
|
<trkpt lat="55.474166" lon="8.493016">
|
|
<ele>14.357930</ele>
|
|
<time>2026-07-11T08:46:19.000Z</time>
|
|
</trkpt>
|
|
<trkpt lat="55.474237" lon="8.493025">
|
|
<ele>14.343509</ele>
|
|
<time>2026-07-11T08:46:20.000Z</time>
|
|
</trkpt>
|
|
<trkpt lat="55.474302" lon="8.493031">
|
|
<ele>14.330323</ele>
|
|
<time>2026-07-11T08:46:21.000Z</time>
|
|
</trkpt>
|
|
<trkpt lat="55.474368" lon="8.493033">
|
|
<ele>14.316951</ele>
|
|
<time>2026-07-11T08:46:22.000Z</time>
|
|
</trkpt>
|
|
<trkpt lat="55.474438" lon="8.493034">
|
|
<ele>14.302769</ele>
|
|
<time>2026-07-11T08:46:23.000Z</time>
|
|
</trkpt>
|
|
<trkpt lat="55.474501" lon="8.493034">
|
|
<ele>14.290006</ele>
|
|
<time>2026-07-11T08:46:24.000Z</time>
|
|
</trkpt>
|
|
<trkpt lat="55.474564" lon="8.493030">
|
|
<ele>14.277235</ele>
|
|
<time>2026-07-11T08:46:25.000Z</time>
|
|
</trkpt>
|
|
<trkpt lat="55.474625" lon="8.493021">
|
|
<ele>14.264835</ele>
|
|
<time>2026-07-11T08:46:26.000Z</time>
|
|
</trkpt>
|
|
<trkpt lat="55.474685" lon="8.493010">
|
|
<ele>14.252614</ele>
|
|
<time>2026-07-11T08:46:27.000Z</time>
|
|
</trkpt>
|
|
<trkpt lat="55.474743" lon="8.492999">
|
|
<ele>14.240797</ele>
|
|
<time>2026-07-11T08:46:28.000Z</time>
|
|
</trkpt>
|
|
<trkpt lat="55.474798" lon="8.492985">
|
|
<ele>14.229539</ele>
|
|
<time>2026-07-11T08:46:29.000Z</time>
|
|
</trkpt>
|
|
<trkpt lat="55.474855" lon="8.492972">
|
|
<ele>14.217896</ele>
|
|
<time>2026-07-11T08:46:30.000Z</time>
|
|
</trkpt>
|
|
<trkpt lat="55.474914" lon="8.492960">
|
|
<ele>14.205864</ele>
|
|
<time>2026-07-11T08:46:31.000Z</time>
|
|
</trkpt>
|
|
<trkpt lat="55.474971" lon="8.492944">
|
|
<ele>14.194172</ele>
|
|
<time>2026-07-11T08:46:32.000Z</time>
|
|
</trkpt>
|
|
<trkpt lat="55.475029" lon="8.492929">
|
|
<ele>14.182296</ele>
|
|
<time>2026-07-11T08:46:33.000Z</time>
|
|
</trkpt>
|
|
<trkpt lat="55.475087" lon="8.492911">
|
|
<ele>14.170366</ele>
|
|
<time>2026-07-11T08:46:34.000Z</time>
|
|
</trkpt>
|
|
<trkpt lat="55.475145" lon="8.492891">
|
|
<ele>14.166838</ele>
|
|
<time>2026-07-11T08:46:35.000Z</time>
|
|
</trkpt>
|
|
<trkpt lat="55.475204" lon="8.492871">
|
|
<ele>14.259760</ele>
|
|
<time>2026-07-11T08:46:36.000Z</time>
|
|
</trkpt>
|
|
<trkpt lat="55.475261" lon="8.492851">
|
|
<ele>14.349647</ele>
|
|
<time>2026-07-11T08:46:37.000Z</time>
|
|
</trkpt>
|
|
<trkpt lat="55.475318" lon="8.492830">
|
|
<ele>14.439709</ele>
|
|
<time>2026-07-11T08:46:38.000Z</time>
|
|
</trkpt>
|
|
<trkpt lat="55.475374" lon="8.492809">
|
|
<ele>14.528257</ele>
|
|
<time>2026-07-11T08:46:39.000Z</time>
|
|
</trkpt>
|
|
<trkpt lat="55.475429" lon="8.492788">
|
|
<ele>14.615293</ele>
|
|
<time>2026-07-11T08:46:40.000Z</time>
|
|
</trkpt>
|
|
<trkpt lat="55.475485" lon="8.492762">
|
|
<ele>14.704855</ele>
|
|
<time>2026-07-11T08:46:41.000Z</time>
|
|
</trkpt>
|
|
<trkpt lat="55.475538" lon="8.492734">
|
|
<ele>14.790424</ele>
|
|
<time>2026-07-11T08:46:42.000Z</time>
|
|
</trkpt>
|
|
<trkpt lat="55.475593" lon="8.492706">
|
|
<ele>14.878961</ele>
|
|
<time>2026-07-11T08:46:43.000Z</time>
|
|
</trkpt>
|
|
<trkpt lat="55.475649" lon="8.492677">
|
|
<ele>14.969228</ele>
|
|
<time>2026-07-11T08:46:44.000Z</time>
|
|
</trkpt>
|
|
<trkpt lat="55.475701" lon="8.492647">
|
|
<ele>15.053845</ele>
|
|
<time>2026-07-11T08:46:45.000Z</time>
|
|
</trkpt>
|
|
<trkpt lat="55.475750" lon="8.492615">
|
|
<ele>15.134657</ele>
|
|
<time>2026-07-11T08:46:46.000Z</time>
|
|
</trkpt>
|
|
<trkpt lat="55.475801" lon="8.492582">
|
|
<ele>15.218674</ele>
|
|
<time>2026-07-11T08:46:47.000Z</time>
|
|
</trkpt>
|
|
<trkpt lat="55.475853" lon="8.492549">
|
|
<ele>15.304145</ele>
|
|
<time>2026-07-11T08:46:48.000Z</time>
|
|
</trkpt>
|
|
<trkpt lat="55.475902" lon="8.492516">
|
|
<ele>15.385265</ele>
|
|
<time>2026-07-11T08:46:49.000Z</time>
|
|
</trkpt>
|
|
<trkpt lat="55.475952" lon="8.492485">
|
|
<ele>15.467234</ele>
|
|
<time>2026-07-11T08:46:50.000Z</time>
|
|
</trkpt>
|
|
<trkpt lat="55.476001" lon="8.492453">
|
|
<ele>15.548045</ele>
|
|
<time>2026-07-11T08:46:51.000Z</time>
|
|
</trkpt>
|
|
<trkpt lat="55.476053" lon="8.492420">
|
|
<ele>15.633516</ele>
|
|
<time>2026-07-11T08:46:52.000Z</time>
|
|
</trkpt>
|
|
<trkpt lat="55.476103" lon="8.492387">
|
|
<ele>15.716083</ele>
|
|
<time>2026-07-11T08:46:53.000Z</time>
|
|
</trkpt>
|
|
<trkpt lat="55.476154" lon="8.492352">
|
|
<ele>15.800719</ele>
|
|
<time>2026-07-11T08:46:54.000Z</time>
|
|
</trkpt>
|
|
<trkpt lat="55.476210" lon="8.492313">
|
|
<ele>15.893836</ele>
|
|
<time>2026-07-11T08:46:55.000Z</time>
|
|
</trkpt>
|
|
<trkpt lat="55.476263" lon="8.492273">
|
|
<ele>15.982993</ele>
|
|
<time>2026-07-11T08:46:56.000Z</time>
|
|
</trkpt>
|
|
<trkpt lat="55.476314" lon="8.492233">
|
|
<ele>16.069315</ele>
|
|
<time>2026-07-11T08:46:57.000Z</time>
|
|
</trkpt>
|
|
<trkpt lat="55.476363" lon="8.492190">
|
|
<ele>16.153958</ele>
|
|
<time>2026-07-11T08:46:58.000Z</time>
|
|
</trkpt>
|
|
<trkpt lat="55.476413" lon="8.492143">
|
|
<ele>16.241581</ele>
|
|
<time>2026-07-11T08:46:59.000Z</time>
|
|
</trkpt>
|
|
<trkpt lat="55.476463" lon="8.492097">
|
|
<ele>16.328796</ele>
|
|
<time>2026-07-11T08:47:00.000Z</time>
|
|
</trkpt>
|
|
<trkpt lat="55.476511" lon="8.492053">
|
|
<ele>16.412457</ele>
|
|
<time>2026-07-11T08:47:01.000Z</time>
|
|
</trkpt>
|
|
<trkpt lat="55.476556" lon="8.492009">
|
|
<ele>16.492029</ele>
|
|
<time>2026-07-11T08:47:02.000Z</time>
|
|
</trkpt>
|
|
<trkpt lat="55.476600" lon="8.491964">
|
|
<ele>16.570688</ele>
|
|
<time>2026-07-11T08:47:03.000Z</time>
|
|
</trkpt>
|
|
<trkpt lat="55.476642" lon="8.491917">
|
|
<ele>16.647611</ele>
|
|
<time>2026-07-11T08:47:04.000Z</time>
|
|
</trkpt>
|
|
<trkpt lat="55.476688" lon="8.491867">
|
|
<ele>16.731174</ele>
|
|
<time>2026-07-11T08:47:05.000Z</time>
|
|
</trkpt>
|
|
<trkpt lat="55.476736" lon="8.491815">
|
|
<ele>16.818290</ele>
|
|
<time>2026-07-11T08:47:06.000Z</time>
|
|
</trkpt>
|
|
<trkpt lat="55.476782" lon="8.491766">
|
|
<ele>16.901397</ele>
|
|
<time>2026-07-11T08:47:07.000Z</time>
|
|
</trkpt>
|
|
<trkpt lat="55.476828" lon="8.491718">
|
|
<ele>16.971922</ele>
|
|
<time>2026-07-11T08:47:08.000Z</time>
|
|
</trkpt>
|
|
<trkpt lat="55.476872" lon="8.491670">
|
|
<ele>17.029236</ele>
|
|
<time>2026-07-11T08:47:09.000Z</time>
|
|
</trkpt>
|
|
<trkpt lat="55.476915" lon="8.491619">
|
|
<ele>17.086641</ele>
|
|
<time>2026-07-11T08:47:10.000Z</time>
|
|
</trkpt>
|
|
<trkpt lat="55.476961" lon="8.491563">
|
|
<ele>17.148560</ele>
|
|
<time>2026-07-11T08:47:11.000Z</time>
|
|
</trkpt>
|
|
<trkpt lat="55.477008" lon="8.491506">
|
|
<ele>17.211747</ele>
|
|
<time>2026-07-11T08:47:12.000Z</time>
|
|
</trkpt>
|
|
<trkpt lat="55.477058" lon="8.491449">
|
|
<ele>17.277701</ele>
|
|
<time>2026-07-11T08:47:13.000Z</time>
|
|
</trkpt>
|
|
<trkpt lat="55.477104" lon="8.491392">
|
|
<ele>17.339979</ele>
|
|
<time>2026-07-11T08:47:14.000Z</time>
|
|
</trkpt>
|
|
<trkpt lat="55.477146" lon="8.491337">
|
|
<ele>17.397928</ele>
|
|
<time>2026-07-11T08:47:15.000Z</time>
|
|
</trkpt>
|
|
<trkpt lat="55.477186" lon="8.491281">
|
|
<ele>17.454501</ele>
|
|
<time>2026-07-11T08:47:16.000Z</time>
|
|
</trkpt>
|
|
<trkpt lat="55.477225" lon="8.491224">
|
|
<ele>17.510609</ele>
|
|
<time>2026-07-11T08:47:17.000Z</time>
|
|
</trkpt>
|
|
<trkpt lat="55.477261" lon="8.491166">
|
|
<ele>17.564621</ele>
|
|
<time>2026-07-11T08:47:18.000Z</time>
|
|
</trkpt>
|
|
<trkpt lat="55.477297" lon="8.491107">
|
|
<ele>17.619058</ele>
|
|
<time>2026-07-11T08:47:19.000Z</time>
|
|
</trkpt>
|
|
<trkpt lat="55.477334" lon="8.491047">
|
|
<ele>17.674734</ele>
|
|
<time>2026-07-11T08:47:20.000Z</time>
|
|
</trkpt>
|
|
<trkpt lat="55.477370" lon="8.490989">
|
|
<ele>17.728746</ele>
|
|
<time>2026-07-11T08:47:21.000Z</time>
|
|
</trkpt>
|
|
<trkpt lat="55.477408" lon="8.490934">
|
|
<ele>17.783200</ele>
|
|
<time>2026-07-11T08:47:22.000Z</time>
|
|
</trkpt>
|
|
<trkpt lat="55.477444" lon="8.490880">
|
|
<ele>17.835551</ele>
|
|
<time>2026-07-11T08:47:23.000Z</time>
|
|
</trkpt>
|
|
<trkpt lat="55.477478" lon="8.490826">
|
|
<ele>17.886234</ele>
|
|
<time>2026-07-11T08:47:24.000Z</time>
|
|
</trkpt>
|
|
<trkpt lat="55.477513" lon="8.490769">
|
|
<ele>17.939004</ele>
|
|
<time>2026-07-11T08:47:25.000Z</time>
|
|
</trkpt>
|
|
<trkpt lat="55.477547" lon="8.490712">
|
|
<ele>17.990966</ele>
|
|
<time>2026-07-11T08:47:26.000Z</time>
|
|
</trkpt>
|
|
<trkpt lat="55.477580" lon="8.490656">
|
|
<ele>18.041693</ele>
|
|
<time>2026-07-11T08:47:27.000Z</time>
|
|
</trkpt>
|
|
<trkpt lat="55.477610" lon="8.490601">
|
|
<ele>18.089625</ele>
|
|
<time>2026-07-11T08:47:28.000Z</time>
|
|
</trkpt>
|
|
<trkpt lat="55.477641" lon="8.490545">
|
|
<ele>18.138779</ele>
|
|
<time>2026-07-11T08:47:29.000Z</time>
|
|
</trkpt>
|
|
<trkpt lat="55.477669" lon="8.490488">
|
|
<ele>18.186143</ele>
|
|
<time>2026-07-11T08:47:30.000Z</time>
|
|
</trkpt>
|
|
<trkpt lat="55.477696" lon="8.490431">
|
|
<ele>18.232789</ele>
|
|
<time>2026-07-11T08:47:31.000Z</time>
|
|
</trkpt>
|
|
<trkpt lat="55.477721" lon="8.490380">
|
|
<ele>18.275129</ele>
|
|
<time>2026-07-11T08:47:32.000Z</time>
|
|
</trkpt>
|
|
<trkpt lat="55.477743" lon="8.490334">
|
|
<ele>18.312923</ele>
|
|
<time>2026-07-11T08:47:33.000Z</time>
|
|
</trkpt>
|
|
<trkpt lat="55.477768" lon="8.490284">
|
|
<ele>18.354791</ele>
|
|
<time>2026-07-11T08:47:34.000Z</time>
|
|
</trkpt>
|
|
<trkpt lat="55.477792" lon="8.490235">
|
|
<ele>18.395456</ele>
|
|
<time>2026-07-11T08:47:35.000Z</time>
|
|
</trkpt>
|
|
<trkpt lat="55.477813" lon="8.490186">
|
|
<ele>18.434031</ele>
|
|
<time>2026-07-11T08:47:36.000Z</time>
|
|
</trkpt>
|
|
<trkpt lat="55.477837" lon="8.490130">
|
|
<ele>18.478116</ele>
|
|
<time>2026-07-11T08:47:37.000Z</time>
|
|
</trkpt>
|
|
<trkpt lat="55.477863" lon="8.490071">
|
|
<ele>18.525044</ele>
|
|
<time>2026-07-11T08:47:38.000Z</time>
|
|
</trkpt>
|
|
<trkpt lat="55.477888" lon="8.490014">
|
|
<ele>18.570301</ele>
|
|
<time>2026-07-11T08:47:39.000Z</time>
|
|
</trkpt>
|
|
<trkpt lat="55.477910" lon="8.489956">
|
|
<ele>18.614123</ele>
|
|
<time>2026-07-11T08:47:40.000Z</time>
|
|
</trkpt>
|
|
<trkpt lat="55.477932" lon="8.489898">
|
|
<ele>18.657946</ele>
|
|
<time>2026-07-11T08:47:41.000Z</time>
|
|
</trkpt>
|
|
<trkpt lat="55.477959" lon="8.489840">
|
|
<ele>18.705075</ele>
|
|
<time>2026-07-11T08:47:42.000Z</time>
|
|
</trkpt>
|
|
<trkpt lat="55.477987" lon="8.489787">
|
|
<ele>18.750571</ele>
|
|
<time>2026-07-11T08:47:43.000Z</time>
|
|
</trkpt>
|
|
<trkpt lat="55.478018" lon="8.489730">
|
|
<ele>18.800176</ele>
|
|
<time>2026-07-11T08:47:44.000Z</time>
|
|
</trkpt>
|
|
<trkpt lat="55.478051" lon="8.489671">
|
|
<ele>18.852226</ele>
|
|
<time>2026-07-11T08:47:45.000Z</time>
|
|
</trkpt>
|
|
<trkpt lat="55.478083" lon="8.489609">
|
|
<ele>18.904881</ele>
|
|
<time>2026-07-11T08:47:46.000Z</time>
|
|
</trkpt>
|
|
<trkpt lat="55.478114" lon="8.489545">
|
|
<ele>18.967863</ele>
|
|
<time>2026-07-11T08:47:47.000Z</time>
|
|
</trkpt>
|
|
<trkpt lat="55.478144" lon="8.489487">
|
|
<ele>19.038259</ele>
|
|
<time>2026-07-11T08:47:48.000Z</time>
|
|
</trkpt>
|
|
<trkpt lat="55.478175" lon="8.489432">
|
|
<ele>19.107800</ele>
|
|
<time>2026-07-11T08:47:49.000Z</time>
|
|
</trkpt>
|
|
<trkpt lat="55.478205" lon="8.489374">
|
|
<ele>19.178196</ele>
|
|
<time>2026-07-11T08:47:50.000Z</time>
|
|
</trkpt>
|
|
<trkpt lat="55.478234" lon="8.489317">
|
|
<ele>19.246866</ele>
|
|
<time>2026-07-11T08:47:51.000Z</time>
|
|
</trkpt>
|
|
<trkpt lat="55.478261" lon="8.489261">
|
|
<ele>19.312779</ele>
|
|
<time>2026-07-11T08:47:52.000Z</time>
|
|
</trkpt>
|
|
<trkpt lat="55.478289" lon="8.489204">
|
|
<ele>19.380403</ele>
|
|
<time>2026-07-11T08:47:53.000Z</time>
|
|
</trkpt>
|
|
<trkpt lat="55.478318" lon="8.489145">
|
|
<ele>19.450417</ele>
|
|
<time>2026-07-11T08:47:54.000Z</time>
|
|
</trkpt>
|
|
<trkpt lat="55.478346" lon="8.489085">
|
|
<ele>19.520095</ele>
|
|
<time>2026-07-11T08:47:55.000Z</time>
|
|
</trkpt>
|
|
<trkpt lat="55.478375" lon="8.489025">
|
|
<ele>19.590789</ele>
|
|
<time>2026-07-11T08:47:56.000Z</time>
|
|
</trkpt>
|
|
<trkpt lat="55.478398" lon="8.488969">
|
|
<ele>19.652790</ele>
|
|
<time>2026-07-11T08:47:57.000Z</time>
|
|
</trkpt>
|
|
<trkpt lat="55.478417" lon="8.488910">
|
|
<ele>19.713625</ele>
|
|
<time>2026-07-11T08:47:58.000Z</time>
|
|
</trkpt>
|
|
<trkpt lat="55.478435" lon="8.488850">
|
|
<ele>19.774485</ele>
|
|
<time>2026-07-11T08:47:59.000Z</time>
|
|
</trkpt>
|
|
<trkpt lat="55.478450" lon="8.488795">
|
|
<ele>19.829203</ele>
|
|
<time>2026-07-11T08:48:00.000Z</time>
|
|
</trkpt>
|
|
<trkpt lat="55.478462" lon="8.488746">
|
|
<ele>19.877056</ele>
|
|
<time>2026-07-11T08:48:01.000Z</time>
|
|
</trkpt>
|
|
<trkpt lat="55.478470" lon="8.488707">
|
|
<ele>19.914239</ele>
|
|
<time>2026-07-11T08:48:02.000Z</time>
|
|
</trkpt>
|
|
<trkpt lat="55.478475" lon="8.488681">
|
|
<ele>19.938852</ele>
|
|
<time>2026-07-11T08:48:03.000Z</time>
|
|
</trkpt>
|
|
<trkpt lat="55.478490" lon="8.488607">
|
|
<ele>20.009307</ele>
|
|
<time>2026-07-11T08:48:20.000Z</time>
|
|
</trkpt>
|
|
<trkpt lat="55.478494" lon="8.488570">
|
|
<ele>20.043075</ele>
|
|
<time>2026-07-11T08:48:21.000Z</time>
|
|
</trkpt>
|
|
<trkpt lat="55.478498" lon="8.488525">
|
|
<ele>20.083909</ele>
|
|
<time>2026-07-11T08:48:22.000Z</time>
|
|
</trkpt>
|
|
<trkpt lat="55.478502" lon="8.488483">
|
|
<ele>20.122089</ele>
|
|
<time>2026-07-11T08:48:23.000Z</time>
|
|
</trkpt>
|
|
<trkpt lat="55.478506" lon="8.488442">
|
|
<ele>20.159385</ele>
|
|
<time>2026-07-11T08:48:24.000Z</time>
|
|
</trkpt>
|
|
<trkpt lat="55.478514" lon="8.488384">
|
|
<ele>20.212898</ele>
|
|
<time>2026-07-11T08:48:25.000Z</time>
|
|
</trkpt>
|
|
<trkpt lat="55.478519" lon="8.488327">
|
|
<ele>20.264606</ele>
|
|
<time>2026-07-11T08:48:26.000Z</time>
|
|
</trkpt>
|
|
<trkpt lat="55.478525" lon="8.488264">
|
|
<ele>20.321875</ele>
|
|
<time>2026-07-11T08:48:27.000Z</time>
|
|
</trkpt>
|
|
<trkpt lat="55.478531" lon="8.488199">
|
|
<ele>20.380914</ele>
|
|
<time>2026-07-11T08:48:28.000Z</time>
|
|
</trkpt>
|
|
<trkpt lat="55.478536" lon="8.488134">
|
|
<ele>20.439719</ele>
|
|
<time>2026-07-11T08:48:29.000Z</time>
|
|
</trkpt>
|
|
<trkpt lat="55.478539" lon="8.488069">
|
|
<ele>20.498182</ele>
|
|
<time>2026-07-11T08:48:30.000Z</time>
|
|
</trkpt>
|
|
<trkpt lat="55.478540" lon="8.488001">
|
|
<ele>20.559163</ele>
|
|
<time>2026-07-11T08:48:31.000Z</time>
|
|
</trkpt>
|
|
<trkpt lat="55.478542" lon="8.487932">
|
|
<ele>20.621100</ele>
|
|
<time>2026-07-11T08:48:32.000Z</time>
|
|
</trkpt>
|
|
<trkpt lat="55.478544" lon="8.487861">
|
|
<ele>20.684828</ele>
|
|
<time>2026-07-11T08:48:33.000Z</time>
|
|
</trkpt>
|
|
<trkpt lat="55.478548" lon="8.487787">
|
|
<ele>20.751468</ele>
|
|
<time>2026-07-11T08:48:34.000Z</time>
|
|
</trkpt>
|
|
<trkpt lat="55.478550" lon="8.487712">
|
|
<ele>20.818778</ele>
|
|
<time>2026-07-11T08:48:35.000Z</time>
|
|
</trkpt>
|
|
<trkpt lat="55.478552" lon="8.487642">
|
|
<ele>20.881611</ele>
|
|
<time>2026-07-11T08:48:36.000Z</time>
|
|
</trkpt>
|
|
<trkpt lat="55.478556" lon="8.487572">
|
|
<ele>20.944682</ele>
|
|
<time>2026-07-11T08:48:37.000Z</time>
|
|
</trkpt>
|
|
<trkpt lat="55.478558" lon="8.487502">
|
|
<ele>21.007514</ele>
|
|
<time>2026-07-11T08:48:38.000Z</time>
|
|
</trkpt>
|
|
<trkpt lat="55.478559" lon="8.487429">
|
|
<ele>21.072976</ele>
|
|
<time>2026-07-11T08:48:39.000Z</time>
|
|
</trkpt>
|
|
<trkpt lat="55.478563" lon="8.487353">
|
|
<ele>21.141401</ele>
|
|
<time>2026-07-11T08:48:40.000Z</time>
|
|
</trkpt>
|
|
<trkpt lat="55.478567" lon="8.487280">
|
|
<ele>21.207148</ele>
|
|
<time>2026-07-11T08:48:41.000Z</time>
|
|
</trkpt>
|
|
<trkpt lat="55.478571" lon="8.487211">
|
|
<ele>21.269328</ele>
|
|
<time>2026-07-11T08:48:42.000Z</time>
|
|
</trkpt>
|
|
<trkpt lat="55.478576" lon="8.487145">
|
|
<ele>21.329021</ele>
|
|
<time>2026-07-11T08:48:43.000Z</time>
|
|
</trkpt>
|
|
<trkpt lat="55.478584" lon="8.487081">
|
|
<ele>21.387774</ele>
|
|
<time>2026-07-11T08:48:44.000Z</time>
|
|
</trkpt>
|
|
<trkpt lat="55.478591" lon="8.487011">
|
|
<ele>21.451496</ele>
|
|
<time>2026-07-11T08:48:45.000Z</time>
|
|
</trkpt>
|
|
<trkpt lat="55.478599" lon="8.486938">
|
|
<ele>21.518151</ele>
|
|
<time>2026-07-11T08:48:46.000Z</time>
|
|
</trkpt>
|
|
<trkpt lat="55.478605" lon="8.486861">
|
|
<ele>21.587829</ele>
|
|
<time>2026-07-11T08:48:47.000Z</time>
|
|
</trkpt>
|
|
<trkpt lat="55.478611" lon="8.486782">
|
|
<ele>21.659283</ele>
|
|
<time>2026-07-11T08:48:48.000Z</time>
|
|
</trkpt>
|
|
<trkpt lat="55.478617" lon="8.486704">
|
|
<ele>21.729849</ele>
|
|
<time>2026-07-11T08:48:49.000Z</time>
|
|
</trkpt>
|
|
<trkpt lat="55.478624" lon="8.486629">
|
|
<ele>21.808820</ele>
|
|
<time>2026-07-11T08:48:50.000Z</time>
|
|
</trkpt>
|
|
<trkpt lat="55.478634" lon="8.486555">
|
|
<ele>21.916572</ele>
|
|
<time>2026-07-11T08:48:51.000Z</time>
|
|
</trkpt>
|
|
<trkpt lat="55.478639" lon="8.486482">
|
|
<ele>22.020720</ele>
|
|
<time>2026-07-11T08:48:52.000Z</time>
|
|
</trkpt>
|
|
<trkpt lat="55.478645" lon="8.486410">
|
|
<ele>22.123796</ele>
|
|
<time>2026-07-11T08:48:53.000Z</time>
|
|
</trkpt>
|
|
<trkpt lat="55.478651" lon="8.486337">
|
|
<ele>22.228274</ele>
|
|
<time>2026-07-11T08:48:54.000Z</time>
|
|
</trkpt>
|
|
<trkpt lat="55.478655" lon="8.486263">
|
|
<ele>22.333562</ele>
|
|
<time>2026-07-11T08:48:55.000Z</time>
|
|
</trkpt>
|
|
<trkpt lat="55.478660" lon="8.486190">
|
|
<ele>22.437711</ele>
|
|
<time>2026-07-11T08:48:56.000Z</time>
|
|
</trkpt>
|
|
<trkpt lat="55.478666" lon="8.486117">
|
|
<ele>22.542188</ele>
|
|
<time>2026-07-11T08:48:57.000Z</time>
|
|
</trkpt>
|
|
<trkpt lat="55.478672" lon="8.486043">
|
|
<ele>22.648068</ele>
|
|
<time>2026-07-11T08:48:58.000Z</time>
|
|
</trkpt>
|
|
<trkpt lat="55.478678" lon="8.485968">
|
|
<ele>22.755350</ele>
|
|
<time>2026-07-11T08:48:59.000Z</time>
|
|
</trkpt>
|
|
<trkpt lat="55.478683" lon="8.485894">
|
|
<ele>22.860905</ele>
|
|
<time>2026-07-11T08:49:00.000Z</time>
|
|
</trkpt>
|
|
<trkpt lat="55.478691" lon="8.485820">
|
|
<ele>22.967607</ele>
|
|
<time>2026-07-11T08:49:01.000Z</time>
|
|
</trkpt>
|
|
<trkpt lat="55.478698" lon="8.485745">
|
|
<ele>23.075267</ele>
|
|
<time>2026-07-11T08:49:02.000Z</time>
|
|
</trkpt>
|
|
<trkpt lat="55.478706" lon="8.485669">
|
|
<ele>23.184753</ele>
|
|
<time>2026-07-11T08:49:03.000Z</time>
|
|
</trkpt>
|
|
<trkpt lat="55.478715" lon="8.485591">
|
|
<ele>23.297497</ele>
|
|
<time>2026-07-11T08:49:04.000Z</time>
|
|
</trkpt>
|
|
<trkpt lat="55.478725" lon="8.485510">
|
|
<ele>23.414915</ele>
|
|
<time>2026-07-11T08:49:05.000Z</time>
|
|
</trkpt>
|
|
<trkpt lat="55.478733" lon="8.485432">
|
|
<ele>23.527188</ele>
|
|
<time>2026-07-11T08:49:06.000Z</time>
|
|
</trkpt>
|
|
<trkpt lat="55.478740" lon="8.485351">
|
|
<ele>23.643241</ele>
|
|
<time>2026-07-11T08:49:07.000Z</time>
|
|
</trkpt>
|
|
<trkpt lat="55.478746" lon="8.485266">
|
|
<ele>23.764563</ele>
|
|
<time>2026-07-11T08:49:08.000Z</time>
|
|
</trkpt>
|
|
<trkpt lat="55.478754" lon="8.485185">
|
|
<ele>23.881019</ele>
|
|
<time>2026-07-11T08:49:09.000Z</time>
|
|
</trkpt>
|
|
<trkpt lat="55.478763" lon="8.485103">
|
|
<ele>23.999321</ele>
|
|
<time>2026-07-11T08:49:10.000Z</time>
|
|
</trkpt>
|
|
<trkpt lat="55.478771" lon="8.485022">
|
|
<ele>24.115777</ele>
|
|
<time>2026-07-11T08:49:11.000Z</time>
|
|
</trkpt>
|
|
<trkpt lat="55.478777" lon="8.484942">
|
|
<ele>24.230075</ele>
|
|
<time>2026-07-11T08:49:12.000Z</time>
|
|
</trkpt>
|
|
<trkpt lat="55.478782" lon="8.484863">
|
|
<ele>24.342665</ele>
|
|
<time>2026-07-11T08:49:13.000Z</time>
|
|
</trkpt>
|
|
<trkpt lat="55.478788" lon="8.484786">
|
|
<ele>24.452752</ele>
|
|
<time>2026-07-11T08:49:14.000Z</time>
|
|
</trkpt>
|
|
<trkpt lat="55.478794" lon="8.484708">
|
|
<ele>24.564243</ele>
|
|
<time>2026-07-11T08:49:15.000Z</time>
|
|
</trkpt>
|
|
<trkpt lat="55.478801" lon="8.484632">
|
|
<ele>24.673300</ele>
|
|
<time>2026-07-11T08:49:16.000Z</time>
|
|
</trkpt>
|
|
<trkpt lat="55.478809" lon="8.484557">
|
|
<ele>24.781394</ele>
|
|
<time>2026-07-11T08:49:17.000Z</time>
|
|
</trkpt>
|
|
<trkpt lat="55.478817" lon="8.484480">
|
|
<ele>24.892272</ele>
|
|
<time>2026-07-11T08:49:18.000Z</time>
|
|
</trkpt>
|
|
<trkpt lat="55.478823" lon="8.484403">
|
|
<ele>25.002360</ele>
|
|
<time>2026-07-11T08:49:19.000Z</time>
|
|
</trkpt>
|
|
<trkpt lat="55.478828" lon="8.484327">
|
|
<ele>25.110727</ele>
|
|
<time>2026-07-11T08:49:20.000Z</time>
|
|
</trkpt>
|
|
<trkpt lat="55.478834" lon="8.484252">
|
|
<ele>25.218009</ele>
|
|
<time>2026-07-11T08:49:21.000Z</time>
|
|
</trkpt>
|
|
<trkpt lat="55.478838" lon="8.484180">
|
|
<ele>25.320477</ele>
|
|
<time>2026-07-11T08:49:22.000Z</time>
|
|
</trkpt>
|
|
<trkpt lat="55.478843" lon="8.484109">
|
|
<ele>25.421813</ele>
|
|
<time>2026-07-11T08:49:23.000Z</time>
|
|
</trkpt>
|
|
<trkpt lat="55.478849" lon="8.484037">
|
|
<ele>25.524889</ele>
|
|
<time>2026-07-11T08:49:24.000Z</time>
|
|
</trkpt>
|
|
<trkpt lat="55.478855" lon="8.483963">
|
|
<ele>25.630768</ele>
|
|
<time>2026-07-11T08:49:25.000Z</time>
|
|
</trkpt>
|
|
<trkpt lat="55.478861" lon="8.483893">
|
|
<ele>25.731042</ele>
|
|
<time>2026-07-11T08:49:26.000Z</time>
|
|
</trkpt>
|
|
<trkpt lat="55.478864" lon="8.483827">
|
|
<ele>25.824823</ele>
|
|
<time>2026-07-11T08:49:27.000Z</time>
|
|
</trkpt>
|
|
<trkpt lat="55.478868" lon="8.483762">
|
|
<ele>25.917429</ele>
|
|
<time>2026-07-11T08:49:28.000Z</time>
|
|
</trkpt>
|
|
<trkpt lat="55.478872" lon="8.483697">
|
|
<ele>26.010034</ele>
|
|
<time>2026-07-11T08:49:29.000Z</time>
|
|
</trkpt>
|
|
<trkpt lat="55.478878" lon="8.483631">
|
|
<ele>26.104710</ele>
|
|
<time>2026-07-11T08:49:30.000Z</time>
|
|
</trkpt>
|
|
<trkpt lat="55.478885" lon="8.483564">
|
|
<ele>26.201207</ele>
|
|
<time>2026-07-11T08:49:31.000Z</time>
|
|
</trkpt>
|
|
<trkpt lat="55.478893" lon="8.483498">
|
|
<ele>26.283672</ele>
|
|
<time>2026-07-11T08:49:32.000Z</time>
|
|
</trkpt>
|
|
<trkpt lat="55.478901" lon="8.483435">
|
|
<ele>26.320900</ele>
|
|
<time>2026-07-11T08:49:33.000Z</time>
|
|
</trkpt>
|
|
<trkpt lat="55.478906" lon="8.483373">
|
|
<ele>26.357010</ele>
|
|
<time>2026-07-11T08:49:34.000Z</time>
|
|
</trkpt>
|
|
<trkpt lat="55.478910" lon="8.483312">
|
|
<ele>26.392419</ele>
|
|
<time>2026-07-11T08:49:35.000Z</time>
|
|
</trkpt>
|
|
<trkpt lat="55.478914" lon="8.483253">
|
|
<ele>26.426683</ele>
|
|
<time>2026-07-11T08:49:36.000Z</time>
|
|
</trkpt>
|
|
<trkpt lat="55.478918" lon="8.483195">
|
|
<ele>26.460373</ele>
|
|
<time>2026-07-11T08:49:37.000Z</time>
|
|
</trkpt>
|
|
<trkpt lat="55.478920" lon="8.483134">
|
|
<ele>26.495606</ele>
|
|
<time>2026-07-11T08:49:38.000Z</time>
|
|
</trkpt>
|
|
<trkpt lat="55.478922" lon="8.483071">
|
|
<ele>26.531990</ele>
|
|
<time>2026-07-11T08:49:39.000Z</time>
|
|
</trkpt>
|
|
<trkpt lat="55.478926" lon="8.483006">
|
|
<ele>26.569691</ele>
|
|
<time>2026-07-11T08:49:40.000Z</time>
|
|
</trkpt>
|
|
<trkpt lat="55.478928" lon="8.482939">
|
|
<ele>26.608379</ele>
|
|
<time>2026-07-11T08:49:41.000Z</time>
|
|
</trkpt>
|
|
<trkpt lat="55.478928" lon="8.482875">
|
|
<ele>26.645282</ele>
|
|
<time>2026-07-11T08:49:42.000Z</time>
|
|
</trkpt>
|
|
<trkpt lat="55.478928" lon="8.482813">
|
|
<ele>26.681033</ele>
|
|
<time>2026-07-11T08:49:43.000Z</time>
|
|
</trkpt>
|
|
<trkpt lat="55.478929" lon="8.482748">
|
|
<ele>26.718527</ele>
|
|
<time>2026-07-11T08:49:44.000Z</time>
|
|
</trkpt>
|
|
<trkpt lat="55.478937" lon="8.482678">
|
|
<ele>26.759703</ele>
|
|
<time>2026-07-11T08:49:45.000Z</time>
|
|
</trkpt>
|
|
<trkpt lat="55.478946" lon="8.482604">
|
|
<ele>26.803345</ele>
|
|
<time>2026-07-11T08:49:46.000Z</time>
|
|
</trkpt>
|
|
<trkpt lat="55.478955" lon="8.482530">
|
|
<ele>26.846987</ele>
|
|
<time>2026-07-11T08:49:47.000Z</time>
|
|
</trkpt>
|
|
<trkpt lat="55.478965" lon="8.482455">
|
|
<ele>26.891414</ele>
|
|
<time>2026-07-11T08:49:48.000Z</time>
|
|
</trkpt>
|
|
<trkpt lat="55.478973" lon="8.482377">
|
|
<ele>26.937121</ele>
|
|
<time>2026-07-11T08:49:49.000Z</time>
|
|
</trkpt>
|
|
<trkpt lat="55.478981" lon="8.482304">
|
|
<ele>26.979995</ele>
|
|
<time>2026-07-11T08:49:50.000Z</time>
|
|
</trkpt>
|
|
<trkpt lat="55.478988" lon="8.482232">
|
|
<ele>27.022118</ele>
|
|
<time>2026-07-11T08:49:51.000Z</time>
|
|
</trkpt>
|
|
<trkpt lat="55.478994" lon="8.482160">
|
|
<ele>27.064081</ele>
|
|
<time>2026-07-11T08:49:52.000Z</time>
|
|
</trkpt>
|
|
<trkpt lat="55.479000" lon="8.482089">
|
|
<ele>27.105474</ele>
|
|
<time>2026-07-11T08:49:53.000Z</time>
|
|
</trkpt>
|
|
<trkpt lat="55.479007" lon="8.482017">
|
|
<ele>27.147597</ele>
|
|
<time>2026-07-11T08:49:54.000Z</time>
|
|
</trkpt>
|
|
<trkpt lat="55.479013" lon="8.481946">
|
|
<ele>27.188990</ele>
|
|
<time>2026-07-11T08:49:55.000Z</time>
|
|
</trkpt>
|
|
<trkpt lat="55.479019" lon="8.481874">
|
|
<ele>27.230953</ele>
|
|
<time>2026-07-11T08:49:56.000Z</time>
|
|
</trkpt>
|
|
<trkpt lat="55.479023" lon="8.481799">
|
|
<ele>27.274391</ele>
|
|
<time>2026-07-11T08:49:57.000Z</time>
|
|
</trkpt>
|
|
<trkpt lat="55.479025" lon="8.481725">
|
|
<ele>27.317110</ele>
|
|
<time>2026-07-11T08:49:58.000Z</time>
|
|
</trkpt>
|
|
<trkpt lat="55.479029" lon="8.481651">
|
|
<ele>27.359973</ele>
|
|
<time>2026-07-11T08:49:59.000Z</time>
|
|
</trkpt>
|
|
<trkpt lat="55.479032" lon="8.481577">
|
|
<ele>27.402752</ele>
|
|
<time>2026-07-11T08:50:00.000Z</time>
|
|
</trkpt>
|
|
<trkpt lat="55.479038" lon="8.481502">
|
|
<ele>27.446428</ele>
|
|
<time>2026-07-11T08:50:01.000Z</time>
|
|
</trkpt>
|
|
<trkpt lat="55.479044" lon="8.481426">
|
|
<ele>27.490674</ele>
|
|
<time>2026-07-11T08:50:02.000Z</time>
|
|
</trkpt>
|
|
<trkpt lat="55.479049" lon="8.481349">
|
|
<ele>27.535364</ele>
|
|
<time>2026-07-11T08:50:03.000Z</time>
|
|
</trkpt>
|
|
<trkpt lat="55.479054" lon="8.481274">
|
|
<ele>27.578909</ele>
|
|
<time>2026-07-11T08:50:04.000Z</time>
|
|
</trkpt>
|
|
<trkpt lat="55.479057" lon="8.481204">
|
|
<ele>27.619388</ele>
|
|
<time>2026-07-11T08:50:05.000Z</time>
|
|
</trkpt>
|
|
<trkpt lat="55.479063" lon="8.481141">
|
|
<ele>27.656224</ele>
|
|
<time>2026-07-11T08:50:06.000Z</time>
|
|
</trkpt>
|
|
<trkpt lat="55.479067" lon="8.481078">
|
|
<ele>27.692779</ele>
|
|
<time>2026-07-11T08:50:07.000Z</time>
|
|
</trkpt>
|
|
<trkpt lat="55.479072" lon="8.481014">
|
|
<ele>27.730032</ele>
|
|
<time>2026-07-11T08:50:08.000Z</time>
|
|
</trkpt>
|
|
<trkpt lat="55.479078" lon="8.480948">
|
|
<ele>27.768575</ele>
|
|
<time>2026-07-11T08:50:09.000Z</time>
|
|
</trkpt>
|
|
<trkpt lat="55.479080" lon="8.480877">
|
|
<ele>27.809566</ele>
|
|
<time>2026-07-11T08:50:10.000Z</time>
|
|
</trkpt>
|
|
<trkpt lat="55.479082" lon="8.480804">
|
|
<ele>27.851708</ele>
|
|
<time>2026-07-11T08:50:11.000Z</time>
|
|
</trkpt>
|
|
<trkpt lat="55.479086" lon="8.480734">
|
|
<ele>27.892276</ele>
|
|
<time>2026-07-11T08:50:12.000Z</time>
|
|
</trkpt>
|
|
<trkpt lat="55.479090" lon="8.480668">
|
|
<ele>27.930550</ele>
|
|
<time>2026-07-11T08:50:13.000Z</time>
|
|
</trkpt>
|
|
<trkpt lat="55.479093" lon="8.480602">
|
|
<ele>27.968729</ele>
|
|
<time>2026-07-11T08:50:14.000Z</time>
|
|
</trkpt>
|
|
<trkpt lat="55.479099" lon="8.480528">
|
|
<ele>28.011834</ele>
|
|
<time>2026-07-11T08:50:15.000Z</time>
|
|
</trkpt>
|
|
<trkpt lat="55.479105" lon="8.480452">
|
|
<ele>28.056080</ele>
|
|
<time>2026-07-11T08:50:16.000Z</time>
|
|
</trkpt>
|
|
<trkpt lat="55.479109" lon="8.480378">
|
|
<ele>28.098944</ele>
|
|
<time>2026-07-11T08:50:17.000Z</time>
|
|
</trkpt>
|
|
<trkpt lat="55.479114" lon="8.480301">
|
|
<ele>28.074645</ele>
|
|
<time>2026-07-11T08:50:18.000Z</time>
|
|
</trkpt>
|
|
<trkpt lat="55.479123" lon="8.480220">
|
|
<ele>28.037767</ele>
|
|
<time>2026-07-11T08:50:19.000Z</time>
|
|
</trkpt>
|
|
<trkpt lat="55.479135" lon="8.480139">
|
|
<ele>28.000362</ele>
|
|
<time>2026-07-11T08:50:20.000Z</time>
|
|
</trkpt>
|
|
<trkpt lat="55.479145" lon="8.480060">
|
|
<ele>27.964197</ele>
|
|
<time>2026-07-11T08:50:21.000Z</time>
|
|
</trkpt>
|
|
<trkpt lat="55.479152" lon="8.479978">
|
|
<ele>27.927148</ele>
|
|
<time>2026-07-11T08:50:22.000Z</time>
|
|
</trkpt>
|
|
<trkpt lat="55.479162" lon="8.479897">
|
|
<ele>27.890111</ele>
|
|
<time>2026-07-11T08:50:23.000Z</time>
|
|
</trkpt>
|
|
<trkpt lat="55.479171" lon="8.479818">
|
|
<ele>27.854110</ele>
|
|
<time>2026-07-11T08:50:24.000Z</time>
|
|
</trkpt>
|
|
<trkpt lat="55.479181" lon="8.479741">
|
|
<ele>27.818816</ele>
|
|
<time>2026-07-11T08:50:25.000Z</time>
|
|
</trkpt>
|
|
<trkpt lat="55.479190" lon="8.479663">
|
|
<ele>27.783253</ele>
|
|
<time>2026-07-11T08:50:26.000Z</time>
|
|
</trkpt>
|
|
<trkpt lat="55.479198" lon="8.479585">
|
|
<ele>27.747838</ele>
|
|
<time>2026-07-11T08:50:27.000Z</time>
|
|
</trkpt>
|
|
<trkpt lat="55.479206" lon="8.479513">
|
|
<ele>27.715058</ele>
|
|
<time>2026-07-11T08:50:28.000Z</time>
|
|
</trkpt>
|
|
<trkpt lat="55.479213" lon="8.479453">
|
|
<ele>27.687690</ele>
|
|
<time>2026-07-11T08:50:29.000Z</time>
|
|
</trkpt>
|
|
<trkpt lat="55.479219" lon="8.479407">
|
|
<ele>27.666601</ele>
|
|
<time>2026-07-11T08:50:30.000Z</time>
|
|
</trkpt>
|
|
<trkpt lat="55.479223" lon="8.479377">
|
|
<ele>27.652831</ele>
|
|
<time>2026-07-11T08:50:31.000Z</time>
|
|
</trkpt>
|
|
<trkpt lat="55.479251" lon="8.479243">
|
|
<ele>27.589024</ele>
|
|
<time>2026-07-11T08:50:38.000Z</time>
|
|
</trkpt>
|
|
<trkpt lat="55.479259" lon="8.479186">
|
|
<ele>27.562788</ele>
|
|
<time>2026-07-11T08:50:39.000Z</time>
|
|
</trkpt>
|
|
<trkpt lat="55.479268" lon="8.479120">
|
|
<ele>27.532460</ele>
|
|
<time>2026-07-11T08:50:40.000Z</time>
|
|
</trkpt>
|
|
<trkpt lat="55.479279" lon="8.479055">
|
|
<ele>27.502152</ele>
|
|
<time>2026-07-11T08:50:41.000Z</time>
|
|
</trkpt>
|
|
<trkpt lat="55.479289" lon="8.478979">
|
|
<ele>27.467294</ele>
|
|
<time>2026-07-11T08:50:42.000Z</time>
|
|
</trkpt>
|
|
<trkpt lat="55.479295" lon="8.478894">
|
|
<ele>27.429025</ele>
|
|
<time>2026-07-11T08:50:43.000Z</time>
|
|
</trkpt>
|
|
<trkpt lat="55.479301" lon="8.478815">
|
|
<ele>27.393414</ele>
|
|
<time>2026-07-11T08:50:44.000Z</time>
|
|
</trkpt>
|
|
<trkpt lat="55.479307" lon="8.478735">
|
|
<ele>27.357361</ele>
|
|
<time>2026-07-11T08:50:45.000Z</time>
|
|
</trkpt>
|
|
<trkpt lat="55.479311" lon="8.478660">
|
|
<ele>27.323705</ele>
|
|
<time>2026-07-11T08:50:46.000Z</time>
|
|
</trkpt>
|
|
<trkpt lat="55.479316" lon="8.478585">
|
|
<ele>27.289966</ele>
|
|
<time>2026-07-11T08:50:47.000Z</time>
|
|
</trkpt>
|
|
<trkpt lat="55.479322" lon="8.478512">
|
|
<ele>27.257010</ele>
|
|
<time>2026-07-11T08:50:48.000Z</time>
|
|
</trkpt>
|
|
<trkpt lat="55.479326" lon="8.478451">
|
|
<ele>27.229575</ele>
|
|
<time>2026-07-11T08:50:49.000Z</time>
|
|
</trkpt>
|
|
<trkpt lat="55.479332" lon="8.478403">
|
|
<ele>27.207615</ele>
|
|
<time>2026-07-11T08:50:50.000Z</time>
|
|
</trkpt>
|
|
<trkpt lat="55.479339" lon="8.478365">
|
|
<ele>27.189763</ele>
|
|
<time>2026-07-11T08:50:51.000Z</time>
|
|
</trkpt>
|
|
<trkpt lat="55.479345" lon="8.478339">
|
|
<ele>27.177221</ele>
|
|
<time>2026-07-11T08:50:52.000Z</time>
|
|
</trkpt>
|
|
<trkpt lat="55.479351" lon="8.478326">
|
|
<ele>27.169730</ele>
|
|
<time>2026-07-11T08:50:53.000Z</time>
|
|
</trkpt>
|
|
<trkpt lat="55.479355" lon="8.478322">
|
|
<ele>27.166106</ele>
|
|
<time>2026-07-11T08:50:54.000Z</time>
|
|
</trkpt>
|
|
<trkpt lat="55.479355" lon="8.478320">
|
|
<ele>27.165212</ele>
|
|
<time>2026-07-11T08:50:55.000Z</time>
|
|
</trkpt>
|
|
<trkpt lat="55.479355" lon="8.478320">
|
|
<ele>27.165212</ele>
|
|
<time>2026-07-11T08:50:56.000Z</time>
|
|
</trkpt>
|
|
<trkpt lat="55.479355" lon="8.477916">
|
|
<ele>26.984716</ele>
|
|
<time>2026-07-11T08:54:06.000Z</time>
|
|
</trkpt>
|
|
<trkpt lat="55.479357" lon="8.477843">
|
|
<ele>26.952064</ele>
|
|
<time>2026-07-11T08:54:07.000Z</time>
|
|
</trkpt>
|
|
<trkpt lat="55.479360" lon="8.477764">
|
|
<ele>26.916689</ele>
|
|
<time>2026-07-11T08:54:08.000Z</time>
|
|
</trkpt>
|
|
<trkpt lat="55.479364" lon="8.477682">
|
|
<ele>26.879919</ele>
|
|
<time>2026-07-11T08:54:09.000Z</time>
|
|
</trkpt>
|
|
<trkpt lat="55.479368" lon="8.477598">
|
|
<ele>26.842258</ele>
|
|
<time>2026-07-11T08:54:10.000Z</time>
|
|
</trkpt>
|
|
<trkpt lat="55.479372" lon="8.477513">
|
|
<ele>26.804151</ele>
|
|
<time>2026-07-11T08:54:11.000Z</time>
|
|
</trkpt>
|
|
<trkpt lat="55.479377" lon="8.477429">
|
|
<ele>26.766416</ele>
|
|
<time>2026-07-11T08:54:12.000Z</time>
|
|
</trkpt>
|
|
<trkpt lat="55.479385" lon="8.477338">
|
|
<ele>26.725273</ele>
|
|
<time>2026-07-11T08:54:13.000Z</time>
|
|
</trkpt>
|
|
<trkpt lat="55.479393" lon="8.477244">
|
|
<ele>26.677518</ele>
|
|
<time>2026-07-11T08:54:14.000Z</time>
|
|
</trkpt>
|
|
<trkpt lat="55.479397" lon="8.477151">
|
|
<ele>26.580191</ele>
|
|
<time>2026-07-11T08:54:15.000Z</time>
|
|
</trkpt>
|
|
<trkpt lat="55.479398" lon="8.477059">
|
|
<ele>26.484170</ele>
|
|
<time>2026-07-11T08:54:16.000Z</time>
|
|
</trkpt>
|
|
<trkpt lat="55.479404" lon="8.476968">
|
|
<ele>26.388569</ele>
|
|
<time>2026-07-11T08:54:17.000Z</time>
|
|
</trkpt>
|
|
<trkpt lat="55.479412" lon="8.476874">
|
|
<ele>26.289378</ele>
|
|
<time>2026-07-11T08:54:18.000Z</time>
|
|
</trkpt>
|
|
<trkpt lat="55.479418" lon="8.476781">
|
|
<ele>26.191704</ele>
|
|
<time>2026-07-11T08:54:19.000Z</time>
|
|
</trkpt>
|
|
<trkpt lat="55.479421" lon="8.476692">
|
|
<ele>26.098667</ele>
|
|
<time>2026-07-11T08:54:20.000Z</time>
|
|
</trkpt>
|
|
<trkpt lat="55.479427" lon="8.476607">
|
|
<ele>26.009282</ele>
|
|
<time>2026-07-11T08:54:21.000Z</time>
|
|
</trkpt>
|
|
<trkpt lat="55.479434" lon="8.476524">
|
|
<ele>25.921717</ele>
|
|
<time>2026-07-11T08:54:22.000Z</time>
|
|
</trkpt>
|
|
<trkpt lat="55.479442" lon="8.476438">
|
|
<ele>25.830773</ele>
|
|
<time>2026-07-11T08:54:23.000Z</time>
|
|
</trkpt>
|
|
<trkpt lat="55.479446" lon="8.476344">
|
|
<ele>25.732406</ele>
|
|
<time>2026-07-11T08:54:24.000Z</time>
|
|
</trkpt>
|
|
<trkpt lat="55.479448" lon="8.476246">
|
|
<ele>25.630075</ele>
|
|
<time>2026-07-11T08:54:25.000Z</time>
|
|
</trkpt>
|
|
<trkpt lat="55.479453" lon="8.476148">
|
|
<ele>25.527397</ele>
|
|
<time>2026-07-11T08:54:26.000Z</time>
|
|
</trkpt>
|
|
<trkpt lat="55.479459" lon="8.476053">
|
|
<ele>25.427649</ele>
|
|
<time>2026-07-11T08:54:27.000Z</time>
|
|
</trkpt>
|
|
<trkpt lat="55.479463" lon="8.475955">
|
|
<ele>25.325119</ele>
|
|
<time>2026-07-11T08:54:28.000Z</time>
|
|
</trkpt>
|
|
<trkpt lat="55.479467" lon="8.475858">
|
|
<ele>25.223631</ele>
|
|
<time>2026-07-11T08:54:29.000Z</time>
|
|
</trkpt>
|
|
<trkpt lat="55.479471" lon="8.475761">
|
|
<ele>25.122142</ele>
|
|
<time>2026-07-11T08:54:30.000Z</time>
|
|
</trkpt>
|
|
<trkpt lat="55.479475" lon="8.475660">
|
|
<ele>25.016489</ele>
|
|
<time>2026-07-11T08:54:31.000Z</time>
|
|
</trkpt>
|
|
<trkpt lat="55.479477" lon="8.475562">
|
|
<ele>24.914159</ele>
|
|
<time>2026-07-11T08:54:32.000Z</time>
|
|
</trkpt>
|
|
<trkpt lat="55.479479" lon="8.475463">
|
|
<ele>24.810785</ele>
|
|
<time>2026-07-11T08:54:33.000Z</time>
|
|
</trkpt>
|
|
<trkpt lat="55.479484" lon="8.475364">
|
|
<ele>24.707067</ele>
|
|
<time>2026-07-11T08:54:34.000Z</time>
|
|
</trkpt>
|
|
<trkpt lat="55.479492" lon="8.475267">
|
|
<ele>24.604780</ele>
|
|
<time>2026-07-11T08:54:35.000Z</time>
|
|
</trkpt>
|
|
<trkpt lat="55.479498" lon="8.475170">
|
|
<ele>24.502957</ele>
|
|
<time>2026-07-11T08:54:36.000Z</time>
|
|
</trkpt>
|
|
<trkpt lat="55.479501" lon="8.475067">
|
|
<ele>24.395333</ele>
|
|
<time>2026-07-11T08:54:37.000Z</time>
|
|
</trkpt>
|
|
<trkpt lat="55.479508" lon="8.474962">
|
|
<ele>24.285009</ele>
|
|
<time>2026-07-11T08:54:38.000Z</time>
|
|
</trkpt>
|
|
<trkpt lat="55.479518" lon="8.474858">
|
|
<ele>24.174932</ele>
|
|
<time>2026-07-11T08:54:39.000Z</time>
|
|
</trkpt>
|
|
<trkpt lat="55.479526" lon="8.474753">
|
|
<ele>24.064377</ele>
|
|
<time>2026-07-11T08:54:40.000Z</time>
|
|
</trkpt>
|
|
<trkpt lat="55.479535" lon="8.474645">
|
|
<ele>23.950465</ele>
|
|
<time>2026-07-11T08:54:41.000Z</time>
|
|
</trkpt>
|
|
<trkpt lat="55.479545" lon="8.474539">
|
|
<ele>23.838330</ele>
|
|
<time>2026-07-11T08:54:42.000Z</time>
|
|
</trkpt>
|
|
<trkpt lat="55.479553" lon="8.474435">
|
|
<ele>23.728810</ele>
|
|
<time>2026-07-11T08:54:43.000Z</time>
|
|
</trkpt>
|
|
<trkpt lat="55.479559" lon="8.474331">
|
|
<ele>23.619723</ele>
|
|
<time>2026-07-11T08:54:44.000Z</time>
|
|
</trkpt>
|
|
<trkpt lat="55.479563" lon="8.474232">
|
|
<ele>23.516153</ele>
|
|
<time>2026-07-11T08:54:45.000Z</time>
|
|
</trkpt>
|
|
<trkpt lat="55.479566" lon="8.474132">
|
|
<ele>23.411655</ele>
|
|
<time>2026-07-11T08:54:46.000Z</time>
|
|
</trkpt>
|
|
<trkpt lat="55.479572" lon="8.474028">
|
|
<ele>23.289922</ele>
|
|
<time>2026-07-11T08:54:47.000Z</time>
|
|
</trkpt>
|
|
<trkpt lat="55.479581" lon="8.473923">
|
|
<ele>23.159696</ele>
|
|
<time>2026-07-11T08:54:48.000Z</time>
|
|
</trkpt>
|
|
<trkpt lat="55.479592" lon="8.473816">
|
|
<ele>23.026340</ele>
|
|
<time>2026-07-11T08:54:49.000Z</time>
|
|
</trkpt>
|
|
<trkpt lat="55.479604" lon="8.473708">
|
|
<ele>22.891378</ele>
|
|
<time>2026-07-11T08:54:50.000Z</time>
|
|
</trkpt>
|
|
<trkpt lat="55.479614" lon="8.473599">
|
|
<ele>22.755971</ele>
|
|
<time>2026-07-11T08:54:51.000Z</time>
|
|
</trkpt>
|
|
<trkpt lat="55.479623" lon="8.473489">
|
|
<ele>22.619679</ele>
|
|
<time>2026-07-11T08:54:52.000Z</time>
|
|
</trkpt>
|
|
<trkpt lat="55.479631" lon="8.473382">
|
|
<ele>22.487327</ele>
|
|
<time>2026-07-11T08:54:53.000Z</time>
|
|
</trkpt>
|
|
<trkpt lat="55.479635" lon="8.473275">
|
|
<ele>22.355828</ele>
|
|
<time>2026-07-11T08:54:54.000Z</time>
|
|
</trkpt>
|
|
<trkpt lat="55.479640" lon="8.473165">
|
|
<ele>22.220502</ele>
|
|
<time>2026-07-11T08:54:55.000Z</time>
|
|
</trkpt>
|
|
<trkpt lat="55.479650" lon="8.473060">
|
|
<ele>22.089934</ele>
|
|
<time>2026-07-11T08:54:56.000Z</time>
|
|
</trkpt>
|
|
<trkpt lat="55.479658" lon="8.472953">
|
|
<ele>21.957583</ele>
|
|
<time>2026-07-11T08:54:57.000Z</time>
|
|
</trkpt>
|
|
<trkpt lat="55.479663" lon="8.472847">
|
|
<ele>21.827146</ele>
|
|
<time>2026-07-11T08:54:58.000Z</time>
|
|
</trkpt>
|
|
<trkpt lat="55.479669" lon="8.472741">
|
|
<ele>21.696511</ele>
|
|
<time>2026-07-11T08:54:59.000Z</time>
|
|
</trkpt>
|
|
<trkpt lat="55.479675" lon="8.472634">
|
|
<ele>21.564656</ele>
|
|
<time>2026-07-11T08:55:00.000Z</time>
|
|
</trkpt>
|
|
<trkpt lat="55.479684" lon="8.472524">
|
|
<ele>21.428365</ele>
|
|
<time>2026-07-11T08:55:01.000Z</time>
|
|
</trkpt>
|
|
<trkpt lat="55.479694" lon="8.472413">
|
|
<ele>21.290536</ele>
|
|
<time>2026-07-11T08:55:02.000Z</time>
|
|
</trkpt>
|
|
<trkpt lat="55.479700" lon="8.472306">
|
|
<ele>21.158681</ele>
|
|
<time>2026-07-11T08:55:03.000Z</time>
|
|
</trkpt>
|
|
<trkpt lat="55.479705" lon="8.472202">
|
|
<ele>21.030688</ele>
|
|
<time>2026-07-11T08:55:04.000Z</time>
|
|
</trkpt>
|
|
<trkpt lat="55.479713" lon="8.472099">
|
|
<ele>20.903198</ele>
|
|
<time>2026-07-11T08:55:05.000Z</time>
|
|
</trkpt>
|
|
<trkpt lat="55.479721" lon="8.471996">
|
|
<ele>20.775709</ele>
|
|
<time>2026-07-11T08:55:06.000Z</time>
|
|
</trkpt>
|
|
<trkpt lat="55.479728" lon="8.471891">
|
|
<ele>20.646059</ele>
|
|
<time>2026-07-11T08:55:07.000Z</time>
|
|
</trkpt>
|
|
<trkpt lat="55.479736" lon="8.471788">
|
|
<ele>20.518570</ele>
|
|
<time>2026-07-11T08:55:08.000Z</time>
|
|
</trkpt>
|
|
<trkpt lat="55.479742" lon="8.471684">
|
|
<ele>20.390376</ele>
|
|
<time>2026-07-11T08:55:09.000Z</time>
|
|
</trkpt>
|
|
<trkpt lat="55.479747" lon="8.471576">
|
|
<ele>20.257494</ele>
|
|
<time>2026-07-11T08:55:10.000Z</time>
|
|
</trkpt>
|
|
<trkpt lat="55.479753" lon="8.471471">
|
|
<ele>20.128080</ele>
|
|
<time>2026-07-11T08:55:11.000Z</time>
|
|
</trkpt>
|
|
<trkpt lat="55.479760" lon="8.471361">
|
|
<ele>19.992340</ele>
|
|
<time>2026-07-11T08:55:12.000Z</time>
|
|
</trkpt>
|
|
<trkpt lat="55.479770" lon="8.471252">
|
|
<ele>19.856933</ele>
|
|
<time>2026-07-11T08:55:13.000Z</time>
|
|
</trkpt>
|
|
<trkpt lat="55.479778" lon="8.471147">
|
|
<ele>19.727013</ele>
|
|
<time>2026-07-11T08:55:14.000Z</time>
|
|
</trkpt>
|
|
<trkpt lat="55.479785" lon="8.471045">
|
|
<ele>19.601017</ele>
|
|
<time>2026-07-11T08:55:15.000Z</time>
|
|
</trkpt>
|
|
<trkpt lat="55.479791" lon="8.470942">
|
|
<ele>19.479914</ele>
|
|
<time>2026-07-11T08:55:16.000Z</time>
|
|
</trkpt>
|
|
<trkpt lat="55.479797" lon="8.470836">
|
|
<ele>19.438752</ele>
|
|
<time>2026-07-11T08:55:17.000Z</time>
|
|
</trkpt>
|
|
<trkpt lat="55.479803" lon="8.470732">
|
|
<ele>19.398359</ele>
|
|
<time>2026-07-11T08:55:18.000Z</time>
|
|
</trkpt>
|
|
<trkpt lat="55.479808" lon="8.470631">
|
|
<ele>19.359185</ele>
|
|
<time>2026-07-11T08:55:19.000Z</time>
|
|
</trkpt>
|
|
<trkpt lat="55.479814" lon="8.470522">
|
|
<ele>19.316869</ele>
|
|
<time>2026-07-11T08:55:20.000Z</time>
|
|
</trkpt>
|
|
<trkpt lat="55.479816" lon="8.470414">
|
|
<ele>19.275116</ele>
|
|
<time>2026-07-11T08:55:21.000Z</time>
|
|
</trkpt>
|
|
<trkpt lat="55.479818" lon="8.470310">
|
|
<ele>19.234908</ele>
|
|
<time>2026-07-11T08:55:22.000Z</time>
|
|
</trkpt>
|
|
<trkpt lat="55.479822" lon="8.470202">
|
|
<ele>19.193088</ele>
|
|
<time>2026-07-11T08:55:23.000Z</time>
|
|
</trkpt>
|
|
<trkpt lat="55.479826" lon="8.470091">
|
|
<ele>19.150111</ele>
|
|
<time>2026-07-11T08:55:24.000Z</time>
|
|
</trkpt>
|
|
<trkpt lat="55.479831" lon="8.469981">
|
|
<ele>19.107471</ele>
|
|
<time>2026-07-11T08:55:25.000Z</time>
|
|
</trkpt>
|
|
<trkpt lat="55.479839" lon="8.469873">
|
|
<ele>19.065386</ele>
|
|
<time>2026-07-11T08:55:26.000Z</time>
|
|
</trkpt>
|
|
<trkpt lat="55.479846" lon="8.469763">
|
|
<ele>19.022615</ele>
|
|
<time>2026-07-11T08:55:27.000Z</time>
|
|
</trkpt>
|
|
<trkpt lat="55.479854" lon="8.469650">
|
|
<ele>18.978613</ele>
|
|
<time>2026-07-11T08:55:28.000Z</time>
|
|
</trkpt>
|
|
<trkpt lat="55.479858" lon="8.469545">
|
|
<ele>18.937950</ele>
|
|
<time>2026-07-11T08:55:29.000Z</time>
|
|
</trkpt>
|
|
<trkpt lat="55.479858" lon="8.469443">
|
|
<ele>18.898537</ele>
|
|
<time>2026-07-11T08:55:30.000Z</time>
|
|
</trkpt>
|
|
<trkpt lat="55.479858" lon="8.469336">
|
|
<ele>18.857193</ele>
|
|
<time>2026-07-11T08:55:31.000Z</time>
|
|
</trkpt>
|
|
<trkpt lat="55.479858" lon="8.469235">
|
|
<ele>18.818167</ele>
|
|
<time>2026-07-11T08:55:32.000Z</time>
|
|
</trkpt>
|
|
<trkpt lat="55.479858" lon="8.469136">
|
|
<ele>18.779914</ele>
|
|
<time>2026-07-11T08:55:33.000Z</time>
|
|
</trkpt>
|
|
<trkpt lat="55.479860" lon="8.469034">
|
|
<ele>18.740478</ele>
|
|
<time>2026-07-11T08:55:34.000Z</time>
|
|
</trkpt>
|
|
<trkpt lat="55.479864" lon="8.468933">
|
|
<ele>18.701357</ele>
|
|
<time>2026-07-11T08:55:35.000Z</time>
|
|
</trkpt>
|
|
<trkpt lat="55.479866" lon="8.468831">
|
|
<ele>18.661921</ele>
|
|
<time>2026-07-11T08:55:36.000Z</time>
|
|
</trkpt>
|
|
<trkpt lat="55.479866" lon="8.468727">
|
|
<ele>18.621736</ele>
|
|
<time>2026-07-11T08:55:37.000Z</time>
|
|
</trkpt>
|
|
<trkpt lat="55.479868" lon="8.468627">
|
|
<ele>18.583072</ele>
|
|
<time>2026-07-11T08:55:38.000Z</time>
|
|
</trkpt>
|
|
<trkpt lat="55.479870" lon="8.468530">
|
|
<ele>18.545567</ele>
|
|
<time>2026-07-11T08:55:39.000Z</time>
|
|
</trkpt>
|
|
<trkpt lat="55.479868" lon="8.468432">
|
|
<ele>18.507675</ele>
|
|
<time>2026-07-11T08:55:40.000Z</time>
|
|
</trkpt>
|
|
<trkpt lat="55.479866" lon="8.468337">
|
|
<ele>18.470943</ele>
|
|
<time>2026-07-11T08:55:41.000Z</time>
|
|
</trkpt>
|
|
<trkpt lat="55.479868" lon="8.468248">
|
|
<ele>18.436526</ele>
|
|
<time>2026-07-11T08:55:42.000Z</time>
|
|
</trkpt>
|
|
<trkpt lat="55.479870" lon="8.468159">
|
|
<ele>18.402110</ele>
|
|
<time>2026-07-11T08:55:43.000Z</time>
|
|
</trkpt>
|
|
<trkpt lat="55.479871" lon="8.468072">
|
|
<ele>18.368487</ele>
|
|
<time>2026-07-11T08:55:44.000Z</time>
|
|
</trkpt>
|
|
<trkpt lat="55.479872" lon="8.467990">
|
|
<ele>18.336795</ele>
|
|
<time>2026-07-11T08:55:45.000Z</time>
|
|
</trkpt>
|
|
<trkpt lat="55.479870" lon="8.467916">
|
|
<ele>18.308169</ele>
|
|
<time>2026-07-11T08:55:46.000Z</time>
|
|
</trkpt>
|
|
<trkpt lat="55.479868" lon="8.467852">
|
|
<ele>18.283402</ele>
|
|
<time>2026-07-11T08:55:47.000Z</time>
|
|
</trkpt>
|
|
<trkpt lat="55.479866" lon="8.467794">
|
|
<ele>18.260950</ele>
|
|
<time>2026-07-11T08:55:48.000Z</time>
|
|
</trkpt>
|
|
<trkpt lat="55.479866" lon="8.467742">
|
|
<ele>18.220771</ele>
|
|
<time>2026-07-11T08:55:49.000Z</time>
|
|
</trkpt>
|
|
<trkpt lat="55.479866" lon="8.467697">
|
|
<ele>18.180663</ele>
|
|
<time>2026-07-11T08:55:50.000Z</time>
|
|
</trkpt>
|
|
<trkpt lat="55.479864" lon="8.467660">
|
|
<ele>18.147535</ele>
|
|
<time>2026-07-11T08:55:51.000Z</time>
|
|
</trkpt>
|
|
<trkpt lat="55.479862" lon="8.467629">
|
|
<ele>18.119726</ele>
|
|
<time>2026-07-11T08:55:52.000Z</time>
|
|
</trkpt>
|
|
<trkpt lat="55.479862" lon="8.467602">
|
|
<ele>18.095661</ele>
|
|
<time>2026-07-11T08:55:53.000Z</time>
|
|
</trkpt>
|
|
<trkpt lat="55.479862" lon="8.467580">
|
|
<ele>18.076052</ele>
|
|
<time>2026-07-11T08:55:54.000Z</time>
|
|
</trkpt>
|
|
<trkpt lat="55.479860" lon="8.467499">
|
|
<ele>18.003789</ele>
|
|
<time>2026-07-11T08:56:04.000Z</time>
|
|
</trkpt>
|
|
<trkpt lat="55.479857" lon="8.467399">
|
|
<ele>17.914534</ele>
|
|
<time>2026-07-11T08:56:05.000Z</time>
|
|
</trkpt>
|
|
<trkpt lat="55.479850" lon="8.467324">
|
|
<ele>17.846785</ele>
|
|
<time>2026-07-11T08:56:06.000Z</time>
|
|
</trkpt>
|
|
<trkpt lat="55.479841" lon="8.467238">
|
|
<ele>17.768837</ele>
|
|
<time>2026-07-11T08:56:07.000Z</time>
|
|
</trkpt>
|
|
<trkpt lat="55.479836" lon="8.467151">
|
|
<ele>17.690896</ele>
|
|
<time>2026-07-11T08:56:08.000Z</time>
|
|
</trkpt>
|
|
<trkpt lat="55.479827" lon="8.467064">
|
|
<ele>17.612072</ele>
|
|
<time>2026-07-11T08:56:09.000Z</time>
|
|
</trkpt>
|
|
<trkpt lat="55.479819" lon="8.466975">
|
|
<ele>17.531754</ele>
|
|
<time>2026-07-11T08:56:10.000Z</time>
|
|
</trkpt>
|
|
<trkpt lat="55.479813" lon="8.466888">
|
|
<ele>17.453639</ele>
|
|
<time>2026-07-11T08:56:11.000Z</time>
|
|
</trkpt>
|
|
<trkpt lat="55.479807" lon="8.466803">
|
|
<ele>17.377293</ele>
|
|
<time>2026-07-11T08:56:12.000Z</time>
|
|
</trkpt>
|
|
<trkpt lat="55.479803" lon="8.466713">
|
|
<ele>17.296829</ele>
|
|
<time>2026-07-11T08:56:13.000Z</time>
|
|
</trkpt>
|
|
<trkpt lat="55.479799" lon="8.466621">
|
|
<ele>17.214588</ele>
|
|
<time>2026-07-11T08:56:14.000Z</time>
|
|
</trkpt>
|
|
<trkpt lat="55.479797" lon="8.466528">
|
|
<ele>17.131637</ele>
|
|
<time>2026-07-11T08:56:15.000Z</time>
|
|
</trkpt>
|
|
<trkpt lat="55.479796" lon="8.466436">
|
|
<ele>17.049622</ele>
|
|
<time>2026-07-11T08:56:16.000Z</time>
|
|
</trkpt>
|
|
<trkpt lat="55.479792" lon="8.466348">
|
|
<ele>16.970936</ele>
|
|
<time>2026-07-11T08:56:17.000Z</time>
|
|
</trkpt>
|
|
<trkpt lat="55.479786" lon="8.466262">
|
|
<ele>16.893705</ele>
|
|
<time>2026-07-11T08:56:18.000Z</time>
|
|
</trkpt>
|
|
<trkpt lat="55.479777" lon="8.466171">
|
|
<ele>16.811371</ele>
|
|
<time>2026-07-11T08:56:19.000Z</time>
|
|
</trkpt>
|
|
<trkpt lat="55.479766" lon="8.466074">
|
|
<ele>16.723200</ele>
|
|
<time>2026-07-11T08:56:20.000Z</time>
|
|
</trkpt>
|
|
<trkpt lat="55.479756" lon="8.465976">
|
|
<ele>16.634448</ele>
|
|
<time>2026-07-11T08:56:21.000Z</time>
|
|
</trkpt>
|
|
<trkpt lat="55.479752" lon="8.465878">
|
|
<ele>16.546874</ele>
|
|
<time>2026-07-11T08:56:22.000Z</time>
|
|
</trkpt>
|
|
<trkpt lat="55.479750" lon="8.465777">
|
|
<ele>16.456797</ele>
|
|
<time>2026-07-11T08:56:23.000Z</time>
|
|
</trkpt>
|
|
<trkpt lat="55.479744" lon="8.465667">
|
|
<ele>16.358300</ele>
|
|
<time>2026-07-11T08:56:24.000Z</time>
|
|
</trkpt>
|
|
<trkpt lat="55.479737" lon="8.465560">
|
|
<ele>16.262298</ele>
|
|
<time>2026-07-11T08:56:25.000Z</time>
|
|
</trkpt>
|
|
<trkpt lat="55.479729" lon="8.465451">
|
|
<ele>16.164334</ele>
|
|
<time>2026-07-11T08:56:26.000Z</time>
|
|
</trkpt>
|
|
<trkpt lat="55.479722" lon="8.465340">
|
|
<ele>16.064788</ele>
|
|
<time>2026-07-11T08:56:27.000Z</time>
|
|
</trkpt>
|
|
<trkpt lat="55.479714" lon="8.465236">
|
|
<ele>15.971243</ele>
|
|
<time>2026-07-11T08:56:28.000Z</time>
|
|
</trkpt>
|
|
<trkpt lat="55.479703" lon="8.465139">
|
|
<ele>15.883072</ele>
|
|
<time>2026-07-11T08:56:29.000Z</time>
|
|
</trkpt>
|
|
<trkpt lat="55.479691" lon="8.465038">
|
|
<ele>15.791093</ele>
|
|
<time>2026-07-11T08:56:30.000Z</time>
|
|
</trkpt>
|
|
<trkpt lat="55.479683" lon="8.464929">
|
|
<ele>15.693129</ele>
|
|
<time>2026-07-11T08:56:31.000Z</time>
|
|
</trkpt>
|
|
<trkpt lat="55.479676" lon="8.464808">
|
|
<ele>15.584721</ele>
|
|
<time>2026-07-11T08:56:32.000Z</time>
|
|
</trkpt>
|
|
<trkpt lat="55.479671" lon="8.464677">
|
|
<ele>15.467695</ele>
|
|
<time>2026-07-11T08:56:33.000Z</time>
|
|
</trkpt>
|
|
<trkpt lat="55.479666" lon="8.464545">
|
|
<ele>15.397913</ele>
|
|
<time>2026-07-11T08:56:34.000Z</time>
|
|
</trkpt>
|
|
<trkpt lat="55.479658" lon="8.464419">
|
|
<ele>15.355060</ele>
|
|
<time>2026-07-11T08:56:35.000Z</time>
|
|
</trkpt>
|
|
<trkpt lat="55.479653" lon="8.464292">
|
|
<ele>15.312031</ele>
|
|
<time>2026-07-11T08:56:36.000Z</time>
|
|
</trkpt>
|
|
<trkpt lat="55.479644" lon="8.464162">
|
|
<ele>15.267765</ele>
|
|
<time>2026-07-11T08:56:37.000Z</time>
|
|
</trkpt>
|
|
<trkpt lat="55.479631" lon="8.464036">
|
|
<ele>15.224477</ele>
|
|
<time>2026-07-11T08:56:38.000Z</time>
|
|
</trkpt>
|
|
<trkpt lat="55.479616" lon="8.463914">
|
|
<ele>15.182282</ele>
|
|
<time>2026-07-11T08:56:39.000Z</time>
|
|
</trkpt>
|
|
<trkpt lat="55.479602" lon="8.463794">
|
|
<ele>15.140872</ele>
|
|
<time>2026-07-11T08:56:40.000Z</time>
|
|
</trkpt>
|
|
<trkpt lat="55.479590" lon="8.463676">
|
|
<ele>15.100351</ele>
|
|
<time>2026-07-11T08:56:41.000Z</time>
|
|
</trkpt>
|
|
<trkpt lat="55.479579" lon="8.463554">
|
|
<ele>15.058597</ele>
|
|
<time>2026-07-11T08:56:42.000Z</time>
|
|
</trkpt>
|
|
<trkpt lat="55.479566" lon="8.463434">
|
|
<ele>15.017303</ele>
|
|
<time>2026-07-11T08:56:43.000Z</time>
|
|
</trkpt>
|
|
<trkpt lat="55.479550" lon="8.463309">
|
|
<ele>14.973989</ele>
|
|
<time>2026-07-11T08:56:44.000Z</time>
|
|
</trkpt>
|
|
<trkpt lat="55.479537" lon="8.463185">
|
|
<ele>14.931366</ele>
|
|
<time>2026-07-11T08:56:45.000Z</time>
|
|
</trkpt>
|
|
<trkpt lat="55.479529" lon="8.463068">
|
|
<ele>14.891534</ele>
|
|
<time>2026-07-11T08:56:46.000Z</time>
|
|
</trkpt>
|
|
<trkpt lat="55.479523" lon="8.462954">
|
|
<ele>14.852837</ele>
|
|
<time>2026-07-11T08:56:47.000Z</time>
|
|
</trkpt>
|
|
<trkpt lat="55.479516" lon="8.462842">
|
|
<ele>14.814751</ele>
|
|
<time>2026-07-11T08:56:48.000Z</time>
|
|
</trkpt>
|
|
<trkpt lat="55.479506" lon="8.462727">
|
|
<ele>14.775427</ele>
|
|
<time>2026-07-11T08:56:49.000Z</time>
|
|
</trkpt>
|
|
<trkpt lat="55.479497" lon="8.462620">
|
|
<ele>14.738865</ele>
|
|
<time>2026-07-11T08:56:50.000Z</time>
|
|
</trkpt>
|
|
<trkpt lat="55.479491" lon="8.462520">
|
|
<ele>14.704876</ele>
|
|
<time>2026-07-11T08:56:51.000Z</time>
|
|
</trkpt>
|
|
<trkpt lat="55.479484" lon="8.462417">
|
|
<ele>14.669813</ele>
|
|
<time>2026-07-11T08:56:52.000Z</time>
|
|
</trkpt>
|
|
<trkpt lat="55.479475" lon="8.462317">
|
|
<ele>14.635590</ele>
|
|
<time>2026-07-11T08:56:53.000Z</time>
|
|
</trkpt>
|
|
<trkpt lat="55.479473" lon="8.462224">
|
|
<ele>14.604133</ele>
|
|
<time>2026-07-11T08:56:54.000Z</time>
|
|
</trkpt>
|
|
<trkpt lat="55.479472" lon="8.462132">
|
|
<ele>14.573032</ele>
|
|
<time>2026-07-11T08:56:55.000Z</time>
|
|
</trkpt>
|
|
<trkpt lat="55.479468" lon="8.462041">
|
|
<ele>14.542182</ele>
|
|
<time>2026-07-11T08:56:56.000Z</time>
|
|
</trkpt>
|
|
<trkpt lat="55.479465" lon="8.461952">
|
|
<ele>14.512047</ele>
|
|
<time>2026-07-11T08:56:57.000Z</time>
|
|
</trkpt>
|
|
<trkpt lat="55.479469" lon="8.461863">
|
|
<ele>14.481871</ele>
|
|
<time>2026-07-11T08:56:58.000Z</time>
|
|
</trkpt>
|
|
<trkpt lat="55.479475" lon="8.461792">
|
|
<ele>14.457608</ele>
|
|
<time>2026-07-11T08:56:59.000Z</time>
|
|
</trkpt>
|
|
<trkpt lat="55.479480" lon="8.461735">
|
|
<ele>14.438112</ele>
|
|
<time>2026-07-11T08:57:00.000Z</time>
|
|
</trkpt>
|
|
<trkpt lat="55.479486" lon="8.461685">
|
|
<ele>14.420838</ele>
|
|
<time>2026-07-11T08:57:01.000Z</time>
|
|
</trkpt>
|
|
<trkpt lat="55.479485" lon="8.461579">
|
|
<ele>14.385005</ele>
|
|
<time>2026-07-11T08:57:37.000Z</time>
|
|
</trkpt>
|
|
<trkpt lat="55.479481" lon="8.461528">
|
|
<ele>14.367603</ele>
|
|
<time>2026-07-11T08:57:38.000Z</time>
|
|
</trkpt>
|
|
<trkpt lat="55.479479" lon="8.461479">
|
|
<ele>14.353257</ele>
|
|
<time>2026-07-11T08:57:39.000Z</time>
|
|
</trkpt>
|
|
<trkpt lat="55.479477" lon="8.461420">
|
|
<ele>14.345975</ele>
|
|
<time>2026-07-11T08:57:40.000Z</time>
|
|
</trkpt>
|
|
<trkpt lat="55.479475" lon="8.461356">
|
|
<ele>14.338078</ele>
|
|
<time>2026-07-11T08:57:41.000Z</time>
|
|
</trkpt>
|
|
<trkpt lat="55.479472" lon="8.461290">
|
|
<ele>14.329921</ele>
|
|
<time>2026-07-11T08:57:42.000Z</time>
|
|
</trkpt>
|
|
<trkpt lat="55.479468" lon="8.461219">
|
|
<ele>14.321130</ele>
|
|
<time>2026-07-11T08:57:43.000Z</time>
|
|
</trkpt>
|
|
<trkpt lat="55.479464" lon="8.461143">
|
|
<ele>14.311726</ele>
|
|
<time>2026-07-11T08:57:44.000Z</time>
|
|
</trkpt>
|
|
<trkpt lat="55.479459" lon="8.461066">
|
|
<ele>14.302178</ele>
|
|
<time>2026-07-11T08:57:45.000Z</time>
|
|
</trkpt>
|
|
<trkpt lat="55.479449" lon="8.460982">
|
|
<ele>14.291603</ele>
|
|
<time>2026-07-11T08:57:46.000Z</time>
|
|
</trkpt>
|
|
<trkpt lat="55.479438" lon="8.460901">
|
|
<ele>14.281341</ele>
|
|
<time>2026-07-11T08:57:47.000Z</time>
|
|
</trkpt>
|
|
<trkpt lat="55.479428" lon="8.460819">
|
|
<ele>14.271007</ele>
|
|
<time>2026-07-11T08:57:48.000Z</time>
|
|
</trkpt>
|
|
<trkpt lat="55.479418" lon="8.460736">
|
|
<ele>14.260553</ele>
|
|
<time>2026-07-11T08:57:49.000Z</time>
|
|
</trkpt>
|
|
<trkpt lat="55.479407" lon="8.460653">
|
|
<ele>14.250051</ele>
|
|
<time>2026-07-11T08:57:50.000Z</time>
|
|
</trkpt>
|
|
<trkpt lat="55.479397" lon="8.460571">
|
|
<ele>14.239717</ele>
|
|
<time>2026-07-11T08:57:51.000Z</time>
|
|
</trkpt>
|
|
<trkpt lat="55.479388" lon="8.460483">
|
|
<ele>14.228700</ele>
|
|
<time>2026-07-11T08:57:52.000Z</time>
|
|
</trkpt>
|
|
<trkpt lat="55.479378" lon="8.460392">
|
|
<ele>14.217280</ele>
|
|
<time>2026-07-11T08:57:53.000Z</time>
|
|
</trkpt>
|
|
<trkpt lat="55.479367" lon="8.460294">
|
|
<ele>14.204971</ele>
|
|
<time>2026-07-11T08:57:54.000Z</time>
|
|
</trkpt>
|
|
<trkpt lat="55.479352" lon="8.460196">
|
|
<ele>14.192465</ele>
|
|
<time>2026-07-11T08:57:55.000Z</time>
|
|
</trkpt>
|
|
<trkpt lat="55.479337" lon="8.460097">
|
|
<ele>14.179839</ele>
|
|
<time>2026-07-11T08:57:56.000Z</time>
|
|
</trkpt>
|
|
<trkpt lat="55.479323" lon="8.459997">
|
|
<ele>14.167148</ele>
|
|
<time>2026-07-11T08:57:57.000Z</time>
|
|
</trkpt>
|
|
<trkpt lat="55.479310" lon="8.459902">
|
|
<ele>14.155108</ele>
|
|
<time>2026-07-11T08:57:58.000Z</time>
|
|
</trkpt>
|
|
<trkpt lat="55.479293" lon="8.459810">
|
|
<ele>14.143186</ele>
|
|
<time>2026-07-11T08:57:59.000Z</time>
|
|
</trkpt>
|
|
<trkpt lat="55.479276" lon="8.459720">
|
|
<ele>14.131498</ele>
|
|
<time>2026-07-11T08:58:00.000Z</time>
|
|
</trkpt>
|
|
<trkpt lat="55.479262" lon="8.459627">
|
|
<ele>14.119642</ele>
|
|
<time>2026-07-11T08:58:01.000Z</time>
|
|
</trkpt>
|
|
<trkpt lat="55.479251" lon="8.459525">
|
|
<ele>14.106850</ele>
|
|
<time>2026-07-11T08:58:02.000Z</time>
|
|
</trkpt>
|
|
<trkpt lat="55.479241" lon="8.459423">
|
|
<ele>14.094097</ele>
|
|
<time>2026-07-11T08:58:03.000Z</time>
|
|
</trkpt>
|
|
<trkpt lat="55.479231" lon="8.459321">
|
|
<ele>14.081343</ele>
|
|
<time>2026-07-11T08:58:04.000Z</time>
|
|
</trkpt>
|
|
<trkpt lat="55.479220" lon="8.459216">
|
|
<ele>14.068188</ele>
|
|
<time>2026-07-11T08:58:05.000Z</time>
|
|
</trkpt>
|
|
<trkpt lat="55.479210" lon="8.459111">
|
|
<ele>14.055070</ele>
|
|
<time>2026-07-11T08:58:06.000Z</time>
|
|
</trkpt>
|
|
<trkpt lat="55.479201" lon="8.459010">
|
|
<ele>14.042474</ele>
|
|
<time>2026-07-11T08:58:07.000Z</time>
|
|
</trkpt>
|
|
<trkpt lat="55.479188" lon="8.458909">
|
|
<ele>14.029713</ele>
|
|
<time>2026-07-11T08:58:08.000Z</time>
|
|
</trkpt>
|
|
<trkpt lat="55.479174" lon="8.458805">
|
|
<ele>14.016543</ele>
|
|
<time>2026-07-11T08:58:09.000Z</time>
|
|
</trkpt>
|
|
<trkpt lat="55.479163" lon="8.458704">
|
|
<ele>14.003872</ele>
|
|
<time>2026-07-11T08:58:10.000Z</time>
|
|
</trkpt>
|
|
<trkpt lat="55.479151" lon="8.458604">
|
|
<ele>13.991279</ele>
|
|
<time>2026-07-11T08:58:11.000Z</time>
|
|
</trkpt>
|
|
<trkpt lat="55.479142" lon="8.458500">
|
|
<ele>13.978317</ele>
|
|
<time>2026-07-11T08:58:12.000Z</time>
|
|
</trkpt>
|
|
<trkpt lat="55.479132" lon="8.458396">
|
|
<ele>13.965321</ele>
|
|
<time>2026-07-11T08:58:13.000Z</time>
|
|
</trkpt>
|
|
<trkpt lat="55.479121" lon="8.458295">
|
|
<ele>13.963687</ele>
|
|
<time>2026-07-11T08:58:14.000Z</time>
|
|
</trkpt>
|
|
<trkpt lat="55.479111" lon="8.458194">
|
|
<ele>13.963878</ele>
|
|
<time>2026-07-11T08:58:15.000Z</time>
|
|
</trkpt>
|
|
<trkpt lat="55.479102" lon="8.458090">
|
|
<ele>13.964075</ele>
|
|
<time>2026-07-11T08:58:16.000Z</time>
|
|
</trkpt>
|
|
<trkpt lat="55.479092" lon="8.457985">
|
|
<ele>13.964274</ele>
|
|
<time>2026-07-11T08:58:17.000Z</time>
|
|
</trkpt>
|
|
<trkpt lat="55.479086" lon="8.457879">
|
|
<ele>13.964473</ele>
|
|
<time>2026-07-11T08:58:18.000Z</time>
|
|
</trkpt>
|
|
<trkpt lat="55.479081" lon="8.457773">
|
|
<ele>13.964671</ele>
|
|
<time>2026-07-11T08:58:19.000Z</time>
|
|
</trkpt>
|
|
<trkpt lat="55.479071" lon="8.457667">
|
|
<ele>13.964872</ele>
|
|
<time>2026-07-11T08:58:20.000Z</time>
|
|
</trkpt>
|
|
<trkpt lat="55.479060" lon="8.457565">
|
|
<ele>13.965066</ele>
|
|
<time>2026-07-11T08:58:21.000Z</time>
|
|
</trkpt>
|
|
<trkpt lat="55.479050" lon="8.457466">
|
|
<ele>13.965254</ele>
|
|
<time>2026-07-11T08:58:22.000Z</time>
|
|
</trkpt>
|
|
<trkpt lat="55.479041" lon="8.457369">
|
|
<ele>13.965437</ele>
|
|
<time>2026-07-11T08:58:23.000Z</time>
|
|
</trkpt>
|
|
<trkpt lat="55.479031" lon="8.457270">
|
|
<ele>13.965625</ele>
|
|
<time>2026-07-11T08:58:24.000Z</time>
|
|
</trkpt>
|
|
<trkpt lat="55.479022" lon="8.457168">
|
|
<ele>13.965818</ele>
|
|
<time>2026-07-11T08:58:25.000Z</time>
|
|
</trkpt>
|
|
<trkpt lat="55.479012" lon="8.457065">
|
|
<ele>13.966013</ele>
|
|
<time>2026-07-11T08:58:26.000Z</time>
|
|
</trkpt>
|
|
<trkpt lat="55.479003" lon="8.456966">
|
|
<ele>13.966200</ele>
|
|
<time>2026-07-11T08:58:27.000Z</time>
|
|
</trkpt>
|
|
<trkpt lat="55.478991" lon="8.456870">
|
|
<ele>13.966384</ele>
|
|
<time>2026-07-11T08:58:28.000Z</time>
|
|
</trkpt>
|
|
<trkpt lat="55.478980" lon="8.456773">
|
|
<ele>13.966569</ele>
|
|
<time>2026-07-11T08:58:29.000Z</time>
|
|
</trkpt>
|
|
<trkpt lat="55.478968" lon="8.456679">
|
|
<ele>13.966749</ele>
|
|
<time>2026-07-11T08:58:30.000Z</time>
|
|
</trkpt>
|
|
<trkpt lat="55.478959" lon="8.456587">
|
|
<ele>13.966923</ele>
|
|
<time>2026-07-11T08:58:31.000Z</time>
|
|
</trkpt>
|
|
<trkpt lat="55.478949" lon="8.456492">
|
|
<ele>13.967104</ele>
|
|
<time>2026-07-11T08:58:32.000Z</time>
|
|
</trkpt>
|
|
<trkpt lat="55.478938" lon="8.456393">
|
|
<ele>13.967292</ele>
|
|
<time>2026-07-11T08:58:33.000Z</time>
|
|
</trkpt>
|
|
<trkpt lat="55.478928" lon="8.456292">
|
|
<ele>13.967484</ele>
|
|
<time>2026-07-11T08:58:34.000Z</time>
|
|
</trkpt>
|
|
<trkpt lat="55.478919" lon="8.456189">
|
|
<ele>13.967678</ele>
|
|
<time>2026-07-11T08:58:35.000Z</time>
|
|
</trkpt>
|
|
<trkpt lat="55.478909" lon="8.456088">
|
|
<ele>13.967870</ele>
|
|
<time>2026-07-11T08:58:36.000Z</time>
|
|
</trkpt>
|
|
<trkpt lat="55.478900" lon="8.455991">
|
|
<ele>13.968053</ele>
|
|
<time>2026-07-11T08:58:37.000Z</time>
|
|
</trkpt>
|
|
<trkpt lat="55.478888" lon="8.455895">
|
|
<ele>13.968237</ele>
|
|
<time>2026-07-11T08:58:38.000Z</time>
|
|
</trkpt>
|
|
<trkpt lat="55.478877" lon="8.455800">
|
|
<ele>13.968418</ele>
|
|
<time>2026-07-11T08:58:39.000Z</time>
|
|
</trkpt>
|
|
<trkpt lat="55.478867" lon="8.455708">
|
|
<ele>13.968593</ele>
|
|
<time>2026-07-11T08:58:40.000Z</time>
|
|
</trkpt>
|
|
<trkpt lat="55.478859" lon="8.455616">
|
|
<ele>13.968767</ele>
|
|
<time>2026-07-11T08:58:41.000Z</time>
|
|
</trkpt>
|
|
<trkpt lat="55.478850" lon="8.455526">
|
|
<ele>13.968938</ele>
|
|
<time>2026-07-11T08:58:42.000Z</time>
|
|
</trkpt>
|
|
<trkpt lat="55.478839" lon="8.455437">
|
|
<ele>13.969108</ele>
|
|
<time>2026-07-11T08:58:43.000Z</time>
|
|
</trkpt>
|
|
<trkpt lat="55.478829" lon="8.455348">
|
|
<ele>13.969277</ele>
|
|
<time>2026-07-11T08:58:44.000Z</time>
|
|
</trkpt>
|
|
<trkpt lat="55.478819" lon="8.455257">
|
|
<ele>13.969487</ele>
|
|
<time>2026-07-11T08:58:45.000Z</time>
|
|
</trkpt>
|
|
<trkpt lat="55.478808" lon="8.455166">
|
|
<ele>13.990048</ele>
|
|
<time>2026-07-11T08:58:46.000Z</time>
|
|
</trkpt>
|
|
<trkpt lat="55.478800" lon="8.455075">
|
|
<ele>14.010398</ele>
|
|
<time>2026-07-11T08:58:47.000Z</time>
|
|
</trkpt>
|
|
<trkpt lat="55.478798" lon="8.454985">
|
|
<ele>14.030302</ele>
|
|
<time>2026-07-11T08:58:48.000Z</time>
|
|
</trkpt>
|
|
<trkpt lat="55.478796" lon="8.454896">
|
|
<ele>14.049985</ele>
|
|
<time>2026-07-11T08:58:49.000Z</time>
|
|
</trkpt>
|
|
<trkpt lat="55.478792" lon="8.454810">
|
|
<ele>14.069053</ele>
|
|
<time>2026-07-11T08:58:50.000Z</time>
|
|
</trkpt>
|
|
<trkpt lat="55.478785" lon="8.454728">
|
|
<ele>14.087378</ele>
|
|
<time>2026-07-11T08:58:51.000Z</time>
|
|
</trkpt>
|
|
<trkpt lat="55.478772" lon="8.454652">
|
|
<ele>14.104921</ele>
|
|
<time>2026-07-11T08:58:52.000Z</time>
|
|
</trkpt>
|
|
<trkpt lat="55.478757" lon="8.454580">
|
|
<ele>14.121873</ele>
|
|
<time>2026-07-11T08:58:53.000Z</time>
|
|
</trkpt>
|
|
<trkpt lat="55.478741" lon="8.454508">
|
|
<ele>14.138963</ele>
|
|
<time>2026-07-11T08:58:54.000Z</time>
|
|
</trkpt>
|
|
<trkpt lat="55.478728" lon="8.454432">
|
|
<ele>14.156506</ele>
|
|
<time>2026-07-11T08:58:55.000Z</time>
|
|
</trkpt>
|
|
<trkpt lat="55.478716" lon="8.454354">
|
|
<ele>14.174366</ele>
|
|
<time>2026-07-11T08:58:56.000Z</time>
|
|
</trkpt>
|
|
<trkpt lat="55.478705" lon="8.454275">
|
|
<ele>14.192343</ele>
|
|
<time>2026-07-11T08:58:57.000Z</time>
|
|
</trkpt>
|
|
<trkpt lat="55.478695" lon="8.454192">
|
|
<ele>14.211094</ele>
|
|
<time>2026-07-11T08:58:58.000Z</time>
|
|
</trkpt>
|
|
<trkpt lat="55.478684" lon="8.454108">
|
|
<ele>14.230146</ele>
|
|
<time>2026-07-11T08:58:59.000Z</time>
|
|
</trkpt>
|
|
<trkpt lat="55.478671" lon="8.454026">
|
|
<ele>14.248962</ele>
|
|
<time>2026-07-11T08:59:00.000Z</time>
|
|
</trkpt>
|
|
<trkpt lat="55.478659" lon="8.453943">
|
|
<ele>14.267891</ele>
|
|
<time>2026-07-11T08:59:01.000Z</time>
|
|
</trkpt>
|
|
<trkpt lat="55.478648" lon="8.453861">
|
|
<ele>14.286513</ele>
|
|
<time>2026-07-11T08:59:02.000Z</time>
|
|
</trkpt>
|
|
<trkpt lat="55.478638" lon="8.453776">
|
|
<ele>14.305697</ele>
|
|
<time>2026-07-11T08:59:03.000Z</time>
|
|
</trkpt>
|
|
<trkpt lat="55.478625" lon="8.453679">
|
|
<ele>14.327723</ele>
|
|
<time>2026-07-11T08:59:04.000Z</time>
|
|
</trkpt>
|
|
<trkpt lat="55.478613" lon="8.453592">
|
|
<ele>14.347510</ele>
|
|
<time>2026-07-11T08:59:05.000Z</time>
|
|
</trkpt>
|
|
<trkpt lat="55.478604" lon="8.453507">
|
|
<ele>14.366618</ele>
|
|
<time>2026-07-11T08:59:06.000Z</time>
|
|
</trkpt>
|
|
<trkpt lat="55.478595" lon="8.453425">
|
|
<ele>14.385076</ele>
|
|
<time>2026-07-11T08:59:07.000Z</time>
|
|
</trkpt>
|
|
<trkpt lat="55.478583" lon="8.453337">
|
|
<ele>14.405077</ele>
|
|
<time>2026-07-11T08:59:08.000Z</time>
|
|
</trkpt>
|
|
<trkpt lat="55.478568" lon="8.453242">
|
|
<ele>14.426870</ele>
|
|
<time>2026-07-11T08:59:09.000Z</time>
|
|
</trkpt>
|
|
<trkpt lat="55.478549" lon="8.453152">
|
|
<ele>14.448094</ele>
|
|
<time>2026-07-11T08:59:10.000Z</time>
|
|
</trkpt>
|
|
<trkpt lat="55.478531" lon="8.453062">
|
|
<ele>14.469184</ele>
|
|
<time>2026-07-11T08:59:11.000Z</time>
|
|
</trkpt>
|
|
<trkpt lat="55.478515" lon="8.452973">
|
|
<ele>14.489818</ele>
|
|
<time>2026-07-11T08:59:12.000Z</time>
|
|
</trkpt>
|
|
<trkpt lat="55.478496" lon="8.452883">
|
|
<ele>14.511041</ele>
|
|
<time>2026-07-11T08:59:13.000Z</time>
|
|
</trkpt>
|
|
<trkpt lat="55.478476" lon="8.452790">
|
|
<ele>14.533023</ele>
|
|
<time>2026-07-11T08:59:14.000Z</time>
|
|
</trkpt>
|
|
<trkpt lat="55.478457" lon="8.452697">
|
|
<ele>14.554869</ele>
|
|
<time>2026-07-11T08:59:15.000Z</time>
|
|
</trkpt>
|
|
<trkpt lat="55.478438" lon="8.452604">
|
|
<ele>14.576715</ele>
|
|
<time>2026-07-11T08:59:16.000Z</time>
|
|
</trkpt>
|
|
<trkpt lat="55.478418" lon="8.452513">
|
|
<ele>14.598284</ele>
|
|
<time>2026-07-11T08:59:17.000Z</time>
|
|
</trkpt>
|
|
<trkpt lat="55.478397" lon="8.452418">
|
|
<ele>14.620818</ele>
|
|
<time>2026-07-11T08:59:18.000Z</time>
|
|
</trkpt>
|
|
<trkpt lat="55.478377" lon="8.452323">
|
|
<ele>14.643213</ele>
|
|
<time>2026-07-11T08:59:19.000Z</time>
|
|
</trkpt>
|
|
<trkpt lat="55.478357" lon="8.452229">
|
|
<ele>14.665401</ele>
|
|
<time>2026-07-11T08:59:20.000Z</time>
|
|
</trkpt>
|
|
<trkpt lat="55.478335" lon="8.452137">
|
|
<ele>14.667402</ele>
|
|
<time>2026-07-11T08:59:21.000Z</time>
|
|
</trkpt>
|
|
<trkpt lat="55.478317" lon="8.452050">
|
|
<ele>14.663218</ele>
|
|
<time>2026-07-11T08:59:22.000Z</time>
|
|
</trkpt>
|
|
<trkpt lat="55.478297" lon="8.451961">
|
|
<ele>14.658893</ele>
|
|
<time>2026-07-11T08:59:23.000Z</time>
|
|
</trkpt>
|
|
<trkpt lat="55.478272" lon="8.451863">
|
|
<ele>14.654038</ele>
|
|
<time>2026-07-11T08:59:24.000Z</time>
|
|
</trkpt>
|
|
<trkpt lat="55.478252" lon="8.451770">
|
|
<ele>14.649544</ele>
|
|
<time>2026-07-11T08:59:25.000Z</time>
|
|
</trkpt>
|
|
<trkpt lat="55.478233" lon="8.451676">
|
|
<ele>14.645036</ele>
|
|
<time>2026-07-11T08:59:26.000Z</time>
|
|
</trkpt>
|
|
<trkpt lat="55.478215" lon="8.451587">
|
|
<ele>14.640767</ele>
|
|
<time>2026-07-11T08:59:27.000Z</time>
|
|
</trkpt>
|
|
<trkpt lat="55.478197" lon="8.451502">
|
|
<ele>14.636668</ele>
|
|
<time>2026-07-11T08:59:28.000Z</time>
|
|
</trkpt>
|
|
<trkpt lat="55.478175" lon="8.451395">
|
|
<ele>14.631526</ele>
|
|
<time>2026-07-11T08:59:29.000Z</time>
|
|
</trkpt>
|
|
<trkpt lat="55.478160" lon="8.451303">
|
|
<ele>14.627202</ele>
|
|
<time>2026-07-11T08:59:30.000Z</time>
|
|
</trkpt>
|
|
<trkpt lat="55.478139" lon="8.451211">
|
|
<ele>14.622721</ele>
|
|
<time>2026-07-11T08:59:31.000Z</time>
|
|
</trkpt>
|
|
<trkpt lat="55.478119" lon="8.451126">
|
|
<ele>14.618564</ele>
|
|
<time>2026-07-11T08:59:32.000Z</time>
|
|
</trkpt>
|
|
<trkpt lat="55.478101" lon="8.451039">
|
|
<ele>14.614380</ele>
|
|
<time>2026-07-11T08:59:33.000Z</time>
|
|
</trkpt>
|
|
<trkpt lat="55.478082" lon="8.450939">
|
|
<ele>14.609615</ele>
|
|
<time>2026-07-11T08:59:34.000Z</time>
|
|
</trkpt>
|
|
<trkpt lat="55.478068" lon="8.450851">
|
|
<ele>14.605486</ele>
|
|
<time>2026-07-11T08:59:35.000Z</time>
|
|
</trkpt>
|
|
<trkpt lat="55.478057" lon="8.450766">
|
|
<ele>14.601548</ele>
|
|
<time>2026-07-11T08:59:36.000Z</time>
|
|
</trkpt>
|
|
<trkpt lat="55.478045" lon="8.450680">
|
|
<ele>14.597547</ele>
|
|
<time>2026-07-11T08:59:37.000Z</time>
|
|
</trkpt>
|
|
<trkpt lat="55.478032" lon="8.450589">
|
|
<ele>14.593307</ele>
|
|
<time>2026-07-11T08:59:38.000Z</time>
|
|
</trkpt>
|
|
<trkpt lat="55.478011" lon="8.450498">
|
|
<ele>14.588869</ele>
|
|
<time>2026-07-11T08:59:39.000Z</time>
|
|
</trkpt>
|
|
<trkpt lat="55.477983" lon="8.450409">
|
|
<ele>14.584270</ele>
|
|
<time>2026-07-11T08:59:40.000Z</time>
|
|
</trkpt>
|
|
<trkpt lat="55.477953" lon="8.450325">
|
|
<ele>14.579785</ele>
|
|
<time>2026-07-11T08:59:41.000Z</time>
|
|
</trkpt>
|
|
<trkpt lat="55.477925" lon="8.450242">
|
|
<ele>14.575422</ele>
|
|
<time>2026-07-11T08:59:42.000Z</time>
|
|
</trkpt>
|
|
<trkpt lat="55.477902" lon="8.450157">
|
|
<ele>14.571167</ele>
|
|
<time>2026-07-11T08:59:43.000Z</time>
|
|
</trkpt>
|
|
<trkpt lat="55.477881" lon="8.450068">
|
|
<ele>14.566812</ele>
|
|
<time>2026-07-11T08:59:44.000Z</time>
|
|
</trkpt>
|
|
<trkpt lat="55.477864" lon="8.449977">
|
|
<ele>14.562483</ele>
|
|
<time>2026-07-11T08:59:45.000Z</time>
|
|
</trkpt>
|
|
<trkpt lat="55.477847" lon="8.449886">
|
|
<ele>14.558155</ele>
|
|
<time>2026-07-11T08:59:46.000Z</time>
|
|
</trkpt>
|
|
<trkpt lat="55.477830" lon="8.449798">
|
|
<ele>14.553955</ele>
|
|
<time>2026-07-11T08:59:47.000Z</time>
|
|
</trkpt>
|
|
<trkpt lat="55.477815" lon="8.449712">
|
|
<ele>14.549890</ele>
|
|
<time>2026-07-11T08:59:48.000Z</time>
|
|
</trkpt>
|
|
<trkpt lat="55.477796" lon="8.449625">
|
|
<ele>14.545678</ele>
|
|
<time>2026-07-11T08:59:49.000Z</time>
|
|
</trkpt>
|
|
<trkpt lat="55.477775" lon="8.449541">
|
|
<ele>14.541531</ele>
|
|
<time>2026-07-11T08:59:50.000Z</time>
|
|
</trkpt>
|
|
<trkpt lat="55.477756" lon="8.449458">
|
|
<ele>14.537487</ele>
|
|
<time>2026-07-11T08:59:51.000Z</time>
|
|
</trkpt>
|
|
<trkpt lat="55.477739" lon="8.449378">
|
|
<ele>14.533627</ele>
|
|
<time>2026-07-11T08:59:52.000Z</time>
|
|
</trkpt>
|
|
<trkpt lat="55.477722" lon="8.449295">
|
|
<ele>14.529640</ele>
|
|
<time>2026-07-11T08:59:53.000Z</time>
|
|
</trkpt>
|
|
<trkpt lat="55.477702" lon="8.449204">
|
|
<ele>14.549201</ele>
|
|
<time>2026-07-11T08:59:54.000Z</time>
|
|
</trkpt>
|
|
<trkpt lat="55.477685" lon="8.449123">
|
|
<ele>14.587727</ele>
|
|
<time>2026-07-11T08:59:55.000Z</time>
|
|
</trkpt>
|
|
<trkpt lat="55.477670" lon="8.449042">
|
|
<ele>14.625735</ele>
|
|
<time>2026-07-11T08:59:56.000Z</time>
|
|
</trkpt>
|
|
<trkpt lat="55.477654" lon="8.448962">
|
|
<ele>14.663574</ele>
|
|
<time>2026-07-11T08:59:57.000Z</time>
|
|
</trkpt>
|
|
<trkpt lat="55.477639" lon="8.448885">
|
|
<ele>14.699890</ele>
|
|
<time>2026-07-11T08:59:58.000Z</time>
|
|
</trkpt>
|
|
<trkpt lat="55.477626" lon="8.448802">
|
|
<ele>14.738298</ele>
|
|
<time>2026-07-11T08:59:59.000Z</time>
|
|
</trkpt>
|
|
<trkpt lat="55.477614" lon="8.448717">
|
|
<ele>14.777369</ele>
|
|
<time>2026-07-11T09:00:00.000Z</time>
|
|
</trkpt>
|
|
<trkpt lat="55.477603" lon="8.448629">
|
|
<ele>14.817562</ele>
|
|
<time>2026-07-11T09:00:01.000Z</time>
|
|
</trkpt>
|
|
<trkpt lat="55.477593" lon="8.448542">
|
|
<ele>14.857157</ele>
|
|
<time>2026-07-11T09:00:02.000Z</time>
|
|
</trkpt>
|
|
<trkpt lat="55.477584" lon="8.448461">
|
|
<ele>14.893972</ele>
|
|
<time>2026-07-11T09:00:03.000Z</time>
|
|
</trkpt>
|
|
<trkpt lat="55.477570" lon="8.448381">
|
|
<ele>14.931317</ele>
|
|
<time>2026-07-11T09:00:04.000Z</time>
|
|
</trkpt>
|
|
<trkpt lat="55.477555" lon="8.448303">
|
|
<ele>14.968055</ele>
|
|
<time>2026-07-11T09:00:05.000Z</time>
|
|
</trkpt>
|
|
<trkpt lat="55.477540" lon="8.448232">
|
|
<ele>15.001852</ele>
|
|
<time>2026-07-11T09:00:06.000Z</time>
|
|
</trkpt>
|
|
<trkpt lat="55.477525" lon="8.448164">
|
|
<ele>15.034398</ele>
|
|
<time>2026-07-11T09:00:07.000Z</time>
|
|
</trkpt>
|
|
<trkpt lat="55.477509" lon="8.448100">
|
|
<ele>15.065598</ele>
|
|
<time>2026-07-11T09:00:08.000Z</time>
|
|
</trkpt>
|
|
<trkpt lat="55.477494" lon="8.448039">
|
|
<ele>15.095256</ele>
|
|
<time>2026-07-11T09:00:09.000Z</time>
|
|
</trkpt>
|
|
<trkpt lat="55.477479" lon="8.447981">
|
|
<ele>15.123692</ele>
|
|
<time>2026-07-11T09:00:10.000Z</time>
|
|
</trkpt>
|
|
<trkpt lat="55.477465" lon="8.447923">
|
|
<ele>15.151810</ele>
|
|
<time>2026-07-11T09:00:11.000Z</time>
|
|
</trkpt>
|
|
<trkpt lat="55.477456" lon="8.447868">
|
|
<ele>15.177344</ele>
|
|
<time>2026-07-11T09:00:12.000Z</time>
|
|
</trkpt>
|
|
<trkpt lat="55.477446" lon="8.447815">
|
|
<ele>15.202259</ele>
|
|
<time>2026-07-11T09:00:13.000Z</time>
|
|
</trkpt>
|
|
<trkpt lat="55.477438" lon="8.447764">
|
|
<ele>15.225862</ele>
|
|
<time>2026-07-11T09:00:14.000Z</time>
|
|
</trkpt>
|
|
<trkpt lat="55.477433" lon="8.447713">
|
|
<ele>15.248947</ele>
|
|
<time>2026-07-11T09:00:15.000Z</time>
|
|
</trkpt>
|
|
<trkpt lat="55.477424" lon="8.447657">
|
|
<ele>15.274910</ele>
|
|
<time>2026-07-11T09:00:16.000Z</time>
|
|
</trkpt>
|
|
<trkpt lat="55.477412" lon="8.447599">
|
|
<ele>15.302449</ele>
|
|
<time>2026-07-11T09:00:17.000Z</time>
|
|
</trkpt>
|
|
<trkpt lat="55.477402" lon="8.447547">
|
|
<ele>15.326941</ele>
|
|
<time>2026-07-11T09:00:18.000Z</time>
|
|
</trkpt>
|
|
<trkpt lat="55.477395" lon="8.447505">
|
|
<ele>15.346468</ele>
|
|
<time>2026-07-11T09:00:19.000Z</time>
|
|
</trkpt>
|
|
<trkpt lat="55.477389" lon="8.447468">
|
|
<ele>15.363633</ele>
|
|
<time>2026-07-11T09:00:20.000Z</time>
|
|
</trkpt>
|
|
<trkpt lat="55.477381" lon="8.447429">
|
|
<ele>15.382133</ele>
|
|
<time>2026-07-11T09:00:21.000Z</time>
|
|
</trkpt>
|
|
<trkpt lat="55.477370" lon="8.447398">
|
|
<ele>15.398446</ele>
|
|
<time>2026-07-11T09:00:22.000Z</time>
|
|
</trkpt>
|
|
<trkpt lat="55.477326" lon="8.447281">
|
|
<ele>15.461076</ele>
|
|
<time>2026-07-11T09:00:42.000Z</time>
|
|
</trkpt>
|
|
<trkpt lat="55.477316" lon="8.447226">
|
|
<ele>15.486839</ele>
|
|
<time>2026-07-11T09:00:43.000Z</time>
|
|
</trkpt>
|
|
<trkpt lat="55.477304" lon="8.447167">
|
|
<ele>15.514798</ele>
|
|
<time>2026-07-11T09:00:44.000Z</time>
|
|
</trkpt>
|
|
<trkpt lat="55.477290" lon="8.447107">
|
|
<ele>15.543739</ele>
|
|
<time>2026-07-11T09:00:45.000Z</time>
|
|
</trkpt>
|
|
<trkpt lat="55.477275" lon="8.447040">
|
|
<ele>15.575870</ele>
|
|
<time>2026-07-11T09:00:46.000Z</time>
|
|
</trkpt>
|
|
<trkpt lat="55.477256" lon="8.446966">
|
|
<ele>15.612106</ele>
|
|
<time>2026-07-11T09:00:47.000Z</time>
|
|
</trkpt>
|
|
<trkpt lat="55.477237" lon="8.446890">
|
|
<ele>15.649156</ele>
|
|
<time>2026-07-11T09:00:48.000Z</time>
|
|
</trkpt>
|
|
<trkpt lat="55.477220" lon="8.446807">
|
|
<ele>15.688520</ele>
|
|
<time>2026-07-11T09:00:49.000Z</time>
|
|
</trkpt>
|
|
<trkpt lat="55.477204" lon="8.446721">
|
|
<ele>15.728892</ele>
|
|
<time>2026-07-11T09:00:50.000Z</time>
|
|
</trkpt>
|
|
<trkpt lat="55.477189" lon="8.446633">
|
|
<ele>15.769880</ele>
|
|
<time>2026-07-11T09:00:51.000Z</time>
|
|
</trkpt>
|
|
<trkpt lat="55.477174" lon="8.446549">
|
|
<ele>15.809162</ele>
|
|
<time>2026-07-11T09:00:52.000Z</time>
|
|
</trkpt>
|
|
<trkpt lat="55.477157" lon="8.446468">
|
|
<ele>15.847688</ele>
|
|
<time>2026-07-11T09:00:53.000Z</time>
|
|
</trkpt>
|
|
<trkpt lat="55.477138" lon="8.446387">
|
|
<ele>15.886789</ele>
|
|
<time>2026-07-11T09:00:54.000Z</time>
|
|
</trkpt>
|
|
<trkpt lat="55.477120" lon="8.446307">
|
|
<ele>15.925181</ele>
|
|
<time>2026-07-11T09:00:55.000Z</time>
|
|
</trkpt>
|
|
<trkpt lat="55.477103" lon="8.446230">
|
|
<ele>15.921174</ele>
|
|
<time>2026-07-11T09:00:56.000Z</time>
|
|
</trkpt>
|
|
<trkpt lat="55.477085" lon="8.446153">
|
|
<ele>15.878582</ele>
|
|
<time>2026-07-11T09:00:57.000Z</time>
|
|
</trkpt>
|
|
<trkpt lat="55.477069" lon="8.446073">
|
|
<ele>15.835202</ele>
|
|
<time>2026-07-11T09:00:58.000Z</time>
|
|
</trkpt>
|
|
<trkpt lat="55.477059" lon="8.445989">
|
|
<ele>15.791312</ele>
|
|
<time>2026-07-11T09:00:59.000Z</time>
|
|
</trkpt>
|
|
<trkpt lat="55.477051" lon="8.445902">
|
|
<ele>15.746244</ele>
|
|
<time>2026-07-11T09:01:00.000Z</time>
|
|
</trkpt>
|
|
<trkpt lat="55.477045" lon="8.445813">
|
|
<ele>15.700413</ele>
|
|
<time>2026-07-11T09:01:01.000Z</time>
|
|
</trkpt>
|
|
<trkpt lat="55.477043" lon="8.445722">
|
|
<ele>15.653846</ele>
|
|
<time>2026-07-11T09:01:02.000Z</time>
|
|
</trkpt>
|
|
<trkpt lat="55.477045" lon="8.445627">
|
|
<ele>15.605235</ele>
|
|
<time>2026-07-11T09:01:03.000Z</time>
|
|
</trkpt>
|
|
<trkpt lat="55.477049" lon="8.445526">
|
|
<ele>15.553463</ele>
|
|
<time>2026-07-11T09:01:04.000Z</time>
|
|
</trkpt>
|
|
<trkpt lat="55.477052" lon="8.445426">
|
|
<ele>15.502257</ele>
|
|
<time>2026-07-11T09:01:05.000Z</time>
|
|
</trkpt>
|
|
<trkpt lat="55.477061" lon="8.445325">
|
|
<ele>15.449977</ele>
|
|
<time>2026-07-11T09:01:06.000Z</time>
|
|
</trkpt>
|
|
<trkpt lat="55.477075" lon="8.445222">
|
|
<ele>15.395815</ele>
|
|
<time>2026-07-11T09:01:07.000Z</time>
|
|
</trkpt>
|
|
<trkpt lat="55.477088" lon="8.445124">
|
|
<ele>15.344349</ele>
|
|
<time>2026-07-11T09:01:08.000Z</time>
|
|
</trkpt>
|
|
<trkpt lat="55.477103" lon="8.445028">
|
|
<ele>15.293429</ele>
|
|
<time>2026-07-11T09:01:09.000Z</time>
|
|
</trkpt>
|
|
<trkpt lat="55.477117" lon="8.444929">
|
|
<ele>15.241254</ele>
|
|
<time>2026-07-11T09:01:10.000Z</time>
|
|
</trkpt>
|
|
<trkpt lat="55.477130" lon="8.444831">
|
|
<ele>15.189788</ele>
|
|
<time>2026-07-11T09:01:11.000Z</time>
|
|
</trkpt>
|
|
<trkpt lat="55.477142" lon="8.444731">
|
|
<ele>15.137520</ele>
|
|
<time>2026-07-11T09:01:12.000Z</time>
|
|
</trkpt>
|
|
<trkpt lat="55.477149" lon="8.444628">
|
|
<ele>15.084475</ele>
|
|
<time>2026-07-11T09:01:13.000Z</time>
|
|
</trkpt>
|
|
<trkpt lat="55.477157" lon="8.444526">
|
|
<ele>15.031821</ele>
|
|
<time>2026-07-11T09:01:14.000Z</time>
|
|
</trkpt>
|
|
<trkpt lat="55.477163" lon="8.444428">
|
|
<ele>14.981418</ele>
|
|
<time>2026-07-11T09:01:15.000Z</time>
|
|
</trkpt>
|
|
<trkpt lat="55.477168" lon="8.444333">
|
|
<ele>14.932631</ele>
|
|
<time>2026-07-11T09:01:16.000Z</time>
|
|
</trkpt>
|
|
<trkpt lat="55.477176" lon="8.444233">
|
|
<ele>14.880990</ele>
|
|
<time>2026-07-11T09:01:17.000Z</time>
|
|
</trkpt>
|
|
<trkpt lat="55.477184" lon="8.444131">
|
|
<ele>14.828336</ele>
|
|
<time>2026-07-11T09:01:18.000Z</time>
|
|
</trkpt>
|
|
<trkpt lat="55.477191" lon="8.444030">
|
|
<ele>14.776306</ele>
|
|
<time>2026-07-11T09:01:19.000Z</time>
|
|
</trkpt>
|
|
<trkpt lat="55.477199" lon="8.443931">
|
|
<ele>14.725171</ele>
|
|
<time>2026-07-11T09:01:20.000Z</time>
|
|
</trkpt>
|
|
<trkpt lat="55.477208" lon="8.443828">
|
|
<ele>14.671881</ele>
|
|
<time>2026-07-11T09:01:21.000Z</time>
|
|
</trkpt>
|
|
<trkpt lat="55.477220" lon="8.443723">
|
|
<ele>14.617109</ele>
|
|
<time>2026-07-11T09:01:22.000Z</time>
|
|
</trkpt>
|
|
<trkpt lat="55.477230" lon="8.443619">
|
|
<ele>14.563170</ele>
|
|
<time>2026-07-11T09:01:23.000Z</time>
|
|
</trkpt>
|
|
<trkpt lat="55.477237" lon="8.443519">
|
|
<ele>14.511647</ele>
|
|
<time>2026-07-11T09:01:24.000Z</time>
|
|
</trkpt>
|
|
<trkpt lat="55.477245" lon="8.443418">
|
|
<ele>14.459500</ele>
|
|
<time>2026-07-11T09:01:25.000Z</time>
|
|
</trkpt>
|
|
<trkpt lat="55.477252" lon="8.443319">
|
|
<ele>14.408485</ele>
|
|
<time>2026-07-11T09:01:26.000Z</time>
|
|
</trkpt>
|
|
<trkpt lat="55.477262" lon="8.443220">
|
|
<ele>14.357065</ele>
|
|
<time>2026-07-11T09:01:27.000Z</time>
|
|
</trkpt>
|
|
<trkpt lat="55.477272" lon="8.443121">
|
|
<ele>14.313899</ele>
|
|
<time>2026-07-11T09:01:28.000Z</time>
|
|
</trkpt>
|
|
<trkpt lat="55.477281" lon="8.443028">
|
|
<ele>14.293094</ele>
|
|
<time>2026-07-11T09:01:29.000Z</time>
|
|
</trkpt>
|
|
<trkpt lat="55.477292" lon="8.442932">
|
|
<ele>14.271496</ele>
|
|
<time>2026-07-11T09:01:30.000Z</time>
|
|
</trkpt>
|
|
<trkpt lat="55.477304" lon="8.442834">
|
|
<ele>14.249387</ele>
|
|
<time>2026-07-11T09:01:31.000Z</time>
|
|
</trkpt>
|
|
<trkpt lat="55.477317" lon="8.442735">
|
|
<ele>14.226978</ele>
|
|
<time>2026-07-11T09:01:32.000Z</time>
|
|
</trkpt>
|
|
<trkpt lat="55.477332" lon="8.442634">
|
|
<ele>14.203953</ele>
|
|
<time>2026-07-11T09:01:33.000Z</time>
|
|
</trkpt>
|
|
<trkpt lat="55.477347" lon="8.442533">
|
|
<ele>14.180929</ele>
|
|
<time>2026-07-11T09:01:34.000Z</time>
|
|
</trkpt>
|
|
<trkpt lat="55.477361" lon="8.442429">
|
|
<ele>14.157357</ele>
|
|
<time>2026-07-11T09:01:35.000Z</time>
|
|
</trkpt>
|
|
<trkpt lat="55.477374" lon="8.442321">
|
|
<ele>14.133011</ele>
|
|
<time>2026-07-11T09:01:36.000Z</time>
|
|
</trkpt>
|
|
<trkpt lat="55.477389" lon="8.442217">
|
|
<ele>14.109346</ele>
|
|
<time>2026-07-11T09:01:37.000Z</time>
|
|
</trkpt>
|
|
<trkpt lat="55.477403" lon="8.442115">
|
|
<ele>14.086203</ele>
|
|
<time>2026-07-11T09:01:38.000Z</time>
|
|
</trkpt>
|
|
<trkpt lat="55.477414" lon="8.442013">
|
|
<ele>14.063307</ele>
|
|
<time>2026-07-11T09:01:39.000Z</time>
|
|
</trkpt>
|
|
<trkpt lat="55.477425" lon="8.441909">
|
|
<ele>14.039977</ele>
|
|
<time>2026-07-11T09:01:40.000Z</time>
|
|
</trkpt>
|
|
<trkpt lat="55.477439" lon="8.441797">
|
|
<ele>14.014686</ele>
|
|
<time>2026-07-11T09:01:41.000Z</time>
|
|
</trkpt>
|
|
<trkpt lat="55.477454" lon="8.441691">
|
|
<ele>13.990593</ele>
|
|
<time>2026-07-11T09:01:42.000Z</time>
|
|
</trkpt>
|
|
<trkpt lat="55.477469" lon="8.441588">
|
|
<ele>13.967142</ele>
|
|
<time>2026-07-11T09:01:43.000Z</time>
|
|
</trkpt>
|
|
<trkpt lat="55.477483" lon="8.441487">
|
|
<ele>13.944214</ele>
|
|
<time>2026-07-11T09:01:44.000Z</time>
|
|
</trkpt>
|
|
<trkpt lat="55.477494" lon="8.441387">
|
|
<ele>13.921751</ele>
|
|
<time>2026-07-11T09:01:45.000Z</time>
|
|
</trkpt>
|
|
<trkpt lat="55.477508" lon="8.441289">
|
|
<ele>13.899464</ele>
|
|
<time>2026-07-11T09:01:46.000Z</time>
|
|
</trkpt>
|
|
<trkpt lat="55.477521" lon="8.441191">
|
|
<ele>13.877270</ele>
|
|
<time>2026-07-11T09:01:47.000Z</time>
|
|
</trkpt>
|
|
<trkpt lat="55.477532" lon="8.441090">
|
|
<ele>13.854590</ele>
|
|
<time>2026-07-11T09:01:48.000Z</time>
|
|
</trkpt>
|
|
<trkpt lat="55.477546" lon="8.440988">
|
|
<ele>13.831447</ele>
|
|
<time>2026-07-11T09:01:49.000Z</time>
|
|
</trkpt>
|
|
<trkpt lat="55.477561" lon="8.440888">
|
|
<ele>13.808637</ele>
|
|
<time>2026-07-11T09:01:50.000Z</time>
|
|
</trkpt>
|
|
<trkpt lat="55.477576" lon="8.440788">
|
|
<ele>13.785826</ele>
|
|
<time>2026-07-11T09:01:51.000Z</time>
|
|
</trkpt>
|
|
<trkpt lat="55.477591" lon="8.440688">
|
|
<ele>13.763015</ele>
|
|
<time>2026-07-11T09:01:52.000Z</time>
|
|
</trkpt>
|
|
<trkpt lat="55.477605" lon="8.440585">
|
|
<ele>13.739658</ele>
|
|
<time>2026-07-11T09:01:53.000Z</time>
|
|
</trkpt>
|
|
<trkpt lat="55.477618" lon="8.440479">
|
|
<ele>13.715742</ele>
|
|
<time>2026-07-11T09:01:54.000Z</time>
|
|
</trkpt>
|
|
<trkpt lat="55.477633" lon="8.440380">
|
|
<ele>13.693145</ele>
|
|
<time>2026-07-11T09:01:55.000Z</time>
|
|
</trkpt>
|
|
<trkpt lat="55.477648" lon="8.440281">
|
|
<ele>13.670547</ele>
|
|
<time>2026-07-11T09:01:56.000Z</time>
|
|
</trkpt>
|
|
<trkpt lat="55.477663" lon="8.440186">
|
|
<ele>13.648800</ele>
|
|
<time>2026-07-11T09:01:57.000Z</time>
|
|
</trkpt>
|
|
<trkpt lat="55.477683" lon="8.440081">
|
|
<ele>13.624374</ele>
|
|
<time>2026-07-11T09:01:58.000Z</time>
|
|
</trkpt>
|
|
<trkpt lat="55.477697" lon="8.439986">
|
|
<ele>13.603496</ele>
|
|
<time>2026-07-11T09:01:59.000Z</time>
|
|
</trkpt>
|
|
<trkpt lat="55.477708" lon="8.439888">
|
|
<ele>13.582428</ele>
|
|
<time>2026-07-11T09:02:00.000Z</time>
|
|
</trkpt>
|
|
<trkpt lat="55.477721" lon="8.439786">
|
|
<ele>13.560380</ele>
|
|
<time>2026-07-11T09:02:01.000Z</time>
|
|
</trkpt>
|
|
<trkpt lat="55.477735" lon="8.439682">
|
|
<ele>13.537838</ele>
|
|
<time>2026-07-11T09:02:02.000Z</time>
|
|
</trkpt>
|
|
<trkpt lat="55.477745" lon="8.439584">
|
|
<ele>13.516839</ele>
|
|
<time>2026-07-11T09:02:03.000Z</time>
|
|
</trkpt>
|
|
<trkpt lat="55.477757" lon="8.439488">
|
|
<ele>13.496108</ele>
|
|
<time>2026-07-11T09:02:04.000Z</time>
|
|
</trkpt>
|
|
<trkpt lat="55.477773" lon="8.439375">
|
|
<ele>13.471545</ele>
|
|
<time>2026-07-11T09:02:05.000Z</time>
|
|
</trkpt>
|
|
<trkpt lat="55.477784" lon="8.439280">
|
|
<ele>13.451098</ele>
|
|
<time>2026-07-11T09:02:06.000Z</time>
|
|
</trkpt>
|
|
<trkpt lat="55.477796" lon="8.439187">
|
|
<ele>13.430984</ele>
|
|
<time>2026-07-11T09:02:07.000Z</time>
|
|
</trkpt>
|
|
<trkpt lat="55.477805" lon="8.439095">
|
|
<ele>13.411295</ele>
|
|
<time>2026-07-11T09:02:08.000Z</time>
|
|
</trkpt>
|
|
<trkpt lat="55.477816" lon="8.439006">
|
|
<ele>13.392086</ele>
|
|
<time>2026-07-11T09:02:09.000Z</time>
|
|
</trkpt>
|
|
<trkpt lat="55.477830" lon="8.438917">
|
|
<ele>13.372607</ele>
|
|
<time>2026-07-11T09:02:10.000Z</time>
|
|
</trkpt>
|
|
<trkpt lat="55.477841" lon="8.438831">
|
|
<ele>13.354015</ele>
|
|
<time>2026-07-11T09:02:11.000Z</time>
|
|
</trkpt>
|
|
<trkpt lat="55.477854" lon="8.438750">
|
|
<ele>13.336262</ele>
|
|
<time>2026-07-11T09:02:12.000Z</time>
|
|
</trkpt>
|
|
<trkpt lat="55.477868" lon="8.438674">
|
|
<ele>13.319410</ele>
|
|
<time>2026-07-11T09:02:13.000Z</time>
|
|
</trkpt>
|
|
<trkpt lat="55.477881" lon="8.438592">
|
|
<ele>13.301453</ele>
|
|
<time>2026-07-11T09:02:14.000Z</time>
|
|
</trkpt>
|
|
<trkpt lat="55.477895" lon="8.438510">
|
|
<ele>13.283393</ele>
|
|
<time>2026-07-11T09:02:15.000Z</time>
|
|
</trkpt>
|
|
<trkpt lat="55.477906" lon="8.438427">
|
|
<ele>13.265418</ele>
|
|
<time>2026-07-11T09:02:16.000Z</time>
|
|
</trkpt>
|
|
<trkpt lat="55.477916" lon="8.438348">
|
|
<ele>13.248347</ele>
|
|
<time>2026-07-11T09:02:17.000Z</time>
|
|
</trkpt>
|
|
<trkpt lat="55.477924" lon="8.438273">
|
|
<ele>13.232254</ele>
|
|
<time>2026-07-11T09:02:18.000Z</time>
|
|
</trkpt>
|
|
<trkpt lat="55.477930" lon="8.438201">
|
|
<ele>13.216907</ele>
|
|
<time>2026-07-11T09:02:19.000Z</time>
|
|
</trkpt>
|
|
<trkpt lat="55.477935" lon="8.438137">
|
|
<ele>13.203283</ele>
|
|
<time>2026-07-11T09:02:20.000Z</time>
|
|
</trkpt>
|
|
<trkpt lat="55.477940" lon="8.438082">
|
|
<ele>13.191536</ele>
|
|
<time>2026-07-11T09:02:21.000Z</time>
|
|
</trkpt>
|
|
<trkpt lat="55.477940" lon="8.438043">
|
|
<ele>13.183311</ele>
|
|
<time>2026-07-11T09:02:22.000Z</time>
|
|
</trkpt>
|
|
<trkpt lat="55.477940" lon="8.438019">
|
|
<ele>13.178250</ele>
|
|
<time>2026-07-11T09:02:23.000Z</time>
|
|
</trkpt>
|
|
<trkpt lat="55.477940" lon="8.438004">
|
|
<ele>13.175087</ele>
|
|
<time>2026-07-11T09:02:24.000Z</time>
|
|
</trkpt>
|
|
<trkpt lat="55.477930" lon="8.437984">
|
|
<ele>13.169462</ele>
|
|
<time>2026-07-11T09:02:55.000Z</time>
|
|
</trkpt>
|
|
<trkpt lat="55.477906" lon="8.437992">
|
|
<ele>13.160374</ele>
|
|
<time>2026-07-11T09:02:56.000Z</time>
|
|
</trkpt>
|
|
<trkpt lat="55.477889" lon="8.438008">
|
|
<ele>13.153204</ele>
|
|
<time>2026-07-11T09:02:57.000Z</time>
|
|
</trkpt>
|
|
<trkpt lat="55.477873" lon="8.438026">
|
|
<ele>13.146144</ele>
|
|
<time>2026-07-11T09:02:58.000Z</time>
|
|
</trkpt>
|
|
<trkpt lat="55.477859" lon="8.438045">
|
|
<ele>13.139571</ele>
|
|
<time>2026-07-11T09:02:59.000Z</time>
|
|
</trkpt>
|
|
<trkpt lat="55.477848" lon="8.438065">
|
|
<ele>13.133694</ele>
|
|
<time>2026-07-11T09:03:00.000Z</time>
|
|
</trkpt>
|
|
<trkpt lat="55.477836" lon="8.438079">
|
|
<ele>13.128341</ele>
|
|
<time>2026-07-11T09:03:01.000Z</time>
|
|
</trkpt>
|
|
<trkpt lat="55.477818" lon="8.438084">
|
|
<ele>13.121561</ele>
|
|
<time>2026-07-11T09:03:02.000Z</time>
|
|
</trkpt>
|
|
<trkpt lat="55.477800" lon="8.438081">
|
|
<ele>13.114833</ele>
|
|
<time>2026-07-11T09:03:03.000Z</time>
|
|
</trkpt>
|
|
<trkpt lat="55.477775" lon="8.438067">
|
|
<ele>13.105073</ele>
|
|
<time>2026-07-11T09:03:04.000Z</time>
|
|
</trkpt>
|
|
<trkpt lat="55.477753" lon="8.438053">
|
|
<ele>13.096370</ele>
|
|
<time>2026-07-11T09:03:05.000Z</time>
|
|
</trkpt>
|
|
<trkpt lat="55.477720" lon="8.438036">
|
|
<ele>13.083578</ele>
|
|
<time>2026-07-11T09:03:06.000Z</time>
|
|
</trkpt>
|
|
<trkpt lat="55.477691" lon="8.438022">
|
|
<ele>13.072390</ele>
|
|
<time>2026-07-11T09:03:07.000Z</time>
|
|
</trkpt>
|
|
<trkpt lat="55.477662" lon="8.438008">
|
|
<ele>13.061203</ele>
|
|
<time>2026-07-11T09:03:08.000Z</time>
|
|
</trkpt>
|
|
<trkpt lat="55.477630" lon="8.437990">
|
|
<ele>13.048705</ele>
|
|
<time>2026-07-11T09:03:09.000Z</time>
|
|
</trkpt>
|
|
<trkpt lat="55.477602" lon="8.437972">
|
|
<ele>13.037616</ele>
|
|
<time>2026-07-11T09:03:10.000Z</time>
|
|
</trkpt>
|
|
<trkpt lat="55.477580" lon="8.437957">
|
|
<ele>13.028840</ele>
|
|
<time>2026-07-11T09:03:11.000Z</time>
|
|
</trkpt>
|
|
<trkpt lat="55.477549" lon="8.437939">
|
|
<ele>13.016696</ele>
|
|
<time>2026-07-11T09:03:12.000Z</time>
|
|
</trkpt>
|
|
<trkpt lat="55.477515" lon="8.437913">
|
|
<ele>13.002907</ele>
|
|
<time>2026-07-11T09:03:13.000Z</time>
|
|
</trkpt>
|
|
<trkpt lat="55.477481" lon="8.437893">
|
|
<ele>12.989571</ele>
|
|
<time>2026-07-11T09:03:14.000Z</time>
|
|
</trkpt>
|
|
<trkpt lat="55.477441" lon="8.437877">
|
|
<ele>12.974309</ele>
|
|
<time>2026-07-11T09:03:15.000Z</time>
|
|
</trkpt>
|
|
<trkpt lat="55.477403" lon="8.437855">
|
|
<ele>12.959427</ele>
|
|
<time>2026-07-11T09:03:16.000Z</time>
|
|
</trkpt>
|
|
<trkpt lat="55.477359" lon="8.437834">
|
|
<ele>12.929104</ele>
|
|
<time>2026-07-11T09:03:17.000Z</time>
|
|
</trkpt>
|
|
<trkpt lat="55.477318" lon="8.437812">
|
|
<ele>12.888232</ele>
|
|
<time>2026-07-11T09:03:18.000Z</time>
|
|
</trkpt>
|
|
<trkpt lat="55.477274" lon="8.437781">
|
|
<ele>12.843045</ele>
|
|
<time>2026-07-11T09:03:19.000Z</time>
|
|
</trkpt>
|
|
<trkpt lat="55.477225" lon="8.437753">
|
|
<ele>12.793922</ele>
|
|
<time>2026-07-11T09:03:20.000Z</time>
|
|
</trkpt>
|
|
<trkpt lat="55.477165" lon="8.437743">
|
|
<ele>12.736442</ele>
|
|
<time>2026-07-11T09:03:21.000Z</time>
|
|
</trkpt>
|
|
<trkpt lat="55.477114" lon="8.437734">
|
|
<ele>12.687558</ele>
|
|
<time>2026-07-11T09:03:22.000Z</time>
|
|
</trkpt>
|
|
<trkpt lat="55.477043" lon="8.437717">
|
|
<ele>12.619221</ele>
|
|
<time>2026-07-11T09:03:23.000Z</time>
|
|
</trkpt>
|
|
<trkpt lat="55.476977" lon="8.437689">
|
|
<ele>12.554480</ele>
|
|
<time>2026-07-11T09:03:24.000Z</time>
|
|
</trkpt>
|
|
<trkpt lat="55.476930" lon="8.437663">
|
|
<ele>12.507502</ele>
|
|
<time>2026-07-11T09:03:25.000Z</time>
|
|
</trkpt>
|
|
<trkpt lat="55.476868" lon="8.437627">
|
|
<ele>12.445250</ele>
|
|
<time>2026-07-11T09:03:26.000Z</time>
|
|
</trkpt>
|
|
<trkpt lat="55.476814" lon="8.437593">
|
|
<ele>12.390567</ele>
|
|
<time>2026-07-11T09:03:27.000Z</time>
|
|
</trkpt>
|
|
<trkpt lat="55.476752" lon="8.437568">
|
|
<ele>12.329910</ele>
|
|
<time>2026-07-11T09:03:28.000Z</time>
|
|
</trkpt>
|
|
<trkpt lat="55.476682" lon="8.437539">
|
|
<ele>12.261332</ele>
|
|
<time>2026-07-11T09:03:29.000Z</time>
|
|
</trkpt>
|
|
<trkpt lat="55.476632" lon="8.437510">
|
|
<ele>12.211134</ele>
|
|
<time>2026-07-11T09:03:30.000Z</time>
|
|
</trkpt>
|
|
<trkpt lat="55.476577" lon="8.437493">
|
|
<ele>12.157879</ele>
|
|
<time>2026-07-11T09:03:31.000Z</time>
|
|
</trkpt>
|
|
<trkpt lat="55.476517" lon="8.437472">
|
|
<ele>12.099539</ele>
|
|
<time>2026-07-11T09:03:32.000Z</time>
|
|
</trkpt>
|
|
<trkpt lat="55.476456" lon="8.437450">
|
|
<ele>12.040157</ele>
|
|
<time>2026-07-11T09:03:33.000Z</time>
|
|
</trkpt>
|
|
<trkpt lat="55.476402" lon="8.437419">
|
|
<ele>11.985998</ele>
|
|
<time>2026-07-11T09:03:34.000Z</time>
|
|
</trkpt>
|
|
<trkpt lat="55.476344" lon="8.437386">
|
|
<ele>11.927875</ele>
|
|
<time>2026-07-11T09:03:35.000Z</time>
|
|
</trkpt>
|
|
<trkpt lat="55.476280" lon="8.437360">
|
|
<ele>11.865238</ele>
|
|
<time>2026-07-11T09:03:36.000Z</time>
|
|
</trkpt>
|
|
<trkpt lat="55.476237" lon="8.437333">
|
|
<ele>11.821707</ele>
|
|
<time>2026-07-11T09:03:37.000Z</time>
|
|
</trkpt>
|
|
<trkpt lat="55.476178" lon="8.437289">
|
|
<ele>11.760616</ele>
|
|
<time>2026-07-11T09:03:38.000Z</time>
|
|
</trkpt>
|
|
<trkpt lat="55.476124" lon="8.437252">
|
|
<ele>11.705367</ele>
|
|
<time>2026-07-11T09:03:39.000Z</time>
|
|
</trkpt>
|
|
<trkpt lat="55.476069" lon="8.437216">
|
|
<ele>11.649418</ele>
|
|
<time>2026-07-11T09:03:40.000Z</time>
|
|
</trkpt>
|
|
<trkpt lat="55.475998" lon="8.437165">
|
|
<ele>11.576305</ele>
|
|
<time>2026-07-11T09:03:41.000Z</time>
|
|
</trkpt>
|
|
<trkpt lat="55.475947" lon="8.437129">
|
|
<ele>11.523915</ele>
|
|
<time>2026-07-11T09:03:42.000Z</time>
|
|
</trkpt>
|
|
<trkpt lat="55.475899" lon="8.437101">
|
|
<ele>11.475698</ele>
|
|
<time>2026-07-11T09:03:43.000Z</time>
|
|
</trkpt>
|
|
<trkpt lat="55.475840" lon="8.437071">
|
|
<ele>11.417137</ele>
|
|
<time>2026-07-11T09:03:44.000Z</time>
|
|
</trkpt>
|
|
<trkpt lat="55.475788" lon="8.437043">
|
|
<ele>11.365284</ele>
|
|
<time>2026-07-11T09:03:45.000Z</time>
|
|
</trkpt>
|
|
<trkpt lat="55.475733" lon="8.437009">
|
|
<ele>11.309701</ele>
|
|
<time>2026-07-11T09:03:46.000Z</time>
|
|
</trkpt>
|
|
<trkpt lat="55.475673" lon="8.436978">
|
|
<ele>11.250073</ele>
|
|
<time>2026-07-11T09:03:47.000Z</time>
|
|
</trkpt>
|
|
<trkpt lat="55.475626" lon="8.436954">
|
|
<ele>11.207431</ele>
|
|
<time>2026-07-11T09:03:48.000Z</time>
|
|
</trkpt>
|
|
<trkpt lat="55.475576" lon="8.436928">
|
|
<ele>11.163937</ele>
|
|
<time>2026-07-11T09:03:49.000Z</time>
|
|
</trkpt>
|
|
<trkpt lat="55.475535" lon="8.436916">
|
|
<ele>11.129259</ele>
|
|
<time>2026-07-11T09:03:50.000Z</time>
|
|
</trkpt>
|
|
<trkpt lat="55.475497" lon="8.436925">
|
|
<ele>11.097267</ele>
|
|
<time>2026-07-11T09:03:51.000Z</time>
|
|
</trkpt>
|
|
<trkpt lat="55.475474" lon="8.436949">
|
|
<ele>11.074971</ele>
|
|
<time>2026-07-11T09:03:52.000Z</time>
|
|
</trkpt>
|
|
<trkpt lat="55.475453" lon="8.436987">
|
|
<ele>11.049872</ele>
|
|
<time>2026-07-11T09:03:53.000Z</time>
|
|
</trkpt>
|
|
<trkpt lat="55.475445" lon="8.437036">
|
|
<ele>11.025757</ele>
|
|
<time>2026-07-11T09:03:54.000Z</time>
|
|
</trkpt>
|
|
<trkpt lat="55.475445" lon="8.437090">
|
|
<ele>11.000220</ele>
|
|
<time>2026-07-11T09:03:55.000Z</time>
|
|
</trkpt>
|
|
<trkpt lat="55.475448" lon="8.437157">
|
|
<ele>10.968437</ele>
|
|
<time>2026-07-11T09:03:56.000Z</time>
|
|
</trkpt>
|
|
<trkpt lat="55.475455" lon="8.437220">
|
|
<ele>10.938077</ele>
|
|
<time>2026-07-11T09:03:57.000Z</time>
|
|
</trkpt>
|
|
<trkpt lat="55.475460" lon="8.437299">
|
|
<ele>10.900485</ele>
|
|
<time>2026-07-11T09:03:58.000Z</time>
|
|
</trkpt>
|
|
<trkpt lat="55.475460" lon="8.437381">
|
|
<ele>10.861707</ele>
|
|
<time>2026-07-11T09:03:59.000Z</time>
|
|
</trkpt>
|
|
<trkpt lat="55.475456" lon="8.437450">
|
|
<ele>10.828907</ele>
|
|
<time>2026-07-11T09:04:00.000Z</time>
|
|
</trkpt>
|
|
<trkpt lat="55.475442" lon="8.437526">
|
|
<ele>10.791115</ele>
|
|
<time>2026-07-11T09:04:01.000Z</time>
|
|
</trkpt>
|
|
<trkpt lat="55.475423" lon="8.437607">
|
|
<ele>10.749659</ele>
|
|
<time>2026-07-11T09:04:02.000Z</time>
|
|
</trkpt>
|
|
<trkpt lat="55.475412" lon="8.437683">
|
|
<ele>10.712565</ele>
|
|
<time>2026-07-11T09:04:03.000Z</time>
|
|
</trkpt>
|
|
<trkpt lat="55.475404" lon="8.437777">
|
|
<ele>10.667613</ele>
|
|
<time>2026-07-11T09:04:04.000Z</time>
|
|
</trkpt>
|
|
<trkpt lat="55.475397" lon="8.437869">
|
|
<ele>10.623716</ele>
|
|
<time>2026-07-11T09:04:05.000Z</time>
|
|
</trkpt>
|
|
<trkpt lat="55.475387" lon="8.437960">
|
|
<ele>10.579880</ele>
|
|
<time>2026-07-11T09:04:06.000Z</time>
|
|
</trkpt>
|
|
<trkpt lat="55.475379" lon="8.438055">
|
|
<ele>10.534461</ele>
|
|
<time>2026-07-11T09:04:07.000Z</time>
|
|
</trkpt>
|
|
<trkpt lat="55.475371" lon="8.438155">
|
|
<ele>10.486702</ele>
|
|
<time>2026-07-11T09:04:08.000Z</time>
|
|
</trkpt>
|
|
<trkpt lat="55.475360" lon="8.438269">
|
|
<ele>10.432015</ele>
|
|
<time>2026-07-11T09:04:09.000Z</time>
|
|
</trkpt>
|
|
<trkpt lat="55.475351" lon="8.438375">
|
|
<ele>10.381327</ele>
|
|
<time>2026-07-11T09:04:10.000Z</time>
|
|
</trkpt>
|
|
<trkpt lat="55.475343" lon="8.438489">
|
|
<ele>10.327005</ele>
|
|
<time>2026-07-11T09:04:11.000Z</time>
|
|
</trkpt>
|
|
<trkpt lat="55.475330" lon="8.438572">
|
|
<ele>10.286282</ele>
|
|
<time>2026-07-11T09:04:12.000Z</time>
|
|
</trkpt>
|
|
<trkpt lat="55.475316" lon="8.438688">
|
|
<ele>10.230195</ele>
|
|
<time>2026-07-11T09:04:13.000Z</time>
|
|
</trkpt>
|
|
<trkpt lat="55.475306" lon="8.438780">
|
|
<ele>10.185895</ele>
|
|
<time>2026-07-11T09:04:14.000Z</time>
|
|
</trkpt>
|
|
<trkpt lat="55.475295" lon="8.438875">
|
|
<ele>10.140041</ele>
|
|
<time>2026-07-11T09:04:15.000Z</time>
|
|
</trkpt>
|
|
<trkpt lat="55.475284" lon="8.438977">
|
|
<ele>10.090939</ele>
|
|
<time>2026-07-11T09:04:16.000Z</time>
|
|
</trkpt>
|
|
<trkpt lat="55.475271" lon="8.439120">
|
|
<ele>10.022449</ele>
|
|
<time>2026-07-11T09:04:17.000Z</time>
|
|
</trkpt>
|
|
<trkpt lat="55.475257" lon="8.439257">
|
|
<ele>9.956616</ele>
|
|
<time>2026-07-11T09:04:18.000Z</time>
|
|
</trkpt>
|
|
<trkpt lat="55.475246" lon="8.439357">
|
|
<ele>9.908443</ele>
|
|
<time>2026-07-11T09:04:19.000Z</time>
|
|
</trkpt>
|
|
<trkpt lat="55.475235" lon="8.439458">
|
|
<ele>9.859806</ele>
|
|
<time>2026-07-11T09:04:20.000Z</time>
|
|
</trkpt>
|
|
<trkpt lat="55.475220" lon="8.439575">
|
|
<ele>9.803078</ele>
|
|
<time>2026-07-11T09:04:21.000Z</time>
|
|
</trkpt>
|
|
<trkpt lat="55.475206" lon="8.439679">
|
|
<ele>9.752527</ele>
|
|
<time>2026-07-11T09:04:22.000Z</time>
|
|
</trkpt>
|
|
<trkpt lat="55.475194" lon="8.439766">
|
|
<ele>9.761785</ele>
|
|
<time>2026-07-11T09:04:23.000Z</time>
|
|
</trkpt>
|
|
<trkpt lat="55.475182" lon="8.439846">
|
|
<ele>9.804787</ele>
|
|
<time>2026-07-11T09:04:24.000Z</time>
|
|
</trkpt>
|
|
<trkpt lat="55.475173" lon="8.439966">
|
|
<ele>9.867688</ele>
|
|
<time>2026-07-11T09:04:25.000Z</time>
|
|
</trkpt>
|
|
<trkpt lat="55.475165" lon="8.440051">
|
|
<ele>9.912462</ele>
|
|
<time>2026-07-11T09:04:26.000Z</time>
|
|
</trkpt>
|
|
<trkpt lat="55.475153" lon="8.440155">
|
|
<ele>9.967613</ele>
|
|
<time>2026-07-11T09:04:27.000Z</time>
|
|
</trkpt>
|
|
<trkpt lat="55.475145" lon="8.440239">
|
|
<ele>10.011875</ele>
|
|
<time>2026-07-11T09:04:28.000Z</time>
|
|
</trkpt>
|
|
<trkpt lat="55.475132" lon="8.440370">
|
|
<ele>10.080983</ele>
|
|
<time>2026-07-11T09:04:29.000Z</time>
|
|
</trkpt>
|
|
<trkpt lat="55.475116" lon="8.440540">
|
|
<ele>10.170532</ele>
|
|
<time>2026-07-11T09:04:30.000Z</time>
|
|
</trkpt>
|
|
<trkpt lat="55.475104" lon="8.440646">
|
|
<ele>10.226702</ele>
|
|
<time>2026-07-11T09:04:31.000Z</time>
|
|
</trkpt>
|
|
<trkpt lat="55.475093" lon="8.440752">
|
|
<ele>10.282700</ele>
|
|
<time>2026-07-11T09:04:32.000Z</time>
|
|
</trkpt>
|
|
<trkpt lat="55.475081" lon="8.440855">
|
|
<ele>10.337342</ele>
|
|
<time>2026-07-11T09:04:33.000Z</time>
|
|
</trkpt>
|
|
<trkpt lat="55.475070" lon="8.440952">
|
|
<ele>10.388747</ele>
|
|
<time>2026-07-11T09:04:34.000Z</time>
|
|
</trkpt>
|
|
<trkpt lat="55.475058" lon="8.441043">
|
|
<ele>10.437297</ele>
|
|
<time>2026-07-11T09:04:35.000Z</time>
|
|
</trkpt>
|
|
<trkpt lat="55.475044" lon="8.441126">
|
|
<ele>10.482297</ele>
|
|
<time>2026-07-11T09:04:36.000Z</time>
|
|
</trkpt>
|
|
<trkpt lat="55.475035" lon="8.441202">
|
|
<ele>10.522643</ele>
|
|
<time>2026-07-11T09:04:37.000Z</time>
|
|
</trkpt>
|
|
<trkpt lat="55.475030" lon="8.441279">
|
|
<ele>10.562917</ele>
|
|
<time>2026-07-11T09:04:38.000Z</time>
|
|
</trkpt>
|
|
<trkpt lat="55.475021" lon="8.441363">
|
|
<ele>10.607340</ele>
|
|
<time>2026-07-11T09:04:39.000Z</time>
|
|
</trkpt>
|
|
<trkpt lat="55.475012" lon="8.441451">
|
|
<ele>10.653807</ele>
|
|
<time>2026-07-11T09:04:40.000Z</time>
|
|
</trkpt>
|
|
<trkpt lat="55.475007" lon="8.441537">
|
|
<ele>10.698731</ele>
|
|
<time>2026-07-11T09:04:41.000Z</time>
|
|
</trkpt>
|
|
<trkpt lat="55.474999" lon="8.441626">
|
|
<ele>10.745557</ele>
|
|
<time>2026-07-11T09:04:42.000Z</time>
|
|
</trkpt>
|
|
<trkpt lat="55.474990" lon="8.441720">
|
|
<ele>10.795096</ele>
|
|
<time>2026-07-11T09:04:43.000Z</time>
|
|
</trkpt>
|
|
<trkpt lat="55.474979" lon="8.441811">
|
|
<ele>10.843447</ele>
|
|
<time>2026-07-11T09:04:44.000Z</time>
|
|
</trkpt>
|
|
<trkpt lat="55.474967" lon="8.441907">
|
|
<ele>10.894531</ele>
|
|
<time>2026-07-11T09:04:45.000Z</time>
|
|
</trkpt>
|
|
<trkpt lat="55.474956" lon="8.442002">
|
|
<ele>10.944917</ele>
|
|
<time>2026-07-11T09:04:46.000Z</time>
|
|
</trkpt>
|
|
<trkpt lat="55.474946" lon="8.442088">
|
|
<ele>10.990537</ele>
|
|
<time>2026-07-11T09:04:47.000Z</time>
|
|
</trkpt>
|
|
<trkpt lat="55.474939" lon="8.442174">
|
|
<ele>11.035685</ele>
|
|
<time>2026-07-11T09:04:48.000Z</time>
|
|
</trkpt>
|
|
<trkpt lat="55.474926" lon="8.442277">
|
|
<ele>11.090519</ele>
|
|
<time>2026-07-11T09:04:49.000Z</time>
|
|
</trkpt>
|
|
<trkpt lat="55.474916" lon="8.442373">
|
|
<ele>11.141241</ele>
|
|
<time>2026-07-11T09:04:50.000Z</time>
|
|
</trkpt>
|
|
<trkpt lat="55.474907" lon="8.442468">
|
|
<ele>11.191292</ele>
|
|
<time>2026-07-11T09:04:51.000Z</time>
|
|
</trkpt>
|
|
<trkpt lat="55.474897" lon="8.442564">
|
|
<ele>11.242013</ele>
|
|
<time>2026-07-11T09:04:52.000Z</time>
|
|
</trkpt>
|
|
<trkpt lat="55.474888" lon="8.442659">
|
|
<ele>11.292064</ele>
|
|
<time>2026-07-11T09:04:53.000Z</time>
|
|
</trkpt>
|
|
<trkpt lat="55.474877" lon="8.442766">
|
|
<ele>11.348574</ele>
|
|
<time>2026-07-11T09:04:54.000Z</time>
|
|
</trkpt>
|
|
<trkpt lat="55.474870" lon="8.442862">
|
|
<ele>11.406934</ele>
|
|
<time>2026-07-11T09:04:55.000Z</time>
|
|
</trkpt>
|
|
<trkpt lat="55.474864" lon="8.442947">
|
|
<ele>11.475368</ele>
|
|
<time>2026-07-11T09:04:56.000Z</time>
|
|
</trkpt>
|
|
<trkpt lat="55.474859" lon="8.443046">
|
|
<ele>11.554775</ele>
|
|
<time>2026-07-11T09:04:57.000Z</time>
|
|
</trkpt>
|
|
<trkpt lat="55.474851" lon="8.443145">
|
|
<ele>11.634669</ele>
|
|
<time>2026-07-11T09:04:58.000Z</time>
|
|
</trkpt>
|
|
<trkpt lat="55.474843" lon="8.443242">
|
|
<ele>11.712981</ele>
|
|
<time>2026-07-11T09:04:59.000Z</time>
|
|
</trkpt>
|
|
<trkpt lat="55.474833" lon="8.443336">
|
|
<ele>11.789392</ele>
|
|
<time>2026-07-11T09:05:00.000Z</time>
|
|
</trkpt>
|
|
<trkpt lat="55.474821" lon="8.443411">
|
|
<ele>11.851654</ele>
|
|
<time>2026-07-11T09:05:01.000Z</time>
|
|
</trkpt>
|
|
<trkpt lat="55.474806" lon="8.443480">
|
|
<ele>11.910696</ele>
|
|
<time>2026-07-11T09:05:02.000Z</time>
|
|
</trkpt>
|
|
<trkpt lat="55.474793" lon="8.443549">
|
|
<ele>11.968788</ele>
|
|
<time>2026-07-11T09:05:03.000Z</time>
|
|
</trkpt>
|
|
<trkpt lat="55.474783" lon="8.443622">
|
|
<ele>12.028789</ele>
|
|
<time>2026-07-11T09:05:04.000Z</time>
|
|
</trkpt>
|
|
<trkpt lat="55.474776" lon="8.443709">
|
|
<ele>12.098993</ele>
|
|
<time>2026-07-11T09:05:05.000Z</time>
|
|
</trkpt>
|
|
<trkpt lat="55.474772" lon="8.443783">
|
|
<ele>12.158382</ele>
|
|
<time>2026-07-11T09:05:06.000Z</time>
|
|
</trkpt>
|
|
<trkpt lat="55.474768" lon="8.443855">
|
|
<ele>12.216181</ele>
|
|
<time>2026-07-11T09:05:07.000Z</time>
|
|
</trkpt>
|
|
<trkpt lat="55.474761" lon="8.443929">
|
|
<ele>12.276119</ele>
|
|
<time>2026-07-11T09:05:08.000Z</time>
|
|
</trkpt>
|
|
<trkpt lat="55.474754" lon="8.444007">
|
|
<ele>12.339212</ele>
|
|
<time>2026-07-11T09:05:09.000Z</time>
|
|
</trkpt>
|
|
<trkpt lat="55.474746" lon="8.444099">
|
|
<ele>12.413574</ele>
|
|
<time>2026-07-11T09:05:10.000Z</time>
|
|
</trkpt>
|
|
<trkpt lat="55.474742" lon="8.444188">
|
|
<ele>12.484902</ele>
|
|
<time>2026-07-11T09:05:11.000Z</time>
|
|
</trkpt>
|
|
<trkpt lat="55.474734" lon="8.444277">
|
|
<ele>12.556895</ele>
|
|
<time>2026-07-11T09:05:12.000Z</time>
|
|
</trkpt>
|
|
<trkpt lat="55.474731" lon="8.444353">
|
|
<ele>12.617761</ele>
|
|
<time>2026-07-11T09:05:13.000Z</time>
|
|
</trkpt>
|
|
<trkpt lat="55.474724" lon="8.444437">
|
|
<ele>12.685593</ele>
|
|
<time>2026-07-11T09:05:14.000Z</time>
|
|
</trkpt>
|
|
<trkpt lat="55.474715" lon="8.444526">
|
|
<ele>12.757821</ele>
|
|
<time>2026-07-11T09:05:15.000Z</time>
|
|
</trkpt>
|
|
<trkpt lat="55.474703" lon="8.444610">
|
|
<ele>12.827030</ele>
|
|
<time>2026-07-11T09:05:16.000Z</time>
|
|
</trkpt>
|
|
<trkpt lat="55.474689" lon="8.444683">
|
|
<ele>12.888600</ele>
|
|
<time>2026-07-11T09:05:17.000Z</time>
|
|
</trkpt>
|
|
<trkpt lat="55.474676" lon="8.444782">
|
|
<ele>12.969789</ele>
|
|
<time>2026-07-11T09:05:18.000Z</time>
|
|
</trkpt>
|
|
<trkpt lat="55.474665" lon="8.444853">
|
|
<ele>13.028595</ele>
|
|
<time>2026-07-11T09:05:19.000Z</time>
|
|
</trkpt>
|
|
<trkpt lat="55.474654" lon="8.444929">
|
|
<ele>13.091262</ele>
|
|
<time>2026-07-11T09:05:20.000Z</time>
|
|
</trkpt>
|
|
<trkpt lat="55.474639" lon="8.445004">
|
|
<ele>13.154803</ele>
|
|
<time>2026-07-11T09:05:21.000Z</time>
|
|
</trkpt>
|
|
<trkpt lat="55.474626" lon="8.445086">
|
|
<ele>13.222831</ele>
|
|
<time>2026-07-11T09:05:22.000Z</time>
|
|
</trkpt>
|
|
<trkpt lat="55.474616" lon="8.445150">
|
|
<ele>13.275870</ele>
|
|
<time>2026-07-11T09:05:23.000Z</time>
|
|
</trkpt>
|
|
<trkpt lat="55.474608" lon="8.445220">
|
|
<ele>13.332921</ele>
|
|
<time>2026-07-11T09:05:24.000Z</time>
|
|
</trkpt>
|
|
<trkpt lat="55.474601" lon="8.445282">
|
|
<ele>13.383428</ele>
|
|
<time>2026-07-11T09:05:25.000Z</time>
|
|
</trkpt>
|
|
<trkpt lat="55.474592" lon="8.445351">
|
|
<ele>13.439995</ele>
|
|
<time>2026-07-11T09:05:26.000Z</time>
|
|
</trkpt>
|
|
<trkpt lat="55.474586" lon="8.445408">
|
|
<ele>13.486313</ele>
|
|
<time>2026-07-11T09:05:27.000Z</time>
|
|
</trkpt>
|
|
<trkpt lat="55.474582" lon="8.445458">
|
|
<ele>13.526656</ele>
|
|
<time>2026-07-11T09:05:28.000Z</time>
|
|
</trkpt>
|
|
<trkpt lat="55.474575" lon="8.445507">
|
|
<ele>13.567028</ele>
|
|
<time>2026-07-11T09:05:29.000Z</time>
|
|
</trkpt>
|
|
<trkpt lat="55.474575" lon="8.445558">
|
|
<ele>13.607774</ele>
|
|
<time>2026-07-11T09:05:30.000Z</time>
|
|
</trkpt>
|
|
<trkpt lat="55.474575" lon="8.445600">
|
|
<ele>13.641329</ele>
|
|
<time>2026-07-11T09:05:31.000Z</time>
|
|
</trkpt>
|
|
<trkpt lat="55.474576" lon="8.445652">
|
|
<ele>13.682897</ele>
|
|
<time>2026-07-11T09:05:32.000Z</time>
|
|
</trkpt>
|
|
<trkpt lat="55.474579" lon="8.445683">
|
|
<ele>13.708023</ele>
|
|
<time>2026-07-11T09:05:33.000Z</time>
|
|
</trkpt>
|
|
<trkpt lat="55.474584" lon="8.445722">
|
|
<ele>13.739968</ele>
|
|
<time>2026-07-11T09:05:34.000Z</time>
|
|
</trkpt>
|
|
<trkpt lat="55.474589" lon="8.445748">
|
|
<ele>13.761904</ele>
|
|
<time>2026-07-11T09:05:35.000Z</time>
|
|
</trkpt>
|
|
<trkpt lat="55.474596" lon="8.445779">
|
|
<ele>13.788564</ele>
|
|
<time>2026-07-11T09:05:36.000Z</time>
|
|
</trkpt>
|
|
<trkpt lat="55.474598" lon="8.445802">
|
|
<ele>13.807154</ele>
|
|
<time>2026-07-11T09:05:37.000Z</time>
|
|
</trkpt>
|
|
<trkpt lat="55.474568" lon="8.445989">
|
|
<ele>13.953543</ele>
|
|
<time>2026-07-11T09:06:14.000Z</time>
|
|
</trkpt>
|
|
<trkpt lat="55.474566" lon="8.446042">
|
|
<ele>13.987246</ele>
|
|
<time>2026-07-11T09:06:15.000Z</time>
|
|
</trkpt>
|
|
<trkpt lat="55.474563" lon="8.446074">
|
|
<ele>14.007826</ele>
|
|
<time>2026-07-11T09:06:16.000Z</time>
|
|
</trkpt>
|
|
<trkpt lat="55.474560" lon="8.446106">
|
|
<ele>14.028406</ele>
|
|
<time>2026-07-11T09:06:17.000Z</time>
|
|
</trkpt>
|
|
<trkpt lat="55.474558" lon="8.446133">
|
|
<ele>14.045683</ele>
|
|
<time>2026-07-11T09:06:18.000Z</time>
|
|
</trkpt>
|
|
<trkpt lat="55.474551" lon="8.446171">
|
|
<ele>14.071036</ele>
|
|
<time>2026-07-11T09:06:19.000Z</time>
|
|
</trkpt>
|
|
<trkpt lat="55.474548" lon="8.446192">
|
|
<ele>14.084777</ele>
|
|
<time>2026-07-11T09:06:20.000Z</time>
|
|
</trkpt>
|
|
<trkpt lat="55.474543" lon="8.446233">
|
|
<ele>14.111387</ele>
|
|
<time>2026-07-11T09:06:21.000Z</time>
|
|
</trkpt>
|
|
<trkpt lat="55.474540" lon="8.446265">
|
|
<ele>14.131967</ele>
|
|
<time>2026-07-11T09:06:22.000Z</time>
|
|
</trkpt>
|
|
<trkpt lat="55.474530" lon="8.446324">
|
|
<ele>14.171040</ele>
|
|
<time>2026-07-11T09:06:23.000Z</time>
|
|
</trkpt>
|
|
<trkpt lat="55.474525" lon="8.446366">
|
|
<ele>14.198271</ele>
|
|
<time>2026-07-11T09:06:24.000Z</time>
|
|
</trkpt>
|
|
<trkpt lat="55.474522" lon="8.446414">
|
|
<ele>14.228912</ele>
|
|
<time>2026-07-11T09:06:25.000Z</time>
|
|
</trkpt>
|
|
<trkpt lat="55.474513" lon="8.446488">
|
|
<ele>14.276934</ele>
|
|
<time>2026-07-11T09:06:26.000Z</time>
|
|
</trkpt>
|
|
<trkpt lat="55.474504" lon="8.446559">
|
|
<ele>14.323096</ele>
|
|
<time>2026-07-11T09:06:27.000Z</time>
|
|
</trkpt>
|
|
<trkpt lat="55.474494" lon="8.446622">
|
|
<ele>14.364608</ele>
|
|
<time>2026-07-11T09:06:28.000Z</time>
|
|
</trkpt>
|
|
<trkpt lat="55.474487" lon="8.446684">
|
|
<ele>14.404720</ele>
|
|
<time>2026-07-11T09:06:29.000Z</time>
|
|
</trkpt>
|
|
<trkpt lat="55.474475" lon="8.446762">
|
|
<ele>14.456002</ele>
|
|
<time>2026-07-11T09:06:30.000Z</time>
|
|
</trkpt>
|
|
<trkpt lat="55.474466" lon="8.446833">
|
|
<ele>14.502164</ele>
|
|
<time>2026-07-11T09:06:31.000Z</time>
|
|
</trkpt>
|
|
<trkpt lat="55.474456" lon="8.446897">
|
|
<ele>14.544287</ele>
|
|
<time>2026-07-11T09:06:32.000Z</time>
|
|
</trkpt>
|
|
<trkpt lat="55.474449" lon="8.446951">
|
|
<ele>14.579435</ele>
|
|
<time>2026-07-11T09:06:33.000Z</time>
|
|
</trkpt>
|
|
<trkpt lat="55.474436" lon="8.447032">
|
|
<ele>14.632851</ele>
|
|
<time>2026-07-11T09:06:34.000Z</time>
|
|
</trkpt>
|
|
<trkpt lat="55.474430" lon="8.447091">
|
|
<ele>14.670884</ele>
|
|
<time>2026-07-11T09:06:35.000Z</time>
|
|
</trkpt>
|
|
<trkpt lat="55.474422" lon="8.447154">
|
|
<ele>14.711849</ele>
|
|
<time>2026-07-11T09:06:36.000Z</time>
|
|
</trkpt>
|
|
<trkpt lat="55.474414" lon="8.447220">
|
|
<ele>14.754673</ele>
|
|
<time>2026-07-11T09:06:37.000Z</time>
|
|
</trkpt>
|
|
<trkpt lat="55.474407" lon="8.447277">
|
|
<ele>14.791679</ele>
|
|
<time>2026-07-11T09:06:38.000Z</time>
|
|
</trkpt>
|
|
<trkpt lat="55.474403" lon="8.447334">
|
|
<ele>14.828122</ele>
|
|
<time>2026-07-11T09:06:39.000Z</time>
|
|
</trkpt>
|
|
<trkpt lat="55.474392" lon="8.447391">
|
|
<ele>14.866327</ele>
|
|
<time>2026-07-11T09:06:40.000Z</time>
|
|
</trkpt>
|
|
<trkpt lat="55.474388" lon="8.447443">
|
|
<ele>14.899624</ele>
|
|
<time>2026-07-11T09:06:41.000Z</time>
|
|
</trkpt>
|
|
<trkpt lat="55.474384" lon="8.447487">
|
|
<ele>14.927899</ele>
|
|
<time>2026-07-11T09:06:42.000Z</time>
|
|
</trkpt>
|
|
<trkpt lat="55.474370" lon="8.447549">
|
|
<ele>14.970245</ele>
|
|
<time>2026-07-11T09:06:43.000Z</time>
|
|
</trkpt>
|
|
<trkpt lat="55.474364" lon="8.447583">
|
|
<ele>14.992840</ele>
|
|
<time>2026-07-11T09:06:44.000Z</time>
|
|
</trkpt>
|
|
<trkpt lat="55.474351" lon="8.447619">
|
|
<ele>15.019924</ele>
|
|
<time>2026-07-11T09:06:45.000Z</time>
|
|
</trkpt>
|
|
<trkpt lat="55.474330" lon="8.447662">
|
|
<ele>15.055939</ele>
|
|
<time>2026-07-11T09:06:46.000Z</time>
|
|
</trkpt>
|
|
<trkpt lat="55.474304" lon="8.447683">
|
|
<ele>15.087951</ele>
|
|
<time>2026-07-11T09:06:47.000Z</time>
|
|
</trkpt>
|
|
<trkpt lat="55.474282" lon="8.447688">
|
|
<ele>15.112784</ele>
|
|
<time>2026-07-11T09:06:48.000Z</time>
|
|
</trkpt>
|
|
<trkpt lat="55.474251" lon="8.447689">
|
|
<ele>15.147494</ele>
|
|
<time>2026-07-11T09:06:49.000Z</time>
|
|
</trkpt>
|
|
<trkpt lat="55.474232" lon="8.447687">
|
|
<ele>15.168802</ele>
|
|
<time>2026-07-11T09:06:50.000Z</time>
|
|
</trkpt>
|
|
<trkpt lat="55.474201" lon="8.447678">
|
|
<ele>15.203973</ele>
|
|
<time>2026-07-11T09:06:51.000Z</time>
|
|
</trkpt>
|
|
<trkpt lat="55.474180" lon="8.447670">
|
|
<ele>15.228025</ele>
|
|
<time>2026-07-11T09:06:52.000Z</time>
|
|
</trkpt>
|
|
<trkpt lat="55.474152" lon="8.447661">
|
|
<ele>15.259886</ele>
|
|
<time>2026-07-11T09:06:53.000Z</time>
|
|
</trkpt>
|
|
<trkpt lat="55.474133" lon="8.447656">
|
|
<ele>15.281392</ele>
|
|
<time>2026-07-11T09:06:54.000Z</time>
|
|
</trkpt>
|
|
<trkpt lat="55.474107" lon="8.447650">
|
|
<ele>15.310747</ele>
|
|
<time>2026-07-11T09:06:55.000Z</time>
|
|
</trkpt>
|
|
<trkpt lat="55.474092" lon="8.447647">
|
|
<ele>15.327647</ele>
|
|
<time>2026-07-11T09:06:56.000Z</time>
|
|
</trkpt>
|
|
<trkpt lat="55.474069" lon="8.447643">
|
|
<ele>15.353520</ele>
|
|
<time>2026-07-11T09:06:57.000Z</time>
|
|
</trkpt>
|
|
<trkpt lat="55.474056" lon="8.447641">
|
|
<ele>15.368129</ele>
|
|
<time>2026-07-11T09:06:58.000Z</time>
|
|
</trkpt>
|
|
<trkpt lat="55.474046" lon="8.447656">
|
|
<ele>15.382823</ele>
|
|
<time>2026-07-11T09:06:59.000Z</time>
|
|
</trkpt>
|
|
<trkpt lat="55.474038" lon="8.447666">
|
|
<ele>15.393799</ele>
|
|
<time>2026-07-11T09:07:00.000Z</time>
|
|
</trkpt>
|
|
<trkpt lat="55.474019" lon="8.447682">
|
|
<ele>15.417368</ele>
|
|
<time>2026-07-11T09:07:01.000Z</time>
|
|
</trkpt>
|
|
<trkpt lat="55.474017" lon="8.447694">
|
|
<ele>15.425304</ele>
|
|
<time>2026-07-11T09:45:21.000Z</time>
|
|
</trkpt>
|
|
<trkpt lat="55.474036" lon="8.447696">
|
|
<ele>15.446613</ele>
|
|
<time>2026-07-11T09:45:22.000Z</time>
|
|
</trkpt>
|
|
<trkpt lat="55.474059" lon="8.447698">
|
|
<ele>15.472392</ele>
|
|
<time>2026-07-11T09:45:23.000Z</time>
|
|
</trkpt>
|
|
<trkpt lat="55.474084" lon="8.447703">
|
|
<ele>15.500559</ele>
|
|
<time>2026-07-11T09:45:24.000Z</time>
|
|
</trkpt>
|
|
<trkpt lat="55.474107" lon="8.447713">
|
|
<ele>15.527078</ele>
|
|
<time>2026-07-11T09:45:25.000Z</time>
|
|
</trkpt>
|
|
<trkpt lat="55.474127" lon="8.447725">
|
|
<ele>15.550727</ele>
|
|
<time>2026-07-11T09:45:26.000Z</time>
|
|
</trkpt>
|
|
<trkpt lat="55.474149" lon="8.447737">
|
|
<ele>15.576506</ele>
|
|
<time>2026-07-11T09:45:27.000Z</time>
|
|
</trkpt>
|
|
<trkpt lat="55.474171" lon="8.447749">
|
|
<ele>15.602285</ele>
|
|
<time>2026-07-11T09:45:28.000Z</time>
|
|
</trkpt>
|
|
<trkpt lat="55.474196" lon="8.447763">
|
|
<ele>15.631648</ele>
|
|
<time>2026-07-11T09:45:29.000Z</time>
|
|
</trkpt>
|
|
<trkpt lat="55.474219" lon="8.447779">
|
|
<ele>15.659326</ele>
|
|
<time>2026-07-11T09:45:30.000Z</time>
|
|
</trkpt>
|
|
<trkpt lat="55.474240" lon="8.447791">
|
|
<ele>15.684038</ele>
|
|
<time>2026-07-11T09:45:31.000Z</time>
|
|
</trkpt>
|
|
<trkpt lat="55.474261" lon="8.447800">
|
|
<ele>15.708231</ele>
|
|
<time>2026-07-11T09:45:32.000Z</time>
|
|
</trkpt>
|
|
<trkpt lat="55.474285" lon="8.447805">
|
|
<ele>15.735285</ele>
|
|
<time>2026-07-11T09:45:33.000Z</time>
|
|
</trkpt>
|
|
<trkpt lat="55.474312" lon="8.447809">
|
|
<ele>15.765618</ele>
|
|
<time>2026-07-11T09:45:34.000Z</time>
|
|
</trkpt>
|
|
<trkpt lat="55.474343" lon="8.447816">
|
|
<ele>15.800606</ele>
|
|
<time>2026-07-11T09:45:35.000Z</time>
|
|
</trkpt>
|
|
<trkpt lat="55.474377" lon="8.447822">
|
|
<ele>15.838858</ele>
|
|
<time>2026-07-11T09:45:36.000Z</time>
|
|
</trkpt>
|
|
<trkpt lat="55.474411" lon="8.447830">
|
|
<ele>15.877258</ele>
|
|
<time>2026-07-11T09:45:37.000Z</time>
|
|
</trkpt>
|
|
<trkpt lat="55.474444" lon="8.447839">
|
|
<ele>15.914640</ele>
|
|
<time>2026-07-11T09:45:38.000Z</time>
|
|
</trkpt>
|
|
<trkpt lat="55.474475" lon="8.447847">
|
|
<ele>15.947009</ele>
|
|
<time>2026-07-11T09:45:39.000Z</time>
|
|
</trkpt>
|
|
<trkpt lat="55.474510" lon="8.447857">
|
|
<ele>15.980334</ele>
|
|
<time>2026-07-11T09:45:40.000Z</time>
|
|
</trkpt>
|
|
<trkpt lat="55.474541" lon="8.447871">
|
|
<ele>16.010411</ele>
|
|
<time>2026-07-11T09:45:41.000Z</time>
|
|
</trkpt>
|
|
<trkpt lat="55.474570" lon="8.447886">
|
|
<ele>16.038816</ele>
|
|
<time>2026-07-11T09:45:42.000Z</time>
|
|
</trkpt>
|
|
<trkpt lat="55.474600" lon="8.447898">
|
|
<ele>16.067729</ele>
|
|
<time>2026-07-11T09:45:43.000Z</time>
|
|
</trkpt>
|
|
<trkpt lat="55.474633" lon="8.447907">
|
|
<ele>16.099114</ele>
|
|
<time>2026-07-11T09:45:44.000Z</time>
|
|
</trkpt>
|
|
<trkpt lat="55.474665" lon="8.447917">
|
|
<ele>16.129660</ele>
|
|
<time>2026-07-11T09:45:45.000Z</time>
|
|
</trkpt>
|
|
<trkpt lat="55.474699" lon="8.447930">
|
|
<ele>16.162358</ele>
|
|
<time>2026-07-11T09:45:46.000Z</time>
|
|
</trkpt>
|
|
<trkpt lat="55.474737" lon="8.447943">
|
|
<ele>16.198740</ele>
|
|
<time>2026-07-11T09:45:47.000Z</time>
|
|
</trkpt>
|
|
<trkpt lat="55.474776" lon="8.447954">
|
|
<ele>16.235862</ele>
|
|
<time>2026-07-11T09:45:48.000Z</time>
|
|
</trkpt>
|
|
<trkpt lat="55.474817" lon="8.447965">
|
|
<ele>16.274842</ele>
|
|
<time>2026-07-11T09:45:49.000Z</time>
|
|
</trkpt>
|
|
<trkpt lat="55.474854" lon="8.447975">
|
|
<ele>16.310024</ele>
|
|
<time>2026-07-11T09:45:50.000Z</time>
|
|
</trkpt>
|
|
<trkpt lat="55.474890" lon="8.447987">
|
|
<ele>16.344460</ele>
|
|
<time>2026-07-11T09:45:51.000Z</time>
|
|
</trkpt>
|
|
<trkpt lat="55.474928" lon="8.448003">
|
|
<ele>16.381179</ele>
|
|
<time>2026-07-11T09:45:52.000Z</time>
|
|
</trkpt>
|
|
<trkpt lat="55.474966" lon="8.448020">
|
|
<ele>16.418026</ele>
|
|
<time>2026-07-11T09:45:53.000Z</time>
|
|
</trkpt>
|
|
<trkpt lat="55.475006" lon="8.448038">
|
|
<ele>16.456826</ele>
|
|
<time>2026-07-11T09:45:54.000Z</time>
|
|
</trkpt>
|
|
<trkpt lat="55.475044" lon="8.448055">
|
|
<ele>16.493673</ele>
|
|
<time>2026-07-11T09:45:55.000Z</time>
|
|
</trkpt>
|
|
<trkpt lat="55.475080" lon="8.448067">
|
|
<ele>16.528109</ele>
|
|
<time>2026-07-11T09:45:56.000Z</time>
|
|
</trkpt>
|
|
<trkpt lat="55.475119" lon="8.448074">
|
|
<ele>16.564955</ele>
|
|
<time>2026-07-11T09:45:57.000Z</time>
|
|
</trkpt>
|
|
<trkpt lat="55.475154" lon="8.448079">
|
|
<ele>16.597959</ele>
|
|
<time>2026-07-11T09:45:58.000Z</time>
|
|
</trkpt>
|
|
<trkpt lat="55.475189" lon="8.448088">
|
|
<ele>16.631204</ele>
|
|
<time>2026-07-11T09:45:59.000Z</time>
|
|
</trkpt>
|
|
<trkpt lat="55.475228" lon="8.448103">
|
|
<ele>16.668721</ele>
|
|
<time>2026-07-11T09:46:00.000Z</time>
|
|
</trkpt>
|
|
<trkpt lat="55.475268" lon="8.448120">
|
|
<ele>16.707393</ele>
|
|
<time>2026-07-11T09:46:01.000Z</time>
|
|
</trkpt>
|
|
<trkpt lat="55.475311" lon="8.448138">
|
|
<ele>16.748931</ele>
|
|
<time>2026-07-11T09:46:02.000Z</time>
|
|
</trkpt>
|
|
<trkpt lat="55.475351" lon="8.448155">
|
|
<ele>16.787603</ele>
|
|
<time>2026-07-11T09:46:03.000Z</time>
|
|
</trkpt>
|
|
<trkpt lat="55.475388" lon="8.448171">
|
|
<ele>16.823409</ele>
|
|
<time>2026-07-11T09:46:04.000Z</time>
|
|
</trkpt>
|
|
<trkpt lat="55.475424" lon="8.448191">
|
|
<ele>16.858884</ele>
|
|
<time>2026-07-11T09:46:05.000Z</time>
|
|
</trkpt>
|
|
<trkpt lat="55.475463" lon="8.448211">
|
|
<ele>16.897057</ele>
|
|
<time>2026-07-11T09:46:06.000Z</time>
|
|
</trkpt>
|
|
<trkpt lat="55.475504" lon="8.448226">
|
|
<ele>16.936413</ele>
|
|
<time>2026-07-11T09:46:07.000Z</time>
|
|
</trkpt>
|
|
<trkpt lat="55.475543" lon="8.448240">
|
|
<ele>16.973821</ele>
|
|
<time>2026-07-11T09:46:08.000Z</time>
|
|
</trkpt>
|
|
<trkpt lat="55.475583" lon="8.448255">
|
|
<ele>17.012257</ele>
|
|
<time>2026-07-11T09:46:09.000Z</time>
|
|
</trkpt>
|
|
<trkpt lat="55.475622" lon="8.448270">
|
|
<ele>17.049775</ele>
|
|
<time>2026-07-11T09:46:10.000Z</time>
|
|
</trkpt>
|
|
<trkpt lat="55.475655" lon="8.448273">
|
|
<ele>17.080833</ele>
|
|
<time>2026-07-11T09:46:11.000Z</time>
|
|
</trkpt>
|
|
<trkpt lat="55.475687" lon="8.448270">
|
|
<ele>17.110953</ele>
|
|
<time>2026-07-11T09:46:12.000Z</time>
|
|
</trkpt>
|
|
<trkpt lat="55.475724" lon="8.448283">
|
|
<ele>17.146412</ele>
|
|
<time>2026-07-11T09:46:13.000Z</time>
|
|
</trkpt>
|
|
<trkpt lat="55.475759" lon="8.448307">
|
|
<ele>17.181706</ele>
|
|
<time>2026-07-11T09:46:14.000Z</time>
|
|
</trkpt>
|
|
<trkpt lat="55.475790" lon="8.448337">
|
|
<ele>17.214938</ele>
|
|
<time>2026-07-11T09:46:15.000Z</time>
|
|
</trkpt>
|
|
<trkpt lat="55.475819" lon="8.448365">
|
|
<ele>17.246010</ele>
|
|
<time>2026-07-11T09:46:16.000Z</time>
|
|
</trkpt>
|
|
<trkpt lat="55.475846" lon="8.448383">
|
|
<ele>17.273139</ele>
|
|
<time>2026-07-11T09:46:17.000Z</time>
|
|
</trkpt>
|
|
<trkpt lat="55.475876" lon="8.448387">
|
|
<ele>17.301416</ele>
|
|
<time>2026-07-11T09:46:18.000Z</time>
|
|
</trkpt>
|
|
<trkpt lat="55.475910" lon="8.448382">
|
|
<ele>17.333484</ele>
|
|
<time>2026-07-11T09:46:19.000Z</time>
|
|
</trkpt>
|
|
<trkpt lat="55.475943" lon="8.448378">
|
|
<ele>17.364575</ele>
|
|
<time>2026-07-11T09:46:20.000Z</time>
|
|
</trkpt>
|
|
<trkpt lat="55.475977" lon="8.448380">
|
|
<ele>17.396549</ele>
|
|
<time>2026-07-11T09:46:21.000Z</time>
|
|
</trkpt>
|
|
<trkpt lat="55.476015" lon="8.448388">
|
|
<ele>17.432519</ele>
|
|
<time>2026-07-11T09:46:22.000Z</time>
|
|
</trkpt>
|
|
<trkpt lat="55.476053" lon="8.448398">
|
|
<ele>17.468631</ele>
|
|
<time>2026-07-11T09:46:23.000Z</time>
|
|
</trkpt>
|
|
<trkpt lat="55.476089" lon="8.448411">
|
|
<ele>17.503169</ele>
|
|
<time>2026-07-11T09:46:24.000Z</time>
|
|
</trkpt>
|
|
<trkpt lat="55.476127" lon="8.448423">
|
|
<ele>17.539454</ele>
|
|
<time>2026-07-11T09:46:25.000Z</time>
|
|
</trkpt>
|
|
<trkpt lat="55.476166" lon="8.448430">
|
|
<ele>17.576300</ele>
|
|
<time>2026-07-11T09:46:26.000Z</time>
|
|
</trkpt>
|
|
<trkpt lat="55.476204" lon="8.448440">
|
|
<ele>17.612411</ele>
|
|
<time>2026-07-11T09:46:27.000Z</time>
|
|
</trkpt>
|
|
<trkpt lat="55.476246" lon="8.448453">
|
|
<ele>17.633179</ele>
|
|
<time>2026-07-11T09:46:28.000Z</time>
|
|
</trkpt>
|
|
<trkpt lat="55.476288" lon="8.448468">
|
|
<ele>17.646700</ele>
|
|
<time>2026-07-11T09:46:29.000Z</time>
|
|
</trkpt>
|
|
<trkpt lat="55.476332" lon="8.448486">
|
|
<ele>17.660952</ele>
|
|
<time>2026-07-11T09:46:30.000Z</time>
|
|
</trkpt>
|
|
<trkpt lat="55.476375" lon="8.448504">
|
|
<ele>17.674896</ele>
|
|
<time>2026-07-11T09:46:31.000Z</time>
|
|
</trkpt>
|
|
<trkpt lat="55.476417" lon="8.448525">
|
|
<ele>17.688670</ele>
|
|
<time>2026-07-11T09:46:32.000Z</time>
|
|
</trkpt>
|
|
<trkpt lat="55.476461" lon="8.448545">
|
|
<ele>17.703007</ele>
|
|
<time>2026-07-11T09:46:33.000Z</time>
|
|
</trkpt>
|
|
<trkpt lat="55.476506" lon="8.448562">
|
|
<ele>17.717528</ele>
|
|
<time>2026-07-11T09:46:34.000Z</time>
|
|
</trkpt>
|
|
<trkpt lat="55.476550" lon="8.448577">
|
|
<ele>17.731668</ele>
|
|
<time>2026-07-11T09:46:35.000Z</time>
|
|
</trkpt>
|
|
<trkpt lat="55.476593" lon="8.448591">
|
|
<ele>17.745465</ele>
|
|
<time>2026-07-11T09:46:36.000Z</time>
|
|
</trkpt>
|
|
<trkpt lat="55.476640" lon="8.448606">
|
|
<ele>17.760536</ele>
|
|
<time>2026-07-11T09:46:37.000Z</time>
|
|
</trkpt>
|
|
<trkpt lat="55.476686" lon="8.448619">
|
|
<ele>17.775235</ele>
|
|
<time>2026-07-11T09:46:38.000Z</time>
|
|
</trkpt>
|
|
<trkpt lat="55.476740" lon="8.448626">
|
|
<ele>17.792320</ele>
|
|
<time>2026-07-11T09:46:39.000Z</time>
|
|
</trkpt>
|
|
<trkpt lat="55.476791" lon="8.448633">
|
|
<ele>17.808461</ele>
|
|
<time>2026-07-11T09:46:40.000Z</time>
|
|
</trkpt>
|
|
<trkpt lat="55.476835" lon="8.448640">
|
|
<ele>17.822400</ele>
|
|
<time>2026-07-11T09:46:41.000Z</time>
|
|
</trkpt>
|
|
<trkpt lat="55.476894" lon="8.448654">
|
|
<ele>17.841184</ele>
|
|
<time>2026-07-11T09:46:42.000Z</time>
|
|
</trkpt>
|
|
<trkpt lat="55.476942" lon="8.448670">
|
|
<ele>17.856598</ele>
|
|
<time>2026-07-11T09:46:43.000Z</time>
|
|
</trkpt>
|
|
<trkpt lat="55.476987" lon="8.448686">
|
|
<ele>17.871082</ele>
|
|
<time>2026-07-11T09:46:44.000Z</time>
|
|
</trkpt>
|
|
<trkpt lat="55.477027" lon="8.448704">
|
|
<ele>17.884108</ele>
|
|
<time>2026-07-11T09:46:45.000Z</time>
|
|
</trkpt>
|
|
<trkpt lat="55.477073" lon="8.448725">
|
|
<ele>17.899100</ele>
|
|
<time>2026-07-11T09:46:46.000Z</time>
|
|
</trkpt>
|
|
<trkpt lat="55.477118" lon="8.448744">
|
|
<ele>17.913700</ele>
|
|
<time>2026-07-11T09:46:47.000Z</time>
|
|
</trkpt>
|
|
<trkpt lat="55.477160" lon="8.448761">
|
|
<ele>17.927297</ele>
|
|
<time>2026-07-11T09:46:48.000Z</time>
|
|
</trkpt>
|
|
<trkpt lat="55.477200" lon="8.448778">
|
|
<ele>17.940279</ele>
|
|
<time>2026-07-11T09:46:49.000Z</time>
|
|
</trkpt>
|
|
<trkpt lat="55.477239" lon="8.448793">
|
|
<ele>17.952874</ele>
|
|
<time>2026-07-11T09:46:50.000Z</time>
|
|
</trkpt>
|
|
<trkpt lat="55.477282" lon="8.448807">
|
|
<ele>17.966670</ele>
|
|
<time>2026-07-11T09:46:51.000Z</time>
|
|
</trkpt>
|
|
<trkpt lat="55.477319" lon="8.448821">
|
|
<ele>17.978611</ele>
|
|
<time>2026-07-11T09:46:52.000Z</time>
|
|
</trkpt>
|
|
<trkpt lat="55.477357" lon="8.448836">
|
|
<ele>17.990897</ele>
|
|
<time>2026-07-11T09:46:53.000Z</time>
|
|
</trkpt>
|
|
<trkpt lat="55.477393" lon="8.448850">
|
|
<ele>18.002529</ele>
|
|
<time>2026-07-11T09:46:54.000Z</time>
|
|
</trkpt>
|
|
<trkpt lat="55.477427" lon="8.448869">
|
|
<ele>18.013782</ele>
|
|
<time>2026-07-11T09:46:55.000Z</time>
|
|
</trkpt>
|
|
<trkpt lat="55.477451" lon="8.448884">
|
|
<ele>18.021816</ele>
|
|
<time>2026-07-11T09:46:56.000Z</time>
|
|
</trkpt>
|
|
<trkpt lat="55.477473" lon="8.448893">
|
|
<ele>18.028942</ele>
|
|
<time>2026-07-11T09:46:57.000Z</time>
|
|
</trkpt>
|
|
<trkpt lat="55.477485" lon="8.448893">
|
|
<ele>18.032728</ele>
|
|
<time>2026-07-11T09:46:58.000Z</time>
|
|
</trkpt>
|
|
<trkpt lat="55.477491" lon="8.448889">
|
|
<ele>18.034752</ele>
|
|
<time>2026-07-11T09:46:59.000Z</time>
|
|
</trkpt>
|
|
<trkpt lat="55.477512" lon="8.448887">
|
|
<ele>18.041388</ele>
|
|
<time>2026-07-11T09:47:11.000Z</time>
|
|
</trkpt>
|
|
<trkpt lat="55.477523" lon="8.448873">
|
|
<ele>18.045668</ele>
|
|
<time>2026-07-11T09:47:12.000Z</time>
|
|
</trkpt>
|
|
<trkpt lat="55.477541" lon="8.448844">
|
|
<ele>18.053359</ele>
|
|
<time>2026-07-11T09:47:13.000Z</time>
|
|
</trkpt>
|
|
<trkpt lat="55.477557" lon="8.448804">
|
|
<ele>18.062114</ele>
|
|
<time>2026-07-11T09:47:14.000Z</time>
|
|
</trkpt>
|
|
<trkpt lat="55.477569" lon="8.448764">
|
|
<ele>18.070207</ele>
|
|
<time>2026-07-11T09:47:15.000Z</time>
|
|
</trkpt>
|
|
<trkpt lat="55.477573" lon="8.448721">
|
|
<ele>18.077999</ele>
|
|
<time>2026-07-11T09:47:16.000Z</time>
|
|
</trkpt>
|
|
<trkpt lat="55.477573" lon="8.448669">
|
|
<ele>18.087298</ele>
|
|
<time>2026-07-11T09:47:17.000Z</time>
|
|
</trkpt>
|
|
<trkpt lat="55.477572" lon="8.448622">
|
|
<ele>18.095708</ele>
|
|
<time>2026-07-11T09:47:18.000Z</time>
|
|
</trkpt>
|
|
<trkpt lat="55.477570" lon="8.448573">
|
|
<ele>18.104493</ele>
|
|
<time>2026-07-11T09:47:19.000Z</time>
|
|
</trkpt>
|
|
<trkpt lat="55.477568" lon="8.448522">
|
|
<ele>18.113635</ele>
|
|
<time>2026-07-11T09:47:20.000Z</time>
|
|
</trkpt>
|
|
<trkpt lat="55.477563" lon="8.448470">
|
|
<ele>18.123067</ele>
|
|
<time>2026-07-11T09:47:21.000Z</time>
|
|
</trkpt>
|
|
<trkpt lat="55.477556" lon="8.448415">
|
|
<ele>18.133147</ele>
|
|
<time>2026-07-11T09:47:22.000Z</time>
|
|
</trkpt>
|
|
<trkpt lat="55.477547" lon="8.448351">
|
|
<ele>18.144938</ele>
|
|
<time>2026-07-11T09:47:23.000Z</time>
|
|
</trkpt>
|
|
<trkpt lat="55.477535" lon="8.448295">
|
|
<ele>18.155644</ele>
|
|
<time>2026-07-11T09:47:24.000Z</time>
|
|
</trkpt>
|
|
<trkpt lat="55.477519" lon="8.448222">
|
|
<ele>18.169641</ele>
|
|
<time>2026-07-11T09:47:25.000Z</time>
|
|
</trkpt>
|
|
<trkpt lat="55.477508" lon="8.448157">
|
|
<ele>18.181771</ele>
|
|
<time>2026-07-11T09:47:26.000Z</time>
|
|
</trkpt>
|
|
<trkpt lat="55.477496" lon="8.448092">
|
|
<ele>18.186169</ele>
|
|
<time>2026-07-11T09:47:27.000Z</time>
|
|
</trkpt>
|
|
<trkpt lat="55.477484" lon="8.448030">
|
|
<ele>18.167773</ele>
|
|
<time>2026-07-11T09:47:28.000Z</time>
|
|
</trkpt>
|
|
<trkpt lat="55.477471" lon="8.447976">
|
|
<ele>18.151299</ele>
|
|
<time>2026-07-11T09:47:29.000Z</time>
|
|
</trkpt>
|
|
<trkpt lat="55.477459" lon="8.447911">
|
|
<ele>18.132103</ele>
|
|
<time>2026-07-11T09:47:30.000Z</time>
|
|
</trkpt>
|
|
<trkpt lat="55.477446" lon="8.447850">
|
|
<ele>18.113804</ele>
|
|
<time>2026-07-11T09:47:31.000Z</time>
|
|
</trkpt>
|
|
<trkpt lat="55.477433" lon="8.447793">
|
|
<ele>18.096552</ele>
|
|
<time>2026-07-11T09:47:32.000Z</time>
|
|
</trkpt>
|
|
<trkpt lat="55.477421" lon="8.447721">
|
|
<ele>18.075478</ele>
|
|
<time>2026-07-11T09:47:33.000Z</time>
|
|
</trkpt>
|
|
<trkpt lat="55.477408" lon="8.447656">
|
|
<ele>18.056124</ele>
|
|
<time>2026-07-11T09:47:34.000Z</time>
|
|
</trkpt>
|
|
<trkpt lat="55.477390" lon="8.447588">
|
|
<ele>18.035050</ele>
|
|
<time>2026-07-11T09:47:35.000Z</time>
|
|
</trkpt>
|
|
<trkpt lat="55.477375" lon="8.447513">
|
|
<ele>18.012717</ele>
|
|
<time>2026-07-11T09:47:36.000Z</time>
|
|
</trkpt>
|
|
<trkpt lat="55.477364" lon="8.447433">
|
|
<ele>17.989602</ele>
|
|
<time>2026-07-11T09:47:37.000Z</time>
|
|
</trkpt>
|
|
<trkpt lat="55.477357" lon="8.447367">
|
|
<ele>17.970748</ele>
|
|
<time>2026-07-11T09:47:38.000Z</time>
|
|
</trkpt>
|
|
<trkpt lat="55.477350" lon="8.447300">
|
|
<ele>17.951618</ele>
|
|
<time>2026-07-11T09:47:39.000Z</time>
|
|
</trkpt>
|
|
<trkpt lat="55.477340" lon="8.447227">
|
|
<ele>17.930530</ele>
|
|
<time>2026-07-11T09:47:40.000Z</time>
|
|
</trkpt>
|
|
<trkpt lat="55.477327" lon="8.447153">
|
|
<ele>17.908776</ele>
|
|
<time>2026-07-11T09:47:41.000Z</time>
|
|
</trkpt>
|
|
<trkpt lat="55.477313" lon="8.447085">
|
|
<ele>17.888461</ele>
|
|
<time>2026-07-11T09:47:42.000Z</time>
|
|
</trkpt>
|
|
<trkpt lat="55.477298" lon="8.447011">
|
|
<ele>17.866393</ele>
|
|
<time>2026-07-11T09:47:43.000Z</time>
|
|
</trkpt>
|
|
<trkpt lat="55.477285" lon="8.446943">
|
|
<ele>17.846242</ele>
|
|
<time>2026-07-11T09:47:44.000Z</time>
|
|
</trkpt>
|
|
<trkpt lat="55.477271" lon="8.446868">
|
|
<ele>17.824070</ele>
|
|
<time>2026-07-11T09:47:45.000Z</time>
|
|
</trkpt>
|
|
<trkpt lat="55.477254" lon="8.446794">
|
|
<ele>17.801649</ele>
|
|
<time>2026-07-11T09:47:46.000Z</time>
|
|
</trkpt>
|
|
<trkpt lat="55.477239" lon="8.446717">
|
|
<ele>17.778786</ele>
|
|
<time>2026-07-11T09:47:47.000Z</time>
|
|
</trkpt>
|
|
<trkpt lat="55.477228" lon="8.446641">
|
|
<ele>17.756761</ele>
|
|
<time>2026-07-11T09:47:48.000Z</time>
|
|
</trkpt>
|
|
<trkpt lat="55.477214" lon="8.446565">
|
|
<ele>17.734321</ele>
|
|
<time>2026-07-11T09:47:49.000Z</time>
|
|
</trkpt>
|
|
<trkpt lat="55.477197" lon="8.446482">
|
|
<ele>17.709540</ele>
|
|
<time>2026-07-11T09:47:50.000Z</time>
|
|
</trkpt>
|
|
<trkpt lat="55.477180" lon="8.446406">
|
|
<ele>17.686598</ele>
|
|
<time>2026-07-11T09:47:51.000Z</time>
|
|
</trkpt>
|
|
<trkpt lat="55.477164" lon="8.446325">
|
|
<ele>17.662512</ele>
|
|
<time>2026-07-11T09:47:52.000Z</time>
|
|
</trkpt>
|
|
<trkpt lat="55.477149" lon="8.446260">
|
|
<ele>17.642805</ele>
|
|
<time>2026-07-11T09:47:53.000Z</time>
|
|
</trkpt>
|
|
<trkpt lat="55.477131" lon="8.446195">
|
|
<ele>17.622491</ele>
|
|
<time>2026-07-11T09:47:54.000Z</time>
|
|
</trkpt>
|
|
<trkpt lat="55.477123" lon="8.446131">
|
|
<ele>17.604088</ele>
|
|
<time>2026-07-11T09:47:55.000Z</time>
|
|
</trkpt>
|
|
<trkpt lat="55.477121" lon="8.446060">
|
|
<ele>17.584127</ele>
|
|
<time>2026-07-11T09:47:56.000Z</time>
|
|
</trkpt>
|
|
<trkpt lat="55.477115" lon="8.445978">
|
|
<ele>17.560911</ele>
|
|
<time>2026-07-11T09:47:57.000Z</time>
|
|
</trkpt>
|
|
<trkpt lat="55.477110" lon="8.445896">
|
|
<ele>17.537753</ele>
|
|
<time>2026-07-11T09:47:58.000Z</time>
|
|
</trkpt>
|
|
<trkpt lat="55.477103" lon="8.445810">
|
|
<ele>17.513357</ele>
|
|
<time>2026-07-11T09:47:59.000Z</time>
|
|
</trkpt>
|
|
<trkpt lat="55.477100" lon="8.445723">
|
|
<ele>17.488882</ele>
|
|
<time>2026-07-11T09:48:00.000Z</time>
|
|
</trkpt>
|
|
<trkpt lat="55.477097" lon="8.445625">
|
|
<ele>17.461324</ele>
|
|
<time>2026-07-11T09:48:01.000Z</time>
|
|
</trkpt>
|
|
<trkpt lat="55.477097" lon="8.445542">
|
|
<ele>17.438018</ele>
|
|
<time>2026-07-11T09:48:02.000Z</time>
|
|
</trkpt>
|
|
<trkpt lat="55.477092" lon="8.445422">
|
|
<ele>17.404232</ele>
|
|
<time>2026-07-11T09:48:03.000Z</time>
|
|
</trkpt>
|
|
<trkpt lat="55.477089" lon="8.445324">
|
|
<ele>17.376674</ele>
|
|
<time>2026-07-11T09:48:04.000Z</time>
|
|
</trkpt>
|
|
<trkpt lat="55.477089" lon="8.445220">
|
|
<ele>17.347471</ele>
|
|
<time>2026-07-11T09:48:05.000Z</time>
|
|
</trkpt>
|
|
<trkpt lat="55.477096" lon="8.445132">
|
|
<ele>17.322519</ele>
|
|
<time>2026-07-11T09:48:06.000Z</time>
|
|
</trkpt>
|
|
<trkpt lat="55.477104" lon="8.445040">
|
|
<ele>17.293233</ele>
|
|
<time>2026-07-11T09:48:07.000Z</time>
|
|
</trkpt>
|
|
<trkpt lat="55.477112" lon="8.444939">
|
|
<ele>17.238147</ele>
|
|
<time>2026-07-11T09:48:08.000Z</time>
|
|
</trkpt>
|
|
<trkpt lat="55.477120" lon="8.444837">
|
|
<ele>17.182526</ele>
|
|
<time>2026-07-11T09:48:09.000Z</time>
|
|
</trkpt>
|
|
<trkpt lat="55.477123" lon="8.444730">
|
|
<ele>17.124659</ele>
|
|
<time>2026-07-11T09:48:10.000Z</time>
|
|
</trkpt>
|
|
<trkpt lat="55.477123" lon="8.444630">
|
|
<ele>17.070643</ele>
|
|
<time>2026-07-11T09:48:11.000Z</time>
|
|
</trkpt>
|
|
<trkpt lat="55.477123" lon="8.444528">
|
|
<ele>17.015548</ele>
|
|
<time>2026-07-11T09:48:12.000Z</time>
|
|
</trkpt>
|
|
<trkpt lat="55.477127" lon="8.444421">
|
|
<ele>16.957625</ele>
|
|
<time>2026-07-11T09:48:13.000Z</time>
|
|
</trkpt>
|
|
<trkpt lat="55.477127" lon="8.444314">
|
|
<ele>16.899829</ele>
|
|
<time>2026-07-11T09:48:14.000Z</time>
|
|
</trkpt>
|
|
<trkpt lat="55.477128" lon="8.444209">
|
|
<ele>16.843105</ele>
|
|
<time>2026-07-11T09:48:15.000Z</time>
|
|
</trkpt>
|
|
<trkpt lat="55.477134" lon="8.444125">
|
|
<ele>16.797373</ele>
|
|
<time>2026-07-11T09:48:16.000Z</time>
|
|
</trkpt>
|
|
<trkpt lat="55.477138" lon="8.444018">
|
|
<ele>16.739451</ele>
|
|
<time>2026-07-11T09:48:17.000Z</time>
|
|
</trkpt>
|
|
<trkpt lat="55.477145" lon="8.443918">
|
|
<ele>16.685025</ele>
|
|
<time>2026-07-11T09:48:18.000Z</time>
|
|
</trkpt>
|
|
<trkpt lat="55.477150" lon="8.443815">
|
|
<ele>16.629185</ele>
|
|
<time>2026-07-11T09:48:19.000Z</time>
|
|
</trkpt>
|
|
<trkpt lat="55.477153" lon="8.443709">
|
|
<ele>16.571857</ele>
|
|
<time>2026-07-11T09:48:20.000Z</time>
|
|
</trkpt>
|
|
<trkpt lat="55.477174" lon="8.443578">
|
|
<ele>16.498321</ele>
|
|
<time>2026-07-11T09:48:21.000Z</time>
|
|
</trkpt>
|
|
<trkpt lat="55.477184" lon="8.443484">
|
|
<ele>16.446660</ele>
|
|
<time>2026-07-11T09:48:22.000Z</time>
|
|
</trkpt>
|
|
<trkpt lat="55.477200" lon="8.443373">
|
|
<ele>16.384794</ele>
|
|
<time>2026-07-11T09:48:23.000Z</time>
|
|
</trkpt>
|
|
<trkpt lat="55.477211" lon="8.443273">
|
|
<ele>16.329770</ele>
|
|
<time>2026-07-11T09:48:24.000Z</time>
|
|
</trkpt>
|
|
<trkpt lat="55.477228" lon="8.443184">
|
|
<ele>16.279040</ele>
|
|
<time>2026-07-11T09:48:25.000Z</time>
|
|
</trkpt>
|
|
<trkpt lat="55.477249" lon="8.443077">
|
|
<ele>16.217876</ele>
|
|
<time>2026-07-11T09:48:26.000Z</time>
|
|
</trkpt>
|
|
<trkpt lat="55.477266" lon="8.442974">
|
|
<ele>16.159929</ele>
|
|
<time>2026-07-11T09:48:27.000Z</time>
|
|
</trkpt>
|
|
<trkpt lat="55.477284" lon="8.442884">
|
|
<ele>16.108377</ele>
|
|
<time>2026-07-11T09:48:28.000Z</time>
|
|
</trkpt>
|
|
<trkpt lat="55.477302" lon="8.442797">
|
|
<ele>16.058350</ele>
|
|
<time>2026-07-11T09:48:29.000Z</time>
|
|
</trkpt>
|
|
<trkpt lat="55.477318" lon="8.442698">
|
|
<ele>16.002743</ele>
|
|
<time>2026-07-11T09:48:30.000Z</time>
|
|
</trkpt>
|
|
<trkpt lat="55.477328" lon="8.442609">
|
|
<ele>15.953734</ele>
|
|
<time>2026-07-11T09:48:31.000Z</time>
|
|
</trkpt>
|
|
<trkpt lat="55.477338" lon="8.442519">
|
|
<ele>15.904195</ele>
|
|
<time>2026-07-11T09:48:32.000Z</time>
|
|
</trkpt>
|
|
<trkpt lat="55.477353" lon="8.442390">
|
|
<ele>15.833064</ele>
|
|
<time>2026-07-11T09:48:33.000Z</time>
|
|
</trkpt>
|
|
<trkpt lat="55.477368" lon="8.442291">
|
|
<ele>15.777711</ele>
|
|
<time>2026-07-11T09:48:34.000Z</time>
|
|
</trkpt>
|
|
<trkpt lat="55.477380" lon="8.442216">
|
|
<ele>15.735616</ele>
|
|
<time>2026-07-11T09:48:35.000Z</time>
|
|
</trkpt>
|
|
<trkpt lat="55.477391" lon="8.442122">
|
|
<ele>15.683770</ele>
|
|
<time>2026-07-11T09:48:36.000Z</time>
|
|
</trkpt>
|
|
<trkpt lat="55.477406" lon="8.442018">
|
|
<ele>15.625804</ele>
|
|
<time>2026-07-11T09:48:37.000Z</time>
|
|
</trkpt>
|
|
<trkpt lat="55.477421" lon="8.441919">
|
|
<ele>15.576980</ele>
|
|
<time>2026-07-11T09:48:38.000Z</time>
|
|
</trkpt>
|
|
<trkpt lat="55.477435" lon="8.441825">
|
|
<ele>15.547242</ele>
|
|
<time>2026-07-11T09:48:39.000Z</time>
|
|
</trkpt>
|
|
<trkpt lat="55.477451" lon="8.441721">
|
|
<ele>15.514269</ele>
|
|
<time>2026-07-11T09:48:40.000Z</time>
|
|
</trkpt>
|
|
<trkpt lat="55.477467" lon="8.441614">
|
|
<ele>15.480410</ele>
|
|
<time>2026-07-11T09:48:41.000Z</time>
|
|
</trkpt>
|
|
<trkpt lat="55.477479" lon="8.441517">
|
|
<ele>15.450032</ele>
|
|
<time>2026-07-11T09:48:42.000Z</time>
|
|
</trkpt>
|
|
<trkpt lat="55.477490" lon="8.441417">
|
|
<ele>15.418863</ele>
|
|
<time>2026-07-11T09:48:43.000Z</time>
|
|
</trkpt>
|
|
<trkpt lat="55.477503" lon="8.441328">
|
|
<ele>15.390742</ele>
|
|
<time>2026-07-11T09:48:44.000Z</time>
|
|
</trkpt>
|
|
<trkpt lat="55.477518" lon="8.441233">
|
|
<ele>15.360567</ele>
|
|
<time>2026-07-11T09:48:45.000Z</time>
|
|
</trkpt>
|
|
<trkpt lat="55.477535" lon="8.441135">
|
|
<ele>15.329209</ele>
|
|
<time>2026-07-11T09:48:46.000Z</time>
|
|
</trkpt>
|
|
<trkpt lat="55.477554" lon="8.441017">
|
|
<ele>15.291675</ele>
|
|
<time>2026-07-11T09:48:47.000Z</time>
|
|
</trkpt>
|
|
<trkpt lat="55.477568" lon="8.440914">
|
|
<ele>15.259266</ele>
|
|
<time>2026-07-11T09:48:48.000Z</time>
|
|
</trkpt>
|
|
<trkpt lat="55.477580" lon="8.440831">
|
|
<ele>15.233057</ele>
|
|
<time>2026-07-11T09:48:49.000Z</time>
|
|
</trkpt>
|
|
<trkpt lat="55.477593" lon="8.440742">
|
|
<ele>15.204935</ele>
|
|
<time>2026-07-11T09:48:50.000Z</time>
|
|
</trkpt>
|
|
<trkpt lat="55.477605" lon="8.440632">
|
|
<ele>15.170661</ele>
|
|
<time>2026-07-11T09:48:51.000Z</time>
|
|
</trkpt>
|
|
<trkpt lat="55.477623" lon="8.440527">
|
|
<ele>15.137096</ele>
|
|
<time>2026-07-11T09:48:52.000Z</time>
|
|
</trkpt>
|
|
<trkpt lat="55.477645" lon="8.440393">
|
|
<ele>15.094410</ele>
|
|
<time>2026-07-11T09:48:53.000Z</time>
|
|
</trkpt>
|
|
<trkpt lat="55.477666" lon="8.440275">
|
|
<ele>15.056567</ele>
|
|
<time>2026-07-11T09:48:54.000Z</time>
|
|
</trkpt>
|
|
<trkpt lat="55.477685" lon="8.440187">
|
|
<ele>15.027754</ele>
|
|
<time>2026-07-11T09:48:55.000Z</time>
|
|
</trkpt>
|
|
<trkpt lat="55.477702" lon="8.440099">
|
|
<ele>14.999307</ele>
|
|
<time>2026-07-11T09:48:56.000Z</time>
|
|
</trkpt>
|
|
<trkpt lat="55.477717" lon="8.440011">
|
|
<ele>14.971190</ele>
|
|
<time>2026-07-11T09:48:57.000Z</time>
|
|
</trkpt>
|
|
<trkpt lat="55.477733" lon="8.439927">
|
|
<ele>14.944075</ele>
|
|
<time>2026-07-11T09:48:58.000Z</time>
|
|
</trkpt>
|
|
<trkpt lat="55.477751" lon="8.439854">
|
|
<ele>14.919717</ele>
|
|
<time>2026-07-11T09:48:59.000Z</time>
|
|
</trkpt>
|
|
<trkpt lat="55.477769" lon="8.439782">
|
|
<ele>14.895639</ele>
|
|
<time>2026-07-11T09:49:00.000Z</time>
|
|
</trkpt>
|
|
<trkpt lat="55.477779" lon="8.439691">
|
|
<ele>14.867277</ele>
|
|
<time>2026-07-11T09:49:01.000Z</time>
|
|
</trkpt>
|
|
<trkpt lat="55.477785" lon="8.439598">
|
|
<ele>14.838638</ele>
|
|
<time>2026-07-11T09:49:02.000Z</time>
|
|
</trkpt>
|
|
<trkpt lat="55.477792" lon="8.439508">
|
|
<ele>14.810842</ele>
|
|
<time>2026-07-11T09:49:03.000Z</time>
|
|
</trkpt>
|
|
<trkpt lat="55.477805" lon="8.439425">
|
|
<ele>14.784495</ele>
|
|
<time>2026-07-11T09:49:04.000Z</time>
|
|
</trkpt>
|
|
<trkpt lat="55.477821" lon="8.439346">
|
|
<ele>14.758826</ele>
|
|
<time>2026-07-11T09:49:05.000Z</time>
|
|
</trkpt>
|
|
<trkpt lat="55.477834" lon="8.439264">
|
|
<ele>14.732773</ele>
|
|
<time>2026-07-11T09:49:06.000Z</time>
|
|
</trkpt>
|
|
<trkpt lat="55.477846" lon="8.439180">
|
|
<ele>14.706268</ele>
|
|
<time>2026-07-11T09:49:07.000Z</time>
|
|
</trkpt>
|
|
<trkpt lat="55.477855" lon="8.439095">
|
|
<ele>14.679810</ele>
|
|
<time>2026-07-11T09:49:08.000Z</time>
|
|
</trkpt>
|
|
<trkpt lat="55.477863" lon="8.439015">
|
|
<ele>14.654954</ele>
|
|
<time>2026-07-11T09:49:09.000Z</time>
|
|
</trkpt>
|
|
<trkpt lat="55.477872" lon="8.438933">
|
|
<ele>14.629399</ele>
|
|
<time>2026-07-11T09:49:10.000Z</time>
|
|
</trkpt>
|
|
<trkpt lat="55.477880" lon="8.438848">
|
|
<ele>14.582802</ele>
|
|
<time>2026-07-11T09:49:11.000Z</time>
|
|
</trkpt>
|
|
<trkpt lat="55.477886" lon="8.438769">
|
|
<ele>14.515144</ele>
|
|
<time>2026-07-11T09:49:12.000Z</time>
|
|
</trkpt>
|
|
<trkpt lat="55.477893" lon="8.438689">
|
|
<ele>14.446431</ele>
|
|
<time>2026-07-11T09:49:13.000Z</time>
|
|
</trkpt>
|
|
<trkpt lat="55.477901" lon="8.438608">
|
|
<ele>14.376638</ele>
|
|
<time>2026-07-11T09:49:14.000Z</time>
|
|
</trkpt>
|
|
<trkpt lat="55.477910" lon="8.438520">
|
|
<ele>14.300733</ele>
|
|
<time>2026-07-11T09:49:15.000Z</time>
|
|
</trkpt>
|
|
<trkpt lat="55.477922" lon="8.438436">
|
|
<ele>14.227199</ele>
|
|
<time>2026-07-11T09:49:16.000Z</time>
|
|
</trkpt>
|
|
<trkpt lat="55.477932" lon="8.438351">
|
|
<ele>14.153509</ele>
|
|
<time>2026-07-11T09:49:17.000Z</time>
|
|
</trkpt>
|
|
<trkpt lat="55.477939" lon="8.438264">
|
|
<ele>14.078918</ele>
|
|
<time>2026-07-11T09:49:18.000Z</time>
|
|
</trkpt>
|
|
<trkpt lat="55.477947" lon="8.438174">
|
|
<ele>14.001588</ele>
|
|
<time>2026-07-11T09:49:19.000Z</time>
|
|
</trkpt>
|
|
<trkpt lat="55.477953" lon="8.438084">
|
|
<ele>13.924665</ele>
|
|
<time>2026-07-11T09:49:20.000Z</time>
|
|
</trkpt>
|
|
<trkpt lat="55.477960" lon="8.437994">
|
|
<ele>13.847553</ele>
|
|
<time>2026-07-11T09:49:21.000Z</time>
|
|
</trkpt>
|
|
<trkpt lat="55.477971" lon="8.437907">
|
|
<ele>13.771887</ele>
|
|
<time>2026-07-11T09:49:22.000Z</time>
|
|
</trkpt>
|
|
<trkpt lat="55.477985" lon="8.437821">
|
|
<ele>13.695935</ele>
|
|
<time>2026-07-11T09:49:23.000Z</time>
|
|
</trkpt>
|
|
<trkpt lat="55.477996" lon="8.437734">
|
|
<ele>13.620269</ele>
|
|
<time>2026-07-11T09:49:24.000Z</time>
|
|
</trkpt>
|
|
<trkpt lat="55.478004" lon="8.437645">
|
|
<ele>13.543778</ele>
|
|
<time>2026-07-11T09:49:25.000Z</time>
|
|
</trkpt>
|
|
<trkpt lat="55.478013" lon="8.437557">
|
|
<ele>13.467872</ele>
|
|
<time>2026-07-11T09:49:26.000Z</time>
|
|
</trkpt>
|
|
<trkpt lat="55.478027" lon="8.437471">
|
|
<ele>13.391920</ele>
|
|
<time>2026-07-11T09:49:27.000Z</time>
|
|
</trkpt>
|
|
<trkpt lat="55.478040" lon="8.437383">
|
|
<ele>13.314725</ele>
|
|
<time>2026-07-11T09:49:28.000Z</time>
|
|
</trkpt>
|
|
<trkpt lat="55.478052" lon="8.437287">
|
|
<ele>13.231277</ele>
|
|
<time>2026-07-11T09:49:29.000Z</time>
|
|
</trkpt>
|
|
<trkpt lat="55.478061" lon="8.437191">
|
|
<ele>13.148681</ele>
|
|
<time>2026-07-11T09:49:30.000Z</time>
|
|
</trkpt>
|
|
<trkpt lat="55.478071" lon="8.437098">
|
|
<ele>13.068330</ele>
|
|
<time>2026-07-11T09:49:31.000Z</time>
|
|
</trkpt>
|
|
<trkpt lat="55.478082" lon="8.437006">
|
|
<ele>12.988517</ele>
|
|
<time>2026-07-11T09:49:32.000Z</time>
|
|
</trkpt>
|
|
<trkpt lat="55.478094" lon="8.436917">
|
|
<ele>12.910861</ele>
|
|
<time>2026-07-11T09:49:33.000Z</time>
|
|
</trkpt>
|
|
<trkpt lat="55.478107" lon="8.436830">
|
|
<ele>12.834488</ele>
|
|
<time>2026-07-11T09:49:34.000Z</time>
|
|
</trkpt>
|
|
<trkpt lat="55.478124" lon="8.436745">
|
|
<ele>12.757975</ele>
|
|
<time>2026-07-11T09:49:35.000Z</time>
|
|
</trkpt>
|
|
<trkpt lat="55.478143" lon="8.436661">
|
|
<ele>12.681202</ele>
|
|
<time>2026-07-11T09:49:36.000Z</time>
|
|
</trkpt>
|
|
<trkpt lat="55.478160" lon="8.436575">
|
|
<ele>12.603889</ele>
|
|
<time>2026-07-11T09:49:37.000Z</time>
|
|
</trkpt>
|
|
<trkpt lat="55.478172" lon="8.436477">
|
|
<ele>12.518782</ele>
|
|
<time>2026-07-11T09:49:38.000Z</time>
|
|
</trkpt>
|
|
<trkpt lat="55.478179" lon="8.436369">
|
|
<ele>12.426510</ele>
|
|
<time>2026-07-11T09:49:39.000Z</time>
|
|
</trkpt>
|
|
<trkpt lat="55.478191" lon="8.436260">
|
|
<ele>12.332256</ele>
|
|
<time>2026-07-11T09:49:40.000Z</time>
|
|
</trkpt>
|
|
<trkpt lat="55.478206" lon="8.436154">
|
|
<ele>12.239516</ele>
|
|
<time>2026-07-11T09:49:41.000Z</time>
|
|
</trkpt>
|
|
<trkpt lat="55.478220" lon="8.436051">
|
|
<ele>12.149606</ele>
|
|
<time>2026-07-11T09:49:42.000Z</time>
|
|
</trkpt>
|
|
<trkpt lat="55.478233" lon="8.435955">
|
|
<ele>12.065823</ele>
|
|
<time>2026-07-11T09:49:43.000Z</time>
|
|
</trkpt>
|
|
<trkpt lat="55.478248" lon="8.435858">
|
|
<ele>11.980475</ele>
|
|
<time>2026-07-11T09:49:44.000Z</time>
|
|
</trkpt>
|
|
<trkpt lat="55.478267" lon="8.435755">
|
|
<ele>11.895063</ele>
|
|
<time>2026-07-11T09:49:45.000Z</time>
|
|
</trkpt>
|
|
<trkpt lat="55.478293" lon="8.435658">
|
|
<ele>11.822651</ele>
|
|
<time>2026-07-11T09:49:46.000Z</time>
|
|
</trkpt>
|
|
<trkpt lat="55.478324" lon="8.435569">
|
|
<ele>11.752153</ele>
|
|
<time>2026-07-11T09:49:47.000Z</time>
|
|
</trkpt>
|
|
<trkpt lat="55.478359" lon="8.435493">
|
|
<ele>11.686066</ele>
|
|
<time>2026-07-11T09:49:48.000Z</time>
|
|
</trkpt>
|
|
<trkpt lat="55.478403" lon="8.435430">
|
|
<ele>11.618592</ele>
|
|
<time>2026-07-11T09:49:49.000Z</time>
|
|
</trkpt>
|
|
<trkpt lat="55.478449" lon="8.435363">
|
|
<ele>11.547566</ele>
|
|
<time>2026-07-11T09:49:50.000Z</time>
|
|
</trkpt>
|
|
<trkpt lat="55.478491" lon="8.435289">
|
|
<ele>11.476890</ele>
|
|
<time>2026-07-11T09:49:51.000Z</time>
|
|
</trkpt>
|
|
<trkpt lat="55.478526" lon="8.435213">
|
|
<ele>11.410804</ele>
|
|
<time>2026-07-11T09:49:52.000Z</time>
|
|
</trkpt>
|
|
<trkpt lat="55.478556" lon="8.435135">
|
|
<ele>11.347189</ele>
|
|
<time>2026-07-11T09:49:53.000Z</time>
|
|
</trkpt>
|
|
<trkpt lat="55.478587" lon="8.435052">
|
|
<ele>11.280107</ele>
|
|
<time>2026-07-11T09:49:54.000Z</time>
|
|
</trkpt>
|
|
<trkpt lat="55.478615" lon="8.434978">
|
|
<ele>11.220062</ele>
|
|
<time>2026-07-11T09:49:55.000Z</time>
|
|
</trkpt>
|
|
<trkpt lat="55.478644" lon="8.434917">
|
|
<ele>11.166330</ele>
|
|
<time>2026-07-11T09:49:56.000Z</time>
|
|
</trkpt>
|
|
<trkpt lat="55.478674" lon="8.434833">
|
|
<ele>11.099327</ele>
|
|
<time>2026-07-11T09:49:57.000Z</time>
|
|
</trkpt>
|
|
<trkpt lat="55.478682" lon="8.434682">
|
|
<ele>10.996982</ele>
|
|
<time>2026-07-11T09:49:58.000Z</time>
|
|
</trkpt>
|
|
<trkpt lat="55.478669" lon="8.434504">
|
|
<ele>10.875869</ele>
|
|
<time>2026-07-11T09:49:59.000Z</time>
|
|
</trkpt>
|
|
<trkpt lat="55.478664" lon="8.434350">
|
|
<ele>10.771774</ele>
|
|
<time>2026-07-11T09:50:00.000Z</time>
|
|
</trkpt>
|
|
<trkpt lat="55.478671" lon="8.434218">
|
|
<ele>10.682307</ele>
|
|
<time>2026-07-11T09:50:01.000Z</time>
|
|
</trkpt>
|
|
<trkpt lat="55.478687" lon="8.434094">
|
|
<ele>10.596486</ele>
|
|
<time>2026-07-11T09:50:02.000Z</time>
|
|
</trkpt>
|
|
<trkpt lat="55.478705" lon="8.433972">
|
|
<ele>10.511412</ele>
|
|
<time>2026-07-11T09:50:03.000Z</time>
|
|
</trkpt>
|
|
<trkpt lat="55.478727" lon="8.433855">
|
|
<ele>10.428224</ele>
|
|
<time>2026-07-11T09:50:04.000Z</time>
|
|
</trkpt>
|
|
<trkpt lat="55.478747" lon="8.433739">
|
|
<ele>10.346400</ele>
|
|
<time>2026-07-11T09:50:05.000Z</time>
|
|
</trkpt>
|
|
<trkpt lat="55.478772" lon="8.433623">
|
|
<ele>10.262650</ele>
|
|
<time>2026-07-11T09:50:06.000Z</time>
|
|
</trkpt>
|
|
<trkpt lat="55.478797" lon="8.433509">
|
|
<ele>10.180160</ele>
|
|
<time>2026-07-11T09:50:07.000Z</time>
|
|
</trkpt>
|
|
<trkpt lat="55.478820" lon="8.433402">
|
|
<ele>10.102934</ele>
|
|
<time>2026-07-11T09:50:08.000Z</time>
|
|
</trkpt>
|
|
<trkpt lat="55.478841" lon="8.433297">
|
|
<ele>10.027793</ele>
|
|
<time>2026-07-11T09:50:09.000Z</time>
|
|
</trkpt>
|
|
<trkpt lat="55.478858" lon="8.433190">
|
|
<ele>9.952803</ele>
|
|
<time>2026-07-11T09:50:10.000Z</time>
|
|
</trkpt>
|
|
<trkpt lat="55.478874" lon="8.433084">
|
|
<ele>9.878777</ele>
|
|
<time>2026-07-11T09:50:11.000Z</time>
|
|
</trkpt>
|
|
<trkpt lat="55.478887" lon="8.432980">
|
|
<ele>9.806907</ele>
|
|
<time>2026-07-11T09:50:12.000Z</time>
|
|
</trkpt>
|
|
<trkpt lat="55.478900" lon="8.432874">
|
|
<ele>9.750981</ele>
|
|
<time>2026-07-11T09:50:13.000Z</time>
|
|
</trkpt>
|
|
<trkpt lat="55.478915" lon="8.432768">
|
|
<ele>9.705608</ele>
|
|
<time>2026-07-11T09:50:14.000Z</time>
|
|
</trkpt>
|
|
<trkpt lat="55.478932" lon="8.432662">
|
|
<ele>9.659858</ele>
|
|
<time>2026-07-11T09:50:15.000Z</time>
|
|
</trkpt>
|
|
<trkpt lat="55.478948" lon="8.432555">
|
|
<ele>9.613900</ele>
|
|
<time>2026-07-11T09:50:16.000Z</time>
|
|
</trkpt>
|
|
<trkpt lat="55.478961" lon="8.432449">
|
|
<ele>9.568860</ele>
|
|
<time>2026-07-11T09:50:17.000Z</time>
|
|
</trkpt>
|
|
<trkpt lat="55.478976" lon="8.432346">
|
|
<ele>9.524694</ele>
|
|
<time>2026-07-11T09:50:18.000Z</time>
|
|
</trkpt>
|
|
<trkpt lat="55.478990" lon="8.432244">
|
|
<ele>9.481110</ele>
|
|
<time>2026-07-11T09:50:19.000Z</time>
|
|
</trkpt>
|
|
<trkpt lat="55.479001" lon="8.432142">
|
|
<ele>9.437989</ele>
|
|
<time>2026-07-11T09:50:20.000Z</time>
|
|
</trkpt>
|
|
<trkpt lat="55.479014" lon="8.432043">
|
|
<ele>9.395786</ele>
|
|
<time>2026-07-11T09:50:21.000Z</time>
|
|
</trkpt>
|
|
<trkpt lat="55.479030" lon="8.431939">
|
|
<ele>9.351032</ele>
|
|
<time>2026-07-11T09:50:22.000Z</time>
|
|
</trkpt>
|
|
<trkpt lat="55.479047" lon="8.431834">
|
|
<ele>9.305681</ele>
|
|
<time>2026-07-11T09:50:23.000Z</time>
|
|
</trkpt>
|
|
<trkpt lat="55.479064" lon="8.431731">
|
|
<ele>9.261129</ele>
|
|
<time>2026-07-11T09:50:24.000Z</time>
|
|
</trkpt>
|
|
<trkpt lat="55.479081" lon="8.431626">
|
|
<ele>9.215778</ele>
|
|
<time>2026-07-11T09:50:25.000Z</time>
|
|
</trkpt>
|
|
<trkpt lat="55.479099" lon="8.431524">
|
|
<ele>9.171412</ele>
|
|
<time>2026-07-11T09:50:26.000Z</time>
|
|
</trkpt>
|
|
<trkpt lat="55.479114" lon="8.431422">
|
|
<ele>9.127649</ele>
|
|
<time>2026-07-11T09:50:27.000Z</time>
|
|
</trkpt>
|
|
<trkpt lat="55.479127" lon="8.431323">
|
|
<ele>9.085445</ele>
|
|
<time>2026-07-11T09:50:28.000Z</time>
|
|
</trkpt>
|
|
<trkpt lat="55.479139" lon="8.431224">
|
|
<ele>9.043401</ele>
|
|
<time>2026-07-11T09:50:29.000Z</time>
|
|
</trkpt>
|
|
<trkpt lat="55.479150" lon="8.431125">
|
|
<ele>9.001504</ele>
|
|
<time>2026-07-11T09:50:30.000Z</time>
|
|
</trkpt>
|
|
<trkpt lat="55.479162" lon="8.431029">
|
|
<ele>8.960678</ele>
|
|
<time>2026-07-11T09:50:31.000Z</time>
|
|
</trkpt>
|
|
<trkpt lat="55.479173" lon="8.430934">
|
|
<ele>8.920410</ele>
|
|
<time>2026-07-11T09:50:32.000Z</time>
|
|
</trkpt>
|
|
<trkpt lat="55.479184" lon="8.430842">
|
|
<ele>8.881362</ele>
|
|
<time>2026-07-11T09:50:33.000Z</time>
|
|
</trkpt>
|
|
<trkpt lat="55.479196" lon="8.430752">
|
|
<ele>8.842965</ele>
|
|
<time>2026-07-11T09:50:34.000Z</time>
|
|
</trkpt>
|
|
<trkpt lat="55.479207" lon="8.430665">
|
|
<ele>8.805946</ele>
|
|
<time>2026-07-11T09:50:35.000Z</time>
|
|
</trkpt>
|
|
<trkpt lat="55.479219" lon="8.430581">
|
|
<ele>8.769970</ele>
|
|
<time>2026-07-11T09:50:36.000Z</time>
|
|
</trkpt>
|
|
<trkpt lat="55.479232" lon="8.430497">
|
|
<ele>8.733808</ele>
|
|
<time>2026-07-11T09:50:37.000Z</time>
|
|
</trkpt>
|
|
<trkpt lat="55.479249" lon="8.430411">
|
|
<ele>8.695982</ele>
|
|
<time>2026-07-11T09:50:38.000Z</time>
|
|
</trkpt>
|
|
<trkpt lat="55.479265" lon="8.430321">
|
|
<ele>8.656810</ele>
|
|
<time>2026-07-11T09:50:39.000Z</time>
|
|
</trkpt>
|
|
<trkpt lat="55.479276" lon="8.430225">
|
|
<ele>8.616135</ele>
|
|
<time>2026-07-11T09:50:40.000Z</time>
|
|
</trkpt>
|
|
<trkpt lat="55.479286" lon="8.430127">
|
|
<ele>8.574782</ele>
|
|
<time>2026-07-11T09:50:41.000Z</time>
|
|
</trkpt>
|
|
<trkpt lat="55.479293" lon="8.430033">
|
|
<ele>8.535409</ele>
|
|
<time>2026-07-11T09:50:42.000Z</time>
|
|
</trkpt>
|
|
<trkpt lat="55.479305" lon="8.429943">
|
|
<ele>8.497012</ele>
|
|
<time>2026-07-11T09:50:43.000Z</time>
|
|
</trkpt>
|
|
<trkpt lat="55.479318" lon="8.429861">
|
|
<ele>8.461650</ele>
|
|
<time>2026-07-11T09:50:44.000Z</time>
|
|
</trkpt>
|
|
<trkpt lat="55.479328" lon="8.429789">
|
|
<ele>8.453770</ele>
|
|
<time>2026-07-11T09:50:45.000Z</time>
|
|
</trkpt>
|
|
<trkpt lat="55.479337" lon="8.429726">
|
|
<ele>8.447629</ele>
|
|
<time>2026-07-11T09:50:46.000Z</time>
|
|
</trkpt>
|
|
<trkpt lat="55.479345" lon="8.429676">
|
|
<ele>8.442718</ele>
|
|
<time>2026-07-11T09:50:47.000Z</time>
|
|
</trkpt>
|
|
<trkpt lat="55.479351" lon="8.429637">
|
|
<ele>8.438898</ele>
|
|
<time>2026-07-11T09:50:48.000Z</time>
|
|
</trkpt>
|
|
<trkpt lat="55.479358" lon="8.429600">
|
|
<ele>8.435211</ele>
|
|
<time>2026-07-11T09:50:49.000Z</time>
|
|
</trkpt>
|
|
<trkpt lat="55.479366" lon="8.429567">
|
|
<ele>8.431818</ele>
|
|
<time>2026-07-11T09:50:50.000Z</time>
|
|
</trkpt>
|
|
<trkpt lat="55.479377" lon="8.429541">
|
|
<ele>8.428752</ele>
|
|
<time>2026-07-11T09:50:51.000Z</time>
|
|
</trkpt>
|
|
<trkpt lat="55.479398" lon="8.429513">
|
|
<ele>8.424361</ele>
|
|
<time>2026-07-11T09:50:52.000Z</time>
|
|
</trkpt>
|
|
<trkpt lat="55.479432" lon="8.429477">
|
|
<ele>8.417748</ele>
|
|
<time>2026-07-11T09:50:53.000Z</time>
|
|
</trkpt>
|
|
<trkpt lat="55.479466" lon="8.429440">
|
|
<ele>8.411085</ele>
|
|
<time>2026-07-11T09:50:54.000Z</time>
|
|
</trkpt>
|
|
<trkpt lat="55.479500" lon="8.429399">
|
|
<ele>8.404217</ele>
|
|
<time>2026-07-11T09:50:55.000Z</time>
|
|
</trkpt>
|
|
<trkpt lat="55.479535" lon="8.429355">
|
|
<ele>8.397049</ele>
|
|
<time>2026-07-11T09:50:56.000Z</time>
|
|
</trkpt>
|
|
<trkpt lat="55.479571" lon="8.429310">
|
|
<ele>8.389691</ele>
|
|
<time>2026-07-11T09:50:57.000Z</time>
|
|
</trkpt>
|
|
<trkpt lat="55.479610" lon="8.429262">
|
|
<ele>8.381760</ele>
|
|
<time>2026-07-11T09:50:58.000Z</time>
|
|
</trkpt>
|
|
<trkpt lat="55.479651" lon="8.429215">
|
|
<ele>8.373605</ele>
|
|
<time>2026-07-11T09:50:59.000Z</time>
|
|
</trkpt>
|
|
<trkpt lat="55.479691" lon="8.429171">
|
|
<ele>8.365743</ele>
|
|
<time>2026-07-11T09:51:00.000Z</time>
|
|
</trkpt>
|
|
<trkpt lat="55.479731" lon="8.429131">
|
|
<ele>8.358075</ele>
|
|
<time>2026-07-11T09:51:01.000Z</time>
|
|
</trkpt>
|
|
<trkpt lat="55.479770" lon="8.429088">
|
|
<ele>8.350404</ele>
|
|
<time>2026-07-11T09:51:02.000Z</time>
|
|
</trkpt>
|
|
<trkpt lat="55.479811" lon="8.429040">
|
|
<ele>8.342198</ele>
|
|
<time>2026-07-11T09:51:03.000Z</time>
|
|
</trkpt>
|
|
<trkpt lat="55.479851" lon="8.428990">
|
|
<ele>8.334022</ele>
|
|
<time>2026-07-11T09:51:04.000Z</time>
|
|
</trkpt>
|
|
<trkpt lat="55.479892" lon="8.428940">
|
|
<ele>8.325709</ele>
|
|
<time>2026-07-11T09:51:05.000Z</time>
|
|
</trkpt>
|
|
<trkpt lat="55.479938" lon="8.428890">
|
|
<ele>8.316698</ele>
|
|
<time>2026-07-11T09:51:06.000Z</time>
|
|
</trkpt>
|
|
<trkpt lat="55.479984" lon="8.428839">
|
|
<ele>8.307637</ele>
|
|
<time>2026-07-11T09:51:07.000Z</time>
|
|
</trkpt>
|
|
<trkpt lat="55.480028" lon="8.428788">
|
|
<ele>8.298856</ele>
|
|
<time>2026-07-11T09:51:08.000Z</time>
|
|
</trkpt>
|
|
<trkpt lat="55.480072" lon="8.428736">
|
|
<ele>8.290024</ele>
|
|
<time>2026-07-11T09:51:09.000Z</time>
|
|
</trkpt>
|
|
<trkpt lat="55.480114" lon="8.428684">
|
|
<ele>8.281466</ele>
|
|
<time>2026-07-11T09:51:10.000Z</time>
|
|
</trkpt>
|
|
<trkpt lat="55.480154" lon="8.428637">
|
|
<ele>8.273451</ele>
|
|
<time>2026-07-11T09:51:11.000Z</time>
|
|
</trkpt>
|
|
<trkpt lat="55.480194" lon="8.428593">
|
|
<ele>8.265589</ele>
|
|
<time>2026-07-11T09:51:12.000Z</time>
|
|
</trkpt>
|
|
<trkpt lat="55.480238" lon="8.428545">
|
|
<ele>8.256961</ele>
|
|
<time>2026-07-11T09:51:13.000Z</time>
|
|
</trkpt>
|
|
<trkpt lat="55.480284" lon="8.428496">
|
|
<ele>8.247999</ele>
|
|
<time>2026-07-11T09:51:14.000Z</time>
|
|
</trkpt>
|
|
<trkpt lat="55.480328" lon="8.428447">
|
|
<ele>8.239321</ele>
|
|
<time>2026-07-11T09:51:15.000Z</time>
|
|
</trkpt>
|
|
<trkpt lat="55.480371" lon="8.428395">
|
|
<ele>8.230626</ele>
|
|
<time>2026-07-11T09:51:16.000Z</time>
|
|
</trkpt>
|
|
<trkpt lat="55.480417" lon="8.428337">
|
|
<ele>8.221196</ele>
|
|
<time>2026-07-11T09:51:17.000Z</time>
|
|
</trkpt>
|
|
<trkpt lat="55.480464" lon="8.428280">
|
|
<ele>8.211684</ele>
|
|
<time>2026-07-11T09:51:18.000Z</time>
|
|
</trkpt>
|
|
<trkpt lat="55.480514" lon="8.428224">
|
|
<ele>8.201807</ele>
|
|
<time>2026-07-11T09:51:19.000Z</time>
|
|
</trkpt>
|
|
<trkpt lat="55.480562" lon="8.428165">
|
|
<ele>8.192050</ele>
|
|
<time>2026-07-11T09:51:20.000Z</time>
|
|
</trkpt>
|
|
<trkpt lat="55.480610" lon="8.428106">
|
|
<ele>8.182293</ele>
|
|
<time>2026-07-11T09:51:21.000Z</time>
|
|
</trkpt>
|
|
<trkpt lat="55.480657" lon="8.428047">
|
|
<ele>8.172673</ele>
|
|
<time>2026-07-11T09:51:22.000Z</time>
|
|
</trkpt>
|
|
<trkpt lat="55.480703" lon="8.427990">
|
|
<ele>8.163298</ele>
|
|
<time>2026-07-11T09:51:23.000Z</time>
|
|
</trkpt>
|
|
<trkpt lat="55.480751" lon="8.427932">
|
|
<ele>8.147155</ele>
|
|
<time>2026-07-11T09:51:24.000Z</time>
|
|
</trkpt>
|
|
<trkpt lat="55.480799" lon="8.427875">
|
|
<ele>8.128530</ele>
|
|
<time>2026-07-11T09:51:25.000Z</time>
|
|
</trkpt>
|
|
<trkpt lat="55.480846" lon="8.427819">
|
|
<ele>8.110275</ele>
|
|
<time>2026-07-11T09:51:26.000Z</time>
|
|
</trkpt>
|
|
<trkpt lat="55.480897" lon="8.427761">
|
|
<ele>8.090744</ele>
|
|
<time>2026-07-11T09:51:27.000Z</time>
|
|
</trkpt>
|
|
<trkpt lat="55.480949" lon="8.427702">
|
|
<ele>8.070844</ele>
|
|
<time>2026-07-11T09:51:28.000Z</time>
|
|
</trkpt>
|
|
<trkpt lat="55.480998" lon="8.427643">
|
|
<ele>8.051748</ele>
|
|
<time>2026-07-11T09:51:29.000Z</time>
|
|
</trkpt>
|
|
<trkpt lat="55.481048" lon="8.427586">
|
|
<ele>8.032587</ele>
|
|
<time>2026-07-11T09:51:30.000Z</time>
|
|
</trkpt>
|
|
<trkpt lat="55.481097" lon="8.427530">
|
|
<ele>8.013794</ele>
|
|
<time>2026-07-11T09:51:31.000Z</time>
|
|
</trkpt>
|
|
<trkpt lat="55.481149" lon="8.427475">
|
|
<ele>7.994279</ele>
|
|
<time>2026-07-11T09:51:32.000Z</time>
|
|
</trkpt>
|
|
<trkpt lat="55.481201" lon="8.427420">
|
|
<ele>7.974764</ele>
|
|
<time>2026-07-11T09:51:33.000Z</time>
|
|
</trkpt>
|
|
<trkpt lat="55.481250" lon="8.427365">
|
|
<ele>7.956070</ele>
|
|
<time>2026-07-11T09:51:34.000Z</time>
|
|
</trkpt>
|
|
<trkpt lat="55.481300" lon="8.427310">
|
|
<ele>7.937104</ele>
|
|
<time>2026-07-11T09:51:35.000Z</time>
|
|
</trkpt>
|
|
<trkpt lat="55.481350" lon="8.427256">
|
|
<ele>7.918234</ele>
|
|
<time>2026-07-11T09:51:36.000Z</time>
|
|
</trkpt>
|
|
<trkpt lat="55.481397" lon="8.427203">
|
|
<ele>7.900279</ele>
|
|
<time>2026-07-11T09:51:37.000Z</time>
|
|
</trkpt>
|
|
<trkpt lat="55.481442" lon="8.427150">
|
|
<ele>7.882863</ele>
|
|
<time>2026-07-11T09:51:38.000Z</time>
|
|
</trkpt>
|
|
<trkpt lat="55.481490" lon="8.427096">
|
|
<ele>7.864539</ele>
|
|
<time>2026-07-11T09:51:39.000Z</time>
|
|
</trkpt>
|
|
<trkpt lat="55.481538" lon="8.427038">
|
|
<ele>7.845813</ele>
|
|
<time>2026-07-11T09:51:40.000Z</time>
|
|
</trkpt>
|
|
<trkpt lat="55.481587" lon="8.426984">
|
|
<ele>7.827216</ele>
|
|
<time>2026-07-11T09:51:41.000Z</time>
|
|
</trkpt>
|
|
<trkpt lat="55.481639" lon="8.426928">
|
|
<ele>7.807606</ele>
|
|
<time>2026-07-11T09:51:42.000Z</time>
|
|
</trkpt>
|
|
<trkpt lat="55.481687" lon="8.426872">
|
|
<ele>7.789084</ele>
|
|
<time>2026-07-11T09:51:43.000Z</time>
|
|
</trkpt>
|
|
<trkpt lat="55.481733" lon="8.426817">
|
|
<ele>7.771197</ele>
|
|
<time>2026-07-11T09:51:44.000Z</time>
|
|
</trkpt>
|
|
<trkpt lat="55.481780" lon="8.426763">
|
|
<ele>7.753144</ele>
|
|
<time>2026-07-11T09:51:45.000Z</time>
|
|
</trkpt>
|
|
<trkpt lat="55.481830" lon="8.426709">
|
|
<ele>7.734274</ele>
|
|
<time>2026-07-11T09:51:46.000Z</time>
|
|
</trkpt>
|
|
<trkpt lat="55.481879" lon="8.426655">
|
|
<ele>7.715677</ele>
|
|
<time>2026-07-11T09:51:47.000Z</time>
|
|
</trkpt>
|
|
<trkpt lat="55.481925" lon="8.426599">
|
|
<ele>7.697688</ele>
|
|
<time>2026-07-11T09:51:48.000Z</time>
|
|
</trkpt>
|
|
<trkpt lat="55.481970" lon="8.426543">
|
|
<ele>7.679963</ele>
|
|
<time>2026-07-11T09:51:49.000Z</time>
|
|
</trkpt>
|
|
<trkpt lat="55.482015" lon="8.426489">
|
|
<ele>7.662445</ele>
|
|
<time>2026-07-11T09:51:50.000Z</time>
|
|
</trkpt>
|
|
<trkpt lat="55.482063" lon="8.426434">
|
|
<ele>7.644023</ele>
|
|
<time>2026-07-11T09:51:51.000Z</time>
|
|
</trkpt>
|
|
<trkpt lat="55.482112" lon="8.426379">
|
|
<ele>7.625329</ele>
|
|
<time>2026-07-11T09:51:52.000Z</time>
|
|
</trkpt>
|
|
<trkpt lat="55.482162" lon="8.426323">
|
|
<ele>7.606266</ele>
|
|
<time>2026-07-11T09:51:53.000Z</time>
|
|
</trkpt>
|
|
<trkpt lat="55.482212" lon="8.426266">
|
|
<ele>7.587104</ele>
|
|
<time>2026-07-11T09:51:54.000Z</time>
|
|
</trkpt>
|
|
<trkpt lat="55.482261" lon="8.426209">
|
|
<ele>7.591036</ele>
|
|
<time>2026-07-11T09:51:55.000Z</time>
|
|
</trkpt>
|
|
<trkpt lat="55.482311" lon="8.426151">
|
|
<ele>7.604787</ele>
|
|
<time>2026-07-11T09:51:56.000Z</time>
|
|
</trkpt>
|
|
<trkpt lat="55.482362" lon="8.426090">
|
|
<ele>7.618946</ele>
|
|
<time>2026-07-11T09:51:57.000Z</time>
|
|
</trkpt>
|
|
<trkpt lat="55.482414" lon="8.426030">
|
|
<ele>7.633224</ele>
|
|
<time>2026-07-11T09:51:58.000Z</time>
|
|
</trkpt>
|
|
<trkpt lat="55.482462" lon="8.425974">
|
|
<ele>7.646448</ele>
|
|
<time>2026-07-11T09:51:59.000Z</time>
|
|
</trkpt>
|
|
<trkpt lat="55.482509" lon="8.425919">
|
|
<ele>7.659409</ele>
|
|
<time>2026-07-11T09:52:00.000Z</time>
|
|
</trkpt>
|
|
<trkpt lat="55.482555" lon="8.425865">
|
|
<ele>7.672105</ele>
|
|
<time>2026-07-11T09:52:01.000Z</time>
|
|
</trkpt>
|
|
<trkpt lat="55.482599" lon="8.425811">
|
|
<ele>7.684422</ele>
|
|
<time>2026-07-11T09:52:02.000Z</time>
|
|
</trkpt>
|
|
<trkpt lat="55.482645" lon="8.425758">
|
|
<ele>7.697047</ele>
|
|
<time>2026-07-11T09:52:03.000Z</time>
|
|
</trkpt>
|
|
<trkpt lat="55.482689" lon="8.425705">
|
|
<ele>7.709290</ele>
|
|
<time>2026-07-11T09:52:04.000Z</time>
|
|
</trkpt>
|
|
<trkpt lat="55.482732" lon="8.425652">
|
|
<ele>7.721344</ele>
|
|
<time>2026-07-11T09:52:05.000Z</time>
|
|
</trkpt>
|
|
<trkpt lat="55.482778" lon="8.425595">
|
|
<ele>7.734261</ele>
|
|
<time>2026-07-11T09:52:06.000Z</time>
|
|
</trkpt>
|
|
<trkpt lat="55.482822" lon="8.425533">
|
|
<ele>7.747201</ele>
|
|
<time>2026-07-11T09:52:07.000Z</time>
|
|
</trkpt>
|
|
<trkpt lat="55.482863" lon="8.425469">
|
|
<ele>7.759781</ele>
|
|
<time>2026-07-11T09:52:08.000Z</time>
|
|
</trkpt>
|
|
<trkpt lat="55.482907" lon="8.425404">
|
|
<ele>7.772968</ele>
|
|
<time>2026-07-11T09:52:09.000Z</time>
|
|
</trkpt>
|
|
<trkpt lat="55.482952" lon="8.425337">
|
|
<ele>7.786498</ele>
|
|
<time>2026-07-11T09:52:10.000Z</time>
|
|
</trkpt>
|
|
<trkpt lat="55.482992" lon="8.425272">
|
|
<ele>7.798995</ele>
|
|
<time>2026-07-11T09:52:11.000Z</time>
|
|
</trkpt>
|
|
<trkpt lat="55.483032" lon="8.425204">
|
|
<ele>7.811759</ele>
|
|
<time>2026-07-11T09:52:12.000Z</time>
|
|
</trkpt>
|
|
<trkpt lat="55.483074" lon="8.425134">
|
|
<ele>7.825035</ele>
|
|
<time>2026-07-11T09:52:13.000Z</time>
|
|
</trkpt>
|
|
<trkpt lat="55.483116" lon="8.425065">
|
|
<ele>7.838222</ele>
|
|
<time>2026-07-11T09:52:14.000Z</time>
|
|
</trkpt>
|
|
<trkpt lat="55.483158" lon="8.424997">
|
|
<ele>7.851321</ele>
|
|
<time>2026-07-11T09:52:15.000Z</time>
|
|
</trkpt>
|
|
<trkpt lat="55.483200" lon="8.424929">
|
|
<ele>7.864420</ele>
|
|
<time>2026-07-11T09:52:16.000Z</time>
|
|
</trkpt>
|
|
<trkpt lat="55.483242" lon="8.424861">
|
|
<ele>7.877519</ele>
|
|
<time>2026-07-11T09:52:17.000Z</time>
|
|
</trkpt>
|
|
<trkpt lat="55.483282" lon="8.424791">
|
|
<ele>7.890465</ele>
|
|
<time>2026-07-11T09:52:18.000Z</time>
|
|
</trkpt>
|
|
<trkpt lat="55.483320" lon="8.424719">
|
|
<ele>7.903278</ele>
|
|
<time>2026-07-11T09:52:19.000Z</time>
|
|
</trkpt>
|
|
<trkpt lat="55.483360" lon="8.424647">
|
|
<ele>7.916409</ele>
|
|
<time>2026-07-11T09:52:20.000Z</time>
|
|
</trkpt>
|
|
<trkpt lat="55.483400" lon="8.424573">
|
|
<ele>7.929727</ele>
|
|
<time>2026-07-11T09:52:21.000Z</time>
|
|
</trkpt>
|
|
<trkpt lat="55.483439" lon="8.424497">
|
|
<ele>7.943079</ele>
|
|
<time>2026-07-11T09:52:22.000Z</time>
|
|
</trkpt>
|
|
<trkpt lat="55.483475" lon="8.424423">
|
|
<ele>7.955780</ele>
|
|
<time>2026-07-11T09:52:23.000Z</time>
|
|
</trkpt>
|
|
<trkpt lat="55.483509" lon="8.424352">
|
|
<ele>7.967886</ele>
|
|
<time>2026-07-11T09:52:24.000Z</time>
|
|
</trkpt>
|
|
<trkpt lat="55.483544" lon="8.424282">
|
|
<ele>7.980043</ele>
|
|
<time>2026-07-11T09:52:25.000Z</time>
|
|
</trkpt>
|
|
<trkpt lat="55.483578" lon="8.424212">
|
|
<ele>7.992049</ele>
|
|
<time>2026-07-11T09:52:26.000Z</time>
|
|
</trkpt>
|
|
<trkpt lat="55.483612" lon="8.424141">
|
|
<ele>7.982922</ele>
|
|
<time>2026-07-11T09:52:27.000Z</time>
|
|
</trkpt>
|
|
<trkpt lat="55.483645" lon="8.424069">
|
|
<ele>7.967356</ele>
|
|
<time>2026-07-11T09:52:28.000Z</time>
|
|
</trkpt>
|
|
<trkpt lat="55.483675" lon="8.423994">
|
|
<ele>7.951925</ele>
|
|
<time>2026-07-11T09:52:29.000Z</time>
|
|
</trkpt>
|
|
<trkpt lat="55.483708" lon="8.423917">
|
|
<ele>7.935697</ele>
|
|
<time>2026-07-11T09:52:30.000Z</time>
|
|
</trkpt>
|
|
<trkpt lat="55.483739" lon="8.423841">
|
|
<ele>7.919957</ele>
|
|
<time>2026-07-11T09:52:31.000Z</time>
|
|
</trkpt>
|
|
<trkpt lat="55.483769" lon="8.423763">
|
|
<ele>7.904112</ele>
|
|
<time>2026-07-11T09:52:32.000Z</time>
|
|
</trkpt>
|
|
<trkpt lat="55.483801" lon="8.423685">
|
|
<ele>7.887925</ele>
|
|
<time>2026-07-11T09:52:33.000Z</time>
|
|
</trkpt>
|
|
<trkpt lat="55.483834" lon="8.423608">
|
|
<ele>7.871698</ele>
|
|
<time>2026-07-11T09:52:34.000Z</time>
|
|
</trkpt>
|
|
<trkpt lat="55.483866" lon="8.423530">
|
|
<ele>7.855511</ele>
|
|
<time>2026-07-11T09:52:35.000Z</time>
|
|
</trkpt>
|
|
<trkpt lat="55.483895" lon="8.423453">
|
|
<ele>7.839971</ele>
|
|
<time>2026-07-11T09:52:36.000Z</time>
|
|
</trkpt>
|
|
<trkpt lat="55.483923" lon="8.423378">
|
|
<ele>7.824874</ele>
|
|
<time>2026-07-11T09:52:37.000Z</time>
|
|
</trkpt>
|
|
<trkpt lat="55.483952" lon="8.423302">
|
|
<ele>7.809473</ele>
|
|
<time>2026-07-11T09:52:38.000Z</time>
|
|
</trkpt>
|
|
<trkpt lat="55.483979" lon="8.423222">
|
|
<ele>7.793821</ele>
|
|
<time>2026-07-11T09:52:39.000Z</time>
|
|
</trkpt>
|
|
<trkpt lat="55.484006" lon="8.423143">
|
|
<ele>7.778314</ele>
|
|
<time>2026-07-11T09:52:40.000Z</time>
|
|
</trkpt>
|
|
<trkpt lat="55.484031" lon="8.423063">
|
|
<ele>7.762958</ele>
|
|
<time>2026-07-11T09:52:41.000Z</time>
|
|
</trkpt>
|
|
<trkpt lat="55.484055" lon="8.422983">
|
|
<ele>7.747743</ele>
|
|
<time>2026-07-11T09:52:42.000Z</time>
|
|
</trkpt>
|
|
<trkpt lat="55.484082" lon="8.422901">
|
|
<ele>7.731802</ele>
|
|
<time>2026-07-11T09:52:43.000Z</time>
|
|
</trkpt>
|
|
<trkpt lat="55.484107" lon="8.422818">
|
|
<ele>7.716002</ele>
|
|
<time>2026-07-11T09:52:44.000Z</time>
|
|
</trkpt>
|
|
<trkpt lat="55.484129" lon="8.422733">
|
|
<ele>7.700295</ele>
|
|
<time>2026-07-11T09:52:45.000Z</time>
|
|
</trkpt>
|
|
<trkpt lat="55.484154" lon="8.422647">
|
|
<ele>7.684048</ele>
|
|
<time>2026-07-11T09:52:46.000Z</time>
|
|
</trkpt>
|
|
<trkpt lat="55.484179" lon="8.422560">
|
|
<ele>7.667652</ele>
|
|
<time>2026-07-11T09:52:47.000Z</time>
|
|
</trkpt>
|
|
<trkpt lat="55.484202" lon="8.422475">
|
|
<ele>7.651820</ele>
|
|
<time>2026-07-11T09:52:48.000Z</time>
|
|
</trkpt>
|
|
<trkpt lat="55.484223" lon="8.422391">
|
|
<ele>7.636387</ele>
|
|
<time>2026-07-11T09:52:49.000Z</time>
|
|
</trkpt>
|
|
<trkpt lat="55.484244" lon="8.422307">
|
|
<ele>7.620955</ele>
|
|
<time>2026-07-11T09:52:50.000Z</time>
|
|
</trkpt>
|
|
<trkpt lat="55.484265" lon="8.422221">
|
|
<ele>7.605215</ele>
|
|
<time>2026-07-11T09:52:51.000Z</time>
|
|
</trkpt>
|
|
<trkpt lat="55.484288" lon="8.422133">
|
|
<ele>7.588926</ele>
|
|
<time>2026-07-11T09:52:52.000Z</time>
|
|
</trkpt>
|
|
<trkpt lat="55.484313" lon="8.422046">
|
|
<ele>7.572529</ele>
|
|
<time>2026-07-11T09:52:53.000Z</time>
|
|
</trkpt>
|
|
<trkpt lat="55.484336" lon="8.421960">
|
|
<ele>7.556545</ele>
|
|
<time>2026-07-11T09:52:54.000Z</time>
|
|
</trkpt>
|
|
<trkpt lat="55.484359" lon="8.421873">
|
|
<ele>7.540408</ele>
|
|
<time>2026-07-11T09:52:55.000Z</time>
|
|
</trkpt>
|
|
<trkpt lat="55.484382" lon="8.421785">
|
|
<ele>7.524119</ele>
|
|
<time>2026-07-11T09:52:56.000Z</time>
|
|
</trkpt>
|
|
<trkpt lat="55.484404" lon="8.421697">
|
|
<ele>7.507952</ele>
|
|
<time>2026-07-11T09:52:57.000Z</time>
|
|
</trkpt>
|
|
<trkpt lat="55.484429" lon="8.421609">
|
|
<ele>7.491406</ele>
|
|
<time>2026-07-11T09:52:58.000Z</time>
|
|
</trkpt>
|
|
<trkpt lat="55.484456" lon="8.421525">
|
|
<ele>7.475173</ele>
|
|
<time>2026-07-11T09:52:59.000Z</time>
|
|
</trkpt>
|
|
<trkpt lat="55.484482" lon="8.421442">
|
|
<ele>7.461544</ele>
|
|
<time>2026-07-11T09:53:00.000Z</time>
|
|
</trkpt>
|
|
<trkpt lat="55.484507" lon="8.421357">
|
|
<ele>7.463095</ele>
|
|
<time>2026-07-11T09:53:01.000Z</time>
|
|
</trkpt>
|
|
<trkpt lat="55.484530" lon="8.421274">
|
|
<ele>7.464591</ele>
|
|
<time>2026-07-11T09:53:02.000Z</time>
|
|
</trkpt>
|
|
<trkpt lat="55.484552" lon="8.421191">
|
|
<ele>7.466075</ele>
|
|
<time>2026-07-11T09:53:03.000Z</time>
|
|
</trkpt>
|
|
<trkpt lat="55.484572" lon="8.421109">
|
|
<ele>7.467521</ele>
|
|
<time>2026-07-11T09:53:04.000Z</time>
|
|
</trkpt>
|
|
<trkpt lat="55.484597" lon="8.421030">
|
|
<ele>7.468986</ele>
|
|
<time>2026-07-11T09:53:05.000Z</time>
|
|
</trkpt>
|
|
<trkpt lat="55.484620" lon="8.420951">
|
|
<ele>7.470424</ele>
|
|
<time>2026-07-11T09:53:06.000Z</time>
|
|
</trkpt>
|
|
<trkpt lat="55.484641" lon="8.420873">
|
|
<ele>7.471823</ele>
|
|
<time>2026-07-11T09:53:07.000Z</time>
|
|
</trkpt>
|
|
<trkpt lat="55.484662" lon="8.420795">
|
|
<ele>7.473221</ele>
|
|
<time>2026-07-11T09:53:08.000Z</time>
|
|
</trkpt>
|
|
<trkpt lat="55.484681" lon="8.420716">
|
|
<ele>7.474611</ele>
|
|
<time>2026-07-11T09:53:09.000Z</time>
|
|
</trkpt>
|
|
<trkpt lat="55.484702" lon="8.420637">
|
|
<ele>7.476024</ele>
|
|
<time>2026-07-11T09:53:10.000Z</time>
|
|
</trkpt>
|
|
<trkpt lat="55.484727" lon="8.420556">
|
|
<ele>7.477518</ele>
|
|
<time>2026-07-11T09:53:11.000Z</time>
|
|
</trkpt>
|
|
<trkpt lat="55.484753" lon="8.420473">
|
|
<ele>7.479054</ele>
|
|
<time>2026-07-11T09:53:12.000Z</time>
|
|
</trkpt>
|
|
<trkpt lat="55.484778" lon="8.420391">
|
|
<ele>7.480562</ele>
|
|
<time>2026-07-11T09:53:13.000Z</time>
|
|
</trkpt>
|
|
<trkpt lat="55.484799" lon="8.420307">
|
|
<ele>7.482048</ele>
|
|
<time>2026-07-11T09:53:14.000Z</time>
|
|
</trkpt>
|
|
<trkpt lat="55.484822" lon="8.420223">
|
|
<ele>7.483559</ele>
|
|
<time>2026-07-11T09:53:15.000Z</time>
|
|
</trkpt>
|
|
<trkpt lat="55.484847" lon="8.420140">
|
|
<ele>7.485081</ele>
|
|
<time>2026-07-11T09:53:16.000Z</time>
|
|
</trkpt>
|
|
<trkpt lat="55.484871" lon="8.420061">
|
|
<ele>7.486533</ele>
|
|
<time>2026-07-11T09:53:17.000Z</time>
|
|
</trkpt>
|
|
<trkpt lat="55.484900" lon="8.419983">
|
|
<ele>7.488044</ele>
|
|
<time>2026-07-11T09:53:18.000Z</time>
|
|
</trkpt>
|
|
<trkpt lat="55.484929" lon="8.419908">
|
|
<ele>7.489514</ele>
|
|
<time>2026-07-11T09:53:19.000Z</time>
|
|
</trkpt>
|
|
<trkpt lat="55.484957" lon="8.419835">
|
|
<ele>7.490942</ele>
|
|
<time>2026-07-11T09:53:20.000Z</time>
|
|
</trkpt>
|
|
<trkpt lat="55.484990" lon="8.419763">
|
|
<ele>7.492441</ele>
|
|
<time>2026-07-11T09:53:21.000Z</time>
|
|
</trkpt>
|
|
<trkpt lat="55.485020" lon="8.419693">
|
|
<ele>7.493863</ele>
|
|
<time>2026-07-11T09:53:22.000Z</time>
|
|
</trkpt>
|
|
<trkpt lat="55.485051" lon="8.419622">
|
|
<ele>7.495314</ele>
|
|
<time>2026-07-11T09:53:23.000Z</time>
|
|
</trkpt>
|
|
<trkpt lat="55.485083" lon="8.419546">
|
|
<ele>7.496847</ele>
|
|
<time>2026-07-11T09:53:24.000Z</time>
|
|
</trkpt>
|
|
<trkpt lat="55.485112" lon="8.419468">
|
|
<ele>7.498358</ele>
|
|
<time>2026-07-11T09:53:25.000Z</time>
|
|
</trkpt>
|
|
<trkpt lat="55.485139" lon="8.419388">
|
|
<ele>7.499866</ele>
|
|
<time>2026-07-11T09:53:26.000Z</time>
|
|
</trkpt>
|
|
<trkpt lat="55.485164" lon="8.419307">
|
|
<ele>7.501360</ele>
|
|
<time>2026-07-11T09:53:27.000Z</time>
|
|
</trkpt>
|
|
<trkpt lat="55.485187" lon="8.419227">
|
|
<ele>7.502812</ele>
|
|
<time>2026-07-11T09:53:28.000Z</time>
|
|
</trkpt>
|
|
<trkpt lat="55.485211" lon="8.419148">
|
|
<ele>7.504264</ele>
|
|
<time>2026-07-11T09:53:29.000Z</time>
|
|
</trkpt>
|
|
<trkpt lat="55.485236" lon="8.419069">
|
|
<ele>7.505729</ele>
|
|
<time>2026-07-11T09:53:30.000Z</time>
|
|
</trkpt>
|
|
<trkpt lat="55.485259" lon="8.418989">
|
|
<ele>7.507182</ele>
|
|
<time>2026-07-11T09:53:31.000Z</time>
|
|
</trkpt>
|
|
<trkpt lat="55.485283" lon="8.418912">
|
|
<ele>7.508605</ele>
|
|
<time>2026-07-11T09:53:32.000Z</time>
|
|
</trkpt>
|
|
<trkpt lat="55.485313" lon="8.418845">
|
|
<ele>7.509988</ele>
|
|
<time>2026-07-11T09:53:33.000Z</time>
|
|
</trkpt>
|
|
<trkpt lat="55.485349" lon="8.418796">
|
|
<ele>7.511287</ele>
|
|
<time>2026-07-11T09:53:34.000Z</time>
|
|
</trkpt>
|
|
<trkpt lat="55.485393" lon="8.418758">
|
|
<ele>7.512687</ele>
|
|
<time>2026-07-11T09:53:35.000Z</time>
|
|
</trkpt>
|
|
<trkpt lat="55.485441" lon="8.418724">
|
|
<ele>7.517305</ele>
|
|
<time>2026-07-11T09:53:36.000Z</time>
|
|
</trkpt>
|
|
<trkpt lat="55.485487" lon="8.418683">
|
|
<ele>7.522034</ele>
|
|
<time>2026-07-11T09:53:37.000Z</time>
|
|
</trkpt>
|
|
<trkpt lat="55.485529" lon="8.418628">
|
|
<ele>7.526832</ele>
|
|
<time>2026-07-11T09:53:38.000Z</time>
|
|
</trkpt>
|
|
<trkpt lat="55.485562" lon="8.418559">
|
|
<ele>7.531527</ele>
|
|
<time>2026-07-11T09:53:39.000Z</time>
|
|
</trkpt>
|
|
<trkpt lat="55.485585" lon="8.418479">
|
|
<ele>7.536191</ele>
|
|
<time>2026-07-11T09:53:40.000Z</time>
|
|
</trkpt>
|
|
<trkpt lat="55.485601" lon="8.418393">
|
|
<ele>7.540897</ele>
|
|
<time>2026-07-11T09:53:41.000Z</time>
|
|
</trkpt>
|
|
<trkpt lat="55.485607" lon="8.418304">
|
|
<ele>7.545557</ele>
|
|
<time>2026-07-11T09:53:42.000Z</time>
|
|
</trkpt>
|
|
<trkpt lat="55.485605" lon="8.418214">
|
|
<ele>7.550240</ele>
|
|
<time>2026-07-11T09:53:43.000Z</time>
|
|
</trkpt>
|
|
<trkpt lat="55.485600" lon="8.418126">
|
|
<ele>7.554838</ele>
|
|
<time>2026-07-11T09:53:44.000Z</time>
|
|
</trkpt>
|
|
<trkpt lat="55.485599" lon="8.418040">
|
|
<ele>7.559310</ele>
|
|
<time>2026-07-11T09:53:45.000Z</time>
|
|
</trkpt>
|
|
<trkpt lat="55.485608" lon="8.417956">
|
|
<ele>7.563755</ele>
|
|
<time>2026-07-11T09:53:46.000Z</time>
|
|
</trkpt>
|
|
<trkpt lat="55.485623" lon="8.417875">
|
|
<ele>7.568185</ele>
|
|
<time>2026-07-11T09:53:47.000Z</time>
|
|
</trkpt>
|
|
<trkpt lat="55.485644" lon="8.417795">
|
|
<ele>7.572769</ele>
|
|
<time>2026-07-11T09:53:48.000Z</time>
|
|
</trkpt>
|
|
<trkpt lat="55.485669" lon="8.417717">
|
|
<ele>7.577428</ele>
|
|
<time>2026-07-11T09:53:49.000Z</time>
|
|
</trkpt>
|
|
<trkpt lat="55.485696" lon="8.417644">
|
|
<ele>7.581961</ele>
|
|
<time>2026-07-11T09:53:50.000Z</time>
|
|
</trkpt>
|
|
<trkpt lat="55.485722" lon="8.417570">
|
|
<ele>7.586488</ele>
|
|
<time>2026-07-11T09:53:51.000Z</time>
|
|
</trkpt>
|
|
<trkpt lat="55.485750" lon="8.417496">
|
|
<ele>7.591114</ele>
|
|
<time>2026-07-11T09:53:52.000Z</time>
|
|
</trkpt>
|
|
<trkpt lat="55.485779" lon="8.417423">
|
|
<ele>7.595749</ele>
|
|
<time>2026-07-11T09:53:53.000Z</time>
|
|
</trkpt>
|
|
<trkpt lat="55.485808" lon="8.417346">
|
|
<ele>7.600556</ele>
|
|
<time>2026-07-11T09:53:54.000Z</time>
|
|
</trkpt>
|
|
<trkpt lat="55.485838" lon="8.417268">
|
|
<ele>7.605458</ele>
|
|
<time>2026-07-11T09:53:55.000Z</time>
|
|
</trkpt>
|
|
<trkpt lat="55.485869" lon="8.417190">
|
|
<ele>7.610411</ele>
|
|
<time>2026-07-11T09:53:56.000Z</time>
|
|
</trkpt>
|
|
<trkpt lat="55.485899" lon="8.417112">
|
|
<ele>7.615312</ele>
|
|
<time>2026-07-11T09:53:57.000Z</time>
|
|
</trkpt>
|
|
<trkpt lat="55.485930" lon="8.417035">
|
|
<ele>7.620223</ele>
|
|
<time>2026-07-11T09:53:58.000Z</time>
|
|
</trkpt>
|
|
<trkpt lat="55.485960" lon="8.416958">
|
|
<ele>7.625082</ele>
|
|
<time>2026-07-11T09:53:59.000Z</time>
|
|
</trkpt>
|
|
<trkpt lat="55.485991" lon="8.416880">
|
|
<ele>7.630035</ele>
|
|
<time>2026-07-11T09:54:00.000Z</time>
|
|
</trkpt>
|
|
<trkpt lat="55.486021" lon="8.416803">
|
|
<ele>7.634893</ele>
|
|
<time>2026-07-11T09:54:01.000Z</time>
|
|
</trkpt>
|
|
<trkpt lat="55.486052" lon="8.416725">
|
|
<ele>7.639847</ele>
|
|
<time>2026-07-11T09:54:02.000Z</time>
|
|
</trkpt>
|
|
<trkpt lat="55.486081" lon="8.416647">
|
|
<ele>7.644697</ele>
|
|
<time>2026-07-11T09:54:03.000Z</time>
|
|
</trkpt>
|
|
<trkpt lat="55.486109" lon="8.416570">
|
|
<ele>7.649454</ele>
|
|
<time>2026-07-11T09:54:04.000Z</time>
|
|
</trkpt>
|
|
<trkpt lat="55.486138" lon="8.416494">
|
|
<ele>7.654218</ele>
|
|
<time>2026-07-11T09:54:05.000Z</time>
|
|
</trkpt>
|
|
<trkpt lat="55.486165" lon="8.416420">
|
|
<ele>7.658794</ele>
|
|
<time>2026-07-11T09:54:06.000Z</time>
|
|
</trkpt>
|
|
<trkpt lat="55.486193" lon="8.416346">
|
|
<ele>7.663420</ele>
|
|
<time>2026-07-11T09:54:07.000Z</time>
|
|
</trkpt>
|
|
<trkpt lat="55.486222" lon="8.416272">
|
|
<ele>7.668098</ele>
|
|
<time>2026-07-11T09:54:08.000Z</time>
|
|
</trkpt>
|
|
<trkpt lat="55.486249" lon="8.416199">
|
|
<ele>7.672630</ele>
|
|
<time>2026-07-11T09:54:09.000Z</time>
|
|
</trkpt>
|
|
<trkpt lat="55.486275" lon="8.416127">
|
|
<ele>7.677069</ele>
|
|
<time>2026-07-11T09:54:10.000Z</time>
|
|
</trkpt>
|
|
<trkpt lat="55.486302" lon="8.416056">
|
|
<ele>7.719489</ele>
|
|
<time>2026-07-11T09:54:11.000Z</time>
|
|
</trkpt>
|
|
<trkpt lat="55.486329" lon="8.415984">
|
|
<ele>7.769679</ele>
|
|
<time>2026-07-11T09:54:12.000Z</time>
|
|
</trkpt>
|
|
<trkpt lat="55.486355" lon="8.415913">
|
|
<ele>7.818821</ele>
|
|
<time>2026-07-11T09:54:13.000Z</time>
|
|
</trkpt>
|
|
<trkpt lat="55.486382" lon="8.415842">
|
|
<ele>7.868528</ele>
|
|
<time>2026-07-11T09:54:14.000Z</time>
|
|
</trkpt>
|
|
<trkpt lat="55.486409" lon="8.415771">
|
|
<ele>7.918234</ele>
|
|
<time>2026-07-11T09:54:15.000Z</time>
|
|
</trkpt>
|
|
<trkpt lat="55.486436" lon="8.415700">
|
|
<ele>7.967940</ele>
|
|
<time>2026-07-11T09:54:16.000Z</time>
|
|
</trkpt>
|
|
<trkpt lat="55.486462" lon="8.415629">
|
|
<ele>8.017082</ele>
|
|
<time>2026-07-11T09:54:17.000Z</time>
|
|
</trkpt>
|
|
<trkpt lat="55.486487" lon="8.415559">
|
|
<ele>8.065182</ele>
|
|
<time>2026-07-11T09:54:18.000Z</time>
|
|
</trkpt>
|
|
<trkpt lat="55.486514" lon="8.415490">
|
|
<ele>8.113927</ele>
|
|
<time>2026-07-11T09:54:19.000Z</time>
|
|
</trkpt>
|
|
<trkpt lat="55.486542" lon="8.415421">
|
|
<ele>8.163262</ele>
|
|
<time>2026-07-11T09:54:20.000Z</time>
|
|
</trkpt>
|
|
<trkpt lat="55.486567" lon="8.415352">
|
|
<ele>8.210871</ele>
|
|
<time>2026-07-11T09:54:21.000Z</time>
|
|
</trkpt>
|
|
<trkpt lat="55.486592" lon="8.415283">
|
|
<ele>8.258480</ele>
|
|
<time>2026-07-11T09:54:22.000Z</time>
|
|
</trkpt>
|
|
<trkpt lat="55.486619" lon="8.415214">
|
|
<ele>8.307225</ele>
|
|
<time>2026-07-11T09:54:23.000Z</time>
|
|
</trkpt>
|
|
<trkpt lat="55.486645" lon="8.415146">
|
|
<ele>8.354912</ele>
|
|
<time>2026-07-11T09:54:24.000Z</time>
|
|
</trkpt>
|
|
<trkpt lat="55.486672" lon="8.415077">
|
|
<ele>8.403657</ele>
|
|
<time>2026-07-11T09:54:25.000Z</time>
|
|
</trkpt>
|
|
<trkpt lat="55.486699" lon="8.415010">
|
|
<ele>8.451450</ele>
|
|
<time>2026-07-11T09:54:26.000Z</time>
|
|
</trkpt>
|
|
<trkpt lat="55.486724" lon="8.414942">
|
|
<ele>8.498570</ele>
|
|
<time>2026-07-11T09:54:27.000Z</time>
|
|
</trkpt>
|
|
<trkpt lat="55.486748" lon="8.414874">
|
|
<ele>8.545140</ele>
|
|
<time>2026-07-11T09:54:28.000Z</time>
|
|
</trkpt>
|
|
<trkpt lat="55.486775" lon="8.414804">
|
|
<ele>8.594364</ele>
|
|
<time>2026-07-11T09:54:29.000Z</time>
|
|
</trkpt>
|
|
<trkpt lat="55.486802" lon="8.414734">
|
|
<ele>8.643588</ele>
|
|
<time>2026-07-11T09:54:30.000Z</time>
|
|
</trkpt>
|
|
<trkpt lat="55.486828" lon="8.414664">
|
|
<ele>8.692243</ele>
|
|
<time>2026-07-11T09:54:31.000Z</time>
|
|
</trkpt>
|
|
<trkpt lat="55.486855" lon="8.414596">
|
|
<ele>8.740510</ele>
|
|
<time>2026-07-11T09:54:32.000Z</time>
|
|
</trkpt>
|
|
<trkpt lat="55.486882" lon="8.414528">
|
|
<ele>8.788778</ele>
|
|
<time>2026-07-11T09:54:33.000Z</time>
|
|
</trkpt>
|
|
<trkpt lat="55.486908" lon="8.414458">
|
|
<ele>8.837432</ele>
|
|
<time>2026-07-11T09:54:34.000Z</time>
|
|
</trkpt>
|
|
<trkpt lat="55.486935" lon="8.414387">
|
|
<ele>8.887138</ele>
|
|
<time>2026-07-11T09:54:35.000Z</time>
|
|
</trkpt>
|
|
<trkpt lat="55.486962" lon="8.414316">
|
|
<ele>8.936844</ele>
|
|
<time>2026-07-11T09:54:36.000Z</time>
|
|
</trkpt>
|
|
<trkpt lat="55.486989" lon="8.414246">
|
|
<ele>8.986068</ele>
|
|
<time>2026-07-11T09:54:37.000Z</time>
|
|
</trkpt>
|
|
<trkpt lat="55.487015" lon="8.414178">
|
|
<ele>9.033754</ele>
|
|
<time>2026-07-11T09:54:38.000Z</time>
|
|
</trkpt>
|
|
<trkpt lat="55.487042" lon="8.414108">
|
|
<ele>9.082978</ele>
|
|
<time>2026-07-11T09:54:39.000Z</time>
|
|
</trkpt>
|
|
<trkpt lat="55.487069" lon="8.414039">
|
|
<ele>9.131723</ele>
|
|
<time>2026-07-11T09:54:40.000Z</time>
|
|
</trkpt>
|
|
<trkpt lat="55.487094" lon="8.413970">
|
|
<ele>9.179332</ele>
|
|
<time>2026-07-11T09:54:41.000Z</time>
|
|
</trkpt>
|
|
<trkpt lat="55.487118" lon="8.413900">
|
|
<ele>9.226892</ele>
|
|
<time>2026-07-11T09:54:42.000Z</time>
|
|
</trkpt>
|
|
<trkpt lat="55.487145" lon="8.413831">
|
|
<ele>9.275637</ele>
|
|
<time>2026-07-11T09:54:43.000Z</time>
|
|
</trkpt>
|
|
<trkpt lat="55.487172" lon="8.413762">
|
|
<ele>9.324381</ele>
|
|
<time>2026-07-11T09:54:44.000Z</time>
|
|
</trkpt>
|
|
<trkpt lat="55.487199" lon="8.413695">
|
|
<ele>9.372174</ele>
|
|
<time>2026-07-11T09:54:45.000Z</time>
|
|
</trkpt>
|
|
<trkpt lat="55.487224" lon="8.413630">
|
|
<ele>9.417840</ele>
|
|
<time>2026-07-11T09:54:46.000Z</time>
|
|
</trkpt>
|
|
<trkpt lat="55.487248" lon="8.413567">
|
|
<ele>9.461970</ele>
|
|
<time>2026-07-11T09:54:47.000Z</time>
|
|
</trkpt>
|
|
<trkpt lat="55.487275" lon="8.413505">
|
|
<ele>9.507425</ele>
|
|
<time>2026-07-11T09:54:48.000Z</time>
|
|
</trkpt>
|
|
<trkpt lat="55.487300" lon="8.413443">
|
|
<ele>9.550057</ele>
|
|
<time>2026-07-11T09:54:49.000Z</time>
|
|
</trkpt>
|
|
<trkpt lat="55.487322" lon="8.413380">
|
|
<ele>9.590663</ele>
|
|
<time>2026-07-11T09:54:50.000Z</time>
|
|
</trkpt>
|
|
<trkpt lat="55.487344" lon="8.413318">
|
|
<ele>9.630803</ele>
|
|
<time>2026-07-11T09:54:51.000Z</time>
|
|
</trkpt>
|
|
<trkpt lat="55.487363" lon="8.413262">
|
|
<ele>9.666618</ele>
|
|
<time>2026-07-11T09:54:52.000Z</time>
|
|
</trkpt>
|
|
<trkpt lat="55.487380" lon="8.413214">
|
|
<ele>9.697678</ele>
|
|
<time>2026-07-11T09:54:53.000Z</time>
|
|
</trkpt>
|
|
<trkpt lat="55.487394" lon="8.413176">
|
|
<ele>9.722549</ele>
|
|
<time>2026-07-11T09:54:54.000Z</time>
|
|
</trkpt>
|
|
<trkpt lat="55.487403" lon="8.413149">
|
|
<ele>9.739737</ele>
|
|
<time>2026-07-11T09:54:55.000Z</time>
|
|
</trkpt>
|
|
<trkpt lat="55.487409" lon="8.413133">
|
|
<ele>9.750265</ele>
|
|
<time>2026-07-11T09:54:56.000Z</time>
|
|
</trkpt>
|
|
<trkpt lat="55.487426" lon="8.413106">
|
|
<ele>9.772412</ele>
|
|
<time>2026-07-11T09:55:36.000Z</time>
|
|
</trkpt>
|
|
<trkpt lat="55.487451" lon="8.413056">
|
|
<ele>9.809002</ele>
|
|
<time>2026-07-11T09:55:37.000Z</time>
|
|
</trkpt>
|
|
<trkpt lat="55.487463" lon="8.413016">
|
|
<ele>9.833837</ele>
|
|
<time>2026-07-11T09:55:38.000Z</time>
|
|
</trkpt>
|
|
<trkpt lat="55.487477" lon="8.412981">
|
|
<ele>9.857345</ele>
|
|
<time>2026-07-11T09:55:39.000Z</time>
|
|
</trkpt>
|
|
<trkpt lat="55.487496" lon="8.412944">
|
|
<ele>9.884744</ele>
|
|
<time>2026-07-11T09:55:40.000Z</time>
|
|
</trkpt>
|
|
<trkpt lat="55.487517" lon="8.412904">
|
|
<ele>9.914665</ele>
|
|
<time>2026-07-11T09:55:41.000Z</time>
|
|
</trkpt>
|
|
<trkpt lat="55.487538" lon="8.412859">
|
|
<ele>9.946653</ele>
|
|
<time>2026-07-11T09:55:42.000Z</time>
|
|
</trkpt>
|
|
<trkpt lat="55.487556" lon="8.412809">
|
|
<ele>9.979157</ele>
|
|
<time>2026-07-11T09:55:43.000Z</time>
|
|
</trkpt>
|
|
<trkpt lat="55.487571" lon="8.412753">
|
|
<ele>10.013145</ele>
|
|
<time>2026-07-11T09:55:44.000Z</time>
|
|
</trkpt>
|
|
<trkpt lat="55.487585" lon="8.412694">
|
|
<ele>10.048242</ele>
|
|
<time>2026-07-11T09:55:45.000Z</time>
|
|
</trkpt>
|
|
<trkpt lat="55.487600" lon="8.412637">
|
|
<ele>10.082727</ele>
|
|
<time>2026-07-11T09:55:46.000Z</time>
|
|
</trkpt>
|
|
<trkpt lat="55.487617" lon="8.412581">
|
|
<ele>10.117586</ele>
|
|
<time>2026-07-11T09:55:47.000Z</time>
|
|
</trkpt>
|
|
<trkpt lat="55.487634" lon="8.412525">
|
|
<ele>10.152445</ele>
|
|
<time>2026-07-11T09:55:48.000Z</time>
|
|
</trkpt>
|
|
<trkpt lat="55.487653" lon="8.412470">
|
|
<ele>10.187790</ele>
|
|
<time>2026-07-11T09:55:49.000Z</time>
|
|
</trkpt>
|
|
<trkpt lat="55.487672" lon="8.412417">
|
|
<ele>10.222203</ele>
|
|
<time>2026-07-11T09:55:50.000Z</time>
|
|
</trkpt>
|
|
<trkpt lat="55.487693" lon="8.412363">
|
|
<ele>10.258140</ele>
|
|
<time>2026-07-11T09:55:51.000Z</time>
|
|
</trkpt>
|
|
<trkpt lat="55.487715" lon="8.412310">
|
|
<ele>10.294190</ele>
|
|
<time>2026-07-11T09:55:52.000Z</time>
|
|
</trkpt>
|
|
<trkpt lat="55.487738" lon="8.412259">
|
|
<ele>10.329956</ele>
|
|
<time>2026-07-11T09:55:53.000Z</time>
|
|
</trkpt>
|
|
<trkpt lat="55.487763" lon="8.412208">
|
|
<ele>10.366958</ele>
|
|
<time>2026-07-11T09:55:54.000Z</time>
|
|
</trkpt>
|
|
<trkpt lat="55.487788" lon="8.412161">
|
|
<ele>10.402331</ele>
|
|
<time>2026-07-11T09:55:55.000Z</time>
|
|
</trkpt>
|
|
<trkpt lat="55.487813" lon="8.412113">
|
|
<ele>10.438105</ele>
|
|
<time>2026-07-11T09:55:56.000Z</time>
|
|
</trkpt>
|
|
<trkpt lat="55.487838" lon="8.412065">
|
|
<ele>10.473879</ele>
|
|
<time>2026-07-11T09:55:57.000Z</time>
|
|
</trkpt>
|
|
<trkpt lat="55.487862" lon="8.412017">
|
|
<ele>10.509005</ele>
|
|
<time>2026-07-11T09:55:58.000Z</time>
|
|
</trkpt>
|
|
<trkpt lat="55.487887" lon="8.411970">
|
|
<ele>10.544377</ele>
|
|
<time>2026-07-11T09:55:59.000Z</time>
|
|
</trkpt>
|
|
<trkpt lat="55.487912" lon="8.411924">
|
|
<ele>10.579351</ele>
|
|
<time>2026-07-11T09:56:00.000Z</time>
|
|
</trkpt>
|
|
<trkpt lat="55.487938" lon="8.411877">
|
|
<ele>10.615393</ele>
|
|
<time>2026-07-11T09:56:01.000Z</time>
|
|
</trkpt>
|
|
<trkpt lat="55.487965" lon="8.411827">
|
|
<ele>10.653292</ele>
|
|
<time>2026-07-11T09:56:02.000Z</time>
|
|
</trkpt>
|
|
<trkpt lat="55.487990" lon="8.411774">
|
|
<ele>10.691131</ele>
|
|
<time>2026-07-11T09:56:03.000Z</time>
|
|
</trkpt>
|
|
<trkpt lat="55.488013" lon="8.411719">
|
|
<ele>10.728639</ele>
|
|
<time>2026-07-11T09:56:04.000Z</time>
|
|
</trkpt>
|
|
<trkpt lat="55.488036" lon="8.411665">
|
|
<ele>10.765706</ele>
|
|
<time>2026-07-11T09:56:05.000Z</time>
|
|
</trkpt>
|
|
<trkpt lat="55.488062" lon="8.411611">
|
|
<ele>10.804589</ele>
|
|
<time>2026-07-11T09:56:06.000Z</time>
|
|
</trkpt>
|
|
<trkpt lat="55.488095" lon="8.411560">
|
|
<ele>10.847067</ele>
|
|
<time>2026-07-11T09:56:07.000Z</time>
|
|
</trkpt>
|
|
<trkpt lat="55.488125" lon="8.411504">
|
|
<ele>10.889353</ele>
|
|
<time>2026-07-11T09:56:08.000Z</time>
|
|
</trkpt>
|
|
<trkpt lat="55.488154" lon="8.411441">
|
|
<ele>10.933891</ele>
|
|
<time>2026-07-11T09:56:09.000Z</time>
|
|
</trkpt>
|
|
<trkpt lat="55.488186" lon="8.411371">
|
|
<ele>10.983242</ele>
|
|
<time>2026-07-11T09:56:10.000Z</time>
|
|
</trkpt>
|
|
<trkpt lat="55.488221" lon="8.411302">
|
|
<ele>11.034057</ele>
|
|
<time>2026-07-11T09:56:11.000Z</time>
|
|
</trkpt>
|
|
<trkpt lat="55.488257" lon="8.411232">
|
|
<ele>11.085928</ele>
|
|
<time>2026-07-11T09:56:12.000Z</time>
|
|
</trkpt>
|
|
<trkpt lat="55.488295" lon="8.411165">
|
|
<ele>11.137944</ele>
|
|
<time>2026-07-11T09:56:13.000Z</time>
|
|
</trkpt>
|
|
<trkpt lat="55.488333" lon="8.411101">
|
|
<ele>11.188810</ele>
|
|
<time>2026-07-11T09:56:14.000Z</time>
|
|
</trkpt>
|
|
<trkpt lat="55.488371" lon="8.411036">
|
|
<ele>11.240056</ele>
|
|
<time>2026-07-11T09:56:15.000Z</time>
|
|
</trkpt>
|
|
<trkpt lat="55.488409" lon="8.410970">
|
|
<ele>11.312294</ele>
|
|
<time>2026-07-11T09:56:16.000Z</time>
|
|
</trkpt>
|
|
<trkpt lat="55.488447" lon="8.410902">
|
|
<ele>11.405061</ele>
|
|
<time>2026-07-11T09:56:17.000Z</time>
|
|
</trkpt>
|
|
<trkpt lat="55.488485" lon="8.410835">
|
|
<ele>11.497139</ele>
|
|
<time>2026-07-11T09:56:18.000Z</time>
|
|
</trkpt>
|
|
<trkpt lat="55.488522" lon="8.410767">
|
|
<ele>11.588710</ele>
|
|
<time>2026-07-11T09:56:19.000Z</time>
|
|
</trkpt>
|
|
<trkpt lat="55.488558" lon="8.410698">
|
|
<ele>11.679814</ele>
|
|
<time>2026-07-11T09:56:20.000Z</time>
|
|
</trkpt>
|
|
<trkpt lat="55.488594" lon="8.410626">
|
|
<ele>11.773082</ele>
|
|
<time>2026-07-11T09:56:21.000Z</time>
|
|
</trkpt>
|
|
<trkpt lat="55.488629" lon="8.410550">
|
|
<ele>11.868207</ele>
|
|
<time>2026-07-11T09:56:22.000Z</time>
|
|
</trkpt>
|
|
<trkpt lat="55.488663" lon="8.410477">
|
|
<ele>11.959991</ele>
|
|
<time>2026-07-11T09:56:23.000Z</time>
|
|
</trkpt>
|
|
<trkpt lat="55.488701" lon="8.410412">
|
|
<ele>12.050706</ele>
|
|
<time>2026-07-11T09:56:24.000Z</time>
|
|
</trkpt>
|
|
<trkpt lat="55.488743" lon="8.410348">
|
|
<ele>12.145826</ele>
|
|
<time>2026-07-11T09:56:25.000Z</time>
|
|
</trkpt>
|
|
<trkpt lat="55.488783" lon="8.410284">
|
|
<ele>12.238379</ele>
|
|
<time>2026-07-11T09:56:26.000Z</time>
|
|
</trkpt>
|
|
<trkpt lat="55.488821" lon="8.410219">
|
|
<ele>12.329094</ele>
|
|
<time>2026-07-11T09:56:27.000Z</time>
|
|
</trkpt>
|
|
<trkpt lat="55.488859" lon="8.410152">
|
|
<ele>12.421171</ele>
|
|
<time>2026-07-11T09:56:28.000Z</time>
|
|
</trkpt>
|
|
<trkpt lat="55.488897" lon="8.410086">
|
|
<ele>12.512564</ele>
|
|
<time>2026-07-11T09:56:29.000Z</time>
|
|
</trkpt>
|
|
<trkpt lat="55.488933" lon="8.410019">
|
|
<ele>12.602249</ele>
|
|
<time>2026-07-11T09:56:30.000Z</time>
|
|
</trkpt>
|
|
<trkpt lat="55.488971" lon="8.409950">
|
|
<ele>12.695709</ele>
|
|
<time>2026-07-11T09:56:31.000Z</time>
|
|
</trkpt>
|
|
<trkpt lat="55.489009" lon="8.409887">
|
|
<ele>12.785083</ele>
|
|
<time>2026-07-11T09:56:32.000Z</time>
|
|
</trkpt>
|
|
<trkpt lat="55.489045" lon="8.409823">
|
|
<ele>12.872675</ele>
|
|
<time>2026-07-11T09:56:33.000Z</time>
|
|
</trkpt>
|
|
<trkpt lat="55.489090" lon="8.409748">
|
|
<ele>12.978776</ele>
|
|
<time>2026-07-11T09:56:34.000Z</time>
|
|
</trkpt>
|
|
<trkpt lat="55.489132" lon="8.409679">
|
|
<ele>13.077138</ele>
|
|
<time>2026-07-11T09:56:35.000Z</time>
|
|
</trkpt>
|
|
<trkpt lat="55.489172" lon="8.409610">
|
|
<ele>13.173019</ele>
|
|
<time>2026-07-11T09:56:36.000Z</time>
|
|
</trkpt>
|
|
<trkpt lat="55.489212" lon="8.409540">
|
|
<ele>13.269581</ele>
|
|
<time>2026-07-11T09:56:37.000Z</time>
|
|
</trkpt>
|
|
<trkpt lat="55.489252" lon="8.409469">
|
|
<ele>13.366830</ele>
|
|
<time>2026-07-11T09:56:38.000Z</time>
|
|
</trkpt>
|
|
<trkpt lat="55.489292" lon="8.409399">
|
|
<ele>13.463392</ele>
|
|
<time>2026-07-11T09:56:39.000Z</time>
|
|
</trkpt>
|
|
<trkpt lat="55.489332" lon="8.409329">
|
|
<ele>13.559955</ele>
|
|
<time>2026-07-11T09:56:40.000Z</time>
|
|
</trkpt>
|
|
<trkpt lat="55.489372" lon="8.409259">
|
|
<ele>13.656517</ele>
|
|
<time>2026-07-11T09:56:41.000Z</time>
|
|
</trkpt>
|
|
<trkpt lat="55.489412" lon="8.409190">
|
|
<ele>13.752398</ele>
|
|
<time>2026-07-11T09:56:42.000Z</time>
|
|
</trkpt>
|
|
<trkpt lat="55.489452" lon="8.409121">
|
|
<ele>13.848278</ele>
|
|
<time>2026-07-11T09:56:43.000Z</time>
|
|
</trkpt>
|
|
<trkpt lat="55.489492" lon="8.409052">
|
|
<ele>13.944159</ele>
|
|
<time>2026-07-11T09:56:44.000Z</time>
|
|
</trkpt>
|
|
<trkpt lat="55.489530" lon="8.408983">
|
|
<ele>14.037619</ele>
|
|
<time>2026-07-11T09:56:45.000Z</time>
|
|
</trkpt>
|
|
<trkpt lat="55.489569" lon="8.408913">
|
|
<ele>14.132971</ele>
|
|
<time>2026-07-11T09:56:46.000Z</time>
|
|
</trkpt>
|
|
<trkpt lat="55.489607" lon="8.408846">
|
|
<ele>14.225047</ele>
|
|
<time>2026-07-11T09:56:47.000Z</time>
|
|
</trkpt>
|
|
<trkpt lat="55.489645" lon="8.408779">
|
|
<ele>14.317124</ele>
|
|
<time>2026-07-11T09:56:48.000Z</time>
|
|
</trkpt>
|
|
<trkpt lat="55.489683" lon="8.408714">
|
|
<ele>14.354044</ele>
|
|
<time>2026-07-11T09:56:49.000Z</time>
|
|
</trkpt>
|
|
<trkpt lat="55.489721" lon="8.408648">
|
|
<ele>14.362843</ele>
|
|
<time>2026-07-11T09:56:50.000Z</time>
|
|
</trkpt>
|
|
<trkpt lat="55.489757" lon="8.408582">
|
|
<ele>14.371410</ele>
|
|
<time>2026-07-11T09:56:51.000Z</time>
|
|
</trkpt>
|
|
<trkpt lat="55.489792" lon="8.408515">
|
|
<ele>14.379933</ele>
|
|
<time>2026-07-11T09:56:52.000Z</time>
|
|
</trkpt>
|
|
<trkpt lat="55.489832" lon="8.408445">
|
|
<ele>14.389230</ele>
|
|
<time>2026-07-11T09:56:53.000Z</time>
|
|
</trkpt>
|
|
<trkpt lat="55.489870" lon="8.408378">
|
|
<ele>14.398095</ele>
|
|
<time>2026-07-11T09:56:54.000Z</time>
|
|
</trkpt>
|
|
<trkpt lat="55.489908" lon="8.408311">
|
|
<ele>14.406960</ele>
|
|
<time>2026-07-11T09:56:55.000Z</time>
|
|
</trkpt>
|
|
<trkpt lat="55.489946" lon="8.408244">
|
|
<ele>14.415826</ele>
|
|
<time>2026-07-11T09:56:56.000Z</time>
|
|
</trkpt>
|
|
<trkpt lat="55.489983" lon="8.408178">
|
|
<ele>14.424508</ele>
|
|
<time>2026-07-11T09:56:57.000Z</time>
|
|
</trkpt>
|
|
<trkpt lat="55.490019" lon="8.408112">
|
|
<ele>14.433076</ele>
|
|
<time>2026-07-11T09:56:58.000Z</time>
|
|
</trkpt>
|
|
<trkpt lat="55.490057" lon="8.408048">
|
|
<ele>14.441745</ele>
|
|
<time>2026-07-11T09:56:59.000Z</time>
|
|
</trkpt>
|
|
<trkpt lat="55.490095" lon="8.407985">
|
|
<ele>14.450350</ele>
|
|
<time>2026-07-11T09:57:00.000Z</time>
|
|
</trkpt>
|
|
<trkpt lat="55.490135" lon="8.407923">
|
|
<ele>14.459137</ele>
|
|
<time>2026-07-11T09:57:01.000Z</time>
|
|
</trkpt>
|
|
<trkpt lat="55.490175" lon="8.407862">
|
|
<ele>14.467862</ele>
|
|
<time>2026-07-11T09:57:02.000Z</time>
|
|
</trkpt>
|
|
<trkpt lat="55.490214" lon="8.407800">
|
|
<ele>14.476525</ele>
|
|
<time>2026-07-11T09:57:03.000Z</time>
|
|
</trkpt>
|
|
<trkpt lat="55.490252" lon="8.407735">
|
|
<ele>14.485259</ele>
|
|
<time>2026-07-11T09:57:04.000Z</time>
|
|
</trkpt>
|
|
<trkpt lat="55.490292" lon="8.407669">
|
|
<ele>14.494297</ele>
|
|
<time>2026-07-11T09:57:05.000Z</time>
|
|
</trkpt>
|
|
<trkpt lat="55.490332" lon="8.407604">
|
|
<ele>14.503271</ele>
|
|
<time>2026-07-11T09:57:06.000Z</time>
|
|
</trkpt>
|
|
<trkpt lat="55.490372" lon="8.407540">
|
|
<ele>14.512182</ele>
|
|
<time>2026-07-11T09:57:07.000Z</time>
|
|
</trkpt>
|
|
<trkpt lat="55.490412" lon="8.407476">
|
|
<ele>14.521093</ele>
|
|
<time>2026-07-11T09:57:08.000Z</time>
|
|
</trkpt>
|
|
<trkpt lat="55.490450" lon="8.407410">
|
|
<ele>14.529892</ele>
|
|
<time>2026-07-11T09:57:09.000Z</time>
|
|
</trkpt>
|
|
<trkpt lat="55.490488" lon="8.407344">
|
|
<ele>14.538692</ele>
|
|
<time>2026-07-11T09:57:10.000Z</time>
|
|
</trkpt>
|
|
<trkpt lat="55.490528" lon="8.407281">
|
|
<ele>14.547540</ele>
|
|
<time>2026-07-11T09:57:11.000Z</time>
|
|
</trkpt>
|
|
<trkpt lat="55.490568" lon="8.407219">
|
|
<ele>14.556327</ele>
|
|
<time>2026-07-11T09:57:12.000Z</time>
|
|
</trkpt>
|
|
<trkpt lat="55.490610" lon="8.407159">
|
|
<ele>14.565245</ele>
|
|
<time>2026-07-11T09:57:13.000Z</time>
|
|
</trkpt>
|
|
<trkpt lat="55.490653" lon="8.407098">
|
|
<ele>14.574351</ele>
|
|
<time>2026-07-11T09:57:14.000Z</time>
|
|
</trkpt>
|
|
<trkpt lat="55.490694" lon="8.407035">
|
|
<ele>14.583323</ele>
|
|
<time>2026-07-11T09:57:15.000Z</time>
|
|
</trkpt>
|
|
<trkpt lat="55.490733" lon="8.406970">
|
|
<ele>14.592176</ele>
|
|
<time>2026-07-11T09:57:16.000Z</time>
|
|
</trkpt>
|
|
<trkpt lat="55.490772" lon="8.406904">
|
|
<ele>14.601094</ele>
|
|
<time>2026-07-11T09:57:17.000Z</time>
|
|
</trkpt>
|
|
<trkpt lat="55.490813" lon="8.406839">
|
|
<ele>14.610190</ele>
|
|
<time>2026-07-11T09:57:18.000Z</time>
|
|
</trkpt>
|
|
<trkpt lat="55.490851" lon="8.406779">
|
|
<ele>14.618606</ele>
|
|
<time>2026-07-11T09:57:19.000Z</time>
|
|
</trkpt>
|
|
<trkpt lat="55.490893" lon="8.406721">
|
|
<ele>14.627407</ele>
|
|
<time>2026-07-11T09:57:20.000Z</time>
|
|
</trkpt>
|
|
<trkpt lat="55.490934" lon="8.406660">
|
|
<ele>14.636258</ele>
|
|
<time>2026-07-11T09:57:21.000Z</time>
|
|
</trkpt>
|
|
<trkpt lat="55.490973" lon="8.406599">
|
|
<ele>14.644859</ele>
|
|
<time>2026-07-11T09:57:22.000Z</time>
|
|
</trkpt>
|
|
<trkpt lat="55.491013" lon="8.406538">
|
|
<ele>14.641563</ele>
|
|
<time>2026-07-11T09:57:23.000Z</time>
|
|
</trkpt>
|
|
<trkpt lat="55.491055" lon="8.406477">
|
|
<ele>14.637686</ele>
|
|
<time>2026-07-11T09:57:24.000Z</time>
|
|
</trkpt>
|
|
<trkpt lat="55.491095" lon="8.406415">
|
|
<ele>14.633891</ele>
|
|
<time>2026-07-11T09:57:25.000Z</time>
|
|
</trkpt>
|
|
<trkpt lat="55.491135" lon="8.406352">
|
|
<ele>14.630069</ele>
|
|
<time>2026-07-11T09:57:26.000Z</time>
|
|
</trkpt>
|
|
<trkpt lat="55.491176" lon="8.406289">
|
|
<ele>14.626194</ele>
|
|
<time>2026-07-11T09:57:27.000Z</time>
|
|
</trkpt>
|
|
<trkpt lat="55.491218" lon="8.406223">
|
|
<ele>14.622186</ele>
|
|
<time>2026-07-11T09:57:28.000Z</time>
|
|
</trkpt>
|
|
<trkpt lat="55.491260" lon="8.406158">
|
|
<ele>14.618204</ele>
|
|
<time>2026-07-11T09:57:29.000Z</time>
|
|
</trkpt>
|
|
<trkpt lat="55.491302" lon="8.406093">
|
|
<ele>14.614222</ele>
|
|
<time>2026-07-11T09:57:30.000Z</time>
|
|
</trkpt>
|
|
<trkpt lat="55.491346" lon="8.406023">
|
|
<ele>14.610000</ele>
|
|
<time>2026-07-11T09:57:31.000Z</time>
|
|
</trkpt>
|
|
<trkpt lat="55.491390" lon="8.405951">
|
|
<ele>14.605723</ele>
|
|
<time>2026-07-11T09:57:32.000Z</time>
|
|
</trkpt>
|
|
<trkpt lat="55.491432" lon="8.405881">
|
|
<ele>14.601605</ele>
|
|
<time>2026-07-11T09:57:33.000Z</time>
|
|
</trkpt>
|
|
<trkpt lat="55.491474" lon="8.405812">
|
|
<ele>14.597515</ele>
|
|
<time>2026-07-11T09:57:34.000Z</time>
|
|
</trkpt>
|
|
<trkpt lat="55.491518" lon="8.405741">
|
|
<ele>14.593265</ele>
|
|
<time>2026-07-11T09:57:35.000Z</time>
|
|
</trkpt>
|
|
<trkpt lat="55.491566" lon="8.405670">
|
|
<ele>14.588801</ele>
|
|
<time>2026-07-11T09:57:36.000Z</time>
|
|
</trkpt>
|
|
<trkpt lat="55.491615" lon="8.405602">
|
|
<ele>14.584358</ele>
|
|
<time>2026-07-11T09:57:37.000Z</time>
|
|
</trkpt>
|
|
<trkpt lat="55.491663" lon="8.405533">
|
|
<ele>14.579945</ele>
|
|
<time>2026-07-11T09:57:38.000Z</time>
|
|
</trkpt>
|
|
<trkpt lat="55.491708" lon="8.405463">
|
|
<ele>14.575669</ele>
|
|
<time>2026-07-11T09:57:39.000Z</time>
|
|
</trkpt>
|
|
<trkpt lat="55.491754" lon="8.405393">
|
|
<ele>14.571339</ele>
|
|
<time>2026-07-11T09:57:40.000Z</time>
|
|
</trkpt>
|
|
<trkpt lat="55.491800" lon="8.405322">
|
|
<ele>14.566983</ele>
|
|
<time>2026-07-11T09:57:41.000Z</time>
|
|
</trkpt>
|
|
<trkpt lat="55.491844" lon="8.405252">
|
|
<ele>14.562761</ele>
|
|
<time>2026-07-11T09:57:42.000Z</time>
|
|
</trkpt>
|
|
<trkpt lat="55.491888" lon="8.405182">
|
|
<ele>14.558538</ele>
|
|
<time>2026-07-11T09:57:43.000Z</time>
|
|
</trkpt>
|
|
<trkpt lat="55.491932" lon="8.405113">
|
|
<ele>14.554343</ele>
|
|
<time>2026-07-11T09:57:44.000Z</time>
|
|
</trkpt>
|
|
<trkpt lat="55.491973" lon="8.405045">
|
|
<ele>14.550332</ele>
|
|
<time>2026-07-11T09:57:45.000Z</time>
|
|
</trkpt>
|
|
<trkpt lat="55.492018" lon="8.404976">
|
|
<ele>14.546083</ele>
|
|
<time>2026-07-11T09:57:46.000Z</time>
|
|
</trkpt>
|
|
<trkpt lat="55.492064" lon="8.404906">
|
|
<ele>14.541754</ele>
|
|
<time>2026-07-11T09:57:47.000Z</time>
|
|
</trkpt>
|
|
<trkpt lat="55.492109" lon="8.404837">
|
|
<ele>14.537505</ele>
|
|
<time>2026-07-11T09:57:48.000Z</time>
|
|
</trkpt>
|
|
<trkpt lat="55.492155" lon="8.404770">
|
|
<ele>14.533253</ele>
|
|
<time>2026-07-11T09:57:49.000Z</time>
|
|
</trkpt>
|
|
<trkpt lat="55.492199" lon="8.404700">
|
|
<ele>14.529031</ele>
|
|
<time>2026-07-11T09:57:50.000Z</time>
|
|
</trkpt>
|
|
<trkpt lat="55.492241" lon="8.404631">
|
|
<ele>14.524941</ele>
|
|
<time>2026-07-11T09:57:51.000Z</time>
|
|
</trkpt>
|
|
<trkpt lat="55.492283" lon="8.404564">
|
|
<ele>14.520905</ele>
|
|
<time>2026-07-11T09:57:52.000Z</time>
|
|
</trkpt>
|
|
<trkpt lat="55.492325" lon="8.404503">
|
|
<ele>14.517028</ele>
|
|
<time>2026-07-11T09:57:53.000Z</time>
|
|
</trkpt>
|
|
<trkpt lat="55.492365" lon="8.404442">
|
|
<ele>14.555625</ele>
|
|
<time>2026-07-11T09:57:54.000Z</time>
|
|
</trkpt>
|
|
<trkpt lat="55.492405" lon="8.404376">
|
|
<ele>14.596274</ele>
|
|
<time>2026-07-11T09:57:55.000Z</time>
|
|
</trkpt>
|
|
<trkpt lat="55.492447" lon="8.404309">
|
|
<ele>14.638301</ele>
|
|
<time>2026-07-11T09:57:56.000Z</time>
|
|
</trkpt>
|
|
<trkpt lat="55.492489" lon="8.404243">
|
|
<ele>14.680047</ele>
|
|
<time>2026-07-11T09:57:57.000Z</time>
|
|
</trkpt>
|
|
<trkpt lat="55.492531" lon="8.404179">
|
|
<ele>14.721238</ele>
|
|
<time>2026-07-11T09:57:58.000Z</time>
|
|
</trkpt>
|
|
<trkpt lat="55.492573" lon="8.404115">
|
|
<ele>14.762430</ele>
|
|
<time>2026-07-11T09:57:59.000Z</time>
|
|
</trkpt>
|
|
<trkpt lat="55.492617" lon="8.404047">
|
|
<ele>14.805846</ele>
|
|
<time>2026-07-11T09:58:00.000Z</time>
|
|
</trkpt>
|
|
<trkpt lat="55.492661" lon="8.403978">
|
|
<ele>14.849540</ele>
|
|
<time>2026-07-11T09:58:01.000Z</time>
|
|
</trkpt>
|
|
<trkpt lat="55.492703" lon="8.403908">
|
|
<ele>14.892423</ele>
|
|
<time>2026-07-11T09:58:02.000Z</time>
|
|
</trkpt>
|
|
<trkpt lat="55.492745" lon="8.403839">
|
|
<ele>14.935018</ele>
|
|
<time>2026-07-11T09:58:03.000Z</time>
|
|
</trkpt>
|
|
<trkpt lat="55.492785" lon="8.403774">
|
|
<ele>14.975381</ele>
|
|
<time>2026-07-11T09:58:04.000Z</time>
|
|
</trkpt>
|
|
<trkpt lat="55.492825" lon="8.403709">
|
|
<ele>15.015744</ele>
|
|
<time>2026-07-11T09:58:05.000Z</time>
|
|
</trkpt>
|
|
<trkpt lat="55.492866" lon="8.403642">
|
|
<ele>15.057223</ele>
|
|
<time>2026-07-11T09:58:06.000Z</time>
|
|
</trkpt>
|
|
<trkpt lat="55.492906" lon="8.403576">
|
|
<ele>15.097871</ele>
|
|
<time>2026-07-11T09:58:07.000Z</time>
|
|
</trkpt>
|
|
<trkpt lat="55.492948" lon="8.403509">
|
|
<ele>15.139898</ele>
|
|
<time>2026-07-11T09:58:08.000Z</time>
|
|
</trkpt>
|
|
<trkpt lat="55.492991" lon="8.403443">
|
|
<ele>15.182201</ele>
|
|
<time>2026-07-11T09:58:09.000Z</time>
|
|
</trkpt>
|
|
<trkpt lat="55.493031" lon="8.403378">
|
|
<ele>15.222564</ele>
|
|
<time>2026-07-11T09:58:10.000Z</time>
|
|
</trkpt>
|
|
<trkpt lat="55.493071" lon="8.403313">
|
|
<ele>15.262927</ele>
|
|
<time>2026-07-11T09:58:11.000Z</time>
|
|
</trkpt>
|
|
<trkpt lat="55.493109" lon="8.403247">
|
|
<ele>15.302504</ele>
|
|
<time>2026-07-11T09:58:12.000Z</time>
|
|
</trkpt>
|
|
<trkpt lat="55.493147" lon="8.403182">
|
|
<ele>15.341787</ele>
|
|
<time>2026-07-11T09:58:13.000Z</time>
|
|
</trkpt>
|
|
<trkpt lat="55.493183" lon="8.403119">
|
|
<ele>15.379421</ele>
|
|
<time>2026-07-11T09:58:14.000Z</time>
|
|
</trkpt>
|
|
<trkpt lat="55.493220" lon="8.403058">
|
|
<ele>15.417007</ele>
|
|
<time>2026-07-11T09:58:15.000Z</time>
|
|
</trkpt>
|
|
<trkpt lat="55.493258" lon="8.402993">
|
|
<ele>15.456290</ele>
|
|
<time>2026-07-11T09:58:16.000Z</time>
|
|
</trkpt>
|
|
<trkpt lat="55.493296" lon="8.402927">
|
|
<ele>15.495867</ele>
|
|
<time>2026-07-11T09:58:17.000Z</time>
|
|
</trkpt>
|
|
<trkpt lat="55.493332" lon="8.402860">
|
|
<ele>15.534704</ele>
|
|
<time>2026-07-11T09:58:18.000Z</time>
|
|
</trkpt>
|
|
<trkpt lat="55.493373" lon="8.402792">
|
|
<ele>15.576469</ele>
|
|
<time>2026-07-11T09:58:19.000Z</time>
|
|
</trkpt>
|
|
<trkpt lat="55.493416" lon="8.402723">
|
|
<ele>15.619611</ele>
|
|
<time>2026-07-11T09:58:20.000Z</time>
|
|
</trkpt>
|
|
<trkpt lat="55.493452" lon="8.402658">
|
|
<ele>15.657841</ele>
|
|
<time>2026-07-11T09:58:21.000Z</time>
|
|
</trkpt>
|
|
<trkpt lat="55.493487" lon="8.402594">
|
|
<ele>15.695253</ele>
|
|
<time>2026-07-11T09:58:22.000Z</time>
|
|
</trkpt>
|
|
<trkpt lat="55.493521" lon="8.402534">
|
|
<ele>15.730945</ele>
|
|
<time>2026-07-11T09:58:23.000Z</time>
|
|
</trkpt>
|
|
<trkpt lat="55.493557" lon="8.402476">
|
|
<ele>15.767129</ele>
|
|
<time>2026-07-11T09:58:24.000Z</time>
|
|
</trkpt>
|
|
<trkpt lat="55.493593" lon="8.402419">
|
|
<ele>15.803031</ele>
|
|
<time>2026-07-11T09:58:25.000Z</time>
|
|
</trkpt>
|
|
<trkpt lat="55.493629" lon="8.402361">
|
|
<ele>15.839215</ele>
|
|
<time>2026-07-11T09:58:26.000Z</time>
|
|
</trkpt>
|
|
<trkpt lat="55.493664" lon="8.402302">
|
|
<ele>15.841442</ele>
|
|
<time>2026-07-11T09:58:27.000Z</time>
|
|
</trkpt>
|
|
<trkpt lat="55.493698" lon="8.402244">
|
|
<ele>15.824820</ele>
|
|
<time>2026-07-11T09:58:28.000Z</time>
|
|
</trkpt>
|
|
<trkpt lat="55.493733" lon="8.402186">
|
|
<ele>15.807943</ele>
|
|
<time>2026-07-11T09:58:29.000Z</time>
|
|
</trkpt>
|
|
<trkpt lat="55.493767" lon="8.402126">
|
|
<ele>15.791041</ele>
|
|
<time>2026-07-11T09:58:30.000Z</time>
|
|
</trkpt>
|
|
<trkpt lat="55.493801" lon="8.402064">
|
|
<ele>15.773856</ele>
|
|
<time>2026-07-11T09:58:31.000Z</time>
|
|
</trkpt>
|
|
<trkpt lat="55.493836" lon="8.402000">
|
|
<ele>15.756140</ele>
|
|
<time>2026-07-11T09:58:32.000Z</time>
|
|
</trkpt>
|
|
<trkpt lat="55.493870" lon="8.401935">
|
|
<ele>15.738520</ele>
|
|
<time>2026-07-11T09:58:33.000Z</time>
|
|
</trkpt>
|
|
<trkpt lat="55.493904" lon="8.401875">
|
|
<ele>15.721619</ele>
|
|
<time>2026-07-11T09:58:34.000Z</time>
|
|
</trkpt>
|
|
<trkpt lat="55.493942" lon="8.401814">
|
|
<ele>15.703562</ele>
|
|
<time>2026-07-11T09:58:35.000Z</time>
|
|
</trkpt>
|
|
<trkpt lat="55.493982" lon="8.401751">
|
|
<ele>15.684716</ele>
|
|
<time>2026-07-11T09:58:36.000Z</time>
|
|
</trkpt>
|
|
<trkpt lat="55.494021" lon="8.401684">
|
|
<ele>15.665584</ele>
|
|
<time>2026-07-11T09:58:37.000Z</time>
|
|
</trkpt>
|
|
<trkpt lat="55.494057" lon="8.401616">
|
|
<ele>15.647048</ele>
|
|
<time>2026-07-11T09:58:38.000Z</time>
|
|
</trkpt>
|
|
<trkpt lat="55.494091" lon="8.401551">
|
|
<ele>15.629429</ele>
|
|
<time>2026-07-11T09:58:39.000Z</time>
|
|
</trkpt>
|
|
<trkpt lat="55.494128" lon="8.401488">
|
|
<ele>15.611356</ele>
|
|
<time>2026-07-11T09:58:40.000Z</time>
|
|
</trkpt>
|
|
<trkpt lat="55.494164" lon="8.401427">
|
|
<ele>15.593813</ele>
|
|
<time>2026-07-11T09:58:41.000Z</time>
|
|
</trkpt>
|
|
<trkpt lat="55.494198" lon="8.401367">
|
|
<ele>15.576912</ele>
|
|
<time>2026-07-11T09:58:42.000Z</time>
|
|
</trkpt>
|
|
<trkpt lat="55.494234" lon="8.401305">
|
|
<ele>15.559230</ele>
|
|
<time>2026-07-11T09:58:43.000Z</time>
|
|
</trkpt>
|
|
<trkpt lat="55.494271" lon="8.401240">
|
|
<ele>15.540879</ele>
|
|
<time>2026-07-11T09:58:44.000Z</time>
|
|
</trkpt>
|
|
<trkpt lat="55.494303" lon="8.401178">
|
|
<ele>15.524175</ele>
|
|
<time>2026-07-11T09:58:45.000Z</time>
|
|
</trkpt>
|
|
<trkpt lat="55.494339" lon="8.401120">
|
|
<ele>15.507040</ele>
|
|
<time>2026-07-11T09:58:46.000Z</time>
|
|
</trkpt>
|
|
<trkpt lat="55.494379" lon="8.401061">
|
|
<ele>15.488715</ele>
|
|
<time>2026-07-11T09:58:47.000Z</time>
|
|
</trkpt>
|
|
<trkpt lat="55.494416" lon="8.401000">
|
|
<ele>15.470917</ele>
|
|
<time>2026-07-11T09:58:48.000Z</time>
|
|
</trkpt>
|
|
<trkpt lat="55.494450" lon="8.400938">
|
|
<ele>15.453732</ele>
|
|
<time>2026-07-11T09:58:49.000Z</time>
|
|
</trkpt>
|
|
<trkpt lat="55.494486" lon="8.400874">
|
|
<ele>15.435770</ele>
|
|
<time>2026-07-11T09:58:50.000Z</time>
|
|
</trkpt>
|
|
<trkpt lat="55.494524" lon="8.400810">
|
|
<ele>15.417306</ele>
|
|
<time>2026-07-11T09:58:51.000Z</time>
|
|
</trkpt>
|
|
<trkpt lat="55.494561" lon="8.400746">
|
|
<ele>15.399095</ele>
|
|
<time>2026-07-11T09:58:52.000Z</time>
|
|
</trkpt>
|
|
<trkpt lat="55.494597" lon="8.400683">
|
|
<ele>15.381273</ele>
|
|
<time>2026-07-11T09:58:53.000Z</time>
|
|
</trkpt>
|
|
<trkpt lat="55.494633" lon="8.400620">
|
|
<ele>15.363452</ele>
|
|
<time>2026-07-11T09:58:54.000Z</time>
|
|
</trkpt>
|
|
<trkpt lat="55.494669" lon="8.400556">
|
|
<ele>15.345490</ele>
|
|
<time>2026-07-11T09:58:55.000Z</time>
|
|
</trkpt>
|
|
<trkpt lat="55.494706" lon="8.400491">
|
|
<ele>15.327139</ele>
|
|
<time>2026-07-11T09:58:56.000Z</time>
|
|
</trkpt>
|
|
<trkpt lat="55.494740" lon="8.400428">
|
|
<ele>15.309810</ele>
|
|
<time>2026-07-11T09:58:57.000Z</time>
|
|
</trkpt>
|
|
<trkpt lat="55.494776" lon="8.400364">
|
|
<ele>15.291849</ele>
|
|
<time>2026-07-11T09:58:58.000Z</time>
|
|
</trkpt>
|
|
<trkpt lat="55.494814" lon="8.400299">
|
|
<ele>15.273247</ele>
|
|
<time>2026-07-11T09:58:59.000Z</time>
|
|
</trkpt>
|
|
<trkpt lat="55.494852" lon="8.400233">
|
|
<ele>15.254505</ele>
|
|
<time>2026-07-11T09:59:00.000Z</time>
|
|
</trkpt>
|
|
<trkpt lat="55.494890" lon="8.400167">
|
|
<ele>15.235764</ele>
|
|
<time>2026-07-11T09:59:01.000Z</time>
|
|
</trkpt>
|
|
<trkpt lat="55.494928" lon="8.400100">
|
|
<ele>15.216619</ele>
|
|
<time>2026-07-11T09:59:02.000Z</time>
|
|
</trkpt>
|
|
<trkpt lat="55.494967" lon="8.400033">
|
|
<ele>15.195840</ele>
|
|
<time>2026-07-11T09:59:03.000Z</time>
|
|
</trkpt>
|
|
<trkpt lat="55.495005" lon="8.399965">
|
|
<ele>15.175179</ele>
|
|
<time>2026-07-11T09:59:04.000Z</time>
|
|
</trkpt>
|
|
<trkpt lat="55.495043" lon="8.399900">
|
|
<ele>15.154975</ele>
|
|
<time>2026-07-11T09:59:05.000Z</time>
|
|
</trkpt>
|
|
<trkpt lat="55.495081" lon="8.399839">
|
|
<ele>15.135363</ele>
|
|
<time>2026-07-11T09:59:06.000Z</time>
|
|
</trkpt>
|
|
<trkpt lat="55.495121" lon="8.399783">
|
|
<ele>15.115869</ele>
|
|
<time>2026-07-11T09:59:07.000Z</time>
|
|
</trkpt>
|
|
<trkpt lat="55.495163" lon="8.399728">
|
|
<ele>15.095901</ele>
|
|
<time>2026-07-11T09:59:08.000Z</time>
|
|
</trkpt>
|
|
<trkpt lat="55.495202" lon="8.399668">
|
|
<ele>15.076148</ele>
|
|
<time>2026-07-11T09:59:09.000Z</time>
|
|
</trkpt>
|
|
<trkpt lat="55.495236" lon="8.399601">
|
|
<ele>15.056691</ele>
|
|
<time>2026-07-11T09:59:10.000Z</time>
|
|
</trkpt>
|
|
<trkpt lat="55.495268" lon="8.399530">
|
|
<ele>15.037066</ele>
|
|
<time>2026-07-11T09:59:11.000Z</time>
|
|
</trkpt>
|
|
<trkpt lat="55.495300" lon="8.399460">
|
|
<ele>15.017610</ele>
|
|
<time>2026-07-11T09:59:12.000Z</time>
|
|
</trkpt>
|
|
<trkpt lat="55.495337" lon="8.399393">
|
|
<ele>14.997370</ele>
|
|
<time>2026-07-11T09:59:13.000Z</time>
|
|
</trkpt>
|
|
<trkpt lat="55.495373" lon="8.399327">
|
|
<ele>14.977552</ele>
|
|
<time>2026-07-11T09:59:14.000Z</time>
|
|
</trkpt>
|
|
<trkpt lat="55.495409" lon="8.399263">
|
|
<ele>14.958044</ele>
|
|
<time>2026-07-11T09:59:15.000Z</time>
|
|
</trkpt>
|
|
<trkpt lat="55.495447" lon="8.399200">
|
|
<ele>14.938138</ele>
|
|
<time>2026-07-11T09:59:16.000Z</time>
|
|
</trkpt>
|
|
<trkpt lat="55.495486" lon="8.399136">
|
|
<ele>14.917806</ele>
|
|
<time>2026-07-11T09:59:17.000Z</time>
|
|
</trkpt>
|
|
<trkpt lat="55.495524" lon="8.399073">
|
|
<ele>14.897901</ele>
|
|
<time>2026-07-11T09:59:18.000Z</time>
|
|
</trkpt>
|
|
<trkpt lat="55.495560" lon="8.399011">
|
|
<ele>14.878697</ele>
|
|
<time>2026-07-11T09:59:19.000Z</time>
|
|
</trkpt>
|
|
<trkpt lat="55.495596" lon="8.398948">
|
|
<ele>14.859341</ele>
|
|
<time>2026-07-11T09:59:20.000Z</time>
|
|
</trkpt>
|
|
<trkpt lat="55.495634" lon="8.398885">
|
|
<ele>14.839435</ele>
|
|
<time>2026-07-11T09:59:21.000Z</time>
|
|
</trkpt>
|
|
<trkpt lat="55.495672" lon="8.398823">
|
|
<ele>14.819678</ele>
|
|
<time>2026-07-11T09:59:22.000Z</time>
|
|
</trkpt>
|
|
<trkpt lat="55.495712" lon="8.398760">
|
|
<ele>14.799209</ele>
|
|
<time>2026-07-11T09:59:23.000Z</time>
|
|
</trkpt>
|
|
<trkpt lat="55.495753" lon="8.398700">
|
|
<ele>14.778874</ele>
|
|
<time>2026-07-11T09:59:24.000Z</time>
|
|
</trkpt>
|
|
<trkpt lat="55.495792" lon="8.398639">
|
|
<ele>14.758978</ele>
|
|
<time>2026-07-11T09:59:25.000Z</time>
|
|
</trkpt>
|
|
<trkpt lat="55.495834" lon="8.398569">
|
|
<ele>14.736923</ele>
|
|
<time>2026-07-11T09:59:26.000Z</time>
|
|
</trkpt>
|
|
<trkpt lat="55.495876" lon="8.398504">
|
|
<ele>14.715595</ele>
|
|
<time>2026-07-11T09:59:27.000Z</time>
|
|
</trkpt>
|
|
<trkpt lat="55.495918" lon="8.398441">
|
|
<ele>14.694551</ele>
|
|
<time>2026-07-11T09:59:28.000Z</time>
|
|
</trkpt>
|
|
<trkpt lat="55.495959" lon="8.398381">
|
|
<ele>14.674216</ele>
|
|
<time>2026-07-11T09:59:29.000Z</time>
|
|
</trkpt>
|
|
<trkpt lat="55.496001" lon="8.398320">
|
|
<ele>14.653448</ele>
|
|
<time>2026-07-11T09:59:30.000Z</time>
|
|
</trkpt>
|
|
<trkpt lat="55.496046" lon="8.398256">
|
|
<ele>14.631383</ele>
|
|
<time>2026-07-11T09:59:31.000Z</time>
|
|
</trkpt>
|
|
<trkpt lat="55.496090" lon="8.398194">
|
|
<ele>14.609887</ele>
|
|
<time>2026-07-11T09:59:32.000Z</time>
|
|
</trkpt>
|
|
<trkpt lat="55.496132" lon="8.398134">
|
|
<ele>14.589256</ele>
|
|
<time>2026-07-11T09:59:33.000Z</time>
|
|
</trkpt>
|
|
<trkpt lat="55.496176" lon="8.398074">
|
|
<ele>14.568027</ele>
|
|
<time>2026-07-11T09:59:34.000Z</time>
|
|
</trkpt>
|
|
<trkpt lat="55.496220" lon="8.398014">
|
|
<ele>14.546797</ele>
|
|
<time>2026-07-11T09:59:35.000Z</time>
|
|
</trkpt>
|
|
<trkpt lat="55.496263" lon="8.397955">
|
|
<ele>14.532190</ele>
|
|
<time>2026-07-11T09:59:36.000Z</time>
|
|
</trkpt>
|
|
<trkpt lat="55.496309" lon="8.397896">
|
|
<ele>14.529254</ele>
|
|
<time>2026-07-11T09:59:37.000Z</time>
|
|
</trkpt>
|
|
<trkpt lat="55.496353" lon="8.397837">
|
|
<ele>14.526400</ele>
|
|
<time>2026-07-11T09:59:38.000Z</time>
|
|
</trkpt>
|
|
<trkpt lat="55.496397" lon="8.397779">
|
|
<ele>14.523563</ele>
|
|
<time>2026-07-11T09:59:39.000Z</time>
|
|
</trkpt>
|
|
<trkpt lat="55.496441" lon="8.397721">
|
|
<ele>14.520727</ele>
|
|
<time>2026-07-11T09:59:40.000Z</time>
|
|
</trkpt>
|
|
<trkpt lat="55.496484" lon="8.397661">
|
|
<ele>14.517896</ele>
|
|
<time>2026-07-11T09:59:41.000Z</time>
|
|
</trkpt>
|
|
<trkpt lat="55.496529" lon="8.397601">
|
|
<ele>14.514983</ele>
|
|
<time>2026-07-11T09:59:42.000Z</time>
|
|
</trkpt>
|
|
<trkpt lat="55.496572" lon="8.397543">
|
|
<ele>14.512188</ele>
|
|
<time>2026-07-11T09:59:43.000Z</time>
|
|
</trkpt>
|
|
<trkpt lat="55.496618" lon="8.397485">
|
|
<ele>14.509269</ele>
|
|
<time>2026-07-11T09:59:44.000Z</time>
|
|
</trkpt>
|
|
<trkpt lat="55.496663" lon="8.397427">
|
|
<ele>14.506391</ele>
|
|
<time>2026-07-11T09:59:45.000Z</time>
|
|
</trkpt>
|
|
<trkpt lat="55.496709" lon="8.397367">
|
|
<ele>14.503437</ele>
|
|
<time>2026-07-11T09:59:46.000Z</time>
|
|
</trkpt>
|
|
<trkpt lat="55.496753" lon="8.397309">
|
|
<ele>14.500600</ele>
|
|
<time>2026-07-11T09:59:47.000Z</time>
|
|
</trkpt>
|
|
<trkpt lat="55.496797" lon="8.397250">
|
|
<ele>14.497746</ele>
|
|
<time>2026-07-11T09:59:48.000Z</time>
|
|
</trkpt>
|
|
<trkpt lat="55.496843" lon="8.397190">
|
|
<ele>14.494792</ele>
|
|
<time>2026-07-11T09:59:49.000Z</time>
|
|
</trkpt>
|
|
<trkpt lat="55.496887" lon="8.397129">
|
|
<ele>14.491903</ele>
|
|
<time>2026-07-11T09:59:50.000Z</time>
|
|
</trkpt>
|
|
<trkpt lat="55.496931" lon="8.397066">
|
|
<ele>14.488976</ele>
|
|
<time>2026-07-11T09:59:51.000Z</time>
|
|
</trkpt>
|
|
<trkpt lat="55.496976" lon="8.397005">
|
|
<ele>14.486046</ele>
|
|
<time>2026-07-11T09:59:52.000Z</time>
|
|
</trkpt>
|
|
<trkpt lat="55.497023" lon="8.396945">
|
|
<ele>14.483050</ele>
|
|
<time>2026-07-11T09:59:53.000Z</time>
|
|
</trkpt>
|
|
<trkpt lat="55.497068" lon="8.396887">
|
|
<ele>14.480172</ele>
|
|
<time>2026-07-11T09:59:54.000Z</time>
|
|
</trkpt>
|
|
<trkpt lat="55.497114" lon="8.396830">
|
|
<ele>14.477270</ele>
|
|
<time>2026-07-11T09:59:55.000Z</time>
|
|
</trkpt>
|
|
<trkpt lat="55.497160" lon="8.396771">
|
|
<ele>14.474333</ele>
|
|
<time>2026-07-11T09:59:56.000Z</time>
|
|
</trkpt>
|
|
<trkpt lat="55.497203" lon="8.396710">
|
|
<ele>14.471484</ele>
|
|
<time>2026-07-11T09:59:57.000Z</time>
|
|
</trkpt>
|
|
<trkpt lat="55.497247" lon="8.396649">
|
|
<ele>14.468594</ele>
|
|
<time>2026-07-11T09:59:58.000Z</time>
|
|
</trkpt>
|
|
<trkpt lat="55.497294" lon="8.396592">
|
|
<ele>14.465649</ele>
|
|
<time>2026-07-11T09:59:59.000Z</time>
|
|
</trkpt>
|
|
<trkpt lat="55.497338" lon="8.396536">
|
|
<ele>14.462847</ele>
|
|
<time>2026-07-11T10:00:00.000Z</time>
|
|
</trkpt>
|
|
<trkpt lat="55.497379" lon="8.396479">
|
|
<ele>14.460152</ele>
|
|
<time>2026-07-11T10:00:01.000Z</time>
|
|
</trkpt>
|
|
<trkpt lat="55.497421" lon="8.396422">
|
|
<ele>14.457415</ele>
|
|
<time>2026-07-11T10:00:02.000Z</time>
|
|
</trkpt>
|
|
<trkpt lat="55.497465" lon="8.396367">
|
|
<ele>14.454631</ele>
|
|
<time>2026-07-11T10:00:03.000Z</time>
|
|
</trkpt>
|
|
<trkpt lat="55.497509" lon="8.396313">
|
|
<ele>14.451863</ele>
|
|
<time>2026-07-11T10:00:04.000Z</time>
|
|
</trkpt>
|
|
<trkpt lat="55.497551" lon="8.396258">
|
|
<ele>14.449162</ele>
|
|
<time>2026-07-11T10:00:05.000Z</time>
|
|
</trkpt>
|
|
<trkpt lat="55.497593" lon="8.396204">
|
|
<ele>14.446478</ele>
|
|
<time>2026-07-11T10:00:06.000Z</time>
|
|
</trkpt>
|
|
<trkpt lat="55.497635" lon="8.396149">
|
|
<ele>14.443777</ele>
|
|
<time>2026-07-11T10:00:07.000Z</time>
|
|
</trkpt>
|
|
<trkpt lat="55.497677" lon="8.396094">
|
|
<ele>14.441076</ele>
|
|
<time>2026-07-11T10:00:08.000Z</time>
|
|
</trkpt>
|
|
<trkpt lat="55.497718" lon="8.396041">
|
|
<ele>14.450259</ele>
|
|
<time>2026-07-11T10:00:09.000Z</time>
|
|
</trkpt>
|
|
<trkpt lat="55.497759" lon="8.395987">
|
|
<ele>14.464896</ele>
|
|
<time>2026-07-11T10:00:10.000Z</time>
|
|
</trkpt>
|
|
<trkpt lat="55.497797" lon="8.395931">
|
|
<ele>14.479060</ele>
|
|
<time>2026-07-11T10:00:11.000Z</time>
|
|
</trkpt>
|
|
<trkpt lat="55.497837" lon="8.395873">
|
|
<ele>14.493872</ele>
|
|
<time>2026-07-11T10:00:12.000Z</time>
|
|
</trkpt>
|
|
<trkpt lat="55.497877" lon="8.395815">
|
|
<ele>14.508683</ele>
|
|
<time>2026-07-11T10:00:13.000Z</time>
|
|
</trkpt>
|
|
<trkpt lat="55.497916" lon="8.395757">
|
|
<ele>14.523275</ele>
|
|
<time>2026-07-11T10:00:14.000Z</time>
|
|
</trkpt>
|
|
<trkpt lat="55.497955" lon="8.395700">
|
|
<ele>14.537763</ele>
|
|
<time>2026-07-11T10:00:15.000Z</time>
|
|
</trkpt>
|
|
<trkpt lat="55.497997" lon="8.395641">
|
|
<ele>14.553121</ele>
|
|
<time>2026-07-11T10:00:16.000Z</time>
|
|
</trkpt>
|
|
<trkpt lat="55.498038" lon="8.395582">
|
|
<ele>14.568257</ele>
|
|
<time>2026-07-11T10:00:17.000Z</time>
|
|
</trkpt>
|
|
<trkpt lat="55.498079" lon="8.395522">
|
|
<ele>14.583496</ele>
|
|
<time>2026-07-11T10:00:18.000Z</time>
|
|
</trkpt>
|
|
<trkpt lat="55.498124" lon="8.395456">
|
|
<ele>14.600236</ele>
|
|
<time>2026-07-11T10:00:19.000Z</time>
|
|
</trkpt>
|
|
<trkpt lat="55.498167" lon="8.395393">
|
|
<ele>14.616226</ele>
|
|
<time>2026-07-11T10:00:20.000Z</time>
|
|
</trkpt>
|
|
<trkpt lat="55.498207" lon="8.395330">
|
|
<ele>14.631564</ele>
|
|
<time>2026-07-11T10:00:21.000Z</time>
|
|
</trkpt>
|
|
<trkpt lat="55.498247" lon="8.395269">
|
|
<ele>14.646689</ele>
|
|
<time>2026-07-11T10:00:22.000Z</time>
|
|
</trkpt>
|
|
<trkpt lat="55.498285" lon="8.395209">
|
|
<ele>14.661277</ele>
|
|
<time>2026-07-11T10:00:23.000Z</time>
|
|
</trkpt>
|
|
<trkpt lat="55.498324" lon="8.395147">
|
|
<ele>14.676294</ele>
|
|
<time>2026-07-11T10:00:24.000Z</time>
|
|
</trkpt>
|
|
<trkpt lat="55.498362" lon="8.395086">
|
|
<ele>14.690991</ele>
|
|
<time>2026-07-11T10:00:25.000Z</time>
|
|
</trkpt>
|
|
<trkpt lat="55.498398" lon="8.395025">
|
|
<ele>14.705269</ele>
|
|
<time>2026-07-11T10:00:26.000Z</time>
|
|
</trkpt>
|
|
<trkpt lat="55.498434" lon="8.394963">
|
|
<ele>14.719660</ele>
|
|
<time>2026-07-11T10:00:27.000Z</time>
|
|
</trkpt>
|
|
<trkpt lat="55.498473" lon="8.394899">
|
|
<ele>14.734896</ele>
|
|
<time>2026-07-11T10:00:28.000Z</time>
|
|
</trkpt>
|
|
<trkpt lat="55.498511" lon="8.394836">
|
|
<ele>14.749813</ele>
|
|
<time>2026-07-11T10:00:29.000Z</time>
|
|
</trkpt>
|
|
<trkpt lat="55.498549" lon="8.394773">
|
|
<ele>14.764729</ele>
|
|
<time>2026-07-11T10:00:30.000Z</time>
|
|
</trkpt>
|
|
<trkpt lat="55.498587" lon="8.394710">
|
|
<ele>14.779646</ele>
|
|
<time>2026-07-11T10:00:31.000Z</time>
|
|
</trkpt>
|
|
<trkpt lat="55.498623" lon="8.394645">
|
|
<ele>14.794380</ele>
|
|
<time>2026-07-11T10:00:32.000Z</time>
|
|
</trkpt>
|
|
<trkpt lat="55.498659" lon="8.394579">
|
|
<ele>14.809231</ele>
|
|
<time>2026-07-11T10:00:33.000Z</time>
|
|
</trkpt>
|
|
<trkpt lat="55.498697" lon="8.394513">
|
|
<ele>14.824485</ele>
|
|
<time>2026-07-11T10:00:34.000Z</time>
|
|
</trkpt>
|
|
<trkpt lat="55.498735" lon="8.394444">
|
|
<ele>14.840083</ele>
|
|
<time>2026-07-11T10:00:35.000Z</time>
|
|
</trkpt>
|
|
<trkpt lat="55.498774" lon="8.394376">
|
|
<ele>14.855768</ele>
|
|
<time>2026-07-11T10:00:36.000Z</time>
|
|
</trkpt>
|
|
<trkpt lat="55.498810" lon="8.394307">
|
|
<ele>14.870973</ele>
|
|
<time>2026-07-11T10:00:37.000Z</time>
|
|
</trkpt>
|
|
<trkpt lat="55.498845" lon="8.394238">
|
|
<ele>14.885985</ele>
|
|
<time>2026-07-11T10:00:38.000Z</time>
|
|
</trkpt>
|
|
<trkpt lat="55.498881" lon="8.394171">
|
|
<ele>14.900953</ele>
|
|
<time>2026-07-11T10:00:39.000Z</time>
|
|
</trkpt>
|
|
<trkpt lat="55.498921" lon="8.394105">
|
|
<ele>14.916620</ele>
|
|
<time>2026-07-11T10:00:40.000Z</time>
|
|
</trkpt>
|
|
<trkpt lat="55.498961" lon="8.394040">
|
|
<ele>14.932176</ele>
|
|
<time>2026-07-11T10:00:41.000Z</time>
|
|
</trkpt>
|
|
<trkpt lat="55.498997" lon="8.393977">
|
|
<ele>14.946680</ele>
|
|
<time>2026-07-11T10:00:42.000Z</time>
|
|
</trkpt>
|
|
<trkpt lat="55.499032" lon="8.393915">
|
|
<ele>14.963066</ele>
|
|
<time>2026-07-11T10:00:43.000Z</time>
|
|
</trkpt>
|
|
<trkpt lat="55.499067" lon="8.393852">
|
|
<ele>14.982667</ele>
|
|
<time>2026-07-11T10:00:44.000Z</time>
|
|
</trkpt>
|
|
<trkpt lat="55.499104" lon="8.393789">
|
|
<ele>15.002824</ele>
|
|
<time>2026-07-11T10:00:45.000Z</time>
|
|
</trkpt>
|
|
<trkpt lat="55.499138" lon="8.393725">
|
|
<ele>15.022313</ele>
|
|
<time>2026-07-11T10:00:46.000Z</time>
|
|
</trkpt>
|
|
<trkpt lat="55.499172" lon="8.393661">
|
|
<ele>15.041802</ele>
|
|
<time>2026-07-11T10:00:47.000Z</time>
|
|
</trkpt>
|
|
<trkpt lat="55.499207" lon="8.393596">
|
|
<ele>15.061722</ele>
|
|
<time>2026-07-11T10:00:48.000Z</time>
|
|
</trkpt>
|
|
<trkpt lat="55.499239" lon="8.393536">
|
|
<ele>15.080026</ele>
|
|
<time>2026-07-11T10:00:49.000Z</time>
|
|
</trkpt>
|
|
<trkpt lat="55.499269" lon="8.393476">
|
|
<ele>15.097803</ele>
|
|
<time>2026-07-11T10:00:50.000Z</time>
|
|
</trkpt>
|
|
<trkpt lat="55.499299" lon="8.393414">
|
|
<ele>15.115914</ele>
|
|
<time>2026-07-11T10:00:51.000Z</time>
|
|
</trkpt>
|
|
<trkpt lat="55.499329" lon="8.393355">
|
|
<ele>15.133524</ele>
|
|
<time>2026-07-11T10:00:52.000Z</time>
|
|
</trkpt>
|
|
<trkpt lat="55.499363" lon="8.393295">
|
|
<ele>15.152375</ele>
|
|
<time>2026-07-11T10:00:53.000Z</time>
|
|
</trkpt>
|
|
<trkpt lat="55.499399" lon="8.393235">
|
|
<ele>15.171789</ele>
|
|
<time>2026-07-11T10:00:54.000Z</time>
|
|
</trkpt>
|
|
<trkpt lat="55.499437" lon="8.393174">
|
|
<ele>15.191928</ele>
|
|
<time>2026-07-11T10:00:55.000Z</time>
|
|
</trkpt>
|
|
<trkpt lat="55.499474" lon="8.393111">
|
|
<ele>15.212085</ele>
|
|
<time>2026-07-11T10:00:56.000Z</time>
|
|
</trkpt>
|
|
<trkpt lat="55.499507" lon="8.393048">
|
|
<ele>15.231145</ele>
|
|
<time>2026-07-11T10:00:57.000Z</time>
|
|
</trkpt>
|
|
<trkpt lat="55.499539" lon="8.392987">
|
|
<ele>15.249611</ele>
|
|
<time>2026-07-11T10:00:58.000Z</time>
|
|
</trkpt>
|
|
<trkpt lat="55.499573" lon="8.392924">
|
|
<ele>15.268939</ele>
|
|
<time>2026-07-11T10:00:59.000Z</time>
|
|
</trkpt>
|
|
<trkpt lat="55.499609" lon="8.392864">
|
|
<ele>15.288352</ele>
|
|
<time>2026-07-11T10:01:00.000Z</time>
|
|
</trkpt>
|
|
<trkpt lat="55.499645" lon="8.392804">
|
|
<ele>15.307766</ele>
|
|
<time>2026-07-11T10:01:01.000Z</time>
|
|
</trkpt>
|
|
<trkpt lat="55.499680" lon="8.392743">
|
|
<ele>15.327051</ele>
|
|
<time>2026-07-11T10:01:02.000Z</time>
|
|
</trkpt>
|
|
<trkpt lat="55.499714" lon="8.392683">
|
|
<ele>15.345902</ele>
|
|
<time>2026-07-11T10:01:03.000Z</time>
|
|
</trkpt>
|
|
<trkpt lat="55.499747" lon="8.392621">
|
|
<ele>15.364799</ele>
|
|
<time>2026-07-11T10:01:04.000Z</time>
|
|
</trkpt>
|
|
<trkpt lat="55.499779" lon="8.392558">
|
|
<ele>15.383594</ele>
|
|
<time>2026-07-11T10:01:05.000Z</time>
|
|
</trkpt>
|
|
<trkpt lat="55.499811" lon="8.392496">
|
|
<ele>15.402224</ele>
|
|
<time>2026-07-11T10:01:06.000Z</time>
|
|
</trkpt>
|
|
<trkpt lat="55.499845" lon="8.392435">
|
|
<ele>15.421233</ele>
|
|
<time>2026-07-11T10:01:07.000Z</time>
|
|
</trkpt>
|
|
<trkpt lat="55.499882" lon="8.392374">
|
|
<ele>15.441084</ele>
|
|
<time>2026-07-11T10:01:08.000Z</time>
|
|
</trkpt>
|
|
<trkpt lat="55.499916" lon="8.392315">
|
|
<ele>15.459778</ele>
|
|
<time>2026-07-11T10:01:09.000Z</time>
|
|
</trkpt>
|
|
<trkpt lat="55.499949" lon="8.392255">
|
|
<ele>15.478354</ele>
|
|
<time>2026-07-11T10:01:10.000Z</time>
|
|
</trkpt>
|
|
<trkpt lat="55.499981" lon="8.392197">
|
|
<ele>15.496337</ele>
|
|
<time>2026-07-11T10:01:11.000Z</time>
|
|
</trkpt>
|
|
<trkpt lat="55.500014" lon="8.392139">
|
|
<ele>15.514597</ele>
|
|
<time>2026-07-11T10:01:12.000Z</time>
|
|
</trkpt>
|
|
<trkpt lat="55.500046" lon="8.392080">
|
|
<ele>15.532740</ele>
|
|
<time>2026-07-11T10:01:13.000Z</time>
|
|
</trkpt>
|
|
<trkpt lat="55.500080" lon="8.392022">
|
|
<ele>15.551279</ele>
|
|
<time>2026-07-11T10:01:14.000Z</time>
|
|
</trkpt>
|
|
<trkpt lat="55.500114" lon="8.391966">
|
|
<ele>15.569513</ele>
|
|
<time>2026-07-11T10:01:15.000Z</time>
|
|
</trkpt>
|
|
<trkpt lat="55.500145" lon="8.391913">
|
|
<ele>15.586434</ele>
|
|
<time>2026-07-11T10:01:16.000Z</time>
|
|
</trkpt>
|
|
<trkpt lat="55.500175" lon="8.391857">
|
|
<ele>15.603554</ele>
|
|
<time>2026-07-11T10:01:17.000Z</time>
|
|
</trkpt>
|
|
<trkpt lat="55.500206" lon="8.391801">
|
|
<ele>15.620946</ele>
|
|
<time>2026-07-11T10:01:18.000Z</time>
|
|
</trkpt>
|
|
<trkpt lat="55.500233" lon="8.391745">
|
|
<ele>15.637280</ele>
|
|
<time>2026-07-11T10:01:19.000Z</time>
|
|
</trkpt>
|
|
<trkpt lat="55.500266" lon="8.391684">
|
|
<ele>15.656015</ele>
|
|
<time>2026-07-11T10:01:20.000Z</time>
|
|
</trkpt>
|
|
<trkpt lat="55.500299" lon="8.391625">
|
|
<ele>15.674498</ele>
|
|
<time>2026-07-11T10:01:21.000Z</time>
|
|
</trkpt>
|
|
<trkpt lat="55.500332" lon="8.391566">
|
|
<ele>15.693001</ele>
|
|
<time>2026-07-11T10:01:22.000Z</time>
|
|
</trkpt>
|
|
<trkpt lat="55.500365" lon="8.391507">
|
|
<ele>15.711504</ele>
|
|
<time>2026-07-11T10:01:23.000Z</time>
|
|
</trkpt>
|
|
<trkpt lat="55.500397" lon="8.391447">
|
|
<ele>15.729895</ele>
|
|
<time>2026-07-11T10:01:24.000Z</time>
|
|
</trkpt>
|
|
<trkpt lat="55.500431" lon="8.391387">
|
|
<ele>15.748834</ele>
|
|
<time>2026-07-11T10:01:25.000Z</time>
|
|
</trkpt>
|
|
<trkpt lat="55.500465" lon="8.391326">
|
|
<ele>15.767931</ele>
|
|
<time>2026-07-11T10:01:26.000Z</time>
|
|
</trkpt>
|
|
<trkpt lat="55.500500" lon="8.391265">
|
|
<ele>15.787307</ele>
|
|
<time>2026-07-11T10:01:27.000Z</time>
|
|
</trkpt>
|
|
<trkpt lat="55.500534" lon="8.391204">
|
|
<ele>15.806404</ele>
|
|
<time>2026-07-11T10:01:28.000Z</time>
|
|
</trkpt>
|
|
<trkpt lat="55.500568" lon="8.391143">
|
|
<ele>15.825502</ele>
|
|
<time>2026-07-11T10:01:29.000Z</time>
|
|
</trkpt>
|
|
<trkpt lat="55.500602" lon="8.391081">
|
|
<ele>15.844759</ele>
|
|
<time>2026-07-11T10:01:30.000Z</time>
|
|
</trkpt>
|
|
<trkpt lat="55.500637" lon="8.391019">
|
|
<ele>15.864292</ele>
|
|
<time>2026-07-11T10:01:31.000Z</time>
|
|
</trkpt>
|
|
<trkpt lat="55.500671" lon="8.390960">
|
|
<ele>15.883074</ele>
|
|
<time>2026-07-11T10:01:32.000Z</time>
|
|
</trkpt>
|
|
<trkpt lat="55.500706" lon="8.390903">
|
|
<ele>15.901833</ele>
|
|
<time>2026-07-11T10:01:33.000Z</time>
|
|
</trkpt>
|
|
<trkpt lat="55.500738" lon="8.390846">
|
|
<ele>15.919742</ele>
|
|
<time>2026-07-11T10:01:34.000Z</time>
|
|
</trkpt>
|
|
<trkpt lat="55.500770" lon="8.390787">
|
|
<ele>15.937970</ele>
|
|
<time>2026-07-11T10:01:35.000Z</time>
|
|
</trkpt>
|
|
<trkpt lat="55.500803" lon="8.390729">
|
|
<ele>15.956315</ele>
|
|
<time>2026-07-11T10:01:36.000Z</time>
|
|
</trkpt>
|
|
<trkpt lat="55.500834" lon="8.390672">
|
|
<ele>15.973948</ele>
|
|
<time>2026-07-11T10:01:37.000Z</time>
|
|
</trkpt>
|
|
<trkpt lat="55.500866" lon="8.390617">
|
|
<ele>15.991543</ele>
|
|
<time>2026-07-11T10:01:38.000Z</time>
|
|
</trkpt>
|
|
<trkpt lat="55.500899" lon="8.390563">
|
|
<ele>16.009269</ele>
|
|
<time>2026-07-11T10:01:39.000Z</time>
|
|
</trkpt>
|
|
<trkpt lat="55.500932" lon="8.390506">
|
|
<ele>16.027457</ele>
|
|
<time>2026-07-11T10:01:40.000Z</time>
|
|
</trkpt>
|
|
<trkpt lat="55.500965" lon="8.390447">
|
|
<ele>16.045960</ele>
|
|
<time>2026-07-11T10:01:41.000Z</time>
|
|
</trkpt>
|
|
<trkpt lat="55.501000" lon="8.390390">
|
|
<ele>16.064719</ele>
|
|
<time>2026-07-11T10:01:42.000Z</time>
|
|
</trkpt>
|
|
<trkpt lat="55.501034" lon="8.390334">
|
|
<ele>16.083038</ele>
|
|
<time>2026-07-11T10:01:43.000Z</time>
|
|
</trkpt>
|
|
<trkpt lat="55.501068" lon="8.390279">
|
|
<ele>16.101205</ele>
|
|
<time>2026-07-11T10:01:44.000Z</time>
|
|
</trkpt>
|
|
<trkpt lat="55.501102" lon="8.390225">
|
|
<ele>16.119223</ele>
|
|
<time>2026-07-11T10:01:45.000Z</time>
|
|
</trkpt>
|
|
<trkpt lat="55.501138" lon="8.390170">
|
|
<ele>16.137979</ele>
|
|
<time>2026-07-11T10:01:46.000Z</time>
|
|
</trkpt>
|
|
<trkpt lat="55.501175" lon="8.390113">
|
|
<ele>16.157324</ele>
|
|
<time>2026-07-11T10:01:47.000Z</time>
|
|
</trkpt>
|
|
<trkpt lat="55.501209" lon="8.390058">
|
|
<ele>16.175492</ele>
|
|
<time>2026-07-11T10:01:48.000Z</time>
|
|
</trkpt>
|
|
<trkpt lat="55.501245" lon="8.390004">
|
|
<ele>16.194102</ele>
|
|
<time>2026-07-11T10:01:49.000Z</time>
|
|
</trkpt>
|
|
<trkpt lat="55.501281" lon="8.389951">
|
|
<ele>16.212569</ele>
|
|
<time>2026-07-11T10:01:50.000Z</time>
|
|
</trkpt>
|
|
<trkpt lat="55.501316" lon="8.389898">
|
|
<ele>16.230735</ele>
|
|
<time>2026-07-11T10:01:51.000Z</time>
|
|
</trkpt>
|
|
<trkpt lat="55.501350" lon="8.389846">
|
|
<ele>16.248457</ele>
|
|
<time>2026-07-11T10:01:52.000Z</time>
|
|
</trkpt>
|
|
<trkpt lat="55.501384" lon="8.389793">
|
|
<ele>16.266326</ele>
|
|
<time>2026-07-11T10:01:53.000Z</time>
|
|
</trkpt>
|
|
<trkpt lat="55.501419" lon="8.389738">
|
|
<ele>16.284785</ele>
|
|
<time>2026-07-11T10:01:54.000Z</time>
|
|
</trkpt>
|
|
<trkpt lat="55.501455" lon="8.389684">
|
|
<ele>16.303396</ele>
|
|
<time>2026-07-11T10:01:55.000Z</time>
|
|
</trkpt>
|
|
<trkpt lat="55.501487" lon="8.389636">
|
|
<ele>16.319938</ele>
|
|
<time>2026-07-11T10:01:56.000Z</time>
|
|
</trkpt>
|
|
<trkpt lat="55.501513" lon="8.389595">
|
|
<ele>16.333672</ele>
|
|
<time>2026-07-11T10:01:57.000Z</time>
|
|
</trkpt>
|
|
<trkpt lat="55.501565" lon="8.389517">
|
|
<ele>16.360554</ele>
|
|
<time>2026-07-11T10:01:58.000Z</time>
|
|
</trkpt>
|
|
<trkpt lat="55.501603" lon="8.389464">
|
|
<ele>16.366753</ele>
|
|
<time>2026-07-11T10:01:59.000Z</time>
|
|
</trkpt>
|
|
<trkpt lat="55.501641" lon="8.389411">
|
|
<ele>16.363033</ele>
|
|
<time>2026-07-11T10:02:00.000Z</time>
|
|
</trkpt>
|
|
<trkpt lat="55.501680" lon="8.389355">
|
|
<ele>16.359171</ele>
|
|
<time>2026-07-11T10:02:01.000Z</time>
|
|
</trkpt>
|
|
<trkpt lat="55.501718" lon="8.389302">
|
|
<ele>16.355451</ele>
|
|
<time>2026-07-11T10:02:02.000Z</time>
|
|
</trkpt>
|
|
<trkpt lat="55.501756" lon="8.389249">
|
|
<ele>16.351730</ele>
|
|
<time>2026-07-11T10:02:03.000Z</time>
|
|
</trkpt>
|
|
<trkpt lat="55.501797" lon="8.389195">
|
|
<ele>16.347801</ele>
|
|
<time>2026-07-11T10:02:04.000Z</time>
|
|
</trkpt>
|
|
<trkpt lat="55.501837" lon="8.389141">
|
|
<ele>16.343933</ele>
|
|
<time>2026-07-11T10:02:05.000Z</time>
|
|
</trkpt>
|
|
<trkpt lat="55.501876" lon="8.389089">
|
|
<ele>16.340178</ele>
|
|
<time>2026-07-11T10:02:06.000Z</time>
|
|
</trkpt>
|
|
<trkpt lat="55.501917" lon="8.389037">
|
|
<ele>16.336300</ele>
|
|
<time>2026-07-11T10:02:07.000Z</time>
|
|
</trkpt>
|
|
<trkpt lat="55.501957" lon="8.388983">
|
|
<ele>16.332432</ele>
|
|
<time>2026-07-11T10:02:08.000Z</time>
|
|
</trkpt>
|
|
<trkpt lat="55.501995" lon="8.388928">
|
|
<ele>16.328657</ele>
|
|
<time>2026-07-11T10:02:09.000Z</time>
|
|
</trkpt>
|
|
<trkpt lat="55.502033" lon="8.388873">
|
|
<ele>16.324882</ele>
|
|
<time>2026-07-11T10:02:10.000Z</time>
|
|
</trkpt>
|
|
<trkpt lat="55.502074" lon="8.388817">
|
|
<ele>16.320900</ele>
|
|
<time>2026-07-11T10:02:11.000Z</time>
|
|
</trkpt>
|
|
<trkpt lat="55.502115" lon="8.388761">
|
|
<ele>16.316918</ele>
|
|
<time>2026-07-11T10:02:12.000Z</time>
|
|
</trkpt>
|
|
<trkpt lat="55.502156" lon="8.388705">
|
|
<ele>16.312936</ele>
|
|
<time>2026-07-11T10:02:13.000Z</time>
|
|
</trkpt>
|
|
<trkpt lat="55.502197" lon="8.388649">
|
|
<ele>16.308954</ele>
|
|
<time>2026-07-11T10:02:14.000Z</time>
|
|
</trkpt>
|
|
<trkpt lat="55.502238" lon="8.388594">
|
|
<ele>16.304998</ele>
|
|
<time>2026-07-11T10:02:15.000Z</time>
|
|
</trkpt>
|
|
<trkpt lat="55.502277" lon="8.388542">
|
|
<ele>16.301244</ele>
|
|
<time>2026-07-11T10:02:16.000Z</time>
|
|
</trkpt>
|
|
<trkpt lat="55.502317" lon="8.388491">
|
|
<ele>16.297453</ele>
|
|
<time>2026-07-11T10:02:17.000Z</time>
|
|
</trkpt>
|
|
<trkpt lat="55.502356" lon="8.388438">
|
|
<ele>16.293673</ele>
|
|
<time>2026-07-11T10:02:18.000Z</time>
|
|
</trkpt>
|
|
<trkpt lat="55.502396" lon="8.388383">
|
|
<ele>16.289778</ele>
|
|
<time>2026-07-11T10:02:19.000Z</time>
|
|
</trkpt>
|
|
<trkpt lat="55.502435" lon="8.388330">
|
|
<ele>16.285997</ele>
|
|
<time>2026-07-11T10:02:20.000Z</time>
|
|
</trkpt>
|
|
<trkpt lat="55.502474" lon="8.388276">
|
|
<ele>16.282190</ele>
|
|
<time>2026-07-11T10:02:21.000Z</time>
|
|
</trkpt>
|
|
<trkpt lat="55.502517" lon="8.388220">
|
|
<ele>16.278085</ele>
|
|
<time>2026-07-11T10:02:22.000Z</time>
|
|
</trkpt>
|
|
<trkpt lat="55.502559" lon="8.388164">
|
|
<ele>16.274042</ele>
|
|
<time>2026-07-11T10:02:23.000Z</time>
|
|
</trkpt>
|
|
<trkpt lat="55.502599" lon="8.388109">
|
|
<ele>16.270147</ele>
|
|
<time>2026-07-11T10:02:24.000Z</time>
|
|
</trkpt>
|
|
<trkpt lat="55.502638" lon="8.388055">
|
|
<ele>16.266340</ele>
|
|
<time>2026-07-11T10:02:25.000Z</time>
|
|
</trkpt>
|
|
<trkpt lat="55.502678" lon="8.388000">
|
|
<ele>16.262445</ele>
|
|
<time>2026-07-11T10:02:26.000Z</time>
|
|
</trkpt>
|
|
<trkpt lat="55.502718" lon="8.387945">
|
|
<ele>16.258550</ele>
|
|
<time>2026-07-11T10:02:27.000Z</time>
|
|
</trkpt>
|
|
<trkpt lat="55.502757" lon="8.387890">
|
|
<ele>16.254716</ele>
|
|
<time>2026-07-11T10:02:28.000Z</time>
|
|
</trkpt>
|
|
<trkpt lat="55.502797" lon="8.387838">
|
|
<ele>16.250900</ele>
|
|
<time>2026-07-11T10:02:29.000Z</time>
|
|
</trkpt>
|
|
<trkpt lat="55.502838" lon="8.387793">
|
|
<ele>16.247191</ele>
|
|
<time>2026-07-11T10:02:30.000Z</time>
|
|
</trkpt>
|
|
<trkpt lat="55.502880" lon="8.387757">
|
|
<ele>16.243604</ele>
|
|
<time>2026-07-11T10:02:31.000Z</time>
|
|
</trkpt>
|
|
<trkpt lat="55.502922" lon="8.387724">
|
|
<ele>16.240073</ele>
|
|
<time>2026-07-11T10:02:32.000Z</time>
|
|
</trkpt>
|
|
<trkpt lat="55.502962" lon="8.387687">
|
|
<ele>16.236604</ele>
|
|
<time>2026-07-11T10:02:33.000Z</time>
|
|
</trkpt>
|
|
<trkpt lat="55.502999" lon="8.387646">
|
|
<ele>16.233248</ele>
|
|
<time>2026-07-11T10:02:34.000Z</time>
|
|
</trkpt>
|
|
<trkpt lat="55.503033" lon="8.387604">
|
|
<ele>16.227644</ele>
|
|
<time>2026-07-11T10:02:35.000Z</time>
|
|
</trkpt>
|
|
<trkpt lat="55.503067" lon="8.387560">
|
|
<ele>16.211760</ele>
|
|
<time>2026-07-11T10:02:36.000Z</time>
|
|
</trkpt>
|
|
<trkpt lat="55.503103" lon="8.387514">
|
|
<ele>16.195015</ele>
|
|
<time>2026-07-11T10:02:37.000Z</time>
|
|
</trkpt>
|
|
<trkpt lat="55.503139" lon="8.387469">
|
|
<ele>16.178394</ele>
|
|
<time>2026-07-11T10:02:38.000Z</time>
|
|
</trkpt>
|
|
<trkpt lat="55.503176" lon="8.387422">
|
|
<ele>16.161219</ele>
|
|
<time>2026-07-11T10:02:39.000Z</time>
|
|
</trkpt>
|
|
<trkpt lat="55.503214" lon="8.387374">
|
|
<ele>16.143613</ele>
|
|
<time>2026-07-11T10:02:40.000Z</time>
|
|
</trkpt>
|
|
<trkpt lat="55.503254" lon="8.387325">
|
|
<ele>16.125268</ele>
|
|
<time>2026-07-11T10:02:41.000Z</time>
|
|
</trkpt>
|
|
<trkpt lat="55.503294" lon="8.387273">
|
|
<ele>16.106551</ele>
|
|
<time>2026-07-11T10:02:42.000Z</time>
|
|
</trkpt>
|
|
<trkpt lat="55.503332" lon="8.387222">
|
|
<ele>16.088565</ele>
|
|
<time>2026-07-11T10:02:43.000Z</time>
|
|
</trkpt>
|
|
<trkpt lat="55.503371" lon="8.387172">
|
|
<ele>16.070403</ele>
|
|
<time>2026-07-11T10:02:44.000Z</time>
|
|
</trkpt>
|
|
<trkpt lat="55.503411" lon="8.387123">
|
|
<ele>16.052059</ele>
|
|
<time>2026-07-11T10:02:45.000Z</time>
|
|
</trkpt>
|
|
<trkpt lat="55.503450" lon="8.387073">
|
|
<ele>16.033897</ele>
|
|
<time>2026-07-11T10:02:46.000Z</time>
|
|
</trkpt>
|
|
<trkpt lat="55.503488" lon="8.387024">
|
|
<ele>16.016166</ele>
|
|
<time>2026-07-11T10:02:47.000Z</time>
|
|
</trkpt>
|
|
<trkpt lat="55.503525" lon="8.386975">
|
|
<ele>15.998738</ele>
|
|
<time>2026-07-11T10:02:48.000Z</time>
|
|
</trkpt>
|
|
<trkpt lat="55.503561" lon="8.386925">
|
|
<ele>15.981479</ele>
|
|
<time>2026-07-11T10:02:49.000Z</time>
|
|
</trkpt>
|
|
<trkpt lat="55.503599" lon="8.386874">
|
|
<ele>15.963493</ele>
|
|
<time>2026-07-11T10:02:50.000Z</time>
|
|
</trkpt>
|
|
<trkpt lat="55.503635" lon="8.386820">
|
|
<ele>15.945694</ele>
|
|
<time>2026-07-11T10:02:51.000Z</time>
|
|
</trkpt>
|
|
<trkpt lat="55.503669" lon="8.386762">
|
|
<ele>15.927879</ele>
|
|
<time>2026-07-11T10:02:52.000Z</time>
|
|
</trkpt>
|
|
<trkpt lat="55.503700" lon="8.386695">
|
|
<ele>15.909416</ele>
|
|
<time>2026-07-11T10:02:53.000Z</time>
|
|
</trkpt>
|
|
<trkpt lat="55.503729" lon="8.386628">
|
|
<ele>15.891420</ele>
|
|
<time>2026-07-11T10:02:54.000Z</time>
|
|
</trkpt>
|
|
<trkpt lat="55.503761" lon="8.386567">
|
|
<ele>15.873676</ele>
|
|
<time>2026-07-11T10:02:55.000Z</time>
|
|
</trkpt>
|
|
<trkpt lat="55.503797" lon="8.386511">
|
|
<ele>15.855597</ele>
|
|
<time>2026-07-11T10:02:56.000Z</time>
|
|
</trkpt>
|
|
<trkpt lat="55.503836" lon="8.386457">
|
|
<ele>15.836921</ele>
|
|
<time>2026-07-11T10:02:57.000Z</time>
|
|
</trkpt>
|
|
<trkpt lat="55.503874" lon="8.386403">
|
|
<ele>15.818541</ele>
|
|
<time>2026-07-11T10:02:58.000Z</time>
|
|
</trkpt>
|
|
<trkpt lat="55.503912" lon="8.386348">
|
|
<ele>15.800026</ele>
|
|
<time>2026-07-11T10:02:59.000Z</time>
|
|
</trkpt>
|
|
<trkpt lat="55.503952" lon="8.386289">
|
|
<ele>15.780386</ele>
|
|
<time>2026-07-11T10:03:00.000Z</time>
|
|
</trkpt>
|
|
<trkpt lat="55.503992" lon="8.386231">
|
|
<ele>15.760883</ele>
|
|
<time>2026-07-11T10:03:01.000Z</time>
|
|
</trkpt>
|
|
<trkpt lat="55.504030" lon="8.386175">
|
|
<ele>15.742232</ele>
|
|
<time>2026-07-11T10:03:02.000Z</time>
|
|
</trkpt>
|
|
<trkpt lat="55.504070" lon="8.386118">
|
|
<ele>15.722863</ele>
|
|
<time>2026-07-11T10:03:03.000Z</time>
|
|
</trkpt>
|
|
<trkpt lat="55.504112" lon="8.386060">
|
|
<ele>15.702771</ele>
|
|
<time>2026-07-11T10:03:04.000Z</time>
|
|
</trkpt>
|
|
<trkpt lat="55.504155" lon="8.386003">
|
|
<ele>15.682510</ele>
|
|
<time>2026-07-11T10:03:05.000Z</time>
|
|
</trkpt>
|
|
<trkpt lat="55.504198" lon="8.385946">
|
|
<ele>15.662249</ele>
|
|
<time>2026-07-11T10:03:06.000Z</time>
|
|
</trkpt>
|
|
<trkpt lat="55.504238" lon="8.385890">
|
|
<ele>15.643014</ele>
|
|
<time>2026-07-11T10:03:07.000Z</time>
|
|
</trkpt>
|
|
<trkpt lat="55.504280" lon="8.385834">
|
|
<ele>15.623182</ele>
|
|
<time>2026-07-11T10:03:08.000Z</time>
|
|
</trkpt>
|
|
<trkpt lat="55.504322" lon="8.385779">
|
|
<ele>15.603479</ele>
|
|
<time>2026-07-11T10:03:09.000Z</time>
|
|
</trkpt>
|
|
<trkpt lat="55.504363" lon="8.385725">
|
|
<ele>15.584205</ele>
|
|
<time>2026-07-11T10:03:10.000Z</time>
|
|
</trkpt>
|
|
<trkpt lat="55.504406" lon="8.385671">
|
|
<ele>15.564321</ele>
|
|
<time>2026-07-11T10:03:11.000Z</time>
|
|
</trkpt>
|
|
<trkpt lat="55.504447" lon="8.385614">
|
|
<ele>15.543844</ele>
|
|
<time>2026-07-11T10:03:12.000Z</time>
|
|
</trkpt>
|
|
<trkpt lat="55.504489" lon="8.385557">
|
|
<ele>15.521918</ele>
|
|
<time>2026-07-11T10:03:13.000Z</time>
|
|
</trkpt>
|
|
<trkpt lat="55.504532" lon="8.385500">
|
|
<ele>15.499662</ele>
|
|
<time>2026-07-11T10:03:14.000Z</time>
|
|
</trkpt>
|
|
<trkpt lat="55.504574" lon="8.385447">
|
|
<ele>15.478294</ele>
|
|
<time>2026-07-11T10:03:15.000Z</time>
|
|
</trkpt>
|
|
<trkpt lat="55.504615" lon="8.385396">
|
|
<ele>15.457535</ele>
|
|
<time>2026-07-11T10:03:16.000Z</time>
|
|
</trkpt>
|
|
<trkpt lat="55.504655" lon="8.385348">
|
|
<ele>15.437517</ele>
|
|
<time>2026-07-11T10:03:17.000Z</time>
|
|
</trkpt>
|
|
<trkpt lat="55.504695" lon="8.385297">
|
|
<ele>15.417095</ele>
|
|
<time>2026-07-11T10:03:18.000Z</time>
|
|
</trkpt>
|
|
<trkpt lat="55.504736" lon="8.385244">
|
|
<ele>15.396062</ele>
|
|
<time>2026-07-11T10:03:19.000Z</time>
|
|
</trkpt>
|
|
<trkpt lat="55.504775" lon="8.385191">
|
|
<ele>15.375692</ele>
|
|
<time>2026-07-11T10:03:20.000Z</time>
|
|
</trkpt>
|
|
<trkpt lat="55.504819" lon="8.385137">
|
|
<ele>15.353512</ele>
|
|
<time>2026-07-11T10:03:21.000Z</time>
|
|
</trkpt>
|
|
<trkpt lat="55.504864" lon="8.385084">
|
|
<ele>15.331123</ele>
|
|
<time>2026-07-11T10:03:22.000Z</time>
|
|
</trkpt>
|
|
<trkpt lat="55.504908" lon="8.385031">
|
|
<ele>15.309076</ele>
|
|
<time>2026-07-11T10:03:23.000Z</time>
|
|
</trkpt>
|
|
<trkpt lat="55.504955" lon="8.384978">
|
|
<ele>15.285993</ele>
|
|
<time>2026-07-11T10:03:24.000Z</time>
|
|
</trkpt>
|
|
<trkpt lat="55.505003" lon="8.384924">
|
|
<ele>15.262435</ele>
|
|
<time>2026-07-11T10:03:25.000Z</time>
|
|
</trkpt>
|
|
<trkpt lat="55.505048" lon="8.384867">
|
|
<ele>15.239512</ele>
|
|
<time>2026-07-11T10:03:26.000Z</time>
|
|
</trkpt>
|
|
<trkpt lat="55.505095" lon="8.384811">
|
|
<ele>15.216043</ele>
|
|
<time>2026-07-11T10:03:27.000Z</time>
|
|
</trkpt>
|
|
<trkpt lat="55.505143" lon="8.384757">
|
|
<ele>15.192485</ele>
|
|
<time>2026-07-11T10:03:28.000Z</time>
|
|
</trkpt>
|
|
<trkpt lat="55.505190" lon="8.384703">
|
|
<ele>15.169275</ele>
|
|
<time>2026-07-11T10:03:29.000Z</time>
|
|
</trkpt>
|
|
<trkpt lat="55.505237" lon="8.384648">
|
|
<ele>15.145937</ele>
|
|
<time>2026-07-11T10:03:30.000Z</time>
|
|
</trkpt>
|
|
<trkpt lat="55.505281" lon="8.384597">
|
|
<ele>15.124151</ele>
|
|
<time>2026-07-11T10:03:31.000Z</time>
|
|
</trkpt>
|
|
<trkpt lat="55.505329" lon="8.384550">
|
|
<ele>15.101433</ele>
|
|
<time>2026-07-11T10:03:32.000Z</time>
|
|
</trkpt>
|
|
<trkpt lat="55.505378" lon="8.384505">
|
|
<ele>15.078571</ele>
|
|
<time>2026-07-11T10:03:33.000Z</time>
|
|
</trkpt>
|
|
<trkpt lat="55.505428" lon="8.384457">
|
|
<ele>15.055015</ele>
|
|
<time>2026-07-11T10:03:34.000Z</time>
|
|
</trkpt>
|
|
<trkpt lat="55.505474" lon="8.384407">
|
|
<ele>15.032656</ele>
|
|
<time>2026-07-11T10:03:35.000Z</time>
|
|
</trkpt>
|
|
<trkpt lat="55.505516" lon="8.384358">
|
|
<ele>15.011820</ele>
|
|
<time>2026-07-11T10:03:36.000Z</time>
|
|
</trkpt>
|
|
<trkpt lat="55.505560" lon="8.384310">
|
|
<ele>14.990412</ele>
|
|
<time>2026-07-11T10:03:37.000Z</time>
|
|
</trkpt>
|
|
<trkpt lat="55.505607" lon="8.384261">
|
|
<ele>14.967820</ele>
|
|
<time>2026-07-11T10:03:38.000Z</time>
|
|
</trkpt>
|
|
<trkpt lat="55.505655" lon="8.384210">
|
|
<ele>14.944632</ele>
|
|
<time>2026-07-11T10:03:39.000Z</time>
|
|
</trkpt>
|
|
<trkpt lat="55.505703" lon="8.384158">
|
|
<ele>14.921323</ele>
|
|
<time>2026-07-11T10:03:40.000Z</time>
|
|
</trkpt>
|
|
<trkpt lat="55.505750" lon="8.384107">
|
|
<ele>14.898489</ele>
|
|
<time>2026-07-11T10:03:41.000Z</time>
|
|
</trkpt>
|
|
<trkpt lat="55.505798" lon="8.384061">
|
|
<ele>14.875883</ele>
|
|
<time>2026-07-11T10:03:42.000Z</time>
|
|
</trkpt>
|
|
<trkpt lat="55.505848" lon="8.384025">
|
|
<ele>14.853533</ele>
|
|
<time>2026-07-11T10:03:43.000Z</time>
|
|
</trkpt>
|
|
<trkpt lat="55.505899" lon="8.383998">
|
|
<ele>14.831495</ele>
|
|
<time>2026-07-11T10:03:44.000Z</time>
|
|
</trkpt>
|
|
<trkpt lat="55.505950" lon="8.383971">
|
|
<ele>14.809457</ele>
|
|
<time>2026-07-11T10:03:45.000Z</time>
|
|
</trkpt>
|
|
<trkpt lat="55.506002" lon="8.383936">
|
|
<ele>14.745546</ele>
|
|
<time>2026-07-11T10:03:46.000Z</time>
|
|
</trkpt>
|
|
<trkpt lat="55.506055" lon="8.383890">
|
|
<ele>14.675703</ele>
|
|
<time>2026-07-11T10:03:47.000Z</time>
|
|
</trkpt>
|
|
<trkpt lat="55.506109" lon="8.383838">
|
|
<ele>14.602960</ele>
|
|
<time>2026-07-11T10:03:48.000Z</time>
|
|
</trkpt>
|
|
<trkpt lat="55.506162" lon="8.383788">
|
|
<ele>14.531895</ele>
|
|
<time>2026-07-11T10:03:49.000Z</time>
|
|
</trkpt>
|
|
<trkpt lat="55.506214" lon="8.383740">
|
|
<ele>14.462501</ele>
|
|
<time>2026-07-11T10:03:50.000Z</time>
|
|
</trkpt>
|
|
<trkpt lat="55.506263" lon="8.383694">
|
|
<ele>14.396870</ele>
|
|
<time>2026-07-11T10:03:51.000Z</time>
|
|
</trkpt>
|
|
<trkpt lat="55.506313" lon="8.383648">
|
|
<ele>14.330193</ele>
|
|
<time>2026-07-11T10:03:52.000Z</time>
|
|
</trkpt>
|
|
<trkpt lat="55.506364" lon="8.383600">
|
|
<ele>14.261845</ele>
|
|
<time>2026-07-11T10:03:53.000Z</time>
|
|
</trkpt>
|
|
<trkpt lat="55.506414" lon="8.383551">
|
|
<ele>14.194215</ele>
|
|
<time>2026-07-11T10:03:54.000Z</time>
|
|
</trkpt>
|
|
<trkpt lat="55.506460" lon="8.383502">
|
|
<ele>14.130681</ele>
|
|
<time>2026-07-11T10:03:55.000Z</time>
|
|
</trkpt>
|
|
<trkpt lat="55.506505" lon="8.383456">
|
|
<ele>14.069187</ele>
|
|
<time>2026-07-11T10:03:56.000Z</time>
|
|
</trkpt>
|
|
<trkpt lat="55.506551" lon="8.383412">
|
|
<ele>14.007316</ele>
|
|
<time>2026-07-11T10:03:57.000Z</time>
|
|
</trkpt>
|
|
<trkpt lat="55.506597" lon="8.383369">
|
|
<ele>13.945762</ele>
|
|
<time>2026-07-11T10:03:58.000Z</time>
|
|
</trkpt>
|
|
<trkpt lat="55.506645" lon="8.383326">
|
|
<ele>13.882107</ele>
|
|
<time>2026-07-11T10:03:59.000Z</time>
|
|
</trkpt>
|
|
<trkpt lat="55.506692" lon="8.383285">
|
|
<ele>13.820109</ele>
|
|
<time>2026-07-11T10:04:00.000Z</time>
|
|
</trkpt>
|
|
<trkpt lat="55.506739" lon="8.383244">
|
|
<ele>13.758112</ele>
|
|
<time>2026-07-11T10:04:01.000Z</time>
|
|
</trkpt>
|
|
<trkpt lat="55.506788" lon="8.383205">
|
|
<ele>13.694547</ele>
|
|
<time>2026-07-11T10:04:02.000Z</time>
|
|
</trkpt>
|
|
<trkpt lat="55.506839" lon="8.383164">
|
|
<ele>13.628275</ele>
|
|
<time>2026-07-11T10:04:03.000Z</time>
|
|
</trkpt>
|
|
<trkpt lat="55.506891" lon="8.383123">
|
|
<ele>13.560925</ele>
|
|
<time>2026-07-11T10:04:04.000Z</time>
|
|
</trkpt>
|
|
<trkpt lat="55.506942" lon="8.383084">
|
|
<ele>13.495197</ele>
|
|
<time>2026-07-11T10:04:05.000Z</time>
|
|
</trkpt>
|
|
<trkpt lat="55.506994" lon="8.383045">
|
|
<ele>13.428382</ele>
|
|
<time>2026-07-11T10:04:06.000Z</time>
|
|
</trkpt>
|
|
<trkpt lat="55.507045" lon="8.383005">
|
|
<ele>13.362384</ele>
|
|
<time>2026-07-11T10:04:07.000Z</time>
|
|
</trkpt>
|
|
<trkpt lat="55.507095" lon="8.382964">
|
|
<ele>13.297187</ele>
|
|
<time>2026-07-11T10:04:08.000Z</time>
|
|
</trkpt>
|
|
<trkpt lat="55.507145" lon="8.382924">
|
|
<ele>13.232269</ele>
|
|
<time>2026-07-11T10:04:09.000Z</time>
|
|
</trkpt>
|
|
<trkpt lat="55.507194" lon="8.382887">
|
|
<ele>13.169243</ele>
|
|
<time>2026-07-11T10:04:10.000Z</time>
|
|
</trkpt>
|
|
<trkpt lat="55.507244" lon="8.382852">
|
|
<ele>13.105633</ele>
|
|
<time>2026-07-11T10:04:11.000Z</time>
|
|
</trkpt>
|
|
<trkpt lat="55.507293" lon="8.382817">
|
|
<ele>13.043122</ele>
|
|
<time>2026-07-11T10:04:12.000Z</time>
|
|
</trkpt>
|
|
<trkpt lat="55.507342" lon="8.382779">
|
|
<ele>12.979830</ele>
|
|
<time>2026-07-11T10:04:13.000Z</time>
|
|
</trkpt>
|
|
<trkpt lat="55.507393" lon="8.382740">
|
|
<ele>12.914102</ele>
|
|
<time>2026-07-11T10:04:14.000Z</time>
|
|
</trkpt>
|
|
<trkpt lat="55.507446" lon="8.382704">
|
|
<ele>12.846944</ele>
|
|
<time>2026-07-11T10:04:15.000Z</time>
|
|
</trkpt>
|
|
<trkpt lat="55.507497" lon="8.382668">
|
|
<ele>12.781988</ele>
|
|
<time>2026-07-11T10:04:16.000Z</time>
|
|
</trkpt>
|
|
<trkpt lat="55.507548" lon="8.382633">
|
|
<ele>12.717278</ele>
|
|
<time>2026-07-11T10:04:17.000Z</time>
|
|
</trkpt>
|
|
<trkpt lat="55.507598" lon="8.382598">
|
|
<ele>12.642960</ele>
|
|
<time>2026-07-11T10:04:18.000Z</time>
|
|
</trkpt>
|
|
<trkpt lat="55.507647" lon="8.382563">
|
|
<ele>12.556187</ele>
|
|
<time>2026-07-11T10:04:19.000Z</time>
|
|
</trkpt>
|
|
<trkpt lat="55.507699" lon="8.382530">
|
|
<ele>12.465475</ele>
|
|
<time>2026-07-11T10:04:20.000Z</time>
|
|
</trkpt>
|
|
<trkpt lat="55.507751" lon="8.382497">
|
|
<ele>12.374763</ele>
|
|
<time>2026-07-11T10:04:21.000Z</time>
|
|
</trkpt>
|
|
<trkpt lat="55.507800" lon="8.382464">
|
|
<ele>12.288670</ele>
|
|
<time>2026-07-11T10:04:22.000Z</time>
|
|
</trkpt>
|
|
<trkpt lat="55.507850" lon="8.382432">
|
|
<ele>12.201362</ele>
|
|
<time>2026-07-11T10:04:23.000Z</time>
|
|
</trkpt>
|
|
<trkpt lat="55.507899" lon="8.382403">
|
|
<ele>12.116522</ele>
|
|
<time>2026-07-11T10:04:24.000Z</time>
|
|
</trkpt>
|
|
<trkpt lat="55.507949" lon="8.382373">
|
|
<ele>12.029831</ele>
|
|
<time>2026-07-11T10:04:25.000Z</time>
|
|
</trkpt>
|
|
<trkpt lat="55.508002" lon="8.382342">
|
|
<ele>11.938174</ele>
|
|
<time>2026-07-11T10:04:26.000Z</time>
|
|
</trkpt>
|
|
<trkpt lat="55.508051" lon="8.382309">
|
|
<ele>11.852080</ele>
|
|
<time>2026-07-11T10:04:27.000Z</time>
|
|
</trkpt>
|
|
<trkpt lat="55.508096" lon="8.382275">
|
|
<ele>11.771727</ele>
|
|
<time>2026-07-11T10:04:28.000Z</time>
|
|
</trkpt>
|
|
<trkpt lat="55.508144" lon="8.382243">
|
|
<ele>11.687499</ele>
|
|
<time>2026-07-11T10:04:29.000Z</time>
|
|
</trkpt>
|
|
<trkpt lat="55.508195" lon="8.382212">
|
|
<ele>11.598953</ele>
|
|
<time>2026-07-11T10:04:30.000Z</time>
|
|
</trkpt>
|
|
<trkpt lat="55.508249" lon="8.382178">
|
|
<ele>11.504837</ele>
|
|
<time>2026-07-11T10:04:31.000Z</time>
|
|
</trkpt>
|
|
<trkpt lat="55.508302" lon="8.382143">
|
|
<ele>11.411943</ele>
|
|
<time>2026-07-11T10:04:32.000Z</time>
|
|
</trkpt>
|
|
<trkpt lat="55.508357" lon="8.382110">
|
|
<ele>11.316582</ele>
|
|
<time>2026-07-11T10:04:33.000Z</time>
|
|
</trkpt>
|
|
<trkpt lat="55.508413" lon="8.382078">
|
|
<ele>11.219956</ele>
|
|
<time>2026-07-11T10:04:34.000Z</time>
|
|
</trkpt>
|
|
<trkpt lat="55.508470" lon="8.382045">
|
|
<ele>11.121480</ele>
|
|
<time>2026-07-11T10:04:35.000Z</time>
|
|
</trkpt>
|
|
<trkpt lat="55.508527" lon="8.382010">
|
|
<ele>11.022410</ele>
|
|
<time>2026-07-11T10:04:36.000Z</time>
|
|
</trkpt>
|
|
<trkpt lat="55.508586" lon="8.381973">
|
|
<ele>10.919625</ele>
|
|
<time>2026-07-11T10:04:37.000Z</time>
|
|
</trkpt>
|
|
<trkpt lat="55.508642" lon="8.381936">
|
|
<ele>10.821468</ele>
|
|
<time>2026-07-11T10:04:38.000Z</time>
|
|
</trkpt>
|
|
<trkpt lat="55.508699" lon="8.381899">
|
|
<ele>10.721771</ele>
|
|
<time>2026-07-11T10:04:39.000Z</time>
|
|
</trkpt>
|
|
<trkpt lat="55.508756" lon="8.381861">
|
|
<ele>10.621750</ele>
|
|
<time>2026-07-11T10:04:40.000Z</time>
|
|
</trkpt>
|
|
<trkpt lat="55.508811" lon="8.381823">
|
|
<ele>10.524794</ele>
|
|
<time>2026-07-11T10:04:41.000Z</time>
|
|
</trkpt>
|
|
<trkpt lat="55.508867" lon="8.381789">
|
|
<ele>10.427579</ele>
|
|
<time>2026-07-11T10:04:42.000Z</time>
|
|
</trkpt>
|
|
<trkpt lat="55.508922" lon="8.381753">
|
|
<ele>10.331285</ele>
|
|
<time>2026-07-11T10:04:43.000Z</time>
|
|
</trkpt>
|
|
<trkpt lat="55.508979" lon="8.381716">
|
|
<ele>10.231588</ele>
|
|
<time>2026-07-11T10:04:44.000Z</time>
|
|
</trkpt>
|
|
<trkpt lat="55.509035" lon="8.381678">
|
|
<ele>10.133101</ele>
|
|
<time>2026-07-11T10:04:45.000Z</time>
|
|
</trkpt>
|
|
<trkpt lat="55.509093" lon="8.381639">
|
|
<ele>10.031216</ele>
|
|
<time>2026-07-11T10:04:46.000Z</time>
|
|
</trkpt>
|
|
<trkpt lat="55.509151" lon="8.381600">
|
|
<ele>9.929330</ele>
|
|
<time>2026-07-11T10:04:47.000Z</time>
|
|
</trkpt>
|
|
<trkpt lat="55.509206" lon="8.381565">
|
|
<ele>9.833355</ele>
|
|
<time>2026-07-11T10:04:48.000Z</time>
|
|
</trkpt>
|
|
<trkpt lat="55.509261" lon="8.381531">
|
|
<ele>9.737691</ele>
|
|
<time>2026-07-11T10:04:49.000Z</time>
|
|
</trkpt>
|
|
<trkpt lat="55.509319" lon="8.381495">
|
|
<ele>9.657778</ele>
|
|
<time>2026-07-11T10:04:50.000Z</time>
|
|
</trkpt>
|
|
<trkpt lat="55.509375" lon="8.381461">
|
|
<ele>9.582833</ele>
|
|
<time>2026-07-11T10:04:51.000Z</time>
|
|
</trkpt>
|
|
<trkpt lat="55.509434" lon="8.381426">
|
|
<ele>9.504064</ele>
|
|
<time>2026-07-11T10:04:52.000Z</time>
|
|
</trkpt>
|
|
<trkpt lat="55.509496" lon="8.381390">
|
|
<ele>9.421465</ele>
|
|
<time>2026-07-11T10:04:53.000Z</time>
|
|
</trkpt>
|
|
<trkpt lat="55.509557" lon="8.381352">
|
|
<ele>9.339603</ele>
|
|
<time>2026-07-11T10:04:54.000Z</time>
|
|
</trkpt>
|
|
<trkpt lat="55.509619" lon="8.381313">
|
|
<ele>9.256307</ele>
|
|
<time>2026-07-11T10:04:55.000Z</time>
|
|
</trkpt>
|
|
<trkpt lat="55.509681" lon="8.381274">
|
|
<ele>9.173012</ele>
|
|
<time>2026-07-11T10:04:56.000Z</time>
|
|
</trkpt>
|
|
<trkpt lat="55.509740" lon="8.381237">
|
|
<ele>9.093775</ele>
|
|
<time>2026-07-11T10:04:57.000Z</time>
|
|
</trkpt>
|
|
<trkpt lat="55.509801" lon="8.381200">
|
|
<ele>9.012148</ele>
|
|
<time>2026-07-11T10:04:58.000Z</time>
|
|
</trkpt>
|
|
<trkpt lat="55.509859" lon="8.381163">
|
|
<ele>8.934102</ele>
|
|
<time>2026-07-11T10:04:59.000Z</time>
|
|
</trkpt>
|
|
<trkpt lat="55.509918" lon="8.381124">
|
|
<ele>8.854373</ele>
|
|
<time>2026-07-11T10:05:00.000Z</time>
|
|
</trkpt>
|
|
<trkpt lat="55.509980" lon="8.381084">
|
|
<ele>8.770835</ele>
|
|
<time>2026-07-11T10:05:01.000Z</time>
|
|
</trkpt>
|
|
<trkpt lat="55.510041" lon="8.381043">
|
|
<ele>8.688232</ele>
|
|
<time>2026-07-11T10:05:02.000Z</time>
|
|
</trkpt>
|
|
<trkpt lat="55.510101" lon="8.380999">
|
|
<ele>8.606011</ele>
|
|
<time>2026-07-11T10:05:03.000Z</time>
|
|
</trkpt>
|
|
<trkpt lat="55.510158" lon="8.380955">
|
|
<ele>8.527282</ele>
|
|
<time>2026-07-11T10:05:04.000Z</time>
|
|
</trkpt>
|
|
<trkpt lat="55.510216" lon="8.380912">
|
|
<ele>8.447672</ele>
|
|
<time>2026-07-11T10:05:05.000Z</time>
|
|
</trkpt>
|
|
<trkpt lat="55.510276" lon="8.380870">
|
|
<ele>8.365990</ele>
|
|
<time>2026-07-11T10:05:06.000Z</time>
|
|
</trkpt>
|
|
<trkpt lat="55.510333" lon="8.380826">
|
|
<ele>8.287261</ele>
|
|
<time>2026-07-11T10:05:07.000Z</time>
|
|
</trkpt>
|
|
<trkpt lat="55.510391" lon="8.380781">
|
|
<ele>8.207086</ele>
|
|
<time>2026-07-11T10:05:08.000Z</time>
|
|
</trkpt>
|
|
<trkpt lat="55.510449" lon="8.380735">
|
|
<ele>8.126620</ele>
|
|
<time>2026-07-11T10:05:09.000Z</time>
|
|
</trkpt>
|
|
<trkpt lat="55.510507" lon="8.380686">
|
|
<ele>8.045249</ele>
|
|
<time>2026-07-11T10:05:10.000Z</time>
|
|
</trkpt>
|
|
<trkpt lat="55.510562" lon="8.380635">
|
|
<ele>7.966631</ele>
|
|
<time>2026-07-11T10:05:11.000Z</time>
|
|
</trkpt>
|
|
<trkpt lat="55.510617" lon="8.380585">
|
|
<ele>7.888342</ele>
|
|
<time>2026-07-11T10:05:12.000Z</time>
|
|
</trkpt>
|
|
<trkpt lat="55.510671" lon="8.380534">
|
|
<ele>7.810842</ele>
|
|
<time>2026-07-11T10:05:13.000Z</time>
|
|
</trkpt>
|
|
<trkpt lat="55.510724" lon="8.380482">
|
|
<ele>7.734110</ele>
|
|
<time>2026-07-11T10:05:14.000Z</time>
|
|
</trkpt>
|
|
<trkpt lat="55.510777" lon="8.380429">
|
|
<ele>7.657027</ele>
|
|
<time>2026-07-11T10:05:15.000Z</time>
|
|
</trkpt>
|
|
<trkpt lat="55.510831" lon="8.380376">
|
|
<ele>7.578840</ele>
|
|
<time>2026-07-11T10:05:16.000Z</time>
|
|
</trkpt>
|
|
<trkpt lat="55.510883" lon="8.380321">
|
|
<ele>7.502130</ele>
|
|
<time>2026-07-11T10:05:17.000Z</time>
|
|
</trkpt>
|
|
<trkpt lat="55.510934" lon="8.380266">
|
|
<ele>7.442868</ele>
|
|
<time>2026-07-11T10:05:18.000Z</time>
|
|
</trkpt>
|
|
<trkpt lat="55.510986" lon="8.380212">
|
|
<ele>7.415208</ele>
|
|
<time>2026-07-11T10:05:19.000Z</time>
|
|
</trkpt>
|
|
<trkpt lat="55.511035" lon="8.380158">
|
|
<ele>7.388724</ele>
|
|
<time>2026-07-11T10:05:20.000Z</time>
|
|
</trkpt>
|
|
<trkpt lat="55.511085" lon="8.380103">
|
|
<ele>7.361714</ele>
|
|
<time>2026-07-11T10:05:21.000Z</time>
|
|
</trkpt>
|
|
<trkpt lat="55.511135" lon="8.380045">
|
|
<ele>7.334284</ele>
|
|
<time>2026-07-11T10:05:22.000Z</time>
|
|
</trkpt>
|
|
<trkpt lat="55.511182" lon="8.379987">
|
|
<ele>7.307994</ele>
|
|
<time>2026-07-11T10:05:23.000Z</time>
|
|
</trkpt>
|
|
<trkpt lat="55.511230" lon="8.379930">
|
|
<ele>7.281471</ele>
|
|
<time>2026-07-11T10:05:24.000Z</time>
|
|
</trkpt>
|
|
<trkpt lat="55.511280" lon="8.379872">
|
|
<ele>7.254042</ele>
|
|
<time>2026-07-11T10:05:25.000Z</time>
|
|
</trkpt>
|
|
<trkpt lat="55.511327" lon="8.379812">
|
|
<ele>7.227450</ele>
|
|
<time>2026-07-11T10:05:26.000Z</time>
|
|
</trkpt>
|
|
<trkpt lat="55.511374" lon="8.379751">
|
|
<ele>7.200705</ele>
|
|
<time>2026-07-11T10:05:27.000Z</time>
|
|
</trkpt>
|
|
<trkpt lat="55.511424" lon="8.379688">
|
|
<ele>7.172542</ele>
|
|
<time>2026-07-11T10:05:28.000Z</time>
|
|
</trkpt>
|
|
<trkpt lat="55.511472" lon="8.379626">
|
|
<ele>7.145274</ele>
|
|
<time>2026-07-11T10:05:29.000Z</time>
|
|
</trkpt>
|
|
<trkpt lat="55.511518" lon="8.379563">
|
|
<ele>7.118582</ele>
|
|
<time>2026-07-11T10:05:30.000Z</time>
|
|
</trkpt>
|
|
<trkpt lat="55.511564" lon="8.379496">
|
|
<ele>7.091242</ele>
|
|
<time>2026-07-11T10:05:31.000Z</time>
|
|
</trkpt>
|
|
<trkpt lat="55.511610" lon="8.379427">
|
|
<ele>7.063569</ele>
|
|
<time>2026-07-11T10:05:32.000Z</time>
|
|
</trkpt>
|
|
<trkpt lat="55.511656" lon="8.379359">
|
|
<ele>7.036063</ele>
|
|
<time>2026-07-11T10:05:33.000Z</time>
|
|
</trkpt>
|
|
<trkpt lat="55.511704" lon="8.379290">
|
|
<ele>7.007684</ele>
|
|
<time>2026-07-11T10:05:34.000Z</time>
|
|
</trkpt>
|
|
<trkpt lat="55.511751" lon="8.379220">
|
|
<ele>6.979493</ele>
|
|
<time>2026-07-11T10:05:35.000Z</time>
|
|
</trkpt>
|
|
<trkpt lat="55.511797" lon="8.379149">
|
|
<ele>6.951480</ele>
|
|
<time>2026-07-11T10:05:36.000Z</time>
|
|
</trkpt>
|
|
<trkpt lat="55.511839" lon="8.379075">
|
|
<ele>6.924277</ele>
|
|
<time>2026-07-11T10:05:37.000Z</time>
|
|
</trkpt>
|
|
<trkpt lat="55.511879" lon="8.379003">
|
|
<ele>6.898088</ele>
|
|
<time>2026-07-11T10:05:38.000Z</time>
|
|
</trkpt>
|
|
<trkpt lat="55.511921" lon="8.378931">
|
|
<ele>6.871249</ele>
|
|
<time>2026-07-11T10:05:39.000Z</time>
|
|
</trkpt>
|
|
<trkpt lat="55.511963" lon="8.378860">
|
|
<ele>6.844591</ele>
|
|
<time>2026-07-11T10:05:40.000Z</time>
|
|
</trkpt>
|
|
<trkpt lat="55.512005" lon="8.378788">
|
|
<ele>6.817752</ele>
|
|
<time>2026-07-11T10:05:41.000Z</time>
|
|
</trkpt>
|
|
<trkpt lat="55.512045" lon="8.378715">
|
|
<ele>6.791377</ele>
|
|
<time>2026-07-11T10:05:42.000Z</time>
|
|
</trkpt>
|
|
<trkpt lat="55.512083" lon="8.378641">
|
|
<ele>6.765440</ele>
|
|
<time>2026-07-11T10:05:43.000Z</time>
|
|
</trkpt>
|
|
<trkpt lat="55.512121" lon="8.378563">
|
|
<ele>6.738725</ele>
|
|
<time>2026-07-11T10:05:44.000Z</time>
|
|
</trkpt>
|
|
<trkpt lat="55.512159" lon="8.378483">
|
|
<ele>6.711613</ele>
|
|
<time>2026-07-11T10:05:45.000Z</time>
|
|
</trkpt>
|
|
<trkpt lat="55.512197" lon="8.378403">
|
|
<ele>6.684502</ele>
|
|
<time>2026-07-11T10:05:46.000Z</time>
|
|
</trkpt>
|
|
<trkpt lat="55.512236" lon="8.378326">
|
|
<ele>6.657680</ele>
|
|
<time>2026-07-11T10:05:47.000Z</time>
|
|
</trkpt>
|
|
<trkpt lat="55.512272" lon="8.378251">
|
|
<ele>6.632152</ele>
|
|
<time>2026-07-11T10:05:48.000Z</time>
|
|
</trkpt>
|
|
<trkpt lat="55.512305" lon="8.378176">
|
|
<ele>6.635865</ele>
|
|
<time>2026-07-11T10:05:49.000Z</time>
|
|
</trkpt>
|
|
<trkpt lat="55.512339" lon="8.378099">
|
|
<ele>6.646572</ele>
|
|
<time>2026-07-11T10:05:50.000Z</time>
|
|
</trkpt>
|
|
<trkpt lat="55.512375" lon="8.378021">
|
|
<ele>6.657606</ele>
|
|
<time>2026-07-11T10:05:51.000Z</time>
|
|
</trkpt>
|
|
<trkpt lat="55.512411" lon="8.377942">
|
|
<ele>6.668726</ele>
|
|
<time>2026-07-11T10:05:52.000Z</time>
|
|
</trkpt>
|
|
<trkpt lat="55.512449" lon="8.377860">
|
|
<ele>6.680345</ele>
|
|
<time>2026-07-11T10:05:53.000Z</time>
|
|
</trkpt>
|
|
<trkpt lat="55.512487" lon="8.377776">
|
|
<ele>6.692134</ele>
|
|
<time>2026-07-11T10:05:54.000Z</time>
|
|
</trkpt>
|
|
<trkpt lat="55.512525" lon="8.377694">
|
|
<ele>6.703753</ele>
|
|
<time>2026-07-11T10:05:55.000Z</time>
|
|
</trkpt>
|
|
<trkpt lat="55.512562" lon="8.377613">
|
|
<ele>6.715165</ele>
|
|
<time>2026-07-11T10:05:56.000Z</time>
|
|
</trkpt>
|
|
<trkpt lat="55.512596" lon="8.377535">
|
|
<ele>6.725959</ele>
|
|
<time>2026-07-11T10:05:57.000Z</time>
|
|
</trkpt>
|
|
<trkpt lat="55.512628" lon="8.377462">
|
|
<ele>6.736082</ele>
|
|
<time>2026-07-11T10:05:58.000Z</time>
|
|
</trkpt>
|
|
<trkpt lat="55.512661" lon="8.377390">
|
|
<ele>6.746239</ele>
|
|
<time>2026-07-11T10:05:59.000Z</time>
|
|
</trkpt>
|
|
<trkpt lat="55.512695" lon="8.377318">
|
|
<ele>6.756519</ele>
|
|
<time>2026-07-11T10:06:00.000Z</time>
|
|
</trkpt>
|
|
<trkpt lat="55.512728" lon="8.377243">
|
|
<ele>6.766934</ele>
|
|
<time>2026-07-11T10:06:01.000Z</time>
|
|
</trkpt>
|
|
<trkpt lat="55.512760" lon="8.377167">
|
|
<ele>6.777320</ele>
|
|
<time>2026-07-11T10:06:02.000Z</time>
|
|
</trkpt>
|
|
<trkpt lat="55.512793" lon="8.377090">
|
|
<ele>6.787909</ele>
|
|
<time>2026-07-11T10:06:03.000Z</time>
|
|
</trkpt>
|
|
<trkpt lat="55.512823" lon="8.377014">
|
|
<ele>6.798067</ele>
|
|
<time>2026-07-11T10:06:04.000Z</time>
|
|
</trkpt>
|
|
<trkpt lat="55.512856" lon="8.376938">
|
|
<ele>6.808569</ele>
|
|
<time>2026-07-11T10:06:05.000Z</time>
|
|
</trkpt>
|
|
<trkpt lat="55.512890" lon="8.376863">
|
|
<ele>6.819104</ele>
|
|
<time>2026-07-11T10:06:06.000Z</time>
|
|
</trkpt>
|
|
<trkpt lat="55.512923" lon="8.376788">
|
|
<ele>6.829519</ele>
|
|
<time>2026-07-11T10:06:07.000Z</time>
|
|
</trkpt>
|
|
<trkpt lat="55.512955" lon="8.376713">
|
|
<ele>6.839817</ele>
|
|
<time>2026-07-11T10:06:08.000Z</time>
|
|
</trkpt>
|
|
<trkpt lat="55.512988" lon="8.376638">
|
|
<ele>6.850232</ele>
|
|
<time>2026-07-11T10:06:09.000Z</time>
|
|
</trkpt>
|
|
<trkpt lat="55.513018" lon="8.376562">
|
|
<ele>6.860390</ele>
|
|
<time>2026-07-11T10:06:10.000Z</time>
|
|
</trkpt>
|
|
<trkpt lat="55.513050" lon="8.376486">
|
|
<ele>6.870775</ele>
|
|
<time>2026-07-11T10:06:11.000Z</time>
|
|
</trkpt>
|
|
<trkpt lat="55.513083" lon="8.376410">
|
|
<ele>6.881277</ele>
|
|
<time>2026-07-11T10:06:12.000Z</time>
|
|
</trkpt>
|
|
<trkpt lat="55.513115" lon="8.376339">
|
|
<ele>6.891228</ele>
|
|
<time>2026-07-11T10:06:13.000Z</time>
|
|
</trkpt>
|
|
<trkpt lat="55.513149" lon="8.376266">
|
|
<ele>6.901592</ele>
|
|
<time>2026-07-11T10:06:14.000Z</time>
|
|
</trkpt>
|
|
<trkpt lat="55.513184" lon="8.376192">
|
|
<ele>6.912165</ele>
|
|
<time>2026-07-11T10:06:15.000Z</time>
|
|
</trkpt>
|
|
<trkpt lat="55.513218" lon="8.376117">
|
|
<ele>6.922700</ele>
|
|
<time>2026-07-11T10:06:16.000Z</time>
|
|
</trkpt>
|
|
<trkpt lat="55.513252" lon="8.376043">
|
|
<ele>6.933149</ele>
|
|
<time>2026-07-11T10:06:17.000Z</time>
|
|
</trkpt>
|
|
<trkpt lat="55.513285" lon="8.375969">
|
|
<ele>6.943478</ele>
|
|
<time>2026-07-11T10:06:18.000Z</time>
|
|
</trkpt>
|
|
<trkpt lat="55.513315" lon="8.375896">
|
|
<ele>6.953369</ele>
|
|
<time>2026-07-11T10:06:19.000Z</time>
|
|
</trkpt>
|
|
<trkpt lat="55.513348" lon="8.375823">
|
|
<ele>6.963611</ele>
|
|
<time>2026-07-11T10:06:20.000Z</time>
|
|
</trkpt>
|
|
<trkpt lat="55.513381" lon="8.375751">
|
|
<ele>6.973768</ele>
|
|
<time>2026-07-11T10:06:21.000Z</time>
|
|
</trkpt>
|
|
<trkpt lat="55.513411" lon="8.375678">
|
|
<ele>7.028223</ele>
|
|
<time>2026-07-11T10:06:22.000Z</time>
|
|
</trkpt>
|
|
<trkpt lat="55.513442" lon="8.375604">
|
|
<ele>7.095242</ele>
|
|
<time>2026-07-11T10:06:23.000Z</time>
|
|
</trkpt>
|
|
<trkpt lat="55.513470" lon="8.375527">
|
|
<ele>7.161867</ele>
|
|
<time>2026-07-11T10:06:24.000Z</time>
|
|
</trkpt>
|
|
<trkpt lat="55.513499" lon="8.375450">
|
|
<ele>7.229196</ele>
|
|
<time>2026-07-11T10:06:25.000Z</time>
|
|
</trkpt>
|
|
<trkpt lat="55.513529" lon="8.375376">
|
|
<ele>7.295458</ele>
|
|
<time>2026-07-11T10:06:26.000Z</time>
|
|
</trkpt>
|
|
<trkpt lat="55.513561" lon="8.375304">
|
|
<ele>7.362097</ele>
|
|
<time>2026-07-11T10:06:27.000Z</time>
|
|
</trkpt>
|
|
<trkpt lat="55.513594" lon="8.375230">
|
|
<ele>7.430677</ele>
|
|
<time>2026-07-11T10:06:28.000Z</time>
|
|
</trkpt>
|
|
<trkpt lat="55.513624" lon="8.375158">
|
|
<ele>7.495760</ele>
|
|
<time>2026-07-11T10:06:29.000Z</time>
|
|
</trkpt>
|
|
<trkpt lat="55.513655" lon="8.375086">
|
|
<ele>7.561613</ele>
|
|
<time>2026-07-11T10:06:30.000Z</time>
|
|
</trkpt>
|
|
<trkpt lat="55.513686" lon="8.375011">
|
|
<ele>7.629218</ele>
|
|
<time>2026-07-11T10:06:31.000Z</time>
|
|
</trkpt>
|
|
<trkpt lat="55.513715" lon="8.374938">
|
|
<ele>7.694142</ele>
|
|
<time>2026-07-11T10:06:32.000Z</time>
|
|
</trkpt>
|
|
<trkpt lat="55.513745" lon="8.374867">
|
|
<ele>7.758640</ele>
|
|
<time>2026-07-11T10:06:33.000Z</time>
|
|
</trkpt>
|
|
<trkpt lat="55.513777" lon="8.374796">
|
|
<ele>7.824709</ele>
|
|
<time>2026-07-11T10:06:34.000Z</time>
|
|
</trkpt>
|
|
<trkpt lat="55.513805" lon="8.374723">
|
|
<ele>7.888902</ele>
|
|
<time>2026-07-11T10:06:35.000Z</time>
|
|
</trkpt>
|
|
<trkpt lat="55.513835" lon="8.374647">
|
|
<ele>7.956353</ele>
|
|
<time>2026-07-11T10:06:36.000Z</time>
|
|
</trkpt>
|
|
<trkpt lat="55.513869" lon="8.374569">
|
|
<ele>8.028020</ele>
|
|
<time>2026-07-11T10:06:37.000Z</time>
|
|
</trkpt>
|
|
<trkpt lat="55.513901" lon="8.374497">
|
|
<ele>8.094659</ele>
|
|
<time>2026-07-11T10:06:38.000Z</time>
|
|
</trkpt>
|
|
<trkpt lat="55.513935" lon="8.374430">
|
|
<ele>8.160162</ele>
|
|
<time>2026-07-11T10:06:39.000Z</time>
|
|
</trkpt>
|
|
<trkpt lat="55.513967" lon="8.374362">
|
|
<ele>8.224536</ele>
|
|
<time>2026-07-11T10:06:40.000Z</time>
|
|
</trkpt>
|
|
<trkpt lat="55.513999" lon="8.374291">
|
|
<ele>8.290604</ele>
|
|
<time>2026-07-11T10:06:41.000Z</time>
|
|
</trkpt>
|
|
<trkpt lat="55.514027" lon="8.374226">
|
|
<ele>8.350065</ele>
|
|
<time>2026-07-11T10:06:42.000Z</time>
|
|
</trkpt>
|
|
<trkpt lat="55.514054" lon="8.374161">
|
|
<ele>8.408757</ele>
|
|
<time>2026-07-11T10:06:43.000Z</time>
|
|
</trkpt>
|
|
<trkpt lat="55.514084" lon="8.374094">
|
|
<ele>8.470945</ele>
|
|
<time>2026-07-11T10:06:44.000Z</time>
|
|
</trkpt>
|
|
<trkpt lat="55.514117" lon="8.374025">
|
|
<ele>8.536703</ele>
|
|
<time>2026-07-11T10:06:45.000Z</time>
|
|
</trkpt>
|
|
<trkpt lat="55.514145" lon="8.373959">
|
|
<ele>8.596745</ele>
|
|
<time>2026-07-11T10:06:46.000Z</time>
|
|
</trkpt>
|
|
<trkpt lat="55.514174" lon="8.373895">
|
|
<ele>8.656424</ele>
|
|
<time>2026-07-11T10:06:47.000Z</time>
|
|
</trkpt>
|
|
<trkpt lat="55.514203" lon="8.373829">
|
|
<ele>8.717246</ele>
|
|
<time>2026-07-11T10:06:48.000Z</time>
|
|
</trkpt>
|
|
<trkpt lat="55.514231" lon="8.373761">
|
|
<ele>8.778459</ele>
|
|
<time>2026-07-11T10:06:49.000Z</time>
|
|
</trkpt>
|
|
<trkpt lat="55.514262" lon="8.373693">
|
|
<ele>8.842019</ele>
|
|
<time>2026-07-11T10:06:50.000Z</time>
|
|
</trkpt>
|
|
<trkpt lat="55.514292" lon="8.373626">
|
|
<ele>8.904207</ele>
|
|
<time>2026-07-11T10:06:51.000Z</time>
|
|
</trkpt>
|
|
<trkpt lat="55.514323" lon="8.373562">
|
|
<ele>8.965525</ele>
|
|
<time>2026-07-11T10:06:52.000Z</time>
|
|
</trkpt>
|
|
<trkpt lat="55.514353" lon="8.373498">
|
|
<ele>9.026015</ele>
|
|
<time>2026-07-11T10:06:53.000Z</time>
|
|
</trkpt>
|
|
<trkpt lat="55.514382" lon="8.373435">
|
|
<ele>9.085126</ele>
|
|
<time>2026-07-11T10:06:54.000Z</time>
|
|
</trkpt>
|
|
<trkpt lat="55.514410" lon="8.373369">
|
|
<ele>9.145169</ele>
|
|
<time>2026-07-11T10:06:55.000Z</time>
|
|
</trkpt>
|
|
<trkpt lat="55.514442" lon="8.373301">
|
|
<ele>9.209542</ele>
|
|
<time>2026-07-11T10:06:56.000Z</time>
|
|
</trkpt>
|
|
<trkpt lat="55.514473" lon="8.373235">
|
|
<ele>9.271973</ele>
|
|
<time>2026-07-11T10:06:57.000Z</time>
|
|
</trkpt>
|
|
<trkpt lat="55.514500" lon="8.373172">
|
|
<ele>9.341297</ele>
|
|
<time>2026-07-11T10:06:58.000Z</time>
|
|
</trkpt>
|
|
<trkpt lat="55.514525" lon="8.373111">
|
|
<ele>9.411900</ele>
|
|
<time>2026-07-11T10:06:59.000Z</time>
|
|
</trkpt>
|
|
<trkpt lat="55.514549" lon="8.373051">
|
|
<ele>9.480778</ele>
|
|
<time>2026-07-11T10:07:00.000Z</time>
|
|
</trkpt>
|
|
<trkpt lat="55.514574" lon="8.372988">
|
|
<ele>9.552908</ele>
|
|
<time>2026-07-11T10:07:01.000Z</time>
|
|
</trkpt>
|
|
<trkpt lat="55.514600" lon="8.372921">
|
|
<ele>9.629065</ele>
|
|
<time>2026-07-11T10:07:02.000Z</time>
|
|
</trkpt>
|
|
<trkpt lat="55.514626" lon="8.372854">
|
|
<ele>9.705221</ele>
|
|
<time>2026-07-11T10:07:03.000Z</time>
|
|
</trkpt>
|
|
<trkpt lat="55.514655" lon="8.372789">
|
|
<ele>9.782811</ele>
|
|
<time>2026-07-11T10:07:04.000Z</time>
|
|
</trkpt>
|
|
<trkpt lat="55.514683" lon="8.372725">
|
|
<ele>9.858642</ele>
|
|
<time>2026-07-11T10:07:05.000Z</time>
|
|
</trkpt>
|
|
<trkpt lat="55.514710" lon="8.372662">
|
|
<ele>9.932723</ele>
|
|
<time>2026-07-11T10:07:06.000Z</time>
|
|
</trkpt>
|
|
<trkpt lat="55.514737" lon="8.372598">
|
|
<ele>10.007554</ele>
|
|
<time>2026-07-11T10:07:07.000Z</time>
|
|
</trkpt>
|
|
<trkpt lat="55.514764" lon="8.372532">
|
|
<ele>10.083897</ele>
|
|
<time>2026-07-11T10:07:08.000Z</time>
|
|
</trkpt>
|
|
<trkpt lat="55.514794" lon="8.372466">
|
|
<ele>10.163251</ele>
|
|
<time>2026-07-11T10:07:09.000Z</time>
|
|
</trkpt>
|
|
<trkpt lat="55.514826" lon="8.372401">
|
|
<ele>10.244009</ele>
|
|
<time>2026-07-11T10:07:10.000Z</time>
|
|
</trkpt>
|
|
<trkpt lat="55.514857" lon="8.372335">
|
|
<ele>10.324410</ele>
|
|
<time>2026-07-11T10:07:11.000Z</time>
|
|
</trkpt>
|
|
<trkpt lat="55.514887" lon="8.372269">
|
|
<ele>10.403764</ele>
|
|
<time>2026-07-11T10:07:12.000Z</time>
|
|
</trkpt>
|
|
<trkpt lat="55.514916" lon="8.372206">
|
|
<ele>10.479890</ele>
|
|
<time>2026-07-11T10:07:13.000Z</time>
|
|
</trkpt>
|
|
<trkpt lat="55.514943" lon="8.372144">
|
|
<ele>10.553225</ele>
|
|
<time>2026-07-11T10:07:14.000Z</time>
|
|
</trkpt>
|
|
<trkpt lat="55.514971" lon="8.372080">
|
|
<ele>10.629056</ele>
|
|
<time>2026-07-11T10:07:15.000Z</time>
|
|
</trkpt>
|
|
<trkpt lat="55.515002" lon="8.372013">
|
|
<ele>10.710181</ele>
|
|
<time>2026-07-11T10:07:16.000Z</time>
|
|
</trkpt>
|
|
<trkpt lat="55.515031" lon="8.371947">
|
|
<ele>10.788509</ele>
|
|
<time>2026-07-11T10:07:17.000Z</time>
|
|
</trkpt>
|
|
<trkpt lat="55.515057" lon="8.371882">
|
|
<ele>10.863126</ele>
|
|
<time>2026-07-11T10:07:18.000Z</time>
|
|
</trkpt>
|
|
<trkpt lat="55.515082" lon="8.371816">
|
|
<ele>10.937576</ele>
|
|
<time>2026-07-11T10:07:19.000Z</time>
|
|
</trkpt>
|
|
<trkpt lat="55.515107" lon="8.371749">
|
|
<ele>11.012808</ele>
|
|
<time>2026-07-11T10:07:20.000Z</time>
|
|
</trkpt>
|
|
<trkpt lat="55.515133" lon="8.371683">
|
|
<ele>11.088193</ele>
|
|
<time>2026-07-11T10:07:21.000Z</time>
|
|
</trkpt>
|
|
<trkpt lat="55.515162" lon="8.371618">
|
|
<ele>11.165782</ele>
|
|
<time>2026-07-11T10:07:22.000Z</time>
|
|
</trkpt>
|
|
<trkpt lat="55.515194" lon="8.371554">
|
|
<ele>11.245835</ele>
|
|
<time>2026-07-11T10:07:23.000Z</time>
|
|
</trkpt>
|
|
<trkpt lat="55.515225" lon="8.371490">
|
|
<ele>11.324801</ele>
|
|
<time>2026-07-11T10:07:24.000Z</time>
|
|
</trkpt>
|
|
<trkpt lat="55.515251" lon="8.371426">
|
|
<ele>11.398654</ele>
|
|
<time>2026-07-11T10:07:25.000Z</time>
|
|
</trkpt>
|
|
<trkpt lat="55.515276" lon="8.371365">
|
|
<ele>11.469256</ele>
|
|
<time>2026-07-11T10:07:26.000Z</time>
|
|
</trkpt>
|
|
<trkpt lat="55.515300" lon="8.371305">
|
|
<ele>11.538133</ele>
|
|
<time>2026-07-11T10:07:27.000Z</time>
|
|
</trkpt>
|
|
<trkpt lat="55.515326" lon="8.371244">
|
|
<ele>11.609719</ele>
|
|
<time>2026-07-11T10:07:28.000Z</time>
|
|
</trkpt>
|
|
<trkpt lat="55.515354" lon="8.371182">
|
|
<ele>11.684075</ele>
|
|
<time>2026-07-11T10:07:29.000Z</time>
|
|
</trkpt>
|
|
<trkpt lat="55.515379" lon="8.371115">
|
|
<ele>11.759306</ele>
|
|
<time>2026-07-11T10:07:30.000Z</time>
|
|
</trkpt>
|
|
<trkpt lat="55.515404" lon="8.371045">
|
|
<ele>11.836902</ele>
|
|
<time>2026-07-11T10:07:31.000Z</time>
|
|
</trkpt>
|
|
<trkpt lat="55.515431" lon="8.370976">
|
|
<ele>11.915541</ele>
|
|
<time>2026-07-11T10:07:32.000Z</time>
|
|
</trkpt>
|
|
<trkpt lat="55.515460" lon="8.370908">
|
|
<ele>11.995358</ele>
|
|
<time>2026-07-11T10:07:33.000Z</time>
|
|
</trkpt>
|
|
<trkpt lat="55.515492" lon="8.370843">
|
|
<ele>12.076115</ele>
|
|
<time>2026-07-11T10:07:34.000Z</time>
|
|
</trkpt>
|
|
<trkpt lat="55.515526" lon="8.370782">
|
|
<ele>12.156370</ele>
|
|
<time>2026-07-11T10:07:35.000Z</time>
|
|
</trkpt>
|
|
<trkpt lat="55.515558" lon="8.370719">
|
|
<ele>12.235722</ele>
|
|
<time>2026-07-11T10:07:36.000Z</time>
|
|
</trkpt>
|
|
<trkpt lat="55.515588" lon="8.370650">
|
|
<ele>12.273172</ele>
|
|
<time>2026-07-11T10:07:37.000Z</time>
|
|
</trkpt>
|
|
<trkpt lat="55.515614" lon="8.370581">
|
|
<ele>12.282792</ele>
|
|
<time>2026-07-11T10:07:38.000Z</time>
|
|
</trkpt>
|
|
<trkpt lat="55.515642" lon="8.370516">
|
|
<ele>12.292271</ele>
|
|
<time>2026-07-11T10:07:39.000Z</time>
|
|
</trkpt>
|
|
<trkpt lat="55.515671" lon="8.370450">
|
|
<ele>12.301968</ele>
|
|
<time>2026-07-11T10:07:40.000Z</time>
|
|
</trkpt>
|
|
<trkpt lat="55.515698" lon="8.370385">
|
|
<ele>12.311324</ele>
|
|
<time>2026-07-11T10:07:41.000Z</time>
|
|
</trkpt>
|
|
<trkpt lat="55.515727" lon="8.370322">
|
|
<ele>12.320748</ele>
|
|
<time>2026-07-11T10:07:42.000Z</time>
|
|
</trkpt>
|
|
<trkpt lat="55.515759" lon="8.370259">
|
|
<ele>12.330572</ele>
|
|
<time>2026-07-11T10:07:43.000Z</time>
|
|
</trkpt>
|
|
<trkpt lat="55.515790" lon="8.370197">
|
|
<ele>12.340172</ele>
|
|
<time>2026-07-11T10:07:44.000Z</time>
|
|
</trkpt>
|
|
<trkpt lat="55.515818" lon="8.370134">
|
|
<ele>12.349468</ele>
|
|
<time>2026-07-11T10:07:45.000Z</time>
|
|
</trkpt>
|
|
<trkpt lat="55.515847" lon="8.370072">
|
|
<ele>12.358802</ele>
|
|
<time>2026-07-11T10:07:46.000Z</time>
|
|
</trkpt>
|
|
<trkpt lat="55.515874" lon="8.370007">
|
|
<ele>12.368158</ele>
|
|
<time>2026-07-11T10:07:47.000Z</time>
|
|
</trkpt>
|
|
<trkpt lat="55.515900" lon="8.369942">
|
|
<ele>12.377395</ele>
|
|
<time>2026-07-11T10:07:48.000Z</time>
|
|
</trkpt>
|
|
<trkpt lat="55.515927" lon="8.369878">
|
|
<ele>12.386659</ele>
|
|
<time>2026-07-11T10:07:49.000Z</time>
|
|
</trkpt>
|
|
<trkpt lat="55.515954" lon="8.369816">
|
|
<ele>12.395737</ele>
|
|
<time>2026-07-11T10:07:50.000Z</time>
|
|
</trkpt>
|
|
<trkpt lat="55.515980" lon="8.369757">
|
|
<ele>12.404415</ele>
|
|
<time>2026-07-11T10:07:51.000Z</time>
|
|
</trkpt>
|
|
<trkpt lat="55.516007" lon="8.369700">
|
|
<ele>12.413040</ele>
|
|
<time>2026-07-11T10:07:52.000Z</time>
|
|
</trkpt>
|
|
<trkpt lat="55.516039" lon="8.369644">
|
|
<ele>12.422275</ele>
|
|
<time>2026-07-11T10:07:53.000Z</time>
|
|
</trkpt>
|
|
<trkpt lat="55.516075" lon="8.369587">
|
|
<ele>12.432186</ele>
|
|
<time>2026-07-11T10:07:54.000Z</time>
|
|
</trkpt>
|
|
<trkpt lat="55.516106" lon="8.369531">
|
|
<ele>12.441276</ele>
|
|
<time>2026-07-11T10:07:55.000Z</time>
|
|
</trkpt>
|
|
<trkpt lat="55.516135" lon="8.369474">
|
|
<ele>12.450170</ele>
|
|
<time>2026-07-11T10:07:56.000Z</time>
|
|
</trkpt>
|
|
<trkpt lat="55.516164" lon="8.369421">
|
|
<ele>12.458725</ele>
|
|
<time>2026-07-11T10:07:57.000Z</time>
|
|
</trkpt>
|
|
<trkpt lat="55.516187" lon="8.369372">
|
|
<ele>12.466112</ele>
|
|
<time>2026-07-11T10:07:58.000Z</time>
|
|
</trkpt>
|
|
<trkpt lat="55.516208" lon="8.369328">
|
|
<ele>12.472791</ele>
|
|
<time>2026-07-11T10:07:59.000Z</time>
|
|
</trkpt>
|
|
<trkpt lat="55.516225" lon="8.369289">
|
|
<ele>12.478504</ele>
|
|
<time>2026-07-11T10:08:00.000Z</time>
|
|
</trkpt>
|
|
<trkpt lat="55.516237" lon="8.369264">
|
|
<ele>12.482308</ele>
|
|
<time>2026-07-11T10:08:01.000Z</time>
|
|
</trkpt>
|
|
<trkpt lat="55.516269" lon="8.369230">
|
|
<ele>12.489963</ele>
|
|
<time>2026-07-11T10:08:17.000Z</time>
|
|
</trkpt>
|
|
<trkpt lat="55.516303" lon="8.369171">
|
|
<ele>12.499734</ele>
|
|
<time>2026-07-11T10:08:18.000Z</time>
|
|
</trkpt>
|
|
<trkpt lat="55.516320" lon="8.369131">
|
|
<ele>12.505539</ele>
|
|
<time>2026-07-11T10:08:19.000Z</time>
|
|
</trkpt>
|
|
<trkpt lat="55.516339" lon="8.369089">
|
|
<ele>12.511779</ele>
|
|
<time>2026-07-11T10:08:20.000Z</time>
|
|
</trkpt>
|
|
<trkpt lat="55.516362" lon="8.369046">
|
|
<ele>12.518644</ele>
|
|
<time>2026-07-11T10:08:21.000Z</time>
|
|
</trkpt>
|
|
<trkpt lat="55.516385" lon="8.368999">
|
|
<ele>12.525855</ele>
|
|
<time>2026-07-11T10:08:22.000Z</time>
|
|
</trkpt>
|
|
<trkpt lat="55.516407" lon="8.368949">
|
|
<ele>12.533204</ele>
|
|
<time>2026-07-11T10:08:23.000Z</time>
|
|
</trkpt>
|
|
<trkpt lat="55.516433" lon="8.368896">
|
|
<ele>12.541343</ele>
|
|
<time>2026-07-11T10:08:24.000Z</time>
|
|
</trkpt>
|
|
<trkpt lat="55.516457" lon="8.368841">
|
|
<ele>12.549403</ele>
|
|
<time>2026-07-11T10:08:25.000Z</time>
|
|
</trkpt>
|
|
<trkpt lat="55.516484" lon="8.368783">
|
|
<ele>12.558118</ele>
|
|
<time>2026-07-11T10:08:26.000Z</time>
|
|
</trkpt>
|
|
<trkpt lat="55.516512" lon="8.368721">
|
|
<ele>12.567322</ele>
|
|
<time>2026-07-11T10:08:27.000Z</time>
|
|
</trkpt>
|
|
<trkpt lat="55.516542" lon="8.368656">
|
|
<ele>12.577055</ele>
|
|
<time>2026-07-11T10:08:28.000Z</time>
|
|
</trkpt>
|
|
<trkpt lat="55.516575" lon="8.368591">
|
|
<ele>12.587188</ele>
|
|
<time>2026-07-11T10:08:29.000Z</time>
|
|
</trkpt>
|
|
<trkpt lat="55.516607" lon="8.368523">
|
|
<ele>12.597451</ele>
|
|
<time>2026-07-11T10:08:30.000Z</time>
|
|
</trkpt>
|
|
<trkpt lat="55.516638" lon="8.368453">
|
|
<ele>12.607765</ele>
|
|
<time>2026-07-11T10:08:31.000Z</time>
|
|
</trkpt>
|
|
<trkpt lat="55.516672" lon="8.368381">
|
|
<ele>12.618647</ele>
|
|
<time>2026-07-11T10:08:32.000Z</time>
|
|
</trkpt>
|
|
<trkpt lat="55.516707" lon="8.368308">
|
|
<ele>12.629749</ele>
|
|
<time>2026-07-11T10:08:33.000Z</time>
|
|
</trkpt>
|
|
<trkpt lat="55.516741" lon="8.368233">
|
|
<ele>12.589328</ele>
|
|
<time>2026-07-11T10:08:34.000Z</time>
|
|
</trkpt>
|
|
<trkpt lat="55.516779" lon="8.368154">
|
|
<ele>12.483114</ele>
|
|
<time>2026-07-11T10:08:35.000Z</time>
|
|
</trkpt>
|
|
<trkpt lat="55.516817" lon="8.368073">
|
|
<ele>12.375331</ele>
|
|
<time>2026-07-11T10:08:36.000Z</time>
|
|
</trkpt>
|
|
<trkpt lat="55.516857" lon="8.367993">
|
|
<ele>12.265973</ele>
|
|
<time>2026-07-11T10:08:37.000Z</time>
|
|
</trkpt>
|
|
<trkpt lat="55.516897" lon="8.367913">
|
|
<ele>12.156616</ele>
|
|
<time>2026-07-11T10:08:38.000Z</time>
|
|
</trkpt>
|
|
<trkpt lat="55.516935" lon="8.367830">
|
|
<ele>12.047247</ele>
|
|
<time>2026-07-11T10:08:39.000Z</time>
|
|
</trkpt>
|
|
<trkpt lat="55.516974" lon="8.367744">
|
|
<ele>11.934349</ele>
|
|
<time>2026-07-11T10:08:40.000Z</time>
|
|
</trkpt>
|
|
<trkpt lat="55.517012" lon="8.367655">
|
|
<ele>11.820135</ele>
|
|
<time>2026-07-11T10:08:41.000Z</time>
|
|
</trkpt>
|
|
<trkpt lat="55.517052" lon="8.367568">
|
|
<ele>11.705303</ele>
|
|
<time>2026-07-11T10:08:42.000Z</time>
|
|
</trkpt>
|
|
<trkpt lat="55.517093" lon="8.367483">
|
|
<ele>11.590890</ele>
|
|
<time>2026-07-11T10:08:43.000Z</time>
|
|
</trkpt>
|
|
<trkpt lat="55.517134" lon="8.367396">
|
|
<ele>11.474909</ele>
|
|
<time>2026-07-11T10:08:44.000Z</time>
|
|
</trkpt>
|
|
<trkpt lat="55.517177" lon="8.367305">
|
|
<ele>11.353463</ele>
|
|
<time>2026-07-11T10:08:45.000Z</time>
|
|
</trkpt>
|
|
<trkpt lat="55.517219" lon="8.367215">
|
|
<ele>11.233960</ele>
|
|
<time>2026-07-11T10:08:46.000Z</time>
|
|
</trkpt>
|
|
<trkpt lat="55.517261" lon="8.367125">
|
|
<ele>11.114458</ele>
|
|
<time>2026-07-11T10:08:47.000Z</time>
|
|
</trkpt>
|
|
<trkpt lat="55.517303" lon="8.367036">
|
|
<ele>10.995745</ele>
|
|
<time>2026-07-11T10:08:48.000Z</time>
|
|
</trkpt>
|
|
<trkpt lat="55.517345" lon="8.366949">
|
|
<ele>10.878598</ele>
|
|
<time>2026-07-11T10:08:49.000Z</time>
|
|
</trkpt>
|
|
<trkpt lat="55.517385" lon="8.366861">
|
|
<ele>10.762970</ele>
|
|
<time>2026-07-11T10:08:50.000Z</time>
|
|
</trkpt>
|
|
<trkpt lat="55.517425" lon="8.366767">
|
|
<ele>10.642487</ele>
|
|
<time>2026-07-11T10:08:51.000Z</time>
|
|
</trkpt>
|
|
<trkpt lat="55.517467" lon="8.366672">
|
|
<ele>10.518989</ele>
|
|
<time>2026-07-11T10:08:52.000Z</time>
|
|
</trkpt>
|
|
<trkpt lat="55.517509" lon="8.366578">
|
|
<ele>10.396297</ele>
|
|
<time>2026-07-11T10:08:53.000Z</time>
|
|
</trkpt>
|
|
<trkpt lat="55.517551" lon="8.366487">
|
|
<ele>10.276003</ele>
|
|
<time>2026-07-11T10:08:54.000Z</time>
|
|
</trkpt>
|
|
<trkpt lat="55.517595" lon="8.366397">
|
|
<ele>10.154167</ele>
|
|
<time>2026-07-11T10:08:55.000Z</time>
|
|
</trkpt>
|
|
<trkpt lat="55.517639" lon="8.366304">
|
|
<ele>10.029989</ele>
|
|
<time>2026-07-11T10:08:56.000Z</time>
|
|
</trkpt>
|
|
<trkpt lat="55.517680" lon="8.366211">
|
|
<ele>9.909220</ele>
|
|
<time>2026-07-11T10:08:57.000Z</time>
|
|
</trkpt>
|
|
<trkpt lat="55.517723" lon="8.366115">
|
|
<ele>9.783799</ele>
|
|
<time>2026-07-11T10:08:58.000Z</time>
|
|
</trkpt>
|
|
<trkpt lat="55.517765" lon="8.366021">
|
|
<ele>9.661107</ele>
|
|
<time>2026-07-11T10:08:59.000Z</time>
|
|
</trkpt>
|
|
<trkpt lat="55.517806" lon="8.365928">
|
|
<ele>9.540339</ele>
|
|
<time>2026-07-11T10:09:00.000Z</time>
|
|
</trkpt>
|
|
<trkpt lat="55.517850" lon="8.365835">
|
|
<ele>9.416161</ele>
|
|
<time>2026-07-11T10:09:01.000Z</time>
|
|
</trkpt>
|
|
<trkpt lat="55.517895" lon="8.365743">
|
|
<ele>9.424882</ele>
|
|
<time>2026-07-11T10:09:02.000Z</time>
|
|
</trkpt>
|
|
<trkpt lat="55.517937" lon="8.365653">
|
|
<ele>9.484378</ele>
|
|
<time>2026-07-11T10:09:03.000Z</time>
|
|
</trkpt>
|
|
<trkpt lat="55.517979" lon="8.365563">
|
|
<ele>9.543874</ele>
|
|
<time>2026-07-11T10:09:04.000Z</time>
|
|
</trkpt>
|
|
<trkpt lat="55.518020" lon="8.365474">
|
|
<ele>9.602404</ele>
|
|
<time>2026-07-11T10:09:05.000Z</time>
|
|
</trkpt>
|
|
<trkpt lat="55.518060" lon="8.365387">
|
|
<ele>9.659574</ele>
|
|
<time>2026-07-11T10:09:06.000Z</time>
|
|
</trkpt>
|
|
<trkpt lat="55.518098" lon="8.365303">
|
|
<ele>9.714422</ele>
|
|
<time>2026-07-11T10:09:07.000Z</time>
|
|
</trkpt>
|
|
<trkpt lat="55.518137" lon="8.365218">
|
|
<ele>9.770232</ele>
|
|
<time>2026-07-11T10:09:08.000Z</time>
|
|
</trkpt>
|
|
<trkpt lat="55.518173" lon="8.365135">
|
|
<ele>9.823568</ele>
|
|
<time>2026-07-11T10:09:09.000Z</time>
|
|
</trkpt>
|
|
<trkpt lat="55.518208" lon="8.365056">
|
|
<ele>9.874738</ele>
|
|
<time>2026-07-11T10:09:10.000Z</time>
|
|
</trkpt>
|
|
<trkpt lat="55.518242" lon="8.364975">
|
|
<ele>9.926174</ele>
|
|
<time>2026-07-11T10:09:11.000Z</time>
|
|
</trkpt>
|
|
<trkpt lat="55.518275" lon="8.364898">
|
|
<ele>9.975437</ele>
|
|
<time>2026-07-11T10:09:12.000Z</time>
|
|
</trkpt>
|
|
<trkpt lat="55.518303" lon="8.364825">
|
|
<ele>10.020416</ele>
|
|
<time>2026-07-11T10:09:13.000Z</time>
|
|
</trkpt>
|
|
<trkpt lat="55.518332" lon="8.364756">
|
|
<ele>10.064252</ele>
|
|
<time>2026-07-11T10:09:14.000Z</time>
|
|
</trkpt>
|
|
<trkpt lat="55.518362" lon="8.364689">
|
|
<ele>10.107826</ele>
|
|
<time>2026-07-11T10:09:15.000Z</time>
|
|
</trkpt>
|
|
<trkpt lat="55.518396" lon="8.364618">
|
|
<ele>10.155262</ele>
|
|
<time>2026-07-11T10:09:16.000Z</time>
|
|
</trkpt>
|
|
<trkpt lat="55.518433" lon="8.364548">
|
|
<ele>10.204112</ele>
|
|
<time>2026-07-11T10:09:17.000Z</time>
|
|
</trkpt>
|
|
<trkpt lat="55.518467" lon="8.364476">
|
|
<ele>10.251938</ele>
|
|
<time>2026-07-11T10:09:18.000Z</time>
|
|
</trkpt>
|
|
<trkpt lat="55.518500" lon="8.364405">
|
|
<ele>10.298797</ele>
|
|
<time>2026-07-11T10:09:19.000Z</time>
|
|
</trkpt>
|
|
<trkpt lat="55.518529" lon="8.364335">
|
|
<ele>10.343044</ele>
|
|
<time>2026-07-11T10:09:20.000Z</time>
|
|
</trkpt>
|
|
<trkpt lat="55.518555" lon="8.364266">
|
|
<ele>10.385324</ele>
|
|
<time>2026-07-11T10:09:21.000Z</time>
|
|
</trkpt>
|
|
<trkpt lat="55.518583" lon="8.364195">
|
|
<ele>10.429461</ele>
|
|
<time>2026-07-11T10:09:22.000Z</time>
|
|
</trkpt>
|
|
<trkpt lat="55.518616" lon="8.364120">
|
|
<ele>10.477914</ele>
|
|
<time>2026-07-11T10:09:23.000Z</time>
|
|
</trkpt>
|
|
<trkpt lat="55.518650" lon="8.364047">
|
|
<ele>10.526133</ele>
|
|
<time>2026-07-11T10:09:24.000Z</time>
|
|
</trkpt>
|
|
<trkpt lat="55.518684" lon="8.363975">
|
|
<ele>10.573960</ele>
|
|
<time>2026-07-11T10:09:25.000Z</time>
|
|
</trkpt>
|
|
<trkpt lat="55.518720" lon="8.363902">
|
|
<ele>10.623343</ele>
|
|
<time>2026-07-11T10:09:26.000Z</time>
|
|
</trkpt>
|
|
<trkpt lat="55.518758" lon="8.363829">
|
|
<ele>10.673928</ele>
|
|
<time>2026-07-11T10:09:27.000Z</time>
|
|
</trkpt>
|
|
<trkpt lat="55.518794" lon="8.363755">
|
|
<ele>10.723697</ele>
|
|
<time>2026-07-11T10:09:28.000Z</time>
|
|
</trkpt>
|
|
<trkpt lat="55.518826" lon="8.363683">
|
|
<ele>10.770390</ele>
|
|
<time>2026-07-11T10:09:29.000Z</time>
|
|
</trkpt>
|
|
<trkpt lat="55.518859" lon="8.363612">
|
|
<ele>10.817248</ele>
|
|
<time>2026-07-11T10:09:30.000Z</time>
|
|
</trkpt>
|
|
<trkpt lat="55.518889" lon="8.363541">
|
|
<ele>10.862440</ele>
|
|
<time>2026-07-11T10:09:31.000Z</time>
|
|
</trkpt>
|
|
<trkpt lat="55.518921" lon="8.363469">
|
|
<ele>10.909132</ele>
|
|
<time>2026-07-11T10:09:32.000Z</time>
|
|
</trkpt>
|
|
<trkpt lat="55.518954" lon="8.363399">
|
|
<ele>10.955598</ele>
|
|
<time>2026-07-11T10:09:33.000Z</time>
|
|
</trkpt>
|
|
<trkpt lat="55.518986" lon="8.363329">
|
|
<ele>11.001229</ele>
|
|
<time>2026-07-11T10:09:34.000Z</time>
|
|
</trkpt>
|
|
<trkpt lat="55.519020" lon="8.363258">
|
|
<ele>11.008785</ele>
|
|
<time>2026-07-11T10:09:35.000Z</time>
|
|
</trkpt>
|
|
<trkpt lat="55.519054" lon="8.363184">
|
|
<ele>11.016529</ele>
|
|
<time>2026-07-11T10:09:36.000Z</time>
|
|
</trkpt>
|
|
<trkpt lat="55.519088" lon="8.363111">
|
|
<ele>11.024211</ele>
|
|
<time>2026-07-11T10:09:37.000Z</time>
|
|
</trkpt>
|
|
<trkpt lat="55.519124" lon="8.363040">
|
|
<ele>11.031956</ele>
|
|
<time>2026-07-11T10:09:38.000Z</time>
|
|
</trkpt>
|
|
<trkpt lat="55.519163" lon="8.362972">
|
|
<ele>11.039821</ele>
|
|
<time>2026-07-11T10:09:39.000Z</time>
|
|
</trkpt>
|
|
<trkpt lat="55.519199" lon="8.362908">
|
|
<ele>11.047152</ele>
|
|
<time>2026-07-11T10:09:40.000Z</time>
|
|
</trkpt>
|
|
<trkpt lat="55.519228" lon="8.362844">
|
|
<ele>11.053814</ele>
|
|
<time>2026-07-11T10:09:41.000Z</time>
|
|
</trkpt>
|
|
<trkpt lat="55.519257" lon="8.362779">
|
|
<ele>11.060538</ele>
|
|
<time>2026-07-11T10:09:42.000Z</time>
|
|
</trkpt>
|
|
<trkpt lat="55.519289" lon="8.362709">
|
|
<ele>11.067849</ele>
|
|
<time>2026-07-11T10:09:43.000Z</time>
|
|
</trkpt>
|
|
<trkpt lat="55.519321" lon="8.362637">
|
|
<ele>11.075287</ele>
|
|
<time>2026-07-11T10:09:44.000Z</time>
|
|
</trkpt>
|
|
<trkpt lat="55.519356" lon="8.362562">
|
|
<ele>11.083185</ele>
|
|
<time>2026-07-11T10:09:45.000Z</time>
|
|
</trkpt>
|
|
<trkpt lat="55.519392" lon="8.362492">
|
|
<ele>11.090870</ele>
|
|
<time>2026-07-11T10:09:46.000Z</time>
|
|
</trkpt>
|
|
<trkpt lat="55.519428" lon="8.362423">
|
|
<ele>11.098495</ele>
|
|
<time>2026-07-11T10:09:47.000Z</time>
|
|
</trkpt>
|
|
<trkpt lat="55.519464" lon="8.362353">
|
|
<ele>11.106179</ele>
|
|
<time>2026-07-11T10:09:48.000Z</time>
|
|
</trkpt>
|
|
<trkpt lat="55.519502" lon="8.362280">
|
|
<ele>11.114238</ele>
|
|
<time>2026-07-11T10:09:49.000Z</time>
|
|
</trkpt>
|
|
<trkpt lat="55.519539" lon="8.362205">
|
|
<ele>11.122321</ele>
|
|
<time>2026-07-11T10:09:50.000Z</time>
|
|
</trkpt>
|
|
<trkpt lat="55.519573" lon="8.362131">
|
|
<ele>11.130066</ele>
|
|
<time>2026-07-11T10:09:51.000Z</time>
|
|
</trkpt>
|
|
<trkpt lat="55.519610" lon="8.362054">
|
|
<ele>11.138272</ele>
|
|
<time>2026-07-11T10:09:52.000Z</time>
|
|
</trkpt>
|
|
<trkpt lat="55.519648" lon="8.361979">
|
|
<ele>11.146451</ele>
|
|
<time>2026-07-11T10:09:53.000Z</time>
|
|
</trkpt>
|
|
<trkpt lat="55.519686" lon="8.361902">
|
|
<ele>11.154751</ele>
|
|
<time>2026-07-11T10:09:54.000Z</time>
|
|
</trkpt>
|
|
<trkpt lat="55.519724" lon="8.361829">
|
|
<ele>11.162810</ele>
|
|
<time>2026-07-11T10:09:55.000Z</time>
|
|
</trkpt>
|
|
<trkpt lat="55.519760" lon="8.361761">
|
|
<ele>11.170375</ele>
|
|
<time>2026-07-11T10:09:56.000Z</time>
|
|
</trkpt>
|
|
<trkpt lat="55.519795" lon="8.361690">
|
|
<ele>11.178025</ele>
|
|
<time>2026-07-11T10:09:57.000Z</time>
|
|
</trkpt>
|
|
<trkpt lat="55.519829" lon="8.361616">
|
|
<ele>11.185769</ele>
|
|
<time>2026-07-11T10:09:58.000Z</time>
|
|
</trkpt>
|
|
<trkpt lat="55.519862" lon="8.361541">
|
|
<ele>11.193487</ele>
|
|
<time>2026-07-11T10:09:59.000Z</time>
|
|
</trkpt>
|
|
<trkpt lat="55.519894" lon="8.361467">
|
|
<ele>11.201054</ele>
|
|
<time>2026-07-11T10:10:00.000Z</time>
|
|
</trkpt>
|
|
<trkpt lat="55.519926" lon="8.361392">
|
|
<ele>11.208685</ele>
|
|
<time>2026-07-11T10:10:01.000Z</time>
|
|
</trkpt>
|
|
<trkpt lat="55.519959" lon="8.361316">
|
|
<ele>11.216468</ele>
|
|
<time>2026-07-11T10:10:02.000Z</time>
|
|
</trkpt>
|
|
<trkpt lat="55.519992" lon="8.361245">
|
|
<ele>11.223932</ele>
|
|
<time>2026-07-11T10:10:03.000Z</time>
|
|
</trkpt>
|
|
<trkpt lat="55.520028" lon="8.361174">
|
|
<ele>11.231677</ele>
|
|
<time>2026-07-11T10:10:04.000Z</time>
|
|
</trkpt>
|
|
<trkpt lat="55.520065" lon="8.361098">
|
|
<ele>11.239822</ele>
|
|
<time>2026-07-11T10:10:05.000Z</time>
|
|
</trkpt>
|
|
<trkpt lat="55.520100" lon="8.361022">
|
|
<ele>11.247783</ele>
|
|
<time>2026-07-11T10:10:06.000Z</time>
|
|
</trkpt>
|
|
<trkpt lat="55.520134" lon="8.360944">
|
|
<ele>11.255782</ele>
|
|
<time>2026-07-11T10:10:07.000Z</time>
|
|
</trkpt>
|
|
<trkpt lat="55.520169" lon="8.360865">
|
|
<ele>11.195795</ele>
|
|
<time>2026-07-11T10:10:08.000Z</time>
|
|
</trkpt>
|
|
<trkpt lat="55.520203" lon="8.360789">
|
|
<ele>11.086826</ele>
|
|
<time>2026-07-11T10:10:09.000Z</time>
|
|
</trkpt>
|
|
<trkpt lat="55.520237" lon="8.360714">
|
|
<ele>10.978737</ele>
|
|
<time>2026-07-11T10:10:10.000Z</time>
|
|
</trkpt>
|
|
<trkpt lat="55.520269" lon="8.360637">
|
|
<ele>10.871281</ele>
|
|
<time>2026-07-11T10:10:11.000Z</time>
|
|
</trkpt>
|
|
<trkpt lat="55.520302" lon="8.360559">
|
|
<ele>10.761739</ele>
|
|
<time>2026-07-11T10:10:12.000Z</time>
|
|
</trkpt>
|
|
<trkpt lat="55.520334" lon="8.360479">
|
|
<ele>10.651545</ele>
|
|
<time>2026-07-11T10:10:13.000Z</time>
|
|
</trkpt>
|
|
<trkpt lat="55.520363" lon="8.360402">
|
|
<ele>10.547507</ele>
|
|
<time>2026-07-11T10:10:14.000Z</time>
|
|
</trkpt>
|
|
<trkpt lat="55.520393" lon="8.360326">
|
|
<ele>10.443279</ele>
|
|
<time>2026-07-11T10:10:15.000Z</time>
|
|
</trkpt>
|
|
<trkpt lat="55.520427" lon="8.360248">
|
|
<ele>10.332537</ele>
|
|
<time>2026-07-11T10:10:16.000Z</time>
|
|
</trkpt>
|
|
<trkpt lat="55.520460" lon="8.360168">
|
|
<ele>10.221184</ele>
|
|
<time>2026-07-11T10:10:17.000Z</time>
|
|
</trkpt>
|
|
<trkpt lat="55.520491" lon="8.360086">
|
|
<ele>10.110261</ele>
|
|
<time>2026-07-11T10:10:18.000Z</time>
|
|
</trkpt>
|
|
<trkpt lat="55.520522" lon="8.360003">
|
|
<ele>9.998401</ele>
|
|
<time>2026-07-11T10:10:19.000Z</time>
|
|
</trkpt>
|
|
<trkpt lat="55.520550" lon="8.359922">
|
|
<ele>9.891637</ele>
|
|
<time>2026-07-11T10:10:20.000Z</time>
|
|
</trkpt>
|
|
<trkpt lat="55.520577" lon="8.359838">
|
|
<ele>9.782973</ele>
|
|
<time>2026-07-11T10:10:21.000Z</time>
|
|
</trkpt>
|
|
<trkpt lat="55.520605" lon="8.359753">
|
|
<ele>9.672343</ele>
|
|
<time>2026-07-11T10:10:22.000Z</time>
|
|
</trkpt>
|
|
<trkpt lat="55.520634" lon="8.359668">
|
|
<ele>9.560701</ele>
|
|
<time>2026-07-11T10:10:23.000Z</time>
|
|
</trkpt>
|
|
<trkpt lat="55.520659" lon="8.359580">
|
|
<ele>9.449941</ele>
|
|
<time>2026-07-11T10:10:24.000Z</time>
|
|
</trkpt>
|
|
<trkpt lat="55.520686" lon="8.359489">
|
|
<ele>9.334364</ele>
|
|
<time>2026-07-11T10:10:25.000Z</time>
|
|
</trkpt>
|
|
<trkpt lat="55.520716" lon="8.359397">
|
|
<ele>9.214928</ele>
|
|
<time>2026-07-11T10:10:26.000Z</time>
|
|
</trkpt>
|
|
<trkpt lat="55.520746" lon="8.359307">
|
|
<ele>9.097437</ele>
|
|
<time>2026-07-11T10:10:27.000Z</time>
|
|
</trkpt>
|
|
<trkpt lat="55.520775" lon="8.359215">
|
|
<ele>8.978981</ele>
|
|
<time>2026-07-11T10:10:28.000Z</time>
|
|
</trkpt>
|
|
<trkpt lat="55.520802" lon="8.359122">
|
|
<ele>8.861407</ele>
|
|
<time>2026-07-11T10:10:29.000Z</time>
|
|
</trkpt>
|
|
<trkpt lat="55.520829" lon="8.359029">
|
|
<ele>8.743833</ele>
|
|
<time>2026-07-11T10:10:30.000Z</time>
|
|
</trkpt>
|
|
<trkpt lat="55.520857" lon="8.358937">
|
|
<ele>8.626331</ele>
|
|
<time>2026-07-11T10:10:31.000Z</time>
|
|
</trkpt>
|
|
<trkpt lat="55.520885" lon="8.358843">
|
|
<ele>8.506843</ele>
|
|
<time>2026-07-11T10:10:32.000Z</time>
|
|
</trkpt>
|
|
<trkpt lat="55.520912" lon="8.358747">
|
|
<ele>8.386256</ele>
|
|
<time>2026-07-11T10:10:33.000Z</time>
|
|
</trkpt>
|
|
<trkpt lat="55.520943" lon="8.358652">
|
|
<ele>8.262905</ele>
|
|
<time>2026-07-11T10:10:34.000Z</time>
|
|
</trkpt>
|
|
<trkpt lat="55.520974" lon="8.358555">
|
|
<ele>8.137599</ele>
|
|
<time>2026-07-11T10:10:35.000Z</time>
|
|
</trkpt>
|
|
<trkpt lat="55.520999" lon="8.358456">
|
|
<ele>8.015654</ele>
|
|
<time>2026-07-11T10:10:36.000Z</time>
|
|
</trkpt>
|
|
<trkpt lat="55.521018" lon="8.358356">
|
|
<ele>7.896994</ele>
|
|
<time>2026-07-11T10:10:37.000Z</time>
|
|
</trkpt>
|
|
<trkpt lat="55.521039" lon="8.358256">
|
|
<ele>7.777011</ele>
|
|
<time>2026-07-11T10:10:38.000Z</time>
|
|
</trkpt>
|
|
<trkpt lat="55.521065" lon="8.358162">
|
|
<ele>7.675377</ele>
|
|
<time>2026-07-11T10:10:39.000Z</time>
|
|
</trkpt>
|
|
<trkpt lat="55.521092" lon="8.358071">
|
|
<ele>7.631524</ele>
|
|
<time>2026-07-11T10:10:40.000Z</time>
|
|
</trkpt>
|
|
<trkpt lat="55.521118" lon="8.357977">
|
|
<ele>7.586869</ele>
|
|
<time>2026-07-11T10:10:41.000Z</time>
|
|
</trkpt>
|
|
<trkpt lat="55.521145" lon="8.357881">
|
|
<ele>7.541115</ele>
|
|
<time>2026-07-11T10:10:42.000Z</time>
|
|
</trkpt>
|
|
<trkpt lat="55.521174" lon="8.357787">
|
|
<ele>7.495421</ele>
|
|
<time>2026-07-11T10:10:43.000Z</time>
|
|
</trkpt>
|
|
<trkpt lat="55.521202" lon="8.357693">
|
|
<ele>7.450084</ele>
|
|
<time>2026-07-11T10:10:44.000Z</time>
|
|
</trkpt>
|
|
<trkpt lat="55.521228" lon="8.357596">
|
|
<ele>7.404275</ele>
|
|
<time>2026-07-11T10:10:45.000Z</time>
|
|
</trkpt>
|
|
<trkpt lat="55.521259" lon="8.357495">
|
|
<ele>7.355236</ele>
|
|
<time>2026-07-11T10:10:46.000Z</time>
|
|
</trkpt>
|
|
<trkpt lat="55.521292" lon="8.357396">
|
|
<ele>7.306199</ele>
|
|
<time>2026-07-11T10:10:47.000Z</time>
|
|
</trkpt>
|
|
<trkpt lat="55.521324" lon="8.357299">
|
|
<ele>7.258279</ele>
|
|
<time>2026-07-11T10:10:48.000Z</time>
|
|
</trkpt>
|
|
<trkpt lat="55.521361" lon="8.357202">
|
|
<ele>7.208355</ele>
|
|
<time>2026-07-11T10:10:49.000Z</time>
|
|
</trkpt>
|
|
<trkpt lat="55.521404" lon="8.357106">
|
|
<ele>7.156104</ele>
|
|
<time>2026-07-11T10:10:50.000Z</time>
|
|
</trkpt>
|
|
<trkpt lat="55.521446" lon="8.357015">
|
|
<ele>7.105990</ele>
|
|
<time>2026-07-11T10:10:51.000Z</time>
|
|
</trkpt>
|
|
<trkpt lat="55.521488" lon="8.356928">
|
|
<ele>7.057187</ele>
|
|
<time>2026-07-11T10:10:52.000Z</time>
|
|
</trkpt>
|
|
<trkpt lat="55.521528" lon="8.356847">
|
|
<ele>7.011308</ele>
|
|
<time>2026-07-11T10:10:53.000Z</time>
|
|
</trkpt>
|
|
<trkpt lat="55.521568" lon="8.356772">
|
|
<ele>6.967326</ele>
|
|
<time>2026-07-11T10:10:54.000Z</time>
|
|
</trkpt>
|
|
<trkpt lat="55.521610" lon="8.356704">
|
|
<ele>6.924370</ele>
|
|
<time>2026-07-11T10:10:55.000Z</time>
|
|
</trkpt>
|
|
<trkpt lat="55.521652" lon="8.356637">
|
|
<ele>6.881702</ele>
|
|
<time>2026-07-11T10:10:56.000Z</time>
|
|
</trkpt>
|
|
<trkpt lat="55.521692" lon="8.356572">
|
|
<ele>6.840722</ele>
|
|
<time>2026-07-11T10:10:57.000Z</time>
|
|
</trkpt>
|
|
<trkpt lat="55.521733" lon="8.356510">
|
|
<ele>6.800029</ele>
|
|
<time>2026-07-11T10:10:58.000Z</time>
|
|
</trkpt>
|
|
<trkpt lat="55.521779" lon="8.356447">
|
|
<ele>6.756143</ele>
|
|
<time>2026-07-11T10:10:59.000Z</time>
|
|
</trkpt>
|
|
<trkpt lat="55.521824" lon="8.356383">
|
|
<ele>6.712584</ele>
|
|
<time>2026-07-11T10:11:00.000Z</time>
|
|
</trkpt>
|
|
<trkpt lat="55.521868" lon="8.356319">
|
|
<ele>6.669609</ele>
|
|
<time>2026-07-11T10:11:01.000Z</time>
|
|
</trkpt>
|
|
<trkpt lat="55.521913" lon="8.356255">
|
|
<ele>6.626050</ele>
|
|
<time>2026-07-11T10:11:02.000Z</time>
|
|
</trkpt>
|
|
<trkpt lat="55.521957" lon="8.356194">
|
|
<ele>6.583878</ele>
|
|
<time>2026-07-11T10:11:03.000Z</time>
|
|
</trkpt>
|
|
<trkpt lat="55.522003" lon="8.356135">
|
|
<ele>6.541017</ele>
|
|
<time>2026-07-11T10:11:04.000Z</time>
|
|
</trkpt>
|
|
<trkpt lat="55.522050" lon="8.356078">
|
|
<ele>6.498032</ele>
|
|
<time>2026-07-11T10:11:05.000Z</time>
|
|
</trkpt>
|
|
<trkpt lat="55.522096" lon="8.356021">
|
|
<ele>6.455667</ele>
|
|
<time>2026-07-11T10:11:06.000Z</time>
|
|
</trkpt>
|
|
<trkpt lat="55.522140" lon="8.355961">
|
|
<ele>6.413757</ele>
|
|
<time>2026-07-11T10:11:07.000Z</time>
|
|
</trkpt>
|
|
<trkpt lat="55.522181" lon="8.355902">
|
|
<ele>6.373885</ele>
|
|
<time>2026-07-11T10:11:08.000Z</time>
|
|
</trkpt>
|
|
<trkpt lat="55.522221" lon="8.355844">
|
|
<ele>6.334867</ele>
|
|
<time>2026-07-11T10:11:09.000Z</time>
|
|
</trkpt>
|
|
<trkpt lat="55.522259" lon="8.355781">
|
|
<ele>6.329567</ele>
|
|
<time>2026-07-11T10:11:10.000Z</time>
|
|
</trkpt>
|
|
<trkpt lat="55.522295" lon="8.355721">
|
|
<ele>6.330146</ele>
|
|
<time>2026-07-11T10:11:11.000Z</time>
|
|
</trkpt>
|
|
<trkpt lat="55.522332" lon="8.355661">
|
|
<ele>6.330734</ele>
|
|
<time>2026-07-11T10:11:12.000Z</time>
|
|
</trkpt>
|
|
<trkpt lat="55.522367" lon="8.355599">
|
|
<ele>6.331313</ele>
|
|
<time>2026-07-11T10:11:13.000Z</time>
|
|
</trkpt>
|
|
<trkpt lat="55.522405" lon="8.355534">
|
|
<ele>6.331932</ele>
|
|
<time>2026-07-11T10:11:14.000Z</time>
|
|
</trkpt>
|
|
<trkpt lat="55.522445" lon="8.355468">
|
|
<ele>6.332572</ele>
|
|
<time>2026-07-11T10:11:15.000Z</time>
|
|
</trkpt>
|
|
<trkpt lat="55.522489" lon="8.355401">
|
|
<ele>6.333251</ele>
|
|
<time>2026-07-11T10:11:16.000Z</time>
|
|
</trkpt>
|
|
<trkpt lat="55.522533" lon="8.355332">
|
|
<ele>6.333940</ele>
|
|
<time>2026-07-11T10:11:17.000Z</time>
|
|
</trkpt>
|
|
<trkpt lat="55.522572" lon="8.355263">
|
|
<ele>6.334585</ele>
|
|
<time>2026-07-11T10:11:18.000Z</time>
|
|
</trkpt>
|
|
<trkpt lat="55.522610" lon="8.355191">
|
|
<ele>6.335237</ele>
|
|
<time>2026-07-11T10:11:19.000Z</time>
|
|
</trkpt>
|
|
<trkpt lat="55.522648" lon="8.355115">
|
|
<ele>6.335908</ele>
|
|
<time>2026-07-11T10:11:20.000Z</time>
|
|
</trkpt>
|
|
<trkpt lat="55.522680" lon="8.355039">
|
|
<ele>6.336535</ele>
|
|
<time>2026-07-11T10:11:21.000Z</time>
|
|
</trkpt>
|
|
<trkpt lat="55.522713" lon="8.354963">
|
|
<ele>6.337169</ele>
|
|
<time>2026-07-11T10:11:22.000Z</time>
|
|
</trkpt>
|
|
<trkpt lat="55.522746" lon="8.354888">
|
|
<ele>6.337798</ele>
|
|
<time>2026-07-11T10:11:23.000Z</time>
|
|
</trkpt>
|
|
<trkpt lat="55.522778" lon="8.354816">
|
|
<ele>6.338404</ele>
|
|
<time>2026-07-11T10:11:24.000Z</time>
|
|
</trkpt>
|
|
<trkpt lat="55.522810" lon="8.354747">
|
|
<ele>6.338995</ele>
|
|
<time>2026-07-11T10:11:25.000Z</time>
|
|
</trkpt>
|
|
<trkpt lat="55.522841" lon="8.354678">
|
|
<ele>6.339578</ele>
|
|
<time>2026-07-11T10:11:26.000Z</time>
|
|
</trkpt>
|
|
<trkpt lat="55.522871" lon="8.354609">
|
|
<ele>6.340154</ele>
|
|
<time>2026-07-11T10:11:27.000Z</time>
|
|
</trkpt>
|
|
<trkpt lat="55.522903" lon="8.354541">
|
|
<ele>6.340740</ele>
|
|
<time>2026-07-11T10:11:28.000Z</time>
|
|
</trkpt>
|
|
<trkpt lat="55.522936" lon="8.354471">
|
|
<ele>6.341343</ele>
|
|
<time>2026-07-11T10:11:29.000Z</time>
|
|
</trkpt>
|
|
<trkpt lat="55.522963" lon="8.354399">
|
|
<ele>6.341914</ele>
|
|
<time>2026-07-11T10:11:30.000Z</time>
|
|
</trkpt>
|
|
<trkpt lat="55.522987" lon="8.354328">
|
|
<ele>6.342462</ele>
|
|
<time>2026-07-11T10:11:31.000Z</time>
|
|
</trkpt>
|
|
<trkpt lat="55.523016" lon="8.354256">
|
|
<ele>6.343047</ele>
|
|
<time>2026-07-11T10:11:32.000Z</time>
|
|
</trkpt>
|
|
<trkpt lat="55.523047" lon="8.354191">
|
|
<ele>6.343610</ele>
|
|
<time>2026-07-11T10:11:33.000Z</time>
|
|
</trkpt>
|
|
<trkpt lat="55.523076" lon="8.354130">
|
|
<ele>6.344137</ele>
|
|
<time>2026-07-11T10:11:34.000Z</time>
|
|
</trkpt>
|
|
<trkpt lat="55.523104" lon="8.354072">
|
|
<ele>6.344642</ele>
|
|
<time>2026-07-11T10:11:35.000Z</time>
|
|
</trkpt>
|
|
<trkpt lat="55.523133" lon="8.354014">
|
|
<ele>6.345154</ele>
|
|
<time>2026-07-11T10:11:36.000Z</time>
|
|
</trkpt>
|
|
<trkpt lat="55.523158" lon="8.353957">
|
|
<ele>6.345631</ele>
|
|
<time>2026-07-11T10:11:37.000Z</time>
|
|
</trkpt>
|
|
<trkpt lat="55.523182" lon="8.353905">
|
|
<ele>6.346076</ele>
|
|
<time>2026-07-11T10:11:38.000Z</time>
|
|
</trkpt>
|
|
<trkpt lat="55.523209" lon="8.353857">
|
|
<ele>6.346524</ele>
|
|
<time>2026-07-11T10:11:39.000Z</time>
|
|
</trkpt>
|
|
<trkpt lat="55.523237" lon="8.353812">
|
|
<ele>6.346966</ele>
|
|
<time>2026-07-11T10:11:40.000Z</time>
|
|
</trkpt>
|
|
<trkpt lat="55.523267" lon="8.353772">
|
|
<ele>6.347406</ele>
|
|
<time>2026-07-11T10:11:41.000Z</time>
|
|
</trkpt>
|
|
<trkpt lat="55.523297" lon="8.353735">
|
|
<ele>6.347834</ele>
|
|
<time>2026-07-11T10:11:42.000Z</time>
|
|
</trkpt>
|
|
<trkpt lat="55.523325" lon="8.353699">
|
|
<ele>6.348239</ele>
|
|
<time>2026-07-11T10:11:43.000Z</time>
|
|
</trkpt>
|
|
<trkpt lat="55.523357" lon="8.353663">
|
|
<ele>6.348683</ele>
|
|
<time>2026-07-11T10:11:44.000Z</time>
|
|
</trkpt>
|
|
<trkpt lat="55.523388" lon="8.353625">
|
|
<ele>6.349124</ele>
|
|
<time>2026-07-11T10:11:45.000Z</time>
|
|
</trkpt>
|
|
<trkpt lat="55.523419" lon="8.353583">
|
|
<ele>6.349581</ele>
|
|
<time>2026-07-11T10:11:46.000Z</time>
|
|
</trkpt>
|
|
<trkpt lat="55.523451" lon="8.353544">
|
|
<ele>6.350035</ele>
|
|
<time>2026-07-11T10:11:47.000Z</time>
|
|
</trkpt>
|
|
<trkpt lat="55.523482" lon="8.353509">
|
|
<ele>6.342637</ele>
|
|
<time>2026-07-11T10:11:48.000Z</time>
|
|
</trkpt>
|
|
<trkpt lat="55.523515" lon="8.353476">
|
|
<ele>6.333984</ele>
|
|
<time>2026-07-11T10:11:49.000Z</time>
|
|
</trkpt>
|
|
<trkpt lat="55.523546" lon="8.353443">
|
|
<ele>6.325725</ele>
|
|
<time>2026-07-11T10:11:50.000Z</time>
|
|
</trkpt>
|
|
<trkpt lat="55.523575" lon="8.353410">
|
|
<ele>6.317853</ele>
|
|
<time>2026-07-11T10:11:51.000Z</time>
|
|
</trkpt>
|
|
<trkpt lat="55.523601" lon="8.353375">
|
|
<ele>6.310394</ele>
|
|
<time>2026-07-11T10:11:52.000Z</time>
|
|
</trkpt>
|
|
<trkpt lat="55.523626" lon="8.353341">
|
|
<ele>6.303194</ele>
|
|
<time>2026-07-11T10:11:53.000Z</time>
|
|
</trkpt>
|
|
<trkpt lat="55.523650" lon="8.353304">
|
|
<ele>6.295925</ele>
|
|
<time>2026-07-11T10:11:54.000Z</time>
|
|
</trkpt>
|
|
<trkpt lat="55.523673" lon="8.353268">
|
|
<ele>6.288913</ele>
|
|
<time>2026-07-11T10:11:55.000Z</time>
|
|
</trkpt>
|
|
<trkpt lat="55.523696" lon="8.353235">
|
|
<ele>6.282151</ele>
|
|
<time>2026-07-11T10:11:56.000Z</time>
|
|
</trkpt>
|
|
<trkpt lat="55.523718" lon="8.353204">
|
|
<ele>6.275730</ele>
|
|
<time>2026-07-11T10:11:57.000Z</time>
|
|
</trkpt>
|
|
<trkpt lat="55.523742" lon="8.353174">
|
|
<ele>6.269020</ele>
|
|
<time>2026-07-11T10:11:58.000Z</time>
|
|
</trkpt>
|
|
<trkpt lat="55.523766" lon="8.353146">
|
|
<ele>6.262457</ele>
|
|
<time>2026-07-11T10:11:59.000Z</time>
|
|
</trkpt>
|
|
<trkpt lat="55.523791" lon="8.353117">
|
|
<ele>6.255632</ele>
|
|
<time>2026-07-11T10:12:00.000Z</time>
|
|
</trkpt>
|
|
<trkpt lat="55.523816" lon="8.353084">
|
|
<ele>6.248511</ele>
|
|
<time>2026-07-11T10:12:01.000Z</time>
|
|
</trkpt>
|
|
<trkpt lat="55.523842" lon="8.353049">
|
|
<ele>6.241051</ele>
|
|
<time>2026-07-11T10:12:02.000Z</time>
|
|
</trkpt>
|
|
<trkpt lat="55.523869" lon="8.353012">
|
|
<ele>6.233254</ele>
|
|
<time>2026-07-11T10:12:03.000Z</time>
|
|
</trkpt>
|
|
<trkpt lat="55.523897" lon="8.352973">
|
|
<ele>6.225117</ele>
|
|
<time>2026-07-11T10:12:04.000Z</time>
|
|
</trkpt>
|
|
<trkpt lat="55.523928" lon="8.352936">
|
|
<ele>6.216580</ele>
|
|
<time>2026-07-11T10:12:05.000Z</time>
|
|
</trkpt>
|
|
<trkpt lat="55.523960" lon="8.352898">
|
|
<ele>6.207781</ele>
|
|
<time>2026-07-11T10:12:06.000Z</time>
|
|
</trkpt>
|
|
<trkpt lat="55.523994" lon="8.352858">
|
|
<ele>6.198459</ele>
|
|
<time>2026-07-11T10:12:07.000Z</time>
|
|
</trkpt>
|
|
<trkpt lat="55.524027" lon="8.352814">
|
|
<ele>6.189025</ele>
|
|
<time>2026-07-11T10:12:08.000Z</time>
|
|
</trkpt>
|
|
<trkpt lat="55.524058" lon="8.352766">
|
|
<ele>6.179618</ele>
|
|
<time>2026-07-11T10:12:09.000Z</time>
|
|
</trkpt>
|
|
<trkpt lat="55.524091" lon="8.352715">
|
|
<ele>6.169613</ele>
|
|
<time>2026-07-11T10:12:10.000Z</time>
|
|
</trkpt>
|
|
<trkpt lat="55.524123" lon="8.352666">
|
|
<ele>6.159949</ele>
|
|
<time>2026-07-11T10:12:11.000Z</time>
|
|
</trkpt>
|
|
<trkpt lat="55.524160" lon="8.352614">
|
|
<ele>6.149160</ele>
|
|
<time>2026-07-11T10:12:12.000Z</time>
|
|
</trkpt>
|
|
<trkpt lat="55.524198" lon="8.352565">
|
|
<ele>6.138424</ele>
|
|
<time>2026-07-11T10:12:13.000Z</time>
|
|
</trkpt>
|
|
<trkpt lat="55.524233" lon="8.352518">
|
|
<ele>6.128392</ele>
|
|
<time>2026-07-11T10:12:14.000Z</time>
|
|
</trkpt>
|
|
<trkpt lat="55.524267" lon="8.352472">
|
|
<ele>6.118619</ele>
|
|
<time>2026-07-11T10:12:15.000Z</time>
|
|
</trkpt>
|
|
<trkpt lat="55.524302" lon="8.352425">
|
|
<ele>6.108587</ele>
|
|
<time>2026-07-11T10:12:16.000Z</time>
|
|
</trkpt>
|
|
<trkpt lat="55.524336" lon="8.352380">
|
|
<ele>6.098892</ele>
|
|
<time>2026-07-11T10:12:17.000Z</time>
|
|
</trkpt>
|
|
<trkpt lat="55.524372" lon="8.352338">
|
|
<ele>6.089048</ele>
|
|
<time>2026-07-11T10:12:18.000Z</time>
|
|
</trkpt>
|
|
<trkpt lat="55.524408" lon="8.352294">
|
|
<ele>6.079058</ele>
|
|
<time>2026-07-11T10:12:19.000Z</time>
|
|
</trkpt>
|
|
<trkpt lat="55.524445" lon="8.352246">
|
|
<ele>6.068583</ele>
|
|
<time>2026-07-11T10:12:20.000Z</time>
|
|
</trkpt>
|
|
<trkpt lat="55.524481" lon="8.352199">
|
|
<ele>6.058368</ele>
|
|
<time>2026-07-11T10:12:21.000Z</time>
|
|
</trkpt>
|
|
<trkpt lat="55.524519" lon="8.352154">
|
|
<ele>6.047928</ele>
|
|
<time>2026-07-11T10:12:22.000Z</time>
|
|
</trkpt>
|
|
<trkpt lat="55.524557" lon="8.352107">
|
|
<ele>6.037343</ele>
|
|
<time>2026-07-11T10:12:23.000Z</time>
|
|
</trkpt>
|
|
<trkpt lat="55.524595" lon="8.352060">
|
|
<ele>6.026758</ele>
|
|
<time>2026-07-11T10:12:24.000Z</time>
|
|
</trkpt>
|
|
<trkpt lat="55.524633" lon="8.352013">
|
|
<ele>6.016172</ele>
|
|
<time>2026-07-11T10:12:25.000Z</time>
|
|
</trkpt>
|
|
<trkpt lat="55.524670" lon="8.351966">
|
|
<ele>6.005773</ele>
|
|
<time>2026-07-11T10:12:26.000Z</time>
|
|
</trkpt>
|
|
<trkpt lat="55.524708" lon="8.351918">
|
|
<ele>5.995113</ele>
|
|
<time>2026-07-11T10:12:27.000Z</time>
|
|
</trkpt>
|
|
<trkpt lat="55.524744" lon="8.351872">
|
|
<ele>5.984974</ele>
|
|
<time>2026-07-11T10:12:28.000Z</time>
|
|
</trkpt>
|
|
<trkpt lat="55.524782" lon="8.351825">
|
|
<ele>5.974389</ele>
|
|
<time>2026-07-11T10:12:29.000Z</time>
|
|
</trkpt>
|
|
<trkpt lat="55.524819" lon="8.351777">
|
|
<ele>5.963913</ele>
|
|
<time>2026-07-11T10:12:30.000Z</time>
|
|
</trkpt>
|
|
<trkpt lat="55.524855" lon="8.351730">
|
|
<ele>5.953698</ele>
|
|
<time>2026-07-11T10:12:31.000Z</time>
|
|
</trkpt>
|
|
<trkpt lat="55.524891" lon="8.351681">
|
|
<ele>5.943328</ele>
|
|
<time>2026-07-11T10:12:32.000Z</time>
|
|
</trkpt>
|
|
<trkpt lat="55.524927" lon="8.351631">
|
|
<ele>5.959639</ele>
|
|
<time>2026-07-11T10:12:33.000Z</time>
|
|
</trkpt>
|
|
<trkpt lat="55.524964" lon="8.351582">
|
|
<ele>5.990846</ele>
|
|
<time>2026-07-11T10:12:34.000Z</time>
|
|
</trkpt>
|
|
<trkpt lat="55.524998" lon="8.351537">
|
|
<ele>6.019516</ele>
|
|
<time>2026-07-11T10:12:35.000Z</time>
|
|
</trkpt>
|
|
<trkpt lat="55.525034" lon="8.351494">
|
|
<ele>6.048842</ele>
|
|
<time>2026-07-11T10:12:36.000Z</time>
|
|
</trkpt>
|
|
<trkpt lat="55.525070" lon="8.351448">
|
|
<ele>6.078826</ele>
|
|
<time>2026-07-11T10:12:37.000Z</time>
|
|
</trkpt>
|
|
<trkpt lat="55.525105" lon="8.351399">
|
|
<ele>6.108963</ele>
|
|
<time>2026-07-11T10:12:38.000Z</time>
|
|
</trkpt>
|
|
<trkpt lat="55.525140" lon="8.351351">
|
|
<ele>6.138864</ele>
|
|
<time>2026-07-11T10:12:39.000Z</time>
|
|
</trkpt>
|
|
<trkpt lat="55.525179" lon="8.351303">
|
|
<ele>6.170941</ele>
|
|
<time>2026-07-11T10:12:40.000Z</time>
|
|
</trkpt>
|
|
<trkpt lat="55.525216" lon="8.351252">
|
|
<ele>6.202612</ele>
|
|
<time>2026-07-11T10:12:41.000Z</time>
|
|
</trkpt>
|
|
<trkpt lat="55.525250" lon="8.351203">
|
|
<ele>6.232223</ele>
|
|
<time>2026-07-11T10:12:42.000Z</time>
|
|
</trkpt>
|
|
<trkpt lat="55.525286" lon="8.351155">
|
|
<ele>6.262660</ele>
|
|
<time>2026-07-11T10:12:43.000Z</time>
|
|
</trkpt>
|
|
<trkpt lat="55.525321" lon="8.351108">
|
|
<ele>6.292329</ele>
|
|
<time>2026-07-11T10:12:44.000Z</time>
|
|
</trkpt>
|
|
<trkpt lat="55.525357" lon="8.351060">
|
|
<ele>6.322766</ele>
|
|
<time>2026-07-11T10:12:45.000Z</time>
|
|
</trkpt>
|
|
<trkpt lat="55.525394" lon="8.351010">
|
|
<ele>6.354203</ele>
|
|
<time>2026-07-11T10:12:46.000Z</time>
|
|
</trkpt>
|
|
<trkpt lat="55.525430" lon="8.350964">
|
|
<ele>6.384187</ele>
|
|
<time>2026-07-11T10:12:47.000Z</time>
|
|
</trkpt>
|
|
<trkpt lat="55.525468" lon="8.350919">
|
|
<ele>6.415059</ele>
|
|
<time>2026-07-11T10:12:48.000Z</time>
|
|
</trkpt>
|
|
<trkpt lat="55.525503" lon="8.350874">
|
|
<ele>6.444272</ele>
|
|
<time>2026-07-11T10:12:49.000Z</time>
|
|
</trkpt>
|
|
<trkpt lat="55.525534" lon="8.350828">
|
|
<ele>6.471593</ele>
|
|
<time>2026-07-11T10:12:50.000Z</time>
|
|
</trkpt>
|
|
<trkpt lat="55.525559" lon="8.350774">
|
|
<ele>6.498241</ele>
|
|
<time>2026-07-11T10:12:51.000Z</time>
|
|
</trkpt>
|
|
<trkpt lat="55.525578" lon="8.350715">
|
|
<ele>6.524171</ele>
|
|
<time>2026-07-11T10:12:52.000Z</time>
|
|
</trkpt>
|
|
<trkpt lat="55.525597" lon="8.350660">
|
|
<ele>6.548784</ele>
|
|
<time>2026-07-11T10:12:53.000Z</time>
|
|
</trkpt>
|
|
<trkpt lat="55.525615" lon="8.350612">
|
|
<ele>6.570779</ele>
|
|
<time>2026-07-11T10:12:54.000Z</time>
|
|
</trkpt>
|
|
<trkpt lat="55.525628" lon="8.350574">
|
|
<ele>6.587740</ele>
|
|
<time>2026-07-11T10:12:55.000Z</time>
|
|
</trkpt>
|
|
<trkpt lat="55.525642" lon="8.350543">
|
|
<ele>6.602889</ele>
|
|
<time>2026-07-11T10:12:56.000Z</time>
|
|
</trkpt>
|
|
<trkpt lat="55.525659" lon="8.350513">
|
|
<ele>6.619104</ele>
|
|
<time>2026-07-11T10:12:57.000Z</time>
|
|
</trkpt>
|
|
<trkpt lat="55.525678" lon="8.350482">
|
|
<ele>6.636558</ele>
|
|
<time>2026-07-11T10:12:58.000Z</time>
|
|
</trkpt>
|
|
<trkpt lat="55.525700" lon="8.350452">
|
|
<ele>6.655313</ele>
|
|
<time>2026-07-11T10:12:59.000Z</time>
|
|
</trkpt>
|
|
<trkpt lat="55.525725" lon="8.350421">
|
|
<ele>6.675926</ele>
|
|
<time>2026-07-11T10:13:00.000Z</time>
|
|
</trkpt>
|
|
<trkpt lat="55.525746" lon="8.350390">
|
|
<ele>6.694394</ele>
|
|
<time>2026-07-11T10:13:01.000Z</time>
|
|
</trkpt>
|
|
<trkpt lat="55.525767" lon="8.350361">
|
|
<ele>6.712381</ele>
|
|
<time>2026-07-11T10:13:02.000Z</time>
|
|
</trkpt>
|
|
<trkpt lat="55.525788" lon="8.350332">
|
|
<ele>6.730369</ele>
|
|
<time>2026-07-11T10:13:03.000Z</time>
|
|
</trkpt>
|
|
<trkpt lat="55.525803" lon="8.350309">
|
|
<ele>6.743773</ele>
|
|
<time>2026-07-11T10:13:04.000Z</time>
|
|
</trkpt>
|
|
<trkpt lat="55.525811" lon="8.350290">
|
|
<ele>6.752819</ele>
|
|
<time>2026-07-11T10:13:05.000Z</time>
|
|
</trkpt>
|
|
<trkpt lat="55.525814" lon="8.350274">
|
|
<ele>6.759257</ele>
|
|
<time>2026-07-11T10:13:06.000Z</time>
|
|
</trkpt>
|
|
<trkpt lat="55.525814" lon="8.350239">
|
|
<ele>6.772627</ele>
|
|
<time>2026-07-11T10:13:11.000Z</time>
|
|
</trkpt>
|
|
<trkpt lat="55.525827" lon="8.350222">
|
|
<ele>6.783542</ele>
|
|
<time>2026-07-11T10:13:12.000Z</time>
|
|
</trkpt>
|
|
<trkpt lat="55.525851" lon="8.350194">
|
|
<ele>6.802951</ele>
|
|
<time>2026-07-11T10:13:13.000Z</time>
|
|
</trkpt>
|
|
<trkpt lat="55.525867" lon="8.350175">
|
|
<ele>6.815961</ele>
|
|
<time>2026-07-11T10:13:14.000Z</time>
|
|
</trkpt>
|
|
<trkpt lat="55.525882" lon="8.350150">
|
|
<ele>6.829878</ele>
|
|
<time>2026-07-11T10:13:15.000Z</time>
|
|
</trkpt>
|
|
<trkpt lat="55.525899" lon="8.350126">
|
|
<ele>6.844563</ele>
|
|
<time>2026-07-11T10:13:16.000Z</time>
|
|
</trkpt>
|
|
<trkpt lat="55.525917" lon="8.350103">
|
|
<ele>6.859555</ele>
|
|
<time>2026-07-11T10:13:17.000Z</time>
|
|
</trkpt>
|
|
<trkpt lat="55.525935" lon="8.350081">
|
|
<ele>6.874326</ele>
|
|
<time>2026-07-11T10:13:18.000Z</time>
|
|
</trkpt>
|
|
<trkpt lat="55.525952" lon="8.350058">
|
|
<ele>6.888776</ele>
|
|
<time>2026-07-11T10:13:19.000Z</time>
|
|
</trkpt>
|
|
<trkpt lat="55.525971" lon="8.350035">
|
|
<ele>6.904319</ele>
|
|
<time>2026-07-11T10:13:20.000Z</time>
|
|
</trkpt>
|
|
<trkpt lat="55.525990" lon="8.350010">
|
|
<ele>6.920307</ele>
|
|
<time>2026-07-11T10:13:21.000Z</time>
|
|
</trkpt>
|
|
<trkpt lat="55.526010" lon="8.349985">
|
|
<ele>6.936841</ele>
|
|
<time>2026-07-11T10:13:22.000Z</time>
|
|
</trkpt>
|
|
<trkpt lat="55.526029" lon="8.349961">
|
|
<ele>6.952603</ele>
|
|
<time>2026-07-11T10:13:23.000Z</time>
|
|
</trkpt>
|
|
<trkpt lat="55.526048" lon="8.349936">
|
|
<ele>6.968591</ele>
|
|
<time>2026-07-11T10:13:24.000Z</time>
|
|
</trkpt>
|
|
<trkpt lat="55.526067" lon="8.349909">
|
|
<ele>6.985047</ele>
|
|
<time>2026-07-11T10:13:25.000Z</time>
|
|
</trkpt>
|
|
<trkpt lat="55.526086" lon="8.349882">
|
|
<ele>7.001502</ele>
|
|
<time>2026-07-11T10:13:26.000Z</time>
|
|
</trkpt>
|
|
<trkpt lat="55.526103" lon="8.349855">
|
|
<ele>7.016929</ele>
|
|
<time>2026-07-11T10:13:27.000Z</time>
|
|
</trkpt>
|
|
<trkpt lat="55.526121" lon="8.349829">
|
|
<ele>7.032620</ele>
|
|
<time>2026-07-11T10:13:28.000Z</time>
|
|
</trkpt>
|
|
<trkpt lat="55.526142" lon="8.349803">
|
|
<ele>7.049925</ele>
|
|
<time>2026-07-11T10:13:29.000Z</time>
|
|
</trkpt>
|
|
<trkpt lat="55.526162" lon="8.349776">
|
|
<ele>7.066912</ele>
|
|
<time>2026-07-11T10:13:30.000Z</time>
|
|
</trkpt>
|
|
<trkpt lat="55.526181" lon="8.349752">
|
|
<ele>7.082674</ele>
|
|
<time>2026-07-11T10:13:31.000Z</time>
|
|
</trkpt>
|
|
<trkpt lat="55.526198" lon="8.349731">
|
|
<ele>7.096673</ele>
|
|
<time>2026-07-11T10:13:32.000Z</time>
|
|
</trkpt>
|
|
<trkpt lat="55.526215" lon="8.349711">
|
|
<ele>7.110456</ele>
|
|
<time>2026-07-11T10:13:33.000Z</time>
|
|
</trkpt>
|
|
<trkpt lat="55.526235" lon="8.349691">
|
|
<ele>7.125966</ele>
|
|
<time>2026-07-11T10:13:34.000Z</time>
|
|
</trkpt>
|
|
<trkpt lat="55.526250" lon="8.349672">
|
|
<ele>7.138421</ele>
|
|
<time>2026-07-11T10:13:35.000Z</time>
|
|
</trkpt>
|
|
<trkpt lat="55.526261" lon="8.349655">
|
|
<ele>7.148284</ele>
|
|
<time>2026-07-11T10:13:36.000Z</time>
|
|
</trkpt>
|
|
<trkpt lat="55.526271" lon="8.349642">
|
|
<ele>7.161295</ele>
|
|
<time>2026-07-11T10:13:37.000Z</time>
|
|
</trkpt>
|
|
<trkpt lat="55.526276" lon="8.349636">
|
|
<ele>7.171274</ele>
|
|
<time>2026-07-11T10:13:38.000Z</time>
|
|
</trkpt>
|
|
<trkpt lat="55.526276" lon="8.349636">
|
|
<ele>7.171274</ele>
|
|
<time>2026-07-11T10:13:39.000Z</time>
|
|
</trkpt>
|
|
<trkpt lat="55.526276" lon="8.349637">
|
|
<ele>7.172209</ele>
|
|
<time>2026-07-11T10:13:40.000Z</time>
|
|
</trkpt>
|
|
<trkpt lat="55.526315" lon="8.349584">
|
|
<ele>7.253445</ele>
|
|
<time>2026-07-11T10:34:33.000Z</time>
|
|
</trkpt>
|
|
<trkpt lat="55.526327" lon="8.349564">
|
|
<ele>7.280682</ele>
|
|
<time>2026-07-11T10:34:34.000Z</time>
|
|
</trkpt>
|
|
<trkpt lat="55.526343" lon="8.349542">
|
|
<ele>7.314156</ele>
|
|
<time>2026-07-11T10:34:35.000Z</time>
|
|
</trkpt>
|
|
<trkpt lat="55.526364" lon="8.349514">
|
|
<ele>7.357594</ele>
|
|
<time>2026-07-11T10:34:36.000Z</time>
|
|
</trkpt>
|
|
<trkpt lat="55.526383" lon="8.349484">
|
|
<ele>7.399666</ele>
|
|
<time>2026-07-11T10:34:37.000Z</time>
|
|
</trkpt>
|
|
<trkpt lat="55.526403" lon="8.349453">
|
|
<ele>7.443594</ele>
|
|
<time>2026-07-11T10:34:38.000Z</time>
|
|
</trkpt>
|
|
<trkpt lat="55.526423" lon="8.349423">
|
|
<ele>7.486911</ele>
|
|
<time>2026-07-11T10:34:39.000Z</time>
|
|
</trkpt>
|
|
<trkpt lat="55.526446" lon="8.349392">
|
|
<ele>7.534673</ele>
|
|
<time>2026-07-11T10:34:40.000Z</time>
|
|
</trkpt>
|
|
<trkpt lat="55.526469" lon="8.349363">
|
|
<ele>7.581326</ele>
|
|
<time>2026-07-11T10:34:41.000Z</time>
|
|
</trkpt>
|
|
<trkpt lat="55.526492" lon="8.349334">
|
|
<ele>7.627979</ele>
|
|
<time>2026-07-11T10:34:42.000Z</time>
|
|
</trkpt>
|
|
<trkpt lat="55.526516" lon="8.349304">
|
|
<ele>7.676519</ele>
|
|
<time>2026-07-11T10:34:43.000Z</time>
|
|
</trkpt>
|
|
<trkpt lat="55.526541" lon="8.349273">
|
|
<ele>7.726946</ele>
|
|
<time>2026-07-11T10:34:44.000Z</time>
|
|
</trkpt>
|
|
<trkpt lat="55.526567" lon="8.349238">
|
|
<ele>7.780914</ele>
|
|
<time>2026-07-11T10:34:45.000Z</time>
|
|
</trkpt>
|
|
<trkpt lat="55.526596" lon="8.349202">
|
|
<ele>7.839432</ele>
|
|
<time>2026-07-11T10:34:46.000Z</time>
|
|
</trkpt>
|
|
<trkpt lat="55.526624" lon="8.349169">
|
|
<ele>7.895003</ele>
|
|
<time>2026-07-11T10:34:47.000Z</time>
|
|
</trkpt>
|
|
<trkpt lat="55.526654" lon="8.349136">
|
|
<ele>7.953350</ele>
|
|
<time>2026-07-11T10:34:48.000Z</time>
|
|
</trkpt>
|
|
<trkpt lat="55.526685" lon="8.349101">
|
|
<ele>8.014091</ele>
|
|
<time>2026-07-11T10:34:49.000Z</time>
|
|
</trkpt>
|
|
<trkpt lat="55.526714" lon="8.349066">
|
|
<ele>8.072076</ele>
|
|
<time>2026-07-11T10:34:50.000Z</time>
|
|
</trkpt>
|
|
<trkpt lat="55.526746" lon="8.349031">
|
|
<ele>8.134214</ele>
|
|
<time>2026-07-11T10:34:51.000Z</time>
|
|
</trkpt>
|
|
<trkpt lat="55.526776" lon="8.349000">
|
|
<ele>8.191595</ele>
|
|
<time>2026-07-11T10:34:52.000Z</time>
|
|
</trkpt>
|
|
<trkpt lat="55.526805" lon="8.348972">
|
|
<ele>8.246159</ele>
|
|
<time>2026-07-11T10:34:53.000Z</time>
|
|
</trkpt>
|
|
<trkpt lat="55.526830" lon="8.348949">
|
|
<ele>8.292695</ele>
|
|
<time>2026-07-11T10:34:54.000Z</time>
|
|
</trkpt>
|
|
<trkpt lat="55.526854" lon="8.348929">
|
|
<ele>8.336507</ele>
|
|
<time>2026-07-11T10:34:55.000Z</time>
|
|
</trkpt>
|
|
<trkpt lat="55.526877" lon="8.348914">
|
|
<ele>8.376985</ele>
|
|
<time>2026-07-11T10:34:56.000Z</time>
|
|
</trkpt>
|
|
<trkpt lat="55.526901" lon="8.348902">
|
|
<ele>8.418166</ele>
|
|
<time>2026-07-11T10:34:57.000Z</time>
|
|
</trkpt>
|
|
<trkpt lat="55.526925" lon="8.348889">
|
|
<ele>8.459611</ele>
|
|
<time>2026-07-11T10:34:58.000Z</time>
|
|
</trkpt>
|
|
<trkpt lat="55.526944" lon="8.348873">
|
|
<ele>8.494362</ele>
|
|
<time>2026-07-11T10:34:59.000Z</time>
|
|
</trkpt>
|
|
<trkpt lat="55.526963" lon="8.348852">
|
|
<ele>8.531365</ele>
|
|
<time>2026-07-11T10:35:00.000Z</time>
|
|
</trkpt>
|
|
<trkpt lat="55.526982" lon="8.348827">
|
|
<ele>8.570478</ele>
|
|
<time>2026-07-11T10:35:01.000Z</time>
|
|
</trkpt>
|
|
<trkpt lat="55.527000" lon="8.348803">
|
|
<ele>8.607710</ele>
|
|
<time>2026-07-11T10:35:02.000Z</time>
|
|
</trkpt>
|
|
<trkpt lat="55.527016" lon="8.348781">
|
|
<ele>8.641184</ele>
|
|
<time>2026-07-11T10:35:03.000Z</time>
|
|
</trkpt>
|
|
<trkpt lat="55.527035" lon="8.348764">
|
|
<ele>8.676347</ele>
|
|
<time>2026-07-11T10:35:04.000Z</time>
|
|
</trkpt>
|
|
<trkpt lat="55.527053" lon="8.348751">
|
|
<ele>8.708453</ele>
|
|
<time>2026-07-11T10:35:05.000Z</time>
|
|
</trkpt>
|
|
<trkpt lat="55.527071" lon="8.348744">
|
|
<ele>8.738883</ele>
|
|
<time>2026-07-11T10:35:06.000Z</time>
|
|
</trkpt>
|
|
<trkpt lat="55.527094" lon="8.348742">
|
|
<ele>8.776903</ele>
|
|
<time>2026-07-11T10:35:07.000Z</time>
|
|
</trkpt>
|
|
<trkpt lat="55.527119" lon="8.348743">
|
|
<ele>8.818189</ele>
|
|
<time>2026-07-11T10:35:08.000Z</time>
|
|
</trkpt>
|
|
<trkpt lat="55.527148" lon="8.348740">
|
|
<ele>8.866151</ele>
|
|
<time>2026-07-11T10:35:09.000Z</time>
|
|
</trkpt>
|
|
<trkpt lat="55.527178" lon="8.348736">
|
|
<ele>8.915823</ele>
|
|
<time>2026-07-11T10:35:10.000Z</time>
|
|
</trkpt>
|
|
<trkpt lat="55.527211" lon="8.348730">
|
|
<ele>8.970594</ele>
|
|
<time>2026-07-11T10:35:11.000Z</time>
|
|
</trkpt>
|
|
<trkpt lat="55.527250" lon="8.348721">
|
|
<ele>9.035531</ele>
|
|
<time>2026-07-11T10:35:12.000Z</time>
|
|
</trkpt>
|
|
<trkpt lat="55.527286" lon="8.348706">
|
|
<ele>9.096599</ele>
|
|
<time>2026-07-11T10:35:13.000Z</time>
|
|
</trkpt>
|
|
<trkpt lat="55.527323" lon="8.348685">
|
|
<ele>9.160762</ele>
|
|
<time>2026-07-11T10:35:14.000Z</time>
|
|
</trkpt>
|
|
<trkpt lat="55.527361" lon="8.348663">
|
|
<ele>9.226784</ele>
|
|
<time>2026-07-11T10:35:15.000Z</time>
|
|
</trkpt>
|
|
<trkpt lat="55.527395" lon="8.348646">
|
|
<ele>9.285123</ele>
|
|
<time>2026-07-11T10:35:16.000Z</time>
|
|
</trkpt>
|
|
<trkpt lat="55.527444" lon="8.348622">
|
|
<ele>9.369075</ele>
|
|
<time>2026-07-11T10:35:17.000Z</time>
|
|
</trkpt>
|
|
<trkpt lat="55.527484" lon="8.348604">
|
|
<ele>9.437225</ele>
|
|
<time>2026-07-11T10:35:18.000Z</time>
|
|
</trkpt>
|
|
<trkpt lat="55.527524" lon="8.348586">
|
|
<ele>9.505375</ele>
|
|
<time>2026-07-11T10:35:19.000Z</time>
|
|
</trkpt>
|
|
<trkpt lat="55.527562" lon="8.348571">
|
|
<ele>9.569661</ele>
|
|
<time>2026-07-11T10:35:20.000Z</time>
|
|
</trkpt>
|
|
<trkpt lat="55.527601" lon="8.348558">
|
|
<ele>9.635187</ele>
|
|
<time>2026-07-11T10:35:21.000Z</time>
|
|
</trkpt>
|
|
<trkpt lat="55.527639" lon="8.348547">
|
|
<ele>9.698762</ele>
|
|
<time>2026-07-11T10:35:22.000Z</time>
|
|
</trkpt>
|
|
<trkpt lat="55.527677" lon="8.348538">
|
|
<ele>9.762063</ele>
|
|
<time>2026-07-11T10:35:23.000Z</time>
|
|
</trkpt>
|
|
<trkpt lat="55.527715" lon="8.348531">
|
|
<ele>9.825142</ele>
|
|
<time>2026-07-11T10:35:24.000Z</time>
|
|
</trkpt>
|
|
<trkpt lat="55.527754" lon="8.348524">
|
|
<ele>9.889863</ele>
|
|
<time>2026-07-11T10:35:25.000Z</time>
|
|
</trkpt>
|
|
<trkpt lat="55.527793" lon="8.348517">
|
|
<ele>9.954585</ele>
|
|
<time>2026-07-11T10:35:26.000Z</time>
|
|
</trkpt>
|
|
<trkpt lat="55.527834" lon="8.348510">
|
|
<ele>10.022593</ele>
|
|
<time>2026-07-11T10:35:27.000Z</time>
|
|
</trkpt>
|
|
<trkpt lat="55.527870" lon="8.348502">
|
|
<ele>10.082498</ele>
|
|
<time>2026-07-11T10:35:28.000Z</time>
|
|
</trkpt>
|
|
<trkpt lat="55.527906" lon="8.348496">
|
|
<ele>10.162062</ele>
|
|
<time>2026-07-11T10:35:29.000Z</time>
|
|
</trkpt>
|
|
<trkpt lat="55.527944" lon="8.348492">
|
|
<ele>10.290188</ele>
|
|
<time>2026-07-11T10:35:30.000Z</time>
|
|
</trkpt>
|
|
<trkpt lat="55.527984" lon="8.348489">
|
|
<ele>10.424940</ele>
|
|
<time>2026-07-11T10:35:31.000Z</time>
|
|
</trkpt>
|
|
<trkpt lat="55.528026" lon="8.348485">
|
|
<ele>10.566507</ele>
|
|
<time>2026-07-11T10:35:32.000Z</time>
|
|
</trkpt>
|
|
<trkpt lat="55.528068" lon="8.348481">
|
|
<ele>10.708074</ele>
|
|
<time>2026-07-11T10:35:33.000Z</time>
|
|
</trkpt>
|
|
<trkpt lat="55.528108" lon="8.348476">
|
|
<ele>10.843041</ele>
|
|
<time>2026-07-11T10:35:34.000Z</time>
|
|
</trkpt>
|
|
<trkpt lat="55.528148" lon="8.348472">
|
|
<ele>10.977887</ele>
|
|
<time>2026-07-11T10:35:35.000Z</time>
|
|
</trkpt>
|
|
<trkpt lat="55.528188" lon="8.348468">
|
|
<ele>11.112733</ele>
|
|
<time>2026-07-11T10:35:36.000Z</time>
|
|
</trkpt>
|
|
<trkpt lat="55.528227" lon="8.348465">
|
|
<ele>11.244122</ele>
|
|
<time>2026-07-11T10:35:37.000Z</time>
|
|
</trkpt>
|
|
<trkpt lat="55.528266" lon="8.348460">
|
|
<ele>11.375732</ele>
|
|
<time>2026-07-11T10:35:38.000Z</time>
|
|
</trkpt>
|
|
<trkpt lat="55.528305" lon="8.348453">
|
|
<ele>11.507673</ele>
|
|
<time>2026-07-11T10:35:39.000Z</time>
|
|
</trkpt>
|
|
<trkpt lat="55.528344" lon="8.348444">
|
|
<ele>11.640053</ele>
|
|
<time>2026-07-11T10:35:40.000Z</time>
|
|
</trkpt>
|
|
<trkpt lat="55.528387" lon="8.348439">
|
|
<ele>11.785093</ele>
|
|
<time>2026-07-11T10:35:41.000Z</time>
|
|
</trkpt>
|
|
<trkpt lat="55.528428" lon="8.348438">
|
|
<ele>11.923103</ele>
|
|
<time>2026-07-11T10:35:42.000Z</time>
|
|
</trkpt>
|
|
<trkpt lat="55.528469" lon="8.348435">
|
|
<ele>12.061218</ele>
|
|
<time>2026-07-11T10:35:43.000Z</time>
|
|
</trkpt>
|
|
<trkpt lat="55.528506" lon="8.348433">
|
|
<ele>12.185809</ele>
|
|
<time>2026-07-11T10:35:44.000Z</time>
|
|
</trkpt>
|
|
<trkpt lat="55.528547" lon="8.348432">
|
|
<ele>12.323819</ele>
|
|
<time>2026-07-11T10:35:45.000Z</time>
|
|
</trkpt>
|
|
<trkpt lat="55.528586" lon="8.348428">
|
|
<ele>12.455304</ele>
|
|
<time>2026-07-11T10:35:46.000Z</time>
|
|
</trkpt>
|
|
<trkpt lat="55.528627" lon="8.348423">
|
|
<ele>12.593629</ele>
|
|
<time>2026-07-11T10:35:47.000Z</time>
|
|
</trkpt>
|
|
<trkpt lat="55.528663" lon="8.348416">
|
|
<ele>12.715528</ele>
|
|
<time>2026-07-11T10:35:48.000Z</time>
|
|
</trkpt>
|
|
<trkpt lat="55.528700" lon="8.348408">
|
|
<ele>12.840990</ele>
|
|
<time>2026-07-11T10:35:49.000Z</time>
|
|
</trkpt>
|
|
<trkpt lat="55.528736" lon="8.348403">
|
|
<ele>12.962532</ele>
|
|
<time>2026-07-11T10:35:50.000Z</time>
|
|
</trkpt>
|
|
<trkpt lat="55.528772" lon="8.348398">
|
|
<ele>13.084073</ele>
|
|
<time>2026-07-11T10:35:51.000Z</time>
|
|
</trkpt>
|
|
<trkpt lat="55.528810" lon="8.348396">
|
|
<ele>13.212029</ele>
|
|
<time>2026-07-11T10:35:52.000Z</time>
|
|
</trkpt>
|
|
<trkpt lat="55.528848" lon="8.348396">
|
|
<ele>13.339928</ele>
|
|
<time>2026-07-11T10:35:53.000Z</time>
|
|
</trkpt>
|
|
<trkpt lat="55.528886" lon="8.348396">
|
|
<ele>13.467827</ele>
|
|
<time>2026-07-11T10:35:54.000Z</time>
|
|
</trkpt>
|
|
<trkpt lat="55.528924" lon="8.348395">
|
|
<ele>13.595740</ele>
|
|
<time>2026-07-11T10:35:55.000Z</time>
|
|
</trkpt>
|
|
<trkpt lat="55.528962" lon="8.348395">
|
|
<ele>13.723639</ele>
|
|
<time>2026-07-11T10:35:56.000Z</time>
|
|
</trkpt>
|
|
<trkpt lat="55.528998" lon="8.348396">
|
|
<ele>13.844821</ele>
|
|
<time>2026-07-11T10:35:57.000Z</time>
|
|
</trkpt>
|
|
<trkpt lat="55.529035" lon="8.348397">
|
|
<ele>13.969369</ele>
|
|
<time>2026-07-11T10:35:58.000Z</time>
|
|
</trkpt>
|
|
<trkpt lat="55.529073" lon="8.348399">
|
|
<ele>14.097325</ele>
|
|
<time>2026-07-11T10:35:59.000Z</time>
|
|
</trkpt>
|
|
<trkpt lat="55.529110" lon="8.348400">
|
|
<ele>14.221873</ele>
|
|
<time>2026-07-11T10:36:00.000Z</time>
|
|
</trkpt>
|
|
<trkpt lat="55.529146" lon="8.348400">
|
|
<ele>14.343040</ele>
|
|
<time>2026-07-11T10:36:01.000Z</time>
|
|
</trkpt>
|
|
<trkpt lat="55.529184" lon="8.348401">
|
|
<ele>14.470953</ele>
|
|
<time>2026-07-11T10:36:02.000Z</time>
|
|
</trkpt>
|
|
<trkpt lat="55.529222" lon="8.348404">
|
|
<ele>14.598980</ele>
|
|
<time>2026-07-11T10:36:03.000Z</time>
|
|
</trkpt>
|
|
<trkpt lat="55.529260" lon="8.348407">
|
|
<ele>14.727007</ele>
|
|
<time>2026-07-11T10:36:04.000Z</time>
|
|
</trkpt>
|
|
<trkpt lat="55.529299" lon="8.348413">
|
|
<ele>14.858768</ele>
|
|
<time>2026-07-11T10:36:05.000Z</time>
|
|
</trkpt>
|
|
<trkpt lat="55.529337" lon="8.348419">
|
|
<ele>14.987177</ele>
|
|
<time>2026-07-11T10:36:06.000Z</time>
|
|
</trkpt>
|
|
<trkpt lat="55.529372" lon="8.348424">
|
|
<ele>15.105363</ele>
|
|
<time>2026-07-11T10:36:07.000Z</time>
|
|
</trkpt>
|
|
<trkpt lat="55.529409" lon="8.348427">
|
|
<ele>15.230027</ele>
|
|
<time>2026-07-11T10:36:08.000Z</time>
|
|
</trkpt>
|
|
<trkpt lat="55.529450" lon="8.348429">
|
|
<ele>15.368076</ele>
|
|
<time>2026-07-11T10:36:09.000Z</time>
|
|
</trkpt>
|
|
<trkpt lat="55.529487" lon="8.348430">
|
|
<ele>15.492624</ele>
|
|
<time>2026-07-11T10:36:10.000Z</time>
|
|
</trkpt>
|
|
<trkpt lat="55.529527" lon="8.348432">
|
|
<ele>15.627309</ele>
|
|
<time>2026-07-11T10:36:11.000Z</time>
|
|
</trkpt>
|
|
<trkpt lat="55.529565" lon="8.348436">
|
|
<ele>15.755434</ele>
|
|
<time>2026-07-11T10:36:12.000Z</time>
|
|
</trkpt>
|
|
<trkpt lat="55.529602" lon="8.348440">
|
|
<ele>15.880200</ele>
|
|
<time>2026-07-11T10:36:13.000Z</time>
|
|
</trkpt>
|
|
<trkpt lat="55.529638" lon="8.348443">
|
|
<ele>16.001503</ele>
|
|
<time>2026-07-11T10:36:14.000Z</time>
|
|
</trkpt>
|
|
<trkpt lat="55.529674" lon="8.348447">
|
|
<ele>16.122910</ele>
|
|
<time>2026-07-11T10:36:15.000Z</time>
|
|
</trkpt>
|
|
<trkpt lat="55.529709" lon="8.348450">
|
|
<ele>16.219950</ele>
|
|
<time>2026-07-11T10:36:16.000Z</time>
|
|
</trkpt>
|
|
<trkpt lat="55.529749" lon="8.348451">
|
|
<ele>16.310604</ele>
|
|
<time>2026-07-11T10:36:17.000Z</time>
|
|
</trkpt>
|
|
<trkpt lat="55.529787" lon="8.348451">
|
|
<ele>16.396716</ele>
|
|
<time>2026-07-11T10:36:18.000Z</time>
|
|
</trkpt>
|
|
<trkpt lat="55.529825" lon="8.348453">
|
|
<ele>16.482867</ele>
|
|
<time>2026-07-11T10:36:19.000Z</time>
|
|
</trkpt>
|
|
<trkpt lat="55.529861" lon="8.348457">
|
|
<ele>16.564608</ele>
|
|
<time>2026-07-11T10:36:20.000Z</time>
|
|
</trkpt>
|
|
<trkpt lat="55.529898" lon="8.348460">
|
|
<ele>16.648543</ele>
|
|
<time>2026-07-11T10:36:21.000Z</time>
|
|
</trkpt>
|
|
<trkpt lat="55.529936" lon="8.348463">
|
|
<ele>16.734741</ele>
|
|
<time>2026-07-11T10:36:22.000Z</time>
|
|
</trkpt>
|
|
<trkpt lat="55.529973" lon="8.348465">
|
|
<ele>16.818627</ele>
|
|
<time>2026-07-11T10:36:23.000Z</time>
|
|
</trkpt>
|
|
<trkpt lat="55.530011" lon="8.348465">
|
|
<ele>16.904739</ele>
|
|
<time>2026-07-11T10:36:24.000Z</time>
|
|
</trkpt>
|
|
<trkpt lat="55.530050" lon="8.348464">
|
|
<ele>16.993127</ele>
|
|
<time>2026-07-11T10:36:25.000Z</time>
|
|
</trkpt>
|
|
<trkpt lat="55.530088" lon="8.348463">
|
|
<ele>17.079249</ele>
|
|
<time>2026-07-11T10:36:26.000Z</time>
|
|
</trkpt>
|
|
<trkpt lat="55.530128" lon="8.348464">
|
|
<ele>17.169903</ele>
|
|
<time>2026-07-11T10:36:27.000Z</time>
|
|
</trkpt>
|
|
<trkpt lat="55.530168" lon="8.348467">
|
|
<ele>17.260629</ele>
|
|
<time>2026-07-11T10:36:28.000Z</time>
|
|
</trkpt>
|
|
<trkpt lat="55.530208" lon="8.348473">
|
|
<ele>17.351599</ele>
|
|
<time>2026-07-11T10:36:29.000Z</time>
|
|
</trkpt>
|
|
<trkpt lat="55.530248" lon="8.348483">
|
|
<ele>17.443147</ele>
|
|
<time>2026-07-11T10:36:30.000Z</time>
|
|
</trkpt>
|
|
<trkpt lat="55.530288" lon="8.348492">
|
|
<ele>17.534524</ele>
|
|
<time>2026-07-11T10:36:31.000Z</time>
|
|
</trkpt>
|
|
<trkpt lat="55.530329" lon="8.348497">
|
|
<ele>17.627655</ele>
|
|
<time>2026-07-11T10:36:32.000Z</time>
|
|
</trkpt>
|
|
<trkpt lat="55.530367" lon="8.348498">
|
|
<ele>17.713777</ele>
|
|
<time>2026-07-11T10:36:33.000Z</time>
|
|
</trkpt>
|
|
<trkpt lat="55.530406" lon="8.348499">
|
|
<ele>17.802165</ele>
|
|
<time>2026-07-11T10:36:34.000Z</time>
|
|
</trkpt>
|
|
<trkpt lat="55.530447" lon="8.348501">
|
|
<ele>17.895111</ele>
|
|
<time>2026-07-11T10:36:35.000Z</time>
|
|
</trkpt>
|
|
<trkpt lat="55.530486" lon="8.348504">
|
|
<ele>17.983574</ele>
|
|
<time>2026-07-11T10:36:36.000Z</time>
|
|
</trkpt>
|
|
<trkpt lat="55.530528" lon="8.348504">
|
|
<ele>18.078750</ele>
|
|
<time>2026-07-11T10:36:37.000Z</time>
|
|
</trkpt>
|
|
<trkpt lat="55.530570" lon="8.348503">
|
|
<ele>18.173936</ele>
|
|
<time>2026-07-11T10:36:38.000Z</time>
|
|
</trkpt>
|
|
<trkpt lat="55.530611" lon="8.348502">
|
|
<ele>18.266855</ele>
|
|
<time>2026-07-11T10:36:39.000Z</time>
|
|
</trkpt>
|
|
<trkpt lat="55.530652" lon="8.348500">
|
|
<ele>18.359802</ele>
|
|
<time>2026-07-11T10:36:40.000Z</time>
|
|
</trkpt>
|
|
<trkpt lat="55.530698" lon="8.348499">
|
|
<ele>18.464051</ele>
|
|
<time>2026-07-11T10:36:41.000Z</time>
|
|
</trkpt>
|
|
<trkpt lat="55.530741" lon="8.348502">
|
|
<ele>18.561570</ele>
|
|
<time>2026-07-11T10:36:42.000Z</time>
|
|
</trkpt>
|
|
<trkpt lat="55.530782" lon="8.348504">
|
|
<ele>18.654516</ele>
|
|
<time>2026-07-11T10:36:43.000Z</time>
|
|
</trkpt>
|
|
<trkpt lat="55.530827" lon="8.348504">
|
|
<ele>18.756491</ele>
|
|
<time>2026-07-11T10:36:44.000Z</time>
|
|
</trkpt>
|
|
<trkpt lat="55.530873" lon="8.348504">
|
|
<ele>18.860732</ele>
|
|
<time>2026-07-11T10:36:45.000Z</time>
|
|
</trkpt>
|
|
<trkpt lat="55.530919" lon="8.348504">
|
|
<ele>18.964974</ele>
|
|
<time>2026-07-11T10:36:46.000Z</time>
|
|
</trkpt>
|
|
<trkpt lat="55.530964" lon="8.348501">
|
|
<ele>19.067021</ele>
|
|
<time>2026-07-11T10:36:47.000Z</time>
|
|
</trkpt>
|
|
<trkpt lat="55.531007" lon="8.348498">
|
|
<ele>19.164540</ele>
|
|
<time>2026-07-11T10:36:48.000Z</time>
|
|
</trkpt>
|
|
<trkpt lat="55.531053" lon="8.348495">
|
|
<ele>19.268853</ele>
|
|
<time>2026-07-11T10:36:49.000Z</time>
|
|
</trkpt>
|
|
<trkpt lat="55.531097" lon="8.348491">
|
|
<ele>19.368694</ele>
|
|
<time>2026-07-11T10:36:50.000Z</time>
|
|
</trkpt>
|
|
<trkpt lat="55.531140" lon="8.348486">
|
|
<ele>19.466347</ele>
|
|
<time>2026-07-11T10:36:51.000Z</time>
|
|
</trkpt>
|
|
<trkpt lat="55.531186" lon="8.348480">
|
|
<ele>19.570872</ele>
|
|
<time>2026-07-11T10:36:52.000Z</time>
|
|
</trkpt>
|
|
<trkpt lat="55.531228" lon="8.348473">
|
|
<ele>19.666472</ele>
|
|
<time>2026-07-11T10:36:53.000Z</time>
|
|
</trkpt>
|
|
<trkpt lat="55.531270" lon="8.348466">
|
|
<ele>19.762071</ele>
|
|
<time>2026-07-11T10:36:54.000Z</time>
|
|
</trkpt>
|
|
<trkpt lat="55.531315" lon="8.348456">
|
|
<ele>19.864850</ele>
|
|
<time>2026-07-11T10:36:55.000Z</time>
|
|
</trkpt>
|
|
<trkpt lat="55.531360" lon="8.348441">
|
|
<ele>19.968624</ele>
|
|
<time>2026-07-11T10:36:56.000Z</time>
|
|
</trkpt>
|
|
<trkpt lat="55.531400" lon="8.348425">
|
|
<ele>20.061562</ele>
|
|
<time>2026-07-11T10:36:57.000Z</time>
|
|
</trkpt>
|
|
<trkpt lat="55.531438" lon="8.348411">
|
|
<ele>20.149526</ele>
|
|
<time>2026-07-11T10:36:58.000Z</time>
|
|
</trkpt>
|
|
<trkpt lat="55.531474" lon="8.348398">
|
|
<ele>20.232793</ele>
|
|
<time>2026-07-11T10:36:59.000Z</time>
|
|
</trkpt>
|
|
<trkpt lat="55.531514" lon="8.348380">
|
|
<ele>20.273253</ele>
|
|
<time>2026-07-11T10:37:00.000Z</time>
|
|
</trkpt>
|
|
<trkpt lat="55.531570" lon="8.348342">
|
|
<ele>20.311044</ele>
|
|
<time>2026-07-11T10:37:01.000Z</time>
|
|
</trkpt>
|
|
<trkpt lat="55.531625" lon="8.348304">
|
|
<ele>20.348248</ele>
|
|
<time>2026-07-11T10:37:02.000Z</time>
|
|
</trkpt>
|
|
<trkpt lat="55.531678" lon="8.348272">
|
|
<ele>20.383533</ele>
|
|
<time>2026-07-11T10:37:03.000Z</time>
|
|
</trkpt>
|
|
<trkpt lat="55.531712" lon="8.348272">
|
|
<ele>20.404953</ele>
|
|
<time>2026-07-11T10:37:04.000Z</time>
|
|
</trkpt>
|
|
<trkpt lat="55.531758" lon="8.348242">
|
|
<ele>20.435843</ele>
|
|
<time>2026-07-11T10:37:05.000Z</time>
|
|
</trkpt>
|
|
<trkpt lat="55.531797" lon="8.348234">
|
|
<ele>20.460578</ele>
|
|
<time>2026-07-11T10:37:06.000Z</time>
|
|
</trkpt>
|
|
<trkpt lat="55.531843" lon="8.348241">
|
|
<ele>20.489664</ele>
|
|
<time>2026-07-11T10:37:07.000Z</time>
|
|
</trkpt>
|
|
<trkpt lat="55.531889" lon="8.348245">
|
|
<ele>20.518679</ele>
|
|
<time>2026-07-11T10:37:08.000Z</time>
|
|
</trkpt>
|
|
<trkpt lat="55.531935" lon="8.348243">
|
|
<ele>20.547667</ele>
|
|
<time>2026-07-11T10:37:09.000Z</time>
|
|
</trkpt>
|
|
<trkpt lat="55.531980" lon="8.348238">
|
|
<ele>20.576072</ele>
|
|
<time>2026-07-11T10:37:10.000Z</time>
|
|
</trkpt>
|
|
<trkpt lat="55.532029" lon="8.348242">
|
|
<ele>20.606975</ele>
|
|
<time>2026-07-11T10:37:11.000Z</time>
|
|
</trkpt>
|
|
<trkpt lat="55.532076" lon="8.348242">
|
|
<ele>20.636584</ele>
|
|
<time>2026-07-11T10:37:12.000Z</time>
|
|
</trkpt>
|
|
<trkpt lat="55.532125" lon="8.348239">
|
|
<ele>20.667472</ele>
|
|
<time>2026-07-11T10:37:13.000Z</time>
|
|
</trkpt>
|
|
<trkpt lat="55.532168" lon="8.348235">
|
|
<ele>20.694599</ele>
|
|
<time>2026-07-11T10:37:14.000Z</time>
|
|
</trkpt>
|
|
<trkpt lat="55.532217" lon="8.348230">
|
|
<ele>20.725520</ele>
|
|
<time>2026-07-11T10:37:15.000Z</time>
|
|
</trkpt>
|
|
<trkpt lat="55.532263" lon="8.348222">
|
|
<ele>20.754639</ele>
|
|
<time>2026-07-11T10:37:16.000Z</time>
|
|
</trkpt>
|
|
<trkpt lat="55.532310" lon="8.348215">
|
|
<ele>20.784354</ele>
|
|
<time>2026-07-11T10:37:17.000Z</time>
|
|
</trkpt>
|
|
<trkpt lat="55.532359" lon="8.348206">
|
|
<ele>20.815390</ele>
|
|
<time>2026-07-11T10:37:18.000Z</time>
|
|
</trkpt>
|
|
<trkpt lat="55.532408" lon="8.348196">
|
|
<ele>20.846464</ele>
|
|
<time>2026-07-11T10:37:19.000Z</time>
|
|
</trkpt>
|
|
<trkpt lat="55.532456" lon="8.348188">
|
|
<ele>20.876838</ele>
|
|
<time>2026-07-11T10:37:20.000Z</time>
|
|
</trkpt>
|
|
<trkpt lat="55.532506" lon="8.348181">
|
|
<ele>20.908436</ele>
|
|
<time>2026-07-11T10:37:21.000Z</time>
|
|
</trkpt>
|
|
<trkpt lat="55.532560" lon="8.348172">
|
|
<ele>20.942606</ele>
|
|
<time>2026-07-11T10:37:22.000Z</time>
|
|
</trkpt>
|
|
<trkpt lat="55.532612" lon="8.348160">
|
|
<ele>20.975644</ele>
|
|
<time>2026-07-11T10:37:23.000Z</time>
|
|
</trkpt>
|
|
<trkpt lat="55.532660" lon="8.348147">
|
|
<ele>21.006236</ele>
|
|
<time>2026-07-11T10:37:24.000Z</time>
|
|
</trkpt>
|
|
<trkpt lat="55.532710" lon="8.348134">
|
|
<ele>21.038075</ele>
|
|
<time>2026-07-11T10:37:25.000Z</time>
|
|
</trkpt>
|
|
<trkpt lat="55.532763" lon="8.348118">
|
|
<ele>21.071948</ele>
|
|
<time>2026-07-11T10:37:26.000Z</time>
|
|
</trkpt>
|
|
<trkpt lat="55.532815" lon="8.348100">
|
|
<ele>21.105330</ele>
|
|
<time>2026-07-11T10:37:27.000Z</time>
|
|
</trkpt>
|
|
<trkpt lat="55.532868" lon="8.348082">
|
|
<ele>21.139331</ele>
|
|
<time>2026-07-11T10:37:28.000Z</time>
|
|
</trkpt>
|
|
<trkpt lat="55.532919" lon="8.348064">
|
|
<ele>21.172095</ele>
|
|
<time>2026-07-11T10:37:29.000Z</time>
|
|
</trkpt>
|
|
<trkpt lat="55.532968" lon="8.348045">
|
|
<ele>21.203699</ele>
|
|
<time>2026-07-11T10:37:30.000Z</time>
|
|
</trkpt>
|
|
<trkpt lat="55.533018" lon="8.348024">
|
|
<ele>21.236076</ele>
|
|
<time>2026-07-11T10:37:31.000Z</time>
|
|
</trkpt>
|
|
<trkpt lat="55.533068" lon="8.348002">
|
|
<ele>21.268537</ele>
|
|
<time>2026-07-11T10:37:32.000Z</time>
|
|
</trkpt>
|
|
<trkpt lat="55.533118" lon="8.347981">
|
|
<ele>21.300914</ele>
|
|
<time>2026-07-11T10:37:33.000Z</time>
|
|
</trkpt>
|
|
<trkpt lat="55.533168" lon="8.347956">
|
|
<ele>21.333650</ele>
|
|
<time>2026-07-11T10:37:34.000Z</time>
|
|
</trkpt>
|
|
<trkpt lat="55.533218" lon="8.347929">
|
|
<ele>21.366588</ele>
|
|
<time>2026-07-11T10:37:35.000Z</time>
|
|
</trkpt>
|
|
<trkpt lat="55.533266" lon="8.347901">
|
|
<ele>21.363679</ele>
|
|
<time>2026-07-11T10:37:36.000Z</time>
|
|
</trkpt>
|
|
<trkpt lat="55.533316" lon="8.347871">
|
|
<ele>21.304411</ele>
|
|
<time>2026-07-11T10:37:37.000Z</time>
|
|
</trkpt>
|
|
<trkpt lat="55.533364" lon="8.347842">
|
|
<ele>21.247473</ele>
|
|
<time>2026-07-11T10:37:38.000Z</time>
|
|
</trkpt>
|
|
<trkpt lat="55.533412" lon="8.347815">
|
|
<ele>21.190934</ele>
|
|
<time>2026-07-11T10:37:39.000Z</time>
|
|
</trkpt>
|
|
<trkpt lat="55.533458" lon="8.347790">
|
|
<ele>21.136916</ele>
|
|
<time>2026-07-11T10:37:40.000Z</time>
|
|
</trkpt>
|
|
<trkpt lat="55.533505" lon="8.347765">
|
|
<ele>21.081824</ele>
|
|
<time>2026-07-11T10:37:41.000Z</time>
|
|
</trkpt>
|
|
<trkpt lat="55.533555" lon="8.347738">
|
|
<ele>21.023141</ele>
|
|
<time>2026-07-11T10:37:42.000Z</time>
|
|
</trkpt>
|
|
<trkpt lat="55.533602" lon="8.347709">
|
|
<ele>20.967264</ele>
|
|
<time>2026-07-11T10:37:43.000Z</time>
|
|
</trkpt>
|
|
<trkpt lat="55.533652" lon="8.347679">
|
|
<ele>20.907997</ele>
|
|
<time>2026-07-11T10:37:44.000Z</time>
|
|
</trkpt>
|
|
<trkpt lat="55.533701" lon="8.347648">
|
|
<ele>20.849580</ele>
|
|
<time>2026-07-11T10:37:45.000Z</time>
|
|
</trkpt>
|
|
<trkpt lat="55.533751" lon="8.347614">
|
|
<ele>20.789447</ele>
|
|
<time>2026-07-11T10:37:46.000Z</time>
|
|
</trkpt>
|
|
<trkpt lat="55.533800" lon="8.347579">
|
|
<ele>20.730125</ele>
|
|
<time>2026-07-11T10:37:47.000Z</time>
|
|
</trkpt>
|
|
<trkpt lat="55.533850" lon="8.347540">
|
|
<ele>20.668780</ele>
|
|
<time>2026-07-11T10:37:48.000Z</time>
|
|
</trkpt>
|
|
<trkpt lat="55.533902" lon="8.347499">
|
|
<ele>20.604868</ele>
|
|
<time>2026-07-11T10:37:49.000Z</time>
|
|
</trkpt>
|
|
<trkpt lat="55.533954" lon="8.347457">
|
|
<ele>20.540695</ele>
|
|
<time>2026-07-11T10:37:50.000Z</time>
|
|
</trkpt>
|
|
<trkpt lat="55.534001" lon="8.347415">
|
|
<ele>20.481579</ele>
|
|
<time>2026-07-11T10:37:51.000Z</time>
|
|
</trkpt>
|
|
<trkpt lat="55.534047" lon="8.347371">
|
|
<ele>20.422869</ele>
|
|
<time>2026-07-11T10:37:52.000Z</time>
|
|
</trkpt>
|
|
<trkpt lat="55.534098" lon="8.347325">
|
|
<ele>20.358600</ele>
|
|
<time>2026-07-11T10:37:53.000Z</time>
|
|
</trkpt>
|
|
<trkpt lat="55.534154" lon="8.347277">
|
|
<ele>20.288741</ele>
|
|
<time>2026-07-11T10:37:54.000Z</time>
|
|
</trkpt>
|
|
<trkpt lat="55.534207" lon="8.347228">
|
|
<ele>20.221603</ele>
|
|
<time>2026-07-11T10:37:55.000Z</time>
|
|
</trkpt>
|
|
<trkpt lat="55.534261" lon="8.347179">
|
|
<ele>20.153468</ele>
|
|
<time>2026-07-11T10:37:56.000Z</time>
|
|
</trkpt>
|
|
<trkpt lat="55.534316" lon="8.347129">
|
|
<ele>20.084045</ele>
|
|
<time>2026-07-11T10:37:57.000Z</time>
|
|
</trkpt>
|
|
<trkpt lat="55.534371" lon="8.347077">
|
|
<ele>20.014031</ele>
|
|
<time>2026-07-11T10:37:58.000Z</time>
|
|
</trkpt>
|
|
<trkpt lat="55.534424" lon="8.347024">
|
|
<ele>19.945678</ele>
|
|
<time>2026-07-11T10:37:59.000Z</time>
|
|
</trkpt>
|
|
<trkpt lat="55.534476" lon="8.346970">
|
|
<ele>19.877980</ele>
|
|
<time>2026-07-11T10:38:00.000Z</time>
|
|
</trkpt>
|
|
<trkpt lat="55.534526" lon="8.346915">
|
|
<ele>19.811875</ele>
|
|
<time>2026-07-11T10:38:01.000Z</time>
|
|
</trkpt>
|
|
<trkpt lat="55.534576" lon="8.346856">
|
|
<ele>19.744392</ele>
|
|
<time>2026-07-11T10:38:02.000Z</time>
|
|
</trkpt>
|
|
<trkpt lat="55.534624" lon="8.346796">
|
|
<ele>19.678399</ele>
|
|
<time>2026-07-11T10:38:03.000Z</time>
|
|
</trkpt>
|
|
<trkpt lat="55.534669" lon="8.346735">
|
|
<ele>19.614741</ele>
|
|
<time>2026-07-11T10:38:04.000Z</time>
|
|
</trkpt>
|
|
<trkpt lat="55.534714" lon="8.346672">
|
|
<ele>19.550301</ele>
|
|
<time>2026-07-11T10:38:05.000Z</time>
|
|
</trkpt>
|
|
<trkpt lat="55.534760" lon="8.346606">
|
|
<ele>19.483794</ele>
|
|
<time>2026-07-11T10:38:06.000Z</time>
|
|
</trkpt>
|
|
<trkpt lat="55.534805" lon="8.346536">
|
|
<ele>19.416503</ele>
|
|
<time>2026-07-11T10:38:07.000Z</time>
|
|
</trkpt>
|
|
<trkpt lat="55.534851" lon="8.346466">
|
|
<ele>19.331054</ele>
|
|
<time>2026-07-11T10:38:08.000Z</time>
|
|
</trkpt>
|
|
<trkpt lat="55.534898" lon="8.346393">
|
|
<ele>19.195979</ele>
|
|
<time>2026-07-11T10:38:09.000Z</time>
|
|
</trkpt>
|
|
<trkpt lat="55.534944" lon="8.346325">
|
|
<ele>19.066520</ele>
|
|
<time>2026-07-11T10:38:10.000Z</time>
|
|
</trkpt>
|
|
<trkpt lat="55.534993" lon="8.346258">
|
|
<ele>18.932780</ele>
|
|
<time>2026-07-11T10:38:11.000Z</time>
|
|
</trkpt>
|
|
<trkpt lat="55.535046" lon="8.346184">
|
|
<ele>18.786971</ele>
|
|
<time>2026-07-11T10:38:12.000Z</time>
|
|
</trkpt>
|
|
<trkpt lat="55.535100" lon="8.346110">
|
|
<ele>18.639463</ele>
|
|
<time>2026-07-11T10:38:13.000Z</time>
|
|
</trkpt>
|
|
<trkpt lat="55.535153" lon="8.346032">
|
|
<ele>18.490576</ele>
|
|
<time>2026-07-11T10:38:14.000Z</time>
|
|
</trkpt>
|
|
<trkpt lat="55.535205" lon="8.345954">
|
|
<ele>18.343341</ele>
|
|
<time>2026-07-11T10:38:15.000Z</time>
|
|
</trkpt>
|
|
<trkpt lat="55.535254" lon="8.345875">
|
|
<ele>18.200161</ele>
|
|
<time>2026-07-11T10:38:16.000Z</time>
|
|
</trkpt>
|
|
<trkpt lat="55.535303" lon="8.345794">
|
|
<ele>18.055323</ele>
|
|
<time>2026-07-11T10:38:17.000Z</time>
|
|
</trkpt>
|
|
<trkpt lat="55.535356" lon="8.345712">
|
|
<ele>17.903263</ele>
|
|
<time>2026-07-11T10:38:18.000Z</time>
|
|
</trkpt>
|
|
<trkpt lat="55.535411" lon="8.345633">
|
|
<ele>17.750266</ele>
|
|
<time>2026-07-11T10:38:19.000Z</time>
|
|
</trkpt>
|
|
<trkpt lat="55.535467" lon="8.345554">
|
|
<ele>17.595588</ele>
|
|
<time>2026-07-11T10:38:20.000Z</time>
|
|
</trkpt>
|
|
<trkpt lat="55.535524" lon="8.345474">
|
|
<ele>17.438461</ele>
|
|
<time>2026-07-11T10:38:21.000Z</time>
|
|
</trkpt>
|
|
<trkpt lat="55.535584" lon="8.345390">
|
|
<ele>17.273224</ele>
|
|
<time>2026-07-11T10:38:22.000Z</time>
|
|
</trkpt>
|
|
<trkpt lat="55.535644" lon="8.345305">
|
|
<ele>17.107225</ele>
|
|
<time>2026-07-11T10:38:23.000Z</time>
|
|
</trkpt>
|
|
<trkpt lat="55.535701" lon="8.345222">
|
|
<ele>16.947793</ele>
|
|
<time>2026-07-11T10:38:24.000Z</time>
|
|
</trkpt>
|
|
<trkpt lat="55.535758" lon="8.345142">
|
|
<ele>16.790666</ele>
|
|
<time>2026-07-11T10:38:25.000Z</time>
|
|
</trkpt>
|
|
<trkpt lat="55.535817" lon="8.345064">
|
|
<ele>16.631612</ele>
|
|
<time>2026-07-11T10:38:26.000Z</time>
|
|
</trkpt>
|
|
<trkpt lat="55.535877" lon="8.344990">
|
|
<ele>16.473670</ele>
|
|
<time>2026-07-11T10:38:27.000Z</time>
|
|
</trkpt>
|
|
<trkpt lat="55.535939" lon="8.344922">
|
|
<ele>16.316154</ele>
|
|
<time>2026-07-11T10:38:28.000Z</time>
|
|
</trkpt>
|
|
<trkpt lat="55.536005" lon="8.344856">
|
|
<ele>16.152457</ele>
|
|
<time>2026-07-11T10:38:29.000Z</time>
|
|
</trkpt>
|
|
<trkpt lat="55.536069" lon="8.344792">
|
|
<ele>15.993719</ele>
|
|
<time>2026-07-11T10:38:30.000Z</time>
|
|
</trkpt>
|
|
<trkpt lat="55.536129" lon="8.344732">
|
|
<ele>15.844903</ele>
|
|
<time>2026-07-11T10:38:31.000Z</time>
|
|
</trkpt>
|
|
<trkpt lat="55.536189" lon="8.344676">
|
|
<ele>15.698432</ele>
|
|
<time>2026-07-11T10:38:32.000Z</time>
|
|
</trkpt>
|
|
<trkpt lat="55.536254" lon="8.344621">
|
|
<ele>15.542867</ele>
|
|
<time>2026-07-11T10:38:33.000Z</time>
|
|
</trkpt>
|
|
<trkpt lat="55.536323" lon="8.344568">
|
|
<ele>15.474317</ele>
|
|
<time>2026-07-11T10:38:34.000Z</time>
|
|
</trkpt>
|
|
<trkpt lat="55.536390" lon="8.344522">
|
|
<ele>15.459063</ele>
|
|
<time>2026-07-11T10:38:35.000Z</time>
|
|
</trkpt>
|
|
<trkpt lat="55.536455" lon="8.344481">
|
|
<ele>15.444417</ele>
|
|
<time>2026-07-11T10:38:36.000Z</time>
|
|
</trkpt>
|
|
<trkpt lat="55.536518" lon="8.344441">
|
|
<ele>15.430211</ele>
|
|
<time>2026-07-11T10:38:37.000Z</time>
|
|
</trkpt>
|
|
<trkpt lat="55.536576" lon="8.344400">
|
|
<ele>15.416954</ele>
|
|
<time>2026-07-11T10:38:38.000Z</time>
|
|
</trkpt>
|
|
<trkpt lat="55.536629" lon="8.344361">
|
|
<ele>15.404771</ele>
|
|
<time>2026-07-11T10:38:39.000Z</time>
|
|
</trkpt>
|
|
<trkpt lat="55.536685" lon="8.344325">
|
|
<ele>15.392125</ele>
|
|
<time>2026-07-11T10:38:40.000Z</time>
|
|
</trkpt>
|
|
<trkpt lat="55.536744" lon="8.344288">
|
|
<ele>15.378839</ele>
|
|
<time>2026-07-11T10:38:41.000Z</time>
|
|
</trkpt>
|
|
<trkpt lat="55.536801" lon="8.344253">
|
|
<ele>15.366033</ele>
|
|
<time>2026-07-11T10:38:42.000Z</time>
|
|
</trkpt>
|
|
<trkpt lat="55.536853" lon="8.344226">
|
|
<ele>15.354532</ele>
|
|
<time>2026-07-11T10:38:43.000Z</time>
|
|
</trkpt>
|
|
<trkpt lat="55.536908" lon="8.344209">
|
|
<ele>15.342683</ele>
|
|
<time>2026-07-11T10:38:44.000Z</time>
|
|
</trkpt>
|
|
<trkpt lat="55.536972" lon="8.344203">
|
|
<ele>15.329082</ele>
|
|
<time>2026-07-11T10:38:45.000Z</time>
|
|
</trkpt>
|
|
<trkpt lat="55.537042" lon="8.344208">
|
|
<ele>15.314215</ele>
|
|
<time>2026-07-11T10:38:46.000Z</time>
|
|
</trkpt>
|
|
<trkpt lat="55.537115" lon="8.344219">
|
|
<ele>15.298667</ele>
|
|
<time>2026-07-11T10:38:47.000Z</time>
|
|
</trkpt>
|
|
<trkpt lat="55.537189" lon="8.344228">
|
|
<ele>15.282926</ele>
|
|
<time>2026-07-11T10:38:48.000Z</time>
|
|
</trkpt>
|
|
<trkpt lat="55.537265" lon="8.344239">
|
|
<ele>15.266744</ele>
|
|
<time>2026-07-11T10:38:49.000Z</time>
|
|
</trkpt>
|
|
<trkpt lat="55.537338" lon="8.344254">
|
|
<ele>15.251148</ele>
|
|
<time>2026-07-11T10:38:50.000Z</time>
|
|
</trkpt>
|
|
<trkpt lat="55.537411" lon="8.344273">
|
|
<ele>15.235490</ele>
|
|
<time>2026-07-11T10:38:51.000Z</time>
|
|
</trkpt>
|
|
<trkpt lat="55.537482" lon="8.344296">
|
|
<ele>15.220171</ele>
|
|
<time>2026-07-11T10:38:52.000Z</time>
|
|
</trkpt>
|
|
<trkpt lat="55.537547" lon="8.344325">
|
|
<ele>15.205945</ele>
|
|
<time>2026-07-11T10:38:53.000Z</time>
|
|
</trkpt>
|
|
<trkpt lat="55.537610" lon="8.344361">
|
|
<ele>15.191894</ele>
|
|
<time>2026-07-11T10:38:54.000Z</time>
|
|
</trkpt>
|
|
<trkpt lat="55.537670" lon="8.344401">
|
|
<ele>15.178285</ele>
|
|
<time>2026-07-11T10:38:55.000Z</time>
|
|
</trkpt>
|
|
<trkpt lat="55.537728" lon="8.344444">
|
|
<ele>15.164937</ele>
|
|
<time>2026-07-11T10:38:56.000Z</time>
|
|
</trkpt>
|
|
<trkpt lat="55.537787" lon="8.344484">
|
|
<ele>15.151527</ele>
|
|
<time>2026-07-11T10:38:57.000Z</time>
|
|
</trkpt>
|
|
<trkpt lat="55.537843" lon="8.344518">
|
|
<ele>15.138961</ele>
|
|
<time>2026-07-11T10:38:58.000Z</time>
|
|
</trkpt>
|
|
<trkpt lat="55.537903" lon="8.344551">
|
|
<ele>15.125626</ele>
|
|
<time>2026-07-11T10:38:59.000Z</time>
|
|
</trkpt>
|
|
<trkpt lat="55.537966" lon="8.344591">
|
|
<ele>15.111420</ele>
|
|
<time>2026-07-11T10:39:00.000Z</time>
|
|
</trkpt>
|
|
<trkpt lat="55.538032" lon="8.344641">
|
|
<ele>15.182306</ele>
|
|
<time>2026-07-11T10:39:01.000Z</time>
|
|
</trkpt>
|
|
<trkpt lat="55.538106" lon="8.344697">
|
|
<ele>15.385726</ele>
|
|
<time>2026-07-11T10:39:02.000Z</time>
|
|
</trkpt>
|
|
<trkpt lat="55.538170" lon="8.344745">
|
|
<ele>15.561415</ele>
|
|
<time>2026-07-11T10:39:03.000Z</time>
|
|
</trkpt>
|
|
<trkpt lat="55.538244" lon="8.344797">
|
|
<ele>15.762652</ele>
|
|
<time>2026-07-11T10:39:04.000Z</time>
|
|
</trkpt>
|
|
<trkpt lat="55.538319" lon="8.344843">
|
|
<ele>15.963265</ele>
|
|
<time>2026-07-11T10:39:05.000Z</time>
|
|
</trkpt>
|
|
<trkpt lat="55.538386" lon="8.344885">
|
|
<ele>16.142908</ele>
|
|
<time>2026-07-11T10:39:06.000Z</time>
|
|
</trkpt>
|
|
<trkpt lat="55.538447" lon="8.344924">
|
|
<ele>16.306832</ele>
|
|
<time>2026-07-11T10:39:07.000Z</time>
|
|
</trkpt>
|
|
<trkpt lat="55.538503" lon="8.344957">
|
|
<ele>16.456002</ele>
|
|
<time>2026-07-11T10:39:08.000Z</time>
|
|
</trkpt>
|
|
<trkpt lat="55.538555" lon="8.344988">
|
|
<ele>16.594681</ele>
|
|
<time>2026-07-11T10:39:09.000Z</time>
|
|
</trkpt>
|
|
<trkpt lat="55.538606" lon="8.345021">
|
|
<ele>16.731923</ele>
|
|
<time>2026-07-11T10:39:10.000Z</time>
|
|
</trkpt>
|
|
<trkpt lat="55.538656" lon="8.345053">
|
|
<ele>16.866302</ele>
|
|
<time>2026-07-11T10:39:11.000Z</time>
|
|
</trkpt>
|
|
<trkpt lat="55.538704" lon="8.345082">
|
|
<ele>16.994490</ele>
|
|
<time>2026-07-11T10:39:12.000Z</time>
|
|
</trkpt>
|
|
<trkpt lat="55.538753" lon="8.345110">
|
|
<ele>17.124624</ele>
|
|
<time>2026-07-11T10:39:13.000Z</time>
|
|
</trkpt>
|
|
<trkpt lat="55.538799" lon="8.345135">
|
|
<ele>17.246237</ele>
|
|
<time>2026-07-11T10:39:14.000Z</time>
|
|
</trkpt>
|
|
<trkpt lat="55.538841" lon="8.345159">
|
|
<ele>17.357781</ele>
|
|
<time>2026-07-11T10:39:15.000Z</time>
|
|
</trkpt>
|
|
<trkpt lat="55.538882" lon="8.345184">
|
|
<ele>17.467381</ele>
|
|
<time>2026-07-11T10:39:16.000Z</time>
|
|
</trkpt>
|
|
<trkpt lat="55.538920" lon="8.345209">
|
|
<ele>17.569844</ele>
|
|
<time>2026-07-11T10:39:17.000Z</time>
|
|
</trkpt>
|
|
<trkpt lat="55.538955" lon="8.345230">
|
|
<ele>17.663246</ele>
|
|
<time>2026-07-11T10:39:18.000Z</time>
|
|
</trkpt>
|
|
<trkpt lat="55.538988" lon="8.345249">
|
|
<ele>17.750951</ele>
|
|
<time>2026-07-11T10:39:19.000Z</time>
|
|
</trkpt>
|
|
<trkpt lat="55.539019" lon="8.345267">
|
|
<ele>17.833407</ele>
|
|
<time>2026-07-11T10:39:20.000Z</time>
|
|
</trkpt>
|
|
<trkpt lat="55.539053" lon="8.345288">
|
|
<ele>17.924420</ele>
|
|
<time>2026-07-11T10:39:21.000Z</time>
|
|
</trkpt>
|
|
<trkpt lat="55.539085" lon="8.345309">
|
|
<ele>18.010679</ele>
|
|
<time>2026-07-11T10:39:22.000Z</time>
|
|
</trkpt>
|
|
<trkpt lat="55.539109" lon="8.345325">
|
|
<ele>18.075498</ele>
|
|
<time>2026-07-11T10:39:23.000Z</time>
|
|
</trkpt>
|
|
<trkpt lat="55.539132" lon="8.345337">
|
|
<ele>18.136098</ele>
|
|
<time>2026-07-11T10:39:24.000Z</time>
|
|
</trkpt>
|
|
<trkpt lat="55.539146" lon="8.345344">
|
|
<ele>18.172865</ele>
|
|
<time>2026-07-11T10:39:25.000Z</time>
|
|
</trkpt>
|
|
<trkpt lat="55.539152" lon="8.345346">
|
|
<ele>18.188294</ele>
|
|
<time>2026-07-11T10:39:26.000Z</time>
|
|
</trkpt>
|
|
<trkpt lat="55.539156" lon="8.345348">
|
|
<ele>18.198799</ele>
|
|
<time>2026-07-11T10:39:27.000Z</time>
|
|
</trkpt>
|
|
<trkpt lat="55.539158" lon="8.345350">
|
|
<ele>18.204606</ele>
|
|
<time>2026-07-11T10:39:28.000Z</time>
|
|
</trkpt>
|
|
<trkpt lat="55.539158" lon="8.345350">
|
|
<ele>18.204606</ele>
|
|
<time>2026-07-11T10:39:30.000Z</time>
|
|
</trkpt>
|
|
<trkpt lat="55.539214" lon="8.345309">
|
|
<ele>18.357779</ele>
|
|
<time>2026-07-11T10:39:34.000Z</time>
|
|
</trkpt>
|
|
<trkpt lat="55.539230" lon="8.345272">
|
|
<ele>18.424365</ele>
|
|
<time>2026-07-11T10:39:35.000Z</time>
|
|
</trkpt>
|
|
<trkpt lat="55.539249" lon="8.345222">
|
|
<ele>18.510485</ele>
|
|
<time>2026-07-11T10:39:36.000Z</time>
|
|
</trkpt>
|
|
<trkpt lat="55.539264" lon="8.345167">
|
|
<ele>18.597786</ele>
|
|
<time>2026-07-11T10:39:37.000Z</time>
|
|
</trkpt>
|
|
<trkpt lat="55.539279" lon="8.345107">
|
|
<ele>18.691578</ele>
|
|
<time>2026-07-11T10:39:38.000Z</time>
|
|
</trkpt>
|
|
<trkpt lat="55.539294" lon="8.345042">
|
|
<ele>18.791952</ele>
|
|
<time>2026-07-11T10:39:39.000Z</time>
|
|
</trkpt>
|
|
<trkpt lat="55.539309" lon="8.344976">
|
|
<ele>18.893651</ele>
|
|
<time>2026-07-11T10:39:40.000Z</time>
|
|
</trkpt>
|
|
<trkpt lat="55.539323" lon="8.344903">
|
|
<ele>19.003864</ele>
|
|
<time>2026-07-11T10:39:41.000Z</time>
|
|
</trkpt>
|
|
<trkpt lat="55.539336" lon="8.344824">
|
|
<ele>19.121504</ele>
|
|
<time>2026-07-11T10:39:42.000Z</time>
|
|
</trkpt>
|
|
<trkpt lat="55.539351" lon="8.344748">
|
|
<ele>19.236595</ele>
|
|
<time>2026-07-11T10:39:43.000Z</time>
|
|
</trkpt>
|
|
<trkpt lat="55.539365" lon="8.344671">
|
|
<ele>19.352239</ele>
|
|
<time>2026-07-11T10:39:44.000Z</time>
|
|
</trkpt>
|
|
<trkpt lat="55.539378" lon="8.344593">
|
|
<ele>19.468506</ele>
|
|
<time>2026-07-11T10:39:45.000Z</time>
|
|
</trkpt>
|
|
<trkpt lat="55.539392" lon="8.344519">
|
|
<ele>19.580073</ele>
|
|
<time>2026-07-11T10:39:46.000Z</time>
|
|
</trkpt>
|
|
<trkpt lat="55.539406" lon="8.344449">
|
|
<ele>19.696497</ele>
|
|
<time>2026-07-11T10:39:47.000Z</time>
|
|
</trkpt>
|
|
<trkpt lat="55.539424" lon="8.344362">
|
|
<ele>19.864505</ele>
|
|
<time>2026-07-11T10:39:48.000Z</time>
|
|
</trkpt>
|
|
<trkpt lat="55.539438" lon="8.344283">
|
|
<ele>20.014649</ele>
|
|
<time>2026-07-11T10:39:49.000Z</time>
|
|
</trkpt>
|
|
<trkpt lat="55.539449" lon="8.344207">
|
|
<ele>20.156927</ele>
|
|
<time>2026-07-11T10:39:50.000Z</time>
|
|
</trkpt>
|
|
<trkpt lat="55.539460" lon="8.344137">
|
|
<ele>20.288690</ele>
|
|
<time>2026-07-11T10:39:51.000Z</time>
|
|
</trkpt>
|
|
<trkpt lat="55.539473" lon="8.344070">
|
|
<ele>20.417153</ele>
|
|
<time>2026-07-11T10:39:52.000Z</time>
|
|
</trkpt>
|
|
<trkpt lat="55.539492" lon="8.344011">
|
|
<ele>20.540277</ele>
|
|
<time>2026-07-11T10:39:53.000Z</time>
|
|
</trkpt>
|
|
<trkpt lat="55.539520" lon="8.343973">
|
|
<ele>20.653435</ele>
|
|
<time>2026-07-11T10:39:54.000Z</time>
|
|
</trkpt>
|
|
<trkpt lat="55.539557" lon="8.343957">
|
|
<ele>20.775530</ele>
|
|
<time>2026-07-11T10:39:55.000Z</time>
|
|
</trkpt>
|
|
<trkpt lat="55.539598" lon="8.343967">
|
|
<ele>20.908193</ele>
|
|
<time>2026-07-11T10:39:56.000Z</time>
|
|
</trkpt>
|
|
<trkpt lat="55.539637" lon="8.343993">
|
|
<ele>21.041798</ele>
|
|
<time>2026-07-11T10:39:57.000Z</time>
|
|
</trkpt>
|
|
<trkpt lat="55.539680" lon="8.344023">
|
|
<ele>21.189978</ele>
|
|
<time>2026-07-11T10:39:58.000Z</time>
|
|
</trkpt>
|
|
<trkpt lat="55.539720" lon="8.344046">
|
|
<ele>21.324805</ele>
|
|
<time>2026-07-11T10:39:59.000Z</time>
|
|
</trkpt>
|
|
<trkpt lat="55.539761" lon="8.344069">
|
|
<ele>21.462684</ele>
|
|
<time>2026-07-11T10:40:00.000Z</time>
|
|
</trkpt>
|
|
<trkpt lat="55.539804" lon="8.344094">
|
|
<ele>21.607779</ele>
|
|
<time>2026-07-11T10:40:01.000Z</time>
|
|
</trkpt>
|
|
<trkpt lat="55.539850" lon="8.344118">
|
|
<ele>21.761514</ele>
|
|
<time>2026-07-11T10:40:02.000Z</time>
|
|
</trkpt>
|
|
<trkpt lat="55.539894" lon="8.344139">
|
|
<ele>21.907600</ele>
|
|
<time>2026-07-11T10:40:03.000Z</time>
|
|
</trkpt>
|
|
<trkpt lat="55.539934" lon="8.344155">
|
|
<ele>22.039055</ele>
|
|
<time>2026-07-11T10:40:04.000Z</time>
|
|
</trkpt>
|
|
<trkpt lat="55.539969" lon="8.344167">
|
|
<ele>22.153332</ele>
|
|
<time>2026-07-11T10:40:05.000Z</time>
|
|
</trkpt>
|
|
<trkpt lat="55.540003" lon="8.344177">
|
|
<ele>22.263811</ele>
|
|
<time>2026-07-11T10:40:06.000Z</time>
|
|
</trkpt>
|
|
<trkpt lat="55.540035" lon="8.344186">
|
|
<ele>22.367672</ele>
|
|
<time>2026-07-11T10:40:07.000Z</time>
|
|
</trkpt>
|
|
<trkpt lat="55.540062" lon="8.344193">
|
|
<ele>22.455141</ele>
|
|
<time>2026-07-11T10:40:08.000Z</time>
|
|
</trkpt>
|
|
<trkpt lat="55.540087" lon="8.344201">
|
|
<ele>22.536577</ele>
|
|
<time>2026-07-11T10:40:09.000Z</time>
|
|
</trkpt>
|
|
<trkpt lat="55.540111" lon="8.344212">
|
|
<ele>22.616049</ele>
|
|
<time>2026-07-11T10:40:10.000Z</time>
|
|
</trkpt>
|
|
<trkpt lat="55.540138" lon="8.344222">
|
|
<ele>22.704472</ele>
|
|
<time>2026-07-11T10:40:11.000Z</time>
|
|
</trkpt>
|
|
<trkpt lat="55.540165" lon="8.344229">
|
|
<ele>22.791942</ele>
|
|
<time>2026-07-11T10:40:12.000Z</time>
|
|
</trkpt>
|
|
<trkpt lat="55.540192" lon="8.344236">
|
|
<ele>22.879411</ele>
|
|
<time>2026-07-11T10:40:13.000Z</time>
|
|
</trkpt>
|
|
<trkpt lat="55.540219" lon="8.344248">
|
|
<ele>22.968649</ele>
|
|
<time>2026-07-11T10:40:14.000Z</time>
|
|
</trkpt>
|
|
<trkpt lat="55.540247" lon="8.344258">
|
|
<ele>23.060212</ele>
|
|
<time>2026-07-11T10:40:15.000Z</time>
|
|
</trkpt>
|
|
<trkpt lat="55.540276" lon="8.344264">
|
|
<ele>23.153800</ele>
|
|
<time>2026-07-11T10:40:16.000Z</time>
|
|
</trkpt>
|
|
<trkpt lat="55.540309" lon="8.344276">
|
|
<ele>23.261791</ele>
|
|
<time>2026-07-11T10:40:17.000Z</time>
|
|
</trkpt>
|
|
<trkpt lat="55.540352" lon="8.344292">
|
|
<ele>23.402641</ele>
|
|
<time>2026-07-11T10:40:18.000Z</time>
|
|
</trkpt>
|
|
<trkpt lat="55.540397" lon="8.344309">
|
|
<ele>23.550138</ele>
|
|
<time>2026-07-11T10:40:19.000Z</time>
|
|
</trkpt>
|
|
<trkpt lat="55.540436" lon="8.344324">
|
|
<ele>23.678071</ele>
|
|
<time>2026-07-11T10:40:20.000Z</time>
|
|
</trkpt>
|
|
<trkpt lat="55.540476" lon="8.344339">
|
|
<ele>23.809138</ele>
|
|
<time>2026-07-11T10:40:21.000Z</time>
|
|
</trkpt>
|
|
<trkpt lat="55.540521" lon="8.344356">
|
|
<ele>23.956635</ele>
|
|
<time>2026-07-11T10:40:22.000Z</time>
|
|
</trkpt>
|
|
<trkpt lat="55.540575" lon="8.344379">
|
|
<ele>24.134677</ele>
|
|
<time>2026-07-11T10:40:23.000Z</time>
|
|
</trkpt>
|
|
<trkpt lat="55.540627" lon="8.344408">
|
|
<ele>24.309454</ele>
|
|
<time>2026-07-11T10:40:24.000Z</time>
|
|
</trkpt>
|
|
<trkpt lat="55.540675" lon="8.344430">
|
|
<ele>24.468398</ele>
|
|
<time>2026-07-11T10:40:25.000Z</time>
|
|
</trkpt>
|
|
<trkpt lat="55.540727" lon="8.344457">
|
|
<ele>24.642119</ele>
|
|
<time>2026-07-11T10:40:26.000Z</time>
|
|
</trkpt>
|
|
<trkpt lat="55.540783" lon="8.344490">
|
|
<ele>24.831331</ele>
|
|
<time>2026-07-11T10:40:27.000Z</time>
|
|
</trkpt>
|
|
<trkpt lat="55.540838" lon="8.344525">
|
|
<ele>25.018702</ele>
|
|
<time>2026-07-11T10:40:28.000Z</time>
|
|
</trkpt>
|
|
<trkpt lat="55.540891" lon="8.344560">
|
|
<ele>25.200055</ele>
|
|
<time>2026-07-11T10:40:29.000Z</time>
|
|
</trkpt>
|
|
<trkpt lat="55.540939" lon="8.344590">
|
|
<ele>25.363247</ele>
|
|
<time>2026-07-11T10:40:30.000Z</time>
|
|
</trkpt>
|
|
<trkpt lat="55.540989" lon="8.344621">
|
|
<ele>25.541138</ele>
|
|
<time>2026-07-11T10:40:31.000Z</time>
|
|
</trkpt>
|
|
<trkpt lat="55.541043" lon="8.344658">
|
|
<ele>25.739242</ele>
|
|
<time>2026-07-11T10:40:32.000Z</time>
|
|
</trkpt>
|
|
<trkpt lat="55.541095" lon="8.344698">
|
|
<ele>25.933227</ele>
|
|
<time>2026-07-11T10:40:33.000Z</time>
|
|
</trkpt>
|
|
<trkpt lat="55.541154" lon="8.344746">
|
|
<ele>26.155393</ele>
|
|
<time>2026-07-11T10:40:34.000Z</time>
|
|
</trkpt>
|
|
<trkpt lat="55.541209" lon="8.344791">
|
|
<ele>26.362704</ele>
|
|
<time>2026-07-11T10:40:35.000Z</time>
|
|
</trkpt>
|
|
<trkpt lat="55.541263" lon="8.344833">
|
|
<ele>26.564507</ele>
|
|
<time>2026-07-11T10:40:36.000Z</time>
|
|
</trkpt>
|
|
<trkpt lat="55.541314" lon="8.344871">
|
|
<ele>26.753823</ele>
|
|
<time>2026-07-11T10:40:37.000Z</time>
|
|
</trkpt>
|
|
<trkpt lat="55.541363" lon="8.344907">
|
|
<ele>26.935334</ele>
|
|
<time>2026-07-11T10:40:38.000Z</time>
|
|
</trkpt>
|
|
<trkpt lat="55.541412" lon="8.344946">
|
|
<ele>27.119151</ele>
|
|
<time>2026-07-11T10:40:39.000Z</time>
|
|
</trkpt>
|
|
<trkpt lat="55.541463" lon="8.344988">
|
|
<ele>27.311607</ele>
|
|
<time>2026-07-11T10:40:40.000Z</time>
|
|
</trkpt>
|
|
<trkpt lat="55.541509" lon="8.345027">
|
|
<ele>27.486119</ele>
|
|
<time>2026-07-11T10:40:41.000Z</time>
|
|
</trkpt>
|
|
<trkpt lat="55.541555" lon="8.345066">
|
|
<ele>27.660630</ele>
|
|
<time>2026-07-11T10:40:42.000Z</time>
|
|
</trkpt>
|
|
<trkpt lat="55.541601" lon="8.345105">
|
|
<ele>27.835142</ele>
|
|
<time>2026-07-11T10:40:43.000Z</time>
|
|
</trkpt>
|
|
<trkpt lat="55.541646" lon="8.345141">
|
|
<ele>28.004100</ele>
|
|
<time>2026-07-11T10:40:44.000Z</time>
|
|
</trkpt>
|
|
<trkpt lat="55.541692" lon="8.345177">
|
|
<ele>28.176180</ele>
|
|
<time>2026-07-11T10:40:45.000Z</time>
|
|
</trkpt>
|
|
<trkpt lat="55.541738" lon="8.345211">
|
|
<ele>28.346730</ele>
|
|
<time>2026-07-11T10:40:46.000Z</time>
|
|
</trkpt>
|
|
<trkpt lat="55.541782" lon="8.345242">
|
|
<ele>28.508751</ele>
|
|
<time>2026-07-11T10:40:47.000Z</time>
|
|
</trkpt>
|
|
<trkpt lat="55.541826" lon="8.345271">
|
|
<ele>28.669378</ele>
|
|
<time>2026-07-11T10:40:48.000Z</time>
|
|
</trkpt>
|
|
<trkpt lat="55.541871" lon="8.345299">
|
|
<ele>28.832563</ele>
|
|
<time>2026-07-11T10:40:49.000Z</time>
|
|
</trkpt>
|
|
<trkpt lat="55.541913" lon="8.345327">
|
|
<ele>28.986105</ele>
|
|
<time>2026-07-11T10:40:50.000Z</time>
|
|
</trkpt>
|
|
<trkpt lat="55.541954" lon="8.345359">
|
|
<ele>29.139413</ele>
|
|
<time>2026-07-11T10:40:51.000Z</time>
|
|
</trkpt>
|
|
<trkpt lat="55.541996" lon="8.345393">
|
|
<ele>29.297428</ele>
|
|
<time>2026-07-11T10:40:52.000Z</time>
|
|
</trkpt>
|
|
<trkpt lat="55.542035" lon="8.345424">
|
|
<ele>29.443699</ele>
|
|
<time>2026-07-11T10:40:53.000Z</time>
|
|
</trkpt>
|
|
<trkpt lat="55.542076" lon="8.345456">
|
|
<ele>29.597006</ele>
|
|
<time>2026-07-11T10:40:54.000Z</time>
|
|
</trkpt>
|
|
<trkpt lat="55.542119" lon="8.345491">
|
|
<ele>29.758937</ele>
|
|
<time>2026-07-11T10:40:55.000Z</time>
|
|
</trkpt>
|
|
<trkpt lat="55.542159" lon="8.345520">
|
|
<ele>29.906822</ele>
|
|
<time>2026-07-11T10:40:56.000Z</time>
|
|
</trkpt>
|
|
<trkpt lat="55.542199" lon="8.345547">
|
|
<ele>30.053282</ele>
|
|
<time>2026-07-11T10:40:57.000Z</time>
|
|
</trkpt>
|
|
<trkpt lat="55.542236" lon="8.345573">
|
|
<ele>30.189478</ele>
|
|
<time>2026-07-11T10:40:58.000Z</time>
|
|
</trkpt>
|
|
<trkpt lat="55.542278" lon="8.345601">
|
|
<ele>30.343020</ele>
|
|
<time>2026-07-11T10:40:59.000Z</time>
|
|
</trkpt>
|
|
<trkpt lat="55.542318" lon="8.345628">
|
|
<ele>30.489480</ele>
|
|
<time>2026-07-11T10:41:00.000Z</time>
|
|
</trkpt>
|
|
<trkpt lat="55.542358" lon="8.345656">
|
|
<ele>30.636642</ele>
|
|
<time>2026-07-11T10:41:01.000Z</time>
|
|
</trkpt>
|
|
<trkpt lat="55.542397" lon="8.345684">
|
|
<ele>30.780629</ele>
|
|
<time>2026-07-11T10:41:02.000Z</time>
|
|
</trkpt>
|
|
<trkpt lat="55.542434" lon="8.345710">
|
|
<ele>30.916824</ele>
|
|
<time>2026-07-11T10:41:03.000Z</time>
|
|
</trkpt>
|
|
<trkpt lat="55.542476" lon="8.345738">
|
|
<ele>31.070367</ele>
|
|
<time>2026-07-11T10:41:04.000Z</time>
|
|
</trkpt>
|
|
<trkpt lat="55.542518" lon="8.345769">
|
|
<ele>31.226053</ele>
|
|
<time>2026-07-11T10:41:05.000Z</time>
|
|
</trkpt>
|
|
<trkpt lat="55.542558" lon="8.345797">
|
|
<ele>31.373214</ele>
|
|
<time>2026-07-11T10:41:06.000Z</time>
|
|
</trkpt>
|
|
<trkpt lat="55.542596" lon="8.345821">
|
|
<ele>31.511244</ele>
|
|
<time>2026-07-11T10:41:07.000Z</time>
|
|
</trkpt>
|
|
<trkpt lat="55.542635" lon="8.345844">
|
|
<ele>31.584157</ele>
|
|
<time>2026-07-11T10:41:08.000Z</time>
|
|
</trkpt>
|
|
<trkpt lat="55.542670" lon="8.345863">
|
|
<ele>31.611205</ele>
|
|
<time>2026-07-11T10:41:09.000Z</time>
|
|
</trkpt>
|
|
<trkpt lat="55.542703" lon="8.345880">
|
|
<ele>31.636599</ele>
|
|
<time>2026-07-11T10:41:10.000Z</time>
|
|
</trkpt>
|
|
<trkpt lat="55.542740" lon="8.345900">
|
|
<ele>31.665182</ele>
|
|
<time>2026-07-11T10:41:11.000Z</time>
|
|
</trkpt>
|
|
<trkpt lat="55.542783" lon="8.345926">
|
|
<ele>31.698756</ele>
|
|
<time>2026-07-11T10:41:12.000Z</time>
|
|
</trkpt>
|
|
<trkpt lat="55.542820" lon="8.345947">
|
|
<ele>31.727465</ele>
|
|
<time>2026-07-11T10:41:13.000Z</time>
|
|
</trkpt>
|
|
<trkpt lat="55.542860" lon="8.345968">
|
|
<ele>31.758291</ele>
|
|
<time>2026-07-11T10:41:14.000Z</time>
|
|
</trkpt>
|
|
<trkpt lat="55.542901" lon="8.345987">
|
|
<ele>31.789604</ele>
|
|
<time>2026-07-11T10:41:15.000Z</time>
|
|
</trkpt>
|
|
<trkpt lat="55.542943" lon="8.346010">
|
|
<ele>31.822087</ele>
|
|
<time>2026-07-11T10:41:16.000Z</time>
|
|
</trkpt>
|
|
<trkpt lat="55.542983" lon="8.346034">
|
|
<ele>31.853293</ele>
|
|
<time>2026-07-11T10:41:17.000Z</time>
|
|
</trkpt>
|
|
<trkpt lat="55.543027" lon="8.346054">
|
|
<ele>31.886856</ele>
|
|
<time>2026-07-11T10:41:18.000Z</time>
|
|
</trkpt>
|
|
<trkpt lat="55.543072" lon="8.346069">
|
|
<ele>31.920686</ele>
|
|
<time>2026-07-11T10:41:19.000Z</time>
|
|
</trkpt>
|
|
<trkpt lat="55.543112" lon="8.346082">
|
|
<ele>31.950731</ele>
|
|
<time>2026-07-11T10:41:20.000Z</time>
|
|
</trkpt>
|
|
<trkpt lat="55.543150" lon="8.346095">
|
|
<ele>31.979325</ele>
|
|
<time>2026-07-11T10:41:21.000Z</time>
|
|
</trkpt>
|
|
<trkpt lat="55.543202" lon="8.346114">
|
|
<ele>32.018552</ele>
|
|
<time>2026-07-11T10:41:22.000Z</time>
|
|
</trkpt>
|
|
<trkpt lat="55.543246" lon="8.346131">
|
|
<ele>32.051825</ele>
|
|
<time>2026-07-11T10:41:23.000Z</time>
|
|
</trkpt>
|
|
<trkpt lat="55.543291" lon="8.346148">
|
|
<ele>32.085820</ele>
|
|
<time>2026-07-11T10:41:24.000Z</time>
|
|
</trkpt>
|
|
<trkpt lat="55.543336" lon="8.346164">
|
|
<ele>32.119730</ele>
|
|
<time>2026-07-11T10:41:25.000Z</time>
|
|
</trkpt>
|
|
<trkpt lat="55.543383" lon="8.346181">
|
|
<ele>32.155171</ele>
|
|
<time>2026-07-11T10:41:26.000Z</time>
|
|
</trkpt>
|
|
<trkpt lat="55.543431" lon="8.346195">
|
|
<ele>32.191111</ele>
|
|
<time>2026-07-11T10:41:27.000Z</time>
|
|
</trkpt>
|
|
<trkpt lat="55.543477" lon="8.346207">
|
|
<ele>32.225461</ele>
|
|
<time>2026-07-11T10:41:28.000Z</time>
|
|
</trkpt>
|
|
<trkpt lat="55.543524" lon="8.346220">
|
|
<ele>32.260605</ele>
|
|
<time>2026-07-11T10:41:29.000Z</time>
|
|
</trkpt>
|
|
<trkpt lat="55.543573" lon="8.346237">
|
|
<ele>32.297495</ele>
|
|
<time>2026-07-11T10:41:30.000Z</time>
|
|
</trkpt>
|
|
<trkpt lat="55.543623" lon="8.346254">
|
|
<ele>32.335110</ele>
|
|
<time>2026-07-11T10:41:31.000Z</time>
|
|
</trkpt>
|
|
<trkpt lat="55.543674" lon="8.346269">
|
|
<ele>32.373304</ele>
|
|
<time>2026-07-11T10:41:32.000Z</time>
|
|
</trkpt>
|
|
<trkpt lat="55.543723" lon="8.346282">
|
|
<ele>32.409909</ele>
|
|
<time>2026-07-11T10:41:33.000Z</time>
|
|
</trkpt>
|
|
<trkpt lat="55.543773" lon="8.346296">
|
|
<ele>32.447307</ele>
|
|
<time>2026-07-11T10:41:34.000Z</time>
|
|
</trkpt>
|
|
<trkpt lat="55.543822" lon="8.346309">
|
|
<ele>32.483912</ele>
|
|
<time>2026-07-11T10:41:35.000Z</time>
|
|
</trkpt>
|
|
<trkpt lat="55.543873" lon="8.346321">
|
|
<ele>32.521920</ele>
|
|
<time>2026-07-11T10:41:36.000Z</time>
|
|
</trkpt>
|
|
<trkpt lat="55.543925" lon="8.346335">
|
|
<ele>32.560779</ele>
|
|
<time>2026-07-11T10:41:37.000Z</time>
|
|
</trkpt>
|
|
<trkpt lat="55.543977" lon="8.346351">
|
|
<ele>32.599772</ele>
|
|
<time>2026-07-11T10:41:38.000Z</time>
|
|
</trkpt>
|
|
<trkpt lat="55.544030" lon="8.346367">
|
|
<ele>32.639492</ele>
|
|
<time>2026-07-11T10:41:39.000Z</time>
|
|
</trkpt>
|
|
<trkpt lat="55.544083" lon="8.346383">
|
|
<ele>32.679213</ele>
|
|
<time>2026-07-11T10:41:40.000Z</time>
|
|
</trkpt>
|
|
<trkpt lat="55.544137" lon="8.346399">
|
|
<ele>32.719663</ele>
|
|
<time>2026-07-11T10:41:41.000Z</time>
|
|
</trkpt>
|
|
<trkpt lat="55.544192" lon="8.346415">
|
|
<ele>32.760841</ele>
|
|
<time>2026-07-11T10:41:42.000Z</time>
|
|
</trkpt>
|
|
<trkpt lat="55.544249" lon="8.346430">
|
|
<ele>32.803414</ele>
|
|
<time>2026-07-11T10:41:43.000Z</time>
|
|
</trkpt>
|
|
<trkpt lat="55.544307" lon="8.346445">
|
|
<ele>32.846718</ele>
|
|
<time>2026-07-11T10:41:44.000Z</time>
|
|
</trkpt>
|
|
<trkpt lat="55.544364" lon="8.346462">
|
|
<ele>32.889422</ele>
|
|
<time>2026-07-11T10:41:45.000Z</time>
|
|
</trkpt>
|
|
<trkpt lat="55.544420" lon="8.346480">
|
|
<ele>32.814247</ele>
|
|
<time>2026-07-11T10:41:46.000Z</time>
|
|
</trkpt>
|
|
<trkpt lat="55.544477" lon="8.346498">
|
|
<ele>32.722282</ele>
|
|
<time>2026-07-11T10:41:47.000Z</time>
|
|
</trkpt>
|
|
<trkpt lat="55.544534" lon="8.346516">
|
|
<ele>32.630317</ele>
|
|
<time>2026-07-11T10:41:48.000Z</time>
|
|
</trkpt>
|
|
<trkpt lat="55.544593" lon="8.346534">
|
|
<ele>32.535223</ele>
|
|
<time>2026-07-11T10:41:49.000Z</time>
|
|
</trkpt>
|
|
<trkpt lat="55.544652" lon="8.346551">
|
|
<ele>32.440278</ele>
|
|
<time>2026-07-11T10:41:50.000Z</time>
|
|
</trkpt>
|
|
<trkpt lat="55.544710" lon="8.346568">
|
|
<ele>32.346901</ele>
|
|
<time>2026-07-11T10:41:51.000Z</time>
|
|
</trkpt>
|
|
<trkpt lat="55.544770" lon="8.346585">
|
|
<ele>32.250388</ele>
|
|
<time>2026-07-11T10:41:52.000Z</time>
|
|
</trkpt>
|
|
<trkpt lat="55.544830" lon="8.346602">
|
|
<ele>32.153875</ele>
|
|
<time>2026-07-11T10:41:53.000Z</time>
|
|
</trkpt>
|
|
<trkpt lat="55.544892" lon="8.346619">
|
|
<ele>32.054225</ele>
|
|
<time>2026-07-11T10:41:54.000Z</time>
|
|
</trkpt>
|
|
<trkpt lat="55.544951" lon="8.346635">
|
|
<ele>31.959420</ele>
|
|
<time>2026-07-11T10:41:55.000Z</time>
|
|
</trkpt>
|
|
<trkpt lat="55.545008" lon="8.346650">
|
|
<ele>31.867891</ele>
|
|
<time>2026-07-11T10:41:56.000Z</time>
|
|
</trkpt>
|
|
<trkpt lat="55.545066" lon="8.346665">
|
|
<ele>31.774790</ele>
|
|
<time>2026-07-11T10:41:57.000Z</time>
|
|
</trkpt>
|
|
<trkpt lat="55.545126" lon="8.346679">
|
|
<ele>31.678667</ele>
|
|
<time>2026-07-11T10:41:58.000Z</time>
|
|
</trkpt>
|
|
<trkpt lat="55.545185" lon="8.346694">
|
|
<ele>31.583995</ele>
|
|
<time>2026-07-11T10:41:59.000Z</time>
|
|
</trkpt>
|
|
<trkpt lat="55.545245" lon="8.346712">
|
|
<ele>31.487336</ele>
|
|
<time>2026-07-11T10:42:00.000Z</time>
|
|
</trkpt>
|
|
<trkpt lat="55.545306" lon="8.346732">
|
|
<ele>31.388799</ele>
|
|
<time>2026-07-11T10:42:01.000Z</time>
|
|
</trkpt>
|
|
<trkpt lat="55.545370" lon="8.346752">
|
|
<ele>31.285573</ele>
|
|
<time>2026-07-11T10:42:02.000Z</time>
|
|
</trkpt>
|
|
<trkpt lat="55.545433" lon="8.346773">
|
|
<ele>31.183748</ele>
|
|
<time>2026-07-11T10:42:03.000Z</time>
|
|
</trkpt>
|
|
<trkpt lat="55.545492" lon="8.346791">
|
|
<ele>31.088655</ele>
|
|
<time>2026-07-11T10:42:04.000Z</time>
|
|
</trkpt>
|
|
<trkpt lat="55.545547" lon="8.346808">
|
|
<ele>30.999974</ele>
|
|
<time>2026-07-11T10:42:05.000Z</time>
|
|
</trkpt>
|
|
<trkpt lat="55.545601" lon="8.346824">
|
|
<ele>30.913011</ele>
|
|
<time>2026-07-11T10:42:06.000Z</time>
|
|
</trkpt>
|
|
<trkpt lat="55.545654" lon="8.346833">
|
|
<ele>30.828445</ele>
|
|
<time>2026-07-11T10:42:07.000Z</time>
|
|
</trkpt>
|
|
<trkpt lat="55.545705" lon="8.346840">
|
|
<ele>30.747200</ele>
|
|
<time>2026-07-11T10:42:08.000Z</time>
|
|
</trkpt>
|
|
<trkpt lat="55.545762" lon="8.346853">
|
|
<ele>30.655918</ele>
|
|
<time>2026-07-11T10:42:09.000Z</time>
|
|
</trkpt>
|
|
<trkpt lat="55.545822" lon="8.346873">
|
|
<ele>30.558942</ele>
|
|
<time>2026-07-11T10:42:10.000Z</time>
|
|
</trkpt>
|
|
<trkpt lat="55.545886" lon="8.346897">
|
|
<ele>30.455030</ele>
|
|
<time>2026-07-11T10:42:11.000Z</time>
|
|
</trkpt>
|
|
<trkpt lat="55.545953" lon="8.346921">
|
|
<ele>30.346453</ele>
|
|
<time>2026-07-11T10:42:12.000Z</time>
|
|
</trkpt>
|
|
<trkpt lat="55.546018" lon="8.346949">
|
|
<ele>30.240194</ele>
|
|
<time>2026-07-11T10:42:13.000Z</time>
|
|
</trkpt>
|
|
<trkpt lat="55.546085" lon="8.346980">
|
|
<ele>30.130194</ele>
|
|
<time>2026-07-11T10:42:14.000Z</time>
|
|
</trkpt>
|
|
<trkpt lat="55.546154" lon="8.347014">
|
|
<ele>30.025271</ele>
|
|
<time>2026-07-11T10:42:15.000Z</time>
|
|
</trkpt>
|
|
<trkpt lat="55.546221" lon="8.347045">
|
|
<ele>29.961388</ele>
|
|
<time>2026-07-11T10:42:16.000Z</time>
|
|
</trkpt>
|
|
<trkpt lat="55.546287" lon="8.347073">
|
|
<ele>29.898781</ele>
|
|
<time>2026-07-11T10:42:17.000Z</time>
|
|
</trkpt>
|
|
<trkpt lat="55.546352" lon="8.347096">
|
|
<ele>29.837635</ele>
|
|
<time>2026-07-11T10:42:18.000Z</time>
|
|
</trkpt>
|
|
<trkpt lat="55.546416" lon="8.347116">
|
|
<ele>29.777686</ele>
|
|
<time>2026-07-11T10:42:19.000Z</time>
|
|
</trkpt>
|
|
<trkpt lat="55.546479" lon="8.347137">
|
|
<ele>29.718551</ele>
|
|
<time>2026-07-11T10:42:20.000Z</time>
|
|
</trkpt>
|
|
<trkpt lat="55.546539" lon="8.347160">
|
|
<ele>29.661920</ele>
|
|
<time>2026-07-11T10:42:21.000Z</time>
|
|
</trkpt>
|
|
<trkpt lat="55.546599" lon="8.347180">
|
|
<ele>29.605601</ele>
|
|
<time>2026-07-11T10:42:22.000Z</time>
|
|
</trkpt>
|
|
<trkpt lat="55.546656" lon="8.347198">
|
|
<ele>29.552191</ele>
|
|
<time>2026-07-11T10:42:23.000Z</time>
|
|
</trkpt>
|
|
<trkpt lat="55.546716" lon="8.347217">
|
|
<ele>29.495966</ele>
|
|
<time>2026-07-11T10:42:24.000Z</time>
|
|
</trkpt>
|
|
<trkpt lat="55.546781" lon="8.347243">
|
|
<ele>29.434494</ele>
|
|
<time>2026-07-11T10:42:25.000Z</time>
|
|
</trkpt>
|
|
<trkpt lat="55.546848" lon="8.347276">
|
|
<ele>29.370339</ele>
|
|
<time>2026-07-11T10:42:26.000Z</time>
|
|
</trkpt>
|
|
<trkpt lat="55.546919" lon="8.347311">
|
|
<ele>29.302350</ele>
|
|
<time>2026-07-11T10:42:27.000Z</time>
|
|
</trkpt>
|
|
<trkpt lat="55.546992" lon="8.347346">
|
|
<ele>29.232581</ele>
|
|
<time>2026-07-11T10:42:28.000Z</time>
|
|
</trkpt>
|
|
<trkpt lat="55.547068" lon="8.347380">
|
|
<ele>29.160269</ele>
|
|
<time>2026-07-11T10:42:29.000Z</time>
|
|
</trkpt>
|
|
<trkpt lat="55.547141" lon="8.347413">
|
|
<ele>29.090766</ele>
|
|
<time>2026-07-11T10:42:30.000Z</time>
|
|
</trkpt>
|
|
<trkpt lat="55.547209" lon="8.347447">
|
|
<ele>29.025582</ele>
|
|
<time>2026-07-11T10:42:31.000Z</time>
|
|
</trkpt>
|
|
<trkpt lat="55.547276" lon="8.347483">
|
|
<ele>28.960989</ele>
|
|
<time>2026-07-11T10:42:32.000Z</time>
|
|
</trkpt>
|
|
<trkpt lat="55.547339" lon="8.347523">
|
|
<ele>28.899243</ele>
|
|
<time>2026-07-11T10:42:33.000Z</time>
|
|
</trkpt>
|
|
<trkpt lat="55.547409" lon="8.347570">
|
|
<ele>28.830174</ele>
|
|
<time>2026-07-11T10:42:34.000Z</time>
|
|
</trkpt>
|
|
<trkpt lat="55.547475" lon="8.347619">
|
|
<ele>28.764144</ele>
|
|
<time>2026-07-11T10:42:35.000Z</time>
|
|
</trkpt>
|
|
<trkpt lat="55.547538" lon="8.347670">
|
|
<ele>28.700228</ele>
|
|
<time>2026-07-11T10:42:36.000Z</time>
|
|
</trkpt>
|
|
<trkpt lat="55.547602" lon="8.347722">
|
|
<ele>28.635257</ele>
|
|
<time>2026-07-11T10:42:37.000Z</time>
|
|
</trkpt>
|
|
<trkpt lat="55.547664" lon="8.347774">
|
|
<ele>28.571957</ele>
|
|
<time>2026-07-11T10:42:38.000Z</time>
|
|
</trkpt>
|
|
<trkpt lat="55.547722" lon="8.347824">
|
|
<ele>28.512435</ele>
|
|
<time>2026-07-11T10:42:39.000Z</time>
|
|
</trkpt>
|
|
<trkpt lat="55.547775" lon="8.347868">
|
|
<ele>28.458425</ele>
|
|
<time>2026-07-11T10:42:40.000Z</time>
|
|
</trkpt>
|
|
<trkpt lat="55.547826" lon="8.347907">
|
|
<ele>28.407169</ele>
|
|
<time>2026-07-11T10:42:41.000Z</time>
|
|
</trkpt>
|
|
<trkpt lat="55.547869" lon="8.347939">
|
|
<ele>28.397103</ele>
|
|
<time>2026-07-11T10:42:42.000Z</time>
|
|
</trkpt>
|
|
<trkpt lat="55.547906" lon="8.347963">
|
|
<ele>28.444438</ele>
|
|
<time>2026-07-11T10:42:43.000Z</time>
|
|
</trkpt>
|
|
<trkpt lat="55.547937" lon="8.347985">
|
|
<ele>28.484557</ele>
|
|
<time>2026-07-11T10:42:44.000Z</time>
|
|
</trkpt>
|
|
<trkpt lat="55.547968" lon="8.348010">
|
|
<ele>28.525479</ele>
|
|
<time>2026-07-11T10:42:45.000Z</time>
|
|
</trkpt>
|
|
<trkpt lat="55.547998" lon="8.348033">
|
|
<ele>28.564752</ele>
|
|
<time>2026-07-11T10:42:46.000Z</time>
|
|
</trkpt>
|
|
<trkpt lat="55.548026" lon="8.348055">
|
|
<ele>28.601552</ele>
|
|
<time>2026-07-11T10:42:47.000Z</time>
|
|
</trkpt>
|
|
<trkpt lat="55.548055" lon="8.348080">
|
|
<ele>28.640302</ele>
|
|
<time>2026-07-11T10:42:48.000Z</time>
|
|
</trkpt>
|
|
<trkpt lat="55.548086" lon="8.348106">
|
|
<ele>28.681512</ele>
|
|
<time>2026-07-11T10:42:49.000Z</time>
|
|
</trkpt>
|
|
<trkpt lat="55.548116" lon="8.348134">
|
|
<ele>28.722255</ele>
|
|
<time>2026-07-11T10:42:50.000Z</time>
|
|
</trkpt>
|
|
<trkpt lat="55.548145" lon="8.348161">
|
|
<ele>28.761620</ele>
|
|
<time>2026-07-11T10:42:51.000Z</time>
|
|
</trkpt>
|
|
<trkpt lat="55.548175" lon="8.348190">
|
|
<ele>28.802685</ele>
|
|
<time>2026-07-11T10:42:52.000Z</time>
|
|
</trkpt>
|
|
<trkpt lat="55.548209" lon="8.348223">
|
|
<ele>28.849270</ele>
|
|
<time>2026-07-11T10:42:53.000Z</time>
|
|
</trkpt>
|
|
<trkpt lat="55.548245" lon="8.348258">
|
|
<ele>28.898614</ele>
|
|
<time>2026-07-11T10:42:54.000Z</time>
|
|
</trkpt>
|
|
<trkpt lat="55.548282" lon="8.348292">
|
|
<ele>28.948696</ele>
|
|
<time>2026-07-11T10:42:55.000Z</time>
|
|
</trkpt>
|
|
<trkpt lat="55.548315" lon="8.348322">
|
|
<ele>28.993263</ele>
|
|
<time>2026-07-11T10:42:56.000Z</time>
|
|
</trkpt>
|
|
<trkpt lat="55.548345" lon="8.348349">
|
|
<ele>29.033694</ele>
|
|
<time>2026-07-11T10:42:57.000Z</time>
|
|
</trkpt>
|
|
<trkpt lat="55.548374" lon="8.348375">
|
|
<ele>29.072747</ele>
|
|
<time>2026-07-11T10:42:58.000Z</time>
|
|
</trkpt>
|
|
<trkpt lat="55.548403" lon="8.348400">
|
|
<ele>29.111497</ele>
|
|
<time>2026-07-11T10:42:59.000Z</time>
|
|
</trkpt>
|
|
<trkpt lat="55.548429" lon="8.348425">
|
|
<ele>29.147043</ele>
|
|
<time>2026-07-11T10:43:00.000Z</time>
|
|
</trkpt>
|
|
<trkpt lat="55.548458" lon="8.348449">
|
|
<ele>29.185500</ele>
|
|
<time>2026-07-11T10:43:01.000Z</time>
|
|
</trkpt>
|
|
<trkpt lat="55.548492" lon="8.348474">
|
|
<ele>29.229726</ele>
|
|
<time>2026-07-11T10:43:02.000Z</time>
|
|
</trkpt>
|
|
<trkpt lat="55.548522" lon="8.348498">
|
|
<ele>29.269274</ele>
|
|
<time>2026-07-11T10:43:03.000Z</time>
|
|
</trkpt>
|
|
<trkpt lat="55.548552" lon="8.348522">
|
|
<ele>29.308822</ele>
|
|
<time>2026-07-11T10:43:04.000Z</time>
|
|
</trkpt>
|
|
<trkpt lat="55.548577" lon="8.348543">
|
|
<ele>29.342064</ele>
|
|
<time>2026-07-11T10:43:05.000Z</time>
|
|
</trkpt>
|
|
<trkpt lat="55.548617" lon="8.348579">
|
|
<ele>29.395972</ele>
|
|
<time>2026-07-11T10:43:06.000Z</time>
|
|
</trkpt>
|
|
<trkpt lat="55.548643" lon="8.348601">
|
|
<ele>29.430591</ele>
|
|
<time>2026-07-11T10:43:07.000Z</time>
|
|
</trkpt>
|
|
<trkpt lat="55.548670" lon="8.348636">
|
|
<ele>29.470803</ele>
|
|
<time>2026-07-11T10:43:08.000Z</time>
|
|
</trkpt>
|
|
<trkpt lat="55.548698" lon="8.348676">
|
|
<ele>29.514039</ele>
|
|
<time>2026-07-11T10:43:09.000Z</time>
|
|
</trkpt>
|
|
<trkpt lat="55.548761" lon="8.348761">
|
|
<ele>29.609223</ele>
|
|
<time>2026-07-11T10:43:10.000Z</time>
|
|
</trkpt>
|
|
<trkpt lat="55.548845" lon="8.348874">
|
|
<ele>29.735997</ele>
|
|
<time>2026-07-11T10:43:11.000Z</time>
|
|
</trkpt>
|
|
<trkpt lat="55.548890" lon="8.348925">
|
|
<ele>29.800195</ele>
|
|
<time>2026-07-11T10:43:12.000Z</time>
|
|
</trkpt>
|
|
<trkpt lat="55.548937" lon="8.348975">
|
|
<ele>29.866076</ele>
|
|
<time>2026-07-11T10:43:13.000Z</time>
|
|
</trkpt>
|
|
<trkpt lat="55.548989" lon="8.349028">
|
|
<ele>29.938165</ele>
|
|
<time>2026-07-11T10:43:14.000Z</time>
|
|
</trkpt>
|
|
<trkpt lat="55.549053" lon="8.349100">
|
|
<ele>30.029274</ele>
|
|
<time>2026-07-11T10:43:15.000Z</time>
|
|
</trkpt>
|
|
<trkpt lat="55.549124" lon="8.349188">
|
|
<ele>30.133417</ele>
|
|
<time>2026-07-11T10:43:16.000Z</time>
|
|
</trkpt>
|
|
<trkpt lat="55.549193" lon="8.349262">
|
|
<ele>30.230344</ele>
|
|
<time>2026-07-11T10:43:17.000Z</time>
|
|
</trkpt>
|
|
<trkpt lat="55.549285" lon="8.349351">
|
|
<ele>30.356299</ele>
|
|
<time>2026-07-11T10:43:18.000Z</time>
|
|
</trkpt>
|
|
<trkpt lat="55.549383" lon="8.349448">
|
|
<ele>30.491191</ele>
|
|
<time>2026-07-11T10:43:19.000Z</time>
|
|
</trkpt>
|
|
<trkpt lat="55.549449" lon="8.349519">
|
|
<ele>30.490737</ele>
|
|
<time>2026-07-11T10:43:20.000Z</time>
|
|
</trkpt>
|
|
<trkpt lat="55.549522" lon="8.349585">
|
|
<ele>30.386783</ele>
|
|
<time>2026-07-11T10:43:21.000Z</time>
|
|
</trkpt>
|
|
<trkpt lat="55.549594" lon="8.349647">
|
|
<ele>30.285244</ele>
|
|
<time>2026-07-11T10:43:22.000Z</time>
|
|
</trkpt>
|
|
<trkpt lat="55.549670" lon="8.349718">
|
|
<ele>30.176260</ele>
|
|
<time>2026-07-11T10:43:23.000Z</time>
|
|
</trkpt>
|
|
<trkpt lat="55.549736" lon="8.349783">
|
|
<ele>30.080473</ele>
|
|
<time>2026-07-11T10:43:24.000Z</time>
|
|
</trkpt>
|
|
<trkpt lat="55.549797" lon="8.349844">
|
|
<ele>29.991617</ele>
|
|
<time>2026-07-11T10:43:25.000Z</time>
|
|
</trkpt>
|
|
<trkpt lat="55.549861" lon="8.349907">
|
|
<ele>29.898744</ele>
|
|
<time>2026-07-11T10:43:26.000Z</time>
|
|
</trkpt>
|
|
<trkpt lat="55.549913" lon="8.349960">
|
|
<ele>29.822643</ele>
|
|
<time>2026-07-11T10:43:27.000Z</time>
|
|
</trkpt>
|
|
<trkpt lat="55.549976" lon="8.350024">
|
|
<ele>29.730519</ele>
|
|
<time>2026-07-11T10:43:28.000Z</time>
|
|
</trkpt>
|
|
<trkpt lat="55.550050" lon="8.350097">
|
|
<ele>29.623079</ele>
|
|
<time>2026-07-11T10:43:29.000Z</time>
|
|
</trkpt>
|
|
<trkpt lat="55.550115" lon="8.350158">
|
|
<ele>29.529777</ele>
|
|
<time>2026-07-11T10:43:30.000Z</time>
|
|
</trkpt>
|
|
<trkpt lat="55.550181" lon="8.350217">
|
|
<ele>29.436009</ele>
|
|
<time>2026-07-11T10:43:31.000Z</time>
|
|
</trkpt>
|
|
<trkpt lat="55.550241" lon="8.350272">
|
|
<ele>29.350319</ele>
|
|
<time>2026-07-11T10:43:32.000Z</time>
|
|
</trkpt>
|
|
<trkpt lat="55.550293" lon="8.350323">
|
|
<ele>29.274925</ele>
|
|
<time>2026-07-11T10:43:33.000Z</time>
|
|
</trkpt>
|
|
<trkpt lat="55.550352" lon="8.350378">
|
|
<ele>29.190359</ele>
|
|
<time>2026-07-11T10:43:34.000Z</time>
|
|
</trkpt>
|
|
<trkpt lat="55.550409" lon="8.350429">
|
|
<ele>29.109363</ele>
|
|
<time>2026-07-11T10:43:35.000Z</time>
|
|
</trkpt>
|
|
<trkpt lat="55.550466" lon="8.350482">
|
|
<ele>29.027709</ele>
|
|
<time>2026-07-11T10:43:36.000Z</time>
|
|
</trkpt>
|
|
<trkpt lat="55.550528" lon="8.350544">
|
|
<ele>28.937398</ele>
|
|
<time>2026-07-11T10:43:37.000Z</time>
|
|
</trkpt>
|
|
<trkpt lat="55.550595" lon="8.350609">
|
|
<ele>28.840501</ele>
|
|
<time>2026-07-11T10:43:38.000Z</time>
|
|
</trkpt>
|
|
<trkpt lat="55.550655" lon="8.350669">
|
|
<ele>28.753103</ele>
|
|
<time>2026-07-11T10:43:39.000Z</time>
|
|
</trkpt>
|
|
<trkpt lat="55.550709" lon="8.350717">
|
|
<ele>28.676472</ele>
|
|
<time>2026-07-11T10:43:40.000Z</time>
|
|
</trkpt>
|
|
<trkpt lat="55.550763" lon="8.350764">
|
|
<ele>28.600161</ele>
|
|
<time>2026-07-11T10:43:41.000Z</time>
|
|
</trkpt>
|
|
<trkpt lat="55.550816" lon="8.350813">
|
|
<ele>28.524331</ele>
|
|
<time>2026-07-11T10:43:42.000Z</time>
|
|
</trkpt>
|
|
<trkpt lat="55.550865" lon="8.350863">
|
|
<ele>28.452600</ele>
|
|
<time>2026-07-11T10:43:43.000Z</time>
|
|
</trkpt>
|
|
<trkpt lat="55.550915" lon="8.350913">
|
|
<ele>28.379768</ele>
|
|
<time>2026-07-11T10:43:44.000Z</time>
|
|
</trkpt>
|
|
<trkpt lat="55.550971" lon="8.350963">
|
|
<ele>28.300228</ele>
|
|
<time>2026-07-11T10:43:45.000Z</time>
|
|
</trkpt>
|
|
<trkpt lat="55.551029" lon="8.351015">
|
|
<ele>28.122446</ele>
|
|
<time>2026-07-11T10:43:46.000Z</time>
|
|
</trkpt>
|
|
<trkpt lat="55.551085" lon="8.351070">
|
|
<ele>27.849820</ele>
|
|
<time>2026-07-11T10:43:47.000Z</time>
|
|
</trkpt>
|
|
<trkpt lat="55.551151" lon="8.351130">
|
|
<ele>27.533984</ele>
|
|
<time>2026-07-11T10:43:48.000Z</time>
|
|
</trkpt>
|
|
<trkpt lat="55.551222" lon="8.351200">
|
|
<ele>27.188020</ele>
|
|
<time>2026-07-11T10:43:49.000Z</time>
|
|
</trkpt>
|
|
<trkpt lat="55.551295" lon="8.351272">
|
|
<ele>26.832278</ele>
|
|
<time>2026-07-11T10:43:50.000Z</time>
|
|
</trkpt>
|
|
<trkpt lat="55.551379" lon="8.351352">
|
|
<ele>26.426228</ele>
|
|
<time>2026-07-11T10:43:51.000Z</time>
|
|
</trkpt>
|
|
<trkpt lat="55.551466" lon="8.351434">
|
|
<ele>26.006651</ele>
|
|
<time>2026-07-11T10:43:52.000Z</time>
|
|
</trkpt>
|
|
<trkpt lat="55.551547" lon="8.351512">
|
|
<ele>25.614121</ele>
|
|
<time>2026-07-11T10:43:53.000Z</time>
|
|
</trkpt>
|
|
<trkpt lat="55.551631" lon="8.351593">
|
|
<ele>25.206925</ele>
|
|
<time>2026-07-11T10:43:54.000Z</time>
|
|
</trkpt>
|
|
<trkpt lat="55.551716" lon="8.351673">
|
|
<ele>24.797124</ele>
|
|
<time>2026-07-11T10:43:55.000Z</time>
|
|
</trkpt>
|
|
<trkpt lat="55.551796" lon="8.351750">
|
|
<ele>24.409483</ele>
|
|
<time>2026-07-11T10:43:56.000Z</time>
|
|
</trkpt>
|
|
<trkpt lat="55.551876" lon="8.351823">
|
|
<ele>24.026353</ele>
|
|
<time>2026-07-11T10:43:57.000Z</time>
|
|
</trkpt>
|
|
<trkpt lat="55.551956" lon="8.351898">
|
|
<ele>23.640991</ele>
|
|
<time>2026-07-11T10:43:58.000Z</time>
|
|
</trkpt>
|
|
<trkpt lat="55.552039" lon="8.351975">
|
|
<ele>23.242091</ele>
|
|
<time>2026-07-11T10:43:59.000Z</time>
|
|
</trkpt>
|
|
<trkpt lat="55.552119" lon="8.352052">
|
|
<ele>22.854451</ele>
|
|
<time>2026-07-11T10:44:00.000Z</time>
|
|
</trkpt>
|
|
<trkpt lat="55.552204" lon="8.352135">
|
|
<ele>22.441209</ele>
|
|
<time>2026-07-11T10:44:01.000Z</time>
|
|
</trkpt>
|
|
<trkpt lat="55.552298" lon="8.352226">
|
|
<ele>21.985126</ele>
|
|
<time>2026-07-11T10:44:02.000Z</time>
|
|
</trkpt>
|
|
<trkpt lat="55.552391" lon="8.352313">
|
|
<ele>21.537355</ele>
|
|
<time>2026-07-11T10:44:03.000Z</time>
|
|
</trkpt>
|
|
<trkpt lat="55.552482" lon="8.352400">
|
|
<ele>21.097090</ele>
|
|
<time>2026-07-11T10:44:04.000Z</time>
|
|
</trkpt>
|
|
<trkpt lat="55.552568" lon="8.352484">
|
|
<ele>20.678960</ele>
|
|
<time>2026-07-11T10:44:05.000Z</time>
|
|
</trkpt>
|
|
<trkpt lat="55.552655" lon="8.352570">
|
|
<ele>20.463997</ele>
|
|
<time>2026-07-11T10:44:06.000Z</time>
|
|
</trkpt>
|
|
<trkpt lat="55.552745" lon="8.352658">
|
|
<ele>20.288660</ele>
|
|
<time>2026-07-11T10:44:07.000Z</time>
|
|
</trkpt>
|
|
<trkpt lat="55.552833" lon="8.352744">
|
|
<ele>20.117241</ele>
|
|
<time>2026-07-11T10:44:08.000Z</time>
|
|
</trkpt>
|
|
<trkpt lat="55.552925" lon="8.352830">
|
|
<ele>19.939823</ele>
|
|
<time>2026-07-11T10:44:09.000Z</time>
|
|
</trkpt>
|
|
<trkpt lat="55.553016" lon="8.352917">
|
|
<ele>19.763454</ele>
|
|
<time>2026-07-11T10:44:10.000Z</time>
|
|
</trkpt>
|
|
<trkpt lat="55.553108" lon="8.353004">
|
|
<ele>19.585584</ele>
|
|
<time>2026-07-11T10:44:11.000Z</time>
|
|
</trkpt>
|
|
<trkpt lat="55.553198" lon="8.353090">
|
|
<ele>19.411173</ele>
|
|
<time>2026-07-11T10:44:12.000Z</time>
|
|
</trkpt>
|
|
<trkpt lat="55.553285" lon="8.353172">
|
|
<ele>19.243093</ele>
|
|
<time>2026-07-11T10:44:13.000Z</time>
|
|
</trkpt>
|
|
<trkpt lat="55.553374" lon="8.353256">
|
|
<ele>19.071097</ele>
|
|
<time>2026-07-11T10:44:14.000Z</time>
|
|
</trkpt>
|
|
<trkpt lat="55.553464" lon="8.353340">
|
|
<ele>18.897595</ele>
|
|
<time>2026-07-11T10:44:15.000Z</time>
|
|
</trkpt>
|
|
<trkpt lat="55.553552" lon="8.353425">
|
|
<ele>18.726641</ele>
|
|
<time>2026-07-11T10:44:16.000Z</time>
|
|
</trkpt>
|
|
<trkpt lat="55.553634" lon="8.353502">
|
|
<ele>18.568352</ele>
|
|
<time>2026-07-11T10:44:17.000Z</time>
|
|
</trkpt>
|
|
<trkpt lat="55.553715" lon="8.353576">
|
|
<ele>18.412915</ele>
|
|
<time>2026-07-11T10:44:18.000Z</time>
|
|
</trkpt>
|
|
<trkpt lat="55.553795" lon="8.353651">
|
|
<ele>18.258541</ele>
|
|
<time>2026-07-11T10:44:19.000Z</time>
|
|
</trkpt>
|
|
<trkpt lat="55.553869" lon="8.353724">
|
|
<ele>18.114075</ele>
|
|
<time>2026-07-11T10:44:20.000Z</time>
|
|
</trkpt>
|
|
<trkpt lat="55.553944" lon="8.353794">
|
|
<ele>17.969490</ele>
|
|
<time>2026-07-11T10:44:21.000Z</time>
|
|
</trkpt>
|
|
<trkpt lat="55.554021" lon="8.353862">
|
|
<ele>17.822754</ele>
|
|
<time>2026-07-11T10:44:22.000Z</time>
|
|
</trkpt>
|
|
<trkpt lat="55.554091" lon="8.353927">
|
|
<ele>17.687959</ele>
|
|
<time>2026-07-11T10:44:23.000Z</time>
|
|
</trkpt>
|
|
<trkpt lat="55.554155" lon="8.353984">
|
|
<ele>17.565788</ele>
|
|
<time>2026-07-11T10:44:24.000Z</time>
|
|
</trkpt>
|
|
<trkpt lat="55.554214" lon="8.354036">
|
|
<ele>17.471958</ele>
|
|
<time>2026-07-11T10:44:25.000Z</time>
|
|
</trkpt>
|
|
<trkpt lat="55.554267" lon="8.354085">
|
|
<ele>17.392499</ele>
|
|
<time>2026-07-11T10:44:26.000Z</time>
|
|
</trkpt>
|
|
<trkpt lat="55.554322" lon="8.354134">
|
|
<ele>17.310675</ele>
|
|
<time>2026-07-11T10:44:27.000Z</time>
|
|
</trkpt>
|
|
<trkpt lat="55.554380" lon="8.354187">
|
|
<ele>17.223935</ele>
|
|
<time>2026-07-11T10:44:28.000Z</time>
|
|
</trkpt>
|
|
<trkpt lat="55.554437" lon="8.354244">
|
|
<ele>17.136934</ele>
|
|
<time>2026-07-11T10:44:29.000Z</time>
|
|
</trkpt>
|
|
<trkpt lat="55.554493" lon="8.354297">
|
|
<ele>17.052546</ele>
|
|
<time>2026-07-11T10:44:30.000Z</time>
|
|
</trkpt>
|
|
<trkpt lat="55.554551" lon="8.354344">
|
|
<ele>16.967782</ele>
|
|
<time>2026-07-11T10:44:31.000Z</time>
|
|
</trkpt>
|
|
<trkpt lat="55.554608" lon="8.354392">
|
|
<ele>16.883903</ele>
|
|
<time>2026-07-11T10:44:32.000Z</time>
|
|
</trkpt>
|
|
<trkpt lat="55.554665" lon="8.354440">
|
|
<ele>16.800024</ele>
|
|
<time>2026-07-11T10:44:33.000Z</time>
|
|
</trkpt>
|
|
<trkpt lat="55.554721" lon="8.354490">
|
|
<ele>16.716677</ele>
|
|
<time>2026-07-11T10:44:34.000Z</time>
|
|
</trkpt>
|
|
<trkpt lat="55.554775" lon="8.354535">
|
|
<ele>16.637365</ele>
|
|
<time>2026-07-11T10:44:35.000Z</time>
|
|
</trkpt>
|
|
<trkpt lat="55.554828" lon="8.354577">
|
|
<ele>16.560203</ele>
|
|
<time>2026-07-11T10:44:36.000Z</time>
|
|
</trkpt>
|
|
<trkpt lat="55.554882" lon="8.354624">
|
|
<ele>16.480239</ele>
|
|
<time>2026-07-11T10:44:37.000Z</time>
|
|
</trkpt>
|
|
<trkpt lat="55.554937" lon="8.354674">
|
|
<ele>16.398075</ele>
|
|
<time>2026-07-11T10:44:38.000Z</time>
|
|
</trkpt>
|
|
<trkpt lat="55.554992" lon="8.354721">
|
|
<ele>16.316917</ele>
|
|
<time>2026-07-11T10:44:39.000Z</time>
|
|
</trkpt>
|
|
<trkpt lat="55.555044" lon="8.354768">
|
|
<ele>16.239328</ele>
|
|
<time>2026-07-11T10:44:40.000Z</time>
|
|
</trkpt>
|
|
<trkpt lat="55.555099" lon="8.354820">
|
|
<ele>16.156467</ele>
|
|
<time>2026-07-11T10:44:41.000Z</time>
|
|
</trkpt>
|
|
<trkpt lat="55.555160" lon="8.354878">
|
|
<ele>16.064449</ele>
|
|
<time>2026-07-11T10:44:42.000Z</time>
|
|
</trkpt>
|
|
<trkpt lat="55.555219" lon="8.354935">
|
|
<ele>15.975126</ele>
|
|
<time>2026-07-11T10:44:43.000Z</time>
|
|
</trkpt>
|
|
<trkpt lat="55.555280" lon="8.354993">
|
|
<ele>15.883108</ele>
|
|
<time>2026-07-11T10:44:44.000Z</time>
|
|
</trkpt>
|
|
<trkpt lat="55.555341" lon="8.355047">
|
|
<ele>15.792476</ele>
|
|
<time>2026-07-11T10:44:45.000Z</time>
|
|
</trkpt>
|
|
<trkpt lat="55.555410" lon="8.355110">
|
|
<ele>15.689304</ele>
|
|
<time>2026-07-11T10:44:46.000Z</time>
|
|
</trkpt>
|
|
<trkpt lat="55.555488" lon="8.355185">
|
|
<ele>15.571343</ele>
|
|
<time>2026-07-11T10:44:47.000Z</time>
|
|
</trkpt>
|
|
<trkpt lat="55.555551" lon="8.355247">
|
|
<ele>15.475552</ele>
|
|
<time>2026-07-11T10:44:48.000Z</time>
|
|
</trkpt>
|
|
<trkpt lat="55.555608" lon="8.355300">
|
|
<ele>15.389991</ele>
|
|
<time>2026-07-11T10:44:49.000Z</time>
|
|
</trkpt>
|
|
<trkpt lat="55.555665" lon="8.355354">
|
|
<ele>15.304077</ele>
|
|
<time>2026-07-11T10:44:50.000Z</time>
|
|
</trkpt>
|
|
<trkpt lat="55.555725" lon="8.355411">
|
|
<ele>15.213586</ele>
|
|
<time>2026-07-11T10:44:51.000Z</time>
|
|
</trkpt>
|
|
<trkpt lat="55.555792" lon="8.355479">
|
|
<ele>15.132216</ele>
|
|
<time>2026-07-11T10:44:52.000Z</time>
|
|
</trkpt>
|
|
<trkpt lat="55.555881" lon="8.355570">
|
|
<ele>15.074221</ele>
|
|
<time>2026-07-11T10:44:53.000Z</time>
|
|
</trkpt>
|
|
<trkpt lat="55.555989" lon="8.355673">
|
|
<ele>15.005001</ele>
|
|
<time>2026-07-11T10:44:54.000Z</time>
|
|
</trkpt>
|
|
<trkpt lat="55.556078" lon="8.355757">
|
|
<ele>14.948091</ele>
|
|
<time>2026-07-11T10:44:55.000Z</time>
|
|
</trkpt>
|
|
<trkpt lat="55.556167" lon="8.355840">
|
|
<ele>14.891331</ele>
|
|
<time>2026-07-11T10:44:56.000Z</time>
|
|
</trkpt>
|
|
<trkpt lat="55.556256" lon="8.355926">
|
|
<ele>14.834118</ele>
|
|
<time>2026-07-11T10:44:57.000Z</time>
|
|
</trkpt>
|
|
<trkpt lat="55.556340" lon="8.356011">
|
|
<ele>14.779522</ele>
|
|
<time>2026-07-11T10:44:58.000Z</time>
|
|
</trkpt>
|
|
<trkpt lat="55.556423" lon="8.356090">
|
|
<ele>14.726349</ele>
|
|
<time>2026-07-11T10:44:59.000Z</time>
|
|
</trkpt>
|
|
<trkpt lat="55.556504" lon="8.356166">
|
|
<ele>14.674623</ele>
|
|
<time>2026-07-11T10:45:00.000Z</time>
|
|
</trkpt>
|
|
<trkpt lat="55.556583" lon="8.356237">
|
|
<ele>14.624632</ele>
|
|
<time>2026-07-11T10:45:01.000Z</time>
|
|
</trkpt>
|
|
<trkpt lat="55.556662" lon="8.356311">
|
|
<ele>14.574201</ele>
|
|
<time>2026-07-11T10:45:02.000Z</time>
|
|
</trkpt>
|
|
<trkpt lat="55.556735" lon="8.356385">
|
|
<ele>14.526735</ele>
|
|
<time>2026-07-11T10:45:03.000Z</time>
|
|
</trkpt>
|
|
<trkpt lat="55.556806" lon="8.356454">
|
|
<ele>14.481033</ele>
|
|
<time>2026-07-11T10:45:04.000Z</time>
|
|
</trkpt>
|
|
<trkpt lat="55.556874" lon="8.356518">
|
|
<ele>14.437578</ele>
|
|
<time>2026-07-11T10:45:05.000Z</time>
|
|
</trkpt>
|
|
<trkpt lat="55.556942" lon="8.356579">
|
|
<ele>14.394565</ele>
|
|
<time>2026-07-11T10:45:06.000Z</time>
|
|
</trkpt>
|
|
<trkpt lat="55.557013" lon="8.356645">
|
|
<ele>14.349317</ele>
|
|
<time>2026-07-11T10:45:07.000Z</time>
|
|
</trkpt>
|
|
<trkpt lat="55.557079" lon="8.356713">
|
|
<ele>14.306227</ele>
|
|
<time>2026-07-11T10:45:08.000Z</time>
|
|
</trkpt>
|
|
<trkpt lat="55.557142" lon="8.356781">
|
|
<ele>14.264590</ele>
|
|
<time>2026-07-11T10:45:09.000Z</time>
|
|
</trkpt>
|
|
<trkpt lat="55.557205" lon="8.356848">
|
|
<ele>14.223119</ele>
|
|
<time>2026-07-11T10:45:10.000Z</time>
|
|
</trkpt>
|
|
<trkpt lat="55.557270" lon="8.356909">
|
|
<ele>14.181608</ele>
|
|
<time>2026-07-11T10:45:11.000Z</time>
|
|
</trkpt>
|
|
<trkpt lat="55.557334" lon="8.356970">
|
|
<ele>14.140595</ele>
|
|
<time>2026-07-11T10:45:12.000Z</time>
|
|
</trkpt>
|
|
<trkpt lat="55.557398" lon="8.357033">
|
|
<ele>14.195410</ele>
|
|
<time>2026-07-11T10:45:13.000Z</time>
|
|
</trkpt>
|
|
<trkpt lat="55.557460" lon="8.357097">
|
|
<ele>14.269312</ele>
|
|
<time>2026-07-11T10:45:14.000Z</time>
|
|
</trkpt>
|
|
<trkpt lat="55.557525" lon="8.357162">
|
|
<ele>14.346181</ele>
|
|
<time>2026-07-11T10:45:15.000Z</time>
|
|
</trkpt>
|
|
<trkpt lat="55.557589" lon="8.357225">
|
|
<ele>14.421583</ele>
|
|
<time>2026-07-11T10:45:16.000Z</time>
|
|
</trkpt>
|
|
<trkpt lat="55.557652" lon="8.357287">
|
|
<ele>14.495803</ele>
|
|
<time>2026-07-11T10:45:17.000Z</time>
|
|
</trkpt>
|
|
<trkpt lat="55.557717" lon="8.357348">
|
|
<ele>14.571553</ele>
|
|
<time>2026-07-11T10:45:18.000Z</time>
|
|
</trkpt>
|
|
<trkpt lat="55.557779" lon="8.357410">
|
|
<ele>14.644875</ele>
|
|
<time>2026-07-11T10:45:19.000Z</time>
|
|
</trkpt>
|
|
<trkpt lat="55.557841" lon="8.357472">
|
|
<ele>14.718197</ele>
|
|
<time>2026-07-11T10:45:20.000Z</time>
|
|
</trkpt>
|
|
<trkpt lat="55.557903" lon="8.357532">
|
|
<ele>14.790952</ele>
|
|
<time>2026-07-11T10:45:21.000Z</time>
|
|
</trkpt>
|
|
<trkpt lat="55.557961" lon="8.357588">
|
|
<ele>14.858978</ele>
|
|
<time>2026-07-11T10:45:22.000Z</time>
|
|
</trkpt>
|
|
<trkpt lat="55.558017" lon="8.357644">
|
|
<ele>14.925204</ele>
|
|
<time>2026-07-11T10:45:23.000Z</time>
|
|
</trkpt>
|
|
<trkpt lat="55.558074" lon="8.357702">
|
|
<ele>14.992901</ele>
|
|
<time>2026-07-11T10:45:24.000Z</time>
|
|
</trkpt>
|
|
<trkpt lat="55.558133" lon="8.357761">
|
|
<ele>15.062674</ele>
|
|
<time>2026-07-11T10:45:25.000Z</time>
|
|
</trkpt>
|
|
<trkpt lat="55.558192" lon="8.357819">
|
|
<ele>15.132163</ele>
|
|
<time>2026-07-11T10:45:26.000Z</time>
|
|
</trkpt>
|
|
<trkpt lat="55.558254" lon="8.357877">
|
|
<ele>15.204367</ele>
|
|
<time>2026-07-11T10:45:27.000Z</time>
|
|
</trkpt>
|
|
<trkpt lat="55.558314" lon="8.357935">
|
|
<ele>15.274757</ele>
|
|
<time>2026-07-11T10:45:28.000Z</time>
|
|
</trkpt>
|
|
<trkpt lat="55.558371" lon="8.357990">
|
|
<ele>15.341600</ele>
|
|
<time>2026-07-11T10:45:29.000Z</time>
|
|
</trkpt>
|
|
<trkpt lat="55.558427" lon="8.358045">
|
|
<ele>15.407541</ele>
|
|
<time>2026-07-11T10:45:30.000Z</time>
|
|
</trkpt>
|
|
<trkpt lat="55.558480" lon="8.358096">
|
|
<ele>15.469654</ele>
|
|
<time>2026-07-11T10:45:31.000Z</time>
|
|
</trkpt>
|
|
<trkpt lat="55.558531" lon="8.358142">
|
|
<ele>15.528588</ele>
|
|
<time>2026-07-11T10:45:32.000Z</time>
|
|
</trkpt>
|
|
<trkpt lat="55.558580" lon="8.358189">
|
|
<ele>15.585972</ele>
|
|
<time>2026-07-11T10:45:33.000Z</time>
|
|
</trkpt>
|
|
<trkpt lat="55.558631" lon="8.358235">
|
|
<ele>15.644906</ele>
|
|
<time>2026-07-11T10:45:34.000Z</time>
|
|
</trkpt>
|
|
<trkpt lat="55.558680" lon="8.358281">
|
|
<ele>15.702014</ele>
|
|
<time>2026-07-11T10:45:35.000Z</time>
|
|
</trkpt>
|
|
<trkpt lat="55.558729" lon="8.358331">
|
|
<ele>15.760250</ele>
|
|
<time>2026-07-11T10:45:36.000Z</time>
|
|
</trkpt>
|
|
<trkpt lat="55.558779" lon="8.358382">
|
|
<ele>15.819669</ele>
|
|
<time>2026-07-11T10:45:37.000Z</time>
|
|
</trkpt>
|
|
<trkpt lat="55.558827" lon="8.358431">
|
|
<ele>15.876723</ele>
|
|
<time>2026-07-11T10:45:38.000Z</time>
|
|
</trkpt>
|
|
<trkpt lat="55.558872" lon="8.358480">
|
|
<ele>15.931124</ele>
|
|
<time>2026-07-11T10:45:39.000Z</time>
|
|
</trkpt>
|
|
<trkpt lat="55.558917" lon="8.358524">
|
|
<ele>15.984057</ele>
|
|
<time>2026-07-11T10:45:40.000Z</time>
|
|
</trkpt>
|
|
<trkpt lat="55.558958" lon="8.358564">
|
|
<ele>16.067786</ele>
|
|
<time>2026-07-11T10:45:41.000Z</time>
|
|
</trkpt>
|
|
<trkpt lat="55.558999" lon="8.358602">
|
|
<ele>16.151100</ele>
|
|
<time>2026-07-11T10:45:42.000Z</time>
|
|
</trkpt>
|
|
<trkpt lat="55.559037" lon="8.358640">
|
|
<ele>16.229671</ele>
|
|
<time>2026-07-11T10:45:43.000Z</time>
|
|
</trkpt>
|
|
<trkpt lat="55.559076" lon="8.358677">
|
|
<ele>16.309327</ele>
|
|
<time>2026-07-11T10:45:44.000Z</time>
|
|
</trkpt>
|
|
<trkpt lat="55.559114" lon="8.358714">
|
|
<ele>16.387402</ele>
|
|
<time>2026-07-11T10:45:45.000Z</time>
|
|
</trkpt>
|
|
<trkpt lat="55.559152" lon="8.358750">
|
|
<ele>16.464991</ele>
|
|
<time>2026-07-11T10:45:46.000Z</time>
|
|
</trkpt>
|
|
<trkpt lat="55.559190" lon="8.358783">
|
|
<ele>16.541185</ele>
|
|
<time>2026-07-11T10:45:47.000Z</time>
|
|
</trkpt>
|
|
<trkpt lat="55.559228" lon="8.358816">
|
|
<ele>16.617379</ele>
|
|
<time>2026-07-11T10:45:48.000Z</time>
|
|
</trkpt>
|
|
<trkpt lat="55.559265" lon="8.358850">
|
|
<ele>16.692427</ele>
|
|
<time>2026-07-11T10:45:49.000Z</time>
|
|
</trkpt>
|
|
<trkpt lat="55.559300" lon="8.358884">
|
|
<ele>16.764299</ele>
|
|
<time>2026-07-11T10:45:50.000Z</time>
|
|
</trkpt>
|
|
<trkpt lat="55.559337" lon="8.358918">
|
|
<ele>16.839346</ele>
|
|
<time>2026-07-11T10:45:51.000Z</time>
|
|
</trkpt>
|
|
<trkpt lat="55.559379" lon="8.358956">
|
|
<ele>16.924257</ele>
|
|
<time>2026-07-11T10:45:52.000Z</time>
|
|
</trkpt>
|
|
<trkpt lat="55.559419" lon="8.358993">
|
|
<ele>17.005503</ele>
|
|
<time>2026-07-11T10:45:53.000Z</time>
|
|
</trkpt>
|
|
<trkpt lat="55.559458" lon="8.359034">
|
|
<ele>17.087163</ele>
|
|
<time>2026-07-11T10:45:54.000Z</time>
|
|
</trkpt>
|
|
<trkpt lat="55.559498" lon="8.359073">
|
|
<ele>17.169373</ele>
|
|
<time>2026-07-11T10:45:55.000Z</time>
|
|
</trkpt>
|
|
<trkpt lat="55.559538" lon="8.359108">
|
|
<ele>17.249696</ele>
|
|
<time>2026-07-11T10:45:56.000Z</time>
|
|
</trkpt>
|
|
<trkpt lat="55.559576" lon="8.359136">
|
|
<ele>17.323788</ele>
|
|
<time>2026-07-11T10:45:57.000Z</time>
|
|
</trkpt>
|
|
<trkpt lat="55.559614" lon="8.359160">
|
|
<ele>17.396410</ele>
|
|
<time>2026-07-11T10:45:58.000Z</time>
|
|
</trkpt>
|
|
<trkpt lat="55.559647" lon="8.359184">
|
|
<ele>17.460630</ele>
|
|
<time>2026-07-11T10:45:59.000Z</time>
|
|
</trkpt>
|
|
<trkpt lat="55.559674" lon="8.359208">
|
|
<ele>17.515019</ele>
|
|
<time>2026-07-11T10:46:00.000Z</time>
|
|
</trkpt>
|
|
<trkpt lat="55.559702" lon="8.359236">
|
|
<ele>17.572913</ele>
|
|
<time>2026-07-11T10:46:01.000Z</time>
|
|
</trkpt>
|
|
<trkpt lat="55.559729" lon="8.359261">
|
|
<ele>17.627766</ele>
|
|
<time>2026-07-11T10:46:02.000Z</time>
|
|
</trkpt>
|
|
<trkpt lat="55.559758" lon="8.359288">
|
|
<ele>17.686752</ele>
|
|
<time>2026-07-11T10:46:03.000Z</time>
|
|
</trkpt>
|
|
<trkpt lat="55.559801" lon="8.359333">
|
|
<ele>17.776680</ele>
|
|
<time>2026-07-11T10:46:04.000Z</time>
|
|
</trkpt>
|
|
<trkpt lat="55.559835" lon="8.359366">
|
|
<ele>17.846485</ele>
|
|
<time>2026-07-11T10:46:05.000Z</time>
|
|
</trkpt>
|
|
<trkpt lat="55.559872" lon="8.359400">
|
|
<ele>17.921532</ele>
|
|
<time>2026-07-11T10:46:06.000Z</time>
|
|
</trkpt>
|
|
<trkpt lat="55.559916" lon="8.359442">
|
|
<ele>18.011524</ele>
|
|
<time>2026-07-11T10:46:07.000Z</time>
|
|
</trkpt>
|
|
<trkpt lat="55.559971" lon="8.359494">
|
|
<ele>18.123772</ele>
|
|
<time>2026-07-11T10:46:08.000Z</time>
|
|
</trkpt>
|
|
<trkpt lat="55.560024" lon="8.359548">
|
|
<ele>18.233862</ele>
|
|
<time>2026-07-11T10:46:09.000Z</time>
|
|
</trkpt>
|
|
<trkpt lat="55.560079" lon="8.359600">
|
|
<ele>18.346111</ele>
|
|
<time>2026-07-11T10:46:10.000Z</time>
|
|
</trkpt>
|
|
<trkpt lat="55.560135" lon="8.359652">
|
|
<ele>18.459950</ele>
|
|
<time>2026-07-11T10:46:11.000Z</time>
|
|
</trkpt>
|
|
<trkpt lat="55.560191" lon="8.359706">
|
|
<ele>18.574749</ele>
|
|
<time>2026-07-11T10:46:12.000Z</time>
|
|
</trkpt>
|
|
<trkpt lat="55.560248" lon="8.359758">
|
|
<ele>18.690185</ele>
|
|
<time>2026-07-11T10:46:13.000Z</time>
|
|
</trkpt>
|
|
<trkpt lat="55.560304" lon="8.359812">
|
|
<ele>18.804984</ele>
|
|
<time>2026-07-11T10:46:14.000Z</time>
|
|
</trkpt>
|
|
<trkpt lat="55.560357" lon="8.359863">
|
|
<ele>18.913582</ele>
|
|
<time>2026-07-11T10:46:15.000Z</time>
|
|
</trkpt>
|
|
<trkpt lat="55.560409" lon="8.359912">
|
|
<ele>19.019629</ele>
|
|
<time>2026-07-11T10:46:16.000Z</time>
|
|
</trkpt>
|
|
<trkpt lat="55.560467" lon="8.359967">
|
|
<ele>19.138079</ele>
|
|
<time>2026-07-11T10:46:17.000Z</time>
|
|
</trkpt>
|
|
<trkpt lat="55.560532" lon="8.360026">
|
|
<ele>19.196554</ele>
|
|
<time>2026-07-11T10:46:18.000Z</time>
|
|
</trkpt>
|
|
<trkpt lat="55.560593" lon="8.360084">
|
|
<ele>19.130203</ele>
|
|
<time>2026-07-11T10:46:19.000Z</time>
|
|
</trkpt>
|
|
<trkpt lat="55.560655" lon="8.360138">
|
|
<ele>19.063992</ele>
|
|
<time>2026-07-11T10:46:20.000Z</time>
|
|
</trkpt>
|
|
<trkpt lat="55.560720" lon="8.360187">
|
|
<ele>18.996298</ele>
|
|
<time>2026-07-11T10:46:21.000Z</time>
|
|
</trkpt>
|
|
<trkpt lat="55.560787" lon="8.360235">
|
|
<ele>18.927044</ele>
|
|
<time>2026-07-11T10:46:22.000Z</time>
|
|
</trkpt>
|
|
<trkpt lat="55.560855" lon="8.360282">
|
|
<ele>18.857099</ele>
|
|
<time>2026-07-11T10:46:23.000Z</time>
|
|
</trkpt>
|
|
<trkpt lat="55.560919" lon="8.360325">
|
|
<ele>18.791510</ele>
|
|
<time>2026-07-11T10:46:24.000Z</time>
|
|
</trkpt>
|
|
<trkpt lat="55.560982" lon="8.360361">
|
|
<ele>18.728082</ele>
|
|
<time>2026-07-11T10:46:25.000Z</time>
|
|
</trkpt>
|
|
<trkpt lat="55.561047" lon="8.360391">
|
|
<ele>18.663726</ele>
|
|
<time>2026-07-11T10:46:26.000Z</time>
|
|
</trkpt>
|
|
<trkpt lat="55.561103" lon="8.360418">
|
|
<ele>18.608119</ele>
|
|
<time>2026-07-11T10:46:27.000Z</time>
|
|
</trkpt>
|
|
<trkpt lat="55.561159" lon="8.360444">
|
|
<ele>18.552652</ele>
|
|
<time>2026-07-11T10:46:28.000Z</time>
|
|
</trkpt>
|
|
<trkpt lat="55.561227" lon="8.360471">
|
|
<ele>18.485885</ele>
|
|
<time>2026-07-11T10:46:29.000Z</time>
|
|
</trkpt>
|
|
<trkpt lat="55.561284" lon="8.360492">
|
|
<ele>18.430106</ele>
|
|
<time>2026-07-11T10:46:30.000Z</time>
|
|
</trkpt>
|
|
<trkpt lat="55.561346" lon="8.360511">
|
|
<ele>18.369824</ele>
|
|
<time>2026-07-11T10:46:31.000Z</time>
|
|
</trkpt>
|
|
<trkpt lat="55.561411" lon="8.360526">
|
|
<ele>18.307025</ele>
|
|
<time>2026-07-11T10:46:32.000Z</time>
|
|
</trkpt>
|
|
<trkpt lat="55.561474" lon="8.360535">
|
|
<ele>18.246474</ele>
|
|
<time>2026-07-11T10:46:33.000Z</time>
|
|
</trkpt>
|
|
<trkpt lat="55.561538" lon="8.360542">
|
|
<ele>18.185044</ele>
|
|
<time>2026-07-11T10:46:34.000Z</time>
|
|
</trkpt>
|
|
<trkpt lat="55.561607" lon="8.360546">
|
|
<ele>18.118906</ele>
|
|
<time>2026-07-11T10:46:35.000Z</time>
|
|
</trkpt>
|
|
<trkpt lat="55.561675" lon="8.360547">
|
|
<ele>18.053759</ele>
|
|
<time>2026-07-11T10:46:36.000Z</time>
|
|
</trkpt>
|
|
<trkpt lat="55.561744" lon="8.360545">
|
|
<ele>17.987648</ele>
|
|
<time>2026-07-11T10:46:37.000Z</time>
|
|
</trkpt>
|
|
<trkpt lat="55.561812" lon="8.360541">
|
|
<ele>17.922467</ele>
|
|
<time>2026-07-11T10:46:38.000Z</time>
|
|
</trkpt>
|
|
<trkpt lat="55.561883" lon="8.360536">
|
|
<ele>17.854395</ele>
|
|
<time>2026-07-11T10:46:39.000Z</time>
|
|
</trkpt>
|
|
<trkpt lat="55.561955" lon="8.360527">
|
|
<ele>17.785246</ele>
|
|
<time>2026-07-11T10:46:40.000Z</time>
|
|
</trkpt>
|
|
<trkpt lat="55.562030" lon="8.360520">
|
|
<ele>17.713295</ele>
|
|
<time>2026-07-11T10:46:41.000Z</time>
|
|
</trkpt>
|
|
<trkpt lat="55.562103" lon="8.360518">
|
|
<ele>17.643352</ele>
|
|
<time>2026-07-11T10:46:42.000Z</time>
|
|
</trkpt>
|
|
<trkpt lat="55.562175" lon="8.360514">
|
|
<ele>17.574342</ele>
|
|
<time>2026-07-11T10:46:43.000Z</time>
|
|
</trkpt>
|
|
<trkpt lat="55.562249" lon="8.360508">
|
|
<ele>17.503375</ele>
|
|
<time>2026-07-11T10:46:44.000Z</time>
|
|
</trkpt>
|
|
<trkpt lat="55.562318" lon="8.360503">
|
|
<ele>17.515331</ele>
|
|
<time>2026-07-11T10:46:45.000Z</time>
|
|
</trkpt>
|
|
<trkpt lat="55.562384" lon="8.360498">
|
|
<ele>17.532311</ele>
|
|
<time>2026-07-11T10:46:46.000Z</time>
|
|
</trkpt>
|
|
<trkpt lat="55.562453" lon="8.360494">
|
|
<ele>17.550057</ele>
|
|
<time>2026-07-11T10:46:47.000Z</time>
|
|
</trkpt>
|
|
<trkpt lat="55.562521" lon="8.360494">
|
|
<ele>17.567536</ele>
|
|
<time>2026-07-11T10:46:48.000Z</time>
|
|
</trkpt>
|
|
<trkpt lat="55.562584" lon="8.360493">
|
|
<ele>17.583731</ele>
|
|
<time>2026-07-11T10:46:49.000Z</time>
|
|
</trkpt>
|
|
<trkpt lat="55.562644" lon="8.360491">
|
|
<ele>17.599156</ele>
|
|
<time>2026-07-11T10:46:50.000Z</time>
|
|
</trkpt>
|
|
<trkpt lat="55.562703" lon="8.360489">
|
|
<ele>17.614325</ele>
|
|
<time>2026-07-11T10:46:51.000Z</time>
|
|
</trkpt>
|
|
<trkpt lat="55.562761" lon="8.360487">
|
|
<ele>17.629237</ele>
|
|
<time>2026-07-11T10:46:52.000Z</time>
|
|
</trkpt>
|
|
<trkpt lat="55.562818" lon="8.360485">
|
|
<ele>17.643891</ele>
|
|
<time>2026-07-11T10:46:53.000Z</time>
|
|
</trkpt>
|
|
<trkpt lat="55.562874" lon="8.360486">
|
|
<ele>17.658286</ele>
|
|
<time>2026-07-11T10:46:54.000Z</time>
|
|
</trkpt>
|
|
<trkpt lat="55.562929" lon="8.360491">
|
|
<ele>17.672443</ele>
|
|
<time>2026-07-11T10:46:55.000Z</time>
|
|
</trkpt>
|
|
<trkpt lat="55.562984" lon="8.360499">
|
|
<ele>17.686628</ele>
|
|
<time>2026-07-11T10:46:56.000Z</time>
|
|
</trkpt>
|
|
<trkpt lat="55.563038" lon="8.360509">
|
|
<ele>17.700584</ele>
|
|
<time>2026-07-11T10:46:57.000Z</time>
|
|
</trkpt>
|
|
<trkpt lat="55.563091" lon="8.360518">
|
|
<ele>17.714271</ele>
|
|
<time>2026-07-11T10:46:58.000Z</time>
|
|
</trkpt>
|
|
<trkpt lat="55.563146" lon="8.360528">
|
|
<ele>17.728483</ele>
|
|
<time>2026-07-11T10:46:59.000Z</time>
|
|
</trkpt>
|
|
<trkpt lat="55.563202" lon="8.360539">
|
|
<ele>17.742966</ele>
|
|
<time>2026-07-11T10:47:00.000Z</time>
|
|
</trkpt>
|
|
<trkpt lat="55.563255" lon="8.360556">
|
|
<ele>17.756812</ele>
|
|
<time>2026-07-11T10:47:01.000Z</time>
|
|
</trkpt>
|
|
<trkpt lat="55.563309" lon="8.360575">
|
|
<ele>17.770964</ele>
|
|
<time>2026-07-11T10:47:02.000Z</time>
|
|
</trkpt>
|
|
<trkpt lat="55.563363" lon="8.360594">
|
|
<ele>17.785117</ele>
|
|
<time>2026-07-11T10:47:03.000Z</time>
|
|
</trkpt>
|
|
<trkpt lat="55.563417" lon="8.360616">
|
|
<ele>17.799361</ele>
|
|
<time>2026-07-11T10:47:04.000Z</time>
|
|
</trkpt>
|
|
<trkpt lat="55.563473" lon="8.360642">
|
|
<ele>17.814243</ele>
|
|
<time>2026-07-11T10:47:05.000Z</time>
|
|
</trkpt>
|
|
<trkpt lat="55.563526" lon="8.360671">
|
|
<ele>17.828504</ele>
|
|
<time>2026-07-11T10:47:06.000Z</time>
|
|
</trkpt>
|
|
<trkpt lat="55.563580" lon="8.360702">
|
|
<ele>17.843098</ele>
|
|
<time>2026-07-11T10:47:07.000Z</time>
|
|
</trkpt>
|
|
<trkpt lat="55.563635" lon="8.360734">
|
|
<ele>17.857981</ele>
|
|
<time>2026-07-11T10:47:08.000Z</time>
|
|
</trkpt>
|
|
<trkpt lat="55.563691" lon="8.360766">
|
|
<ele>17.873108</ele>
|
|
<time>2026-07-11T10:47:09.000Z</time>
|
|
</trkpt>
|
|
<trkpt lat="55.563744" lon="8.360798">
|
|
<ele>17.887504</ele>
|
|
<time>2026-07-11T10:47:10.000Z</time>
|
|
</trkpt>
|
|
<trkpt lat="55.563796" lon="8.360833">
|
|
<ele>17.901806</ele>
|
|
<time>2026-07-11T10:47:11.000Z</time>
|
|
</trkpt>
|
|
<trkpt lat="55.563850" lon="8.360874">
|
|
<ele>17.916912</ele>
|
|
<time>2026-07-11T10:47:12.000Z</time>
|
|
</trkpt>
|
|
<trkpt lat="55.563902" lon="8.360919">
|
|
<ele>17.931793</ele>
|
|
<time>2026-07-11T10:47:13.000Z</time>
|
|
</trkpt>
|
|
<trkpt lat="55.563952" lon="8.360960">
|
|
<ele>17.945960</ele>
|
|
<time>2026-07-11T10:47:14.000Z</time>
|
|
</trkpt>
|
|
<trkpt lat="55.564003" lon="8.361001">
|
|
<ele>17.960360</ele>
|
|
<time>2026-07-11T10:47:15.000Z</time>
|
|
</trkpt>
|
|
<trkpt lat="55.564055" lon="8.361044">
|
|
<ele>17.878620</ele>
|
|
<time>2026-07-11T10:47:16.000Z</time>
|
|
</trkpt>
|
|
<trkpt lat="55.564106" lon="8.361087">
|
|
<ele>17.792862</ele>
|
|
<time>2026-07-11T10:47:17.000Z</time>
|
|
</trkpt>
|
|
<trkpt lat="55.564158" lon="8.361131">
|
|
<ele>17.705364</ele>
|
|
<time>2026-07-11T10:47:18.000Z</time>
|
|
</trkpt>
|
|
<trkpt lat="55.564209" lon="8.361176">
|
|
<ele>17.618853</ele>
|
|
<time>2026-07-11T10:47:19.000Z</time>
|
|
</trkpt>
|
|
<trkpt lat="55.564259" lon="8.361223">
|
|
<ele>17.532905</ele>
|
|
<time>2026-07-11T10:47:20.000Z</time>
|
|
</trkpt>
|
|
<trkpt lat="55.564310" lon="8.361271">
|
|
<ele>17.445214</ele>
|
|
<time>2026-07-11T10:47:21.000Z</time>
|
|
</trkpt>
|
|
<trkpt lat="55.564363" lon="8.361320">
|
|
<ele>17.354438</ele>
|
|
<time>2026-07-11T10:47:22.000Z</time>
|
|
</trkpt>
|
|
<trkpt lat="55.564411" lon="8.361367">
|
|
<ele>17.271159</ele>
|
|
<time>2026-07-11T10:47:23.000Z</time>
|
|
</trkpt>
|
|
<trkpt lat="55.564464" lon="8.361420">
|
|
<ele>17.178742</ele>
|
|
<time>2026-07-11T10:47:24.000Z</time>
|
|
</trkpt>
|
|
<trkpt lat="55.564521" lon="8.361472">
|
|
<ele>17.081391</ele>
|
|
<time>2026-07-11T10:47:25.000Z</time>
|
|
</trkpt>
|
|
<trkpt lat="55.564573" lon="8.361518">
|
|
<ele>16.993138</ele>
|
|
<time>2026-07-11T10:47:26.000Z</time>
|
|
</trkpt>
|
|
<trkpt lat="55.564626" lon="8.361566">
|
|
<ele>16.902756</ele>
|
|
<time>2026-07-11T10:47:27.000Z</time>
|
|
</trkpt>
|
|
<trkpt lat="55.564681" lon="8.361619">
|
|
<ele>16.807685</ele>
|
|
<time>2026-07-11T10:47:28.000Z</time>
|
|
</trkpt>
|
|
<trkpt lat="55.564735" lon="8.361673">
|
|
<ele>16.713525</ele>
|
|
<time>2026-07-11T10:47:29.000Z</time>
|
|
</trkpt>
|
|
<trkpt lat="55.564790" lon="8.361726">
|
|
<ele>16.618454</ele>
|
|
<time>2026-07-11T10:47:30.000Z</time>
|
|
</trkpt>
|
|
<trkpt lat="55.564845" lon="8.361779">
|
|
<ele>16.523383</ele>
|
|
<time>2026-07-11T10:47:31.000Z</time>
|
|
</trkpt>
|
|
<trkpt lat="55.564899" lon="8.361833">
|
|
<ele>16.429222</ele>
|
|
<time>2026-07-11T10:47:32.000Z</time>
|
|
</trkpt>
|
|
<trkpt lat="55.564954" lon="8.361887">
|
|
<ele>16.333738</ele>
|
|
<time>2026-07-11T10:47:33.000Z</time>
|
|
</trkpt>
|
|
<trkpt lat="55.565012" lon="8.361940">
|
|
<ele>16.234644</ele>
|
|
<time>2026-07-11T10:47:34.000Z</time>
|
|
</trkpt>
|
|
<trkpt lat="55.565072" lon="8.361994">
|
|
<ele>16.132458</ele>
|
|
<time>2026-07-11T10:47:35.000Z</time>
|
|
</trkpt>
|
|
<trkpt lat="55.565131" lon="8.362048">
|
|
<ele>16.031622</ele>
|
|
<time>2026-07-11T10:47:36.000Z</time>
|
|
</trkpt>
|
|
<trkpt lat="55.565193" lon="8.362106">
|
|
<ele>15.925160</ele>
|
|
<time>2026-07-11T10:47:37.000Z</time>
|
|
</trkpt>
|
|
<trkpt lat="55.565255" lon="8.362165">
|
|
<ele>15.818294</ele>
|
|
<time>2026-07-11T10:47:38.000Z</time>
|
|
</trkpt>
|
|
<trkpt lat="55.565316" lon="8.362222">
|
|
<ele>15.713575</ele>
|
|
<time>2026-07-11T10:47:39.000Z</time>
|
|
</trkpt>
|
|
<trkpt lat="55.565377" lon="8.362279">
|
|
<ele>15.608856</ele>
|
|
<time>2026-07-11T10:47:40.000Z</time>
|
|
</trkpt>
|
|
<trkpt lat="55.565440" lon="8.362336">
|
|
<ele>15.501444</ele>
|
|
<time>2026-07-11T10:47:41.000Z</time>
|
|
</trkpt>
|
|
<trkpt lat="55.565503" lon="8.362392">
|
|
<ele>15.394420</ele>
|
|
<time>2026-07-11T10:47:42.000Z</time>
|
|
</trkpt>
|
|
<trkpt lat="55.565565" lon="8.362446">
|
|
<ele>15.289519</ele>
|
|
<time>2026-07-11T10:47:43.000Z</time>
|
|
</trkpt>
|
|
<trkpt lat="55.565628" lon="8.362500">
|
|
<ele>15.192760</ele>
|
|
<time>2026-07-11T10:47:44.000Z</time>
|
|
</trkpt>
|
|
<trkpt lat="55.565690" lon="8.362558">
|
|
<ele>15.107457</ele>
|
|
<time>2026-07-11T10:47:45.000Z</time>
|
|
</trkpt>
|
|
<trkpt lat="55.565751" lon="8.362617">
|
|
<ele>15.022899</ele>
|
|
<time>2026-07-11T10:47:46.000Z</time>
|
|
</trkpt>
|
|
<trkpt lat="55.565811" lon="8.362678">
|
|
<ele>14.938729</ele>
|
|
<time>2026-07-11T10:47:47.000Z</time>
|
|
</trkpt>
|
|
<trkpt lat="55.565871" lon="8.362735">
|
|
<ele>14.855896</ele>
|
|
<time>2026-07-11T10:47:48.000Z</time>
|
|
</trkpt>
|
|
<trkpt lat="55.565934" lon="8.362793">
|
|
<ele>14.769516</ele>
|
|
<time>2026-07-11T10:47:49.000Z</time>
|
|
</trkpt>
|
|
<trkpt lat="55.565997" lon="8.362852">
|
|
<ele>14.682817</ele>
|
|
<time>2026-07-11T10:47:50.000Z</time>
|
|
</trkpt>
|
|
<trkpt lat="55.566062" lon="8.362909">
|
|
<ele>14.594580</ele>
|
|
<time>2026-07-11T10:47:51.000Z</time>
|
|
</trkpt>
|
|
<trkpt lat="55.566125" lon="8.362966">
|
|
<ele>14.508515</ele>
|
|
<time>2026-07-11T10:47:52.000Z</time>
|
|
</trkpt>
|
|
<trkpt lat="55.566186" lon="8.363024">
|
|
<ele>14.424286</ele>
|
|
<time>2026-07-11T10:47:53.000Z</time>
|
|
</trkpt>
|
|
<trkpt lat="55.566247" lon="8.363084">
|
|
<ele>14.339396</ele>
|
|
<time>2026-07-11T10:47:54.000Z</time>
|
|
</trkpt>
|
|
<trkpt lat="55.566310" lon="8.363143">
|
|
<ele>14.252697</ele>
|
|
<time>2026-07-11T10:47:55.000Z</time>
|
|
</trkpt>
|
|
<trkpt lat="55.566372" lon="8.363201">
|
|
<ele>14.167394</ele>
|
|
<time>2026-07-11T10:47:56.000Z</time>
|
|
</trkpt>
|
|
<trkpt lat="55.566433" lon="8.363259">
|
|
<ele>14.083164</ele>
|
|
<time>2026-07-11T10:47:57.000Z</time>
|
|
</trkpt>
|
|
<trkpt lat="55.566495" lon="8.363316">
|
|
<ele>13.998181</ele>
|
|
<time>2026-07-11T10:47:58.000Z</time>
|
|
</trkpt>
|
|
<trkpt lat="55.566554" lon="8.363373">
|
|
<ele>13.916417</ele>
|
|
<time>2026-07-11T10:47:59.000Z</time>
|
|
</trkpt>
|
|
<trkpt lat="55.566613" lon="8.363429">
|
|
<ele>13.834982</ele>
|
|
<time>2026-07-11T10:48:00.000Z</time>
|
|
</trkpt>
|
|
<trkpt lat="55.566676" lon="8.363486">
|
|
<ele>13.748917</ele>
|
|
<time>2026-07-11T10:48:01.000Z</time>
|
|
</trkpt>
|
|
<trkpt lat="55.566737" lon="8.363545">
|
|
<ele>13.664360</ele>
|
|
<time>2026-07-11T10:48:02.000Z</time>
|
|
</trkpt>
|
|
<trkpt lat="55.566798" lon="8.363603">
|
|
<ele>13.580131</ele>
|
|
<time>2026-07-11T10:48:03.000Z</time>
|
|
</trkpt>
|
|
<trkpt lat="55.566861" lon="8.363660">
|
|
<ele>13.494067</ele>
|
|
<time>2026-07-11T10:48:04.000Z</time>
|
|
</trkpt>
|
|
<trkpt lat="55.566922" lon="8.363717">
|
|
<ele>13.410161</ele>
|
|
<time>2026-07-11T10:48:05.000Z</time>
|
|
</trkpt>
|
|
<trkpt lat="55.566983" lon="8.363773">
|
|
<ele>13.326574</ele>
|
|
<time>2026-07-11T10:48:06.000Z</time>
|
|
</trkpt>
|
|
<trkpt lat="55.567044" lon="8.363829">
|
|
<ele>13.242987</ele>
|
|
<time>2026-07-11T10:48:07.000Z</time>
|
|
</trkpt>
|
|
<trkpt lat="55.567105" lon="8.363885">
|
|
<ele>13.159400</ele>
|
|
<time>2026-07-11T10:48:08.000Z</time>
|
|
</trkpt>
|
|
<trkpt lat="55.567164" lon="8.363941">
|
|
<ele>13.077964</ele>
|
|
<time>2026-07-11T10:48:09.000Z</time>
|
|
</trkpt>
|
|
<trkpt lat="55.567223" lon="8.363997">
|
|
<ele>12.976364</ele>
|
|
<time>2026-07-11T10:48:10.000Z</time>
|
|
</trkpt>
|
|
<trkpt lat="55.567283" lon="8.364053">
|
|
<ele>12.858508</ele>
|
|
<time>2026-07-11T10:48:11.000Z</time>
|
|
</trkpt>
|
|
<trkpt lat="55.567342" lon="8.364109">
|
|
<ele>12.742187</ele>
|
|
<time>2026-07-11T10:48:12.000Z</time>
|
|
</trkpt>
|
|
<trkpt lat="55.567401" lon="8.364164">
|
|
<ele>12.626326</ele>
|
|
<time>2026-07-11T10:48:13.000Z</time>
|
|
</trkpt>
|
|
<trkpt lat="55.567460" lon="8.364221">
|
|
<ele>12.509537</ele>
|
|
<time>2026-07-11T10:48:14.000Z</time>
|
|
</trkpt>
|
|
<trkpt lat="55.567519" lon="8.364277">
|
|
<ele>12.393215</ele>
|
|
<time>2026-07-11T10:48:15.000Z</time>
|
|
</trkpt>
|
|
<trkpt lat="55.567578" lon="8.364331">
|
|
<ele>12.277809</ele>
|
|
<time>2026-07-11T10:48:16.000Z</time>
|
|
</trkpt>
|
|
<trkpt lat="55.567641" lon="8.364387">
|
|
<ele>12.155321</ele>
|
|
<time>2026-07-11T10:48:17.000Z</time>
|
|
</trkpt>
|
|
<trkpt lat="55.567702" lon="8.364439">
|
|
<ele>12.037685</ele>
|
|
<time>2026-07-11T10:48:18.000Z</time>
|
|
</trkpt>
|
|
<trkpt lat="55.567759" lon="8.364486">
|
|
<ele>11.928432</ele>
|
|
<time>2026-07-11T10:48:19.000Z</time>
|
|
</trkpt>
|
|
<trkpt lat="55.567817" lon="8.364533">
|
|
<ele>11.817602</ele>
|
|
<time>2026-07-11T10:48:20.000Z</time>
|
|
</trkpt>
|
|
<trkpt lat="55.567876" lon="8.364583">
|
|
<ele>11.703949</ele>
|
|
<time>2026-07-11T10:48:21.000Z</time>
|
|
</trkpt>
|
|
<trkpt lat="55.567937" lon="8.364637">
|
|
<ele>11.585447</ele>
|
|
<time>2026-07-11T10:48:22.000Z</time>
|
|
</trkpt>
|
|
<trkpt lat="55.567997" lon="8.364692">
|
|
<ele>11.468048</ele>
|
|
<time>2026-07-11T10:48:23.000Z</time>
|
|
</trkpt>
|
|
<trkpt lat="55.568059" lon="8.364746">
|
|
<ele>11.347990</ele>
|
|
<time>2026-07-11T10:48:24.000Z</time>
|
|
</trkpt>
|
|
<trkpt lat="55.568118" lon="8.364796">
|
|
<ele>11.234337</ele>
|
|
<time>2026-07-11T10:48:25.000Z</time>
|
|
</trkpt>
|
|
<trkpt lat="55.568175" lon="8.364843">
|
|
<ele>11.125084</ele>
|
|
<time>2026-07-11T10:48:26.000Z</time>
|
|
</trkpt>
|
|
<trkpt lat="55.568233" lon="8.364892">
|
|
<ele>11.013422</ele>
|
|
<time>2026-07-11T10:48:27.000Z</time>
|
|
</trkpt>
|
|
<trkpt lat="55.568289" lon="8.364941">
|
|
<ele>10.904885</ele>
|
|
<time>2026-07-11T10:48:28.000Z</time>
|
|
</trkpt>
|
|
<trkpt lat="55.568348" lon="8.364993">
|
|
<ele>10.790369</ele>
|
|
<time>2026-07-11T10:48:29.000Z</time>
|
|
</trkpt>
|
|
<trkpt lat="55.568410" lon="8.365046">
|
|
<ele>10.670742</ele>
|
|
<time>2026-07-11T10:48:30.000Z</time>
|
|
</trkpt>
|
|
<trkpt lat="55.568467" lon="8.365093">
|
|
<ele>10.561490</ele>
|
|
<time>2026-07-11T10:48:31.000Z</time>
|
|
</trkpt>
|
|
<trkpt lat="55.568524" lon="8.365137">
|
|
<ele>10.453449</ele>
|
|
<time>2026-07-11T10:48:32.000Z</time>
|
|
</trkpt>
|
|
<trkpt lat="55.568583" lon="8.365179">
|
|
<ele>10.342965</ele>
|
|
<time>2026-07-11T10:48:33.000Z</time>
|
|
</trkpt>
|
|
<trkpt lat="55.568646" lon="8.365230">
|
|
<ele>10.222602</ele>
|
|
<time>2026-07-11T10:48:34.000Z</time>
|
|
</trkpt>
|
|
<trkpt lat="55.568713" lon="8.365286">
|
|
<ele>10.093868</ele>
|
|
<time>2026-07-11T10:48:35.000Z</time>
|
|
</trkpt>
|
|
<trkpt lat="55.568781" lon="8.365345">
|
|
<ele>9.962290</ele>
|
|
<time>2026-07-11T10:48:36.000Z</time>
|
|
</trkpt>
|
|
<trkpt lat="55.568855" lon="8.365415">
|
|
<ele>9.874715</ele>
|
|
<time>2026-07-11T10:48:37.000Z</time>
|
|
</trkpt>
|
|
<trkpt lat="55.568928" lon="8.365488">
|
|
<ele>9.811750</ele>
|
|
<time>2026-07-11T10:48:38.000Z</time>
|
|
</trkpt>
|
|
<trkpt lat="55.568999" lon="8.365557">
|
|
<ele>9.750922</ele>
|
|
<time>2026-07-11T10:48:39.000Z</time>
|
|
</trkpt>
|
|
<trkpt lat="55.569073" lon="8.365628">
|
|
<ele>9.687711</ele>
|
|
<time>2026-07-11T10:48:40.000Z</time>
|
|
</trkpt>
|
|
<trkpt lat="55.569147" lon="8.365702">
|
|
<ele>9.623883</ele>
|
|
<time>2026-07-11T10:48:41.000Z</time>
|
|
</trkpt>
|
|
<trkpt lat="55.569216" lon="8.365771">
|
|
<ele>9.564368</ele>
|
|
<time>2026-07-11T10:48:42.000Z</time>
|
|
</trkpt>
|
|
<trkpt lat="55.569280" lon="8.365833">
|
|
<ele>9.509578</ele>
|
|
<time>2026-07-11T10:48:43.000Z</time>
|
|
</trkpt>
|
|
<trkpt lat="55.569342" lon="8.365893">
|
|
<ele>9.456513</ele>
|
|
<time>2026-07-11T10:48:44.000Z</time>
|
|
</trkpt>
|
|
<trkpt lat="55.569402" lon="8.365952">
|
|
<ele>9.404968</ele>
|
|
<time>2026-07-11T10:48:45.000Z</time>
|
|
</trkpt>
|
|
<trkpt lat="55.569459" lon="8.366004">
|
|
<ele>9.356813</ele>
|
|
<time>2026-07-11T10:48:46.000Z</time>
|
|
</trkpt>
|
|
<trkpt lat="55.569511" lon="8.366049">
|
|
<ele>9.313346</ele>
|
|
<time>2026-07-11T10:48:47.000Z</time>
|
|
</trkpt>
|
|
<trkpt lat="55.569557" lon="8.366092">
|
|
<ele>9.274280</ele>
|
|
<time>2026-07-11T10:48:48.000Z</time>
|
|
</trkpt>
|
|
<trkpt lat="55.569595" lon="8.366131">
|
|
<ele>9.241293</ele>
|
|
<time>2026-07-11T10:48:49.000Z</time>
|
|
</trkpt>
|
|
<trkpt lat="55.569628" lon="8.366163">
|
|
<ele>9.213036</ele>
|
|
<time>2026-07-11T10:48:50.000Z</time>
|
|
</trkpt>
|
|
<trkpt lat="55.569658" lon="8.366181">
|
|
<ele>9.189250</ele>
|
|
<time>2026-07-11T10:48:51.000Z</time>
|
|
</trkpt>
|
|
<trkpt lat="55.569691" lon="8.366180">
|
|
<ele>9.164468</ele>
|
|
<time>2026-07-11T10:48:52.000Z</time>
|
|
</trkpt>
|
|
<trkpt lat="55.569727" lon="8.366161">
|
|
<ele>9.136261</ele>
|
|
<time>2026-07-11T10:48:53.000Z</time>
|
|
</trkpt>
|
|
<trkpt lat="55.569762" lon="8.366123">
|
|
<ele>9.105425</ele>
|
|
<time>2026-07-11T10:48:54.000Z</time>
|
|
</trkpt>
|
|
<trkpt lat="55.569790" lon="8.366066">
|
|
<ele>9.073370</ele>
|
|
<time>2026-07-11T10:48:55.000Z</time>
|
|
</trkpt>
|
|
<trkpt lat="55.569815" lon="8.366002">
|
|
<ele>9.040347</ele>
|
|
<time>2026-07-11T10:48:56.000Z</time>
|
|
</trkpt>
|
|
<trkpt lat="55.569840" lon="8.365939">
|
|
<ele>9.007672</ele>
|
|
<time>2026-07-11T10:48:57.000Z</time>
|
|
</trkpt>
|
|
<trkpt lat="55.569868" lon="8.365872">
|
|
<ele>8.972303</ele>
|
|
<time>2026-07-11T10:48:58.000Z</time>
|
|
</trkpt>
|
|
<trkpt lat="55.569901" lon="8.365803">
|
|
<ele>8.933937</ele>
|
|
<time>2026-07-11T10:48:59.000Z</time>
|
|
</trkpt>
|
|
<trkpt lat="55.569933" lon="8.365732">
|
|
<ele>8.895391</ele>
|
|
<time>2026-07-11T10:49:00.000Z</time>
|
|
</trkpt>
|
|
<trkpt lat="55.569967" lon="8.365658">
|
|
<ele>8.854912</ele>
|
|
<time>2026-07-11T10:49:01.000Z</time>
|
|
</trkpt>
|
|
<trkpt lat="55.570004" lon="8.365585">
|
|
<ele>8.813292</ele>
|
|
<time>2026-07-11T10:49:02.000Z</time>
|
|
</trkpt>
|
|
<trkpt lat="55.570038" lon="8.365509">
|
|
<ele>8.772151</ele>
|
|
<time>2026-07-11T10:49:03.000Z</time>
|
|
</trkpt>
|
|
<trkpt lat="55.570073" lon="8.365432">
|
|
<ele>8.730209</ele>
|
|
<time>2026-07-11T10:49:04.000Z</time>
|
|
</trkpt>
|
|
<trkpt lat="55.570107" lon="8.365357">
|
|
<ele>8.689399</ele>
|
|
<time>2026-07-11T10:49:05.000Z</time>
|
|
</trkpt>
|
|
<trkpt lat="55.570143" lon="8.365283">
|
|
<ele>8.647957</ele>
|
|
<time>2026-07-11T10:49:06.000Z</time>
|
|
</trkpt>
|
|
<trkpt lat="55.570181" lon="8.365208">
|
|
<ele>8.605204</ele>
|
|
<time>2026-07-11T10:49:07.000Z</time>
|
|
</trkpt>
|
|
<trkpt lat="55.570217" lon="8.365132">
|
|
<ele>8.571245</ele>
|
|
<time>2026-07-11T10:49:08.000Z</time>
|
|
</trkpt>
|
|
<trkpt lat="55.570252" lon="8.365057">
|
|
<ele>8.591816</ele>
|
|
<time>2026-07-11T10:49:09.000Z</time>
|
|
</trkpt>
|
|
<trkpt lat="55.570286" lon="8.364981">
|
|
<ele>8.612315</ele>
|
|
<time>2026-07-11T10:49:10.000Z</time>
|
|
</trkpt>
|
|
<trkpt lat="55.570320" lon="8.364900">
|
|
<ele>8.633655</ele>
|
|
<time>2026-07-11T10:49:11.000Z</time>
|
|
</trkpt>
|
|
<trkpt lat="55.570355" lon="8.364811">
|
|
<ele>8.656587</ele>
|
|
<time>2026-07-11T10:49:12.000Z</time>
|
|
</trkpt>
|
|
<trkpt lat="55.570389" lon="8.364725">
|
|
<ele>8.678784</ele>
|
|
<time>2026-07-11T10:49:13.000Z</time>
|
|
</trkpt>
|
|
<trkpt lat="55.570425" lon="8.364644">
|
|
<ele>8.700578</ele>
|
|
<time>2026-07-11T10:49:14.000Z</time>
|
|
</trkpt>
|
|
<trkpt lat="55.570462" lon="8.364559">
|
|
<ele>8.723269</ele>
|
|
<time>2026-07-11T10:49:15.000Z</time>
|
|
</trkpt>
|
|
<trkpt lat="55.570496" lon="8.364473">
|
|
<ele>8.745466</ele>
|
|
<time>2026-07-11T10:49:16.000Z</time>
|
|
</trkpt>
|
|
<trkpt lat="55.570528" lon="8.364389">
|
|
<ele>8.766892</ele>
|
|
<time>2026-07-11T10:49:17.000Z</time>
|
|
</trkpt>
|
|
<trkpt lat="55.570561" lon="8.364304">
|
|
<ele>8.788702</ele>
|
|
<time>2026-07-11T10:49:18.000Z</time>
|
|
</trkpt>
|
|
<trkpt lat="55.570593" lon="8.364219">
|
|
<ele>8.810303</ele>
|
|
<time>2026-07-11T10:49:19.000Z</time>
|
|
</trkpt>
|
|
<trkpt lat="55.570625" lon="8.364137">
|
|
<ele>8.831378</ele>
|
|
<time>2026-07-11T10:49:20.000Z</time>
|
|
</trkpt>
|
|
<trkpt lat="55.570660" lon="8.364057">
|
|
<ele>8.852775</ele>
|
|
<time>2026-07-11T10:49:21.000Z</time>
|
|
</trkpt>
|
|
<trkpt lat="55.570693" lon="8.363979">
|
|
<ele>8.873382</ele>
|
|
<time>2026-07-11T10:49:22.000Z</time>
|
|
</trkpt>
|
|
<trkpt lat="55.570725" lon="8.363901">
|
|
<ele>8.893767</ele>
|
|
<time>2026-07-11T10:49:23.000Z</time>
|
|
</trkpt>
|
|
<trkpt lat="55.570756" lon="8.363823">
|
|
<ele>8.913934</ele>
|
|
<time>2026-07-11T10:49:24.000Z</time>
|
|
</trkpt>
|
|
<trkpt lat="55.570784" lon="8.363743">
|
|
<ele>8.933836</ele>
|
|
<time>2026-07-11T10:49:25.000Z</time>
|
|
</trkpt>
|
|
<trkpt lat="55.570814" lon="8.363662">
|
|
<ele>8.954319</ele>
|
|
<time>2026-07-11T10:49:26.000Z</time>
|
|
</trkpt>
|
|
<trkpt lat="55.570843" lon="8.363581">
|
|
<ele>8.974598</ele>
|
|
<time>2026-07-11T10:49:27.000Z</time>
|
|
</trkpt>
|
|
<trkpt lat="55.570872" lon="8.363503">
|
|
<ele>8.994345</ele>
|
|
<time>2026-07-11T10:49:28.000Z</time>
|
|
</trkpt>
|
|
<trkpt lat="55.570902" lon="8.363427">
|
|
<ele>9.013951</ele>
|
|
<time>2026-07-11T10:49:29.000Z</time>
|
|
</trkpt>
|
|
<trkpt lat="55.570933" lon="8.363350">
|
|
<ele>9.033946</ele>
|
|
<time>2026-07-11T10:49:30.000Z</time>
|
|
</trkpt>
|
|
<trkpt lat="55.570963" lon="8.363274">
|
|
<ele>9.053552</ele>
|
|
<time>2026-07-11T10:49:31.000Z</time>
|
|
</trkpt>
|
|
<trkpt lat="55.570996" lon="8.363199">
|
|
<ele>9.073654</ele>
|
|
<time>2026-07-11T10:49:32.000Z</time>
|
|
</trkpt>
|
|
<trkpt lat="55.571028" lon="8.363124">
|
|
<ele>9.093529</ele>
|
|
<time>2026-07-11T10:49:33.000Z</time>
|
|
</trkpt>
|
|
<trkpt lat="55.571057" lon="8.363048">
|
|
<ele>9.112923</ele>
|
|
<time>2026-07-11T10:49:34.000Z</time>
|
|
</trkpt>
|
|
<trkpt lat="55.571085" lon="8.362970">
|
|
<ele>9.132467</ele>
|
|
<time>2026-07-11T10:49:35.000Z</time>
|
|
</trkpt>
|
|
<trkpt lat="55.571116" lon="8.362894">
|
|
<ele>9.152290</ele>
|
|
<time>2026-07-11T10:49:36.000Z</time>
|
|
</trkpt>
|
|
<trkpt lat="55.571146" lon="8.362817">
|
|
<ele>9.172070</ele>
|
|
<time>2026-07-11T10:49:37.000Z</time>
|
|
</trkpt>
|
|
<trkpt lat="55.571177" lon="8.362741">
|
|
<ele>9.191892</ele>
|
|
<time>2026-07-11T10:49:38.000Z</time>
|
|
</trkpt>
|
|
<trkpt lat="55.571209" lon="8.362666">
|
|
<ele>9.211767</ele>
|
|
<time>2026-07-11T10:49:39.000Z</time>
|
|
</trkpt>
|
|
<trkpt lat="55.571242" lon="8.362590">
|
|
<ele>9.232036</ele>
|
|
<time>2026-07-11T10:49:40.000Z</time>
|
|
</trkpt>
|
|
<trkpt lat="55.571274" lon="8.362514">
|
|
<ele>9.238276</ele>
|
|
<time>2026-07-11T10:49:41.000Z</time>
|
|
</trkpt>
|
|
<trkpt lat="55.571306" lon="8.362438">
|
|
<ele>9.232278</ele>
|
|
<time>2026-07-11T10:49:42.000Z</time>
|
|
</trkpt>
|
|
<trkpt lat="55.571337" lon="8.362361">
|
|
<ele>9.226294</ele>
|
|
<time>2026-07-11T10:49:43.000Z</time>
|
|
</trkpt>
|
|
<trkpt lat="55.571369" lon="8.362283">
|
|
<ele>9.220194</ele>
|
|
<time>2026-07-11T10:49:44.000Z</time>
|
|
</trkpt>
|
|
<trkpt lat="55.571404" lon="8.362205">
|
|
<ele>9.213890</ele>
|
|
<time>2026-07-11T10:49:45.000Z</time>
|
|
</trkpt>
|
|
<trkpt lat="55.571436" lon="8.362126">
|
|
<ele>9.207739</ele>
|
|
<time>2026-07-11T10:49:46.000Z</time>
|
|
</trkpt>
|
|
<trkpt lat="55.571467" lon="8.362045">
|
|
<ele>9.201547</ele>
|
|
<time>2026-07-11T10:49:47.000Z</time>
|
|
</trkpt>
|
|
<trkpt lat="55.571497" lon="8.361965">
|
|
<ele>9.195471</ele>
|
|
<time>2026-07-11T10:49:48.000Z</time>
|
|
</trkpt>
|
|
<trkpt lat="55.571530" lon="8.361886">
|
|
<ele>9.189253</ele>
|
|
<time>2026-07-11T10:49:49.000Z</time>
|
|
</trkpt>
|
|
<trkpt lat="55.571562" lon="8.361807">
|
|
<ele>9.183102</ele>
|
|
<time>2026-07-11T10:49:50.000Z</time>
|
|
</trkpt>
|
|
<trkpt lat="55.571595" lon="8.361727">
|
|
<ele>9.176833</ele>
|
|
<time>2026-07-11T10:49:51.000Z</time>
|
|
</trkpt>
|
|
<trkpt lat="55.571625" lon="8.361647">
|
|
<ele>9.170756</ele>
|
|
<time>2026-07-11T10:49:52.000Z</time>
|
|
</trkpt>
|
|
<trkpt lat="55.571655" lon="8.361566">
|
|
<ele>9.164627</ele>
|
|
<time>2026-07-11T10:49:53.000Z</time>
|
|
</trkpt>
|
|
<trkpt lat="55.571688" lon="8.361484">
|
|
<ele>9.158256</ele>
|
|
<time>2026-07-11T10:49:54.000Z</time>
|
|
</trkpt>
|
|
<trkpt lat="55.571718" lon="8.361404">
|
|
<ele>9.152179</ele>
|
|
<time>2026-07-11T10:49:55.000Z</time>
|
|
</trkpt>
|
|
<trkpt lat="55.571751" lon="8.361322">
|
|
<ele>9.145808</ele>
|
|
<time>2026-07-11T10:49:56.000Z</time>
|
|
</trkpt>
|
|
<trkpt lat="55.571784" lon="8.361240">
|
|
<ele>9.139437</ele>
|
|
<time>2026-07-11T10:49:57.000Z</time>
|
|
</trkpt>
|
|
<trkpt lat="55.571818" lon="8.361158">
|
|
<ele>9.133000</ele>
|
|
<time>2026-07-11T10:49:58.000Z</time>
|
|
</trkpt>
|
|
<trkpt lat="55.571852" lon="8.361076">
|
|
<ele>9.126563</ele>
|
|
<time>2026-07-11T10:49:59.000Z</time>
|
|
</trkpt>
|
|
<trkpt lat="55.571884" lon="8.360993">
|
|
<ele>9.120204</ele>
|
|
<time>2026-07-11T10:50:00.000Z</time>
|
|
</trkpt>
|
|
<trkpt lat="55.571918" lon="8.360911">
|
|
<ele>9.113767</ele>
|
|
<time>2026-07-11T10:50:01.000Z</time>
|
|
</trkpt>
|
|
<trkpt lat="55.571952" lon="8.360829">
|
|
<ele>9.107330</ele>
|
|
<time>2026-07-11T10:50:02.000Z</time>
|
|
</trkpt>
|
|
<trkpt lat="55.571983" lon="8.360747">
|
|
<ele>9.101086</ele>
|
|
<time>2026-07-11T10:50:03.000Z</time>
|
|
</trkpt>
|
|
<trkpt lat="55.572014" lon="8.360662">
|
|
<ele>9.094684</ele>
|
|
<time>2026-07-11T10:50:04.000Z</time>
|
|
</trkpt>
|
|
<trkpt lat="55.572052" lon="8.360573">
|
|
<ele>9.087624</ele>
|
|
<time>2026-07-11T10:50:05.000Z</time>
|
|
</trkpt>
|
|
<trkpt lat="55.572088" lon="8.360489">
|
|
<ele>9.080952</ele>
|
|
<time>2026-07-11T10:50:06.000Z</time>
|
|
</trkpt>
|
|
<trkpt lat="55.572124" lon="8.360403">
|
|
<ele>9.074179</ele>
|
|
<time>2026-07-11T10:50:07.000Z</time>
|
|
</trkpt>
|
|
<trkpt lat="55.572158" lon="8.360322">
|
|
<ele>9.067793</ele>
|
|
<time>2026-07-11T10:50:08.000Z</time>
|
|
</trkpt>
|
|
<trkpt lat="55.572188" lon="8.360248">
|
|
<ele>9.062029</ele>
|
|
<time>2026-07-11T10:50:09.000Z</time>
|
|
</trkpt>
|
|
<trkpt lat="55.572234" lon="8.360136">
|
|
<ele>9.053266</ele>
|
|
<time>2026-07-11T10:50:10.000Z</time>
|
|
</trkpt>
|
|
<trkpt lat="55.572269" lon="8.360046">
|
|
<ele>9.046352</ele>
|
|
<time>2026-07-11T10:50:11.000Z</time>
|
|
</trkpt>
|
|
<trkpt lat="55.572304" lon="8.359954">
|
|
<ele>9.036582</ele>
|
|
<time>2026-07-11T10:50:12.000Z</time>
|
|
</trkpt>
|
|
<trkpt lat="55.572338" lon="8.359866">
|
|
<ele>9.004982</ele>
|
|
<time>2026-07-11T10:50:13.000Z</time>
|
|
</trkpt>
|
|
<trkpt lat="55.572373" lon="8.359779">
|
|
<ele>8.973325</ele>
|
|
<time>2026-07-11T10:50:14.000Z</time>
|
|
</trkpt>
|
|
<trkpt lat="55.572407" lon="8.359689">
|
|
<ele>8.941234</ele>
|
|
<time>2026-07-11T10:50:15.000Z</time>
|
|
</trkpt>
|
|
<trkpt lat="55.572441" lon="8.359599">
|
|
<ele>8.909143</ele>
|
|
<time>2026-07-11T10:50:16.000Z</time>
|
|
</trkpt>
|
|
<trkpt lat="55.572477" lon="8.359511">
|
|
<ele>8.876940</ele>
|
|
<time>2026-07-11T10:50:17.000Z</time>
|
|
</trkpt>
|
|
<trkpt lat="55.572515" lon="8.359422">
|
|
<ele>8.843874</ele>
|
|
<time>2026-07-11T10:50:18.000Z</time>
|
|
</trkpt>
|
|
<trkpt lat="55.572553" lon="8.359334">
|
|
<ele>8.811045</ele>
|
|
<time>2026-07-11T10:50:19.000Z</time>
|
|
</trkpt>
|
|
<trkpt lat="55.572590" lon="8.359246">
|
|
<ele>8.778532</ele>
|
|
<time>2026-07-11T10:50:20.000Z</time>
|
|
</trkpt>
|
|
<trkpt lat="55.572624" lon="8.359157">
|
|
<ele>8.746687</ele>
|
|
<time>2026-07-11T10:50:21.000Z</time>
|
|
</trkpt>
|
|
<trkpt lat="55.572660" lon="8.359067">
|
|
<ele>8.714002</ele>
|
|
<time>2026-07-11T10:50:22.000Z</time>
|
|
</trkpt>
|
|
<trkpt lat="55.572699" lon="8.358978">
|
|
<ele>8.680618</ele>
|
|
<time>2026-07-11T10:50:23.000Z</time>
|
|
</trkpt>
|
|
<trkpt lat="55.572735" lon="8.358890">
|
|
<ele>8.648415</ele>
|
|
<time>2026-07-11T10:50:24.000Z</time>
|
|
</trkpt>
|
|
<trkpt lat="55.572769" lon="8.358802">
|
|
<ele>8.616815</ele>
|
|
<time>2026-07-11T10:50:25.000Z</time>
|
|
</trkpt>
|
|
<trkpt lat="55.572805" lon="8.358711">
|
|
<ele>8.583888</ele>
|
|
<time>2026-07-11T10:50:26.000Z</time>
|
|
</trkpt>
|
|
<trkpt lat="55.572844" lon="8.358619">
|
|
<ele>8.549797</ele>
|
|
<time>2026-07-11T10:50:27.000Z</time>
|
|
</trkpt>
|
|
<trkpt lat="55.572880" lon="8.358530">
|
|
<ele>8.517353</ele>
|
|
<time>2026-07-11T10:50:28.000Z</time>
|
|
</trkpt>
|
|
<trkpt lat="55.572916" lon="8.358441">
|
|
<ele>8.484909</ele>
|
|
<time>2026-07-11T10:50:29.000Z</time>
|
|
</trkpt>
|
|
<trkpt lat="55.572954" lon="8.358351">
|
|
<ele>8.451607</ele>
|
|
<time>2026-07-11T10:50:30.000Z</time>
|
|
</trkpt>
|
|
<trkpt lat="55.572993" lon="8.358259">
|
|
<ele>8.417517</ele>
|
|
<time>2026-07-11T10:50:31.000Z</time>
|
|
</trkpt>
|
|
<trkpt lat="55.573029" lon="8.358169">
|
|
<ele>8.384831</ele>
|
|
<time>2026-07-11T10:50:32.000Z</time>
|
|
</trkpt>
|
|
<trkpt lat="55.573065" lon="8.358080">
|
|
<ele>8.352388</ele>
|
|
<time>2026-07-11T10:50:33.000Z</time>
|
|
</trkpt>
|
|
<trkpt lat="55.573101" lon="8.357992">
|
|
<ele>8.320185</ele>
|
|
<time>2026-07-11T10:50:34.000Z</time>
|
|
</trkpt>
|
|
<trkpt lat="55.573136" lon="8.357904">
|
|
<ele>8.288287</ele>
|
|
<time>2026-07-11T10:50:35.000Z</time>
|
|
</trkpt>
|
|
<trkpt lat="55.573170" lon="8.357817">
|
|
<ele>8.256932</ele>
|
|
<time>2026-07-11T10:50:36.000Z</time>
|
|
</trkpt>
|
|
<trkpt lat="55.573204" lon="8.357731">
|
|
<ele>8.225820</ele>
|
|
<time>2026-07-11T10:50:37.000Z</time>
|
|
</trkpt>
|
|
<trkpt lat="55.573239" lon="8.357644">
|
|
<ele>8.194164</ele>
|
|
<time>2026-07-11T10:50:38.000Z</time>
|
|
</trkpt>
|
|
<trkpt lat="55.573273" lon="8.357559">
|
|
<ele>8.163294</ele>
|
|
<time>2026-07-11T10:50:39.000Z</time>
|
|
</trkpt>
|
|
<trkpt lat="55.573309" lon="8.357475">
|
|
<ele>8.132045</ele>
|
|
<time>2026-07-11T10:50:40.000Z</time>
|
|
</trkpt>
|
|
<trkpt lat="55.573344" lon="8.357390">
|
|
<ele>8.100870</ele>
|
|
<time>2026-07-11T10:50:41.000Z</time>
|
|
</trkpt>
|
|
<trkpt lat="55.573376" lon="8.357305">
|
|
<ele>8.134788</ele>
|
|
<time>2026-07-11T10:50:42.000Z</time>
|
|
</trkpt>
|
|
<trkpt lat="55.573410" lon="8.357221">
|
|
<ele>8.178943</ele>
|
|
<time>2026-07-11T10:50:43.000Z</time>
|
|
</trkpt>
|
|
<trkpt lat="55.573445" lon="8.357137">
|
|
<ele>8.223542</ele>
|
|
<time>2026-07-11T10:50:44.000Z</time>
|
|
</trkpt>
|
|
<trkpt lat="55.573479" lon="8.357052">
|
|
<ele>8.268045</ele>
|
|
<time>2026-07-11T10:50:45.000Z</time>
|
|
</trkpt>
|
|
<trkpt lat="55.573513" lon="8.356968">
|
|
<ele>8.312200</ele>
|
|
<time>2026-07-11T10:50:46.000Z</time>
|
|
</trkpt>
|
|
<trkpt lat="55.573547" lon="8.356884">
|
|
<ele>8.356354</ele>
|
|
<time>2026-07-11T10:50:47.000Z</time>
|
|
</trkpt>
|
|
<trkpt lat="55.573580" lon="8.356800">
|
|
<ele>8.400073</ele>
|
|
<time>2026-07-11T10:50:48.000Z</time>
|
|
</trkpt>
|
|
<trkpt lat="55.573612" lon="8.356718">
|
|
<ele>8.442659</ele>
|
|
<time>2026-07-11T10:50:49.000Z</time>
|
|
</trkpt>
|
|
<trkpt lat="55.573647" lon="8.356634">
|
|
<ele>8.487258</ele>
|
|
<time>2026-07-11T10:50:50.000Z</time>
|
|
</trkpt>
|
|
<trkpt lat="55.573679" lon="8.356552">
|
|
<ele>8.529844</ele>
|
|
<time>2026-07-11T10:50:51.000Z</time>
|
|
</trkpt>
|
|
<trkpt lat="55.573711" lon="8.356470">
|
|
<ele>8.572430</ele>
|
|
<time>2026-07-11T10:50:52.000Z</time>
|
|
</trkpt>
|
|
<trkpt lat="55.573746" lon="8.356390">
|
|
<ele>8.615664</ele>
|
|
<time>2026-07-11T10:50:53.000Z</time>
|
|
</trkpt>
|
|
<trkpt lat="55.573778" lon="8.356309">
|
|
<ele>8.657899</ele>
|
|
<time>2026-07-11T10:50:54.000Z</time>
|
|
</trkpt>
|
|
<trkpt lat="55.573811" lon="8.356228">
|
|
<ele>8.700571</ele>
|
|
<time>2026-07-11T10:50:55.000Z</time>
|
|
</trkpt>
|
|
<trkpt lat="55.573843" lon="8.356144">
|
|
<ele>8.743863</ele>
|
|
<time>2026-07-11T10:50:56.000Z</time>
|
|
</trkpt>
|
|
<trkpt lat="55.573876" lon="8.356060">
|
|
<ele>8.787582</ele>
|
|
<time>2026-07-11T10:50:57.000Z</time>
|
|
</trkpt>
|
|
<trkpt lat="55.573910" lon="8.355977">
|
|
<ele>8.831389</ele>
|
|
<time>2026-07-11T10:50:58.000Z</time>
|
|
</trkpt>
|
|
<trkpt lat="55.573944" lon="8.355894">
|
|
<ele>8.875197</ele>
|
|
<time>2026-07-11T10:50:59.000Z</time>
|
|
</trkpt>
|
|
<trkpt lat="55.573977" lon="8.355811">
|
|
<ele>8.918566</ele>
|
|
<time>2026-07-11T10:51:00.000Z</time>
|
|
</trkpt>
|
|
<trkpt lat="55.574011" lon="8.355728">
|
|
<ele>8.962373</ele>
|
|
<time>2026-07-11T10:51:01.000Z</time>
|
|
</trkpt>
|
|
<trkpt lat="55.574045" lon="8.355644">
|
|
<ele>9.006528</ele>
|
|
<time>2026-07-11T10:51:02.000Z</time>
|
|
</trkpt>
|
|
<trkpt lat="55.574078" lon="8.355559">
|
|
<ele>9.050598</ele>
|
|
<time>2026-07-11T10:51:03.000Z</time>
|
|
</trkpt>
|
|
<trkpt lat="55.574113" lon="8.355476">
|
|
<ele>9.094853</ele>
|
|
<time>2026-07-11T10:51:04.000Z</time>
|
|
</trkpt>
|
|
<trkpt lat="55.574150" lon="8.355392">
|
|
<ele>9.140365</ele>
|
|
<time>2026-07-11T10:51:05.000Z</time>
|
|
</trkpt>
|
|
<trkpt lat="55.574185" lon="8.355307">
|
|
<ele>9.185309</ele>
|
|
<time>2026-07-11T10:51:06.000Z</time>
|
|
</trkpt>
|
|
<trkpt lat="55.574219" lon="8.355224">
|
|
<ele>9.229116</ele>
|
|
<time>2026-07-11T10:51:07.000Z</time>
|
|
</trkpt>
|
|
<trkpt lat="55.574252" lon="8.355139">
|
|
<ele>9.273186</ele>
|
|
<time>2026-07-11T10:51:08.000Z</time>
|
|
</trkpt>
|
|
<trkpt lat="55.574284" lon="8.355056">
|
|
<ele>9.316124</ele>
|
|
<time>2026-07-11T10:51:09.000Z</time>
|
|
</trkpt>
|
|
<trkpt lat="55.574316" lon="8.354973">
|
|
<ele>9.359062</ele>
|
|
<time>2026-07-11T10:51:10.000Z</time>
|
|
</trkpt>
|
|
<trkpt lat="55.574349" lon="8.354892">
|
|
<ele>9.401733</ele>
|
|
<time>2026-07-11T10:51:11.000Z</time>
|
|
</trkpt>
|
|
<trkpt lat="55.574381" lon="8.354811">
|
|
<ele>9.443968</ele>
|
|
<time>2026-07-11T10:51:12.000Z</time>
|
|
</trkpt>
|
|
<trkpt lat="55.574413" lon="8.354731">
|
|
<ele>9.503354</ele>
|
|
<time>2026-07-11T10:51:13.000Z</time>
|
|
</trkpt>
|
|
<trkpt lat="55.574448" lon="8.354650">
|
|
<ele>9.573052</ele>
|
|
<time>2026-07-11T10:51:14.000Z</time>
|
|
</trkpt>
|
|
<trkpt lat="55.574480" lon="8.354570">
|
|
<ele>9.640050</ele>
|
|
<time>2026-07-11T10:51:15.000Z</time>
|
|
</trkpt>
|
|
<trkpt lat="55.574513" lon="8.354491">
|
|
<ele>9.707202</ele>
|
|
<time>2026-07-11T10:51:16.000Z</time>
|
|
</trkpt>
|
|
<trkpt lat="55.574545" lon="8.354410">
|
|
<ele>9.774758</ele>
|
|
<time>2026-07-11T10:51:17.000Z</time>
|
|
</trkpt>
|
|
<trkpt lat="55.574578" lon="8.354330">
|
|
<ele>9.842461</ele>
|
|
<time>2026-07-11T10:51:18.000Z</time>
|
|
</trkpt>
|
|
<trkpt lat="55.574608" lon="8.354249">
|
|
<ele>9.908662</ele>
|
|
<time>2026-07-11T10:51:19.000Z</time>
|
|
</trkpt>
|
|
<trkpt lat="55.574639" lon="8.354167">
|
|
<ele>9.976100</ele>
|
|
<time>2026-07-11T10:51:20.000Z</time>
|
|
</trkpt>
|
|
<trkpt lat="55.574673" lon="8.354088">
|
|
<ele>10.043977</ele>
|
|
<time>2026-07-11T10:51:21.000Z</time>
|
|
</trkpt>
|
|
<trkpt lat="55.574706" lon="8.354009">
|
|
<ele>10.111129</ele>
|
|
<time>2026-07-11T10:51:22.000Z</time>
|
|
</trkpt>
|
|
<trkpt lat="55.574738" lon="8.353930">
|
|
<ele>10.177569</ele>
|
|
<time>2026-07-11T10:51:23.000Z</time>
|
|
</trkpt>
|
|
<trkpt lat="55.574770" lon="8.353850">
|
|
<ele>10.244566</ele>
|
|
<time>2026-07-11T10:51:24.000Z</time>
|
|
</trkpt>
|
|
<trkpt lat="55.574801" lon="8.353768">
|
|
<ele>10.312004</ele>
|
|
<time>2026-07-11T10:51:25.000Z</time>
|
|
</trkpt>
|
|
<trkpt lat="55.574831" lon="8.353687">
|
|
<ele>10.378205</ele>
|
|
<time>2026-07-11T10:51:26.000Z</time>
|
|
</trkpt>
|
|
<trkpt lat="55.574864" lon="8.353607">
|
|
<ele>10.445907</ele>
|
|
<time>2026-07-11T10:51:27.000Z</time>
|
|
</trkpt>
|
|
<trkpt lat="55.574896" lon="8.353527">
|
|
<ele>10.512904</ele>
|
|
<time>2026-07-11T10:51:28.000Z</time>
|
|
</trkpt>
|
|
<trkpt lat="55.574927" lon="8.353448">
|
|
<ele>10.578647</ele>
|
|
<time>2026-07-11T10:51:29.000Z</time>
|
|
</trkpt>
|
|
<trkpt lat="55.574957" lon="8.353371">
|
|
<ele>10.642577</ele>
|
|
<time>2026-07-11T10:51:30.000Z</time>
|
|
</trkpt>
|
|
<trkpt lat="55.574988" lon="8.353293">
|
|
<ele>10.707760</ele>
|
|
<time>2026-07-11T10:51:31.000Z</time>
|
|
</trkpt>
|
|
<trkpt lat="55.575018" lon="8.353215">
|
|
<ele>10.772254</ele>
|
|
<time>2026-07-11T10:51:32.000Z</time>
|
|
</trkpt>
|
|
<trkpt lat="55.575051" lon="8.353139">
|
|
<ele>10.837768</ele>
|
|
<time>2026-07-11T10:51:33.000Z</time>
|
|
</trkpt>
|
|
<trkpt lat="55.575083" lon="8.353064">
|
|
<ele>10.902004</ele>
|
|
<time>2026-07-11T10:51:34.000Z</time>
|
|
</trkpt>
|
|
<trkpt lat="55.575114" lon="8.352987">
|
|
<ele>10.966628</ele>
|
|
<time>2026-07-11T10:51:35.000Z</time>
|
|
</trkpt>
|
|
<trkpt lat="55.575144" lon="8.352910">
|
|
<ele>11.030559</ele>
|
|
<time>2026-07-11T10:51:36.000Z</time>
|
|
</trkpt>
|
|
<trkpt lat="55.575175" lon="8.352834">
|
|
<ele>11.094627</ele>
|
|
<time>2026-07-11T10:51:37.000Z</time>
|
|
</trkpt>
|
|
<trkpt lat="55.575205" lon="8.352759">
|
|
<ele>11.157436</ele>
|
|
<time>2026-07-11T10:51:38.000Z</time>
|
|
</trkpt>
|
|
<trkpt lat="55.575236" lon="8.352684">
|
|
<ele>11.220952</ele>
|
|
<time>2026-07-11T10:51:39.000Z</time>
|
|
</trkpt>
|
|
<trkpt lat="55.575266" lon="8.352609">
|
|
<ele>11.283761</ele>
|
|
<time>2026-07-11T10:51:40.000Z</time>
|
|
</trkpt>
|
|
<trkpt lat="55.575298" lon="8.352534">
|
|
<ele>11.347997</ele>
|
|
<time>2026-07-11T10:51:41.000Z</time>
|
|
</trkpt>
|
|
<trkpt lat="55.575331" lon="8.352460">
|
|
<ele>11.412431</ele>
|
|
<time>2026-07-11T10:51:42.000Z</time>
|
|
</trkpt>
|
|
<trkpt lat="55.575361" lon="8.352384">
|
|
<ele>11.475800</ele>
|
|
<time>2026-07-11T10:51:43.000Z</time>
|
|
</trkpt>
|
|
<trkpt lat="55.575394" lon="8.352308">
|
|
<ele>11.541312</ele>
|
|
<time>2026-07-11T10:51:44.000Z</time>
|
|
</trkpt>
|
|
<trkpt lat="55.575427" lon="8.352229">
|
|
<ele>11.608463</ele>
|
|
<time>2026-07-11T10:51:45.000Z</time>
|
|
</trkpt>
|
|
<trkpt lat="55.575459" lon="8.352149">
|
|
<ele>11.628783</ele>
|
|
<time>2026-07-11T10:51:46.000Z</time>
|
|
</trkpt>
|
|
<trkpt lat="55.575491" lon="8.352069">
|
|
<ele>11.624280</ele>
|
|
<time>2026-07-11T10:51:47.000Z</time>
|
|
</trkpt>
|
|
<trkpt lat="55.575522" lon="8.351989">
|
|
<ele>11.619825</ele>
|
|
<time>2026-07-11T10:51:48.000Z</time>
|
|
</trkpt>
|
|
<trkpt lat="55.575554" lon="8.351910">
|
|
<ele>11.615360</ele>
|
|
<time>2026-07-11T10:51:49.000Z</time>
|
|
</trkpt>
|
|
<trkpt lat="55.575587" lon="8.351830">
|
|
<ele>11.610811</ele>
|
|
<time>2026-07-11T10:51:50.000Z</time>
|
|
</trkpt>
|
|
<trkpt lat="55.575619" lon="8.351751">
|
|
<ele>11.606346</ele>
|
|
<time>2026-07-11T10:51:51.000Z</time>
|
|
</trkpt>
|
|
<trkpt lat="55.575651" lon="8.351671">
|
|
<ele>11.601844</ele>
|
|
<time>2026-07-11T10:51:52.000Z</time>
|
|
</trkpt>
|
|
<trkpt lat="55.575684" lon="8.351592">
|
|
<ele>11.597332</ele>
|
|
<time>2026-07-11T10:51:53.000Z</time>
|
|
</trkpt>
|
|
<trkpt lat="55.575716" lon="8.351512">
|
|
<ele>11.592829</ele>
|
|
<time>2026-07-11T10:51:54.000Z</time>
|
|
</trkpt>
|
|
<trkpt lat="55.575748" lon="8.351431">
|
|
<ele>11.588290</ele>
|
|
<time>2026-07-11T10:51:55.000Z</time>
|
|
</trkpt>
|
|
<trkpt lat="55.575781" lon="8.351351">
|
|
<ele>11.583740</ele>
|
|
<time>2026-07-11T10:51:56.000Z</time>
|
|
</trkpt>
|
|
<trkpt lat="55.575814" lon="8.351271">
|
|
<ele>11.579191</ele>
|
|
<time>2026-07-11T10:51:57.000Z</time>
|
|
</trkpt>
|
|
<trkpt lat="55.575848" lon="8.351190">
|
|
<ele>11.574556</ele>
|
|
<time>2026-07-11T10:51:58.000Z</time>
|
|
</trkpt>
|
|
<trkpt lat="55.575880" lon="8.351109">
|
|
<ele>11.570017</ele>
|
|
<time>2026-07-11T10:51:59.000Z</time>
|
|
</trkpt>
|
|
<trkpt lat="55.575913" lon="8.351030">
|
|
<ele>11.565504</ele>
|
|
<time>2026-07-11T10:52:00.000Z</time>
|
|
</trkpt>
|
|
<trkpt lat="55.575947" lon="8.350951">
|
|
<ele>11.560943</ele>
|
|
<time>2026-07-11T10:52:01.000Z</time>
|
|
</trkpt>
|
|
<trkpt lat="55.575981" lon="8.350873">
|
|
<ele>11.556418</ele>
|
|
<time>2026-07-11T10:52:02.000Z</time>
|
|
</trkpt>
|
|
<trkpt lat="55.576014" lon="8.350795">
|
|
<ele>11.551943</ele>
|
|
<time>2026-07-11T10:52:03.000Z</time>
|
|
</trkpt>
|
|
<trkpt lat="55.576046" lon="8.350718">
|
|
<ele>11.547552</ele>
|
|
<time>2026-07-11T10:52:04.000Z</time>
|
|
</trkpt>
|
|
<trkpt lat="55.576079" lon="8.350642">
|
|
<ele>11.543150</ele>
|
|
<time>2026-07-11T10:52:05.000Z</time>
|
|
</trkpt>
|
|
<trkpt lat="55.576111" lon="8.350565">
|
|
<ele>11.538760</ele>
|
|
<time>2026-07-11T10:52:06.000Z</time>
|
|
</trkpt>
|
|
<trkpt lat="55.576145" lon="8.350485">
|
|
<ele>11.534162</ele>
|
|
<time>2026-07-11T10:52:07.000Z</time>
|
|
</trkpt>
|
|
<trkpt lat="55.576180" lon="8.350404">
|
|
<ele>11.529478</ele>
|
|
<time>2026-07-11T10:52:08.000Z</time>
|
|
</trkpt>
|
|
<trkpt lat="55.576212" lon="8.350324">
|
|
<ele>11.524976</ele>
|
|
<time>2026-07-11T10:52:09.000Z</time>
|
|
</trkpt>
|
|
<trkpt lat="55.576245" lon="8.350244">
|
|
<ele>11.520427</ele>
|
|
<time>2026-07-11T10:52:10.000Z</time>
|
|
</trkpt>
|
|
<trkpt lat="55.576277" lon="8.350163">
|
|
<ele>11.515887</ele>
|
|
<time>2026-07-11T10:52:11.000Z</time>
|
|
</trkpt>
|
|
<trkpt lat="55.576308" lon="8.350080">
|
|
<ele>11.511317</ele>
|
|
<time>2026-07-11T10:52:12.000Z</time>
|
|
</trkpt>
|
|
<trkpt lat="55.576340" lon="8.349997">
|
|
<ele>11.506702</ele>
|
|
<time>2026-07-11T10:52:13.000Z</time>
|
|
</trkpt>
|
|
<trkpt lat="55.576374" lon="8.349914">
|
|
<ele>11.501994</ele>
|
|
<time>2026-07-11T10:52:14.000Z</time>
|
|
</trkpt>
|
|
<trkpt lat="55.576408" lon="8.349834">
|
|
<ele>11.497396</ele>
|
|
<time>2026-07-11T10:52:15.000Z</time>
|
|
</trkpt>
|
|
<trkpt lat="55.576444" lon="8.349759">
|
|
<ele>11.492876</ele>
|
|
<time>2026-07-11T10:52:16.000Z</time>
|
|
</trkpt>
|
|
<trkpt lat="55.576486" lon="8.349690">
|
|
<ele>11.488218</ele>
|
|
<time>2026-07-11T10:52:17.000Z</time>
|
|
</trkpt>
|
|
<trkpt lat="55.576530" lon="8.349620">
|
|
<ele>11.480521</ele>
|
|
<time>2026-07-11T10:52:18.000Z</time>
|
|
</trkpt>
|
|
<trkpt lat="55.576570" lon="8.349546">
|
|
<ele>11.469502</ele>
|
|
<time>2026-07-11T10:52:19.000Z</time>
|
|
</trkpt>
|
|
<trkpt lat="55.576607" lon="8.349469">
|
|
<ele>11.458625</ele>
|
|
<time>2026-07-11T10:52:20.000Z</time>
|
|
</trkpt>
|
|
<trkpt lat="55.576638" lon="8.349391">
|
|
<ele>11.448363</ele>
|
|
<time>2026-07-11T10:52:21.000Z</time>
|
|
</trkpt>
|
|
<trkpt lat="55.576665" lon="8.349315">
|
|
<ele>11.438702</ele>
|
|
<time>2026-07-11T10:52:22.000Z</time>
|
|
</trkpt>
|
|
<trkpt lat="55.576691" lon="8.349240">
|
|
<ele>11.429233</ele>
|
|
<time>2026-07-11T10:52:23.000Z</time>
|
|
</trkpt>
|
|
<trkpt lat="55.576718" lon="8.349162">
|
|
<ele>11.419390</ele>
|
|
<time>2026-07-11T10:52:24.000Z</time>
|
|
</trkpt>
|
|
<trkpt lat="55.576743" lon="8.349080">
|
|
<ele>11.409362</ele>
|
|
<time>2026-07-11T10:52:25.000Z</time>
|
|
</trkpt>
|
|
<trkpt lat="55.576764" lon="8.348993">
|
|
<ele>11.399181</ele>
|
|
<time>2026-07-11T10:52:26.000Z</time>
|
|
</trkpt>
|
|
<trkpt lat="55.576781" lon="8.348904">
|
|
<ele>11.389070</ele>
|
|
<time>2026-07-11T10:52:27.000Z</time>
|
|
</trkpt>
|
|
<trkpt lat="55.576797" lon="8.348814">
|
|
<ele>11.378916</ele>
|
|
<time>2026-07-11T10:52:28.000Z</time>
|
|
</trkpt>
|
|
<trkpt lat="55.576810" lon="8.348728">
|
|
<ele>11.369335</ele>
|
|
<time>2026-07-11T10:52:29.000Z</time>
|
|
</trkpt>
|
|
<trkpt lat="55.576823" lon="8.348644">
|
|
<ele>11.359961</ele>
|
|
<time>2026-07-11T10:52:30.000Z</time>
|
|
</trkpt>
|
|
<trkpt lat="55.576842" lon="8.348562">
|
|
<ele>11.350423</ele>
|
|
<time>2026-07-11T10:52:31.000Z</time>
|
|
</trkpt>
|
|
<trkpt lat="55.576863" lon="8.348480">
|
|
<ele>11.340735</ele>
|
|
<time>2026-07-11T10:52:32.000Z</time>
|
|
</trkpt>
|
|
<trkpt lat="55.576882" lon="8.348400">
|
|
<ele>11.331395</ele>
|
|
<time>2026-07-11T10:52:33.000Z</time>
|
|
</trkpt>
|
|
<trkpt lat="55.576900" lon="8.348318">
|
|
<ele>11.321928</ele>
|
|
<time>2026-07-11T10:52:34.000Z</time>
|
|
</trkpt>
|
|
<trkpt lat="55.576920" lon="8.348232">
|
|
<ele>11.311919</ele>
|
|
<time>2026-07-11T10:52:35.000Z</time>
|
|
</trkpt>
|
|
<trkpt lat="55.576947" lon="8.348151">
|
|
<ele>11.301799</ele>
|
|
<time>2026-07-11T10:52:36.000Z</time>
|
|
</trkpt>
|
|
<trkpt lat="55.576975" lon="8.348073">
|
|
<ele>11.291854</ele>
|
|
<time>2026-07-11T10:52:37.000Z</time>
|
|
</trkpt>
|
|
<trkpt lat="55.577006" lon="8.347995">
|
|
<ele>11.281592</ele>
|
|
<time>2026-07-11T10:52:38.000Z</time>
|
|
</trkpt>
|
|
<trkpt lat="55.577033" lon="8.347913">
|
|
<ele>11.271379</ele>
|
|
<time>2026-07-11T10:52:39.000Z</time>
|
|
</trkpt>
|
|
<trkpt lat="55.577054" lon="8.347829">
|
|
<ele>11.261494</ele>
|
|
<time>2026-07-11T10:52:40.000Z</time>
|
|
</trkpt>
|
|
<trkpt lat="55.577073" lon="8.347740">
|
|
<ele>11.251255</ele>
|
|
<time>2026-07-11T10:52:41.000Z</time>
|
|
</trkpt>
|
|
<trkpt lat="55.577096" lon="8.347647">
|
|
<ele>11.240330</ele>
|
|
<time>2026-07-11T10:52:42.000Z</time>
|
|
</trkpt>
|
|
<trkpt lat="55.577121" lon="8.347558">
|
|
<ele>11.229634</ele>
|
|
<time>2026-07-11T10:52:43.000Z</time>
|
|
</trkpt>
|
|
<trkpt lat="55.577149" lon="8.347472">
|
|
<ele>11.218952</ele>
|
|
<time>2026-07-11T10:52:44.000Z</time>
|
|
</trkpt>
|
|
<trkpt lat="55.577188" lon="8.347387">
|
|
<ele>11.207170</ele>
|
|
<time>2026-07-11T10:52:45.000Z</time>
|
|
</trkpt>
|
|
<trkpt lat="55.577230" lon="8.347300">
|
|
<ele>11.194857</ele>
|
|
<time>2026-07-11T10:52:46.000Z</time>
|
|
</trkpt>
|
|
<trkpt lat="55.577270" lon="8.347215">
|
|
<ele>11.182953</ele>
|
|
<time>2026-07-11T10:52:47.000Z</time>
|
|
</trkpt>
|
|
<trkpt lat="55.577314" lon="8.347132">
|
|
<ele>11.170707</ele>
|
|
<time>2026-07-11T10:52:48.000Z</time>
|
|
</trkpt>
|
|
<trkpt lat="55.577360" lon="8.347048">
|
|
<ele>11.158120</ele>
|
|
<time>2026-07-11T10:52:49.000Z</time>
|
|
</trkpt>
|
|
<trkpt lat="55.577405" lon="8.346968">
|
|
<ele>11.145974</ele>
|
|
<time>2026-07-11T10:52:50.000Z</time>
|
|
</trkpt>
|
|
<trkpt lat="55.577450" lon="8.346887">
|
|
<ele>11.115937</ele>
|
|
<time>2026-07-11T10:52:51.000Z</time>
|
|
</trkpt>
|
|
<trkpt lat="55.577495" lon="8.346799">
|
|
<ele>11.078877</ele>
|
|
<time>2026-07-11T10:52:52.000Z</time>
|
|
</trkpt>
|
|
<trkpt lat="55.577539" lon="8.346708">
|
|
<ele>11.041478</ele>
|
|
<time>2026-07-11T10:52:53.000Z</time>
|
|
</trkpt>
|
|
<trkpt lat="55.577583" lon="8.346621">
|
|
<ele>11.005020</ele>
|
|
<time>2026-07-11T10:52:54.000Z</time>
|
|
</trkpt>
|
|
<trkpt lat="55.577625" lon="8.346532">
|
|
<ele>10.968811</ele>
|
|
<time>2026-07-11T10:52:55.000Z</time>
|
|
</trkpt>
|
|
<trkpt lat="55.577665" lon="8.346443">
|
|
<ele>10.933301</ele>
|
|
<time>2026-07-11T10:52:56.000Z</time>
|
|
</trkpt>
|
|
<trkpt lat="55.577705" lon="8.346357">
|
|
<ele>10.898519</ele>
|
|
<time>2026-07-11T10:52:57.000Z</time>
|
|
</trkpt>
|
|
<trkpt lat="55.577747" lon="8.346272">
|
|
<ele>10.863261</ele>
|
|
<time>2026-07-11T10:52:58.000Z</time>
|
|
</trkpt>
|
|
<trkpt lat="55.577789" lon="8.346189">
|
|
<ele>10.828471</ele>
|
|
<time>2026-07-11T10:52:59.000Z</time>
|
|
</trkpt>
|
|
<trkpt lat="55.577833" lon="8.346110">
|
|
<ele>10.793834</ele>
|
|
<time>2026-07-11T10:53:00.000Z</time>
|
|
</trkpt>
|
|
<trkpt lat="55.577878" lon="8.346032">
|
|
<ele>10.759028</ele>
|
|
<time>2026-07-11T10:53:01.000Z</time>
|
|
</trkpt>
|
|
<trkpt lat="55.577924" lon="8.345951">
|
|
<ele>10.723169</ele>
|
|
<time>2026-07-11T10:53:02.000Z</time>
|
|
</trkpt>
|
|
<trkpt lat="55.577970" lon="8.345869">
|
|
<ele>10.687090</ele>
|
|
<time>2026-07-11T10:53:03.000Z</time>
|
|
</trkpt>
|
|
<trkpt lat="55.578016" lon="8.345783">
|
|
<ele>10.650114</ele>
|
|
<time>2026-07-11T10:53:04.000Z</time>
|
|
</trkpt>
|
|
<trkpt lat="55.578060" lon="8.345690">
|
|
<ele>10.612238</ele>
|
|
<time>2026-07-11T10:53:05.000Z</time>
|
|
</trkpt>
|
|
<trkpt lat="55.578100" lon="8.345596">
|
|
<ele>10.575493</ele>
|
|
<time>2026-07-11T10:53:06.000Z</time>
|
|
</trkpt>
|
|
<trkpt lat="55.578136" lon="8.345499">
|
|
<ele>10.539254</ele>
|
|
<time>2026-07-11T10:53:07.000Z</time>
|
|
</trkpt>
|
|
<trkpt lat="55.578174" lon="8.345401">
|
|
<ele>10.502139</ele>
|
|
<time>2026-07-11T10:53:08.000Z</time>
|
|
</trkpt>
|
|
<trkpt lat="55.578217" lon="8.345312">
|
|
<ele>10.465575</ele>
|
|
<time>2026-07-11T10:53:09.000Z</time>
|
|
</trkpt>
|
|
<trkpt lat="55.578259" lon="8.345223">
|
|
<ele>10.429367</ele>
|
|
<time>2026-07-11T10:53:10.000Z</time>
|
|
</trkpt>
|
|
<trkpt lat="55.578300" lon="8.345131">
|
|
<ele>10.392779</ele>
|
|
<time>2026-07-11T10:53:11.000Z</time>
|
|
</trkpt>
|
|
<trkpt lat="55.578340" lon="8.345037">
|
|
<ele>10.356034</ele>
|
|
<time>2026-07-11T10:53:12.000Z</time>
|
|
</trkpt>
|
|
<trkpt lat="55.578379" lon="8.344941">
|
|
<ele>10.319114</ele>
|
|
<time>2026-07-11T10:53:13.000Z</time>
|
|
</trkpt>
|
|
<trkpt lat="55.578415" lon="8.344842">
|
|
<ele>10.282350</ele>
|
|
<time>2026-07-11T10:53:14.000Z</time>
|
|
</trkpt>
|
|
<trkpt lat="55.578453" lon="8.344742">
|
|
<ele>10.244719</ele>
|
|
<time>2026-07-11T10:53:15.000Z</time>
|
|
</trkpt>
|
|
<trkpt lat="55.578493" lon="8.344644">
|
|
<ele>10.206969</ele>
|
|
<time>2026-07-11T10:53:16.000Z</time>
|
|
</trkpt>
|
|
<trkpt lat="55.578531" lon="8.344548">
|
|
<ele>10.170368</ele>
|
|
<time>2026-07-11T10:53:17.000Z</time>
|
|
</trkpt>
|
|
<trkpt lat="55.578571" lon="8.344452">
|
|
<ele>10.137291</ele>
|
|
<time>2026-07-11T10:53:18.000Z</time>
|
|
</trkpt>
|
|
<trkpt lat="55.578611" lon="8.344355">
|
|
<ele>10.109397</ele>
|
|
<time>2026-07-11T10:53:19.000Z</time>
|
|
</trkpt>
|
|
<trkpt lat="55.578651" lon="8.344259">
|
|
<ele>10.081691</ele>
|
|
<time>2026-07-11T10:53:20.000Z</time>
|
|
</trkpt>
|
|
<trkpt lat="55.578691" lon="8.344163">
|
|
<ele>10.053984</ele>
|
|
<time>2026-07-11T10:53:21.000Z</time>
|
|
</trkpt>
|
|
<trkpt lat="55.578728" lon="8.344068">
|
|
<ele>10.027182</ele>
|
|
<time>2026-07-11T10:53:22.000Z</time>
|
|
</trkpt>
|
|
<trkpt lat="55.578764" lon="8.343977">
|
|
<ele>10.001378</ele>
|
|
<time>2026-07-11T10:53:23.000Z</time>
|
|
</trkpt>
|
|
<trkpt lat="55.578800" lon="8.343885">
|
|
<ele>9.975383</ele>
|
|
<time>2026-07-11T10:53:24.000Z</time>
|
|
</trkpt>
|
|
<trkpt lat="55.578836" lon="8.343794">
|
|
<ele>9.949579</ele>
|
|
<time>2026-07-11T10:53:25.000Z</time>
|
|
</trkpt>
|
|
<trkpt lat="55.578873" lon="8.343703">
|
|
<ele>9.923537</ele>
|
|
<time>2026-07-11T10:53:26.000Z</time>
|
|
</trkpt>
|
|
<trkpt lat="55.578909" lon="8.343611">
|
|
<ele>9.897543</ele>
|
|
<time>2026-07-11T10:53:27.000Z</time>
|
|
</trkpt>
|
|
<trkpt lat="55.578945" lon="8.343519">
|
|
<ele>9.871548</ele>
|
|
<time>2026-07-11T10:53:28.000Z</time>
|
|
</trkpt>
|
|
<trkpt lat="55.578981" lon="8.343427">
|
|
<ele>9.845554</ele>
|
|
<time>2026-07-11T10:53:29.000Z</time>
|
|
</trkpt>
|
|
<trkpt lat="55.579019" lon="8.343336">
|
|
<ele>9.819270</ele>
|
|
<time>2026-07-11T10:53:30.000Z</time>
|
|
</trkpt>
|
|
<trkpt lat="55.579058" lon="8.343244">
|
|
<ele>9.792554</ele>
|
|
<time>2026-07-11T10:53:31.000Z</time>
|
|
</trkpt>
|
|
<trkpt lat="55.579096" lon="8.343154">
|
|
<ele>9.766457</ele>
|
|
<time>2026-07-11T10:53:32.000Z</time>
|
|
</trkpt>
|
|
<trkpt lat="55.579136" lon="8.343068">
|
|
<ele>9.740584</ele>
|
|
<time>2026-07-11T10:53:33.000Z</time>
|
|
</trkpt>
|
|
<trkpt lat="55.579176" lon="8.342986">
|
|
<ele>9.715421</ele>
|
|
<time>2026-07-11T10:53:34.000Z</time>
|
|
</trkpt>
|
|
<trkpt lat="55.579212" lon="8.342901">
|
|
<ele>9.690746</ele>
|
|
<time>2026-07-11T10:53:35.000Z</time>
|
|
</trkpt>
|
|
<trkpt lat="55.579247" lon="8.342812">
|
|
<ele>9.665559</ele>
|
|
<time>2026-07-11T10:53:36.000Z</time>
|
|
</trkpt>
|
|
<trkpt lat="55.579281" lon="8.342721">
|
|
<ele>9.640217</ele>
|
|
<time>2026-07-11T10:53:37.000Z</time>
|
|
</trkpt>
|
|
<trkpt lat="55.579315" lon="8.342630">
|
|
<ele>9.614876</ele>
|
|
<time>2026-07-11T10:53:38.000Z</time>
|
|
</trkpt>
|
|
<trkpt lat="55.579351" lon="8.342538">
|
|
<ele>9.588881</ele>
|
|
<time>2026-07-11T10:53:39.000Z</time>
|
|
</trkpt>
|
|
<trkpt lat="55.579388" lon="8.342449">
|
|
<ele>9.563215</ele>
|
|
<time>2026-07-11T10:53:40.000Z</time>
|
|
</trkpt>
|
|
<trkpt lat="55.579424" lon="8.342358">
|
|
<ele>9.537412</ele>
|
|
<time>2026-07-11T10:53:41.000Z</time>
|
|
</trkpt>
|
|
<trkpt lat="55.579462" lon="8.342265">
|
|
<ele>9.510753</ele>
|
|
<time>2026-07-11T10:53:42.000Z</time>
|
|
</trkpt>
|
|
<trkpt lat="55.579499" lon="8.342173">
|
|
<ele>9.484522</ele>
|
|
<time>2026-07-11T10:53:43.000Z</time>
|
|
</trkpt>
|
|
<trkpt lat="55.579533" lon="8.342082">
|
|
<ele>9.459181</ele>
|
|
<time>2026-07-11T10:53:44.000Z</time>
|
|
</trkpt>
|
|
<trkpt lat="55.579569" lon="8.341995">
|
|
<ele>9.434133</ele>
|
|
<time>2026-07-11T10:53:45.000Z</time>
|
|
</trkpt>
|
|
<trkpt lat="55.579607" lon="8.341910">
|
|
<ele>9.410137</ele>
|
|
<time>2026-07-11T10:53:46.000Z</time>
|
|
</trkpt>
|
|
<trkpt lat="55.579642" lon="8.341823">
|
|
<ele>9.409154</ele>
|
|
<time>2026-07-11T10:53:47.000Z</time>
|
|
</trkpt>
|
|
<trkpt lat="55.579674" lon="8.341731">
|
|
<ele>9.408159</ele>
|
|
<time>2026-07-11T10:53:48.000Z</time>
|
|
</trkpt>
|
|
<trkpt lat="55.579710" lon="8.341643">
|
|
<ele>9.407159</ele>
|
|
<time>2026-07-11T10:53:49.000Z</time>
|
|
</trkpt>
|
|
<trkpt lat="55.579748" lon="8.341557">
|
|
<ele>9.406154</ele>
|
|
<time>2026-07-11T10:53:50.000Z</time>
|
|
</trkpt>
|
|
<trkpt lat="55.579784" lon="8.341468">
|
|
<ele>9.405146</ele>
|
|
<time>2026-07-11T10:53:51.000Z</time>
|
|
</trkpt>
|
|
<trkpt lat="55.579819" lon="8.341376">
|
|
<ele>9.404125</ele>
|
|
<time>2026-07-11T10:53:52.000Z</time>
|
|
</trkpt>
|
|
<trkpt lat="55.579855" lon="8.341285">
|
|
<ele>9.403103</ele>
|
|
<time>2026-07-11T10:53:53.000Z</time>
|
|
</trkpt>
|
|
<trkpt lat="55.579893" lon="8.341195">
|
|
<ele>9.402068</ele>
|
|
<time>2026-07-11T10:53:54.000Z</time>
|
|
</trkpt>
|
|
<trkpt lat="55.579931" lon="8.341103">
|
|
<ele>9.401019</ele>
|
|
<time>2026-07-11T10:53:55.000Z</time>
|
|
</trkpt>
|
|
<trkpt lat="55.579971" lon="8.341010">
|
|
<ele>9.399943</ele>
|
|
<time>2026-07-11T10:53:56.000Z</time>
|
|
</trkpt>
|
|
<trkpt lat="55.580011" lon="8.340916">
|
|
<ele>9.398860</ele>
|
|
<time>2026-07-11T10:53:57.000Z</time>
|
|
</trkpt>
|
|
<trkpt lat="55.580049" lon="8.340822">
|
|
<ele>9.397796</ele>
|
|
<time>2026-07-11T10:53:58.000Z</time>
|
|
</trkpt>
|
|
<trkpt lat="55.580088" lon="8.340729">
|
|
<ele>9.396730</ele>
|
|
<time>2026-07-11T10:53:59.000Z</time>
|
|
</trkpt>
|
|
<trkpt lat="55.580126" lon="8.340636">
|
|
<ele>9.395673</ele>
|
|
<time>2026-07-11T10:54:00.000Z</time>
|
|
</trkpt>
|
|
<trkpt lat="55.580164" lon="8.340543">
|
|
<ele>9.394617</ele>
|
|
<time>2026-07-11T10:54:01.000Z</time>
|
|
</trkpt>
|
|
<trkpt lat="55.580200" lon="8.340452">
|
|
<ele>9.393594</ele>
|
|
<time>2026-07-11T10:54:02.000Z</time>
|
|
</trkpt>
|
|
<trkpt lat="55.580236" lon="8.340362">
|
|
<ele>9.392579</ele>
|
|
<time>2026-07-11T10:54:03.000Z</time>
|
|
</trkpt>
|
|
<trkpt lat="55.580276" lon="8.340270">
|
|
<ele>9.391510</ele>
|
|
<time>2026-07-11T10:54:04.000Z</time>
|
|
</trkpt>
|
|
<trkpt lat="55.580317" lon="8.340176">
|
|
<ele>9.390417</ele>
|
|
<time>2026-07-11T10:54:05.000Z</time>
|
|
</trkpt>
|
|
<trkpt lat="55.580356" lon="8.340081">
|
|
<ele>9.389336</ele>
|
|
<time>2026-07-11T10:54:06.000Z</time>
|
|
</trkpt>
|
|
<trkpt lat="55.580397" lon="8.339986">
|
|
<ele>9.388235</ele>
|
|
<time>2026-07-11T10:54:07.000Z</time>
|
|
</trkpt>
|
|
<trkpt lat="55.580435" lon="8.339888">
|
|
<ele>9.387141</ele>
|
|
<time>2026-07-11T10:54:08.000Z</time>
|
|
</trkpt>
|
|
<trkpt lat="55.580471" lon="8.339788">
|
|
<ele>9.386050</ele>
|
|
<time>2026-07-11T10:54:09.000Z</time>
|
|
</trkpt>
|
|
<trkpt lat="55.580507" lon="8.339689">
|
|
<ele>9.384966</ele>
|
|
<time>2026-07-11T10:54:10.000Z</time>
|
|
</trkpt>
|
|
<trkpt lat="55.580545" lon="8.339591">
|
|
<ele>9.383872</ele>
|
|
<time>2026-07-11T10:54:11.000Z</time>
|
|
</trkpt>
|
|
<trkpt lat="55.580584" lon="8.339491">
|
|
<ele>9.382753</ele>
|
|
<time>2026-07-11T10:54:12.000Z</time>
|
|
</trkpt>
|
|
<trkpt lat="55.580623" lon="8.339398">
|
|
<ele>9.381687</ele>
|
|
<time>2026-07-11T10:54:13.000Z</time>
|
|
</trkpt>
|
|
<trkpt lat="55.580664" lon="8.339306">
|
|
<ele>9.375053</ele>
|
|
<time>2026-07-11T10:54:14.000Z</time>
|
|
</trkpt>
|
|
<trkpt lat="55.580702" lon="8.339210">
|
|
<ele>9.352573</ele>
|
|
<time>2026-07-11T10:54:15.000Z</time>
|
|
</trkpt>
|
|
<trkpt lat="55.580740" lon="8.339115">
|
|
<ele>9.330249</ele>
|
|
<time>2026-07-11T10:54:16.000Z</time>
|
|
</trkpt>
|
|
<trkpt lat="55.580777" lon="8.339021">
|
|
<ele>9.308277</ele>
|
|
<time>2026-07-11T10:54:17.000Z</time>
|
|
</trkpt>
|
|
<trkpt lat="55.580812" lon="8.338926">
|
|
<ele>9.286526</ele>
|
|
<time>2026-07-11T10:54:18.000Z</time>
|
|
</trkpt>
|
|
<trkpt lat="55.580851" lon="8.338832">
|
|
<ele>9.264159</ele>
|
|
<time>2026-07-11T10:54:19.000Z</time>
|
|
</trkpt>
|
|
<trkpt lat="55.580889" lon="8.338741">
|
|
<ele>9.242457</ele>
|
|
<time>2026-07-11T10:54:20.000Z</time>
|
|
</trkpt>
|
|
<trkpt lat="55.580925" lon="8.338651">
|
|
<ele>9.221309</ele>
|
|
<time>2026-07-11T10:54:21.000Z</time>
|
|
</trkpt>
|
|
<trkpt lat="55.580960" lon="8.338563">
|
|
<ele>9.200669</ele>
|
|
<time>2026-07-11T10:54:22.000Z</time>
|
|
</trkpt>
|
|
<trkpt lat="55.580996" lon="8.338474">
|
|
<ele>9.179676</ele>
|
|
<time>2026-07-11T10:54:23.000Z</time>
|
|
</trkpt>
|
|
<trkpt lat="55.581032" lon="8.338380">
|
|
<ele>9.157897</ele>
|
|
<time>2026-07-11T10:54:24.000Z</time>
|
|
</trkpt>
|
|
<trkpt lat="55.581068" lon="8.338287">
|
|
<ele>9.136276</ele>
|
|
<time>2026-07-11T10:54:25.000Z</time>
|
|
</trkpt>
|
|
<trkpt lat="55.581099" lon="8.338183">
|
|
<ele>9.113723</ele>
|
|
<time>2026-07-11T10:54:26.000Z</time>
|
|
</trkpt>
|
|
<trkpt lat="55.581126" lon="8.338065">
|
|
<ele>9.089305</ele>
|
|
<time>2026-07-11T10:54:27.000Z</time>
|
|
</trkpt>
|
|
<trkpt lat="55.581163" lon="8.337959">
|
|
<ele>9.065408</ele>
|
|
<time>2026-07-11T10:54:28.000Z</time>
|
|
</trkpt>
|
|
<trkpt lat="55.581205" lon="8.337857">
|
|
<ele>9.041202</ele>
|
|
<time>2026-07-11T10:54:29.000Z</time>
|
|
</trkpt>
|
|
<trkpt lat="55.581245" lon="8.337756">
|
|
<ele>9.017547</ele>
|
|
<time>2026-07-11T10:54:30.000Z</time>
|
|
</trkpt>
|
|
<trkpt lat="55.581287" lon="8.337658">
|
|
<ele>8.993957</ele>
|
|
<time>2026-07-11T10:54:31.000Z</time>
|
|
</trkpt>
|
|
<trkpt lat="55.581331" lon="8.337562">
|
|
<ele>8.970250</ele>
|
|
<time>2026-07-11T10:54:32.000Z</time>
|
|
</trkpt>
|
|
<trkpt lat="55.581373" lon="8.337467">
|
|
<ele>8.947116</ele>
|
|
<time>2026-07-11T10:54:33.000Z</time>
|
|
</trkpt>
|
|
<trkpt lat="55.581411" lon="8.337371">
|
|
<ele>8.924636</ele>
|
|
<time>2026-07-11T10:54:34.000Z</time>
|
|
</trkpt>
|
|
<trkpt lat="55.581450" lon="8.337275">
|
|
<ele>8.901959</ele>
|
|
<time>2026-07-11T10:54:35.000Z</time>
|
|
</trkpt>
|
|
<trkpt lat="55.581488" lon="8.337181">
|
|
<ele>8.879792</ele>
|
|
<time>2026-07-11T10:54:36.000Z</time>
|
|
</trkpt>
|
|
<trkpt lat="55.581527" lon="8.337088">
|
|
<ele>8.857580</ele>
|
|
<time>2026-07-11T10:54:37.000Z</time>
|
|
</trkpt>
|
|
<trkpt lat="55.581569" lon="8.336996">
|
|
<ele>8.834896</ele>
|
|
<time>2026-07-11T10:54:38.000Z</time>
|
|
</trkpt>
|
|
<trkpt lat="55.581611" lon="8.336903">
|
|
<ele>8.812063</ele>
|
|
<time>2026-07-11T10:54:39.000Z</time>
|
|
</trkpt>
|
|
<trkpt lat="55.581653" lon="8.336812">
|
|
<ele>8.789528</ele>
|
|
<time>2026-07-11T10:54:40.000Z</time>
|
|
</trkpt>
|
|
<trkpt lat="55.581693" lon="8.336718">
|
|
<ele>8.771134</ele>
|
|
<time>2026-07-11T10:54:41.000Z</time>
|
|
</trkpt>
|
|
<trkpt lat="55.581733" lon="8.336621">
|
|
<ele>8.775121</ele>
|
|
<time>2026-07-11T10:54:42.000Z</time>
|
|
</trkpt>
|
|
<trkpt lat="55.581775" lon="8.336528">
|
|
<ele>8.779074</ele>
|
|
<time>2026-07-11T10:54:43.000Z</time>
|
|
</trkpt>
|
|
<trkpt lat="55.581816" lon="8.336436">
|
|
<ele>8.782965</ele>
|
|
<time>2026-07-11T10:54:44.000Z</time>
|
|
</trkpt>
|
|
<trkpt lat="55.581856" lon="8.336346">
|
|
<ele>8.786767</ele>
|
|
<time>2026-07-11T10:54:45.000Z</time>
|
|
</trkpt>
|
|
<trkpt lat="55.581896" lon="8.336255">
|
|
<ele>8.790595</ele>
|
|
<time>2026-07-11T10:54:46.000Z</time>
|
|
</trkpt>
|
|
<trkpt lat="55.581934" lon="8.336163">
|
|
<ele>8.794379</ele>
|
|
<time>2026-07-11T10:54:47.000Z</time>
|
|
</trkpt>
|
|
<trkpt lat="55.581972" lon="8.336072">
|
|
<ele>8.798136</ele>
|
|
<time>2026-07-11T10:54:48.000Z</time>
|
|
</trkpt>
|
|
<trkpt lat="55.582012" lon="8.335979">
|
|
<ele>8.802016</ele>
|
|
<time>2026-07-11T10:54:49.000Z</time>
|
|
</trkpt>
|
|
<trkpt lat="55.582052" lon="8.335887">
|
|
<ele>8.805871</ele>
|
|
<time>2026-07-11T10:54:50.000Z</time>
|
|
</trkpt>
|
|
<trkpt lat="55.582090" lon="8.335794">
|
|
<ele>8.809681</ele>
|
|
<time>2026-07-11T10:54:51.000Z</time>
|
|
</trkpt>
|
|
<trkpt lat="55.582130" lon="8.335704">
|
|
<ele>8.813483</ele>
|
|
<time>2026-07-11T10:54:52.000Z</time>
|
|
</trkpt>
|
|
<trkpt lat="55.582170" lon="8.335613">
|
|
<ele>8.817311</ele>
|
|
<time>2026-07-11T10:54:53.000Z</time>
|
|
</trkpt>
|
|
<trkpt lat="55.582210" lon="8.335521">
|
|
<ele>8.821166</ele>
|
|
<time>2026-07-11T10:54:54.000Z</time>
|
|
</trkpt>
|
|
<trkpt lat="55.582250" lon="8.335429">
|
|
<ele>8.825020</ele>
|
|
<time>2026-07-11T10:54:55.000Z</time>
|
|
</trkpt>
|
|
<trkpt lat="55.582289" lon="8.335337">
|
|
<ele>8.828839</ele>
|
|
<time>2026-07-11T10:54:56.000Z</time>
|
|
</trkpt>
|
|
<trkpt lat="55.582327" lon="8.335246">
|
|
<ele>8.832596</ele>
|
|
<time>2026-07-11T10:54:57.000Z</time>
|
|
</trkpt>
|
|
<trkpt lat="55.582363" lon="8.335157">
|
|
<ele>8.836230</ele>
|
|
<time>2026-07-11T10:54:58.000Z</time>
|
|
</trkpt>
|
|
<trkpt lat="55.582399" lon="8.335066">
|
|
<ele>8.839918</ele>
|
|
<time>2026-07-11T10:54:59.000Z</time>
|
|
</trkpt>
|
|
<trkpt lat="55.582438" lon="8.334976">
|
|
<ele>8.843684</ele>
|
|
<time>2026-07-11T10:55:00.000Z</time>
|
|
</trkpt>
|
|
<trkpt lat="55.582476" lon="8.334888">
|
|
<ele>8.847362</ele>
|
|
<time>2026-07-11T10:55:01.000Z</time>
|
|
</trkpt>
|
|
<trkpt lat="55.582512" lon="8.334801">
|
|
<ele>8.850942</ele>
|
|
<time>2026-07-11T10:55:02.000Z</time>
|
|
</trkpt>
|
|
<trkpt lat="55.582548" lon="8.334711">
|
|
<ele>8.854603</ele>
|
|
<time>2026-07-11T10:55:03.000Z</time>
|
|
</trkpt>
|
|
<trkpt lat="55.582586" lon="8.334620">
|
|
<ele>8.858360</ele>
|
|
<time>2026-07-11T10:55:04.000Z</time>
|
|
</trkpt>
|
|
<trkpt lat="55.582626" lon="8.334531">
|
|
<ele>8.862136</ele>
|
|
<time>2026-07-11T10:55:05.000Z</time>
|
|
</trkpt>
|
|
<trkpt lat="55.582665" lon="8.334440">
|
|
<ele>8.865929</ele>
|
|
<time>2026-07-11T10:55:06.000Z</time>
|
|
</trkpt>
|
|
<trkpt lat="55.582701" lon="8.334349">
|
|
<ele>8.869617</ele>
|
|
<time>2026-07-11T10:55:07.000Z</time>
|
|
</trkpt>
|
|
<trkpt lat="55.582739" lon="8.334260">
|
|
<ele>8.873321</ele>
|
|
<time>2026-07-11T10:55:08.000Z</time>
|
|
</trkpt>
|
|
<trkpt lat="55.582777" lon="8.334172">
|
|
<ele>8.880423</ele>
|
|
<time>2026-07-11T10:55:09.000Z</time>
|
|
</trkpt>
|
|
<trkpt lat="55.582815" lon="8.334085">
|
|
<ele>8.899518</ele>
|
|
<time>2026-07-11T10:55:10.000Z</time>
|
|
</trkpt>
|
|
<trkpt lat="55.582851" lon="8.333996">
|
|
<ele>8.918525</ele>
|
|
<time>2026-07-11T10:55:11.000Z</time>
|
|
</trkpt>
|
|
<trkpt lat="55.582886" lon="8.333907">
|
|
<ele>8.937355</ele>
|
|
<time>2026-07-11T10:55:12.000Z</time>
|
|
</trkpt>
|
|
<trkpt lat="55.582922" lon="8.333819">
|
|
<ele>8.956221</ele>
|
|
<time>2026-07-11T10:55:13.000Z</time>
|
|
</trkpt>
|
|
<trkpt lat="55.582960" lon="8.333731">
|
|
<ele>8.975454</ele>
|
|
<time>2026-07-11T10:55:14.000Z</time>
|
|
</trkpt>
|
|
<trkpt lat="55.582996" lon="8.333644">
|
|
<ele>8.994180</ele>
|
|
<time>2026-07-11T10:55:15.000Z</time>
|
|
</trkpt>
|
|
<trkpt lat="55.583033" lon="8.333557">
|
|
<ele>9.013089</ele>
|
|
<time>2026-07-11T10:55:16.000Z</time>
|
|
</trkpt>
|
|
<trkpt lat="55.583069" lon="8.333468">
|
|
<ele>9.032096</ele>
|
|
<time>2026-07-11T10:55:17.000Z</time>
|
|
</trkpt>
|
|
<trkpt lat="55.583104" lon="8.333380">
|
|
<ele>9.050783</ele>
|
|
<time>2026-07-11T10:55:18.000Z</time>
|
|
</trkpt>
|
|
<trkpt lat="55.583138" lon="8.333293">
|
|
<ele>9.069153</ele>
|
|
<time>2026-07-11T10:55:19.000Z</time>
|
|
</trkpt>
|
|
<trkpt lat="55.583173" lon="8.333209">
|
|
<ele>9.087277</ele>
|
|
<time>2026-07-11T10:55:20.000Z</time>
|
|
</trkpt>
|
|
<trkpt lat="55.583210" lon="8.333125">
|
|
<ele>9.105772</ele>
|
|
<time>2026-07-11T10:55:21.000Z</time>
|
|
</trkpt>
|
|
<trkpt lat="55.583244" lon="8.333040">
|
|
<ele>9.123856</ele>
|
|
<time>2026-07-11T10:55:22.000Z</time>
|
|
</trkpt>
|
|
<trkpt lat="55.583277" lon="8.332957">
|
|
<ele>9.141480</ele>
|
|
<time>2026-07-11T10:55:23.000Z</time>
|
|
</trkpt>
|
|
<trkpt lat="55.583309" lon="8.332875">
|
|
<ele>9.158786</ele>
|
|
<time>2026-07-11T10:55:24.000Z</time>
|
|
</trkpt>
|
|
<trkpt lat="55.583344" lon="8.332793">
|
|
<ele>9.176631</ele>
|
|
<time>2026-07-11T10:55:25.000Z</time>
|
|
</trkpt>
|
|
<trkpt lat="55.583376" lon="8.332710">
|
|
<ele>9.194080</ele>
|
|
<time>2026-07-11T10:55:26.000Z</time>
|
|
</trkpt>
|
|
<trkpt lat="55.583408" lon="8.332630">
|
|
<ele>9.211100</ele>
|
|
<time>2026-07-11T10:55:27.000Z</time>
|
|
</trkpt>
|
|
<trkpt lat="55.583442" lon="8.332550">
|
|
<ele>9.228483</ele>
|
|
<time>2026-07-11T10:55:28.000Z</time>
|
|
</trkpt>
|
|
<trkpt lat="55.583476" lon="8.332469">
|
|
<ele>9.246006</ele>
|
|
<time>2026-07-11T10:55:29.000Z</time>
|
|
</trkpt>
|
|
<trkpt lat="55.583508" lon="8.332389">
|
|
<ele>9.263026</ele>
|
|
<time>2026-07-11T10:55:30.000Z</time>
|
|
</trkpt>
|
|
<trkpt lat="55.583542" lon="8.332309">
|
|
<ele>9.280409</ele>
|
|
<time>2026-07-11T10:55:31.000Z</time>
|
|
</trkpt>
|
|
<trkpt lat="55.583576" lon="8.332229">
|
|
<ele>9.297792</ele>
|
|
<time>2026-07-11T10:55:32.000Z</time>
|
|
</trkpt>
|
|
<trkpt lat="55.583611" lon="8.332150">
|
|
<ele>9.315225</ele>
|
|
<time>2026-07-11T10:55:33.000Z</time>
|
|
</trkpt>
|
|
<trkpt lat="55.583643" lon="8.332071">
|
|
<ele>9.332104</ele>
|
|
<time>2026-07-11T10:55:34.000Z</time>
|
|
</trkpt>
|
|
<trkpt lat="55.583676" lon="8.331990">
|
|
<ele>9.349445</ele>
|
|
<time>2026-07-11T10:55:35.000Z</time>
|
|
</trkpt>
|
|
<trkpt lat="55.583710" lon="8.331910">
|
|
<ele>9.366828</ele>
|
|
<time>2026-07-11T10:55:36.000Z</time>
|
|
</trkpt>
|
|
<trkpt lat="55.583744" lon="8.331830">
|
|
<ele>9.384211</ele>
|
|
<time>2026-07-11T10:55:37.000Z</time>
|
|
</trkpt>
|
|
<trkpt lat="55.583779" lon="8.331750">
|
|
<ele>9.401780</ele>
|
|
<time>2026-07-11T10:55:38.000Z</time>
|
|
</trkpt>
|
|
<trkpt lat="55.583813" lon="8.331672">
|
|
<ele>9.418887</ele>
|
|
<time>2026-07-11T10:55:39.000Z</time>
|
|
</trkpt>
|
|
<trkpt lat="55.583845" lon="8.331595">
|
|
<ele>9.412866</ele>
|
|
<time>2026-07-11T10:55:40.000Z</time>
|
|
</trkpt>
|
|
<trkpt lat="55.583877" lon="8.331517">
|
|
<ele>9.372531</ele>
|
|
<time>2026-07-11T10:55:41.000Z</time>
|
|
</trkpt>
|
|
<trkpt lat="55.583912" lon="8.331435">
|
|
<ele>9.329529</ele>
|
|
<time>2026-07-11T10:55:42.000Z</time>
|
|
</trkpt>
|
|
<trkpt lat="55.583945" lon="8.331354">
|
|
<ele>9.287743</ele>
|
|
<time>2026-07-11T10:55:43.000Z</time>
|
|
</trkpt>
|
|
<trkpt lat="55.583977" lon="8.331275">
|
|
<ele>9.247068</ele>
|
|
<time>2026-07-11T10:55:44.000Z</time>
|
|
</trkpt>
|
|
<trkpt lat="55.584011" lon="8.331199">
|
|
<ele>9.206506</ele>
|
|
<time>2026-07-11T10:55:45.000Z</time>
|
|
</trkpt>
|
|
<trkpt lat="55.584044" lon="8.331124">
|
|
<ele>9.166729</ele>
|
|
<time>2026-07-11T10:55:46.000Z</time>
|
|
</trkpt>
|
|
<trkpt lat="55.584074" lon="8.331047">
|
|
<ele>9.127592</ele>
|
|
<time>2026-07-11T10:55:47.000Z</time>
|
|
</trkpt>
|
|
<trkpt lat="55.584105" lon="8.330972">
|
|
<ele>9.088707</ele>
|
|
<time>2026-07-11T10:55:48.000Z</time>
|
|
</trkpt>
|
|
<trkpt lat="55.584137" lon="8.330898">
|
|
<ele>9.049715</ele>
|
|
<time>2026-07-11T10:55:49.000Z</time>
|
|
</trkpt>
|
|
<trkpt lat="55.584170" lon="8.330823">
|
|
<ele>9.009939</ele>
|
|
<time>2026-07-11T10:55:50.000Z</time>
|
|
</trkpt>
|
|
<trkpt lat="55.584200" lon="8.330748">
|
|
<ele>8.971487</ele>
|
|
<time>2026-07-11T10:55:51.000Z</time>
|
|
</trkpt>
|
|
<trkpt lat="55.584231" lon="8.330673">
|
|
<ele>8.932603</ele>
|
|
<time>2026-07-11T10:55:52.000Z</time>
|
|
</trkpt>
|
|
<trkpt lat="55.584261" lon="8.330596">
|
|
<ele>8.893466</ele>
|
|
<time>2026-07-11T10:55:53.000Z</time>
|
|
</trkpt>
|
|
<trkpt lat="55.584294" lon="8.330518">
|
|
<ele>8.852692</ele>
|
|
<time>2026-07-11T10:55:54.000Z</time>
|
|
</trkpt>
|
|
<trkpt lat="55.584328" lon="8.330441">
|
|
<ele>8.811800</ele>
|
|
<time>2026-07-11T10:55:55.000Z</time>
|
|
</trkpt>
|
|
<trkpt lat="55.584360" lon="8.330365">
|
|
<ele>8.772140</ele>
|
|
<time>2026-07-11T10:55:56.000Z</time>
|
|
</trkpt>
|
|
<trkpt lat="55.584392" lon="8.330286">
|
|
<ele>8.731466</ele>
|
|
<time>2026-07-11T10:55:57.000Z</time>
|
|
</trkpt>
|
|
<trkpt lat="55.584427" lon="8.330206">
|
|
<ele>8.689129</ele>
|
|
<time>2026-07-11T10:55:58.000Z</time>
|
|
</trkpt>
|
|
<trkpt lat="55.584460" lon="8.330128">
|
|
<ele>8.648355</ele>
|
|
<time>2026-07-11T10:55:59.000Z</time>
|
|
</trkpt>
|
|
<trkpt lat="55.584492" lon="8.330051">
|
|
<ele>8.608358</ele>
|
|
<time>2026-07-11T10:56:00.000Z</time>
|
|
</trkpt>
|
|
<trkpt lat="55.584524" lon="8.329974">
|
|
<ele>8.568362</ele>
|
|
<time>2026-07-11T10:56:01.000Z</time>
|
|
</trkpt>
|
|
<trkpt lat="55.584557" lon="8.329898">
|
|
<ele>8.528255</ele>
|
|
<time>2026-07-11T10:56:02.000Z</time>
|
|
</trkpt>
|
|
<trkpt lat="55.584589" lon="8.329824">
|
|
<ele>8.489263</ele>
|
|
<time>2026-07-11T10:56:03.000Z</time>
|
|
</trkpt>
|
|
<trkpt lat="55.584620" lon="8.329748">
|
|
<ele>8.450040</ele>
|
|
<time>2026-07-11T10:56:04.000Z</time>
|
|
</trkpt>
|
|
<trkpt lat="55.584650" lon="8.329668">
|
|
<ele>8.409863</ele>
|
|
<time>2026-07-11T10:56:05.000Z</time>
|
|
</trkpt>
|
|
<trkpt lat="55.584683" lon="8.329586">
|
|
<ele>8.367737</ele>
|
|
<time>2026-07-11T10:56:06.000Z</time>
|
|
</trkpt>
|
|
<trkpt lat="55.584715" lon="8.329503">
|
|
<ele>8.325691</ele>
|
|
<time>2026-07-11T10:56:07.000Z</time>
|
|
</trkpt>
|
|
<trkpt lat="55.584749" lon="8.329418">
|
|
<ele>8.282113</ele>
|
|
<time>2026-07-11T10:56:08.000Z</time>
|
|
</trkpt>
|
|
<trkpt lat="55.584786" lon="8.329331">
|
|
<ele>8.236549</ele>
|
|
<time>2026-07-11T10:56:09.000Z</time>
|
|
</trkpt>
|
|
<trkpt lat="55.584820" lon="8.329243">
|
|
<ele>8.191941</ele>
|
|
<time>2026-07-11T10:56:10.000Z</time>
|
|
</trkpt>
|
|
<trkpt lat="55.584854" lon="8.329153">
|
|
<ele>8.146639</ele>
|
|
<time>2026-07-11T10:56:11.000Z</time>
|
|
</trkpt>
|
|
<trkpt lat="55.584892" lon="8.329063">
|
|
<ele>8.099626</ele>
|
|
<time>2026-07-11T10:56:12.000Z</time>
|
|
</trkpt>
|
|
<trkpt lat="55.584933" lon="8.328973">
|
|
<ele>8.045642</ele>
|
|
<time>2026-07-11T10:56:13.000Z</time>
|
|
</trkpt>
|
|
<trkpt lat="55.584971" lon="8.328883">
|
|
<ele>7.992876</ele>
|
|
<time>2026-07-11T10:56:14.000Z</time>
|
|
</trkpt>
|
|
<trkpt lat="55.585008" lon="8.328793">
|
|
<ele>7.940602</ele>
|
|
<time>2026-07-11T10:56:15.000Z</time>
|
|
</trkpt>
|
|
<trkpt lat="55.585048" lon="8.328701">
|
|
<ele>7.886083</ele>
|
|
<time>2026-07-11T10:56:16.000Z</time>
|
|
</trkpt>
|
|
<trkpt lat="55.585089" lon="8.328609">
|
|
<ele>7.831053</ele>
|
|
<time>2026-07-11T10:56:17.000Z</time>
|
|
</trkpt>
|
|
<trkpt lat="55.585128" lon="8.328518">
|
|
<ele>7.777412</ele>
|
|
<time>2026-07-11T10:56:18.000Z</time>
|
|
</trkpt>
|
|
<trkpt lat="55.585170" lon="8.328429">
|
|
<ele>7.722952</ele>
|
|
<time>2026-07-11T10:56:19.000Z</time>
|
|
</trkpt>
|
|
<trkpt lat="55.585212" lon="8.328340">
|
|
<ele>7.668493</ele>
|
|
<time>2026-07-11T10:56:20.000Z</time>
|
|
</trkpt>
|
|
<trkpt lat="55.585256" lon="8.328254">
|
|
<ele>7.614007</ele>
|
|
<time>2026-07-11T10:56:21.000Z</time>
|
|
</trkpt>
|
|
<trkpt lat="55.585300" lon="8.328169">
|
|
<ele>7.559867</ele>
|
|
<time>2026-07-11T10:56:22.000Z</time>
|
|
</trkpt>
|
|
<trkpt lat="55.585342" lon="8.328084">
|
|
<ele>7.506837</ele>
|
|
<time>2026-07-11T10:56:23.000Z</time>
|
|
</trkpt>
|
|
<trkpt lat="55.585385" lon="8.328005">
|
|
<ele>7.455321</ele>
|
|
<time>2026-07-11T10:56:24.000Z</time>
|
|
</trkpt>
|
|
<trkpt lat="55.585430" lon="8.327929">
|
|
<ele>7.403622</ele>
|
|
<time>2026-07-11T10:56:25.000Z</time>
|
|
</trkpt>
|
|
<trkpt lat="55.585476" lon="8.327851">
|
|
<ele>7.350672</ele>
|
|
<time>2026-07-11T10:56:26.000Z</time>
|
|
</trkpt>
|
|
<trkpt lat="55.585519" lon="8.327777">
|
|
<ele>7.300822</ele>
|
|
<time>2026-07-11T10:56:27.000Z</time>
|
|
</trkpt>
|
|
<trkpt lat="55.585565" lon="8.327702">
|
|
<ele>7.248837</ele>
|
|
<time>2026-07-11T10:56:28.000Z</time>
|
|
</trkpt>
|
|
<trkpt lat="55.585611" lon="8.327629">
|
|
<ele>7.197485</ele>
|
|
<time>2026-07-11T10:56:29.000Z</time>
|
|
</trkpt>
|
|
<trkpt lat="55.585657" lon="8.327557">
|
|
<ele>7.146445</ele>
|
|
<time>2026-07-11T10:56:30.000Z</time>
|
|
</trkpt>
|
|
<trkpt lat="55.585702" lon="8.327488">
|
|
<ele>7.096959</ele>
|
|
<time>2026-07-11T10:56:31.000Z</time>
|
|
</trkpt>
|
|
<trkpt lat="55.585748" lon="8.327421">
|
|
<ele>7.047444</ele>
|
|
<time>2026-07-11T10:56:32.000Z</time>
|
|
</trkpt>
|
|
<trkpt lat="55.585795" lon="8.327356">
|
|
<ele>6.997868</ele>
|
|
<time>2026-07-11T10:56:33.000Z</time>
|
|
</trkpt>
|
|
<trkpt lat="55.585844" lon="8.327291">
|
|
<ele>6.946973</ele>
|
|
<time>2026-07-11T10:56:34.000Z</time>
|
|
</trkpt>
|
|
<trkpt lat="55.585889" lon="8.327228">
|
|
<ele>6.899285</ele>
|
|
<time>2026-07-11T10:56:35.000Z</time>
|
|
</trkpt>
|
|
<trkpt lat="55.585935" lon="8.327166">
|
|
<ele>6.851228</ele>
|
|
<time>2026-07-11T10:56:36.000Z</time>
|
|
</trkpt>
|
|
<trkpt lat="55.585983" lon="8.327104">
|
|
<ele>6.801839</ele>
|
|
<time>2026-07-11T10:56:37.000Z</time>
|
|
</trkpt>
|
|
<trkpt lat="55.586032" lon="8.327045">
|
|
<ele>6.752582</ele>
|
|
<time>2026-07-11T10:56:38.000Z</time>
|
|
</trkpt>
|
|
<trkpt lat="55.586082" lon="8.326988">
|
|
<ele>6.703152</ele>
|
|
<time>2026-07-11T10:56:39.000Z</time>
|
|
</trkpt>
|
|
<trkpt lat="55.586129" lon="8.326932">
|
|
<ele>6.656062</ele>
|
|
<time>2026-07-11T10:56:40.000Z</time>
|
|
</trkpt>
|
|
<trkpt lat="55.586176" lon="8.326875">
|
|
<ele>6.608708</ele>
|
|
<time>2026-07-11T10:56:41.000Z</time>
|
|
</trkpt>
|
|
<trkpt lat="55.586227" lon="8.326818">
|
|
<ele>6.605571</ele>
|
|
<time>2026-07-11T10:56:42.000Z</time>
|
|
</trkpt>
|
|
<trkpt lat="55.586276" lon="8.326764">
|
|
<ele>6.609150</ele>
|
|
<time>2026-07-11T10:56:43.000Z</time>
|
|
</trkpt>
|
|
<trkpt lat="55.586326" lon="8.326711">
|
|
<ele>6.612764</ele>
|
|
<time>2026-07-11T10:56:44.000Z</time>
|
|
</trkpt>
|
|
<trkpt lat="55.586377" lon="8.326661">
|
|
<ele>6.616379</ele>
|
|
<time>2026-07-11T10:56:45.000Z</time>
|
|
</trkpt>
|
|
<trkpt lat="55.586429" lon="8.326611">
|
|
<ele>6.620049</ele>
|
|
<time>2026-07-11T10:56:46.000Z</time>
|
|
</trkpt>
|
|
<trkpt lat="55.586480" lon="8.326561">
|
|
<ele>6.623664</ele>
|
|
<time>2026-07-11T10:56:47.000Z</time>
|
|
</trkpt>
|
|
<trkpt lat="55.586534" lon="8.326511">
|
|
<ele>6.627443</ele>
|
|
<time>2026-07-11T10:56:48.000Z</time>
|
|
</trkpt>
|
|
<trkpt lat="55.586585" lon="8.326463">
|
|
<ele>6.631024</ele>
|
|
<time>2026-07-11T10:56:49.000Z</time>
|
|
</trkpt>
|
|
<trkpt lat="55.586638" lon="8.326416">
|
|
<ele>6.634700</ele>
|
|
<time>2026-07-11T10:56:50.000Z</time>
|
|
</trkpt>
|
|
<trkpt lat="55.586694" lon="8.326370">
|
|
<ele>6.638528</ele>
|
|
<time>2026-07-11T10:56:51.000Z</time>
|
|
</trkpt>
|
|
<trkpt lat="55.586747" lon="8.326325">
|
|
<ele>6.642173</ele>
|
|
<time>2026-07-11T10:56:52.000Z</time>
|
|
</trkpt>
|
|
<trkpt lat="55.586804" lon="8.326281">
|
|
<ele>6.646029</ele>
|
|
<time>2026-07-11T10:56:53.000Z</time>
|
|
</trkpt>
|
|
<trkpt lat="55.586863" lon="8.326241">
|
|
<ele>6.649946</ele>
|
|
<time>2026-07-11T10:56:54.000Z</time>
|
|
</trkpt>
|
|
<trkpt lat="55.586921" lon="8.326203">
|
|
<ele>6.653781</ele>
|
|
<time>2026-07-11T10:56:55.000Z</time>
|
|
</trkpt>
|
|
<trkpt lat="55.586978" lon="8.326164">
|
|
<ele>6.657570</ele>
|
|
<time>2026-07-11T10:56:56.000Z</time>
|
|
</trkpt>
|
|
<trkpt lat="55.587035" lon="8.326125">
|
|
<ele>6.661359</ele>
|
|
<time>2026-07-11T10:56:57.000Z</time>
|
|
</trkpt>
|
|
<trkpt lat="55.587094" lon="8.326089">
|
|
<ele>6.665229</ele>
|
|
<time>2026-07-11T10:56:58.000Z</time>
|
|
</trkpt>
|
|
<trkpt lat="55.587154" lon="8.326053">
|
|
<ele>6.669157</ele>
|
|
<time>2026-07-11T10:56:59.000Z</time>
|
|
</trkpt>
|
|
<trkpt lat="55.587211" lon="8.326018">
|
|
<ele>6.672898</ele>
|
|
<time>2026-07-11T10:57:00.000Z</time>
|
|
</trkpt>
|
|
<trkpt lat="55.587270" lon="8.325983">
|
|
<ele>6.676756</ele>
|
|
<time>2026-07-11T10:57:01.000Z</time>
|
|
</trkpt>
|
|
<trkpt lat="55.587331" lon="8.325948">
|
|
<ele>6.680732</ele>
|
|
<time>2026-07-11T10:57:02.000Z</time>
|
|
</trkpt>
|
|
<trkpt lat="55.587391" lon="8.325917">
|
|
<ele>6.684608</ele>
|
|
<time>2026-07-11T10:57:03.000Z</time>
|
|
</trkpt>
|
|
<trkpt lat="55.587453" lon="8.325890">
|
|
<ele>6.688566</ele>
|
|
<time>2026-07-11T10:57:04.000Z</time>
|
|
</trkpt>
|
|
<trkpt lat="55.587514" lon="8.325863">
|
|
<ele>6.692465</ele>
|
|
<time>2026-07-11T10:57:05.000Z</time>
|
|
</trkpt>
|
|
<trkpt lat="55.587576" lon="8.325838">
|
|
<ele>6.696408</ele>
|
|
<time>2026-07-11T10:57:06.000Z</time>
|
|
</trkpt>
|
|
<trkpt lat="55.587639" lon="8.325815">
|
|
<ele>6.700396</ele>
|
|
<time>2026-07-11T10:57:07.000Z</time>
|
|
</trkpt>
|
|
<trkpt lat="55.587702" lon="8.325792">
|
|
<ele>6.704385</ele>
|
|
<time>2026-07-11T10:57:08.000Z</time>
|
|
</trkpt>
|
|
<trkpt lat="55.587767" lon="8.325770">
|
|
<ele>6.708488</ele>
|
|
<time>2026-07-11T10:57:09.000Z</time>
|
|
</trkpt>
|
|
<trkpt lat="55.587832" lon="8.325749">
|
|
<ele>6.712585</ele>
|
|
<time>2026-07-11T10:57:10.000Z</time>
|
|
</trkpt>
|
|
<trkpt lat="55.587897" lon="8.325729">
|
|
<ele>6.708818</ele>
|
|
<time>2026-07-11T10:57:11.000Z</time>
|
|
</trkpt>
|
|
<trkpt lat="55.587962" lon="8.325711">
|
|
<ele>6.701639</ele>
|
|
<time>2026-07-11T10:57:12.000Z</time>
|
|
</trkpt>
|
|
<trkpt lat="55.588027" lon="8.325695">
|
|
<ele>6.694479</ele>
|
|
<time>2026-07-11T10:57:13.000Z</time>
|
|
</trkpt>
|
|
<trkpt lat="55.588092" lon="8.325681">
|
|
<ele>6.687333</ele>
|
|
<time>2026-07-11T10:57:14.000Z</time>
|
|
</trkpt>
|
|
<trkpt lat="55.588156" lon="8.325670">
|
|
<ele>6.680317</ele>
|
|
<time>2026-07-11T10:57:15.000Z</time>
|
|
</trkpt>
|
|
<trkpt lat="55.588223" lon="8.325660">
|
|
<ele>6.672980</ele>
|
|
<time>2026-07-11T10:57:16.000Z</time>
|
|
</trkpt>
|
|
<trkpt lat="55.588288" lon="8.325651">
|
|
<ele>6.665866</ele>
|
|
<time>2026-07-11T10:57:17.000Z</time>
|
|
</trkpt>
|
|
<trkpt lat="55.588351" lon="8.325644">
|
|
<ele>6.658978</ele>
|
|
<time>2026-07-11T10:57:18.000Z</time>
|
|
</trkpt>
|
|
<trkpt lat="55.588416" lon="8.325641">
|
|
<ele>6.651883</ele>
|
|
<time>2026-07-11T10:57:19.000Z</time>
|
|
</trkpt>
|
|
<trkpt lat="55.588480" lon="8.325638">
|
|
<ele>6.644897</ele>
|
|
<time>2026-07-11T10:57:20.000Z</time>
|
|
</trkpt>
|
|
<trkpt lat="55.588544" lon="8.325635">
|
|
<ele>6.637911</ele>
|
|
<time>2026-07-11T10:57:21.000Z</time>
|
|
</trkpt>
|
|
<trkpt lat="55.588610" lon="8.325632">
|
|
<ele>6.630707</ele>
|
|
<time>2026-07-11T10:57:22.000Z</time>
|
|
</trkpt>
|
|
<trkpt lat="55.588675" lon="8.325628">
|
|
<ele>6.623610</ele>
|
|
<time>2026-07-11T10:57:23.000Z</time>
|
|
</trkpt>
|
|
<trkpt lat="55.588738" lon="8.325625">
|
|
<ele>6.616733</ele>
|
|
<time>2026-07-11T10:57:24.000Z</time>
|
|
</trkpt>
|
|
<trkpt lat="55.588801" lon="8.325622">
|
|
<ele>6.609856</ele>
|
|
<time>2026-07-11T10:57:25.000Z</time>
|
|
</trkpt>
|
|
<trkpt lat="55.588866" lon="8.325618">
|
|
<ele>6.602759</ele>
|
|
<time>2026-07-11T10:57:26.000Z</time>
|
|
</trkpt>
|
|
<trkpt lat="55.588931" lon="8.325615">
|
|
<ele>6.595664</ele>
|
|
<time>2026-07-11T10:57:27.000Z</time>
|
|
</trkpt>
|
|
<trkpt lat="55.588994" lon="8.325611">
|
|
<ele>6.588785</ele>
|
|
<time>2026-07-11T10:57:28.000Z</time>
|
|
</trkpt>
|
|
<trkpt lat="55.589055" lon="8.325607">
|
|
<ele>6.582124</ele>
|
|
<time>2026-07-11T10:57:29.000Z</time>
|
|
</trkpt>
|
|
<trkpt lat="55.589117" lon="8.325605">
|
|
<ele>6.575358</ele>
|
|
<time>2026-07-11T10:57:30.000Z</time>
|
|
</trkpt>
|
|
<trkpt lat="55.589180" lon="8.325602">
|
|
<ele>6.568481</ele>
|
|
<time>2026-07-11T10:57:31.000Z</time>
|
|
</trkpt>
|
|
<trkpt lat="55.589242" lon="8.325598">
|
|
<ele>6.561711</ele>
|
|
<time>2026-07-11T10:57:32.000Z</time>
|
|
</trkpt>
|
|
<trkpt lat="55.589305" lon="8.325593">
|
|
<ele>6.554830</ele>
|
|
<time>2026-07-11T10:57:33.000Z</time>
|
|
</trkpt>
|
|
<trkpt lat="55.589368" lon="8.325588">
|
|
<ele>6.547948</ele>
|
|
<time>2026-07-11T10:57:34.000Z</time>
|
|
</trkpt>
|
|
<trkpt lat="55.589428" lon="8.325585">
|
|
<ele>6.541399</ele>
|
|
<time>2026-07-11T10:57:35.000Z</time>
|
|
</trkpt>
|
|
<trkpt lat="55.589489" lon="8.325581">
|
|
<ele>6.534738</ele>
|
|
<time>2026-07-11T10:57:36.000Z</time>
|
|
</trkpt>
|
|
<trkpt lat="55.589550" lon="8.325577">
|
|
<ele>6.528077</ele>
|
|
<time>2026-07-11T10:57:37.000Z</time>
|
|
</trkpt>
|
|
<trkpt lat="55.589611" lon="8.325573">
|
|
<ele>6.521416</ele>
|
|
<time>2026-07-11T10:57:38.000Z</time>
|
|
</trkpt>
|
|
<trkpt lat="55.589674" lon="8.325568">
|
|
<ele>6.519908</ele>
|
|
<time>2026-07-11T10:57:39.000Z</time>
|
|
</trkpt>
|
|
<trkpt lat="55.589737" lon="8.325565">
|
|
<ele>6.525229</ele>
|
|
<time>2026-07-11T10:57:40.000Z</time>
|
|
</trkpt>
|
|
<trkpt lat="55.589798" lon="8.325562">
|
|
<ele>6.530382</ele>
|
|
<time>2026-07-11T10:57:41.000Z</time>
|
|
</trkpt>
|
|
<trkpt lat="55.589861" lon="8.325559">
|
|
<ele>6.535704</ele>
|
|
<time>2026-07-11T10:57:42.000Z</time>
|
|
</trkpt>
|
|
<trkpt lat="55.589924" lon="8.325558">
|
|
<ele>6.541023</ele>
|
|
<time>2026-07-11T10:57:43.000Z</time>
|
|
</trkpt>
|
|
<trkpt lat="55.589986" lon="8.325555">
|
|
<ele>6.546260</ele>
|
|
<time>2026-07-11T10:57:44.000Z</time>
|
|
</trkpt>
|
|
<trkpt lat="55.590046" lon="8.325549">
|
|
<ele>6.551334</ele>
|
|
<time>2026-07-11T10:57:45.000Z</time>
|
|
</trkpt>
|
|
<trkpt lat="55.590109" lon="8.325545">
|
|
<ele>6.556657</ele>
|
|
<time>2026-07-11T10:57:46.000Z</time>
|
|
</trkpt>
|
|
<trkpt lat="55.590173" lon="8.325543">
|
|
<ele>6.562062</ele>
|
|
<time>2026-07-11T10:57:47.000Z</time>
|
|
</trkpt>
|
|
<trkpt lat="55.590234" lon="8.325539">
|
|
<ele>6.567216</ele>
|
|
<time>2026-07-11T10:57:48.000Z</time>
|
|
</trkpt>
|
|
<trkpt lat="55.590295" lon="8.325535">
|
|
<ele>6.572370</ele>
|
|
<time>2026-07-11T10:57:49.000Z</time>
|
|
</trkpt>
|
|
<trkpt lat="55.590356" lon="8.325531">
|
|
<ele>6.577525</ele>
|
|
<time>2026-07-11T10:57:50.000Z</time>
|
|
</trkpt>
|
|
<trkpt lat="55.590419" lon="8.325526">
|
|
<ele>6.582849</ele>
|
|
<time>2026-07-11T10:57:51.000Z</time>
|
|
</trkpt>
|
|
<trkpt lat="55.590481" lon="8.325522">
|
|
<ele>6.588088</ele>
|
|
<time>2026-07-11T10:57:52.000Z</time>
|
|
</trkpt>
|
|
<trkpt lat="55.590543" lon="8.325518">
|
|
<ele>6.593326</ele>
|
|
<time>2026-07-11T10:57:53.000Z</time>
|
|
</trkpt>
|
|
<trkpt lat="55.590607" lon="8.325515">
|
|
<ele>6.598732</ele>
|
|
<time>2026-07-11T10:57:54.000Z</time>
|
|
</trkpt>
|
|
<trkpt lat="55.590670" lon="8.325512">
|
|
<ele>6.604054</ele>
|
|
<time>2026-07-11T10:57:55.000Z</time>
|
|
</trkpt>
|
|
<trkpt lat="55.590733" lon="8.325508">
|
|
<ele>6.609377</ele>
|
|
<time>2026-07-11T10:57:56.000Z</time>
|
|
</trkpt>
|
|
<trkpt lat="55.590796" lon="8.325505">
|
|
<ele>6.614698</ele>
|
|
<time>2026-07-11T10:57:57.000Z</time>
|
|
</trkpt>
|
|
<trkpt lat="55.590859" lon="8.325502">
|
|
<ele>6.620019</ele>
|
|
<time>2026-07-11T10:57:58.000Z</time>
|
|
</trkpt>
|
|
<trkpt lat="55.590920" lon="8.325498">
|
|
<ele>6.625174</ele>
|
|
<time>2026-07-11T10:57:59.000Z</time>
|
|
</trkpt>
|
|
<trkpt lat="55.590982" lon="8.325494">
|
|
<ele>6.630412</ele>
|
|
<time>2026-07-11T10:58:00.000Z</time>
|
|
</trkpt>
|
|
<trkpt lat="55.591047" lon="8.325488">
|
|
<ele>6.635908</ele>
|
|
<time>2026-07-11T10:58:01.000Z</time>
|
|
</trkpt>
|
|
<trkpt lat="55.591111" lon="8.325483">
|
|
<ele>6.641317</ele>
|
|
<time>2026-07-11T10:58:02.000Z</time>
|
|
</trkpt>
|
|
<trkpt lat="55.591174" lon="8.325479">
|
|
<ele>6.646640</ele>
|
|
<time>2026-07-11T10:58:03.000Z</time>
|
|
</trkpt>
|
|
<trkpt lat="55.591237" lon="8.325476">
|
|
<ele>6.651961</ele>
|
|
<time>2026-07-11T10:58:04.000Z</time>
|
|
</trkpt>
|
|
<trkpt lat="55.591300" lon="8.325473">
|
|
<ele>6.657283</ele>
|
|
<time>2026-07-11T10:58:05.000Z</time>
|
|
</trkpt>
|
|
<trkpt lat="55.591363" lon="8.325467">
|
|
<ele>6.662610</ele>
|
|
<time>2026-07-11T10:58:06.000Z</time>
|
|
</trkpt>
|
|
<trkpt lat="55.591423" lon="8.325461">
|
|
<ele>6.667684</ele>
|
|
<time>2026-07-11T10:58:07.000Z</time>
|
|
</trkpt>
|
|
<trkpt lat="55.591484" lon="8.325457">
|
|
<ele>6.671016</ele>
|
|
<time>2026-07-11T10:58:08.000Z</time>
|
|
</trkpt>
|
|
<trkpt lat="55.591546" lon="8.325453">
|
|
<ele>6.673450</ele>
|
|
<time>2026-07-11T10:58:09.000Z</time>
|
|
</trkpt>
|
|
<trkpt lat="55.591606" lon="8.325450">
|
|
<ele>6.675804</ele>
|
|
<time>2026-07-11T10:58:10.000Z</time>
|
|
</trkpt>
|
|
<trkpt lat="55.591667" lon="8.325447">
|
|
<ele>6.678198</ele>
|
|
<time>2026-07-11T10:58:11.000Z</time>
|
|
</trkpt>
|
|
<trkpt lat="55.591729" lon="8.325444">
|
|
<ele>6.680631</ele>
|
|
<time>2026-07-11T10:58:12.000Z</time>
|
|
</trkpt>
|
|
<trkpt lat="55.591790" lon="8.325442">
|
|
<ele>6.683024</ele>
|
|
<time>2026-07-11T10:58:13.000Z</time>
|
|
</trkpt>
|
|
<trkpt lat="55.591852" lon="8.325438">
|
|
<ele>6.685458</ele>
|
|
<time>2026-07-11T10:58:14.000Z</time>
|
|
</trkpt>
|
|
<trkpt lat="55.591916" lon="8.325433">
|
|
<ele>6.687971</ele>
|
|
<time>2026-07-11T10:58:15.000Z</time>
|
|
</trkpt>
|
|
<trkpt lat="55.591977" lon="8.325428">
|
|
<ele>6.690366</ele>
|
|
<time>2026-07-11T10:58:16.000Z</time>
|
|
</trkpt>
|
|
<trkpt lat="55.592038" lon="8.325423">
|
|
<ele>6.692762</ele>
|
|
<time>2026-07-11T10:58:17.000Z</time>
|
|
</trkpt>
|
|
<trkpt lat="55.592098" lon="8.325418">
|
|
<ele>6.695118</ele>
|
|
<time>2026-07-11T10:58:18.000Z</time>
|
|
</trkpt>
|
|
<trkpt lat="55.592159" lon="8.325413">
|
|
<ele>6.697513</ele>
|
|
<time>2026-07-11T10:58:19.000Z</time>
|
|
</trkpt>
|
|
<trkpt lat="55.592222" lon="8.325410">
|
|
<ele>6.699986</ele>
|
|
<time>2026-07-11T10:58:20.000Z</time>
|
|
</trkpt>
|
|
<trkpt lat="55.592285" lon="8.325407">
|
|
<ele>6.702458</ele>
|
|
<time>2026-07-11T10:58:21.000Z</time>
|
|
</trkpt>
|
|
<trkpt lat="55.592346" lon="8.325403">
|
|
<ele>6.704852</ele>
|
|
<time>2026-07-11T10:58:22.000Z</time>
|
|
</trkpt>
|
|
<trkpt lat="55.592409" lon="8.325398">
|
|
<ele>6.707326</ele>
|
|
<time>2026-07-11T10:58:23.000Z</time>
|
|
</trkpt>
|
|
<trkpt lat="55.592474" lon="8.325392">
|
|
<ele>6.709879</ele>
|
|
<time>2026-07-11T10:58:24.000Z</time>
|
|
</trkpt>
|
|
<trkpt lat="55.592537" lon="8.325388">
|
|
<ele>6.712352</ele>
|
|
<time>2026-07-11T10:58:25.000Z</time>
|
|
</trkpt>
|
|
<trkpt lat="55.592598" lon="8.325383">
|
|
<ele>6.714748</ele>
|
|
<time>2026-07-11T10:58:26.000Z</time>
|
|
</trkpt>
|
|
<trkpt lat="55.592661" lon="8.325379">
|
|
<ele>6.717220</ele>
|
|
<time>2026-07-11T10:58:27.000Z</time>
|
|
</trkpt>
|
|
<trkpt lat="55.592724" lon="8.325375">
|
|
<ele>6.719693</ele>
|
|
<time>2026-07-11T10:58:28.000Z</time>
|
|
</trkpt>
|
|
<trkpt lat="55.592787" lon="8.325371">
|
|
<ele>6.722166</ele>
|
|
<time>2026-07-11T10:58:29.000Z</time>
|
|
</trkpt>
|
|
<trkpt lat="55.592852" lon="8.325367">
|
|
<ele>6.724718</ele>
|
|
<time>2026-07-11T10:58:30.000Z</time>
|
|
</trkpt>
|
|
<trkpt lat="55.592915" lon="8.325363">
|
|
<ele>6.727190</ele>
|
|
<time>2026-07-11T10:58:31.000Z</time>
|
|
</trkpt>
|
|
<trkpt lat="55.592978" lon="8.325360">
|
|
<ele>6.729663</ele>
|
|
<time>2026-07-11T10:58:32.000Z</time>
|
|
</trkpt>
|
|
<trkpt lat="55.593043" lon="8.325356">
|
|
<ele>6.732214</ele>
|
|
<time>2026-07-11T10:58:33.000Z</time>
|
|
</trkpt>
|
|
<trkpt lat="55.593107" lon="8.325352">
|
|
<ele>6.734726</ele>
|
|
<time>2026-07-11T10:58:34.000Z</time>
|
|
</trkpt>
|
|
<trkpt lat="55.593172" lon="8.325348">
|
|
<ele>6.737277</ele>
|
|
<time>2026-07-11T10:58:35.000Z</time>
|
|
</trkpt>
|
|
<trkpt lat="55.593237" lon="8.325342">
|
|
<ele>6.739831</ele>
|
|
<time>2026-07-11T10:58:36.000Z</time>
|
|
</trkpt>
|
|
<trkpt lat="55.593301" lon="8.325336">
|
|
<ele>6.769164</ele>
|
|
<time>2026-07-11T10:58:37.000Z</time>
|
|
</trkpt>
|
|
<trkpt lat="55.593367" lon="8.325331">
|
|
<ele>6.801273</ele>
|
|
<time>2026-07-11T10:58:38.000Z</time>
|
|
</trkpt>
|
|
<trkpt lat="55.593429" lon="8.325327">
|
|
<ele>6.831429</ele>
|
|
<time>2026-07-11T10:58:39.000Z</time>
|
|
</trkpt>
|
|
<trkpt lat="55.593490" lon="8.325323">
|
|
<ele>6.861099</ele>
|
|
<time>2026-07-11T10:58:40.000Z</time>
|
|
</trkpt>
|
|
<trkpt lat="55.593557" lon="8.325320">
|
|
<ele>6.893676</ele>
|
|
<time>2026-07-11T10:58:41.000Z</time>
|
|
</trkpt>
|
|
<trkpt lat="55.593622" lon="8.325317">
|
|
<ele>6.925281</ele>
|
|
<time>2026-07-11T10:58:42.000Z</time>
|
|
</trkpt>
|
|
<trkpt lat="55.593685" lon="8.325313">
|
|
<ele>6.955922</ele>
|
|
<time>2026-07-11T10:58:43.000Z</time>
|
|
</trkpt>
|
|
<trkpt lat="55.593746" lon="8.325308">
|
|
<ele>6.985604</ele>
|
|
<time>2026-07-11T10:58:44.000Z</time>
|
|
</trkpt>
|
|
<trkpt lat="55.593806" lon="8.325304">
|
|
<ele>7.014788</ele>
|
|
<time>2026-07-11T10:58:45.000Z</time>
|
|
</trkpt>
|
|
<trkpt lat="55.593869" lon="8.325302">
|
|
<ele>7.045415</ele>
|
|
<time>2026-07-11T10:58:46.000Z</time>
|
|
</trkpt>
|
|
<trkpt lat="55.593931" lon="8.325300">
|
|
<ele>7.075556</ele>
|
|
<time>2026-07-11T10:58:47.000Z</time>
|
|
</trkpt>
|
|
<trkpt lat="55.593990" lon="8.325294">
|
|
<ele>7.104281</ele>
|
|
<time>2026-07-11T10:58:48.000Z</time>
|
|
</trkpt>
|
|
<trkpt lat="55.594051" lon="8.325290">
|
|
<ele>7.133951</ele>
|
|
<time>2026-07-11T10:58:49.000Z</time>
|
|
</trkpt>
|
|
<trkpt lat="55.594112" lon="8.325285">
|
|
<ele>7.163632</ele>
|
|
<time>2026-07-11T10:58:50.000Z</time>
|
|
</trkpt>
|
|
<trkpt lat="55.594171" lon="8.325281">
|
|
<ele>7.192331</ele>
|
|
<time>2026-07-11T10:58:51.000Z</time>
|
|
</trkpt>
|
|
<trkpt lat="55.594229" lon="8.325275">
|
|
<ele>7.220571</ele>
|
|
<time>2026-07-11T10:58:52.000Z</time>
|
|
</trkpt>
|
|
<trkpt lat="55.594286" lon="8.325270">
|
|
<ele>7.248310</ele>
|
|
<time>2026-07-11T10:58:53.000Z</time>
|
|
</trkpt>
|
|
<trkpt lat="55.594343" lon="8.325267">
|
|
<ele>7.276028</ele>
|
|
<time>2026-07-11T10:58:54.000Z</time>
|
|
</trkpt>
|
|
<trkpt lat="55.594401" lon="8.325264">
|
|
<ele>7.304232</ele>
|
|
<time>2026-07-11T10:58:55.000Z</time>
|
|
</trkpt>
|
|
<trkpt lat="55.594458" lon="8.325261">
|
|
<ele>7.331949</ele>
|
|
<time>2026-07-11T10:58:56.000Z</time>
|
|
</trkpt>
|
|
<trkpt lat="55.594513" lon="8.325259">
|
|
<ele>7.358688</ele>
|
|
<time>2026-07-11T10:58:57.000Z</time>
|
|
</trkpt>
|
|
<trkpt lat="55.594567" lon="8.325257">
|
|
<ele>7.384942</ele>
|
|
<time>2026-07-11T10:58:58.000Z</time>
|
|
</trkpt>
|
|
<trkpt lat="55.594624" lon="8.325255">
|
|
<ele>7.412653</ele>
|
|
<time>2026-07-11T10:58:59.000Z</time>
|
|
</trkpt>
|
|
<trkpt lat="55.594676" lon="8.325252">
|
|
<ele>7.437941</ele>
|
|
<time>2026-07-11T10:59:00.000Z</time>
|
|
</trkpt>
|
|
<trkpt lat="55.594731" lon="8.325248">
|
|
<ele>7.464697</ele>
|
|
<time>2026-07-11T10:59:01.000Z</time>
|
|
</trkpt>
|
|
<trkpt lat="55.594786" lon="8.325245">
|
|
<ele>7.491443</ele>
|
|
<time>2026-07-11T10:59:02.000Z</time>
|
|
</trkpt>
|
|
<trkpt lat="55.594838" lon="8.325244">
|
|
<ele>7.516720</ele>
|
|
<time>2026-07-11T10:59:03.000Z</time>
|
|
</trkpt>
|
|
<trkpt lat="55.594889" lon="8.325247">
|
|
<ele>7.541523</ele>
|
|
<time>2026-07-11T10:59:04.000Z</time>
|
|
</trkpt>
|
|
<trkpt lat="55.594939" lon="8.325252">
|
|
<ele>7.565865</ele>
|
|
<time>2026-07-11T10:59:05.000Z</time>
|
|
</trkpt>
|
|
<trkpt lat="55.594987" lon="8.325257">
|
|
<ele>7.589236</ele>
|
|
<time>2026-07-11T10:59:06.000Z</time>
|
|
</trkpt>
|
|
<trkpt lat="55.595032" lon="8.325264">
|
|
<ele>7.611193</ele>
|
|
<time>2026-07-11T10:59:07.000Z</time>
|
|
</trkpt>
|
|
<trkpt lat="55.595078" lon="8.325273">
|
|
<ele>7.653328</ele>
|
|
<time>2026-07-11T10:59:08.000Z</time>
|
|
</trkpt>
|
|
<trkpt lat="55.595122" lon="8.325281">
|
|
<ele>7.696540</ele>
|
|
<time>2026-07-11T10:59:09.000Z</time>
|
|
</trkpt>
|
|
<trkpt lat="55.595160" lon="8.325287">
|
|
<ele>7.733811</ele>
|
|
<time>2026-07-11T10:59:10.000Z</time>
|
|
</trkpt>
|
|
<trkpt lat="55.595193" lon="8.325290">
|
|
<ele>7.766093</ele>
|
|
<time>2026-07-11T10:59:11.000Z</time>
|
|
</trkpt>
|
|
<trkpt lat="55.595221" lon="8.325286">
|
|
<ele>7.793537</ele>
|
|
<time>2026-07-11T10:59:12.000Z</time>
|
|
</trkpt>
|
|
<trkpt lat="55.595237" lon="8.325275">
|
|
<ele>7.810306</ele>
|
|
<time>2026-07-11T10:59:13.000Z</time>
|
|
</trkpt>
|
|
<trkpt lat="55.595249" lon="8.325096">
|
|
<ele>7.909809</ele>
|
|
<time>2026-07-11T10:59:22.000Z</time>
|
|
</trkpt>
|
|
<trkpt lat="55.595252" lon="8.325063">
|
|
<ele>7.928260</ele>
|
|
<time>2026-07-11T10:59:23.000Z</time>
|
|
</trkpt>
|
|
<trkpt lat="55.595264" lon="8.325039">
|
|
<ele>7.945950</ele>
|
|
<time>2026-07-11T10:59:24.000Z</time>
|
|
</trkpt>
|
|
<trkpt lat="55.595281" lon="8.325033">
|
|
<ele>7.962886</ele>
|
|
<time>2026-07-11T10:59:25.000Z</time>
|
|
</trkpt>
|
|
<trkpt lat="55.595304" lon="8.325035">
|
|
<ele>7.985383</ele>
|
|
<time>2026-07-11T10:59:26.000Z</time>
|
|
</trkpt>
|
|
<trkpt lat="55.595329" lon="8.325033">
|
|
<ele>8.009831</ele>
|
|
<time>2026-07-11T10:59:27.000Z</time>
|
|
</trkpt>
|
|
<trkpt lat="55.595357" lon="8.325028">
|
|
<ele>8.037325</ele>
|
|
<time>2026-07-11T10:59:28.000Z</time>
|
|
</trkpt>
|
|
<trkpt lat="55.595388" lon="8.325023">
|
|
<ele>8.067736</ele>
|
|
<time>2026-07-11T10:59:29.000Z</time>
|
|
</trkpt>
|
|
<trkpt lat="55.595421" lon="8.325018">
|
|
<ele>8.100093</ele>
|
|
<time>2026-07-11T10:59:30.000Z</time>
|
|
</trkpt>
|
|
<trkpt lat="55.595459" lon="8.325014">
|
|
<ele>8.137283</ele>
|
|
<time>2026-07-11T10:59:31.000Z</time>
|
|
</trkpt>
|
|
<trkpt lat="55.595500" lon="8.325012">
|
|
<ele>8.177353</ele>
|
|
<time>2026-07-11T10:59:32.000Z</time>
|
|
</trkpt>
|
|
<trkpt lat="55.595542" lon="8.325011">
|
|
<ele>8.218389</ele>
|
|
<time>2026-07-11T10:59:33.000Z</time>
|
|
</trkpt>
|
|
<trkpt lat="55.595584" lon="8.325011">
|
|
<ele>8.259421</ele>
|
|
<time>2026-07-11T10:59:34.000Z</time>
|
|
</trkpt>
|
|
<trkpt lat="55.595627" lon="8.325011">
|
|
<ele>8.301430</ele>
|
|
<time>2026-07-11T10:59:35.000Z</time>
|
|
</trkpt>
|
|
<trkpt lat="55.595673" lon="8.325012">
|
|
<ele>8.346373</ele>
|
|
<time>2026-07-11T10:59:36.000Z</time>
|
|
</trkpt>
|
|
<trkpt lat="55.595719" lon="8.325011">
|
|
<ele>8.391316</ele>
|
|
<time>2026-07-11T10:59:37.000Z</time>
|
|
</trkpt>
|
|
<trkpt lat="55.595764" lon="8.325006">
|
|
<ele>8.435365</ele>
|
|
<time>2026-07-11T10:59:38.000Z</time>
|
|
</trkpt>
|
|
<trkpt lat="55.595810" lon="8.325000">
|
|
<ele>8.480427</ele>
|
|
<time>2026-07-11T10:59:39.000Z</time>
|
|
</trkpt>
|
|
<trkpt lat="55.595854" lon="8.324998">
|
|
<ele>8.523427</ele>
|
|
<time>2026-07-11T10:59:40.000Z</time>
|
|
</trkpt>
|
|
<trkpt lat="55.595896" lon="8.324995">
|
|
<ele>8.564492</ele>
|
|
<time>2026-07-11T10:59:41.000Z</time>
|
|
</trkpt>
|
|
<trkpt lat="55.595937" lon="8.324991">
|
|
<ele>8.604608</ele>
|
|
<time>2026-07-11T10:59:42.000Z</time>
|
|
</trkpt>
|
|
<trkpt lat="55.595975" lon="8.324984">
|
|
<ele>8.641933</ele>
|
|
<time>2026-07-11T10:59:43.000Z</time>
|
|
</trkpt>
|
|
<trkpt lat="55.596010" lon="8.324965">
|
|
<ele>8.677698</ele>
|
|
<time>2026-07-11T10:59:44.000Z</time>
|
|
</trkpt>
|
|
<trkpt lat="55.596039" lon="8.324930">
|
|
<ele>8.711990</ele>
|
|
<time>2026-07-11T10:59:45.000Z</time>
|
|
</trkpt>
|
|
<trkpt lat="55.596062" lon="8.324883">
|
|
<ele>8.746312</ele>
|
|
<time>2026-07-11T10:59:46.000Z</time>
|
|
</trkpt>
|
|
<trkpt lat="55.596076" lon="8.324830">
|
|
<ele>8.778608</ele>
|
|
<time>2026-07-11T10:59:47.000Z</time>
|
|
</trkpt>
|
|
<trkpt lat="55.596084" lon="8.324781">
|
|
<ele>8.806762</ele>
|
|
<time>2026-07-11T10:59:48.000Z</time>
|
|
</trkpt>
|
|
<trkpt lat="55.596094" lon="8.324739">
|
|
<ele>8.831920</ele>
|
|
<time>2026-07-11T10:59:49.000Z</time>
|
|
</trkpt>
|
|
<trkpt lat="55.596110" lon="8.324711">
|
|
<ele>8.853903</ele>
|
|
<time>2026-07-11T10:59:50.000Z</time>
|
|
</trkpt>
|
|
<trkpt lat="55.596125" lon="8.324686">
|
|
<ele>8.874032</ele>
|
|
<time>2026-07-11T10:59:51.000Z</time>
|
|
</trkpt>
|
|
<trkpt lat="55.596137" lon="8.324648">
|
|
<ele>8.898062</ele>
|
|
<time>2026-07-11T10:59:52.000Z</time>
|
|
</trkpt>
|
|
<trkpt lat="55.596142" lon="8.324597">
|
|
<ele>8.926634</ele>
|
|
<time>2026-07-11T10:59:53.000Z</time>
|
|
</trkpt>
|
|
<trkpt lat="55.596139" lon="8.324538">
|
|
<ele>8.959334</ele>
|
|
<time>2026-07-11T10:59:54.000Z</time>
|
|
</trkpt>
|
|
<trkpt lat="55.596131" lon="8.324475">
|
|
<ele>8.994977</ele>
|
|
<time>2026-07-11T10:59:55.000Z</time>
|
|
</trkpt>
|
|
<trkpt lat="55.596122" lon="8.324413">
|
|
<ele>9.030313</ele>
|
|
<time>2026-07-11T10:59:56.000Z</time>
|
|
</trkpt>
|
|
<trkpt lat="55.596112" lon="8.324353">
|
|
<ele>9.064844</ele>
|
|
<time>2026-07-11T10:59:57.000Z</time>
|
|
</trkpt>
|
|
<trkpt lat="55.596104" lon="8.324292">
|
|
<ele>9.099411</ele>
|
|
<time>2026-07-11T10:59:58.000Z</time>
|
|
</trkpt>
|
|
<trkpt lat="55.596093" lon="8.324226">
|
|
<ele>9.137395</ele>
|
|
<time>2026-07-11T10:59:59.000Z</time>
|
|
</trkpt>
|
|
<trkpt lat="55.596078" lon="8.324155">
|
|
<ele>9.179237</ele>
|
|
<time>2026-07-11T11:00:00.000Z</time>
|
|
</trkpt>
|
|
<trkpt lat="55.596065" lon="8.324082">
|
|
<ele>9.221487</ele>
|
|
<time>2026-07-11T11:00:01.000Z</time>
|
|
</trkpt>
|
|
<trkpt lat="55.596052" lon="8.324007">
|
|
<ele>9.264791</ele>
|
|
<time>2026-07-11T11:00:02.000Z</time>
|
|
</trkpt>
|
|
<trkpt lat="55.596039" lon="8.323934">
|
|
<ele>9.307041</ele>
|
|
<time>2026-07-11T11:00:03.000Z</time>
|
|
</trkpt>
|
|
<trkpt lat="55.596023" lon="8.323862">
|
|
<ele>9.349749</ele>
|
|
<time>2026-07-11T11:00:04.000Z</time>
|
|
</trkpt>
|
|
<trkpt lat="55.596006" lon="8.323793">
|
|
<ele>9.413368</ele>
|
|
<time>2026-07-11T11:00:05.000Z</time>
|
|
</trkpt>
|
|
<trkpt lat="55.595989" lon="8.323726">
|
|
<ele>9.498931</ele>
|
|
<time>2026-07-11T11:00:06.000Z</time>
|
|
</trkpt>
|
|
<trkpt lat="55.595972" lon="8.323660">
|
|
<ele>9.583432</ele>
|
|
<time>2026-07-11T11:00:07.000Z</time>
|
|
</trkpt>
|
|
<trkpt lat="55.595956" lon="8.323594">
|
|
<ele>9.667099</ele>
|
|
<time>2026-07-11T11:00:08.000Z</time>
|
|
</trkpt>
|
|
<trkpt lat="55.595938" lon="8.323527">
|
|
<ele>9.753527</ele>
|
|
<time>2026-07-11T11:00:09.000Z</time>
|
|
</trkpt>
|
|
<trkpt lat="55.595917" lon="8.323462">
|
|
<ele>9.840756</ele>
|
|
<time>2026-07-11T11:00:10.000Z</time>
|
|
</trkpt>
|
|
<trkpt lat="55.595897" lon="8.323398">
|
|
<ele>9.925959</ele>
|
|
<time>2026-07-11T11:00:11.000Z</time>
|
|
</trkpt>
|
|
<trkpt lat="55.595876" lon="8.323338">
|
|
<ele>10.008182</ele>
|
|
<time>2026-07-11T11:00:12.000Z</time>
|
|
</trkpt>
|
|
<trkpt lat="55.595856" lon="8.323276">
|
|
<ele>10.091353</ele>
|
|
<time>2026-07-11T11:00:13.000Z</time>
|
|
</trkpt>
|
|
<trkpt lat="55.595835" lon="8.323212">
|
|
<ele>10.177573</ele>
|
|
<time>2026-07-11T11:00:14.000Z</time>
|
|
</trkpt>
|
|
<trkpt lat="55.595811" lon="8.323150">
|
|
<ele>10.265127</ele>
|
|
<time>2026-07-11T11:00:15.000Z</time>
|
|
</trkpt>
|
|
<trkpt lat="55.595789" lon="8.323088">
|
|
<ele>10.350419</ele>
|
|
<time>2026-07-11T11:00:16.000Z</time>
|
|
</trkpt>
|
|
<trkpt lat="55.595768" lon="8.323028">
|
|
<ele>10.432642</ele>
|
|
<time>2026-07-11T11:00:17.000Z</time>
|
|
</trkpt>
|
|
<trkpt lat="55.595748" lon="8.322967">
|
|
<ele>10.514804</ele>
|
|
<time>2026-07-11T11:00:18.000Z</time>
|
|
</trkpt>
|
|
<trkpt lat="55.595729" lon="8.322904">
|
|
<ele>10.597999</ele>
|
|
<time>2026-07-11T11:00:19.000Z</time>
|
|
</trkpt>
|
|
<trkpt lat="55.595710" lon="8.322842">
|
|
<ele>10.680168</ele>
|
|
<time>2026-07-11T11:00:20.000Z</time>
|
|
</trkpt>
|
|
<trkpt lat="55.595691" lon="8.322780">
|
|
<ele>10.762337</ele>
|
|
<time>2026-07-11T11:00:21.000Z</time>
|
|
</trkpt>
|
|
<trkpt lat="55.595671" lon="8.322718">
|
|
<ele>10.845509</ele>
|
|
<time>2026-07-11T11:00:22.000Z</time>
|
|
</trkpt>
|
|
<trkpt lat="55.595650" lon="8.322658">
|
|
<ele>10.927732</ele>
|
|
<time>2026-07-11T11:00:23.000Z</time>
|
|
</trkpt>
|
|
<trkpt lat="55.595629" lon="8.322599">
|
|
<ele>11.008968</ele>
|
|
<time>2026-07-11T11:00:24.000Z</time>
|
|
</trkpt>
|
|
<trkpt lat="55.595608" lon="8.322539">
|
|
<ele>11.091191</ele>
|
|
<time>2026-07-11T11:00:25.000Z</time>
|
|
</trkpt>
|
|
<trkpt lat="55.595586" lon="8.322478">
|
|
<ele>11.175499</ele>
|
|
<time>2026-07-11T11:00:26.000Z</time>
|
|
</trkpt>
|
|
<trkpt lat="55.595565" lon="8.322413">
|
|
<ele>11.262728</ele>
|
|
<time>2026-07-11T11:00:27.000Z</time>
|
|
</trkpt>
|
|
<trkpt lat="55.595546" lon="8.322348">
|
|
<ele>11.347986</ele>
|
|
<time>2026-07-11T11:00:28.000Z</time>
|
|
</trkpt>
|
|
<trkpt lat="55.595526" lon="8.322287">
|
|
<ele>11.430148</ele>
|
|
<time>2026-07-11T11:00:29.000Z</time>
|
|
</trkpt>
|
|
<trkpt lat="55.595504" lon="8.322230">
|
|
<ele>11.510567</ele>
|
|
<time>2026-07-11T11:00:30.000Z</time>
|
|
</trkpt>
|
|
<trkpt lat="55.595482" lon="8.322170">
|
|
<ele>11.593895</ele>
|
|
<time>2026-07-11T11:00:31.000Z</time>
|
|
</trkpt>
|
|
<trkpt lat="55.595459" lon="8.322105">
|
|
<ele>11.683243</ele>
|
|
<time>2026-07-11T11:00:32.000Z</time>
|
|
</trkpt>
|
|
<trkpt lat="55.595438" lon="8.322033">
|
|
<ele>11.777639</ele>
|
|
<time>2026-07-11T11:00:33.000Z</time>
|
|
</trkpt>
|
|
<trkpt lat="55.595421" lon="8.321961">
|
|
<ele>11.868548</ele>
|
|
<time>2026-07-11T11:00:34.000Z</time>
|
|
</trkpt>
|
|
<trkpt lat="55.595404" lon="8.321888">
|
|
<ele>11.960533</ele>
|
|
<time>2026-07-11T11:00:35.000Z</time>
|
|
</trkpt>
|
|
<trkpt lat="55.595386" lon="8.321819">
|
|
<ele>12.049072</ele>
|
|
<time>2026-07-11T11:00:36.000Z</time>
|
|
</trkpt>
|
|
<trkpt lat="55.595367" lon="8.321754">
|
|
<ele>12.134330</ele>
|
|
<time>2026-07-11T11:00:37.000Z</time>
|
|
</trkpt>
|
|
<trkpt lat="55.595350" lon="8.321691">
|
|
<ele>12.215665</ele>
|
|
<time>2026-07-11T11:00:38.000Z</time>
|
|
</trkpt>
|
|
<trkpt lat="55.595337" lon="8.321627">
|
|
<ele>12.294897</ele>
|
|
<time>2026-07-11T11:00:39.000Z</time>
|
|
</trkpt>
|
|
<trkpt lat="55.595328" lon="8.321561">
|
|
<ele>12.373995</ele>
|
|
<time>2026-07-11T11:00:40.000Z</time>
|
|
</trkpt>
|
|
<trkpt lat="55.595317" lon="8.321492">
|
|
<ele>12.457518</ele>
|
|
<time>2026-07-11T11:00:41.000Z</time>
|
|
</trkpt>
|
|
<trkpt lat="55.595304" lon="8.321417">
|
|
<ele>12.548912</ele>
|
|
<time>2026-07-11T11:00:42.000Z</time>
|
|
</trkpt>
|
|
<trkpt lat="55.595289" lon="8.321340">
|
|
<ele>12.643799</ele>
|
|
<time>2026-07-11T11:00:43.000Z</time>
|
|
</trkpt>
|
|
<trkpt lat="55.595274" lon="8.321260">
|
|
<ele>12.741997</ele>
|
|
<time>2026-07-11T11:00:44.000Z</time>
|
|
</trkpt>
|
|
<trkpt lat="55.595261" lon="8.321177">
|
|
<ele>12.842339</ele>
|
|
<time>2026-07-11T11:00:45.000Z</time>
|
|
</trkpt>
|
|
<trkpt lat="55.595248" lon="8.321094">
|
|
<ele>12.942680</ele>
|
|
<time>2026-07-11T11:00:46.000Z</time>
|
|
</trkpt>
|
|
<trkpt lat="55.595237" lon="8.321009">
|
|
<ele>13.044270</ele>
|
|
<time>2026-07-11T11:00:47.000Z</time>
|
|
</trkpt>
|
|
<trkpt lat="55.595223" lon="8.320925">
|
|
<ele>13.111569</ele>
|
|
<time>2026-07-11T11:00:48.000Z</time>
|
|
</trkpt>
|
|
<trkpt lat="55.595208" lon="8.320839">
|
|
<ele>13.161563</ele>
|
|
<time>2026-07-11T11:00:49.000Z</time>
|
|
</trkpt>
|
|
<trkpt lat="55.595193" lon="8.320757">
|
|
<ele>13.209438</ele>
|
|
<time>2026-07-11T11:00:50.000Z</time>
|
|
</trkpt>
|
|
<trkpt lat="55.595178" lon="8.320677">
|
|
<ele>13.256258</ele>
|
|
<time>2026-07-11T11:00:51.000Z</time>
|
|
</trkpt>
|
|
<trkpt lat="55.595162" lon="8.320599">
|
|
<ele>13.302351</ele>
|
|
<time>2026-07-11T11:00:52.000Z</time>
|
|
</trkpt>
|
|
<trkpt lat="55.595149" lon="8.320523">
|
|
<ele>13.346459</ele>
|
|
<time>2026-07-11T11:00:53.000Z</time>
|
|
</trkpt>
|
|
<trkpt lat="55.595139" lon="8.320448">
|
|
<ele>13.389263</ele>
|
|
<time>2026-07-11T11:00:54.000Z</time>
|
|
</trkpt>
|
|
<trkpt lat="55.595130" lon="8.320374">
|
|
<ele>13.431309</ele>
|
|
<time>2026-07-11T11:00:55.000Z</time>
|
|
</trkpt>
|
|
<trkpt lat="55.595120" lon="8.320303">
|
|
<ele>13.471954</ele>
|
|
<time>2026-07-11T11:00:56.000Z</time>
|
|
</trkpt>
|
|
<trkpt lat="55.595113" lon="8.320235">
|
|
<ele>13.510347</ele>
|
|
<time>2026-07-11T11:00:57.000Z</time>
|
|
</trkpt>
|
|
<trkpt lat="55.595103" lon="8.320163">
|
|
<ele>13.551531</ele>
|
|
<time>2026-07-11T11:00:58.000Z</time>
|
|
</trkpt>
|
|
<trkpt lat="55.595093" lon="8.320092">
|
|
<ele>13.592176</ele>
|
|
<time>2026-07-11T11:00:59.000Z</time>
|
|
</trkpt>
|
|
<trkpt lat="55.595087" lon="8.320025">
|
|
<ele>13.629857</ele>
|
|
<time>2026-07-11T11:01:00.000Z</time>
|
|
</trkpt>
|
|
<trkpt lat="55.595080" lon="8.319960">
|
|
<ele>13.666612</ele>
|
|
<time>2026-07-11T11:01:01.000Z</time>
|
|
</trkpt>
|
|
<trkpt lat="55.595069" lon="8.319893">
|
|
<ele>13.705368</ele>
|
|
<time>2026-07-11T11:01:02.000Z</time>
|
|
</trkpt>
|
|
<trkpt lat="55.595056" lon="8.319821">
|
|
<ele>13.747354</ele>
|
|
<time>2026-07-11T11:01:03.000Z</time>
|
|
</trkpt>
|
|
<trkpt lat="55.595040" lon="8.319746">
|
|
<ele>13.791884</ele>
|
|
<time>2026-07-11T11:01:04.000Z</time>
|
|
</trkpt>
|
|
<trkpt lat="55.595025" lon="8.319672">
|
|
<ele>13.835554</ele>
|
|
<time>2026-07-11T11:01:05.000Z</time>
|
|
</trkpt>
|
|
<trkpt lat="55.595006" lon="8.319597">
|
|
<ele>13.881209</ele>
|
|
<time>2026-07-11T11:01:06.000Z</time>
|
|
</trkpt>
|
|
<trkpt lat="55.594982" lon="8.319526">
|
|
<ele>13.927166</ele>
|
|
<time>2026-07-11T11:01:07.000Z</time>
|
|
</trkpt>
|
|
<trkpt lat="55.594956" lon="8.319455">
|
|
<ele>13.974162</ele>
|
|
<time>2026-07-11T11:01:08.000Z</time>
|
|
</trkpt>
|
|
<trkpt lat="55.594928" lon="8.319375">
|
|
<ele>14.026434</ele>
|
|
<time>2026-07-11T11:01:09.000Z</time>
|
|
</trkpt>
|
|
<trkpt lat="55.594900" lon="8.319300">
|
|
<ele>14.076367</ele>
|
|
<time>2026-07-11T11:01:10.000Z</time>
|
|
</trkpt>
|
|
<trkpt lat="55.594871" lon="8.319229">
|
|
<ele>14.125030</ele>
|
|
<time>2026-07-11T11:01:11.000Z</time>
|
|
</trkpt>
|
|
<trkpt lat="55.594844" lon="8.319161">
|
|
<ele>14.171196</ele>
|
|
<time>2026-07-11T11:01:12.000Z</time>
|
|
</trkpt>
|
|
<trkpt lat="55.594818" lon="8.319088">
|
|
<ele>14.219128</ele>
|
|
<time>2026-07-11T11:01:13.000Z</time>
|
|
</trkpt>
|
|
<trkpt lat="55.594789" lon="8.319012">
|
|
<ele>14.270069</ele>
|
|
<time>2026-07-11T11:01:14.000Z</time>
|
|
</trkpt>
|
|
<trkpt lat="55.594759" lon="8.318935">
|
|
<ele>14.322022</ele>
|
|
<time>2026-07-11T11:01:15.000Z</time>
|
|
</trkpt>
|
|
<trkpt lat="55.594727" lon="8.318862">
|
|
<ele>14.373343</ele>
|
|
<time>2026-07-11T11:01:16.000Z</time>
|
|
</trkpt>
|
|
<trkpt lat="55.594690" lon="8.318789">
|
|
<ele>14.427816</ele>
|
|
<time>2026-07-11T11:01:17.000Z</time>
|
|
</trkpt>
|
|
<trkpt lat="55.594652" lon="8.318717">
|
|
<ele>14.482543</ele>
|
|
<time>2026-07-11T11:01:18.000Z</time>
|
|
</trkpt>
|
|
<trkpt lat="55.594614" lon="8.318646">
|
|
<ele>14.536865</ele>
|
|
<time>2026-07-11T11:01:19.000Z</time>
|
|
</trkpt>
|
|
<trkpt lat="55.594576" lon="8.318574">
|
|
<ele>14.591592</ele>
|
|
<time>2026-07-11T11:01:20.000Z</time>
|
|
</trkpt>
|
|
<trkpt lat="55.594536" lon="8.318503">
|
|
<ele>14.647284</ele>
|
|
<time>2026-07-11T11:01:21.000Z</time>
|
|
</trkpt>
|
|
<trkpt lat="55.594494" lon="8.318432">
|
|
<ele>14.704382</ele>
|
|
<time>2026-07-11T11:01:22.000Z</time>
|
|
</trkpt>
|
|
<trkpt lat="55.594452" lon="8.318362">
|
|
<ele>14.761097</ele>
|
|
<time>2026-07-11T11:01:23.000Z</time>
|
|
</trkpt>
|
|
<trkpt lat="55.594412" lon="8.318293">
|
|
<ele>14.816009</ele>
|
|
<time>2026-07-11T11:01:24.000Z</time>
|
|
</trkpt>
|
|
<trkpt lat="55.594372" lon="8.318224">
|
|
<ele>14.844288</ele>
|
|
<time>2026-07-11T11:01:25.000Z</time>
|
|
</trkpt>
|
|
<trkpt lat="55.594332" lon="8.318157">
|
|
<ele>14.835255</ele>
|
|
<time>2026-07-11T11:01:26.000Z</time>
|
|
</trkpt>
|
|
<trkpt lat="55.594294" lon="8.318091">
|
|
<ele>14.826523</ele>
|
|
<time>2026-07-11T11:01:27.000Z</time>
|
|
</trkpt>
|
|
<trkpt lat="55.594255" lon="8.318026">
|
|
<ele>14.817737</ele>
|
|
<time>2026-07-11T11:01:28.000Z</time>
|
|
</trkpt>
|
|
<trkpt lat="55.594217" lon="8.317962">
|
|
<ele>14.809133</ele>
|
|
<time>2026-07-11T11:01:29.000Z</time>
|
|
</trkpt>
|
|
<trkpt lat="55.594179" lon="8.317896">
|
|
<ele>14.800401</ele>
|
|
<time>2026-07-11T11:01:30.000Z</time>
|
|
</trkpt>
|
|
<trkpt lat="55.594143" lon="8.317828">
|
|
<ele>14.791765</ele>
|
|
<time>2026-07-11T11:01:31.000Z</time>
|
|
</trkpt>
|
|
<trkpt lat="55.594108" lon="8.317759">
|
|
<ele>14.783172</ele>
|
|
<time>2026-07-11T11:01:32.000Z</time>
|
|
</trkpt>
|
|
<trkpt lat="55.594074" lon="8.317688">
|
|
<ele>14.774547</ele>
|
|
<time>2026-07-11T11:01:33.000Z</time>
|
|
</trkpt>
|
|
<trkpt lat="55.594040" lon="8.317616">
|
|
<ele>14.765851</ele>
|
|
<time>2026-07-11T11:01:34.000Z</time>
|
|
</trkpt>
|
|
<trkpt lat="55.594006" lon="8.317545">
|
|
<ele>14.757226</ele>
|
|
<time>2026-07-11T11:01:35.000Z</time>
|
|
</trkpt>
|
|
<trkpt lat="55.593975" lon="8.317470">
|
|
<ele>14.748615</ele>
|
|
<time>2026-07-11T11:01:36.000Z</time>
|
|
</trkpt>
|
|
<trkpt lat="55.593946" lon="8.317391">
|
|
<ele>14.739884</ele>
|
|
<time>2026-07-11T11:01:37.000Z</time>
|
|
</trkpt>
|
|
<trkpt lat="55.593917" lon="8.317313">
|
|
<ele>14.731231</ele>
|
|
<time>2026-07-11T11:01:38.000Z</time>
|
|
</trkpt>
|
|
<trkpt lat="55.593891" lon="8.317233">
|
|
<ele>14.722678</ele>
|
|
<time>2026-07-11T11:01:39.000Z</time>
|
|
</trkpt>
|
|
<trkpt lat="55.593864" lon="8.317151">
|
|
<ele>14.713883</ele>
|
|
<time>2026-07-11T11:01:40.000Z</time>
|
|
</trkpt>
|
|
<trkpt lat="55.593836" lon="8.317069">
|
|
<ele>14.705004</ele>
|
|
<time>2026-07-11T11:01:41.000Z</time>
|
|
</trkpt>
|
|
<trkpt lat="55.593810" lon="8.316984">
|
|
<ele>14.696046</ele>
|
|
<time>2026-07-11T11:01:42.000Z</time>
|
|
</trkpt>
|
|
<trkpt lat="55.593789" lon="8.316896">
|
|
<ele>14.687193</ele>
|
|
<time>2026-07-11T11:01:43.000Z</time>
|
|
</trkpt>
|
|
<trkpt lat="55.593770" lon="8.316806">
|
|
<ele>14.678290</ele>
|
|
<time>2026-07-11T11:01:44.000Z</time>
|
|
</trkpt>
|
|
<trkpt lat="55.593756" lon="8.316716">
|
|
<ele>14.669639</ele>
|
|
<time>2026-07-11T11:01:45.000Z</time>
|
|
</trkpt>
|
|
<trkpt lat="55.593743" lon="8.316627">
|
|
<ele>14.661119</ele>
|
|
<time>2026-07-11T11:01:46.000Z</time>
|
|
</trkpt>
|
|
<trkpt lat="55.593726" lon="8.316536">
|
|
<ele>14.652237</ele>
|
|
<time>2026-07-11T11:01:47.000Z</time>
|
|
</trkpt>
|
|
<trkpt lat="55.593709" lon="8.316446">
|
|
<ele>14.643443</ele>
|
|
<time>2026-07-11T11:01:48.000Z</time>
|
|
</trkpt>
|
|
<trkpt lat="55.593695" lon="8.316357">
|
|
<ele>14.634881</ele>
|
|
<time>2026-07-11T11:01:49.000Z</time>
|
|
</trkpt>
|
|
<trkpt lat="55.593682" lon="8.316269">
|
|
<ele>14.626451</ele>
|
|
<time>2026-07-11T11:01:50.000Z</time>
|
|
</trkpt>
|
|
<trkpt lat="55.593669" lon="8.316179">
|
|
<ele>14.617842</ele>
|
|
<time>2026-07-11T11:01:51.000Z</time>
|
|
</trkpt>
|
|
<trkpt lat="55.593655" lon="8.316088">
|
|
<ele>14.609102</ele>
|
|
<time>2026-07-11T11:01:52.000Z</time>
|
|
</trkpt>
|
|
<trkpt lat="55.593644" lon="8.315996">
|
|
<ele>14.600387</ele>
|
|
<time>2026-07-11T11:01:53.000Z</time>
|
|
</trkpt>
|
|
<trkpt lat="55.593634" lon="8.315905">
|
|
<ele>14.591796</ele>
|
|
<time>2026-07-11T11:01:54.000Z</time>
|
|
</trkpt>
|
|
<trkpt lat="55.593621" lon="8.315814">
|
|
<ele>14.583097</ele>
|
|
<time>2026-07-11T11:01:55.000Z</time>
|
|
</trkpt>
|
|
<trkpt lat="55.593608" lon="8.315722">
|
|
<ele>14.574308</ele>
|
|
<time>2026-07-11T11:01:56.000Z</time>
|
|
</trkpt>
|
|
<trkpt lat="55.593596" lon="8.315627">
|
|
<ele>14.565287</ele>
|
|
<time>2026-07-11T11:01:57.000Z</time>
|
|
</trkpt>
|
|
<trkpt lat="55.593583" lon="8.315530">
|
|
<ele>14.556048</ele>
|
|
<time>2026-07-11T11:01:58.000Z</time>
|
|
</trkpt>
|
|
<trkpt lat="55.593568" lon="8.315432">
|
|
<ele>14.508731</ele>
|
|
<time>2026-07-11T11:01:59.000Z</time>
|
|
</trkpt>
|
|
<trkpt lat="55.593554" lon="8.315333">
|
|
<ele>14.443798</ele>
|
|
<time>2026-07-11T11:02:00.000Z</time>
|
|
</trkpt>
|
|
<trkpt lat="55.593541" lon="8.315234">
|
|
<ele>14.379130</ele>
|
|
<time>2026-07-11T11:02:01.000Z</time>
|
|
</trkpt>
|
|
<trkpt lat="55.593526" lon="8.315139">
|
|
<ele>14.316369</ele>
|
|
<time>2026-07-11T11:02:02.000Z</time>
|
|
</trkpt>
|
|
<trkpt lat="55.593511" lon="8.315043">
|
|
<ele>14.252995</ele>
|
|
<time>2026-07-11T11:02:03.000Z</time>
|
|
</trkpt>
|
|
<trkpt lat="55.593495" lon="8.314945">
|
|
<ele>14.188091</ele>
|
|
<time>2026-07-11T11:02:04.000Z</time>
|
|
</trkpt>
|
|
<trkpt lat="55.593480" lon="8.314849">
|
|
<ele>14.124717</ele>
|
|
<time>2026-07-11T11:02:05.000Z</time>
|
|
</trkpt>
|
|
<trkpt lat="55.593466" lon="8.314757">
|
|
<ele>14.064095</ele>
|
|
<time>2026-07-11T11:02:06.000Z</time>
|
|
</trkpt>
|
|
<trkpt lat="55.593453" lon="8.314664">
|
|
<ele>14.003138</ele>
|
|
<time>2026-07-11T11:02:07.000Z</time>
|
|
</trkpt>
|
|
<trkpt lat="55.593438" lon="8.314572">
|
|
<ele>13.942214</ele>
|
|
<time>2026-07-11T11:02:08.000Z</time>
|
|
</trkpt>
|
|
<trkpt lat="55.593423" lon="8.314478">
|
|
<ele>13.880066</ele>
|
|
<time>2026-07-11T11:02:09.000Z</time>
|
|
</trkpt>
|
|
<trkpt lat="55.593409" lon="8.314382">
|
|
<ele>13.816983</ele>
|
|
<time>2026-07-11T11:02:10.000Z</time>
|
|
</trkpt>
|
|
<trkpt lat="55.593398" lon="8.314289">
|
|
<ele>13.756527</ele>
|
|
<time>2026-07-11T11:02:11.000Z</time>
|
|
</trkpt>
|
|
<trkpt lat="55.593385" lon="8.314195">
|
|
<ele>13.694953</ele>
|
|
<time>2026-07-11T11:02:12.000Z</time>
|
|
</trkpt>
|
|
<trkpt lat="55.593369" lon="8.314104">
|
|
<ele>13.634314</ele>
|
|
<time>2026-07-11T11:02:13.000Z</time>
|
|
</trkpt>
|
|
<trkpt lat="55.593356" lon="8.314013">
|
|
<ele>13.574592</ele>
|
|
<time>2026-07-11T11:02:14.000Z</time>
|
|
</trkpt>
|
|
<trkpt lat="55.593346" lon="8.313921">
|
|
<ele>13.514982</ele>
|
|
<time>2026-07-11T11:02:15.000Z</time>
|
|
</trkpt>
|
|
<trkpt lat="55.593335" lon="8.313825">
|
|
<ele>13.452657</ele>
|
|
<time>2026-07-11T11:02:16.000Z</time>
|
|
</trkpt>
|
|
<trkpt lat="55.593320" lon="8.313730">
|
|
<ele>13.389896</ele>
|
|
<time>2026-07-11T11:02:17.000Z</time>
|
|
</trkpt>
|
|
<trkpt lat="55.593306" lon="8.313634">
|
|
<ele>13.326813</ele>
|
|
<time>2026-07-11T11:02:18.000Z</time>
|
|
</trkpt>
|
|
<trkpt lat="55.593293" lon="8.313538">
|
|
<ele>13.264002</ele>
|
|
<time>2026-07-11T11:02:19.000Z</time>
|
|
</trkpt>
|
|
<trkpt lat="55.593278" lon="8.313443">
|
|
<ele>13.201241</ele>
|
|
<time>2026-07-11T11:02:20.000Z</time>
|
|
</trkpt>
|
|
<trkpt lat="55.593263" lon="8.313348">
|
|
<ele>13.138480</ele>
|
|
<time>2026-07-11T11:02:21.000Z</time>
|
|
</trkpt>
|
|
<trkpt lat="55.593247" lon="8.313252">
|
|
<ele>13.074796</ele>
|
|
<time>2026-07-11T11:02:22.000Z</time>
|
|
</trkpt>
|
|
<trkpt lat="55.593232" lon="8.313155">
|
|
<ele>13.010809</ele>
|
|
<time>2026-07-11T11:02:23.000Z</time>
|
|
</trkpt>
|
|
<trkpt lat="55.593220" lon="8.313061">
|
|
<ele>12.949492</ele>
|
|
<time>2026-07-11T11:02:24.000Z</time>
|
|
</trkpt>
|
|
<trkpt lat="55.593209" lon="8.312968">
|
|
<ele>12.889037</ele>
|
|
<time>2026-07-11T11:02:25.000Z</time>
|
|
</trkpt>
|
|
<trkpt lat="55.593196" lon="8.312874">
|
|
<ele>12.827462</ele>
|
|
<time>2026-07-11T11:02:26.000Z</time>
|
|
</trkpt>
|
|
<trkpt lat="55.593182" lon="8.312779">
|
|
<ele>12.764994</ele>
|
|
<time>2026-07-11T11:02:27.000Z</time>
|
|
</trkpt>
|
|
<trkpt lat="55.593167" lon="8.312685">
|
|
<ele>12.702846</ele>
|
|
<time>2026-07-11T11:02:28.000Z</time>
|
|
</trkpt>
|
|
<trkpt lat="55.593152" lon="8.312591">
|
|
<ele>12.640697</ele>
|
|
<time>2026-07-11T11:02:29.000Z</time>
|
|
</trkpt>
|
|
<trkpt lat="55.593137" lon="8.312492">
|
|
<ele>12.575481</ele>
|
|
<time>2026-07-11T11:02:30.000Z</time>
|
|
</trkpt>
|
|
<trkpt lat="55.593123" lon="8.312389">
|
|
<ele>12.501082</ele>
|
|
<time>2026-07-11T11:02:31.000Z</time>
|
|
</trkpt>
|
|
<trkpt lat="55.593115" lon="8.312288">
|
|
<ele>12.413186</ele>
|
|
<time>2026-07-11T11:02:32.000Z</time>
|
|
</trkpt>
|
|
<trkpt lat="55.593108" lon="8.312186">
|
|
<ele>12.324634</ele>
|
|
<time>2026-07-11T11:02:33.000Z</time>
|
|
</trkpt>
|
|
<trkpt lat="55.593100" lon="8.312080">
|
|
<ele>12.232469</ele>
|
|
<time>2026-07-11T11:02:34.000Z</time>
|
|
</trkpt>
|
|
<trkpt lat="55.593094" lon="8.311972">
|
|
<ele>12.138943</ele>
|
|
<time>2026-07-11T11:02:35.000Z</time>
|
|
</trkpt>
|
|
<trkpt lat="55.593090" lon="8.311863">
|
|
<ele>12.044806</ele>
|
|
<time>2026-07-11T11:02:36.000Z</time>
|
|
</trkpt>
|
|
<trkpt lat="55.593087" lon="8.311753">
|
|
<ele>11.949894</ele>
|
|
<time>2026-07-11T11:02:37.000Z</time>
|
|
</trkpt>
|
|
<trkpt lat="55.593084" lon="8.311646">
|
|
<ele>11.857565</ele>
|
|
<time>2026-07-11T11:02:38.000Z</time>
|
|
</trkpt>
|
|
<trkpt lat="55.593086" lon="8.311543">
|
|
<ele>11.768744</ele>
|
|
<time>2026-07-11T11:02:39.000Z</time>
|
|
</trkpt>
|
|
<trkpt lat="55.593089" lon="8.311444">
|
|
<ele>11.683301</ele>
|
|
<time>2026-07-11T11:02:40.000Z</time>
|
|
</trkpt>
|
|
<trkpt lat="55.593097" lon="8.311345">
|
|
<ele>11.597112</ele>
|
|
<time>2026-07-11T11:02:41.000Z</time>
|
|
</trkpt>
|
|
<trkpt lat="55.593105" lon="8.311239">
|
|
<ele>11.504947</ele>
|
|
<time>2026-07-11T11:02:42.000Z</time>
|
|
</trkpt>
|
|
<trkpt lat="55.593112" lon="8.311136">
|
|
<ele>11.415539</ele>
|
|
<time>2026-07-11T11:02:43.000Z</time>
|
|
</trkpt>
|
|
<trkpt lat="55.593122" lon="8.311037">
|
|
<ele>11.328866</ele>
|
|
<time>2026-07-11T11:02:44.000Z</time>
|
|
</trkpt>
|
|
<trkpt lat="55.593133" lon="8.310939">
|
|
<ele>11.242756</ele>
|
|
<time>2026-07-11T11:02:45.000Z</time>
|
|
</trkpt>
|
|
<trkpt lat="55.593148" lon="8.310841">
|
|
<ele>11.155254</ele>
|
|
<time>2026-07-11T11:02:46.000Z</time>
|
|
</trkpt>
|
|
<trkpt lat="55.593167" lon="8.310743">
|
|
<ele>11.065962</ele>
|
|
<time>2026-07-11T11:02:47.000Z</time>
|
|
</trkpt>
|
|
<trkpt lat="55.593188" lon="8.310644">
|
|
<ele>10.974827</ele>
|
|
<time>2026-07-11T11:02:48.000Z</time>
|
|
</trkpt>
|
|
<trkpt lat="55.593209" lon="8.310544">
|
|
<ele>10.882886</ele>
|
|
<time>2026-07-11T11:02:49.000Z</time>
|
|
</trkpt>
|
|
<trkpt lat="55.593228" lon="8.310447">
|
|
<ele>10.794408</ele>
|
|
<time>2026-07-11T11:02:50.000Z</time>
|
|
</trkpt>
|
|
<trkpt lat="55.593249" lon="8.310351">
|
|
<ele>10.705690</ele>
|
|
<time>2026-07-11T11:02:51.000Z</time>
|
|
</trkpt>
|
|
<trkpt lat="55.593270" lon="8.310257">
|
|
<ele>10.618577</ele>
|
|
<time>2026-07-11T11:02:52.000Z</time>
|
|
</trkpt>
|
|
<trkpt lat="55.593289" lon="8.310163">
|
|
<ele>10.532538</ele>
|
|
<time>2026-07-11T11:02:53.000Z</time>
|
|
</trkpt>
|
|
<trkpt lat="55.593310" lon="8.310067">
|
|
<ele>10.443820</ele>
|
|
<time>2026-07-11T11:02:54.000Z</time>
|
|
</trkpt>
|
|
<trkpt lat="55.593331" lon="8.309969">
|
|
<ele>10.353492</ele>
|
|
<time>2026-07-11T11:02:55.000Z</time>
|
|
</trkpt>
|
|
<trkpt lat="55.593354" lon="8.309869">
|
|
<ele>10.260444</ele>
|
|
<time>2026-07-11T11:02:56.000Z</time>
|
|
</trkpt>
|
|
<trkpt lat="55.593380" lon="8.309770">
|
|
<ele>10.166359</ele>
|
|
<time>2026-07-11T11:02:57.000Z</time>
|
|
</trkpt>
|
|
<trkpt lat="55.593407" lon="8.309669">
|
|
<ele>10.070066</ele>
|
|
<time>2026-07-11T11:02:58.000Z</time>
|
|
</trkpt>
|
|
<trkpt lat="55.593434" lon="8.309564">
|
|
<ele>9.970645</ele>
|
|
<time>2026-07-11T11:02:59.000Z</time>
|
|
</trkpt>
|
|
<trkpt lat="55.593459" lon="8.309461">
|
|
<ele>9.874035</ele>
|
|
<time>2026-07-11T11:03:00.000Z</time>
|
|
</trkpt>
|
|
<trkpt lat="55.593483" lon="8.309361">
|
|
<ele>9.782379</ele>
|
|
<time>2026-07-11T11:03:01.000Z</time>
|
|
</trkpt>
|
|
<trkpt lat="55.593507" lon="8.309266">
|
|
<ele>9.735430</ele>
|
|
<time>2026-07-11T11:03:02.000Z</time>
|
|
</trkpt>
|
|
<trkpt lat="55.593529" lon="8.309173">
|
|
<ele>9.689944</ele>
|
|
<time>2026-07-11T11:03:03.000Z</time>
|
|
</trkpt>
|
|
<trkpt lat="55.593554" lon="8.309077">
|
|
<ele>9.642254</ele>
|
|
<time>2026-07-11T11:03:04.000Z</time>
|
|
</trkpt>
|
|
<trkpt lat="55.593579" lon="8.308978">
|
|
<ele>9.593332</ele>
|
|
<time>2026-07-11T11:03:05.000Z</time>
|
|
</trkpt>
|
|
<trkpt lat="55.593604" lon="8.308875">
|
|
<ele>9.542757</ele>
|
|
<time>2026-07-11T11:03:06.000Z</time>
|
|
</trkpt>
|
|
<trkpt lat="55.593628" lon="8.308768">
|
|
<ele>9.490818</ele>
|
|
<time>2026-07-11T11:03:07.000Z</time>
|
|
</trkpt>
|
|
<trkpt lat="55.593655" lon="8.308661">
|
|
<ele>9.437949</ele>
|
|
<time>2026-07-11T11:03:08.000Z</time>
|
|
</trkpt>
|
|
<trkpt lat="55.593680" lon="8.308550">
|
|
<ele>9.384039</ele>
|
|
<time>2026-07-11T11:03:09.000Z</time>
|
|
</trkpt>
|
|
<trkpt lat="55.593705" lon="8.308436">
|
|
<ele>9.328870</ele>
|
|
<time>2026-07-11T11:03:10.000Z</time>
|
|
</trkpt>
|
|
<trkpt lat="55.593730" lon="8.308324">
|
|
<ele>9.274540</ele>
|
|
<time>2026-07-11T11:03:11.000Z</time>
|
|
</trkpt>
|
|
<trkpt lat="55.593754" lon="8.308217">
|
|
<ele>9.222602</ele>
|
|
<time>2026-07-11T11:03:12.000Z</time>
|
|
</trkpt>
|
|
<trkpt lat="55.593782" lon="8.308108">
|
|
<ele>9.168583</ele>
|
|
<time>2026-07-11T11:03:13.000Z</time>
|
|
</trkpt>
|
|
<trkpt lat="55.593813" lon="8.307997">
|
|
<ele>9.112721</ele>
|
|
<time>2026-07-11T11:03:14.000Z</time>
|
|
</trkpt>
|
|
<trkpt lat="55.593842" lon="8.307888">
|
|
<ele>9.058367</ele>
|
|
<time>2026-07-11T11:03:15.000Z</time>
|
|
</trkpt>
|
|
<trkpt lat="55.593872" lon="8.307782">
|
|
<ele>9.004881</ele>
|
|
<time>2026-07-11T11:03:16.000Z</time>
|
|
</trkpt>
|
|
<trkpt lat="55.593905" lon="8.307680">
|
|
<ele>8.951854</ele>
|
|
<time>2026-07-11T11:03:17.000Z</time>
|
|
</trkpt>
|
|
<trkpt lat="55.593937" lon="8.307583">
|
|
<ele>8.901179</ele>
|
|
<time>2026-07-11T11:03:18.000Z</time>
|
|
</trkpt>
|
|
<trkpt lat="55.593975" lon="8.307493">
|
|
<ele>8.850492</ele>
|
|
<time>2026-07-11T11:03:19.000Z</time>
|
|
</trkpt>
|
|
<trkpt lat="55.594016" lon="8.307407">
|
|
<ele>8.799727</ele>
|
|
<time>2026-07-11T11:03:20.000Z</time>
|
|
</trkpt>
|
|
<trkpt lat="55.594060" lon="8.307322">
|
|
<ele>8.747720</ele>
|
|
<time>2026-07-11T11:03:21.000Z</time>
|
|
</trkpt>
|
|
<trkpt lat="55.594106" lon="8.307238">
|
|
<ele>8.694946</ele>
|
|
<time>2026-07-11T11:03:22.000Z</time>
|
|
</trkpt>
|
|
<trkpt lat="55.594154" lon="8.307154">
|
|
<ele>8.641048</ele>
|
|
<time>2026-07-11T11:03:23.000Z</time>
|
|
</trkpt>
|
|
<trkpt lat="55.594203" lon="8.307069">
|
|
<ele>8.586265</ele>
|
|
<time>2026-07-11T11:03:24.000Z</time>
|
|
</trkpt>
|
|
<trkpt lat="55.594251" lon="8.306981">
|
|
<ele>8.531084</ele>
|
|
<time>2026-07-11T11:03:25.000Z</time>
|
|
</trkpt>
|
|
<trkpt lat="55.594295" lon="8.306895">
|
|
<ele>8.478743</ele>
|
|
<time>2026-07-11T11:03:26.000Z</time>
|
|
</trkpt>
|
|
<trkpt lat="55.594339" lon="8.306809">
|
|
<ele>8.426402</ele>
|
|
<time>2026-07-11T11:03:27.000Z</time>
|
|
</trkpt>
|
|
<trkpt lat="55.594385" lon="8.306724">
|
|
<ele>8.373303</ele>
|
|
<time>2026-07-11T11:03:28.000Z</time>
|
|
</trkpt>
|
|
<trkpt lat="55.594429" lon="8.306635">
|
|
<ele>8.412884</ele>
|
|
<time>2026-07-11T11:03:29.000Z</time>
|
|
</trkpt>
|
|
<trkpt lat="55.594469" lon="8.306545">
|
|
<ele>8.529618</ele>
|
|
<time>2026-07-11T11:03:30.000Z</time>
|
|
</trkpt>
|
|
<trkpt lat="55.594505" lon="8.306456">
|
|
<ele>8.641203</ele>
|
|
<time>2026-07-11T11:03:31.000Z</time>
|
|
</trkpt>
|
|
<trkpt lat="55.594539" lon="8.306369">
|
|
<ele>8.749044</ele>
|
|
<time>2026-07-11T11:03:32.000Z</time>
|
|
</trkpt>
|
|
<trkpt lat="55.594574" lon="8.306280">
|
|
<ele>8.859588</ele>
|
|
<time>2026-07-11T11:03:33.000Z</time>
|
|
</trkpt>
|
|
<trkpt lat="55.594607" lon="8.306190">
|
|
<ele>8.968965</ele>
|
|
<time>2026-07-11T11:03:34.000Z</time>
|
|
</trkpt>
|
|
<trkpt lat="55.594637" lon="8.306104">
|
|
<ele>9.072001</ele>
|
|
<time>2026-07-11T11:03:35.000Z</time>
|
|
</trkpt>
|
|
<trkpt lat="55.594668" lon="8.306017">
|
|
<ele>9.176857</ele>
|
|
<time>2026-07-11T11:03:36.000Z</time>
|
|
</trkpt>
|
|
<trkpt lat="55.594695" lon="8.305928">
|
|
<ele>9.279840</ele>
|
|
<time>2026-07-11T11:03:37.000Z</time>
|
|
</trkpt>
|
|
<trkpt lat="55.594717" lon="8.305841">
|
|
<ele>9.377010</ele>
|
|
<time>2026-07-11T11:03:38.000Z</time>
|
|
</trkpt>
|
|
<trkpt lat="55.594740" lon="8.305753">
|
|
<ele>9.475855</ele>
|
|
<time>2026-07-11T11:03:39.000Z</time>
|
|
</trkpt>
|
|
<trkpt lat="55.594762" lon="8.305665">
|
|
<ele>9.573956</ele>
|
|
<time>2026-07-11T11:03:40.000Z</time>
|
|
</trkpt>
|
|
<trkpt lat="55.594782" lon="8.305578">
|
|
<ele>9.669709</ele>
|
|
<time>2026-07-11T11:03:41.000Z</time>
|
|
</trkpt>
|
|
<trkpt lat="55.594802" lon="8.305493">
|
|
<ele>9.763576</ele>
|
|
<time>2026-07-11T11:03:42.000Z</time>
|
|
</trkpt>
|
|
<trkpt lat="55.594819" lon="8.305409">
|
|
<ele>9.854538</ele>
|
|
<time>2026-07-11T11:03:43.000Z</time>
|
|
</trkpt>
|
|
<trkpt lat="55.594836" lon="8.305325">
|
|
<ele>9.945500</ele>
|
|
<time>2026-07-11T11:03:44.000Z</time>
|
|
</trkpt>
|
|
<trkpt lat="55.594850" lon="8.305240">
|
|
<ele>10.035760</ele>
|
|
<time>2026-07-11T11:03:45.000Z</time>
|
|
</trkpt>
|
|
<trkpt lat="55.594863" lon="8.305156">
|
|
<ele>10.124549</ele>
|
|
<time>2026-07-11T11:03:46.000Z</time>
|
|
</trkpt>
|
|
<trkpt lat="55.594876" lon="8.305075">
|
|
<ele>10.210391</ele>
|
|
<time>2026-07-11T11:03:47.000Z</time>
|
|
</trkpt>
|
|
<trkpt lat="55.594888" lon="8.304993">
|
|
<ele>10.296745</ele>
|
|
<time>2026-07-11T11:03:48.000Z</time>
|
|
</trkpt>
|
|
<trkpt lat="55.594900" lon="8.304913">
|
|
<ele>10.381126</ele>
|
|
<time>2026-07-11T11:03:49.000Z</time>
|
|
</trkpt>
|
|
<trkpt lat="55.594911" lon="8.304833">
|
|
<ele>10.465063</ele>
|
|
<time>2026-07-11T11:03:50.000Z</time>
|
|
</trkpt>
|
|
<trkpt lat="55.594924" lon="8.304756">
|
|
<ele>10.546990</ele>
|
|
<time>2026-07-11T11:03:51.000Z</time>
|
|
</trkpt>
|
|
<trkpt lat="55.594938" lon="8.304679">
|
|
<ele>10.629453</ele>
|
|
<time>2026-07-11T11:03:52.000Z</time>
|
|
</trkpt>
|
|
<trkpt lat="55.594953" lon="8.304603">
|
|
<ele>10.711522</ele>
|
|
<time>2026-07-11T11:03:53.000Z</time>
|
|
</trkpt>
|
|
<trkpt lat="55.594968" lon="8.304527">
|
|
<ele>10.793591</ele>
|
|
<time>2026-07-11T11:03:54.000Z</time>
|
|
</trkpt>
|
|
<trkpt lat="55.594981" lon="8.304450">
|
|
<ele>10.875518</ele>
|
|
<time>2026-07-11T11:03:55.000Z</time>
|
|
</trkpt>
|
|
<trkpt lat="55.594995" lon="8.304375">
|
|
<ele>10.956042</ele>
|
|
<time>2026-07-11T11:03:56.000Z</time>
|
|
</trkpt>
|
|
<trkpt lat="55.595007" lon="8.304300">
|
|
<ele>11.035507</ele>
|
|
<time>2026-07-11T11:03:57.000Z</time>
|
|
</trkpt>
|
|
<trkpt lat="55.595021" lon="8.304222">
|
|
<ele>11.118940</ele>
|
|
<time>2026-07-11T11:03:58.000Z</time>
|
|
</trkpt>
|
|
<trkpt lat="55.595033" lon="8.304143">
|
|
<ele>11.202337</ele>
|
|
<time>2026-07-11T11:03:59.000Z</time>
|
|
</trkpt>
|
|
<trkpt lat="55.595043" lon="8.304066">
|
|
<ele>11.282881</ele>
|
|
<time>2026-07-11T11:04:00.000Z</time>
|
|
</trkpt>
|
|
<trkpt lat="55.595052" lon="8.303989">
|
|
<ele>11.363041</ele>
|
|
<time>2026-07-11T11:04:01.000Z</time>
|
|
</trkpt>
|
|
<trkpt lat="55.595064" lon="8.303912">
|
|
<ele>11.444470</ele>
|
|
<time>2026-07-11T11:04:02.000Z</time>
|
|
</trkpt>
|
|
<trkpt lat="55.595077" lon="8.303835">
|
|
<ele>11.526397</ele>
|
|
<time>2026-07-11T11:04:03.000Z</time>
|
|
</trkpt>
|
|
<trkpt lat="55.595092" lon="8.303760">
|
|
<ele>11.603945</ele>
|
|
<time>2026-07-11T11:04:04.000Z</time>
|
|
</trkpt>
|
|
<trkpt lat="55.595106" lon="8.303687">
|
|
<ele>11.662402</ele>
|
|
<time>2026-07-11T11:04:05.000Z</time>
|
|
</trkpt>
|
|
<trkpt lat="55.595119" lon="8.303612">
|
|
<ele>11.721890</ele>
|
|
<time>2026-07-11T11:04:06.000Z</time>
|
|
</trkpt>
|
|
<trkpt lat="55.595132" lon="8.303537">
|
|
<ele>11.781378</ele>
|
|
<time>2026-07-11T11:04:07.000Z</time>
|
|
</trkpt>
|
|
<trkpt lat="55.595144" lon="8.303461">
|
|
<ele>11.841216</ele>
|
|
<time>2026-07-11T11:04:08.000Z</time>
|
|
</trkpt>
|
|
<trkpt lat="55.595155" lon="8.303383">
|
|
<ele>11.902177</ele>
|
|
<time>2026-07-11T11:04:09.000Z</time>
|
|
</trkpt>
|
|
<trkpt lat="55.595168" lon="8.303307">
|
|
<ele>11.962390</ele>
|
|
<time>2026-07-11T11:04:10.000Z</time>
|
|
</trkpt>
|
|
<trkpt lat="55.595182" lon="8.303233">
|
|
<ele>12.021565</ele>
|
|
<time>2026-07-11T11:04:11.000Z</time>
|
|
</trkpt>
|
|
<trkpt lat="55.595195" lon="8.303157">
|
|
<ele>12.081778</ele>
|
|
<time>2026-07-11T11:04:12.000Z</time>
|
|
</trkpt>
|
|
<trkpt lat="55.595208" lon="8.303082">
|
|
<ele>12.141266</ele>
|
|
<time>2026-07-11T11:04:13.000Z</time>
|
|
</trkpt>
|
|
<trkpt lat="55.595220" lon="8.303006">
|
|
<ele>12.201103</ele>
|
|
<time>2026-07-11T11:04:14.000Z</time>
|
|
</trkpt>
|
|
<trkpt lat="55.595231" lon="8.302932">
|
|
<ele>12.259126</ele>
|
|
<time>2026-07-11T11:04:15.000Z</time>
|
|
</trkpt>
|
|
<trkpt lat="55.595243" lon="8.302856">
|
|
<ele>12.318964</ele>
|
|
<time>2026-07-11T11:04:16.000Z</time>
|
|
</trkpt>
|
|
<trkpt lat="55.595255" lon="8.302785">
|
|
<ele>12.375159</ele>
|
|
<time>2026-07-11T11:04:17.000Z</time>
|
|
</trkpt>
|
|
<trkpt lat="55.595270" lon="8.302713">
|
|
<ele>12.433349</ele>
|
|
<time>2026-07-11T11:04:18.000Z</time>
|
|
</trkpt>
|
|
<trkpt lat="55.595286" lon="8.302634">
|
|
<ele>12.496986</ele>
|
|
<time>2026-07-11T11:04:19.000Z</time>
|
|
</trkpt>
|
|
<trkpt lat="55.595302" lon="8.302562">
|
|
<ele>12.555653</ele>
|
|
<time>2026-07-11T11:04:20.000Z</time>
|
|
</trkpt>
|
|
<trkpt lat="55.595317" lon="8.302486">
|
|
<ele>12.616698</ele>
|
|
<time>2026-07-11T11:04:21.000Z</time>
|
|
</trkpt>
|
|
<trkpt lat="55.595332" lon="8.302408">
|
|
<ele>12.679176</ele>
|
|
<time>2026-07-11T11:04:22.000Z</time>
|
|
</trkpt>
|
|
<trkpt lat="55.595348" lon="8.302327">
|
|
<ele>12.744243</ele>
|
|
<time>2026-07-11T11:04:23.000Z</time>
|
|
</trkpt>
|
|
<trkpt lat="55.595363" lon="8.302249">
|
|
<ele>12.806721</ele>
|
|
<time>2026-07-11T11:04:24.000Z</time>
|
|
</trkpt>
|
|
<trkpt lat="55.595378" lon="8.302171">
|
|
<ele>12.869199</ele>
|
|
<time>2026-07-11T11:04:25.000Z</time>
|
|
</trkpt>
|
|
<trkpt lat="55.595393" lon="8.302090">
|
|
<ele>12.933835</ele>
|
|
<time>2026-07-11T11:04:26.000Z</time>
|
|
</trkpt>
|
|
<trkpt lat="55.595409" lon="8.302009">
|
|
<ele>12.998901</ele>
|
|
<time>2026-07-11T11:04:27.000Z</time>
|
|
</trkpt>
|
|
<trkpt lat="55.595424" lon="8.301931">
|
|
<ele>13.061379</ele>
|
|
<time>2026-07-11T11:04:28.000Z</time>
|
|
</trkpt>
|
|
<trkpt lat="55.595441" lon="8.301854">
|
|
<ele>13.124066</ele>
|
|
<time>2026-07-11T11:04:29.000Z</time>
|
|
</trkpt>
|
|
<trkpt lat="55.595458" lon="8.301777">
|
|
<ele>13.186753</ele>
|
|
<time>2026-07-11T11:04:30.000Z</time>
|
|
</trkpt>
|
|
<trkpt lat="55.595475" lon="8.301701">
|
|
<ele>13.248734</ele>
|
|
<time>2026-07-11T11:04:31.000Z</time>
|
|
</trkpt>
|
|
<trkpt lat="55.595494" lon="8.301626">
|
|
<ele>13.311060</ele>
|
|
<time>2026-07-11T11:04:32.000Z</time>
|
|
</trkpt>
|
|
<trkpt lat="55.595511" lon="8.301551">
|
|
<ele>13.372337</ele>
|
|
<time>2026-07-11T11:04:33.000Z</time>
|
|
</trkpt>
|
|
<trkpt lat="55.595527" lon="8.301476">
|
|
<ele>13.433127</ele>
|
|
<time>2026-07-11T11:04:34.000Z</time>
|
|
</trkpt>
|
|
<trkpt lat="55.595545" lon="8.301405">
|
|
<ele>13.492136</ele>
|
|
<time>2026-07-11T11:04:35.000Z</time>
|
|
</trkpt>
|
|
<trkpt lat="55.595565" lon="8.301335">
|
|
<ele>13.551616</ele>
|
|
<time>2026-07-11T11:04:36.000Z</time>
|
|
</trkpt>
|
|
<trkpt lat="55.595582" lon="8.301264">
|
|
<ele>13.610088</ele>
|
|
<time>2026-07-11T11:04:37.000Z</time>
|
|
</trkpt>
|
|
<trkpt lat="55.595601" lon="8.301193">
|
|
<ele>13.669659</ele>
|
|
<time>2026-07-11T11:04:38.000Z</time>
|
|
</trkpt>
|
|
<trkpt lat="55.595620" lon="8.301122">
|
|
<ele>13.729230</ele>
|
|
<time>2026-07-11T11:04:39.000Z</time>
|
|
</trkpt>
|
|
<trkpt lat="55.595637" lon="8.301049">
|
|
<ele>13.789102</ele>
|
|
<time>2026-07-11T11:04:40.000Z</time>
|
|
</trkpt>
|
|
<trkpt lat="55.595654" lon="8.300975">
|
|
<ele>13.849676</ele>
|
|
<time>2026-07-11T11:04:41.000Z</time>
|
|
</trkpt>
|
|
<trkpt lat="55.595672" lon="8.300899">
|
|
<ele>13.912163</ele>
|
|
<time>2026-07-11T11:04:42.000Z</time>
|
|
</trkpt>
|
|
<trkpt lat="55.595688" lon="8.300823">
|
|
<ele>13.973663</ele>
|
|
<time>2026-07-11T11:04:43.000Z</time>
|
|
</trkpt>
|
|
<trkpt lat="55.595707" lon="8.300744">
|
|
<ele>14.009638</ele>
|
|
<time>2026-07-11T11:04:44.000Z</time>
|
|
</trkpt>
|
|
<trkpt lat="55.595725" lon="8.300662">
|
|
<ele>14.014344</ele>
|
|
<time>2026-07-11T11:04:45.000Z</time>
|
|
</trkpt>
|
|
<trkpt lat="55.595742" lon="8.300578">
|
|
<ele>14.019117</ele>
|
|
<time>2026-07-11T11:04:46.000Z</time>
|
|
</trkpt>
|
|
<trkpt lat="55.595761" lon="8.300492">
|
|
<ele>14.024057</ele>
|
|
<time>2026-07-11T11:04:47.000Z</time>
|
|
</trkpt>
|
|
<trkpt lat="55.595782" lon="8.300408">
|
|
<ele>14.028971</ele>
|
|
<time>2026-07-11T11:04:48.000Z</time>
|
|
</trkpt>
|
|
<trkpt lat="55.595803" lon="8.300327">
|
|
<ele>14.033738</ele>
|
|
<time>2026-07-11T11:04:49.000Z</time>
|
|
</trkpt>
|
|
<trkpt lat="55.595824" lon="8.300246">
|
|
<ele>14.038505</ele>
|
|
<time>2026-07-11T11:04:50.000Z</time>
|
|
</trkpt>
|
|
<trkpt lat="55.595846" lon="8.300165">
|
|
<ele>14.043313</ele>
|
|
<time>2026-07-11T11:04:51.000Z</time>
|
|
</trkpt>
|
|
<trkpt lat="55.595868" lon="8.300081">
|
|
<ele>14.048265</ele>
|
|
<time>2026-07-11T11:04:52.000Z</time>
|
|
</trkpt>
|
|
<trkpt lat="55.595887" lon="8.299995">
|
|
<ele>14.053205</ele>
|
|
<time>2026-07-11T11:04:53.000Z</time>
|
|
</trkpt>
|
|
<trkpt lat="55.595906" lon="8.299908">
|
|
<ele>14.058195</ele>
|
|
<time>2026-07-11T11:04:54.000Z</time>
|
|
</trkpt>
|
|
<trkpt lat="55.595925" lon="8.299822">
|
|
<ele>14.063134</ele>
|
|
<time>2026-07-11T11:04:55.000Z</time>
|
|
</trkpt>
|
|
<trkpt lat="55.595948" lon="8.299739">
|
|
<ele>14.068079</ele>
|
|
<time>2026-07-11T11:04:56.000Z</time>
|
|
</trkpt>
|
|
<trkpt lat="55.595971" lon="8.299654">
|
|
<ele>14.073121</ele>
|
|
<time>2026-07-11T11:04:57.000Z</time>
|
|
</trkpt>
|
|
<trkpt lat="55.595992" lon="8.299565">
|
|
<ele>14.078280</ele>
|
|
<time>2026-07-11T11:04:58.000Z</time>
|
|
</trkpt>
|
|
<trkpt lat="55.596015" lon="8.299478">
|
|
<ele>14.083418</ele>
|
|
<time>2026-07-11T11:04:59.000Z</time>
|
|
</trkpt>
|
|
<trkpt lat="55.596036" lon="8.299390">
|
|
<ele>14.088528</ele>
|
|
<time>2026-07-11T11:05:00.000Z</time>
|
|
</trkpt>
|
|
<trkpt lat="55.596055" lon="8.299302">
|
|
<ele>14.093568</ele>
|
|
<time>2026-07-11T11:05:01.000Z</time>
|
|
</trkpt>
|
|
<trkpt lat="55.596074" lon="8.299213">
|
|
<ele>14.098657</ele>
|
|
<time>2026-07-11T11:05:02.000Z</time>
|
|
</trkpt>
|
|
<trkpt lat="55.596093" lon="8.299126">
|
|
<ele>14.103646</ele>
|
|
<time>2026-07-11T11:05:03.000Z</time>
|
|
</trkpt>
|
|
<trkpt lat="55.596114" lon="8.299045">
|
|
<ele>14.108414</ele>
|
|
<time>2026-07-11T11:05:04.000Z</time>
|
|
</trkpt>
|
|
<trkpt lat="55.596137" lon="8.298972">
|
|
<ele>14.112885</ele>
|
|
<time>2026-07-11T11:05:05.000Z</time>
|
|
</trkpt>
|
|
<trkpt lat="55.596158" lon="8.298907">
|
|
<ele>14.116890</ele>
|
|
<time>2026-07-11T11:05:06.000Z</time>
|
|
</trkpt>
|
|
<trkpt lat="55.596179" lon="8.298842">
|
|
<ele>14.120895</ele>
|
|
<time>2026-07-11T11:05:07.000Z</time>
|
|
</trkpt>
|
|
<trkpt lat="55.596200" lon="8.298773">
|
|
<ele>14.125088</ele>
|
|
<time>2026-07-11T11:05:08.000Z</time>
|
|
</trkpt>
|
|
<trkpt lat="55.596220" lon="8.298707">
|
|
<ele>14.129094</ele>
|
|
<time>2026-07-11T11:05:09.000Z</time>
|
|
</trkpt>
|
|
<trkpt lat="55.596241" lon="8.298640">
|
|
<ele>14.133193</ele>
|
|
<time>2026-07-11T11:05:10.000Z</time>
|
|
</trkpt>
|
|
<trkpt lat="55.596260" lon="8.298567">
|
|
<ele>14.137492</ele>
|
|
<time>2026-07-11T11:05:11.000Z</time>
|
|
</trkpt>
|
|
<trkpt lat="55.596283" lon="8.298484">
|
|
<ele>14.142437</ele>
|
|
<time>2026-07-11T11:05:12.000Z</time>
|
|
</trkpt>
|
|
<trkpt lat="55.596308" lon="8.298406">
|
|
<ele>14.147234</ele>
|
|
<time>2026-07-11T11:05:13.000Z</time>
|
|
</trkpt>
|
|
<trkpt lat="55.596331" lon="8.298335">
|
|
<ele>14.151612</ele>
|
|
<time>2026-07-11T11:05:14.000Z</time>
|
|
</trkpt>
|
|
<trkpt lat="55.596354" lon="8.298259">
|
|
<ele>14.156224</ele>
|
|
<time>2026-07-11T11:05:15.000Z</time>
|
|
</trkpt>
|
|
<trkpt lat="55.596377" lon="8.298178">
|
|
<ele>14.161073</ele>
|
|
<time>2026-07-11T11:05:16.000Z</time>
|
|
</trkpt>
|
|
<trkpt lat="55.596401" lon="8.298093">
|
|
<ele>14.166156</ele>
|
|
<time>2026-07-11T11:05:17.000Z</time>
|
|
</trkpt>
|
|
<trkpt lat="55.596425" lon="8.298002">
|
|
<ele>14.171528</ele>
|
|
<time>2026-07-11T11:05:18.000Z</time>
|
|
</trkpt>
|
|
<trkpt lat="55.596446" lon="8.297905">
|
|
<ele>14.177085</ele>
|
|
<time>2026-07-11T11:05:19.000Z</time>
|
|
</trkpt>
|
|
<trkpt lat="55.596462" lon="8.297790">
|
|
<ele>14.129165</ele>
|
|
<time>2026-07-11T11:05:20.000Z</time>
|
|
</trkpt>
|
|
<trkpt lat="55.596476" lon="8.297667">
|
|
<ele>14.072078</ele>
|
|
<time>2026-07-11T11:05:21.000Z</time>
|
|
</trkpt>
|
|
<trkpt lat="55.596499" lon="8.297557">
|
|
<ele>14.018714</ele>
|
|
<time>2026-07-11T11:05:22.000Z</time>
|
|
</trkpt>
|
|
<trkpt lat="55.596523" lon="8.297451">
|
|
<ele>13.966758</ele>
|
|
<time>2026-07-11T11:05:23.000Z</time>
|
|
</trkpt>
|
|
<trkpt lat="55.596552" lon="8.297350">
|
|
<ele>13.915213</ele>
|
|
<time>2026-07-11T11:05:24.000Z</time>
|
|
</trkpt>
|
|
<trkpt lat="55.596581" lon="8.297245">
|
|
<ele>13.862038</ele>
|
|
<time>2026-07-11T11:05:25.000Z</time>
|
|
</trkpt>
|
|
<trkpt lat="55.596607" lon="8.297141">
|
|
<ele>13.810296</ele>
|
|
<time>2026-07-11T11:05:26.000Z</time>
|
|
</trkpt>
|
|
<trkpt lat="55.596631" lon="8.297035">
|
|
<ele>13.758341</ele>
|
|
<time>2026-07-11T11:05:27.000Z</time>
|
|
</trkpt>
|
|
<trkpt lat="55.596657" lon="8.296920">
|
|
<ele>13.701985</ele>
|
|
<time>2026-07-11T11:05:28.000Z</time>
|
|
</trkpt>
|
|
<trkpt lat="55.596682" lon="8.296813">
|
|
<ele>13.649305</ele>
|
|
<time>2026-07-11T11:05:29.000Z</time>
|
|
</trkpt>
|
|
<trkpt lat="55.596703" lon="8.296708">
|
|
<ele>13.598628</ele>
|
|
<time>2026-07-11T11:05:30.000Z</time>
|
|
</trkpt>
|
|
<trkpt lat="55.596721" lon="8.296603">
|
|
<ele>13.548705</ele>
|
|
<time>2026-07-11T11:05:31.000Z</time>
|
|
</trkpt>
|
|
<trkpt lat="55.596736" lon="8.296494">
|
|
<ele>13.497663</ele>
|
|
<time>2026-07-11T11:05:32.000Z</time>
|
|
</trkpt>
|
|
<trkpt lat="55.596751" lon="8.296384">
|
|
<ele>13.446179</ele>
|
|
<time>2026-07-11T11:05:33.000Z</time>
|
|
</trkpt>
|
|
<trkpt lat="55.596770" lon="8.296277">
|
|
<ele>13.395150</ele>
|
|
<time>2026-07-11T11:05:34.000Z</time>
|
|
</trkpt>
|
|
<trkpt lat="55.596791" lon="8.296174">
|
|
<ele>13.345330</ele>
|
|
<time>2026-07-11T11:05:35.000Z</time>
|
|
</trkpt>
|
|
<trkpt lat="55.596812" lon="8.296077">
|
|
<ele>13.298069</ele>
|
|
<time>2026-07-11T11:05:36.000Z</time>
|
|
</trkpt>
|
|
<trkpt lat="55.596835" lon="8.295983">
|
|
<ele>13.251463</ele>
|
|
<time>2026-07-11T11:05:37.000Z</time>
|
|
</trkpt>
|
|
<trkpt lat="55.596857" lon="8.295888">
|
|
<ele>13.204751</ele>
|
|
<time>2026-07-11T11:05:38.000Z</time>
|
|
</trkpt>
|
|
<trkpt lat="55.596881" lon="8.295796">
|
|
<ele>13.158648</ele>
|
|
<time>2026-07-11T11:05:39.000Z</time>
|
|
</trkpt>
|
|
<trkpt lat="55.596902" lon="8.295702">
|
|
<ele>13.112659</ele>
|
|
<time>2026-07-11T11:05:40.000Z</time>
|
|
</trkpt>
|
|
<trkpt lat="55.596921" lon="8.295605">
|
|
<ele>13.065950</ele>
|
|
<time>2026-07-11T11:05:41.000Z</time>
|
|
</trkpt>
|
|
<trkpt lat="55.596938" lon="8.295501">
|
|
<ele>13.016692</ele>
|
|
<time>2026-07-11T11:05:42.000Z</time>
|
|
</trkpt>
|
|
<trkpt lat="55.596953" lon="8.295389">
|
|
<ele>12.964323</ele>
|
|
<time>2026-07-11T11:05:43.000Z</time>
|
|
</trkpt>
|
|
<trkpt lat="55.596970" lon="8.295275">
|
|
<ele>12.910681</ele>
|
|
<time>2026-07-11T11:05:44.000Z</time>
|
|
</trkpt>
|
|
<trkpt lat="55.596990" lon="8.295162">
|
|
<ele>12.856806</ele>
|
|
<time>2026-07-11T11:05:45.000Z</time>
|
|
</trkpt>
|
|
<trkpt lat="55.597009" lon="8.295052">
|
|
<ele>12.804472</ele>
|
|
<time>2026-07-11T11:05:46.000Z</time>
|
|
</trkpt>
|
|
<trkpt lat="55.597028" lon="8.294945">
|
|
<ele>12.753443</ele>
|
|
<time>2026-07-11T11:05:47.000Z</time>
|
|
</trkpt>
|
|
<trkpt lat="55.597045" lon="8.294838">
|
|
<ele>12.678824</ele>
|
|
<time>2026-07-11T11:05:48.000Z</time>
|
|
</trkpt>
|
|
<trkpt lat="55.597062" lon="8.294732">
|
|
<ele>12.583185</ele>
|
|
<time>2026-07-11T11:05:49.000Z</time>
|
|
</trkpt>
|
|
<trkpt lat="55.597083" lon="8.294625">
|
|
<ele>12.484870</ele>
|
|
<time>2026-07-11T11:05:50.000Z</time>
|
|
</trkpt>
|
|
<trkpt lat="55.597106" lon="8.294519">
|
|
<ele>12.386315</ele>
|
|
<time>2026-07-11T11:05:51.000Z</time>
|
|
</trkpt>
|
|
<trkpt lat="55.597127" lon="8.294414">
|
|
<ele>12.289639</ele>
|
|
<time>2026-07-11T11:05:52.000Z</time>
|
|
</trkpt>
|
|
<trkpt lat="55.597146" lon="8.294309">
|
|
<ele>12.193943</ele>
|
|
<time>2026-07-11T11:05:53.000Z</time>
|
|
</trkpt>
|
|
<trkpt lat="55.597165" lon="8.294205">
|
|
<ele>12.099074</ele>
|
|
<time>2026-07-11T11:05:54.000Z</time>
|
|
</trkpt>
|
|
<trkpt lat="55.597184" lon="8.294103">
|
|
<ele>12.005855</ele>
|
|
<time>2026-07-11T11:05:55.000Z</time>
|
|
</trkpt>
|
|
<trkpt lat="55.597203" lon="8.294001">
|
|
<ele>11.912636</ele>
|
|
<time>2026-07-11T11:05:56.000Z</time>
|
|
</trkpt>
|
|
<trkpt lat="55.597224" lon="8.293897">
|
|
<ele>11.816777</ele>
|
|
<time>2026-07-11T11:05:57.000Z</time>
|
|
</trkpt>
|
|
<trkpt lat="55.597244" lon="8.293795">
|
|
<ele>11.723066</ele>
|
|
<time>2026-07-11T11:05:58.000Z</time>
|
|
</trkpt>
|
|
<trkpt lat="55.597260" lon="8.293694">
|
|
<ele>11.632022</ele>
|
|
<time>2026-07-11T11:05:59.000Z</time>
|
|
</trkpt>
|
|
<trkpt lat="55.597279" lon="8.293594">
|
|
<ele>11.540450</ele>
|
|
<time>2026-07-11T11:06:00.000Z</time>
|
|
</trkpt>
|
|
<trkpt lat="55.597297" lon="8.293495">
|
|
<ele>11.450183</ele>
|
|
<time>2026-07-11T11:06:01.000Z</time>
|
|
</trkpt>
|
|
<trkpt lat="55.597316" lon="8.293395">
|
|
<ele>11.358612</ele>
|
|
<time>2026-07-11T11:06:02.000Z</time>
|
|
</trkpt>
|
|
<trkpt lat="55.597337" lon="8.293293">
|
|
<ele>11.264386</ele>
|
|
<time>2026-07-11T11:06:03.000Z</time>
|
|
</trkpt>
|
|
<trkpt lat="55.597357" lon="8.293187">
|
|
<ele>11.167389</ele>
|
|
<time>2026-07-11T11:06:04.000Z</time>
|
|
</trkpt>
|
|
<trkpt lat="55.597378" lon="8.293081">
|
|
<ele>11.069894</ele>
|
|
<time>2026-07-11T11:06:05.000Z</time>
|
|
</trkpt>
|
|
<trkpt lat="55.597397" lon="8.292972">
|
|
<ele>10.970887</ele>
|
|
<time>2026-07-11T11:06:06.000Z</time>
|
|
</trkpt>
|
|
<trkpt lat="55.597418" lon="8.292861">
|
|
<ele>10.869286</ele>
|
|
<time>2026-07-11T11:06:07.000Z</time>
|
|
</trkpt>
|
|
<trkpt lat="55.597441" lon="8.292755">
|
|
<ele>10.770732</ele>
|
|
<time>2026-07-11T11:06:08.000Z</time>
|
|
</trkpt>
|
|
<trkpt lat="55.597463" lon="8.292647">
|
|
<ele>10.671087</ele>
|
|
<time>2026-07-11T11:06:09.000Z</time>
|
|
</trkpt>
|
|
<trkpt lat="55.597481" lon="8.292540">
|
|
<ele>10.574188</ele>
|
|
<time>2026-07-11T11:06:10.000Z</time>
|
|
</trkpt>
|
|
<trkpt lat="55.597501" lon="8.292437">
|
|
<ele>10.479657</ele>
|
|
<time>2026-07-11T11:06:11.000Z</time>
|
|
</trkpt>
|
|
<trkpt lat="55.597520" lon="8.292331">
|
|
<ele>10.383135</ele>
|
|
<time>2026-07-11T11:06:12.000Z</time>
|
|
</trkpt>
|
|
<trkpt lat="55.597539" lon="8.292228">
|
|
<ele>10.289092</ele>
|
|
<time>2026-07-11T11:06:13.000Z</time>
|
|
</trkpt>
|
|
<trkpt lat="55.597558" lon="8.292127">
|
|
<ele>10.196698</ele>
|
|
<time>2026-07-11T11:06:14.000Z</time>
|
|
</trkpt>
|
|
<trkpt lat="55.597577" lon="8.292026">
|
|
<ele>10.104304</ele>
|
|
<time>2026-07-11T11:06:15.000Z</time>
|
|
</trkpt>
|
|
<trkpt lat="55.597596" lon="8.291922">
|
|
<ele>10.009436</ele>
|
|
<time>2026-07-11T11:06:16.000Z</time>
|
|
</trkpt>
|
|
<trkpt lat="55.597617" lon="8.291818">
|
|
<ele>9.968905</ele>
|
|
<time>2026-07-11T11:06:17.000Z</time>
|
|
</trkpt>
|
|
<trkpt lat="55.597638" lon="8.291714">
|
|
<ele>9.973611</ele>
|
|
<time>2026-07-11T11:06:18.000Z</time>
|
|
</trkpt>
|
|
<trkpt lat="55.597657" lon="8.291611">
|
|
<ele>9.978229</ele>
|
|
<time>2026-07-11T11:06:19.000Z</time>
|
|
</trkpt>
|
|
<trkpt lat="55.597676" lon="8.291507">
|
|
<ele>9.982887</ele>
|
|
<time>2026-07-11T11:06:20.000Z</time>
|
|
</trkpt>
|
|
<trkpt lat="55.597697" lon="8.291399">
|
|
<ele>9.987755</ele>
|
|
<time>2026-07-11T11:06:21.000Z</time>
|
|
</trkpt>
|
|
<trkpt lat="55.597718" lon="8.291291">
|
|
<ele>9.992622</ele>
|
|
<time>2026-07-11T11:06:22.000Z</time>
|
|
</trkpt>
|
|
<trkpt lat="55.597737" lon="8.291186">
|
|
<ele>9.997321</ele>
|
|
<time>2026-07-11T11:06:23.000Z</time>
|
|
</trkpt>
|
|
<trkpt lat="55.597758" lon="8.291081">
|
|
<ele>10.002068</ele>
|
|
<time>2026-07-11T11:06:24.000Z</time>
|
|
</trkpt>
|
|
<trkpt lat="55.597781" lon="8.290978">
|
|
<ele>10.006788</ele>
|
|
<time>2026-07-11T11:06:25.000Z</time>
|
|
</trkpt>
|
|
<trkpt lat="55.597803" lon="8.290874">
|
|
<ele>10.011520</ele>
|
|
<time>2026-07-11T11:06:26.000Z</time>
|
|
</trkpt>
|
|
<trkpt lat="55.597825" lon="8.290769">
|
|
<ele>10.016293</ele>
|
|
<time>2026-07-11T11:06:27.000Z</time>
|
|
</trkpt>
|
|
<trkpt lat="55.597842" lon="8.290665">
|
|
<ele>10.020907</ele>
|
|
<time>2026-07-11T11:06:28.000Z</time>
|
|
</trkpt>
|
|
<trkpt lat="55.597859" lon="8.290563">
|
|
<ele>10.025439</ele>
|
|
<time>2026-07-11T11:06:29.000Z</time>
|
|
</trkpt>
|
|
<trkpt lat="55.597878" lon="8.290465">
|
|
<ele>10.029854</ele>
|
|
<time>2026-07-11T11:06:30.000Z</time>
|
|
</trkpt>
|
|
<trkpt lat="55.597895" lon="8.290367">
|
|
<ele>10.034223</ele>
|
|
<time>2026-07-11T11:06:31.000Z</time>
|
|
</trkpt>
|
|
<trkpt lat="55.597912" lon="8.290266">
|
|
<ele>10.038715</ele>
|
|
<time>2026-07-11T11:06:32.000Z</time>
|
|
</trkpt>
|
|
<trkpt lat="55.597930" lon="8.290170">
|
|
<ele>10.043025</ele>
|
|
<time>2026-07-11T11:06:33.000Z</time>
|
|
</trkpt>
|
|
<trkpt lat="55.597947" lon="8.290081">
|
|
<ele>10.047029</ele>
|
|
<time>2026-07-11T11:06:34.000Z</time>
|
|
</trkpt>
|
|
<trkpt lat="55.597966" lon="8.289996">
|
|
<ele>10.050925</ele>
|
|
<time>2026-07-11T11:06:35.000Z</time>
|
|
</trkpt>
|
|
<trkpt lat="55.597985" lon="8.289911">
|
|
<ele>10.054820</ele>
|
|
<time>2026-07-11T11:06:36.000Z</time>
|
|
</trkpt>
|
|
<trkpt lat="55.598003" lon="8.289828">
|
|
<ele>10.058609</ele>
|
|
<time>2026-07-11T11:06:37.000Z</time>
|
|
</trkpt>
|
|
<trkpt lat="55.598016" lon="8.289746">
|
|
<ele>10.062239</ele>
|
|
<time>2026-07-11T11:06:38.000Z</time>
|
|
</trkpt>
|
|
<trkpt lat="55.598027" lon="8.289662">
|
|
<ele>10.065913</ele>
|
|
<time>2026-07-11T11:06:39.000Z</time>
|
|
</trkpt>
|
|
<trkpt lat="55.598039" lon="8.289578">
|
|
<ele>10.069606</ele>
|
|
<time>2026-07-11T11:06:40.000Z</time>
|
|
</trkpt>
|
|
<trkpt lat="55.598052" lon="8.289495">
|
|
<ele>10.073276</ele>
|
|
<time>2026-07-11T11:06:41.000Z</time>
|
|
</trkpt>
|
|
<trkpt lat="55.598067" lon="8.289412">
|
|
<ele>10.076990</ele>
|
|
<time>2026-07-11T11:06:42.000Z</time>
|
|
</trkpt>
|
|
<trkpt lat="55.598083" lon="8.289330">
|
|
<ele>10.080687</ele>
|
|
<time>2026-07-11T11:06:43.000Z</time>
|
|
</trkpt>
|
|
<trkpt lat="55.598098" lon="8.289248">
|
|
<ele>10.084360</ele>
|
|
<time>2026-07-11T11:06:44.000Z</time>
|
|
</trkpt>
|
|
<trkpt lat="55.598111" lon="8.289167">
|
|
<ele>10.087949</ele>
|
|
<time>2026-07-11T11:06:45.000Z</time>
|
|
</trkpt>
|
|
<trkpt lat="55.598121" lon="8.289089">
|
|
<ele>10.091357</ele>
|
|
<time>2026-07-11T11:06:46.000Z</time>
|
|
</trkpt>
|
|
<trkpt lat="55.598131" lon="8.289011">
|
|
<ele>10.094766</ele>
|
|
<time>2026-07-11T11:06:47.000Z</time>
|
|
</trkpt>
|
|
<trkpt lat="55.598142" lon="8.288936">
|
|
<ele>10.098068</ele>
|
|
<time>2026-07-11T11:06:48.000Z</time>
|
|
</trkpt>
|
|
<trkpt lat="55.598153" lon="8.288861">
|
|
<ele>10.101370</ele>
|
|
<time>2026-07-11T11:06:49.000Z</time>
|
|
</trkpt>
|
|
<trkpt lat="55.598165" lon="8.288786">
|
|
<ele>10.127672</ele>
|
|
<time>2026-07-11T11:06:50.000Z</time>
|
|
</trkpt>
|
|
<trkpt lat="55.598178" lon="8.288712">
|
|
<ele>10.158995</ele>
|
|
<time>2026-07-11T11:06:51.000Z</time>
|
|
</trkpt>
|
|
<trkpt lat="55.598192" lon="8.288636">
|
|
<ele>10.191306</ele>
|
|
<time>2026-07-11T11:06:52.000Z</time>
|
|
</trkpt>
|
|
<trkpt lat="55.598201" lon="8.288562">
|
|
<ele>10.221902</ele>
|
|
<time>2026-07-11T11:06:53.000Z</time>
|
|
</trkpt>
|
|
<trkpt lat="55.598207" lon="8.288486">
|
|
<ele>10.252919</ele>
|
|
<time>2026-07-11T11:06:54.000Z</time>
|
|
</trkpt>
|
|
<trkpt lat="55.598216" lon="8.288411">
|
|
<ele>10.283911</ele>
|
|
<time>2026-07-11T11:06:55.000Z</time>
|
|
</trkpt>
|
|
<trkpt lat="55.598231" lon="8.288337">
|
|
<ele>10.315688</ele>
|
|
<time>2026-07-11T11:06:56.000Z</time>
|
|
</trkpt>
|
|
<trkpt lat="55.598247" lon="8.288262">
|
|
<ele>10.348092</ele>
|
|
<time>2026-07-11T11:06:57.000Z</time>
|
|
</trkpt>
|
|
<trkpt lat="55.598260" lon="8.288190">
|
|
<ele>10.378644</ele>
|
|
<time>2026-07-11T11:06:58.000Z</time>
|
|
</trkpt>
|
|
<trkpt lat="55.598273" lon="8.288114">
|
|
<ele>10.410741</ele>
|
|
<time>2026-07-11T11:06:59.000Z</time>
|
|
</trkpt>
|
|
<trkpt lat="55.598285" lon="8.288036">
|
|
<ele>10.443416</ele>
|
|
<time>2026-07-11T11:07:00.000Z</time>
|
|
</trkpt>
|
|
<trkpt lat="55.598296" lon="8.287961">
|
|
<ele>10.474736</ele>
|
|
<time>2026-07-11T11:07:01.000Z</time>
|
|
</trkpt>
|
|
<trkpt lat="55.598312" lon="8.287890">
|
|
<ele>10.505633</ele>
|
|
<time>2026-07-11T11:07:02.000Z</time>
|
|
</trkpt>
|
|
<trkpt lat="55.598325" lon="8.287822">
|
|
<ele>10.534649</ele>
|
|
<time>2026-07-11T11:07:03.000Z</time>
|
|
</trkpt>
|
|
<trkpt lat="55.598337" lon="8.287752">
|
|
<ele>10.564217</ele>
|
|
<time>2026-07-11T11:07:04.000Z</time>
|
|
</trkpt>
|
|
<trkpt lat="55.598348" lon="8.287682">
|
|
<ele>10.593585</ele>
|
|
<time>2026-07-11T11:07:05.000Z</time>
|
|
</trkpt>
|
|
<trkpt lat="55.598359" lon="8.287610">
|
|
<ele>10.623732</ele>
|
|
<time>2026-07-11T11:07:06.000Z</time>
|
|
</trkpt>
|
|
<trkpt lat="55.598371" lon="8.287536">
|
|
<ele>10.654850</ele>
|
|
<time>2026-07-11T11:07:07.000Z</time>
|
|
</trkpt>
|
|
<trkpt lat="55.598381" lon="8.287458">
|
|
<ele>10.687179</ele>
|
|
<time>2026-07-11T11:07:08.000Z</time>
|
|
</trkpt>
|
|
<trkpt lat="55.598390" lon="8.287379">
|
|
<ele>10.719754</ele>
|
|
<time>2026-07-11T11:07:09.000Z</time>
|
|
</trkpt>
|
|
<trkpt lat="55.598401" lon="8.287301">
|
|
<ele>10.752248</ele>
|
|
<time>2026-07-11T11:07:10.000Z</time>
|
|
</trkpt>
|
|
<trkpt lat="55.598415" lon="8.287222">
|
|
<ele>10.785714</ele>
|
|
<time>2026-07-11T11:07:11.000Z</time>
|
|
</trkpt>
|
|
<trkpt lat="55.598428" lon="8.287145">
|
|
<ele>10.818197</ele>
|
|
<time>2026-07-11T11:07:12.000Z</time>
|
|
</trkpt>
|
|
<trkpt lat="55.598438" lon="8.287065">
|
|
<ele>10.851315</ele>
|
|
<time>2026-07-11T11:07:13.000Z</time>
|
|
</trkpt>
|
|
<trkpt lat="55.598447" lon="8.286983">
|
|
<ele>10.885079</ele>
|
|
<time>2026-07-11T11:07:14.000Z</time>
|
|
</trkpt>
|
|
<trkpt lat="55.598457" lon="8.286903">
|
|
<ele>10.918197</ele>
|
|
<time>2026-07-11T11:07:15.000Z</time>
|
|
</trkpt>
|
|
<trkpt lat="55.598463" lon="8.286823">
|
|
<ele>10.950816</ele>
|
|
<time>2026-07-11T11:07:16.000Z</time>
|
|
</trkpt>
|
|
<trkpt lat="55.598468" lon="8.286744">
|
|
<ele>10.982947</ele>
|
|
<time>2026-07-11T11:07:17.000Z</time>
|
|
</trkpt>
|
|
<trkpt lat="55.598478" lon="8.286666">
|
|
<ele>11.015276</ele>
|
|
<time>2026-07-11T11:07:18.000Z</time>
|
|
</trkpt>
|
|
<trkpt lat="55.598489" lon="8.286588">
|
|
<ele>11.047771</ele>
|
|
<time>2026-07-11T11:07:19.000Z</time>
|
|
</trkpt>
|
|
<trkpt lat="55.598502" lon="8.286509">
|
|
<ele>11.081029</ele>
|
|
<time>2026-07-11T11:07:20.000Z</time>
|
|
</trkpt>
|
|
<trkpt lat="55.598517" lon="8.286430">
|
|
<ele>11.114716</ele>
|
|
<time>2026-07-11T11:07:21.000Z</time>
|
|
</trkpt>
|
|
<trkpt lat="55.598533" lon="8.286356">
|
|
<ele>11.146742</ele>
|
|
<time>2026-07-11T11:07:22.000Z</time>
|
|
</trkpt>
|
|
<trkpt lat="55.598546" lon="8.286283">
|
|
<ele>11.177679</ele>
|
|
<time>2026-07-11T11:07:23.000Z</time>
|
|
</trkpt>
|
|
<trkpt lat="55.598559" lon="8.286211">
|
|
<ele>11.208231</ele>
|
|
<time>2026-07-11T11:07:24.000Z</time>
|
|
</trkpt>
|
|
<trkpt lat="55.598571" lon="8.286139">
|
|
<ele>11.238573</ele>
|
|
<time>2026-07-11T11:07:25.000Z</time>
|
|
</trkpt>
|
|
<trkpt lat="55.598581" lon="8.286067">
|
|
<ele>11.268542</ele>
|
|
<time>2026-07-11T11:07:26.000Z</time>
|
|
</trkpt>
|
|
<trkpt lat="55.598592" lon="8.286001">
|
|
<ele>11.296355</ele>
|
|
<time>2026-07-11T11:07:27.000Z</time>
|
|
</trkpt>
|
|
<trkpt lat="55.598603" lon="8.285934">
|
|
<ele>11.324557</ele>
|
|
<time>2026-07-11T11:07:28.000Z</time>
|
|
</trkpt>
|
|
<trkpt lat="55.598616" lon="8.285868">
|
|
<ele>11.352808</ele>
|
|
<time>2026-07-11T11:07:29.000Z</time>
|
|
</trkpt>
|
|
<trkpt lat="55.598632" lon="8.285802">
|
|
<ele>11.381837</ele>
|
|
<time>2026-07-11T11:07:30.000Z</time>
|
|
</trkpt>
|
|
<trkpt lat="55.598645" lon="8.285736">
|
|
<ele>11.355209</ele>
|
|
<time>2026-07-11T11:07:31.000Z</time>
|
|
</trkpt>
|
|
<trkpt lat="55.598657" lon="8.285669">
|
|
<ele>11.310563</ele>
|
|
<time>2026-07-11T11:07:32.000Z</time>
|
|
</trkpt>
|
|
<trkpt lat="55.598667" lon="8.285607">
|
|
<ele>11.269607</ele>
|
|
<time>2026-07-11T11:07:33.000Z</time>
|
|
</trkpt>
|
|
<trkpt lat="55.598674" lon="8.285550">
|
|
<ele>11.232555</ele>
|
|
<time>2026-07-11T11:07:34.000Z</time>
|
|
</trkpt>
|
|
<trkpt lat="55.598684" lon="8.285491">
|
|
<ele>11.193428</ele>
|
|
<time>2026-07-11T11:07:35.000Z</time>
|
|
</trkpt>
|
|
<trkpt lat="55.598695" lon="8.285429">
|
|
<ele>11.152149</ele>
|
|
<time>2026-07-11T11:07:36.000Z</time>
|
|
</trkpt>
|
|
<trkpt lat="55.598705" lon="8.285369">
|
|
<ele>11.112413</ele>
|
|
<time>2026-07-11T11:07:37.000Z</time>
|
|
</trkpt>
|
|
<trkpt lat="55.598714" lon="8.285312">
|
|
<ele>11.074819</ele>
|
|
<time>2026-07-11T11:07:38.000Z</time>
|
|
</trkpt>
|
|
<trkpt lat="55.598726" lon="8.285258">
|
|
<ele>11.037961</ele>
|
|
<time>2026-07-11T11:07:39.000Z</time>
|
|
</trkpt>
|
|
<trkpt lat="55.598735" lon="8.285205">
|
|
<ele>11.002807</ele>
|
|
<time>2026-07-11T11:07:40.000Z</time>
|
|
</trkpt>
|
|
<trkpt lat="55.598743" lon="8.285152">
|
|
<ele>10.967961</ele>
|
|
<time>2026-07-11T11:07:41.000Z</time>
|
|
</trkpt>
|
|
<trkpt lat="55.598752" lon="8.285098">
|
|
<ele>10.932198</ele>
|
|
<time>2026-07-11T11:07:42.000Z</time>
|
|
</trkpt>
|
|
<trkpt lat="55.598764" lon="8.285040">
|
|
<ele>10.892964</ele>
|
|
<time>2026-07-11T11:07:43.000Z</time>
|
|
</trkpt>
|
|
<trkpt lat="55.598775" lon="8.284977">
|
|
<ele>10.851079</ele>
|
|
<time>2026-07-11T11:07:44.000Z</time>
|
|
</trkpt>
|
|
<trkpt lat="55.598783" lon="8.284912">
|
|
<ele>10.808823</ele>
|
|
<time>2026-07-11T11:07:45.000Z</time>
|
|
</trkpt>
|
|
<trkpt lat="55.598789" lon="8.284843">
|
|
<ele>10.764478</ele>
|
|
<time>2026-07-11T11:07:46.000Z</time>
|
|
</trkpt>
|
|
<trkpt lat="55.598796" lon="8.284768">
|
|
<ele>10.716192</ele>
|
|
<time>2026-07-11T11:07:47.000Z</time>
|
|
</trkpt>
|
|
<trkpt lat="55.598804" lon="8.284694">
|
|
<ele>10.668334</ele>
|
|
<time>2026-07-11T11:07:48.000Z</time>
|
|
</trkpt>
|
|
<trkpt lat="55.598812" lon="8.284620">
|
|
<ele>10.620477</ele>
|
|
<time>2026-07-11T11:07:49.000Z</time>
|
|
</trkpt>
|
|
<trkpt lat="55.598821" lon="8.284544">
|
|
<ele>10.571152</ele>
|
|
<time>2026-07-11T11:07:50.000Z</time>
|
|
</trkpt>
|
|
<trkpt lat="55.598832" lon="8.284468">
|
|
<ele>10.521318</ele>
|
|
<time>2026-07-11T11:07:51.000Z</time>
|
|
</trkpt>
|
|
<trkpt lat="55.598844" lon="8.284392">
|
|
<ele>10.471193</ele>
|
|
<time>2026-07-11T11:07:52.000Z</time>
|
|
</trkpt>
|
|
<trkpt lat="55.598857" lon="8.284312">
|
|
<ele>10.418317</ele>
|
|
<time>2026-07-11T11:07:53.000Z</time>
|
|
</trkpt>
|
|
<trkpt lat="55.598872" lon="8.284226">
|
|
<ele>10.361146</ele>
|
|
<time>2026-07-11T11:07:54.000Z</time>
|
|
</trkpt>
|
|
<trkpt lat="55.598887" lon="8.284135">
|
|
<ele>10.300933</ele>
|
|
<time>2026-07-11T11:07:55.000Z</time>
|
|
</trkpt>
|
|
<trkpt lat="55.598904" lon="8.284044">
|
|
<ele>10.240052</ele>
|
|
<time>2026-07-11T11:07:56.000Z</time>
|
|
</trkpt>
|
|
<trkpt lat="55.598920" lon="8.283957">
|
|
<ele>10.181936</ele>
|
|
<time>2026-07-11T11:07:57.000Z</time>
|
|
</trkpt>
|
|
<trkpt lat="55.598932" lon="8.283881">
|
|
<ele>10.131811</ele>
|
|
<time>2026-07-11T11:07:58.000Z</time>
|
|
</trkpt>
|
|
<trkpt lat="55.598943" lon="8.283817">
|
|
<ele>10.089319</ele>
|
|
<time>2026-07-11T11:07:59.000Z</time>
|
|
</trkpt>
|
|
<trkpt lat="55.598951" lon="8.283767">
|
|
<ele>10.056310</ele>
|
|
<time>2026-07-11T11:08:00.000Z</time>
|
|
</trkpt>
|
|
<trkpt lat="55.598952" lon="8.283734">
|
|
<ele>10.035318</ele>
|
|
<time>2026-07-11T11:08:01.000Z</time>
|
|
</trkpt>
|
|
<trkpt lat="55.598944" lon="8.283722">
|
|
<ele>10.023528</ele>
|
|
<time>2026-07-11T11:08:02.000Z</time>
|
|
</trkpt>
|
|
<trkpt lat="55.598933" lon="8.283728">
|
|
<ele>10.010587</ele>
|
|
<time>2026-07-11T11:08:03.000Z</time>
|
|
</trkpt>
|
|
<trkpt lat="55.598927" lon="8.283742">
|
|
<ele>9.999425</ele>
|
|
<time>2026-07-11T11:08:04.000Z</time>
|
|
</trkpt>
|
|
<trkpt lat="55.598927" lon="8.283755">
|
|
<ele>9.991168</ele>
|
|
<time>2026-07-11T11:08:05.000Z</time>
|
|
</trkpt>
|
|
<trkpt lat="55.598912" lon="8.283867">
|
|
<ele>9.918054</ele>
|
|
<time>2026-07-11T11:08:20.000Z</time>
|
|
</trkpt>
|
|
<trkpt lat="55.598904" lon="8.283908">
|
|
<ele>9.890501</ele>
|
|
<time>2026-07-11T11:08:21.000Z</time>
|
|
</trkpt>
|
|
<trkpt lat="55.598896" lon="8.283955">
|
|
<ele>9.859322</ele>
|
|
<time>2026-07-11T11:08:22.000Z</time>
|
|
</trkpt>
|
|
<trkpt lat="55.598889" lon="8.284000">
|
|
<ele>9.829674</ele>
|
|
<time>2026-07-11T11:08:23.000Z</time>
|
|
</trkpt>
|
|
<trkpt lat="55.598883" lon="8.284044">
|
|
<ele>9.800923</ele>
|
|
<time>2026-07-11T11:08:24.000Z</time>
|
|
</trkpt>
|
|
<trkpt lat="55.598879" lon="8.284091">
|
|
<ele>9.770732</ele>
|
|
<time>2026-07-11T11:08:25.000Z</time>
|
|
</trkpt>
|
|
<trkpt lat="55.598880" lon="8.284128">
|
|
<ele>9.747202</ele>
|
|
<time>2026-07-11T11:08:26.000Z</time>
|
|
</trkpt>
|
|
<trkpt lat="55.598890" lon="8.284145">
|
|
<ele>9.731614</ele>
|
|
<time>2026-07-11T11:08:27.000Z</time>
|
|
</trkpt>
|
|
<trkpt lat="55.598898" lon="8.284143">
|
|
<ele>9.722530</ele>
|
|
<time>2026-07-11T11:08:28.000Z</time>
|
|
</trkpt>
|
|
<trkpt lat="55.598900" lon="8.284138">
|
|
<ele>9.718639</ele>
|
|
<time>2026-07-11T11:08:29.000Z</time>
|
|
</trkpt>
|
|
<trkpt lat="55.598900" lon="8.284136">
|
|
<ele>9.717368</ele>
|
|
<time>2026-07-11T11:08:30.000Z</time>
|
|
</trkpt>
|
|
<trkpt lat="55.598900" lon="8.284135">
|
|
<ele>9.716733</ele>
|
|
<time>2026-07-11T11:08:31.000Z</time>
|
|
</trkpt>
|
|
<trkpt lat="55.598893" lon="8.284137">
|
|
<ele>9.708761</ele>
|
|
<time>2026-07-11T11:09:35.000Z</time>
|
|
</trkpt>
|
|
<trkpt lat="55.598881" lon="8.284145">
|
|
<ele>9.694345</ele>
|
|
<time>2026-07-11T11:09:36.000Z</time>
|
|
</trkpt>
|
|
<trkpt lat="55.598875" lon="8.284161">
|
|
<ele>9.682146</ele>
|
|
<time>2026-07-11T11:09:37.000Z</time>
|
|
</trkpt>
|
|
<trkpt lat="55.598872" lon="8.284176">
|
|
<ele>9.672039</ele>
|
|
<time>2026-07-11T11:09:38.000Z</time>
|
|
</trkpt>
|
|
<trkpt lat="55.598868" lon="8.284190">
|
|
<ele>9.662074</ele>
|
|
<time>2026-07-11T11:09:39.000Z</time>
|
|
</trkpt>
|
|
<trkpt lat="55.598864" lon="8.284205">
|
|
<ele>9.651538</ele>
|
|
<time>2026-07-11T11:09:40.000Z</time>
|
|
</trkpt>
|
|
<trkpt lat="55.598862" lon="8.284212">
|
|
<ele>9.646555</ele>
|
|
<time>2026-07-11T11:09:41.000Z</time>
|
|
</trkpt>
|
|
<trkpt lat="55.598862" lon="8.284212">
|
|
<ele>9.646555</ele>
|
|
<time>2026-07-11T11:09:56.000Z</time>
|
|
</trkpt>
|
|
<trkpt lat="55.598872" lon="8.284236">
|
|
<ele>9.627613</ele>
|
|
<time>2026-07-11T11:09:58.000Z</time>
|
|
</trkpt>
|
|
<trkpt lat="55.598886" lon="8.284262">
|
|
<ele>9.604799</ele>
|
|
<time>2026-07-11T11:09:59.000Z</time>
|
|
</trkpt>
|
|
<trkpt lat="55.598890" lon="8.284247">
|
|
<ele>9.594263</ele>
|
|
<time>2026-07-11T11:10:00.000Z</time>
|
|
</trkpt>
|
|
<trkpt lat="55.598896" lon="8.284232">
|
|
<ele>9.582589</ele>
|
|
<time>2026-07-11T11:10:01.000Z</time>
|
|
</trkpt>
|
|
<trkpt lat="55.598901" lon="8.284216">
|
|
<ele>9.570974</ele>
|
|
<time>2026-07-11T11:10:02.000Z</time>
|
|
</trkpt>
|
|
<trkpt lat="55.598905" lon="8.284200">
|
|
<ele>9.559861</ele>
|
|
<time>2026-07-11T11:10:03.000Z</time>
|
|
</trkpt>
|
|
<trkpt lat="55.598908" lon="8.284186">
|
|
<ele>9.550350</ele>
|
|
<time>2026-07-11T11:10:04.000Z</time>
|
|
</trkpt>
|
|
<trkpt lat="55.598909" lon="8.284175">
|
|
<ele>9.543273</ele>
|
|
<time>2026-07-11T11:10:05.000Z</time>
|
|
</trkpt>
|
|
<trkpt lat="55.598911" lon="8.284170">
|
|
<ele>9.539381</ele>
|
|
<time>2026-07-11T11:10:06.000Z</time>
|
|
</trkpt>
|
|
<trkpt lat="55.598911" lon="8.284154">
|
|
<ele>9.529218</ele>
|
|
<time>2026-07-11T11:10:07.000Z</time>
|
|
</trkpt>
|
|
<trkpt lat="55.598913" lon="8.284123">
|
|
<ele>9.509399</ele>
|
|
<time>2026-07-11T11:10:08.000Z</time>
|
|
</trkpt>
|
|
<trkpt lat="55.598915" lon="8.284103">
|
|
<ele>9.496497</ele>
|
|
<time>2026-07-11T11:10:09.000Z</time>
|
|
</trkpt>
|
|
<trkpt lat="55.598917" lon="8.284085">
|
|
<ele>9.484845</ele>
|
|
<time>2026-07-11T11:10:10.000Z</time>
|
|
</trkpt>
|
|
<trkpt lat="55.598921" lon="8.284068">
|
|
<ele>9.473147</ele>
|
|
<time>2026-07-11T11:10:11.000Z</time>
|
|
</trkpt>
|
|
<trkpt lat="55.598924" lon="8.284054">
|
|
<ele>9.463637</ele>
|
|
<time>2026-07-11T11:10:12.000Z</time>
|
|
</trkpt>
|
|
<trkpt lat="55.598927" lon="8.284042">
|
|
<ele>9.455301</ele>
|
|
<time>2026-07-11T11:10:13.000Z</time>
|
|
</trkpt>
|
|
<trkpt lat="55.598927" lon="8.284035">
|
|
<ele>9.450855</ele>
|
|
<time>2026-07-11T11:10:14.000Z</time>
|
|
</trkpt>
|
|
<trkpt lat="55.598928" lon="8.284010">
|
|
<ele>9.434935</ele>
|
|
<time>2026-07-11T11:10:16.000Z</time>
|
|
</trkpt>
|
|
<trkpt lat="55.598930" lon="8.283971">
|
|
<ele>9.410061</ele>
|
|
<time>2026-07-11T11:10:17.000Z</time>
|
|
</trkpt>
|
|
<trkpt lat="55.598930" lon="8.283953">
|
|
<ele>9.398627</ele>
|
|
<time>2026-07-11T11:10:18.000Z</time>
|
|
</trkpt>
|
|
<trkpt lat="55.598932" lon="8.283941">
|
|
<ele>9.390680</ele>
|
|
<time>2026-07-11T11:10:19.000Z</time>
|
|
</trkpt>
|
|
<trkpt lat="55.598934" lon="8.283938">
|
|
<ele>9.387732</ele>
|
|
<time>2026-07-11T11:10:20.000Z</time>
|
|
</trkpt>
|
|
<trkpt lat="55.598934" lon="8.283936">
|
|
<ele>9.386462</ele>
|
|
<time>2026-07-11T11:10:21.000Z</time>
|
|
</trkpt>
|
|
<trkpt lat="55.598934" lon="8.283936">
|
|
<ele>9.386462</ele>
|
|
<time>2026-07-11T11:10:24.000Z</time>
|
|
</trkpt>
|
|
<trkpt lat="55.598938" lon="8.283911">
|
|
<ele>9.369958</ele>
|
|
<time>2026-07-11T11:11:14.000Z</time>
|
|
</trkpt>
|
|
<trkpt lat="55.598945" lon="8.283861">
|
|
<ele>9.324651</ele>
|
|
<time>2026-07-11T11:11:15.000Z</time>
|
|
</trkpt>
|
|
<trkpt lat="55.598953" lon="8.283820">
|
|
<ele>9.285276</ele>
|
|
<time>2026-07-11T11:11:16.000Z</time>
|
|
</trkpt>
|
|
<trkpt lat="55.598960" lon="8.283777">
|
|
<ele>9.244654</ele>
|
|
<time>2026-07-11T11:11:17.000Z</time>
|
|
</trkpt>
|
|
<trkpt lat="55.598970" lon="8.283731">
|
|
<ele>9.199912</ele>
|
|
<time>2026-07-11T11:11:18.000Z</time>
|
|
</trkpt>
|
|
<trkpt lat="55.598981" lon="8.283681">
|
|
<ele>9.151204</ele>
|
|
<time>2026-07-11T11:11:19.000Z</time>
|
|
</trkpt>
|
|
<trkpt lat="55.598993" lon="8.283625">
|
|
<ele>9.096836</ele>
|
|
<time>2026-07-11T11:11:20.000Z</time>
|
|
</trkpt>
|
|
<trkpt lat="55.599004" lon="8.283563">
|
|
<ele>9.037845</ele>
|
|
<time>2026-07-11T11:11:21.000Z</time>
|
|
</trkpt>
|
|
<trkpt lat="55.599017" lon="8.283494">
|
|
<ele>8.971818</ele>
|
|
<time>2026-07-11T11:11:22.000Z</time>
|
|
</trkpt>
|
|
<trkpt lat="55.599034" lon="8.283420">
|
|
<ele>8.899303</ele>
|
|
<time>2026-07-11T11:11:23.000Z</time>
|
|
</trkpt>
|
|
<trkpt lat="55.599053" lon="8.283346">
|
|
<ele>8.825517</ele>
|
|
<time>2026-07-11T11:11:24.000Z</time>
|
|
</trkpt>
|
|
<trkpt lat="55.599074" lon="8.283267">
|
|
<ele>8.746263</ele>
|
|
<time>2026-07-11T11:11:25.000Z</time>
|
|
</trkpt>
|
|
<trkpt lat="55.599099" lon="8.283190">
|
|
<ele>8.665646</ele>
|
|
<time>2026-07-11T11:11:26.000Z</time>
|
|
</trkpt>
|
|
<trkpt lat="55.599129" lon="8.283116">
|
|
<ele>8.582967</ele>
|
|
<time>2026-07-11T11:11:27.000Z</time>
|
|
</trkpt>
|
|
<trkpt lat="55.599163" lon="8.283042">
|
|
<ele>8.496384</ele>
|
|
<time>2026-07-11T11:11:28.000Z</time>
|
|
</trkpt>
|
|
<trkpt lat="55.599199" lon="8.282969">
|
|
<ele>8.408424</ele>
|
|
<time>2026-07-11T11:11:29.000Z</time>
|
|
</trkpt>
|
|
<trkpt lat="55.599239" lon="8.282900">
|
|
<ele>8.318682</ele>
|
|
<time>2026-07-11T11:11:30.000Z</time>
|
|
</trkpt>
|
|
<trkpt lat="55.599279" lon="8.282835">
|
|
<ele>8.231436</ele>
|
|
<time>2026-07-11T11:11:31.000Z</time>
|
|
</trkpt>
|
|
<trkpt lat="55.599319" lon="8.282774">
|
|
<ele>8.146603</ele>
|
|
<time>2026-07-11T11:11:32.000Z</time>
|
|
</trkpt>
|
|
<trkpt lat="55.599363" lon="8.282712">
|
|
<ele>8.056240</ele>
|
|
<time>2026-07-11T11:11:33.000Z</time>
|
|
</trkpt>
|
|
<trkpt lat="55.599407" lon="8.282653">
|
|
<ele>7.967548</ele>
|
|
<time>2026-07-11T11:11:34.000Z</time>
|
|
</trkpt>
|
|
<trkpt lat="55.599449" lon="8.282594">
|
|
<ele>7.881396</ele>
|
|
<time>2026-07-11T11:11:35.000Z</time>
|
|
</trkpt>
|
|
<trkpt lat="55.599493" lon="8.282533">
|
|
<ele>7.791596</ele>
|
|
<time>2026-07-11T11:11:36.000Z</time>
|
|
</trkpt>
|
|
<trkpt lat="55.599537" lon="8.282471">
|
|
<ele>7.701234</ele>
|
|
<time>2026-07-11T11:11:37.000Z</time>
|
|
</trkpt>
|
|
<trkpt lat="55.599580" lon="8.282411">
|
|
<ele>7.613258</ele>
|
|
<time>2026-07-11T11:11:38.000Z</time>
|
|
</trkpt>
|
|
<trkpt lat="55.599626" lon="8.282351">
|
|
<ele>7.521449</ele>
|
|
<time>2026-07-11T11:11:39.000Z</time>
|
|
</trkpt>
|
|
<trkpt lat="55.599670" lon="8.282291">
|
|
<ele>7.432206</ele>
|
|
<time>2026-07-11T11:11:40.000Z</time>
|
|
</trkpt>
|
|
<trkpt lat="55.599712" lon="8.282232">
|
|
<ele>7.346054</ele>
|
|
<time>2026-07-11T11:11:41.000Z</time>
|
|
</trkpt>
|
|
<trkpt lat="55.599754" lon="8.282172">
|
|
<ele>7.259335</ele>
|
|
<time>2026-07-11T11:11:42.000Z</time>
|
|
</trkpt>
|
|
<trkpt lat="55.599794" lon="8.282112">
|
|
<ele>7.175092</ele>
|
|
<time>2026-07-11T11:11:43.000Z</time>
|
|
</trkpt>
|
|
<trkpt lat="55.599834" lon="8.282054">
|
|
<ele>7.092011</ele>
|
|
<time>2026-07-11T11:11:44.000Z</time>
|
|
</trkpt>
|
|
<trkpt lat="55.599876" lon="8.281996">
|
|
<ele>7.006420</ele>
|
|
<time>2026-07-11T11:11:45.000Z</time>
|
|
</trkpt>
|
|
<trkpt lat="55.599916" lon="8.281937">
|
|
<ele>6.922762</ele>
|
|
<time>2026-07-11T11:11:46.000Z</time>
|
|
</trkpt>
|
|
<trkpt lat="55.599956" lon="8.281878">
|
|
<ele>6.839103</ele>
|
|
<time>2026-07-11T11:11:47.000Z</time>
|
|
</trkpt>
|
|
<trkpt lat="55.599997" lon="8.281819">
|
|
<ele>6.754204</ele>
|
|
<time>2026-07-11T11:11:48.000Z</time>
|
|
</trkpt>
|
|
<trkpt lat="55.600038" lon="8.281764">
|
|
<ele>6.671547</ele>
|
|
<time>2026-07-11T11:11:49.000Z</time>
|
|
</trkpt>
|
|
<trkpt lat="55.600087" lon="8.281720">
|
|
<ele>6.583266</ele>
|
|
<time>2026-07-11T11:11:50.000Z</time>
|
|
</trkpt>
|
|
<trkpt lat="55.600139" lon="8.281690">
|
|
<ele>6.495391</ele>
|
|
<time>2026-07-11T11:11:51.000Z</time>
|
|
</trkpt>
|
|
<trkpt lat="55.600190" lon="8.281672">
|
|
<ele>6.474071</ele>
|
|
<time>2026-07-11T11:11:52.000Z</time>
|
|
</trkpt>
|
|
<trkpt lat="55.600244" lon="8.281668">
|
|
<ele>6.470601</ele>
|
|
<time>2026-07-11T11:11:53.000Z</time>
|
|
</trkpt>
|
|
<trkpt lat="55.600295" lon="8.281677">
|
|
<ele>6.467311</ele>
|
|
<time>2026-07-11T11:11:54.000Z</time>
|
|
</trkpt>
|
|
<trkpt lat="55.600345" lon="8.281701">
|
|
<ele>6.463985</ele>
|
|
<time>2026-07-11T11:11:55.000Z</time>
|
|
</trkpt>
|
|
<trkpt lat="55.600395" lon="8.281736">
|
|
<ele>6.460533</ele>
|
|
<time>2026-07-11T11:11:56.000Z</time>
|
|
</trkpt>
|
|
<trkpt lat="55.600444" lon="8.281777">
|
|
<ele>6.457054</ele>
|
|
<time>2026-07-11T11:11:57.000Z</time>
|
|
</trkpt>
|
|
<trkpt lat="55.600492" lon="8.281822">
|
|
<ele>6.453567</ele>
|
|
<time>2026-07-11T11:11:58.000Z</time>
|
|
</trkpt>
|
|
<trkpt lat="55.600538" lon="8.281870">
|
|
<ele>6.450138</ele>
|
|
<time>2026-07-11T11:11:59.000Z</time>
|
|
</trkpt>
|
|
<trkpt lat="55.600585" lon="8.281918">
|
|
<ele>6.446655</ele>
|
|
<time>2026-07-11T11:12:00.000Z</time>
|
|
</trkpt>
|
|
<trkpt lat="55.600633" lon="8.281967">
|
|
<ele>6.443098</ele>
|
|
<time>2026-07-11T11:12:01.000Z</time>
|
|
</trkpt>
|
|
<trkpt lat="55.600679" lon="8.282015">
|
|
<ele>6.439670</ele>
|
|
<time>2026-07-11T11:12:02.000Z</time>
|
|
</trkpt>
|
|
<trkpt lat="55.600724" lon="8.282065">
|
|
<ele>6.436259</ele>
|
|
<time>2026-07-11T11:12:03.000Z</time>
|
|
</trkpt>
|
|
<trkpt lat="55.600771" lon="8.282114">
|
|
<ele>6.432757</ele>
|
|
<time>2026-07-11T11:12:04.000Z</time>
|
|
</trkpt>
|
|
<trkpt lat="55.600818" lon="8.282162">
|
|
<ele>6.429273</ele>
|
|
<time>2026-07-11T11:12:05.000Z</time>
|
|
</trkpt>
|
|
<trkpt lat="55.600867" lon="8.282211">
|
|
<ele>6.425660</ele>
|
|
<time>2026-07-11T11:12:06.000Z</time>
|
|
</trkpt>
|
|
<trkpt lat="55.600915" lon="8.282258">
|
|
<ele>6.422139</ele>
|
|
<time>2026-07-11T11:12:07.000Z</time>
|
|
</trkpt>
|
|
<trkpt lat="55.600961" lon="8.282304">
|
|
<ele>6.418747</ele>
|
|
<time>2026-07-11T11:12:08.000Z</time>
|
|
</trkpt>
|
|
<trkpt lat="55.601007" lon="8.282348">
|
|
<ele>6.415390</ele>
|
|
<time>2026-07-11T11:12:09.000Z</time>
|
|
</trkpt>
|
|
<trkpt lat="55.601053" lon="8.282393">
|
|
<ele>6.412016</ele>
|
|
<time>2026-07-11T11:12:10.000Z</time>
|
|
</trkpt>
|
|
<trkpt lat="55.601099" lon="8.282442">
|
|
<ele>6.408569</ele>
|
|
<time>2026-07-11T11:12:11.000Z</time>
|
|
</trkpt>
|
|
<trkpt lat="55.601143" lon="8.282488">
|
|
<ele>6.405289</ele>
|
|
<time>2026-07-11T11:12:12.000Z</time>
|
|
</trkpt>
|
|
<trkpt lat="55.601186" lon="8.282530">
|
|
<ele>6.402136</ele>
|
|
<time>2026-07-11T11:12:13.000Z</time>
|
|
</trkpt>
|
|
<trkpt lat="55.601232" lon="8.282573">
|
|
<ele>6.398796</ele>
|
|
<time>2026-07-11T11:12:14.000Z</time>
|
|
</trkpt>
|
|
<trkpt lat="55.601276" lon="8.282617">
|
|
<ele>6.395552</ele>
|
|
<time>2026-07-11T11:12:15.000Z</time>
|
|
</trkpt>
|
|
<trkpt lat="55.601320" lon="8.282661">
|
|
<ele>6.392307</ele>
|
|
<time>2026-07-11T11:12:16.000Z</time>
|
|
</trkpt>
|
|
<trkpt lat="55.601362" lon="8.282704">
|
|
<ele>6.389192</ele>
|
|
<time>2026-07-11T11:12:17.000Z</time>
|
|
</trkpt>
|
|
<trkpt lat="55.601402" lon="8.282744">
|
|
<ele>6.386243</ele>
|
|
<time>2026-07-11T11:12:18.000Z</time>
|
|
</trkpt>
|
|
<trkpt lat="55.601442" lon="8.282784">
|
|
<ele>6.383294</ele>
|
|
<time>2026-07-11T11:12:19.000Z</time>
|
|
</trkpt>
|
|
<trkpt lat="55.601482" lon="8.282825">
|
|
<ele>6.380326</ele>
|
|
<time>2026-07-11T11:12:20.000Z</time>
|
|
</trkpt>
|
|
<trkpt lat="55.601524" lon="8.282867">
|
|
<ele>6.377229</ele>
|
|
<time>2026-07-11T11:12:21.000Z</time>
|
|
</trkpt>
|
|
<trkpt lat="55.601566" lon="8.282912">
|
|
<ele>6.374078</ele>
|
|
<time>2026-07-11T11:12:22.000Z</time>
|
|
</trkpt>
|
|
<trkpt lat="55.601606" lon="8.282958">
|
|
<ele>6.371015</ele>
|
|
<time>2026-07-11T11:12:23.000Z</time>
|
|
</trkpt>
|
|
<trkpt lat="55.601646" lon="8.283005">
|
|
<ele>6.367933</ele>
|
|
<time>2026-07-11T11:12:24.000Z</time>
|
|
</trkpt>
|
|
<trkpt lat="55.601688" lon="8.283053">
|
|
<ele>6.364724</ele>
|
|
<time>2026-07-11T11:12:25.000Z</time>
|
|
</trkpt>
|
|
<trkpt lat="55.601730" lon="8.283098">
|
|
<ele>6.361572</ele>
|
|
<time>2026-07-11T11:12:26.000Z</time>
|
|
</trkpt>
|
|
<trkpt lat="55.601772" lon="8.283143">
|
|
<ele>6.316375</ele>
|
|
<time>2026-07-11T11:12:27.000Z</time>
|
|
</trkpt>
|
|
<trkpt lat="55.601814" lon="8.283189">
|
|
<ele>6.265094</ele>
|
|
<time>2026-07-11T11:12:28.000Z</time>
|
|
</trkpt>
|
|
<trkpt lat="55.601856" lon="8.283234">
|
|
<ele>6.214120</ele>
|
|
<time>2026-07-11T11:12:29.000Z</time>
|
|
</trkpt>
|
|
<trkpt lat="55.601898" lon="8.283278">
|
|
<ele>6.163447</ele>
|
|
<time>2026-07-11T11:12:30.000Z</time>
|
|
</trkpt>
|
|
<trkpt lat="55.601940" lon="8.283318">
|
|
<ele>6.113927</ele>
|
|
<time>2026-07-11T11:12:31.000Z</time>
|
|
</trkpt>
|
|
<trkpt lat="55.601982" lon="8.283351">
|
|
<ele>6.066216</ele>
|
|
<time>2026-07-11T11:12:32.000Z</time>
|
|
</trkpt>
|
|
<trkpt lat="55.602025" lon="8.283370">
|
|
<ele>6.020200</ele>
|
|
<time>2026-07-11T11:12:33.000Z</time>
|
|
</trkpt>
|
|
<trkpt lat="55.602071" lon="8.283370">
|
|
<ele>5.972439</ele>
|
|
<time>2026-07-11T11:12:34.000Z</time>
|
|
</trkpt>
|
|
<trkpt lat="55.602117" lon="8.283345">
|
|
<ele>5.922477</ele>
|
|
<time>2026-07-11T11:12:35.000Z</time>
|
|
</trkpt>
|
|
<trkpt lat="55.602159" lon="8.283299">
|
|
<ele>5.871197</ele>
|
|
<time>2026-07-11T11:12:36.000Z</time>
|
|
</trkpt>
|
|
<trkpt lat="55.602194" lon="8.283238">
|
|
<ele>5.820199</ele>
|
|
<time>2026-07-11T11:12:37.000Z</time>
|
|
</trkpt>
|
|
<trkpt lat="55.602224" lon="8.283164">
|
|
<ele>5.766773</ele>
|
|
<time>2026-07-11T11:12:38.000Z</time>
|
|
</trkpt>
|
|
<trkpt lat="55.602254" lon="8.283084">
|
|
<ele>5.710451</ele>
|
|
<time>2026-07-11T11:12:39.000Z</time>
|
|
</trkpt>
|
|
<trkpt lat="55.602280" lon="8.283004">
|
|
<ele>5.656315</ele>
|
|
<time>2026-07-11T11:12:40.000Z</time>
|
|
</trkpt>
|
|
<trkpt lat="55.602308" lon="8.282926">
|
|
<ele>5.602108</ele>
|
|
<time>2026-07-11T11:12:41.000Z</time>
|
|
</trkpt>
|
|
<trkpt lat="55.602337" lon="8.282848">
|
|
<ele>5.547337</ele>
|
|
<time>2026-07-11T11:12:42.000Z</time>
|
|
</trkpt>
|
|
<trkpt lat="55.602364" lon="8.282768">
|
|
<ele>5.492675</ele>
|
|
<time>2026-07-11T11:12:43.000Z</time>
|
|
</trkpt>
|
|
<trkpt lat="55.602391" lon="8.282691">
|
|
<ele>5.439517</ele>
|
|
<time>2026-07-11T11:12:44.000Z</time>
|
|
</trkpt>
|
|
<trkpt lat="55.602418" lon="8.282615">
|
|
<ele>5.386857</ele>
|
|
<time>2026-07-11T11:12:45.000Z</time>
|
|
</trkpt>
|
|
<trkpt lat="55.602442" lon="8.282537">
|
|
<ele>5.334759</ele>
|
|
<time>2026-07-11T11:12:46.000Z</time>
|
|
</trkpt>
|
|
<trkpt lat="55.602465" lon="8.282457">
|
|
<ele>5.282107</ele>
|
|
<time>2026-07-11T11:12:47.000Z</time>
|
|
</trkpt>
|
|
<trkpt lat="55.602490" lon="8.282375">
|
|
<ele>5.227452</ele>
|
|
<time>2026-07-11T11:12:48.000Z</time>
|
|
</trkpt>
|
|
<trkpt lat="55.602515" lon="8.282294">
|
|
<ele>5.173312</ele>
|
|
<time>2026-07-11T11:12:49.000Z</time>
|
|
</trkpt>
|
|
<trkpt lat="55.602540" lon="8.282214">
|
|
<ele>5.119687</ele>
|
|
<time>2026-07-11T11:12:50.000Z</time>
|
|
</trkpt>
|
|
<trkpt lat="55.602565" lon="8.282132">
|
|
<ele>5.065032</ele>
|
|
<time>2026-07-11T11:12:51.000Z</time>
|
|
</trkpt>
|
|
<trkpt lat="55.602589" lon="8.282053">
|
|
<ele>5.012418</ele>
|
|
<time>2026-07-11T11:12:52.000Z</time>
|
|
</trkpt>
|
|
<trkpt lat="55.602616" lon="8.281974">
|
|
<ele>4.958260</ele>
|
|
<time>2026-07-11T11:12:53.000Z</time>
|
|
</trkpt>
|
|
<trkpt lat="55.602643" lon="8.281893">
|
|
<ele>4.903095</ele>
|
|
<time>2026-07-11T11:12:54.000Z</time>
|
|
</trkpt>
|
|
<trkpt lat="55.602669" lon="8.281809">
|
|
<ele>4.846913</ele>
|
|
<time>2026-07-11T11:12:55.000Z</time>
|
|
</trkpt>
|
|
<trkpt lat="55.602696" lon="8.281726">
|
|
<ele>4.790735</ele>
|
|
<time>2026-07-11T11:12:56.000Z</time>
|
|
</trkpt>
|
|
<trkpt lat="55.602724" lon="8.281643">
|
|
<ele>4.734031</ele>
|
|
<time>2026-07-11T11:12:57.000Z</time>
|
|
</trkpt>
|
|
<trkpt lat="55.602753" lon="8.281558">
|
|
<ele>4.675787</ele>
|
|
<time>2026-07-11T11:12:58.000Z</time>
|
|
</trkpt>
|
|
<trkpt lat="55.602782" lon="8.281473">
|
|
<ele>4.617543</ele>
|
|
<time>2026-07-11T11:12:59.000Z</time>
|
|
</trkpt>
|
|
<trkpt lat="55.602811" lon="8.281386">
|
|
<ele>4.558291</ele>
|
|
<time>2026-07-11T11:13:00.000Z</time>
|
|
</trkpt>
|
|
<trkpt lat="55.602837" lon="8.281300">
|
|
<ele>4.501078</ele>
|
|
<time>2026-07-11T11:13:01.000Z</time>
|
|
</trkpt>
|
|
<trkpt lat="55.602866" lon="8.281214">
|
|
<ele>4.544724</ele>
|
|
<time>2026-07-11T11:13:02.000Z</time>
|
|
</trkpt>
|
|
<trkpt lat="55.602894" lon="8.281127">
|
|
<ele>4.603093</ele>
|
|
<time>2026-07-11T11:13:03.000Z</time>
|
|
</trkpt>
|
|
<trkpt lat="55.602921" lon="8.281038">
|
|
<ele>4.661983</ele>
|
|
<time>2026-07-11T11:13:04.000Z</time>
|
|
</trkpt>
|
|
<trkpt lat="55.602950" lon="8.280950">
|
|
<ele>4.721373</ele>
|
|
<time>2026-07-11T11:13:05.000Z</time>
|
|
</trkpt>
|
|
<trkpt lat="55.602980" lon="8.280864">
|
|
<ele>4.780294</ele>
|
|
<time>2026-07-11T11:13:06.000Z</time>
|
|
</trkpt>
|
|
<trkpt lat="55.603008" lon="8.280777">
|
|
<ele>4.838663</ele>
|
|
<time>2026-07-11T11:13:07.000Z</time>
|
|
</trkpt>
|
|
<trkpt lat="55.603036" lon="8.280686">
|
|
<ele>4.899069</ele>
|
|
<time>2026-07-11T11:13:08.000Z</time>
|
|
</trkpt>
|
|
<trkpt lat="55.603064" lon="8.280596">
|
|
<ele>4.958964</ele>
|
|
<time>2026-07-11T11:13:09.000Z</time>
|
|
</trkpt>
|
|
<trkpt lat="55.603093" lon="8.280507">
|
|
<ele>5.018857</ele>
|
|
<time>2026-07-11T11:13:10.000Z</time>
|
|
</trkpt>
|
|
<trkpt lat="55.603121" lon="8.280420">
|
|
<ele>5.077226</ele>
|
|
<time>2026-07-11T11:13:11.000Z</time>
|
|
</trkpt>
|
|
<trkpt lat="55.603150" lon="8.280333">
|
|
<ele>5.136113</ele>
|
|
<time>2026-07-11T11:13:12.000Z</time>
|
|
</trkpt>
|
|
<trkpt lat="55.603178" lon="8.280247">
|
|
<ele>5.193976</ele>
|
|
<time>2026-07-11T11:13:13.000Z</time>
|
|
</trkpt>
|
|
<trkpt lat="55.603207" lon="8.280163">
|
|
<ele>5.251363</ele>
|
|
<time>2026-07-11T11:13:14.000Z</time>
|
|
</trkpt>
|
|
<trkpt lat="55.603232" lon="8.280080">
|
|
<ele>5.306195</ele>
|
|
<time>2026-07-11T11:13:15.000Z</time>
|
|
</trkpt>
|
|
<trkpt lat="55.603258" lon="8.279999">
|
|
<ele>5.360503</ele>
|
|
<time>2026-07-11T11:13:16.000Z</time>
|
|
</trkpt>
|
|
<trkpt lat="55.603289" lon="8.279919">
|
|
<ele>5.417055</ele>
|
|
<time>2026-07-11T11:13:17.000Z</time>
|
|
</trkpt>
|
|
<trkpt lat="55.603321" lon="8.279841">
|
|
<ele>5.473250</ele>
|
|
<time>2026-07-11T11:13:18.000Z</time>
|
|
</trkpt>
|
|
<trkpt lat="55.603359" lon="8.279767">
|
|
<ele>5.531546</ele>
|
|
<time>2026-07-11T11:13:19.000Z</time>
|
|
</trkpt>
|
|
<trkpt lat="55.603401" lon="8.279699">
|
|
<ele>5.590279</ele>
|
|
<time>2026-07-11T11:13:20.000Z</time>
|
|
</trkpt>
|
|
<trkpt lat="55.603445" lon="8.279635">
|
|
<ele>5.649045</ele>
|
|
<time>2026-07-11T11:13:21.000Z</time>
|
|
</trkpt>
|
|
<trkpt lat="55.603490" lon="8.279576">
|
|
<ele>5.706830</ele>
|
|
<time>2026-07-11T11:13:22.000Z</time>
|
|
</trkpt>
|
|
<trkpt lat="55.603538" lon="8.279519">
|
|
<ele>5.766474</ele>
|
|
<time>2026-07-11T11:13:23.000Z</time>
|
|
</trkpt>
|
|
<trkpt lat="55.603586" lon="8.279466">
|
|
<ele>5.824851</ele>
|
|
<time>2026-07-11T11:13:24.000Z</time>
|
|
</trkpt>
|
|
<trkpt lat="55.603631" lon="8.279410">
|
|
<ele>5.881613</ele>
|
|
<time>2026-07-11T11:13:25.000Z</time>
|
|
</trkpt>
|
|
<trkpt lat="55.603679" lon="8.279357">
|
|
<ele>5.939990</ele>
|
|
<time>2026-07-11T11:13:26.000Z</time>
|
|
</trkpt>
|
|
<trkpt lat="55.603725" lon="8.279305">
|
|
<ele>5.996311</ele>
|
|
<time>2026-07-11T11:13:27.000Z</time>
|
|
</trkpt>
|
|
<trkpt lat="55.603767" lon="8.279251">
|
|
<ele>6.049876</ele>
|
|
<time>2026-07-11T11:13:28.000Z</time>
|
|
</trkpt>
|
|
<trkpt lat="55.603809" lon="8.279192">
|
|
<ele>6.105204</ele>
|
|
<time>2026-07-11T11:13:29.000Z</time>
|
|
</trkpt>
|
|
<trkpt lat="55.603849" lon="8.279131">
|
|
<ele>6.159685</ele>
|
|
<time>2026-07-11T11:13:30.000Z</time>
|
|
</trkpt>
|
|
<trkpt lat="55.603886" lon="8.279069">
|
|
<ele>6.212258</ele>
|
|
<time>2026-07-11T11:13:31.000Z</time>
|
|
</trkpt>
|
|
<trkpt lat="55.603919" lon="8.278999">
|
|
<ele>6.265405</ele>
|
|
<time>2026-07-11T11:13:32.000Z</time>
|
|
</trkpt>
|
|
<trkpt lat="55.603947" lon="8.278926">
|
|
<ele>6.316841</ele>
|
|
<time>2026-07-11T11:13:33.000Z</time>
|
|
</trkpt>
|
|
<trkpt lat="55.603974" lon="8.278851">
|
|
<ele>6.382684</ele>
|
|
<time>2026-07-11T11:13:34.000Z</time>
|
|
</trkpt>
|
|
<trkpt lat="55.603999" lon="8.278770">
|
|
<ele>6.476177</ele>
|
|
<time>2026-07-11T11:13:35.000Z</time>
|
|
</trkpt>
|
|
<trkpt lat="55.604020" lon="8.278687">
|
|
<ele>6.568295</ele>
|
|
<time>2026-07-11T11:13:36.000Z</time>
|
|
</trkpt>
|
|
<trkpt lat="55.604041" lon="8.278605">
|
|
<ele>6.659491</ele>
|
|
<time>2026-07-11T11:13:37.000Z</time>
|
|
</trkpt>
|
|
<trkpt lat="55.604060" lon="8.278521">
|
|
<ele>6.751142</ele>
|
|
<time>2026-07-11T11:13:38.000Z</time>
|
|
</trkpt>
|
|
<trkpt lat="55.604076" lon="8.278437">
|
|
<ele>6.840933</ele>
|
|
<time>2026-07-11T11:13:39.000Z</time>
|
|
</trkpt>
|
|
<trkpt lat="55.604091" lon="8.278355">
|
|
<ele>6.928238</ele>
|
|
<time>2026-07-11T11:13:40.000Z</time>
|
|
</trkpt>
|
|
<trkpt lat="55.604106" lon="8.278274">
|
|
<ele>7.014579</ele>
|
|
<time>2026-07-11T11:13:41.000Z</time>
|
|
</trkpt>
|
|
<trkpt lat="55.604121" lon="8.278194">
|
|
<ele>7.099959</ele>
|
|
<time>2026-07-11T11:13:42.000Z</time>
|
|
</trkpt>
|
|
<trkpt lat="55.604135" lon="8.278115">
|
|
<ele>7.183824</ele>
|
|
<time>2026-07-11T11:13:43.000Z</time>
|
|
</trkpt>
|
|
<trkpt lat="55.604146" lon="8.278037">
|
|
<ele>7.265255</ele>
|
|
<time>2026-07-11T11:13:44.000Z</time>
|
|
</trkpt>
|
|
<trkpt lat="55.604158" lon="8.277963">
|
|
<ele>7.343237</ele>
|
|
<time>2026-07-11T11:13:45.000Z</time>
|
|
</trkpt>
|
|
<trkpt lat="55.604167" lon="8.277888">
|
|
<ele>7.420900</ele>
|
|
<time>2026-07-11T11:13:46.000Z</time>
|
|
</trkpt>
|
|
<trkpt lat="55.604177" lon="8.277812">
|
|
<ele>7.499942</ele>
|
|
<time>2026-07-11T11:13:47.000Z</time>
|
|
</trkpt>
|
|
<trkpt lat="55.604188" lon="8.277736">
|
|
<ele>7.579409</ele>
|
|
<time>2026-07-11T11:13:48.000Z</time>
|
|
</trkpt>
|
|
<trkpt lat="55.604198" lon="8.277661">
|
|
<ele>7.657465</ele>
|
|
<time>2026-07-11T11:13:49.000Z</time>
|
|
</trkpt>
|
|
<trkpt lat="55.604207" lon="8.277584">
|
|
<ele>7.737111</ele>
|
|
<time>2026-07-11T11:13:50.000Z</time>
|
|
</trkpt>
|
|
<trkpt lat="55.604219" lon="8.277506">
|
|
<ele>7.818995</ele>
|
|
<time>2026-07-11T11:13:51.000Z</time>
|
|
</trkpt>
|
|
<trkpt lat="55.604230" lon="8.277424">
|
|
<ele>7.904363</ele>
|
|
<time>2026-07-11T11:13:52.000Z</time>
|
|
</trkpt>
|
|
<trkpt lat="55.604243" lon="8.277341">
|
|
<ele>7.991605</ele>
|
|
<time>2026-07-11T11:13:53.000Z</time>
|
|
</trkpt>
|
|
<trkpt lat="55.604257" lon="8.277259">
|
|
<ele>8.078374</ele>
|
|
<time>2026-07-11T11:13:54.000Z</time>
|
|
</trkpt>
|
|
<trkpt lat="55.604268" lon="8.277177">
|
|
<ele>8.163742</ele>
|
|
<time>2026-07-11T11:13:55.000Z</time>
|
|
</trkpt>
|
|
<trkpt lat="55.604282" lon="8.277099">
|
|
<ele>8.246641</ele>
|
|
<time>2026-07-11T11:13:56.000Z</time>
|
|
</trkpt>
|
|
<trkpt lat="55.604295" lon="8.277022">
|
|
<ele>8.328043</ele>
|
|
<time>2026-07-11T11:13:57.000Z</time>
|
|
</trkpt>
|
|
<trkpt lat="55.604305" lon="8.276942">
|
|
<ele>8.411035</ele>
|
|
<time>2026-07-11T11:13:58.000Z</time>
|
|
</trkpt>
|
|
<trkpt lat="55.604312" lon="8.276861">
|
|
<ele>8.494035</ele>
|
|
<time>2026-07-11T11:13:59.000Z</time>
|
|
</trkpt>
|
|
<trkpt lat="55.604322" lon="8.276781">
|
|
<ele>8.577027</ele>
|
|
<time>2026-07-11T11:14:00.000Z</time>
|
|
</trkpt>
|
|
<trkpt lat="55.604335" lon="8.276703">
|
|
<ele>8.659401</ele>
|
|
<time>2026-07-11T11:14:01.000Z</time>
|
|
</trkpt>
|
|
<trkpt lat="55.604349" lon="8.276619">
|
|
<ele>8.748110</ele>
|
|
<time>2026-07-11T11:14:02.000Z</time>
|
|
</trkpt>
|
|
<trkpt lat="55.604362" lon="8.276529">
|
|
<ele>8.842204</ele>
|
|
<time>2026-07-11T11:14:03.000Z</time>
|
|
</trkpt>
|
|
<trkpt lat="55.604377" lon="8.276437">
|
|
<ele>8.939195</ele>
|
|
<time>2026-07-11T11:14:04.000Z</time>
|
|
</trkpt>
|
|
<trkpt lat="55.604390" lon="8.276344">
|
|
<ele>9.036236</ele>
|
|
<time>2026-07-11T11:14:05.000Z</time>
|
|
</trkpt>
|
|
<trkpt lat="55.604402" lon="8.276248">
|
|
<ele>9.135826</ele>
|
|
<time>2026-07-11T11:14:06.000Z</time>
|
|
</trkpt>
|
|
<trkpt lat="55.604410" lon="8.276153">
|
|
<ele>9.233115</ele>
|
|
<time>2026-07-11T11:14:07.000Z</time>
|
|
</trkpt>
|
|
<trkpt lat="55.604415" lon="8.276060">
|
|
<ele>9.327741</ele>
|
|
<time>2026-07-11T11:14:08.000Z</time>
|
|
</trkpt>
|
|
<trkpt lat="55.604420" lon="8.275963">
|
|
<ele>9.426400</ele>
|
|
<time>2026-07-11T11:14:09.000Z</time>
|
|
</trkpt>
|
|
<trkpt lat="55.604418" lon="8.275864">
|
|
<ele>9.526741</ele>
|
|
<time>2026-07-11T11:14:10.000Z</time>
|
|
</trkpt>
|
|
<trkpt lat="55.604416" lon="8.275766">
|
|
<ele>9.630479</ele>
|
|
<time>2026-07-11T11:14:11.000Z</time>
|
|
</trkpt>
|
|
<trkpt lat="55.604414" lon="8.275667">
|
|
<ele>9.739443</ele>
|
|
<time>2026-07-11T11:14:12.000Z</time>
|
|
</trkpt>
|
|
<trkpt lat="55.604412" lon="8.275568">
|
|
<ele>9.848406</ele>
|
|
<time>2026-07-11T11:14:13.000Z</time>
|
|
</trkpt>
|
|
<trkpt lat="55.604412" lon="8.275471">
|
|
<ele>9.955100</ele>
|
|
<time>2026-07-11T11:14:14.000Z</time>
|
|
</trkpt>
|
|
<trkpt lat="55.604410" lon="8.275378">
|
|
<ele>10.057468</ele>
|
|
<time>2026-07-11T11:14:15.000Z</time>
|
|
</trkpt>
|
|
<trkpt lat="55.604407" lon="8.275290">
|
|
<ele>10.154439</ele>
|
|
<time>2026-07-11T11:14:16.000Z</time>
|
|
</trkpt>
|
|
<trkpt lat="55.604404" lon="8.275205">
|
|
<ele>10.248116</ele>
|
|
<time>2026-07-11T11:14:17.000Z</time>
|
|
</trkpt>
|
|
<trkpt lat="55.604403" lon="8.275123">
|
|
<ele>10.338332</ele>
|
|
<time>2026-07-11T11:14:18.000Z</time>
|
|
</trkpt>
|
|
<trkpt lat="55.604399" lon="8.275043">
|
|
<ele>10.426671</ele>
|
|
<time>2026-07-11T11:14:19.000Z</time>
|
|
</trkpt>
|
|
<trkpt lat="55.604397" lon="8.274966">
|
|
<ele>10.511455</ele>
|
|
<time>2026-07-11T11:14:20.000Z</time>
|
|
</trkpt>
|
|
<trkpt lat="55.604397" lon="8.274893">
|
|
<ele>10.591751</ele>
|
|
<time>2026-07-11T11:14:21.000Z</time>
|
|
</trkpt>
|
|
<trkpt lat="55.604395" lon="8.274820">
|
|
<ele>10.672140</ele>
|
|
<time>2026-07-11T11:14:22.000Z</time>
|
|
</trkpt>
|
|
<trkpt lat="55.604391" lon="8.274749">
|
|
<ele>10.750623</ele>
|
|
<time>2026-07-11T11:14:23.000Z</time>
|
|
</trkpt>
|
|
<trkpt lat="55.604389" lon="8.274680">
|
|
<ele>10.826619</ele>
|
|
<time>2026-07-11T11:14:24.000Z</time>
|
|
</trkpt>
|
|
<trkpt lat="55.604388" lon="8.274615">
|
|
<ele>10.898141</ele>
|
|
<time>2026-07-11T11:14:25.000Z</time>
|
|
</trkpt>
|
|
<trkpt lat="55.604385" lon="8.274552">
|
|
<ele>10.967683</ele>
|
|
<time>2026-07-11T11:14:26.000Z</time>
|
|
</trkpt>
|
|
<trkpt lat="55.604385" lon="8.274490">
|
|
<ele>11.035879</ele>
|
|
<time>2026-07-11T11:14:27.000Z</time>
|
|
</trkpt>
|
|
<trkpt lat="55.604385" lon="8.274427">
|
|
<ele>11.105176</ele>
|
|
<time>2026-07-11T11:14:28.000Z</time>
|
|
</trkpt>
|
|
<trkpt lat="55.604384" lon="8.274365">
|
|
<ele>11.173399</ele>
|
|
<time>2026-07-11T11:14:29.000Z</time>
|
|
</trkpt>
|
|
<trkpt lat="55.604382" lon="8.274302">
|
|
<ele>11.242805</ele>
|
|
<time>2026-07-11T11:14:30.000Z</time>
|
|
</trkpt>
|
|
<trkpt lat="55.604380" lon="8.274236">
|
|
<ele>11.315505</ele>
|
|
<time>2026-07-11T11:14:31.000Z</time>
|
|
</trkpt>
|
|
<trkpt lat="55.604378" lon="8.274169">
|
|
<ele>11.389304</ele>
|
|
<time>2026-07-11T11:14:32.000Z</time>
|
|
</trkpt>
|
|
<trkpt lat="55.604376" lon="8.274102">
|
|
<ele>11.463102</ele>
|
|
<time>2026-07-11T11:14:33.000Z</time>
|
|
</trkpt>
|
|
<trkpt lat="55.604374" lon="8.274036">
|
|
<ele>11.535803</ele>
|
|
<time>2026-07-11T11:14:34.000Z</time>
|
|
</trkpt>
|
|
<trkpt lat="55.604372" lon="8.273971">
|
|
<ele>11.607405</ele>
|
|
<time>2026-07-11T11:14:35.000Z</time>
|
|
</trkpt>
|
|
<trkpt lat="55.604370" lon="8.273906">
|
|
<ele>11.679007</ele>
|
|
<time>2026-07-11T11:14:36.000Z</time>
|
|
</trkpt>
|
|
<trkpt lat="55.604368" lon="8.273842">
|
|
<ele>11.749510</ele>
|
|
<time>2026-07-11T11:14:37.000Z</time>
|
|
</trkpt>
|
|
<trkpt lat="55.604366" lon="8.273779">
|
|
<ele>11.818916</ele>
|
|
<time>2026-07-11T11:14:38.000Z</time>
|
|
</trkpt>
|
|
<trkpt lat="55.604366" lon="8.273719">
|
|
<ele>11.884912</ele>
|
|
<time>2026-07-11T11:14:39.000Z</time>
|
|
</trkpt>
|
|
<trkpt lat="55.604366" lon="8.273661">
|
|
<ele>11.948709</ele>
|
|
<time>2026-07-11T11:14:40.000Z</time>
|
|
</trkpt>
|
|
<trkpt lat="55.604365" lon="8.273603">
|
|
<ele>12.012535</ele>
|
|
<time>2026-07-11T11:14:41.000Z</time>
|
|
</trkpt>
|
|
<trkpt lat="55.604364" lon="8.273545">
|
|
<ele>12.076361</ele>
|
|
<time>2026-07-11T11:14:42.000Z</time>
|
|
</trkpt>
|
|
<trkpt lat="55.604370" lon="8.273482">
|
|
<ele>12.146635</ele>
|
|
<time>2026-07-11T11:14:43.000Z</time>
|
|
</trkpt>
|
|
<trkpt lat="55.604379" lon="8.273420">
|
|
<ele>12.217047</ele>
|
|
<time>2026-07-11T11:14:44.000Z</time>
|
|
</trkpt>
|
|
<trkpt lat="55.604393" lon="8.273355">
|
|
<ele>12.293563</ele>
|
|
<time>2026-07-11T11:14:45.000Z</time>
|
|
</trkpt>
|
|
<trkpt lat="55.604415" lon="8.273288">
|
|
<ele>12.378804</ele>
|
|
<time>2026-07-11T11:14:46.000Z</time>
|
|
</trkpt>
|
|
<trkpt lat="55.604439" lon="8.273225">
|
|
<ele>12.462385</ele>
|
|
<time>2026-07-11T11:14:47.000Z</time>
|
|
</trkpt>
|
|
<trkpt lat="55.604469" lon="8.273165">
|
|
<ele>12.550519</ele>
|
|
<time>2026-07-11T11:14:48.000Z</time>
|
|
</trkpt>
|
|
<trkpt lat="55.604504" lon="8.273112">
|
|
<ele>12.640201</ele>
|
|
<time>2026-07-11T11:14:49.000Z</time>
|
|
</trkpt>
|
|
<trkpt lat="55.604540" lon="8.273060">
|
|
<ele>12.730672</ele>
|
|
<time>2026-07-11T11:14:50.000Z</time>
|
|
</trkpt>
|
|
<trkpt lat="55.604579" lon="8.273010">
|
|
<ele>12.824433</ele>
|
|
<time>2026-07-11T11:14:51.000Z</time>
|
|
</trkpt>
|
|
<trkpt lat="55.604621" lon="8.272963">
|
|
<ele>12.921182</ele>
|
|
<time>2026-07-11T11:14:52.000Z</time>
|
|
</trkpt>
|
|
<trkpt lat="55.604664" lon="8.272914">
|
|
<ele>13.020756</ele>
|
|
<time>2026-07-11T11:14:53.000Z</time>
|
|
</trkpt>
|
|
<trkpt lat="55.604704" lon="8.272863">
|
|
<ele>13.089382</ele>
|
|
<time>2026-07-11T11:14:54.000Z</time>
|
|
</trkpt>
|
|
<trkpt lat="55.604744" lon="8.272812">
|
|
<ele>13.119383</ele>
|
|
<time>2026-07-11T11:14:55.000Z</time>
|
|
</trkpt>
|
|
<trkpt lat="55.604789" lon="8.272759">
|
|
<ele>13.152276</ele>
|
|
<time>2026-07-11T11:14:56.000Z</time>
|
|
</trkpt>
|
|
<trkpt lat="55.604833" lon="8.272706">
|
|
<ele>13.184665</ele>
|
|
<time>2026-07-11T11:14:57.000Z</time>
|
|
</trkpt>
|
|
<trkpt lat="55.604877" lon="8.272657">
|
|
<ele>13.216301</ele>
|
|
<time>2026-07-11T11:14:58.000Z</time>
|
|
</trkpt>
|
|
<trkpt lat="55.604921" lon="8.272607">
|
|
<ele>13.248121</ele>
|
|
<time>2026-07-11T11:14:59.000Z</time>
|
|
</trkpt>
|
|
<trkpt lat="55.604965" lon="8.272553">
|
|
<ele>13.280704</ele>
|
|
<time>2026-07-11T11:15:00.000Z</time>
|
|
</trkpt>
|
|
<trkpt lat="55.605006" lon="8.272498">
|
|
<ele>13.312011</ele>
|
|
<time>2026-07-11T11:15:01.000Z</time>
|
|
</trkpt>
|
|
<trkpt lat="55.605050" lon="8.272443">
|
|
<ele>13.344792</ele>
|
|
<time>2026-07-11T11:15:02.000Z</time>
|
|
</trkpt>
|
|
<trkpt lat="55.605096" lon="8.272388">
|
|
<ele>13.378574</ele>
|
|
<time>2026-07-11T11:15:03.000Z</time>
|
|
</trkpt>
|
|
<trkpt lat="55.605142" lon="8.272333">
|
|
<ele>13.412356</ele>
|
|
<time>2026-07-11T11:15:04.000Z</time>
|
|
</trkpt>
|
|
<trkpt lat="55.605188" lon="8.272277">
|
|
<ele>13.446332</ele>
|
|
<time>2026-07-11T11:15:05.000Z</time>
|
|
</trkpt>
|
|
<trkpt lat="55.605234" lon="8.272223">
|
|
<ele>13.479922</ele>
|
|
<time>2026-07-11T11:15:06.000Z</time>
|
|
</trkpt>
|
|
<trkpt lat="55.605283" lon="8.272177">
|
|
<ele>13.513677</ele>
|
|
<time>2026-07-11T11:15:07.000Z</time>
|
|
</trkpt>
|
|
<trkpt lat="55.605338" lon="8.272144">
|
|
<ele>13.549019</ele>
|
|
<time>2026-07-11T11:15:08.000Z</time>
|
|
</trkpt>
|
|
<trkpt lat="55.605395" lon="8.272127">
|
|
<ele>13.584197</ele>
|
|
<time>2026-07-11T11:15:09.000Z</time>
|
|
</trkpt>
|
|
<trkpt lat="55.605451" lon="8.272126">
|
|
<ele>13.618280</ele>
|
|
<time>2026-07-11T11:15:10.000Z</time>
|
|
</trkpt>
|
|
<trkpt lat="55.605504" lon="8.272140">
|
|
<ele>13.650892</ele>
|
|
<time>2026-07-11T11:15:11.000Z</time>
|
|
</trkpt>
|
|
<trkpt lat="55.605557" lon="8.272166">
|
|
<ele>13.684362</ele>
|
|
<time>2026-07-11T11:15:12.000Z</time>
|
|
</trkpt>
|
|
<trkpt lat="55.605609" lon="8.272200">
|
|
<ele>13.718098</ele>
|
|
<time>2026-07-11T11:15:13.000Z</time>
|
|
</trkpt>
|
|
<trkpt lat="55.605661" lon="8.272238">
|
|
<ele>13.752335</ele>
|
|
<time>2026-07-11T11:15:14.000Z</time>
|
|
</trkpt>
|
|
<trkpt lat="55.605714" lon="8.272278">
|
|
<ele>13.787398</ele>
|
|
<time>2026-07-11T11:15:15.000Z</time>
|
|
</trkpt>
|
|
<trkpt lat="55.605766" lon="8.272323">
|
|
<ele>13.822624</ele>
|
|
<time>2026-07-11T11:15:16.000Z</time>
|
|
</trkpt>
|
|
<trkpt lat="55.605814" lon="8.272366">
|
|
<ele>13.855363</ele>
|
|
<time>2026-07-11T11:15:17.000Z</time>
|
|
</trkpt>
|
|
<trkpt lat="55.605861" lon="8.272409">
|
|
<ele>13.887560</ele>
|
|
<time>2026-07-11T11:15:18.000Z</time>
|
|
</trkpt>
|
|
<trkpt lat="55.605912" lon="8.272450">
|
|
<ele>13.921649</ele>
|
|
<time>2026-07-11T11:15:19.000Z</time>
|
|
</trkpt>
|
|
<trkpt lat="55.605964" lon="8.272488">
|
|
<ele>13.955885</ele>
|
|
<time>2026-07-11T11:15:20.000Z</time>
|
|
</trkpt>
|
|
<trkpt lat="55.606014" lon="8.272528">
|
|
<ele>13.989277</ele>
|
|
<time>2026-07-11T11:15:21.000Z</time>
|
|
</trkpt>
|
|
<trkpt lat="55.606063" lon="8.272567">
|
|
<ele>14.021973</ele>
|
|
<time>2026-07-11T11:15:22.000Z</time>
|
|
</trkpt>
|
|
<trkpt lat="55.606113" lon="8.272607">
|
|
<ele>14.055365</ele>
|
|
<time>2026-07-11T11:15:23.000Z</time>
|
|
</trkpt>
|
|
<trkpt lat="55.606162" lon="8.272645">
|
|
<ele>14.087922</ele>
|
|
<time>2026-07-11T11:15:24.000Z</time>
|
|
</trkpt>
|
|
<trkpt lat="55.606210" lon="8.272682">
|
|
<ele>14.119783</ele>
|
|
<time>2026-07-11T11:15:25.000Z</time>
|
|
</trkpt>
|
|
<trkpt lat="55.606258" lon="8.272721">
|
|
<ele>14.151924</ele>
|
|
<time>2026-07-11T11:15:26.000Z</time>
|
|
</trkpt>
|
|
<trkpt lat="55.606306" lon="8.272761">
|
|
<ele>14.187359</ele>
|
|
<time>2026-07-11T11:15:27.000Z</time>
|
|
</trkpt>
|
|
<trkpt lat="55.606353" lon="8.272800">
|
|
<ele>14.226813</ele>
|
|
<time>2026-07-11T11:15:28.000Z</time>
|
|
</trkpt>
|
|
<trkpt lat="55.606403" lon="8.272839">
|
|
<ele>14.268343</ele>
|
|
<time>2026-07-11T11:15:29.000Z</time>
|
|
</trkpt>
|
|
<trkpt lat="55.606451" lon="8.272876">
|
|
<ele>14.308135</ele>
|
|
<time>2026-07-11T11:15:30.000Z</time>
|
|
</trkpt>
|
|
<trkpt lat="55.606498" lon="8.272914">
|
|
<ele>14.347409</ele>
|
|
<time>2026-07-11T11:15:31.000Z</time>
|
|
</trkpt>
|
|
<trkpt lat="55.606548" lon="8.272952">
|
|
<ele>14.388768</ele>
|
|
<time>2026-07-11T11:15:32.000Z</time>
|
|
</trkpt>
|
|
<trkpt lat="55.606597" lon="8.272990">
|
|
<ele>14.429429</ele>
|
|
<time>2026-07-11T11:15:33.000Z</time>
|
|
</trkpt>
|
|
<trkpt lat="55.606645" lon="8.273027">
|
|
<ele>14.469222</ele>
|
|
<time>2026-07-11T11:15:34.000Z</time>
|
|
</trkpt>
|
|
<trkpt lat="55.606693" lon="8.273065">
|
|
<ele>14.509188</ele>
|
|
<time>2026-07-11T11:15:35.000Z</time>
|
|
</trkpt>
|
|
<trkpt lat="55.606742" lon="8.273101">
|
|
<ele>14.549513</ele>
|
|
<time>2026-07-11T11:15:36.000Z</time>
|
|
</trkpt>
|
|
<trkpt lat="55.606790" lon="8.273137">
|
|
<ele>14.589136</ele>
|
|
<time>2026-07-11T11:15:37.000Z</time>
|
|
</trkpt>
|
|
<trkpt lat="55.606837" lon="8.273175">
|
|
<ele>14.628410</ele>
|
|
<time>2026-07-11T11:15:38.000Z</time>
|
|
</trkpt>
|
|
<trkpt lat="55.606885" lon="8.273211">
|
|
<ele>14.668033</ele>
|
|
<time>2026-07-11T11:15:39.000Z</time>
|
|
</trkpt>
|
|
<trkpt lat="55.606931" lon="8.273246">
|
|
<ele>14.706090</ele>
|
|
<time>2026-07-11T11:15:40.000Z</time>
|
|
</trkpt>
|
|
<trkpt lat="55.606979" lon="8.273283">
|
|
<ele>14.745883</ele>
|
|
<time>2026-07-11T11:15:41.000Z</time>
|
|
</trkpt>
|
|
<trkpt lat="55.607028" lon="8.273320">
|
|
<ele>14.786374</ele>
|
|
<time>2026-07-11T11:15:42.000Z</time>
|
|
</trkpt>
|
|
<trkpt lat="55.607076" lon="8.273359">
|
|
<ele>14.826517</ele>
|
|
<time>2026-07-11T11:15:43.000Z</time>
|
|
</trkpt>
|
|
<trkpt lat="55.607126" lon="8.273397">
|
|
<ele>14.867875</ele>
|
|
<time>2026-07-11T11:15:44.000Z</time>
|
|
</trkpt>
|
|
<trkpt lat="55.607177" lon="8.273434">
|
|
<ele>14.909769</ele>
|
|
<time>2026-07-11T11:15:45.000Z</time>
|
|
</trkpt>
|
|
<trkpt lat="55.607226" lon="8.273471">
|
|
<ele>14.950260</ele>
|
|
<time>2026-07-11T11:15:46.000Z</time>
|
|
</trkpt>
|
|
<trkpt lat="55.607276" lon="8.273509">
|
|
<ele>14.991618</ele>
|
|
<time>2026-07-11T11:15:47.000Z</time>
|
|
</trkpt>
|
|
<trkpt lat="55.607326" lon="8.273548">
|
|
<ele>15.033148</ele>
|
|
<time>2026-07-11T11:15:48.000Z</time>
|
|
</trkpt>
|
|
<trkpt lat="55.607375" lon="8.273587">
|
|
<ele>15.073983</ele>
|
|
<time>2026-07-11T11:15:49.000Z</time>
|
|
</trkpt>
|
|
<trkpt lat="55.607427" lon="8.273624">
|
|
<ele>15.116581</ele>
|
|
<time>2026-07-11T11:15:50.000Z</time>
|
|
</trkpt>
|
|
<trkpt lat="55.607478" lon="8.273660">
|
|
<ele>15.158314</ele>
|
|
<time>2026-07-11T11:15:51.000Z</time>
|
|
</trkpt>
|
|
<trkpt lat="55.607528" lon="8.273699">
|
|
<ele>15.199843</ele>
|
|
<time>2026-07-11T11:15:52.000Z</time>
|
|
</trkpt>
|
|
<trkpt lat="55.607580" lon="8.273737">
|
|
<ele>15.242603</ele>
|
|
<time>2026-07-11T11:15:53.000Z</time>
|
|
</trkpt>
|
|
<trkpt lat="55.607631" lon="8.273772">
|
|
<ele>15.284178</ele>
|
|
<time>2026-07-11T11:15:54.000Z</time>
|
|
</trkpt>
|
|
<trkpt lat="55.607683" lon="8.273806">
|
|
<ele>15.326312</ele>
|
|
<time>2026-07-11T11:15:55.000Z</time>
|
|
</trkpt>
|
|
<trkpt lat="55.607734" lon="8.273842">
|
|
<ele>15.368045</ele>
|
|
<time>2026-07-11T11:15:56.000Z</time>
|
|
</trkpt>
|
|
<trkpt lat="55.607784" lon="8.273882">
|
|
<ele>15.409750</ele>
|
|
<time>2026-07-11T11:15:57.000Z</time>
|
|
</trkpt>
|
|
<trkpt lat="55.607833" lon="8.273924">
|
|
<ele>15.451130</ele>
|
|
<time>2026-07-11T11:15:58.000Z</time>
|
|
</trkpt>
|
|
<trkpt lat="55.607883" lon="8.273967">
|
|
<ele>15.493381</ele>
|
|
<time>2026-07-11T11:15:59.000Z</time>
|
|
</trkpt>
|
|
<trkpt lat="55.607934" lon="8.274008">
|
|
<ele>15.535955</ele>
|
|
<time>2026-07-11T11:16:00.000Z</time>
|
|
</trkpt>
|
|
<trkpt lat="55.607986" lon="8.274047">
|
|
<ele>15.562209</ele>
|
|
<time>2026-07-11T11:16:01.000Z</time>
|
|
</trkpt>
|
|
<trkpt lat="55.608037" lon="8.274084">
|
|
<ele>15.586720</ele>
|
|
<time>2026-07-11T11:16:02.000Z</time>
|
|
</trkpt>
|
|
<trkpt lat="55.608089" lon="8.274121">
|
|
<ele>15.611643</ele>
|
|
<time>2026-07-11T11:16:03.000Z</time>
|
|
</trkpt>
|
|
<trkpt lat="55.608139" lon="8.274159">
|
|
<ele>15.635842</ele>
|
|
<time>2026-07-11T11:16:04.000Z</time>
|
|
</trkpt>
|
|
<trkpt lat="55.608188" lon="8.274199">
|
|
<ele>15.659838</ele>
|
|
<time>2026-07-11T11:16:05.000Z</time>
|
|
</trkpt>
|
|
<trkpt lat="55.608239" lon="8.274235">
|
|
<ele>15.684255</ele>
|
|
<time>2026-07-11T11:16:06.000Z</time>
|
|
</trkpt>
|
|
<trkpt lat="55.608293" lon="8.274268">
|
|
<ele>15.709660</ele>
|
|
<time>2026-07-11T11:16:07.000Z</time>
|
|
</trkpt>
|
|
<trkpt lat="55.608345" lon="8.274300">
|
|
<ele>15.734143</ele>
|
|
<time>2026-07-11T11:16:08.000Z</time>
|
|
</trkpt>
|
|
<trkpt lat="55.608396" lon="8.274330">
|
|
<ele>15.758043</ele>
|
|
<time>2026-07-11T11:16:09.000Z</time>
|
|
</trkpt>
|
|
<trkpt lat="55.608449" lon="8.274360">
|
|
<ele>15.782788</ele>
|
|
<time>2026-07-11T11:16:10.000Z</time>
|
|
</trkpt>
|
|
<trkpt lat="55.608501" lon="8.274389">
|
|
<ele>15.807034</ele>
|
|
<time>2026-07-11T11:16:11.000Z</time>
|
|
</trkpt>
|
|
<trkpt lat="55.608552" lon="8.274414">
|
|
<ele>15.830568</ele>
|
|
<time>2026-07-11T11:16:12.000Z</time>
|
|
</trkpt>
|
|
<trkpt lat="55.608606" lon="8.274438">
|
|
<ele>15.855328</ele>
|
|
<time>2026-07-11T11:16:13.000Z</time>
|
|
</trkpt>
|
|
<trkpt lat="55.608659" lon="8.274462">
|
|
<ele>15.879657</ele>
|
|
<time>2026-07-11T11:16:14.000Z</time>
|
|
</trkpt>
|
|
<trkpt lat="55.608712" lon="8.274486">
|
|
<ele>15.903986</ele>
|
|
<time>2026-07-11T11:16:15.000Z</time>
|
|
</trkpt>
|
|
<trkpt lat="55.608764" lon="8.274511">
|
|
<ele>15.927949</ele>
|
|
<time>2026-07-11T11:16:16.000Z</time>
|
|
</trkpt>
|
|
<trkpt lat="55.608815" lon="8.274533">
|
|
<ele>15.951293</ele>
|
|
<time>2026-07-11T11:16:17.000Z</time>
|
|
</trkpt>
|
|
<trkpt lat="55.608867" lon="8.274550">
|
|
<ele>15.974809</ele>
|
|
<time>2026-07-11T11:16:18.000Z</time>
|
|
</trkpt>
|
|
<trkpt lat="55.608918" lon="8.274567">
|
|
<ele>15.997889</ele>
|
|
<time>2026-07-11T11:16:19.000Z</time>
|
|
</trkpt>
|
|
<trkpt lat="55.608972" lon="8.274584">
|
|
<ele>16.022280</ele>
|
|
<time>2026-07-11T11:16:20.000Z</time>
|
|
</trkpt>
|
|
<trkpt lat="55.609025" lon="8.274601">
|
|
<ele>16.046234</ele>
|
|
<time>2026-07-11T11:16:21.000Z</time>
|
|
</trkpt>
|
|
<trkpt lat="55.609079" lon="8.274620">
|
|
<ele>16.070718</ele>
|
|
<time>2026-07-11T11:16:22.000Z</time>
|
|
</trkpt>
|
|
<trkpt lat="55.609130" lon="8.274639">
|
|
<ele>16.093896</ele>
|
|
<time>2026-07-11T11:16:23.000Z</time>
|
|
</trkpt>
|
|
<trkpt lat="55.609182" lon="8.274657">
|
|
<ele>16.117459</ele>
|
|
<time>2026-07-11T11:16:24.000Z</time>
|
|
</trkpt>
|
|
<trkpt lat="55.609233" lon="8.274672">
|
|
<ele>16.140451</ele>
|
|
<time>2026-07-11T11:16:25.000Z</time>
|
|
</trkpt>
|
|
<trkpt lat="55.609285" lon="8.274682">
|
|
<ele>16.163712</ele>
|
|
<time>2026-07-11T11:16:26.000Z</time>
|
|
</trkpt>
|
|
<trkpt lat="55.609336" lon="8.274690">
|
|
<ele>16.186482</ele>
|
|
<time>2026-07-11T11:16:27.000Z</time>
|
|
</trkpt>
|
|
<trkpt lat="55.609386" lon="8.274695">
|
|
<ele>16.208753</ele>
|
|
<time>2026-07-11T11:16:28.000Z</time>
|
|
</trkpt>
|
|
<trkpt lat="55.609435" lon="8.274700">
|
|
<ele>16.230580</ele>
|
|
<time>2026-07-11T11:16:29.000Z</time>
|
|
</trkpt>
|
|
<trkpt lat="55.609485" lon="8.274709">
|
|
<ele>16.252931</ele>
|
|
<time>2026-07-11T11:16:30.000Z</time>
|
|
</trkpt>
|
|
<trkpt lat="55.609534" lon="8.274715">
|
|
<ele>16.274774</ele>
|
|
<time>2026-07-11T11:16:31.000Z</time>
|
|
</trkpt>
|
|
<trkpt lat="55.609583" lon="8.274717">
|
|
<ele>16.296571</ele>
|
|
<time>2026-07-11T11:16:32.000Z</time>
|
|
</trkpt>
|
|
<trkpt lat="55.609634" lon="8.274719">
|
|
<ele>16.319258</ele>
|
|
<time>2026-07-11T11:16:33.000Z</time>
|
|
</trkpt>
|
|
<trkpt lat="55.609683" lon="8.274722">
|
|
<ele>16.325769</ele>
|
|
<time>2026-07-11T11:16:34.000Z</time>
|
|
</trkpt>
|
|
<trkpt lat="55.609734" lon="8.274725">
|
|
<ele>16.207993</ele>
|
|
<time>2026-07-11T11:16:35.000Z</time>
|
|
</trkpt>
|
|
<trkpt lat="55.609786" lon="8.274726">
|
|
<ele>16.087968</ele>
|
|
<time>2026-07-11T11:16:36.000Z</time>
|
|
</trkpt>
|
|
<trkpt lat="55.609836" lon="8.274727">
|
|
<ele>15.972558</ele>
|
|
<time>2026-07-11T11:16:37.000Z</time>
|
|
</trkpt>
|
|
<trkpt lat="55.609887" lon="8.274725">
|
|
<ele>15.854818</ele>
|
|
<time>2026-07-11T11:16:38.000Z</time>
|
|
</trkpt>
|
|
<trkpt lat="55.609937" lon="8.274721">
|
|
<ele>15.739298</ele>
|
|
<time>2026-07-11T11:16:39.000Z</time>
|
|
</trkpt>
|
|
<trkpt lat="55.609986" lon="8.274717">
|
|
<ele>15.626083</ele>
|
|
<time>2026-07-11T11:16:40.000Z</time>
|
|
</trkpt>
|
|
<trkpt lat="55.610038" lon="8.274715">
|
|
<ele>15.506036</ele>
|
|
<time>2026-07-11T11:16:41.000Z</time>
|
|
</trkpt>
|
|
<trkpt lat="55.610090" lon="8.274714">
|
|
<ele>15.386011</ele>
|
|
<time>2026-07-11T11:16:42.000Z</time>
|
|
</trkpt>
|
|
<trkpt lat="55.610141" lon="8.274709">
|
|
<ele>15.268120</ele>
|
|
<time>2026-07-11T11:16:43.000Z</time>
|
|
</trkpt>
|
|
<trkpt lat="55.610193" lon="8.274706">
|
|
<ele>15.148037</ele>
|
|
<time>2026-07-11T11:16:44.000Z</time>
|
|
</trkpt>
|
|
<trkpt lat="55.610246" lon="8.274704">
|
|
<ele>15.025683</ele>
|
|
<time>2026-07-11T11:16:45.000Z</time>
|
|
</trkpt>
|
|
<trkpt lat="55.610299" lon="8.274702">
|
|
<ele>14.903328</ele>
|
|
<time>2026-07-11T11:16:46.000Z</time>
|
|
</trkpt>
|
|
<trkpt lat="55.610353" lon="8.274696">
|
|
<ele>14.778448</ele>
|
|
<time>2026-07-11T11:16:47.000Z</time>
|
|
</trkpt>
|
|
<trkpt lat="55.610408" lon="8.274686">
|
|
<ele>14.650838</ele>
|
|
<time>2026-07-11T11:16:48.000Z</time>
|
|
</trkpt>
|
|
<trkpt lat="55.610467" lon="8.274675">
|
|
<ele>14.513910</ele>
|
|
<time>2026-07-11T11:16:49.000Z</time>
|
|
</trkpt>
|
|
<trkpt lat="55.610528" lon="8.274665">
|
|
<ele>14.372517</ele>
|
|
<time>2026-07-11T11:16:50.000Z</time>
|
|
</trkpt>
|
|
<trkpt lat="55.610587" lon="8.274651">
|
|
<ele>14.235124</ele>
|
|
<time>2026-07-11T11:16:51.000Z</time>
|
|
</trkpt>
|
|
<trkpt lat="55.610648" lon="8.274636">
|
|
<ele>14.092982</ele>
|
|
<time>2026-07-11T11:16:52.000Z</time>
|
|
</trkpt>
|
|
<trkpt lat="55.610711" lon="8.274621">
|
|
<ele>13.946265</ele>
|
|
<time>2026-07-11T11:16:53.000Z</time>
|
|
</trkpt>
|
|
<trkpt lat="55.610773" lon="8.274609">
|
|
<ele>13.802314</ele>
|
|
<time>2026-07-11T11:16:54.000Z</time>
|
|
</trkpt>
|
|
<trkpt lat="55.610838" lon="8.274599">
|
|
<ele>13.651725</ele>
|
|
<time>2026-07-11T11:16:55.000Z</time>
|
|
</trkpt>
|
|
<trkpt lat="55.610905" lon="8.274588">
|
|
<ele>13.496422</ele>
|
|
<time>2026-07-11T11:16:56.000Z</time>
|
|
</trkpt>
|
|
<trkpt lat="55.610974" lon="8.274576">
|
|
<ele>13.336400</ele>
|
|
<time>2026-07-11T11:16:57.000Z</time>
|
|
</trkpt>
|
|
<trkpt lat="55.611042" lon="8.274562">
|
|
<ele>13.178395</ele>
|
|
<time>2026-07-11T11:16:58.000Z</time>
|
|
</trkpt>
|
|
<trkpt lat="55.611108" lon="8.274546">
|
|
<ele>13.024643</ele>
|
|
<time>2026-07-11T11:16:59.000Z</time>
|
|
</trkpt>
|
|
<trkpt lat="55.611177" lon="8.274530">
|
|
<ele>12.864027</ele>
|
|
<time>2026-07-11T11:17:00.000Z</time>
|
|
</trkpt>
|
|
<trkpt lat="55.611248" lon="8.274513">
|
|
<ele>12.698664</ele>
|
|
<time>2026-07-11T11:17:01.000Z</time>
|
|
</trkpt>
|
|
<trkpt lat="55.611317" lon="8.274497">
|
|
<ele>12.538048</ele>
|
|
<time>2026-07-11T11:17:02.000Z</time>
|
|
</trkpt>
|
|
<trkpt lat="55.611386" lon="8.274482">
|
|
<ele>12.377597</ele>
|
|
<time>2026-07-11T11:17:03.000Z</time>
|
|
</trkpt>
|
|
<trkpt lat="55.611456" lon="8.274466">
|
|
<ele>12.214692</ele>
|
|
<time>2026-07-11T11:17:04.000Z</time>
|
|
</trkpt>
|
|
<trkpt lat="55.611526" lon="8.274452">
|
|
<ele>12.182465</ele>
|
|
<time>2026-07-11T11:17:05.000Z</time>
|
|
</trkpt>
|
|
<trkpt lat="55.611595" lon="8.274438">
|
|
<ele>12.176812</ele>
|
|
<time>2026-07-11T11:17:06.000Z</time>
|
|
</trkpt>
|
|
<trkpt lat="55.611666" lon="8.274423">
|
|
<ele>12.170992</ele>
|
|
<time>2026-07-11T11:17:07.000Z</time>
|
|
</trkpt>
|
|
<trkpt lat="55.611738" lon="8.274408">
|
|
<ele>12.165090</ele>
|
|
<time>2026-07-11T11:17:08.000Z</time>
|
|
</trkpt>
|
|
<trkpt lat="55.611809" lon="8.274390">
|
|
<ele>12.159252</ele>
|
|
<time>2026-07-11T11:17:09.000Z</time>
|
|
</trkpt>
|
|
<trkpt lat="55.611877" lon="8.274372">
|
|
<ele>12.153655</ele>
|
|
<time>2026-07-11T11:17:10.000Z</time>
|
|
</trkpt>
|
|
<trkpt lat="55.611947" lon="8.274356">
|
|
<ele>12.147910</ele>
|
|
<time>2026-07-11T11:17:11.000Z</time>
|
|
</trkpt>
|
|
<trkpt lat="55.612020" lon="8.274340">
|
|
<ele>12.141922</ele>
|
|
<time>2026-07-11T11:17:12.000Z</time>
|
|
</trkpt>
|
|
<trkpt lat="55.612093" lon="8.274325">
|
|
<ele>12.135940</ele>
|
|
<time>2026-07-11T11:17:13.000Z</time>
|
|
</trkpt>
|
|
<trkpt lat="55.612164" lon="8.274309">
|
|
<ele>12.130114</ele>
|
|
<time>2026-07-11T11:17:14.000Z</time>
|
|
</trkpt>
|
|
<trkpt lat="55.612231" lon="8.274292">
|
|
<ele>12.124605</ele>
|
|
<time>2026-07-11T11:17:15.000Z</time>
|
|
</trkpt>
|
|
<trkpt lat="55.612296" lon="8.274277">
|
|
<ele>12.119269</ele>
|
|
<time>2026-07-11T11:17:16.000Z</time>
|
|
</trkpt>
|
|
<trkpt lat="55.612360" lon="8.274263">
|
|
<ele>12.114020</ele>
|
|
<time>2026-07-11T11:17:17.000Z</time>
|
|
</trkpt>
|
|
<trkpt lat="55.612424" lon="8.274254">
|
|
<ele>12.108794</ele>
|
|
<time>2026-07-11T11:17:18.000Z</time>
|
|
</trkpt>
|
|
<trkpt lat="55.612486" lon="8.274248">
|
|
<ele>12.103740</ele>
|
|
<time>2026-07-11T11:17:19.000Z</time>
|
|
</trkpt>
|
|
<trkpt lat="55.612550" lon="8.274247">
|
|
<ele>12.098530</ele>
|
|
<time>2026-07-11T11:17:20.000Z</time>
|
|
</trkpt>
|
|
<trkpt lat="55.612609" lon="8.274249">
|
|
<ele>12.093726</ele>
|
|
<time>2026-07-11T11:17:21.000Z</time>
|
|
</trkpt>
|
|
<trkpt lat="55.612666" lon="8.274245">
|
|
<ele>12.089083</ele>
|
|
<time>2026-07-11T11:17:22.000Z</time>
|
|
</trkpt>
|
|
<trkpt lat="55.612722" lon="8.274240">
|
|
<ele>12.084519</ele>
|
|
<time>2026-07-11T11:17:23.000Z</time>
|
|
</trkpt>
|
|
<trkpt lat="55.612775" lon="8.274241">
|
|
<ele>12.080204</ele>
|
|
<time>2026-07-11T11:17:24.000Z</time>
|
|
</trkpt>
|
|
<trkpt lat="55.612825" lon="8.274247">
|
|
<ele>12.076125</ele>
|
|
<time>2026-07-11T11:17:25.000Z</time>
|
|
</trkpt>
|
|
<trkpt lat="55.612874" lon="8.274258">
|
|
<ele>12.072104</ele>
|
|
<time>2026-07-11T11:17:26.000Z</time>
|
|
</trkpt>
|
|
<trkpt lat="55.612926" lon="8.274272">
|
|
<ele>12.067823</ele>
|
|
<time>2026-07-11T11:17:27.000Z</time>
|
|
</trkpt>
|
|
<trkpt lat="55.612978" lon="8.274287">
|
|
<ele>12.063534</ele>
|
|
<time>2026-07-11T11:17:28.000Z</time>
|
|
</trkpt>
|
|
<trkpt lat="55.613033" lon="8.274307">
|
|
<ele>12.058964</ele>
|
|
<time>2026-07-11T11:17:29.000Z</time>
|
|
</trkpt>
|
|
<trkpt lat="55.613082" lon="8.274325">
|
|
<ele>12.054890</ele>
|
|
<time>2026-07-11T11:17:30.000Z</time>
|
|
</trkpt>
|
|
<trkpt lat="55.613132" lon="8.274345">
|
|
<ele>12.050718</ele>
|
|
<time>2026-07-11T11:17:31.000Z</time>
|
|
</trkpt>
|
|
<trkpt lat="55.613183" lon="8.274367">
|
|
<ele>12.046445</ele>
|
|
<time>2026-07-11T11:17:32.000Z</time>
|
|
</trkpt>
|
|
<trkpt lat="55.613233" lon="8.274390">
|
|
<ele>12.042240</ele>
|
|
<time>2026-07-11T11:17:33.000Z</time>
|
|
</trkpt>
|
|
<trkpt lat="55.613281" lon="8.274413">
|
|
<ele>12.058365</ele>
|
|
<time>2026-07-11T11:17:34.000Z</time>
|
|
</trkpt>
|
|
<trkpt lat="55.613329" lon="8.274439">
|
|
<ele>12.085624</ele>
|
|
<time>2026-07-11T11:17:35.000Z</time>
|
|
</trkpt>
|
|
<trkpt lat="55.613376" lon="8.274465">
|
|
<ele>12.112365</ele>
|
|
<time>2026-07-11T11:17:36.000Z</time>
|
|
</trkpt>
|
|
<trkpt lat="55.613424" lon="8.274493">
|
|
<ele>12.139810</ele>
|
|
<time>2026-07-11T11:17:37.000Z</time>
|
|
</trkpt>
|
|
<trkpt lat="55.613470" lon="8.274523">
|
|
<ele>12.166432</ele>
|
|
<time>2026-07-11T11:17:38.000Z</time>
|
|
</trkpt>
|
|
<trkpt lat="55.613515" lon="8.274554">
|
|
<ele>12.192654</ele>
|
|
<time>2026-07-11T11:17:39.000Z</time>
|
|
</trkpt>
|
|
<trkpt lat="55.613561" lon="8.274585">
|
|
<ele>12.219383</ele>
|
|
<time>2026-07-11T11:17:40.000Z</time>
|
|
</trkpt>
|
|
<trkpt lat="55.613608" lon="8.274617">
|
|
<ele>12.246729</ele>
|
|
<time>2026-07-11T11:17:41.000Z</time>
|
|
</trkpt>
|
|
<trkpt lat="55.613656" lon="8.274651">
|
|
<ele>12.274805</ele>
|
|
<time>2026-07-11T11:17:42.000Z</time>
|
|
</trkpt>
|
|
<trkpt lat="55.613702" lon="8.274684">
|
|
<ele>12.301759</ele>
|
|
<time>2026-07-11T11:17:43.000Z</time>
|
|
</trkpt>
|
|
<trkpt lat="55.613748" lon="8.274715">
|
|
<ele>12.328488</ele>
|
|
<time>2026-07-11T11:17:44.000Z</time>
|
|
</trkpt>
|
|
<trkpt lat="55.613794" lon="8.274743">
|
|
<ele>12.354904</ele>
|
|
<time>2026-07-11T11:17:45.000Z</time>
|
|
</trkpt>
|
|
<trkpt lat="55.613840" lon="8.274771">
|
|
<ele>12.381319</ele>
|
|
<time>2026-07-11T11:17:46.000Z</time>
|
|
</trkpt>
|
|
<trkpt lat="55.613885" lon="8.274801">
|
|
<ele>12.407432</ele>
|
|
<time>2026-07-11T11:17:47.000Z</time>
|
|
</trkpt>
|
|
<trkpt lat="55.613931" lon="8.274833">
|
|
<ele>12.434272</ele>
|
|
<time>2026-07-11T11:17:48.000Z</time>
|
|
</trkpt>
|
|
<trkpt lat="55.613975" lon="8.274866">
|
|
<ele>12.460222</ele>
|
|
<time>2026-07-11T11:17:49.000Z</time>
|
|
</trkpt>
|
|
<trkpt lat="55.614021" lon="8.274896">
|
|
<ele>12.486844</ele>
|
|
<time>2026-07-11T11:17:50.000Z</time>
|
|
</trkpt>
|
|
<trkpt lat="55.614067" lon="8.274923">
|
|
<ele>12.513161</ele>
|
|
<time>2026-07-11T11:17:51.000Z</time>
|
|
</trkpt>
|
|
<trkpt lat="55.614111" lon="8.274948">
|
|
<ele>12.538256</ele>
|
|
<time>2026-07-11T11:17:52.000Z</time>
|
|
</trkpt>
|
|
<trkpt lat="55.614156" lon="8.274973">
|
|
<ele>12.563869</ele>
|
|
<time>2026-07-11T11:17:53.000Z</time>
|
|
</trkpt>
|
|
<trkpt lat="55.614200" lon="8.274997">
|
|
<ele>12.588872</ele>
|
|
<time>2026-07-11T11:17:54.000Z</time>
|
|
</trkpt>
|
|
<trkpt lat="55.614244" lon="8.275018">
|
|
<ele>12.613619</ele>
|
|
<time>2026-07-11T11:17:55.000Z</time>
|
|
</trkpt>
|
|
<trkpt lat="55.614288" lon="8.275035">
|
|
<ele>12.638076</ele>
|
|
<time>2026-07-11T11:17:56.000Z</time>
|
|
</trkpt>
|
|
<trkpt lat="55.614332" lon="8.275052">
|
|
<ele>12.662534</ele>
|
|
<time>2026-07-11T11:17:57.000Z</time>
|
|
</trkpt>
|
|
<trkpt lat="55.614375" lon="8.275072">
|
|
<ele>12.686678</ele>
|
|
<time>2026-07-11T11:17:58.000Z</time>
|
|
</trkpt>
|
|
<trkpt lat="55.614418" lon="8.275090">
|
|
<ele>12.710673</ele>
|
|
<time>2026-07-11T11:17:59.000Z</time>
|
|
</trkpt>
|
|
<trkpt lat="55.614464" lon="8.275107">
|
|
<ele>12.736192</ele>
|
|
<time>2026-07-11T11:18:00.000Z</time>
|
|
</trkpt>
|
|
<trkpt lat="55.614512" lon="8.275123">
|
|
<ele>12.762717</ele>
|
|
<time>2026-07-11T11:18:01.000Z</time>
|
|
</trkpt>
|
|
<trkpt lat="55.614560" lon="8.275135">
|
|
<ele>12.789043</ele>
|
|
<time>2026-07-11T11:18:02.000Z</time>
|
|
</trkpt>
|
|
<trkpt lat="55.614610" lon="8.275146">
|
|
<ele>12.816405</ele>
|
|
<time>2026-07-11T11:18:03.000Z</time>
|
|
</trkpt>
|
|
<trkpt lat="55.614663" lon="8.275154">
|
|
<ele>12.845292</ele>
|
|
<time>2026-07-11T11:18:04.000Z</time>
|
|
</trkpt>
|
|
<trkpt lat="55.614718" lon="8.275161">
|
|
<ele>12.875237</ele>
|
|
<time>2026-07-11T11:18:05.000Z</time>
|
|
</trkpt>
|
|
<trkpt lat="55.614774" lon="8.275168">
|
|
<ele>12.905725</ele>
|
|
<time>2026-07-11T11:18:06.000Z</time>
|
|
</trkpt>
|
|
<trkpt lat="55.614829" lon="8.275174">
|
|
<ele>12.935650</ele>
|
|
<time>2026-07-11T11:18:07.000Z</time>
|
|
</trkpt>
|
|
<trkpt lat="55.614888" lon="8.275178">
|
|
<ele>12.967714</ele>
|
|
<time>2026-07-11T11:18:08.000Z</time>
|
|
</trkpt>
|
|
<trkpt lat="55.614947" lon="8.275182">
|
|
<ele>12.999778</ele>
|
|
<time>2026-07-11T11:18:09.000Z</time>
|
|
</trkpt>
|
|
<trkpt lat="55.615006" lon="8.275183">
|
|
<ele>13.044035</ele>
|
|
<time>2026-07-11T11:18:10.000Z</time>
|
|
</trkpt>
|
|
<trkpt lat="55.615067" lon="8.275183">
|
|
<ele>13.105617</ele>
|
|
<time>2026-07-11T11:18:11.000Z</time>
|
|
</trkpt>
|
|
<trkpt lat="55.615128" lon="8.275184">
|
|
<ele>13.167202</ele>
|
|
<time>2026-07-11T11:18:12.000Z</time>
|
|
</trkpt>
|
|
<trkpt lat="55.615191" lon="8.275185">
|
|
<ele>13.230806</ele>
|
|
<time>2026-07-11T11:18:13.000Z</time>
|
|
</trkpt>
|
|
<trkpt lat="55.615256" lon="8.275183">
|
|
<ele>13.296436</ele>
|
|
<time>2026-07-11T11:18:14.000Z</time>
|
|
</trkpt>
|
|
<trkpt lat="55.615319" lon="8.275180">
|
|
<ele>13.360061</ele>
|
|
<time>2026-07-11T11:18:15.000Z</time>
|
|
</trkpt>
|
|
<trkpt lat="55.615378" lon="8.275174">
|
|
<ele>13.419722</ele>
|
|
<time>2026-07-11T11:18:16.000Z</time>
|
|
</trkpt>
|
|
<trkpt lat="55.615435" lon="8.275171">
|
|
<ele>13.477291</ele>
|
|
<time>2026-07-11T11:18:17.000Z</time>
|
|
</trkpt>
|
|
<trkpt lat="55.615494" lon="8.275171">
|
|
<ele>13.536855</ele>
|
|
<time>2026-07-11T11:18:18.000Z</time>
|
|
</trkpt>
|
|
<trkpt lat="55.615551" lon="8.275169">
|
|
<ele>13.594410</ele>
|
|
<time>2026-07-11T11:18:19.000Z</time>
|
|
</trkpt>
|
|
<trkpt lat="55.615607" lon="8.275165">
|
|
<ele>13.650990</ele>
|
|
<time>2026-07-11T11:18:20.000Z</time>
|
|
</trkpt>
|
|
<trkpt lat="55.615663" lon="8.275163">
|
|
<ele>13.707536</ele>
|
|
<time>2026-07-11T11:18:21.000Z</time>
|
|
</trkpt>
|
|
<trkpt lat="55.615718" lon="8.275162">
|
|
<ele>13.763064</ele>
|
|
<time>2026-07-11T11:18:22.000Z</time>
|
|
</trkpt>
|
|
<trkpt lat="55.615775" lon="8.275163">
|
|
<ele>13.820611</ele>
|
|
<time>2026-07-11T11:18:23.000Z</time>
|
|
</trkpt>
|
|
<trkpt lat="55.615830" lon="8.275162">
|
|
<ele>13.876139</ele>
|
|
<time>2026-07-11T11:18:24.000Z</time>
|
|
</trkpt>
|
|
<trkpt lat="55.615884" lon="8.275161">
|
|
<ele>13.930658</ele>
|
|
<time>2026-07-11T11:18:25.000Z</time>
|
|
</trkpt>
|
|
<trkpt lat="55.615937" lon="8.275163">
|
|
<ele>13.984176</ele>
|
|
<time>2026-07-11T11:18:26.000Z</time>
|
|
</trkpt>
|
|
<trkpt lat="55.615991" lon="8.275164">
|
|
<ele>14.038694</ele>
|
|
<time>2026-07-11T11:18:27.000Z</time>
|
|
</trkpt>
|
|
<trkpt lat="55.616044" lon="8.275166">
|
|
<ele>14.092212</ele>
|
|
<time>2026-07-11T11:18:28.000Z</time>
|
|
</trkpt>
|
|
<trkpt lat="55.616096" lon="8.275168">
|
|
<ele>14.144721</ele>
|
|
<time>2026-07-11T11:18:29.000Z</time>
|
|
</trkpt>
|
|
<trkpt lat="55.616145" lon="8.275171">
|
|
<ele>14.194218</ele>
|
|
<time>2026-07-11T11:18:30.000Z</time>
|
|
</trkpt>
|
|
<trkpt lat="55.616195" lon="8.275172">
|
|
<ele>14.244699</ele>
|
|
<time>2026-07-11T11:18:31.000Z</time>
|
|
</trkpt>
|
|
<trkpt lat="55.616246" lon="8.275176">
|
|
<ele>14.296236</ele>
|
|
<time>2026-07-11T11:18:32.000Z</time>
|
|
</trkpt>
|
|
<trkpt lat="55.616298" lon="8.275183">
|
|
<ele>14.348884</ele>
|
|
<time>2026-07-11T11:18:33.000Z</time>
|
|
</trkpt>
|
|
<trkpt lat="55.616348" lon="8.275187">
|
|
<ele>14.399412</ele>
|
|
<time>2026-07-11T11:18:34.000Z</time>
|
|
</trkpt>
|
|
<trkpt lat="55.616397" lon="8.275189">
|
|
<ele>14.448893</ele>
|
|
<time>2026-07-11T11:18:35.000Z</time>
|
|
</trkpt>
|
|
<trkpt lat="55.616446" lon="8.275193">
|
|
<ele>14.498413</ele>
|
|
<time>2026-07-11T11:18:36.000Z</time>
|
|
</trkpt>
|
|
<trkpt lat="55.616496" lon="8.275200">
|
|
<ele>14.549048</ele>
|
|
<time>2026-07-11T11:18:37.000Z</time>
|
|
</trkpt>
|
|
<trkpt lat="55.616546" lon="8.275208">
|
|
<ele>14.599731</ele>
|
|
<time>2026-07-11T11:18:38.000Z</time>
|
|
</trkpt>
|
|
<trkpt lat="55.616596" lon="8.275215">
|
|
<ele>14.650366</ele>
|
|
<time>2026-07-11T11:18:39.000Z</time>
|
|
</trkpt>
|
|
<trkpt lat="55.616643" lon="8.275225">
|
|
<ele>14.698156</ele>
|
|
<time>2026-07-11T11:18:40.000Z</time>
|
|
</trkpt>
|
|
<trkpt lat="55.616689" lon="8.275238">
|
|
<ele>14.745183</ele>
|
|
<time>2026-07-11T11:18:41.000Z</time>
|
|
</trkpt>
|
|
<trkpt lat="55.616735" lon="8.275257">
|
|
<ele>14.792868</ele>
|
|
<time>2026-07-11T11:18:42.000Z</time>
|
|
</trkpt>
|
|
<trkpt lat="55.616783" lon="8.275283">
|
|
<ele>14.837409</ele>
|
|
<time>2026-07-11T11:18:43.000Z</time>
|
|
</trkpt>
|
|
<trkpt lat="55.616830" lon="8.275314">
|
|
<ele>14.857384</ele>
|
|
<time>2026-07-11T11:18:44.000Z</time>
|
|
</trkpt>
|
|
<trkpt lat="55.616876" lon="8.275349">
|
|
<ele>14.877324</ele>
|
|
<time>2026-07-11T11:18:45.000Z</time>
|
|
</trkpt>
|
|
<trkpt lat="55.616922" lon="8.275386">
|
|
<ele>14.897446</ele>
|
|
<time>2026-07-11T11:18:46.000Z</time>
|
|
</trkpt>
|
|
<trkpt lat="55.616966" lon="8.275426">
|
|
<ele>14.917145</ele>
|
|
<time>2026-07-11T11:18:47.000Z</time>
|
|
</trkpt>
|
|
<trkpt lat="55.617010" lon="8.275469">
|
|
<ele>14.937160</ele>
|
|
<time>2026-07-11T11:18:48.000Z</time>
|
|
</trkpt>
|
|
<trkpt lat="55.617054" lon="8.275516">
|
|
<ele>14.957626</ele>
|
|
<time>2026-07-11T11:18:49.000Z</time>
|
|
</trkpt>
|
|
<trkpt lat="55.617094" lon="8.275567">
|
|
<ele>14.977257</ele>
|
|
<time>2026-07-11T11:18:50.000Z</time>
|
|
</trkpt>
|
|
<trkpt lat="55.617132" lon="8.275621">
|
|
<ele>14.996662</ele>
|
|
<time>2026-07-11T11:18:51.000Z</time>
|
|
</trkpt>
|
|
<trkpt lat="55.617172" lon="8.275679">
|
|
<ele>15.017252</ele>
|
|
<time>2026-07-11T11:18:52.000Z</time>
|
|
</trkpt>
|
|
<trkpt lat="55.617211" lon="8.275739">
|
|
<ele>15.037828</ele>
|
|
<time>2026-07-11T11:18:53.000Z</time>
|
|
</trkpt>
|
|
<trkpt lat="55.617246" lon="8.275803">
|
|
<ele>15.057866</ele>
|
|
<time>2026-07-11T11:18:54.000Z</time>
|
|
</trkpt>
|
|
<trkpt lat="55.617281" lon="8.275873">
|
|
<ele>15.078894</ele>
|
|
<time>2026-07-11T11:18:55.000Z</time>
|
|
</trkpt>
|
|
<trkpt lat="55.617313" lon="8.275947">
|
|
<ele>15.099856</ele>
|
|
<time>2026-07-11T11:18:56.000Z</time>
|
|
</trkpt>
|
|
<trkpt lat="55.617348" lon="8.276025">
|
|
<ele>15.122263</ele>
|
|
<time>2026-07-11T11:18:57.000Z</time>
|
|
</trkpt>
|
|
<trkpt lat="55.617379" lon="8.276106">
|
|
<ele>15.144271</ele>
|
|
<time>2026-07-11T11:18:58.000Z</time>
|
|
</trkpt>
|
|
<trkpt lat="55.617407" lon="8.276190">
|
|
<ele>15.166209</ele>
|
|
<time>2026-07-11T11:18:59.000Z</time>
|
|
</trkpt>
|
|
<trkpt lat="55.617436" lon="8.276278">
|
|
<ele>15.189125</ele>
|
|
<time>2026-07-11T11:19:00.000Z</time>
|
|
</trkpt>
|
|
<trkpt lat="55.617461" lon="8.276367">
|
|
<ele>15.211481</ele>
|
|
<time>2026-07-11T11:19:01.000Z</time>
|
|
</trkpt>
|
|
<trkpt lat="55.617482" lon="8.276459">
|
|
<ele>15.233800</ele>
|
|
<time>2026-07-11T11:19:02.000Z</time>
|
|
</trkpt>
|
|
<trkpt lat="55.617501" lon="8.276553">
|
|
<ele>15.256255</ele>
|
|
<time>2026-07-11T11:19:03.000Z</time>
|
|
</trkpt>
|
|
<trkpt lat="55.617517" lon="8.276649">
|
|
<ele>15.278767</ele>
|
|
<time>2026-07-11T11:19:04.000Z</time>
|
|
</trkpt>
|
|
<trkpt lat="55.617530" lon="8.276747">
|
|
<ele>15.301408</ele>
|
|
<time>2026-07-11T11:19:05.000Z</time>
|
|
</trkpt>
|
|
<trkpt lat="55.617542" lon="8.276847">
|
|
<ele>15.324401</ele>
|
|
<time>2026-07-11T11:19:06.000Z</time>
|
|
</trkpt>
|
|
<trkpt lat="55.617549" lon="8.276946">
|
|
<ele>15.346841</ele>
|
|
<time>2026-07-11T11:19:07.000Z</time>
|
|
</trkpt>
|
|
<trkpt lat="55.617557" lon="8.277047">
|
|
<ele>15.369780</ele>
|
|
<time>2026-07-11T11:19:08.000Z</time>
|
|
</trkpt>
|
|
<trkpt lat="55.617563" lon="8.277146">
|
|
<ele>15.392174</ele>
|
|
<time>2026-07-11T11:19:09.000Z</time>
|
|
</trkpt>
|
|
<trkpt lat="55.617569" lon="8.277243">
|
|
<ele>15.414120</ele>
|
|
<time>2026-07-11T11:19:10.000Z</time>
|
|
</trkpt>
|
|
<trkpt lat="55.617576" lon="8.277338">
|
|
<ele>15.435668</ele>
|
|
<time>2026-07-11T11:19:11.000Z</time>
|
|
</trkpt>
|
|
<trkpt lat="55.617584" lon="8.277435">
|
|
<ele>15.457716</ele>
|
|
<time>2026-07-11T11:19:12.000Z</time>
|
|
</trkpt>
|
|
<trkpt lat="55.617591" lon="8.277537">
|
|
<ele>15.480825</ele>
|
|
<time>2026-07-11T11:19:13.000Z</time>
|
|
</trkpt>
|
|
<trkpt lat="55.617599" lon="8.277639">
|
|
<ele>15.503986</ele>
|
|
<time>2026-07-11T11:19:14.000Z</time>
|
|
</trkpt>
|
|
<trkpt lat="55.617607" lon="8.277742">
|
|
<ele>15.527370</ele>
|
|
<time>2026-07-11T11:19:15.000Z</time>
|
|
</trkpt>
|
|
<trkpt lat="55.617614" lon="8.277844">
|
|
<ele>15.546263</ele>
|
|
<time>2026-07-11T11:19:16.000Z</time>
|
|
</trkpt>
|
|
<trkpt lat="55.617623" lon="8.277950">
|
|
<ele>15.428507</ele>
|
|
<time>2026-07-11T11:19:17.000Z</time>
|
|
</trkpt>
|
|
<trkpt lat="55.617633" lon="8.278052">
|
|
<ele>15.314779</ele>
|
|
<time>2026-07-11T11:19:18.000Z</time>
|
|
</trkpt>
|
|
<trkpt lat="55.617639" lon="8.278154">
|
|
<ele>15.202120</ele>
|
|
<time>2026-07-11T11:19:19.000Z</time>
|
|
</trkpt>
|
|
<trkpt lat="55.617645" lon="8.278276">
|
|
<ele>15.067589</ele>
|
|
<time>2026-07-11T11:19:20.000Z</time>
|
|
</trkpt>
|
|
<trkpt lat="55.617651" lon="8.278385">
|
|
<ele>14.947279</ele>
|
|
<time>2026-07-11T11:19:21.000Z</time>
|
|
</trkpt>
|
|
<trkpt lat="55.617654" lon="8.278496">
|
|
<ele>14.825200</ele>
|
|
<time>2026-07-11T11:19:22.000Z</time>
|
|
</trkpt>
|
|
<trkpt lat="55.617662" lon="8.278611">
|
|
<ele>14.697911</ele>
|
|
<time>2026-07-11T11:19:23.000Z</time>
|
|
</trkpt>
|
|
<trkpt lat="55.617673" lon="8.278723">
|
|
<ele>14.573026</ele>
|
|
<time>2026-07-11T11:19:24.000Z</time>
|
|
</trkpt>
|
|
<trkpt lat="55.617683" lon="8.278837">
|
|
<ele>14.446289</ele>
|
|
<time>2026-07-11T11:19:25.000Z</time>
|
|
</trkpt>
|
|
<trkpt lat="55.617691" lon="8.278957">
|
|
<ele>14.313547</ele>
|
|
<time>2026-07-11T11:19:26.000Z</time>
|
|
</trkpt>
|
|
<trkpt lat="55.617698" lon="8.279077">
|
|
<ele>14.181019</ele>
|
|
<time>2026-07-11T11:19:27.000Z</time>
|
|
</trkpt>
|
|
<trkpt lat="55.617706" lon="8.279198">
|
|
<ele>14.047186</ele>
|
|
<time>2026-07-11T11:19:28.000Z</time>
|
|
</trkpt>
|
|
<trkpt lat="55.617712" lon="8.279317">
|
|
<ele>13.915939</ele>
|
|
<time>2026-07-11T11:19:29.000Z</time>
|
|
</trkpt>
|
|
<trkpt lat="55.617717" lon="8.279439">
|
|
<ele>13.781563</ele>
|
|
<time>2026-07-11T11:19:30.000Z</time>
|
|
</trkpt>
|
|
<trkpt lat="55.617726" lon="8.279561">
|
|
<ele>13.646401</ele>
|
|
<time>2026-07-11T11:19:31.000Z</time>
|
|
</trkpt>
|
|
<trkpt lat="55.617738" lon="8.279685">
|
|
<ele>13.508194</ele>
|
|
<time>2026-07-11T11:19:32.000Z</time>
|
|
</trkpt>
|
|
<trkpt lat="55.617748" lon="8.279807">
|
|
<ele>13.372767</ele>
|
|
<time>2026-07-11T11:19:33.000Z</time>
|
|
</trkpt>
|
|
<trkpt lat="55.617755" lon="8.279930">
|
|
<ele>13.236960</ele>
|
|
<time>2026-07-11T11:19:34.000Z</time>
|
|
</trkpt>
|
|
<trkpt lat="55.617763" lon="8.280052">
|
|
<ele>13.102036</ele>
|
|
<time>2026-07-11T11:19:35.000Z</time>
|
|
</trkpt>
|
|
<trkpt lat="55.617769" lon="8.280169">
|
|
<ele>12.972977</ele>
|
|
<time>2026-07-11T11:19:36.000Z</time>
|
|
</trkpt>
|
|
<trkpt lat="55.617771" lon="8.280278">
|
|
<ele>12.853172</ele>
|
|
<time>2026-07-11T11:19:37.000Z</time>
|
|
</trkpt>
|
|
<trkpt lat="55.617773" lon="8.280380">
|
|
<ele>12.741052</ele>
|
|
<time>2026-07-11T11:19:38.000Z</time>
|
|
</trkpt>
|
|
<trkpt lat="55.617778" lon="8.280482">
|
|
<ele>12.628578</ele>
|
|
<time>2026-07-11T11:19:39.000Z</time>
|
|
</trkpt>
|
|
<trkpt lat="55.617786" lon="8.280579">
|
|
<ele>12.520889</ele>
|
|
<time>2026-07-11T11:19:40.000Z</time>
|
|
</trkpt>
|
|
<trkpt lat="55.617793" lon="8.280670">
|
|
<ele>12.419997</ele>
|
|
<time>2026-07-11T11:19:41.000Z</time>
|
|
</trkpt>
|
|
<trkpt lat="55.617804" lon="8.280763">
|
|
<ele>12.315615</ele>
|
|
<time>2026-07-11T11:19:42.000Z</time>
|
|
</trkpt>
|
|
<trkpt lat="55.617825" lon="8.280852">
|
|
<ele>12.209653</ele>
|
|
<time>2026-07-11T11:19:43.000Z</time>
|
|
</trkpt>
|
|
<trkpt lat="55.617859" lon="8.280922">
|
|
<ele>12.108223</ele>
|
|
<time>2026-07-11T11:19:44.000Z</time>
|
|
</trkpt>
|
|
<trkpt lat="55.617910" lon="8.280970">
|
|
<ele>12.030071</ele>
|
|
<time>2026-07-11T11:19:45.000Z</time>
|
|
</trkpt>
|
|
<trkpt lat="55.617969" lon="8.280993">
|
|
<ele>11.985720</ele>
|
|
<time>2026-07-11T11:19:46.000Z</time>
|
|
</trkpt>
|
|
<trkpt lat="55.618032" lon="8.280994">
|
|
<ele>11.939467</ele>
|
|
<time>2026-07-11T11:19:47.000Z</time>
|
|
</trkpt>
|
|
<trkpt lat="55.618094" lon="8.280980">
|
|
<ele>11.893581</ele>
|
|
<time>2026-07-11T11:19:48.000Z</time>
|
|
</trkpt>
|
|
<trkpt lat="55.618151" lon="8.280961">
|
|
<ele>11.851000</ele>
|
|
<time>2026-07-11T11:19:49.000Z</time>
|
|
</trkpt>
|
|
<trkpt lat="55.618208" lon="8.280945">
|
|
<ele>11.808632</ele>
|
|
<time>2026-07-11T11:19:50.000Z</time>
|
|
</trkpt>
|
|
<trkpt lat="55.618265" lon="8.280930">
|
|
<ele>11.766326</ele>
|
|
<time>2026-07-11T11:19:51.000Z</time>
|
|
</trkpt>
|
|
<trkpt lat="55.618322" lon="8.280914">
|
|
<ele>11.723958</ele>
|
|
<time>2026-07-11T11:19:52.000Z</time>
|
|
</trkpt>
|
|
<trkpt lat="55.618380" lon="8.280894">
|
|
<ele>11.680578</ele>
|
|
<time>2026-07-11T11:19:53.000Z</time>
|
|
</trkpt>
|
|
<trkpt lat="55.618440" lon="8.280872">
|
|
<ele>11.635595</ele>
|
|
<time>2026-07-11T11:19:54.000Z</time>
|
|
</trkpt>
|
|
<trkpt lat="55.618499" lon="8.280842">
|
|
<ele>11.590530</ele>
|
|
<time>2026-07-11T11:19:55.000Z</time>
|
|
</trkpt>
|
|
<trkpt lat="55.618559" lon="8.280804">
|
|
<ele>11.543749</ele>
|
|
<time>2026-07-11T11:19:56.000Z</time>
|
|
</trkpt>
|
|
<trkpt lat="55.618624" lon="8.280770">
|
|
<ele>11.493992</ele>
|
|
<time>2026-07-11T11:19:57.000Z</time>
|
|
</trkpt>
|
|
<trkpt lat="55.618691" lon="8.280737">
|
|
<ele>11.442937</ele>
|
|
<time>2026-07-11T11:19:58.000Z</time>
|
|
</trkpt>
|
|
<trkpt lat="55.618759" lon="8.280707">
|
|
<ele>11.391490</ele>
|
|
<time>2026-07-11T11:19:59.000Z</time>
|
|
</trkpt>
|
|
<trkpt lat="55.618828" lon="8.280685">
|
|
<ele>11.340019</ele>
|
|
<time>2026-07-11T11:20:00.000Z</time>
|
|
</trkpt>
|
|
<trkpt lat="55.618894" lon="8.280667">
|
|
<ele>11.290995</ele>
|
|
<time>2026-07-11T11:20:01.000Z</time>
|
|
</trkpt>
|
|
<trkpt lat="55.618960" lon="8.280647">
|
|
<ele>11.241837</ele>
|
|
<time>2026-07-11T11:20:02.000Z</time>
|
|
</trkpt>
|
|
<trkpt lat="55.619030" lon="8.280625">
|
|
<ele>11.189644</ele>
|
|
<time>2026-07-11T11:20:03.000Z</time>
|
|
</trkpt>
|
|
<trkpt lat="55.619098" lon="8.280601">
|
|
<ele>11.138740</ele>
|
|
<time>2026-07-11T11:20:04.000Z</time>
|
|
</trkpt>
|
|
<trkpt lat="55.619167" lon="8.280575">
|
|
<ele>11.086951</ele>
|
|
<time>2026-07-11T11:20:05.000Z</time>
|
|
</trkpt>
|
|
<trkpt lat="55.619238" lon="8.280554">
|
|
<ele>11.034104</ele>
|
|
<time>2026-07-11T11:20:06.000Z</time>
|
|
</trkpt>
|
|
<trkpt lat="55.619309" lon="8.280540">
|
|
<ele>10.981658</ele>
|
|
<time>2026-07-11T11:20:07.000Z</time>
|
|
</trkpt>
|
|
<trkpt lat="55.619377" lon="8.280525">
|
|
<ele>10.931351</ele>
|
|
<time>2026-07-11T11:20:08.000Z</time>
|
|
</trkpt>
|
|
<trkpt lat="55.619446" lon="8.280504">
|
|
<ele>10.879952</ele>
|
|
<time>2026-07-11T11:20:09.000Z</time>
|
|
</trkpt>
|
|
<trkpt lat="55.619513" lon="8.280480">
|
|
<ele>10.829769</ele>
|
|
<time>2026-07-11T11:20:10.000Z</time>
|
|
</trkpt>
|
|
<trkpt lat="55.619577" lon="8.280458">
|
|
<ele>10.781906</ele>
|
|
<time>2026-07-11T11:20:11.000Z</time>
|
|
</trkpt>
|
|
<trkpt lat="55.619642" lon="8.280438">
|
|
<ele>10.733472</ele>
|
|
<time>2026-07-11T11:20:12.000Z</time>
|
|
</trkpt>
|
|
<trkpt lat="55.619709" lon="8.280424">
|
|
<ele>10.700839</ele>
|
|
<time>2026-07-11T11:20:13.000Z</time>
|
|
</trkpt>
|
|
<trkpt lat="55.619778" lon="8.280412">
|
|
<ele>10.668474</ele>
|
|
<time>2026-07-11T11:20:14.000Z</time>
|
|
</trkpt>
|
|
<trkpt lat="55.619846" lon="8.280396">
|
|
<ele>10.636452</ele>
|
|
<time>2026-07-11T11:20:15.000Z</time>
|
|
</trkpt>
|
|
<trkpt lat="55.619915" lon="8.280379">
|
|
<ele>10.603932</ele>
|
|
<time>2026-07-11T11:20:16.000Z</time>
|
|
</trkpt>
|
|
<trkpt lat="55.619986" lon="8.280360">
|
|
<ele>10.570412</ele>
|
|
<time>2026-07-11T11:20:17.000Z</time>
|
|
</trkpt>
|
|
<trkpt lat="55.620057" lon="8.280340">
|
|
<ele>10.536852</ele>
|
|
<time>2026-07-11T11:20:18.000Z</time>
|
|
</trkpt>
|
|
<trkpt lat="55.620125" lon="8.280321">
|
|
<ele>10.504716</ele>
|
|
<time>2026-07-11T11:20:19.000Z</time>
|
|
</trkpt>
|
|
<trkpt lat="55.620194" lon="8.280300">
|
|
<ele>10.472034</ele>
|
|
<time>2026-07-11T11:20:20.000Z</time>
|
|
</trkpt>
|
|
<trkpt lat="55.620262" lon="8.280275">
|
|
<ele>10.439614</ele>
|
|
<time>2026-07-11T11:20:21.000Z</time>
|
|
</trkpt>
|
|
<trkpt lat="55.620330" lon="8.280248">
|
|
<ele>10.407082</ele>
|
|
<time>2026-07-11T11:20:22.000Z</time>
|
|
</trkpt>
|
|
<trkpt lat="55.620398" lon="8.280217">
|
|
<ele>10.374304</ele>
|
|
<time>2026-07-11T11:20:23.000Z</time>
|
|
</trkpt>
|
|
<trkpt lat="55.620463" lon="8.280182">
|
|
<ele>10.342590</ele>
|
|
<time>2026-07-11T11:20:24.000Z</time>
|
|
</trkpt>
|
|
<trkpt lat="55.620528" lon="8.280141">
|
|
<ele>10.310380</ele>
|
|
<time>2026-07-11T11:20:25.000Z</time>
|
|
</trkpt>
|
|
<trkpt lat="55.620591" lon="8.280096">
|
|
<ele>10.278669</ele>
|
|
<time>2026-07-11T11:20:26.000Z</time>
|
|
</trkpt>
|
|
<trkpt lat="55.620651" lon="8.280048">
|
|
<ele>10.247935</ele>
|
|
<time>2026-07-11T11:20:27.000Z</time>
|
|
</trkpt>
|
|
<trkpt lat="55.620713" lon="8.279995">
|
|
<ele>10.215797</ele>
|
|
<time>2026-07-11T11:20:28.000Z</time>
|
|
</trkpt>
|
|
<trkpt lat="55.620776" lon="8.279941">
|
|
<ele>10.183124</ele>
|
|
<time>2026-07-11T11:20:29.000Z</time>
|
|
</trkpt>
|
|
<trkpt lat="55.620836" lon="8.279881">
|
|
<ele>10.150959</ele>
|
|
<time>2026-07-11T11:20:30.000Z</time>
|
|
</trkpt>
|
|
<trkpt lat="55.620889" lon="8.279816">
|
|
<ele>10.120864</ele>
|
|
<time>2026-07-11T11:20:31.000Z</time>
|
|
</trkpt>
|
|
<trkpt lat="55.620942" lon="8.279747">
|
|
<ele>10.090157</ele>
|
|
<time>2026-07-11T11:20:32.000Z</time>
|
|
</trkpt>
|
|
<trkpt lat="55.620995" lon="8.279673">
|
|
<ele>10.058652</ele>
|
|
<time>2026-07-11T11:20:33.000Z</time>
|
|
</trkpt>
|
|
<trkpt lat="55.621046" lon="8.279597">
|
|
<ele>10.027537</ele>
|
|
<time>2026-07-11T11:20:34.000Z</time>
|
|
</trkpt>
|
|
<trkpt lat="55.621097" lon="8.279520">
|
|
<ele>9.996253</ele>
|
|
<time>2026-07-11T11:20:35.000Z</time>
|
|
</trkpt>
|
|
<trkpt lat="55.621145" lon="8.279441">
|
|
<ele>9.965663</ele>
|
|
<time>2026-07-11T11:20:36.000Z</time>
|
|
</trkpt>
|
|
<trkpt lat="55.621189" lon="8.279361">
|
|
<ele>9.936226</ele>
|
|
<time>2026-07-11T11:20:37.000Z</time>
|
|
</trkpt>
|
|
<trkpt lat="55.621233" lon="8.279280">
|
|
<ele>9.906599</ele>
|
|
<time>2026-07-11T11:20:38.000Z</time>
|
|
</trkpt>
|
|
<trkpt lat="55.621276" lon="8.279197">
|
|
<ele>9.886563</ele>
|
|
<time>2026-07-11T11:20:39.000Z</time>
|
|
</trkpt>
|
|
<trkpt lat="55.621316" lon="8.279111">
|
|
<ele>9.877731</ele>
|
|
<time>2026-07-11T11:20:40.000Z</time>
|
|
</trkpt>
|
|
<trkpt lat="55.621355" lon="8.279027">
|
|
<ele>9.869111</ele>
|
|
<time>2026-07-11T11:20:41.000Z</time>
|
|
</trkpt>
|
|
<trkpt lat="55.621395" lon="8.278944">
|
|
<ele>9.860461</ele>
|
|
<time>2026-07-11T11:20:42.000Z</time>
|
|
</trkpt>
|
|
<trkpt lat="55.621437" lon="8.278863">
|
|
<ele>9.851744</ele>
|
|
<time>2026-07-11T11:20:43.000Z</time>
|
|
</trkpt>
|
|
<trkpt lat="55.621480" lon="8.278785">
|
|
<ele>9.843103</ele>
|
|
<time>2026-07-11T11:20:44.000Z</time>
|
|
</trkpt>
|
|
<trkpt lat="55.621524" lon="8.278706">
|
|
<ele>9.834307</ele>
|
|
<time>2026-07-11T11:20:45.000Z</time>
|
|
</trkpt>
|
|
<trkpt lat="55.621566" lon="8.278627">
|
|
<ele>9.825707</ele>
|
|
<time>2026-07-11T11:20:46.000Z</time>
|
|
</trkpt>
|
|
<trkpt lat="55.621608" lon="8.278549">
|
|
<ele>9.817163</ele>
|
|
<time>2026-07-11T11:20:47.000Z</time>
|
|
</trkpt>
|
|
<trkpt lat="55.621650" lon="8.278472">
|
|
<ele>9.808677</ele>
|
|
<time>2026-07-11T11:20:48.000Z</time>
|
|
</trkpt>
|
|
<trkpt lat="55.621690" lon="8.278399">
|
|
<ele>9.800614</ele>
|
|
<time>2026-07-11T11:20:49.000Z</time>
|
|
</trkpt>
|
|
<trkpt lat="55.621729" lon="8.278328">
|
|
<ele>9.792762</ele>
|
|
<time>2026-07-11T11:20:50.000Z</time>
|
|
</trkpt>
|
|
<trkpt lat="55.621768" lon="8.278261">
|
|
<ele>9.785135</ele>
|
|
<time>2026-07-11T11:20:51.000Z</time>
|
|
</trkpt>
|
|
<trkpt lat="55.621811" lon="8.278198">
|
|
<ele>9.777301</ele>
|
|
<time>2026-07-11T11:20:52.000Z</time>
|
|
</trkpt>
|
|
<trkpt lat="55.621854" lon="8.278137">
|
|
<ele>9.769566</ele>
|
|
<time>2026-07-11T11:20:53.000Z</time>
|
|
</trkpt>
|
|
<trkpt lat="55.621901" lon="8.278078">
|
|
<ele>9.761479</ele>
|
|
<time>2026-07-11T11:20:54.000Z</time>
|
|
</trkpt>
|
|
<trkpt lat="55.621949" lon="8.278023">
|
|
<ele>9.753454</ele>
|
|
<time>2026-07-11T11:20:55.000Z</time>
|
|
</trkpt>
|
|
<trkpt lat="55.621994" lon="8.277968">
|
|
<ele>9.745778</ele>
|
|
<time>2026-07-11T11:20:56.000Z</time>
|
|
</trkpt>
|
|
<trkpt lat="55.622036" lon="8.277914">
|
|
<ele>9.738492</ele>
|
|
<time>2026-07-11T11:20:57.000Z</time>
|
|
</trkpt>
|
|
<trkpt lat="55.622081" lon="8.277865">
|
|
<ele>9.731077</ele>
|
|
<time>2026-07-11T11:20:58.000Z</time>
|
|
</trkpt>
|
|
<trkpt lat="55.622131" lon="8.277820">
|
|
<ele>9.723203</ele>
|
|
<time>2026-07-11T11:20:59.000Z</time>
|
|
</trkpt>
|
|
<trkpt lat="55.622180" lon="8.277777">
|
|
<ele>9.715527</ele>
|
|
<time>2026-07-11T11:21:00.000Z</time>
|
|
</trkpt>
|
|
<trkpt lat="55.622231" lon="8.277734">
|
|
<ele>9.707597</ele>
|
|
<time>2026-07-11T11:21:01.000Z</time>
|
|
</trkpt>
|
|
<trkpt lat="55.622285" lon="8.277691">
|
|
<ele>9.699286</ele>
|
|
<time>2026-07-11T11:21:02.000Z</time>
|
|
</trkpt>
|
|
<trkpt lat="55.622338" lon="8.277647">
|
|
<ele>9.691069</ele>
|
|
<time>2026-07-11T11:21:03.000Z</time>
|
|
</trkpt>
|
|
<trkpt lat="55.622392" lon="8.277605">
|
|
<ele>9.682789</ele>
|
|
<time>2026-07-11T11:21:04.000Z</time>
|
|
</trkpt>
|
|
<trkpt lat="55.622445" lon="8.277567">
|
|
<ele>9.674763</ele>
|
|
<time>2026-07-11T11:21:05.000Z</time>
|
|
</trkpt>
|
|
<trkpt lat="55.622500" lon="8.277530">
|
|
<ele>9.666503</ele>
|
|
<time>2026-07-11T11:21:06.000Z</time>
|
|
</trkpt>
|
|
<trkpt lat="55.622556" lon="8.277495">
|
|
<ele>9.658167</ele>
|
|
<time>2026-07-11T11:21:07.000Z</time>
|
|
</trkpt>
|
|
<trkpt lat="55.622611" lon="8.277462">
|
|
<ele>9.650015</ele>
|
|
<time>2026-07-11T11:21:08.000Z</time>
|
|
</trkpt>
|
|
<trkpt lat="55.622666" lon="8.277432">
|
|
<ele>9.641936</ele>
|
|
<time>2026-07-11T11:21:09.000Z</time>
|
|
</trkpt>
|
|
<trkpt lat="55.622722" lon="8.277402">
|
|
<ele>9.672022</ele>
|
|
<time>2026-07-11T11:21:10.000Z</time>
|
|
</trkpt>
|
|
<trkpt lat="55.622778" lon="8.277375">
|
|
<ele>9.733252</ele>
|
|
<time>2026-07-11T11:21:11.000Z</time>
|
|
</trkpt>
|
|
<trkpt lat="55.622836" lon="8.277350">
|
|
<ele>9.796227</ele>
|
|
<time>2026-07-11T11:21:12.000Z</time>
|
|
</trkpt>
|
|
<trkpt lat="55.622893" lon="8.277325">
|
|
<ele>9.858178</ele>
|
|
<time>2026-07-11T11:21:13.000Z</time>
|
|
</trkpt>
|
|
<trkpt lat="55.622950" lon="8.277301">
|
|
<ele>9.919989</ele>
|
|
<time>2026-07-11T11:21:14.000Z</time>
|
|
</trkpt>
|
|
<trkpt lat="55.623007" lon="8.277277">
|
|
<ele>9.981799</ele>
|
|
<time>2026-07-11T11:21:15.000Z</time>
|
|
</trkpt>
|
|
<trkpt lat="55.623065" lon="8.277252">
|
|
<ele>10.044774</ele>
|
|
<time>2026-07-11T11:21:16.000Z</time>
|
|
</trkpt>
|
|
<trkpt lat="55.623120" lon="8.277226">
|
|
<ele>10.104830</ele>
|
|
<time>2026-07-11T11:21:17.000Z</time>
|
|
</trkpt>
|
|
<trkpt lat="55.623174" lon="8.277196">
|
|
<ele>10.164537</ele>
|
|
<time>2026-07-11T11:21:18.000Z</time>
|
|
</trkpt>
|
|
<trkpt lat="55.623227" lon="8.277165">
|
|
<ele>10.223422</ele>
|
|
<time>2026-07-11T11:21:19.000Z</time>
|
|
</trkpt>
|
|
<trkpt lat="55.623280" lon="8.277134">
|
|
<ele>10.282306</ele>
|
|
<time>2026-07-11T11:21:20.000Z</time>
|
|
</trkpt>
|
|
<trkpt lat="55.623334" lon="8.277103">
|
|
<ele>10.342194</ele>
|
|
<time>2026-07-11T11:21:21.000Z</time>
|
|
</trkpt>
|
|
<trkpt lat="55.623387" lon="8.277074">
|
|
<ele>10.400716</ele>
|
|
<time>2026-07-11T11:21:22.000Z</time>
|
|
</trkpt>
|
|
<trkpt lat="55.623439" lon="8.277044">
|
|
<ele>10.458412</ele>
|
|
<time>2026-07-11T11:21:23.000Z</time>
|
|
</trkpt>
|
|
<trkpt lat="55.623487" lon="8.277013">
|
|
<ele>10.512314</ele>
|
|
<time>2026-07-11T11:21:24.000Z</time>
|
|
</trkpt>
|
|
<trkpt lat="55.623535" lon="8.276985">
|
|
<ele>10.565629</ele>
|
|
<time>2026-07-11T11:21:25.000Z</time>
|
|
</trkpt>
|
|
<trkpt lat="55.623584" lon="8.276958">
|
|
<ele>10.619768</ele>
|
|
<time>2026-07-11T11:21:26.000Z</time>
|
|
</trkpt>
|
|
<trkpt lat="55.623634" lon="8.276933">
|
|
<ele>10.674579</ele>
|
|
<time>2026-07-11T11:21:27.000Z</time>
|
|
</trkpt>
|
|
<trkpt lat="55.623682" lon="8.276910">
|
|
<ele>10.727039</ele>
|
|
<time>2026-07-11T11:21:28.000Z</time>
|
|
</trkpt>
|
|
<trkpt lat="55.623727" lon="8.276888">
|
|
<ele>10.776289</ele>
|
|
<time>2026-07-11T11:21:29.000Z</time>
|
|
</trkpt>
|
|
<trkpt lat="55.623772" lon="8.276866">
|
|
<ele>10.825539</ele>
|
|
<time>2026-07-11T11:21:30.000Z</time>
|
|
</trkpt>
|
|
<trkpt lat="55.623814" lon="8.276851">
|
|
<ele>10.870741</ele>
|
|
<time>2026-07-11T11:21:31.000Z</time>
|
|
</trkpt>
|
|
<trkpt lat="55.623852" lon="8.276842">
|
|
<ele>10.911187</ele>
|
|
<time>2026-07-11T11:21:32.000Z</time>
|
|
</trkpt>
|
|
<trkpt lat="55.623884" lon="8.276835">
|
|
<ele>10.945203</ele>
|
|
<time>2026-07-11T11:21:33.000Z</time>
|
|
</trkpt>
|
|
<trkpt lat="55.623915" lon="8.276822">
|
|
<ele>10.978812</ele>
|
|
<time>2026-07-11T11:21:34.000Z</time>
|
|
</trkpt>
|
|
<trkpt lat="55.623938" lon="8.276789">
|
|
<ele>11.010040</ele>
|
|
<time>2026-07-11T11:21:35.000Z</time>
|
|
</trkpt>
|
|
<trkpt lat="55.623952" lon="8.276737">
|
|
<ele>11.044356</ele>
|
|
<time>2026-07-11T11:21:36.000Z</time>
|
|
</trkpt>
|
|
<trkpt lat="55.623963" lon="8.276675">
|
|
<ele>11.083068</ele>
|
|
<time>2026-07-11T11:21:37.000Z</time>
|
|
</trkpt>
|
|
<trkpt lat="55.623973" lon="8.276606">
|
|
<ele>11.125501</ele>
|
|
<time>2026-07-11T11:21:38.000Z</time>
|
|
</trkpt>
|
|
<trkpt lat="55.623979" lon="8.276537">
|
|
<ele>11.167087</ele>
|
|
<time>2026-07-11T11:21:39.000Z</time>
|
|
</trkpt>
|
|
<trkpt lat="55.623983" lon="8.276466">
|
|
<ele>11.209590</ele>
|
|
<time>2026-07-11T11:21:40.000Z</time>
|
|
</trkpt>
|
|
<trkpt lat="55.623987" lon="8.276393">
|
|
<ele>11.253278</ele>
|
|
<time>2026-07-11T11:21:41.000Z</time>
|
|
</trkpt>
|
|
<trkpt lat="55.623993" lon="8.276318">
|
|
<ele>11.298399</ele>
|
|
<time>2026-07-11T11:21:42.000Z</time>
|
|
</trkpt>
|
|
<trkpt lat="55.623997" lon="8.276242">
|
|
<ele>11.343866</ele>
|
|
<time>2026-07-11T11:21:43.000Z</time>
|
|
</trkpt>
|
|
<trkpt lat="55.623997" lon="8.276166">
|
|
<ele>11.389137</ele>
|
|
<time>2026-07-11T11:21:44.000Z</time>
|
|
</trkpt>
|
|
<trkpt lat="55.623998" lon="8.276089">
|
|
<ele>11.435016</ele>
|
|
<time>2026-07-11T11:21:45.000Z</time>
|
|
</trkpt>
|
|
<trkpt lat="55.624004" lon="8.276009">
|
|
<ele>11.483088</ele>
|
|
<time>2026-07-11T11:21:46.000Z</time>
|
|
</trkpt>
|
|
<trkpt lat="55.624012" lon="8.275928">
|
|
<ele>11.532070</ele>
|
|
<time>2026-07-11T11:21:47.000Z</time>
|
|
</trkpt>
|
|
<trkpt lat="55.624018" lon="8.275848">
|
|
<ele>11.584751</ele>
|
|
<time>2026-07-11T11:21:48.000Z</time>
|
|
</trkpt>
|
|
<trkpt lat="55.624020" lon="8.275767">
|
|
<ele>11.638063</ele>
|
|
<time>2026-07-11T11:21:49.000Z</time>
|
|
</trkpt>
|
|
<trkpt lat="55.624021" lon="8.275685">
|
|
<ele>11.691994</ele>
|
|
<time>2026-07-11T11:21:50.000Z</time>
|
|
</trkpt>
|
|
<trkpt lat="55.624023" lon="8.275602">
|
|
<ele>11.746620</ele>
|
|
<time>2026-07-11T11:21:51.000Z</time>
|
|
</trkpt>
|
|
<trkpt lat="55.624022" lon="8.275517">
|
|
<ele>11.802523</ele>
|
|
<time>2026-07-11T11:21:52.000Z</time>
|
|
</trkpt>
|
|
<trkpt lat="55.624018" lon="8.275435">
|
|
<ele>11.856643</ele>
|
|
<time>2026-07-11T11:21:53.000Z</time>
|
|
</trkpt>
|
|
<trkpt lat="55.624014" lon="8.275352">
|
|
<ele>11.911417</ele>
|
|
<time>2026-07-11T11:21:54.000Z</time>
|
|
</trkpt>
|
|
<trkpt lat="55.624010" lon="8.275270">
|
|
<ele>11.965536</ele>
|
|
<time>2026-07-11T11:21:55.000Z</time>
|
|
</trkpt>
|
|
<trkpt lat="55.624007" lon="8.275190">
|
|
<ele>12.018256</ele>
|
|
<time>2026-07-11T11:21:56.000Z</time>
|
|
</trkpt>
|
|
<trkpt lat="55.624003" lon="8.275113">
|
|
<ele>12.069101</ele>
|
|
<time>2026-07-11T11:21:57.000Z</time>
|
|
</trkpt>
|
|
<trkpt lat="55.623999" lon="8.275035">
|
|
<ele>12.120600</ele>
|
|
<time>2026-07-11T11:21:58.000Z</time>
|
|
</trkpt>
|
|
<trkpt lat="55.623997" lon="8.274956">
|
|
<ele>12.172598</ele>
|
|
<time>2026-07-11T11:21:59.000Z</time>
|
|
</trkpt>
|
|
<trkpt lat="55.623996" lon="8.274874">
|
|
<ele>12.226529</ele>
|
|
<time>2026-07-11T11:22:00.000Z</time>
|
|
</trkpt>
|
|
<trkpt lat="55.623994" lon="8.274791">
|
|
<ele>12.281155</ele>
|
|
<time>2026-07-11T11:22:01.000Z</time>
|
|
</trkpt>
|
|
<trkpt lat="55.623991" lon="8.274707">
|
|
<ele>12.336499</ele>
|
|
<time>2026-07-11T11:22:02.000Z</time>
|
|
</trkpt>
|
|
<trkpt lat="55.623986" lon="8.274621">
|
|
<ele>12.393347</ele>
|
|
<time>2026-07-11T11:22:03.000Z</time>
|
|
</trkpt>
|
|
<trkpt lat="55.623976" lon="8.274536">
|
|
<ele>12.450439</ele>
|
|
<time>2026-07-11T11:22:04.000Z</time>
|
|
</trkpt>
|
|
<trkpt lat="55.623967" lon="8.274451">
|
|
<ele>12.507304</ele>
|
|
<time>2026-07-11T11:22:05.000Z</time>
|
|
</trkpt>
|
|
<trkpt lat="55.623956" lon="8.274367">
|
|
<ele>12.564004</ele>
|
|
<time>2026-07-11T11:22:06.000Z</time>
|
|
</trkpt>
|
|
<trkpt lat="55.623940" lon="8.274283">
|
|
<ele>12.622296</ele>
|
|
<time>2026-07-11T11:22:07.000Z</time>
|
|
</trkpt>
|
|
<trkpt lat="55.623925" lon="8.274199">
|
|
<ele>12.680226</ele>
|
|
<time>2026-07-11T11:22:08.000Z</time>
|
|
</trkpt>
|
|
<trkpt lat="55.623908" lon="8.274119">
|
|
<ele>12.736432</ele>
|
|
<time>2026-07-11T11:22:09.000Z</time>
|
|
</trkpt>
|
|
<trkpt lat="55.623890" lon="8.274040">
|
|
<ele>12.792448</ele>
|
|
<time>2026-07-11T11:22:10.000Z</time>
|
|
</trkpt>
|
|
<trkpt lat="55.623870" lon="8.273959">
|
|
<ele>12.850580</ele>
|
|
<time>2026-07-11T11:22:11.000Z</time>
|
|
</trkpt>
|
|
<trkpt lat="55.623849" lon="8.273881">
|
|
<ele>12.907401</ele>
|
|
<time>2026-07-11T11:22:12.000Z</time>
|
|
</trkpt>
|
|
<trkpt lat="55.623826" lon="8.273802">
|
|
<ele>12.965846</ele>
|
|
<time>2026-07-11T11:22:13.000Z</time>
|
|
</trkpt>
|
|
<trkpt lat="55.623803" lon="8.273724">
|
|
<ele>13.023708</ele>
|
|
<time>2026-07-11T11:22:14.000Z</time>
|
|
</trkpt>
|
|
<trkpt lat="55.623779" lon="8.273649">
|
|
<ele>13.080393</ele>
|
|
<time>2026-07-11T11:22:15.000Z</time>
|
|
</trkpt>
|
|
<trkpt lat="55.623754" lon="8.273576">
|
|
<ele>13.136534</ele>
|
|
<time>2026-07-11T11:22:16.000Z</time>
|
|
</trkpt>
|
|
<trkpt lat="55.623729" lon="8.273504">
|
|
<ele>13.192113</ele>
|
|
<time>2026-07-11T11:22:17.000Z</time>
|
|
</trkpt>
|
|
<trkpt lat="55.623703" lon="8.273433">
|
|
<ele>13.247758</ele>
|
|
<time>2026-07-11T11:22:18.000Z</time>
|
|
</trkpt>
|
|
<trkpt lat="55.623678" lon="8.273362">
|
|
<ele>13.302778</ele>
|
|
<time>2026-07-11T11:22:19.000Z</time>
|
|
</trkpt>
|
|
<trkpt lat="55.623655" lon="8.273292">
|
|
<ele>13.356033</ele>
|
|
<time>2026-07-11T11:22:20.000Z</time>
|
|
</trkpt>
|
|
<trkpt lat="55.623634" lon="8.273222">
|
|
<ele>13.408155</ele>
|
|
<time>2026-07-11T11:22:21.000Z</time>
|
|
</trkpt>
|
|
<trkpt lat="55.623613" lon="8.273152">
|
|
<ele>13.460277</ele>
|
|
<time>2026-07-11T11:22:22.000Z</time>
|
|
</trkpt>
|
|
<trkpt lat="55.623592" lon="8.273085">
|
|
<ele>13.510666</ele>
|
|
<time>2026-07-11T11:22:23.000Z</time>
|
|
</trkpt>
|
|
<trkpt lat="55.623572" lon="8.273016">
|
|
<ele>13.561666</ele>
|
|
<time>2026-07-11T11:22:24.000Z</time>
|
|
</trkpt>
|
|
<trkpt lat="55.623553" lon="8.272950">
|
|
<ele>13.610380</ele>
|
|
<time>2026-07-11T11:22:25.000Z</time>
|
|
</trkpt>
|
|
<trkpt lat="55.623536" lon="8.272885">
|
|
<ele>13.655486</ele>
|
|
<time>2026-07-11T11:22:26.000Z</time>
|
|
</trkpt>
|
|
<trkpt lat="55.623521" lon="8.272818">
|
|
<ele>13.699379</ele>
|
|
<time>2026-07-11T11:22:27.000Z</time>
|
|
</trkpt>
|
|
<trkpt lat="55.623507" lon="8.272746">
|
|
<ele>13.745755</ele>
|
|
<time>2026-07-11T11:22:28.000Z</time>
|
|
</trkpt>
|
|
<trkpt lat="55.623494" lon="8.272675">
|
|
<ele>13.791211</ele>
|
|
<time>2026-07-11T11:22:29.000Z</time>
|
|
</trkpt>
|
|
<trkpt lat="55.623480" lon="8.272604">
|
|
<ele>13.837012</ele>
|
|
<time>2026-07-11T11:22:30.000Z</time>
|
|
</trkpt>
|
|
<trkpt lat="55.623469" lon="8.272533">
|
|
<ele>13.881849</ele>
|
|
<time>2026-07-11T11:22:31.000Z</time>
|
|
</trkpt>
|
|
<trkpt lat="55.623458" lon="8.272464">
|
|
<ele>13.925514</ele>
|
|
<time>2026-07-11T11:22:32.000Z</time>
|
|
</trkpt>
|
|
<trkpt lat="55.623446" lon="8.272391">
|
|
<ele>13.971817</ele>
|
|
<time>2026-07-11T11:22:33.000Z</time>
|
|
</trkpt>
|
|
<trkpt lat="55.623433" lon="8.272319">
|
|
<ele>14.017853</ele>
|
|
<time>2026-07-11T11:22:34.000Z</time>
|
|
</trkpt>
|
|
<trkpt lat="55.623418" lon="8.272246">
|
|
<ele>14.065163</ele>
|
|
<time>2026-07-11T11:22:35.000Z</time>
|
|
</trkpt>
|
|
<trkpt lat="55.623404" lon="8.272171">
|
|
<ele>14.113270</ele>
|
|
<time>2026-07-11T11:22:36.000Z</time>
|
|
</trkpt>
|
|
<trkpt lat="55.623393" lon="8.272097">
|
|
<ele>14.159872</ele>
|
|
<time>2026-07-11T11:22:37.000Z</time>
|
|
</trkpt>
|
|
<trkpt lat="55.623381" lon="8.272024">
|
|
<ele>14.206175</ele>
|
|
<time>2026-07-11T11:22:38.000Z</time>
|
|
</trkpt>
|
|
<trkpt lat="55.623370" lon="8.271950">
|
|
<ele>14.252778</ele>
|
|
<time>2026-07-11T11:22:39.000Z</time>
|
|
</trkpt>
|
|
<trkpt lat="55.623357" lon="8.271875">
|
|
<ele>14.300557</ele>
|
|
<time>2026-07-11T11:22:40.000Z</time>
|
|
</trkpt>
|
|
<trkpt lat="55.623341" lon="8.271801">
|
|
<ele>14.348815</ele>
|
|
<time>2026-07-11T11:22:41.000Z</time>
|
|
</trkpt>
|
|
<trkpt lat="55.623326" lon="8.271727">
|
|
<ele>14.396698</ele>
|
|
<time>2026-07-11T11:22:42.000Z</time>
|
|
</trkpt>
|
|
<trkpt lat="55.623313" lon="8.271654">
|
|
<ele>14.443314</ele>
|
|
<time>2026-07-11T11:22:43.000Z</time>
|
|
</trkpt>
|
|
<trkpt lat="55.623300" lon="8.271583">
|
|
<ele>14.488771</ele>
|
|
<time>2026-07-11T11:22:44.000Z</time>
|
|
</trkpt>
|
|
<trkpt lat="55.623284" lon="8.271513">
|
|
<ele>14.534762</ele>
|
|
<time>2026-07-11T11:22:45.000Z</time>
|
|
</trkpt>
|
|
<trkpt lat="55.623271" lon="8.271444">
|
|
<ele>14.579061</ele>
|
|
<time>2026-07-11T11:22:46.000Z</time>
|
|
</trkpt>
|
|
<trkpt lat="55.623257" lon="8.271378">
|
|
<ele>14.621999</ele>
|
|
<time>2026-07-11T11:22:47.000Z</time>
|
|
</trkpt>
|
|
<trkpt lat="55.623247" lon="8.271315">
|
|
<ele>14.661854</ele>
|
|
<time>2026-07-11T11:22:48.000Z</time>
|
|
</trkpt>
|
|
<trkpt lat="55.623245" lon="8.271254">
|
|
<ele>14.699066</ele>
|
|
<time>2026-07-11T11:22:49.000Z</time>
|
|
</trkpt>
|
|
<trkpt lat="55.623250" lon="8.271195">
|
|
<ele>14.735400</ele>
|
|
<time>2026-07-11T11:22:50.000Z</time>
|
|
</trkpt>
|
|
<trkpt lat="55.623263" lon="8.271141">
|
|
<ele>14.771151</ele>
|
|
<time>2026-07-11T11:22:51.000Z</time>
|
|
</trkpt>
|
|
<trkpt lat="55.623279" lon="8.271092">
|
|
<ele>14.805623</ele>
|
|
<time>2026-07-11T11:22:52.000Z</time>
|
|
</trkpt>
|
|
<trkpt lat="55.623292" lon="8.271039">
|
|
<ele>14.840815</ele>
|
|
<time>2026-07-11T11:22:53.000Z</time>
|
|
</trkpt>
|
|
<trkpt lat="55.623299" lon="8.270981">
|
|
<ele>14.876935</ele>
|
|
<time>2026-07-11T11:22:54.000Z</time>
|
|
</trkpt>
|
|
<trkpt lat="55.623295" lon="8.270918">
|
|
<ele>14.915545</ele>
|
|
<time>2026-07-11T11:22:55.000Z</time>
|
|
</trkpt>
|
|
<trkpt lat="55.623283" lon="8.270858">
|
|
<ele>14.954310</ele>
|
|
<time>2026-07-11T11:22:56.000Z</time>
|
|
</trkpt>
|
|
<trkpt lat="55.623262" lon="8.270802">
|
|
<ele>14.995251</ele>
|
|
<time>2026-07-11T11:22:57.000Z</time>
|
|
</trkpt>
|
|
<trkpt lat="55.623236" lon="8.270748">
|
|
<ele>15.038471</ele>
|
|
<time>2026-07-11T11:22:58.000Z</time>
|
|
</trkpt>
|
|
<trkpt lat="55.623207" lon="8.270697">
|
|
<ele>15.082551</ele>
|
|
<time>2026-07-11T11:22:59.000Z</time>
|
|
</trkpt>
|
|
<trkpt lat="55.623178" lon="8.270648">
|
|
<ele>15.125782</ele>
|
|
<time>2026-07-11T11:23:00.000Z</time>
|
|
</trkpt>
|
|
<trkpt lat="55.623149" lon="8.270596">
|
|
<ele>15.170294</ele>
|
|
<time>2026-07-11T11:23:01.000Z</time>
|
|
</trkpt>
|
|
<trkpt lat="55.623123" lon="8.270540">
|
|
<ele>15.214448</ele>
|
|
<time>2026-07-11T11:23:02.000Z</time>
|
|
</trkpt>
|
|
<trkpt lat="55.623096" lon="8.270484">
|
|
<ele>15.259295</ele>
|
|
<time>2026-07-11T11:23:03.000Z</time>
|
|
</trkpt>
|
|
<trkpt lat="55.623069" lon="8.270427">
|
|
<ele>15.304606</ele>
|
|
<time>2026-07-11T11:23:04.000Z</time>
|
|
</trkpt>
|
|
<trkpt lat="55.623039" lon="8.270370">
|
|
<ele>15.352062</ele>
|
|
<time>2026-07-11T11:23:05.000Z</time>
|
|
</trkpt>
|
|
<trkpt lat="55.623008" lon="8.270314">
|
|
<ele>15.399823</ele>
|
|
<time>2026-07-11T11:23:06.000Z</time>
|
|
</trkpt>
|
|
<trkpt lat="55.622982" lon="8.270253">
|
|
<ele>15.446370</ele>
|
|
<time>2026-07-11T11:23:07.000Z</time>
|
|
</trkpt>
|
|
<trkpt lat="55.622953" lon="8.270190">
|
|
<ele>15.495872</ele>
|
|
<time>2026-07-11T11:23:08.000Z</time>
|
|
</trkpt>
|
|
<trkpt lat="55.622922" lon="8.270130">
|
|
<ele>15.545402</ele>
|
|
<time>2026-07-11T11:23:09.000Z</time>
|
|
</trkpt>
|
|
<trkpt lat="55.622892" lon="8.270071">
|
|
<ele>15.583737</ele>
|
|
<time>2026-07-11T11:23:10.000Z</time>
|
|
</trkpt>
|
|
<trkpt lat="55.622861" lon="8.270012">
|
|
<ele>15.611733</ele>
|
|
<time>2026-07-11T11:23:11.000Z</time>
|
|
</trkpt>
|
|
<trkpt lat="55.622831" lon="8.269952">
|
|
<ele>15.639573</ele>
|
|
<time>2026-07-11T11:23:12.000Z</time>
|
|
</trkpt>
|
|
<trkpt lat="55.622801" lon="8.269892">
|
|
<ele>15.667412</ele>
|
|
<time>2026-07-11T11:23:13.000Z</time>
|
|
</trkpt>
|
|
<trkpt lat="55.622770" lon="8.269833">
|
|
<ele>15.695409</ele>
|
|
<time>2026-07-11T11:23:14.000Z</time>
|
|
</trkpt>
|
|
<trkpt lat="55.622739" lon="8.269772">
|
|
<ele>15.723917</ele>
|
|
<time>2026-07-11T11:23:15.000Z</time>
|
|
</trkpt>
|
|
<trkpt lat="55.622709" lon="8.269711">
|
|
<ele>15.752018</ele>
|
|
<time>2026-07-11T11:23:16.000Z</time>
|
|
</trkpt>
|
|
<trkpt lat="55.622677" lon="8.269651">
|
|
<ele>15.780689</ele>
|
|
<time>2026-07-11T11:23:17.000Z</time>
|
|
</trkpt>
|
|
<trkpt lat="55.622644" lon="8.269590">
|
|
<ele>15.810035</ele>
|
|
<time>2026-07-11T11:23:18.000Z</time>
|
|
</trkpt>
|
|
<trkpt lat="55.622614" lon="8.269528">
|
|
<ele>15.838398</ele>
|
|
<time>2026-07-11T11:23:19.000Z</time>
|
|
</trkpt>
|
|
<trkpt lat="55.622582" lon="8.269467">
|
|
<ele>15.867322</ele>
|
|
<time>2026-07-11T11:23:20.000Z</time>
|
|
</trkpt>
|
|
<trkpt lat="55.622549" lon="8.269406">
|
|
<ele>15.896668</ele>
|
|
<time>2026-07-11T11:23:21.000Z</time>
|
|
</trkpt>
|
|
<trkpt lat="55.622518" lon="8.269345">
|
|
<ele>15.925177</ele>
|
|
<time>2026-07-11T11:23:22.000Z</time>
|
|
</trkpt>
|
|
<trkpt lat="55.622488" lon="8.269284">
|
|
<ele>15.953278</ele>
|
|
<time>2026-07-11T11:23:23.000Z</time>
|
|
</trkpt>
|
|
<trkpt lat="55.622457" lon="8.269222">
|
|
<ele>15.982046</ele>
|
|
<time>2026-07-11T11:23:24.000Z</time>
|
|
</trkpt>
|
|
<trkpt lat="55.622427" lon="8.269158">
|
|
<ele>16.010941</ele>
|
|
<time>2026-07-11T11:23:25.000Z</time>
|
|
</trkpt>
|
|
<trkpt lat="55.622396" lon="8.269092">
|
|
<ele>16.040764</ele>
|
|
<time>2026-07-11T11:23:26.000Z</time>
|
|
</trkpt>
|
|
<trkpt lat="55.622367" lon="8.269026">
|
|
<ele>16.069815</ele>
|
|
<time>2026-07-11T11:23:27.000Z</time>
|
|
</trkpt>
|
|
<trkpt lat="55.622339" lon="8.268961">
|
|
<ele>16.098215</ele>
|
|
<time>2026-07-11T11:23:28.000Z</time>
|
|
</trkpt>
|
|
<trkpt lat="55.622309" lon="8.268895">
|
|
<ele>16.127648</ele>
|
|
<time>2026-07-11T11:23:29.000Z</time>
|
|
</trkpt>
|
|
<trkpt lat="55.622280" lon="8.268828">
|
|
<ele>16.156974</ele>
|
|
<time>2026-07-11T11:23:30.000Z</time>
|
|
</trkpt>
|
|
<trkpt lat="55.622250" lon="8.268762">
|
|
<ele>16.186407</ele>
|
|
<time>2026-07-11T11:23:31.000Z</time>
|
|
</trkpt>
|
|
<trkpt lat="55.622215" lon="8.268696">
|
|
<ele>16.217860</ele>
|
|
<time>2026-07-11T11:23:32.000Z</time>
|
|
</trkpt>
|
|
<trkpt lat="55.622181" lon="8.268631">
|
|
<ele>16.248640</ele>
|
|
<time>2026-07-11T11:23:33.000Z</time>
|
|
</trkpt>
|
|
<trkpt lat="55.622148" lon="8.268566">
|
|
<ele>16.279004</ele>
|
|
<time>2026-07-11T11:23:34.000Z</time>
|
|
</trkpt>
|
|
<trkpt lat="55.622116" lon="8.268501">
|
|
<ele>16.308961</ele>
|
|
<time>2026-07-11T11:23:35.000Z</time>
|
|
</trkpt>
|
|
<trkpt lat="55.622083" lon="8.268435">
|
|
<ele>16.339586</ele>
|
|
<time>2026-07-11T11:23:36.000Z</time>
|
|
</trkpt>
|
|
<trkpt lat="55.622051" lon="8.268369">
|
|
<ele>16.369805</ele>
|
|
<time>2026-07-11T11:23:37.000Z</time>
|
|
</trkpt>
|
|
<trkpt lat="55.622019" lon="8.268304">
|
|
<ele>16.399762</ele>
|
|
<time>2026-07-11T11:23:38.000Z</time>
|
|
</trkpt>
|
|
<trkpt lat="55.621986" lon="8.268240">
|
|
<ele>16.429870</ele>
|
|
<time>2026-07-11T11:23:39.000Z</time>
|
|
</trkpt>
|
|
<trkpt lat="55.621954" lon="8.268175">
|
|
<ele>16.459827</ele>
|
|
<time>2026-07-11T11:23:40.000Z</time>
|
|
</trkpt>
|
|
<trkpt lat="55.621922" lon="8.268112">
|
|
<ele>16.489264</ele>
|
|
<time>2026-07-11T11:23:41.000Z</time>
|
|
</trkpt>
|
|
<trkpt lat="55.621888" lon="8.268048">
|
|
<ele>16.519790</ele>
|
|
<time>2026-07-11T11:23:42.000Z</time>
|
|
</trkpt>
|
|
<trkpt lat="55.621855" lon="8.267984">
|
|
<ele>16.549897</ele>
|
|
<time>2026-07-11T11:23:43.000Z</time>
|
|
</trkpt>
|
|
<trkpt lat="55.621824" lon="8.267919">
|
|
<ele>16.579454</ele>
|
|
<time>2026-07-11T11:23:44.000Z</time>
|
|
</trkpt>
|
|
<trkpt lat="55.621793" lon="8.267854">
|
|
<ele>16.609010</ele>
|
|
<time>2026-07-11T11:23:45.000Z</time>
|
|
</trkpt>
|
|
<trkpt lat="55.621763" lon="8.267788">
|
|
<ele>16.638444</ele>
|
|
<time>2026-07-11T11:23:46.000Z</time>
|
|
</trkpt>
|
|
<trkpt lat="55.621732" lon="8.267720">
|
|
<ele>16.668804</ele>
|
|
<time>2026-07-11T11:23:47.000Z</time>
|
|
</trkpt>
|
|
<trkpt lat="55.621702" lon="8.267653">
|
|
<ele>16.665656</ele>
|
|
<time>2026-07-11T11:23:48.000Z</time>
|
|
</trkpt>
|
|
<trkpt lat="55.621673" lon="8.267586">
|
|
<ele>16.650207</ele>
|
|
<time>2026-07-11T11:23:49.000Z</time>
|
|
</trkpt>
|
|
<trkpt lat="55.621645" lon="8.267519">
|
|
<ele>16.634953</ele>
|
|
<time>2026-07-11T11:23:50.000Z</time>
|
|
</trkpt>
|
|
<trkpt lat="55.621614" lon="8.267450">
|
|
<ele>16.618816</ele>
|
|
<time>2026-07-11T11:23:51.000Z</time>
|
|
</trkpt>
|
|
<trkpt lat="55.621587" lon="8.267378">
|
|
<ele>16.602999</ele>
|
|
<time>2026-07-11T11:23:52.000Z</time>
|
|
</trkpt>
|
|
<trkpt lat="55.621565" lon="8.267302">
|
|
<ele>16.587370</ele>
|
|
<time>2026-07-11T11:23:53.000Z</time>
|
|
</trkpt>
|
|
<trkpt lat="55.621541" lon="8.267226">
|
|
<ele>16.571434</ele>
|
|
<time>2026-07-11T11:23:54.000Z</time>
|
|
</trkpt>
|
|
<trkpt lat="55.621517" lon="8.267150">
|
|
<ele>16.555499</ele>
|
|
<time>2026-07-11T11:23:55.000Z</time>
|
|
</trkpt>
|
|
<trkpt lat="55.621490" lon="8.267076">
|
|
<ele>16.539376</ele>
|
|
<time>2026-07-11T11:23:56.000Z</time>
|
|
</trkpt>
|
|
<trkpt lat="55.621463" lon="8.267006">
|
|
<ele>16.523862</ele>
|
|
<time>2026-07-11T11:23:57.000Z</time>
|
|
</trkpt>
|
|
<trkpt lat="55.621434" lon="8.266943">
|
|
<ele>16.508987</ele>
|
|
<time>2026-07-11T11:23:58.000Z</time>
|
|
</trkpt>
|
|
<trkpt lat="55.621402" lon="8.266881">
|
|
<ele>16.493615</ele>
|
|
<time>2026-07-11T11:23:59.000Z</time>
|
|
</trkpt>
|
|
<trkpt lat="55.621372" lon="8.266818">
|
|
<ele>16.478534</ele>
|
|
<time>2026-07-11T11:24:00.000Z</time>
|
|
</trkpt>
|
|
<trkpt lat="55.621343" lon="8.266757">
|
|
<ele>16.463941</ele>
|
|
<time>2026-07-11T11:24:01.000Z</time>
|
|
</trkpt>
|
|
<trkpt lat="55.621314" lon="8.266698">
|
|
<ele>16.449626</ele>
|
|
<time>2026-07-11T11:24:02.000Z</time>
|
|
</trkpt>
|
|
<trkpt lat="55.621286" lon="8.266641">
|
|
<ele>16.435800</ele>
|
|
<time>2026-07-11T11:24:03.000Z</time>
|
|
</trkpt>
|
|
<trkpt lat="55.621256" lon="8.266584">
|
|
<ele>16.421540</ele>
|
|
<time>2026-07-11T11:24:04.000Z</time>
|
|
</trkpt>
|
|
<trkpt lat="55.621227" lon="8.266527">
|
|
<ele>16.407499</ele>
|
|
<time>2026-07-11T11:24:05.000Z</time>
|
|
</trkpt>
|
|
<trkpt lat="55.621199" lon="8.266468">
|
|
<ele>16.393395</ele>
|
|
<time>2026-07-11T11:24:06.000Z</time>
|
|
</trkpt>
|
|
<trkpt lat="55.621168" lon="8.266407">
|
|
<ele>16.378377</ele>
|
|
<time>2026-07-11T11:24:07.000Z</time>
|
|
</trkpt>
|
|
<trkpt lat="55.621136" lon="8.266343">
|
|
<ele>16.362733</ele>
|
|
<time>2026-07-11T11:24:08.000Z</time>
|
|
</trkpt>
|
|
<trkpt lat="55.621105" lon="8.266277">
|
|
<ele>16.347022</ele>
|
|
<time>2026-07-11T11:24:09.000Z</time>
|
|
</trkpt>
|
|
<trkpt lat="55.621075" lon="8.266211">
|
|
<ele>16.331517</ele>
|
|
<time>2026-07-11T11:24:10.000Z</time>
|
|
</trkpt>
|
|
<trkpt lat="55.621042" lon="8.266146">
|
|
<ele>16.315520</ele>
|
|
<time>2026-07-11T11:24:11.000Z</time>
|
|
</trkpt>
|
|
<trkpt lat="55.621010" lon="8.266078">
|
|
<ele>16.299321</ele>
|
|
<time>2026-07-11T11:24:12.000Z</time>
|
|
</trkpt>
|
|
<trkpt lat="55.620976" lon="8.266010">
|
|
<ele>16.282699</ele>
|
|
<time>2026-07-11T11:24:13.000Z</time>
|
|
</trkpt>
|
|
<trkpt lat="55.620941" lon="8.265942">
|
|
<ele>16.265861</ele>
|
|
<time>2026-07-11T11:24:14.000Z</time>
|
|
</trkpt>
|
|
<trkpt lat="55.620907" lon="8.265875">
|
|
<ele>16.249375</ele>
|
|
<time>2026-07-11T11:24:15.000Z</time>
|
|
</trkpt>
|
|
<trkpt lat="55.620873" lon="8.265809">
|
|
<ele>16.233026</ele>
|
|
<time>2026-07-11T11:24:16.000Z</time>
|
|
</trkpt>
|
|
<trkpt lat="55.620837" lon="8.265739">
|
|
<ele>16.215699</ele>
|
|
<time>2026-07-11T11:24:17.000Z</time>
|
|
</trkpt>
|
|
<trkpt lat="55.620800" lon="8.265667">
|
|
<ele>16.197883</ele>
|
|
<time>2026-07-11T11:24:18.000Z</time>
|
|
</trkpt>
|
|
<trkpt lat="55.620766" lon="8.265596">
|
|
<ele>16.180846</ele>
|
|
<time>2026-07-11T11:24:19.000Z</time>
|
|
</trkpt>
|
|
<trkpt lat="55.620730" lon="8.265522">
|
|
<ele>16.162971</ele>
|
|
<time>2026-07-11T11:24:20.000Z</time>
|
|
</trkpt>
|
|
<trkpt lat="55.620691" lon="8.265450">
|
|
<ele>16.144712</ele>
|
|
<time>2026-07-11T11:24:21.000Z</time>
|
|
</trkpt>
|
|
<trkpt lat="55.620655" lon="8.265378">
|
|
<ele>16.127112</ele>
|
|
<time>2026-07-11T11:24:22.000Z</time>
|
|
</trkpt>
|
|
<trkpt lat="55.620621" lon="8.265307">
|
|
<ele>16.110075</ele>
|
|
<time>2026-07-11T11:24:23.000Z</time>
|
|
</trkpt>
|
|
<trkpt lat="55.620586" lon="8.265237">
|
|
<ele>16.090751</ele>
|
|
<time>2026-07-11T11:24:24.000Z</time>
|
|
</trkpt>
|
|
<trkpt lat="55.620552" lon="8.265168">
|
|
<ele>16.040149</ele>
|
|
<time>2026-07-11T11:24:25.000Z</time>
|
|
</trkpt>
|
|
<trkpt lat="55.620516" lon="8.265100">
|
|
<ele>15.988645</ele>
|
|
<time>2026-07-11T11:24:26.000Z</time>
|
|
</trkpt>
|
|
<trkpt lat="55.620480" lon="8.265033">
|
|
<ele>15.937542</ele>
|
|
<time>2026-07-11T11:24:27.000Z</time>
|
|
</trkpt>
|
|
<trkpt lat="55.620447" lon="8.264962">
|
|
<ele>15.886731</ele>
|
|
<time>2026-07-11T11:24:28.000Z</time>
|
|
</trkpt>
|
|
<trkpt lat="55.620415" lon="8.264888">
|
|
<ele>15.835229</ele>
|
|
<time>2026-07-11T11:24:29.000Z</time>
|
|
</trkpt>
|
|
<trkpt lat="55.620381" lon="8.264812">
|
|
<ele>15.781653</ele>
|
|
<time>2026-07-11T11:24:30.000Z</time>
|
|
</trkpt>
|
|
<trkpt lat="55.620344" lon="8.264735">
|
|
<ele>15.725787</ele>
|
|
<time>2026-07-11T11:24:31.000Z</time>
|
|
</trkpt>
|
|
<trkpt lat="55.620306" lon="8.264661">
|
|
<ele>15.670519</ele>
|
|
<time>2026-07-11T11:24:32.000Z</time>
|
|
</trkpt>
|
|
<trkpt lat="55.620269" lon="8.264586">
|
|
<ele>15.615489</ele>
|
|
<time>2026-07-11T11:24:33.000Z</time>
|
|
</trkpt>
|
|
<trkpt lat="55.620231" lon="8.264508">
|
|
<ele>15.558566</ele>
|
|
<time>2026-07-11T11:24:34.000Z</time>
|
|
</trkpt>
|
|
<trkpt lat="55.620192" lon="8.264428">
|
|
<ele>15.500168</ele>
|
|
<time>2026-07-11T11:24:35.000Z</time>
|
|
</trkpt>
|
|
<trkpt lat="55.620152" lon="8.264350">
|
|
<ele>15.441948</ele>
|
|
<time>2026-07-11T11:24:36.000Z</time>
|
|
</trkpt>
|
|
<trkpt lat="55.620111" lon="8.264272">
|
|
<ele>15.383065</ele>
|
|
<time>2026-07-11T11:24:37.000Z</time>
|
|
</trkpt>
|
|
<trkpt lat="55.620073" lon="8.264196">
|
|
<ele>15.326974</ele>
|
|
<time>2026-07-11T11:24:38.000Z</time>
|
|
</trkpt>
|
|
<trkpt lat="55.620037" lon="8.264118">
|
|
<ele>15.271310</ele>
|
|
<time>2026-07-11T11:24:39.000Z</time>
|
|
</trkpt>
|
|
<trkpt lat="55.620001" lon="8.264038">
|
|
<ele>15.214786</ele>
|
|
<time>2026-07-11T11:24:40.000Z</time>
|
|
</trkpt>
|
|
<trkpt lat="55.619963" lon="8.263959">
|
|
<ele>15.157443</ele>
|
|
<time>2026-07-11T11:24:41.000Z</time>
|
|
</trkpt>
|
|
<trkpt lat="55.619923" lon="8.263881">
|
|
<ele>15.099223</ele>
|
|
<time>2026-07-11T11:24:42.000Z</time>
|
|
</trkpt>
|
|
<trkpt lat="55.619881" lon="8.263801">
|
|
<ele>15.038865</ele>
|
|
<time>2026-07-11T11:24:43.000Z</time>
|
|
</trkpt>
|
|
<trkpt lat="55.619839" lon="8.263723">
|
|
<ele>14.979311</ele>
|
|
<time>2026-07-11T11:24:44.000Z</time>
|
|
</trkpt>
|
|
<trkpt lat="55.619797" lon="8.263644">
|
|
<ele>14.919356</ele>
|
|
<time>2026-07-11T11:24:45.000Z</time>
|
|
</trkpt>
|
|
<trkpt lat="55.619755" lon="8.263560">
|
|
<ele>14.857361</ele>
|
|
<time>2026-07-11T11:24:46.000Z</time>
|
|
</trkpt>
|
|
<trkpt lat="55.619713" lon="8.263476">
|
|
<ele>14.795365</ele>
|
|
<time>2026-07-11T11:24:47.000Z</time>
|
|
</trkpt>
|
|
<trkpt lat="55.619669" lon="8.263393">
|
|
<ele>14.732459</ele>
|
|
<time>2026-07-11T11:24:48.000Z</time>
|
|
</trkpt>
|
|
<trkpt lat="55.619624" lon="8.263311">
|
|
<ele>14.669277</ele>
|
|
<time>2026-07-11T11:24:49.000Z</time>
|
|
</trkpt>
|
|
<trkpt lat="55.619580" lon="8.263227">
|
|
<ele>14.605967</ele>
|
|
<time>2026-07-11T11:24:50.000Z</time>
|
|
</trkpt>
|
|
<trkpt lat="55.619540" lon="8.263142">
|
|
<ele>14.544828</ele>
|
|
<time>2026-07-11T11:24:51.000Z</time>
|
|
</trkpt>
|
|
<trkpt lat="55.619498" lon="8.263058">
|
|
<ele>14.482832</ele>
|
|
<time>2026-07-11T11:24:52.000Z</time>
|
|
</trkpt>
|
|
<trkpt lat="55.619454" lon="8.262977">
|
|
<ele>14.420727</ele>
|
|
<time>2026-07-11T11:24:53.000Z</time>
|
|
</trkpt>
|
|
<trkpt lat="55.619410" lon="8.262899">
|
|
<ele>14.359806</ele>
|
|
<time>2026-07-11T11:24:54.000Z</time>
|
|
</trkpt>
|
|
<trkpt lat="55.619366" lon="8.262822">
|
|
<ele>14.378826</ele>
|
|
<time>2026-07-11T11:24:55.000Z</time>
|
|
</trkpt>
|
|
<trkpt lat="55.619323" lon="8.262747">
|
|
<ele>14.454945</ele>
|
|
<time>2026-07-11T11:24:56.000Z</time>
|
|
</trkpt>
|
|
<trkpt lat="55.619278" lon="8.262672">
|
|
<ele>14.532880</ele>
|
|
<time>2026-07-11T11:24:57.000Z</time>
|
|
</trkpt>
|
|
<trkpt lat="55.619236" lon="8.262598">
|
|
<ele>14.607602</ele>
|
|
<time>2026-07-11T11:24:58.000Z</time>
|
|
</trkpt>
|
|
<trkpt lat="55.619196" lon="8.262524">
|
|
<ele>14.680557</ele>
|
|
<time>2026-07-11T11:24:59.000Z</time>
|
|
</trkpt>
|
|
<trkpt lat="55.619158" lon="8.262452">
|
|
<ele>14.750744</ele>
|
|
<time>2026-07-11T11:25:00.000Z</time>
|
|
</trkpt>
|
|
<trkpt lat="55.619118" lon="8.262382">
|
|
<ele>14.821668</ele>
|
|
<time>2026-07-11T11:25:01.000Z</time>
|
|
</trkpt>
|
|
<trkpt lat="55.619078" lon="8.262313">
|
|
<ele>14.892094</ele>
|
|
<time>2026-07-11T11:25:02.000Z</time>
|
|
</trkpt>
|
|
<trkpt lat="55.619040" lon="8.262245">
|
|
<ele>14.960227</ele>
|
|
<time>2026-07-11T11:25:03.000Z</time>
|
|
</trkpt>
|
|
<trkpt lat="55.619003" lon="8.262178">
|
|
<ele>15.026969</ele>
|
|
<time>2026-07-11T11:25:04.000Z</time>
|
|
</trkpt>
|
|
<trkpt lat="55.618969" lon="8.262112">
|
|
<ele>15.090594</ele>
|
|
<time>2026-07-11T11:25:05.000Z</time>
|
|
</trkpt>
|
|
<trkpt lat="55.618936" lon="8.262046">
|
|
<ele>15.153376</ele>
|
|
<time>2026-07-11T11:25:06.000Z</time>
|
|
</trkpt>
|
|
<trkpt lat="55.618906" lon="8.261981">
|
|
<ele>15.213163</ele>
|
|
<time>2026-07-11T11:25:07.000Z</time>
|
|
</trkpt>
|
|
<trkpt lat="55.618876" lon="8.261919">
|
|
<ele>15.271312</ele>
|
|
<time>2026-07-11T11:25:08.000Z</time>
|
|
</trkpt>
|
|
<trkpt lat="55.618843" lon="8.261858">
|
|
<ele>15.331474</ele>
|
|
<time>2026-07-11T11:25:09.000Z</time>
|
|
</trkpt>
|
|
<trkpt lat="55.618810" lon="8.261799">
|
|
<ele>15.390617</ele>
|
|
<time>2026-07-11T11:25:10.000Z</time>
|
|
</trkpt>
|
|
<trkpt lat="55.618778" lon="8.261743">
|
|
<ele>15.447356</ele>
|
|
<time>2026-07-11T11:25:11.000Z</time>
|
|
</trkpt>
|
|
<trkpt lat="55.618746" lon="8.261685">
|
|
<ele>15.505106</ele>
|
|
<time>2026-07-11T11:25:12.000Z</time>
|
|
</trkpt>
|
|
<trkpt lat="55.618715" lon="8.261626">
|
|
<ele>15.562501</ele>
|
|
<time>2026-07-11T11:25:13.000Z</time>
|
|
</trkpt>
|
|
<trkpt lat="55.618684" lon="8.261568">
|
|
<ele>15.619377</ele>
|
|
<time>2026-07-11T11:25:14.000Z</time>
|
|
</trkpt>
|
|
<trkpt lat="55.618654" lon="8.261510">
|
|
<ele>15.675394</ele>
|
|
<time>2026-07-11T11:25:15.000Z</time>
|
|
</trkpt>
|
|
<trkpt lat="55.618625" lon="8.261452">
|
|
<ele>15.730566</ele>
|
|
<time>2026-07-11T11:25:16.000Z</time>
|
|
</trkpt>
|
|
<trkpt lat="55.618595" lon="8.261394">
|
|
<ele>15.786582</ele>
|
|
<time>2026-07-11T11:25:17.000Z</time>
|
|
</trkpt>
|
|
<trkpt lat="55.618563" lon="8.261332">
|
|
<ele>15.846403</ele>
|
|
<time>2026-07-11T11:25:18.000Z</time>
|
|
</trkpt>
|
|
<trkpt lat="55.618532" lon="8.261271">
|
|
<ele>15.904849</ele>
|
|
<time>2026-07-11T11:25:19.000Z</time>
|
|
</trkpt>
|
|
<trkpt lat="55.618500" lon="8.261212">
|
|
<ele>15.963111</ele>
|
|
<time>2026-07-11T11:25:20.000Z</time>
|
|
</trkpt>
|
|
<trkpt lat="55.618466" lon="8.261154">
|
|
<ele>16.022651</ele>
|
|
<time>2026-07-11T11:25:21.000Z</time>
|
|
</trkpt>
|
|
<trkpt lat="55.618433" lon="8.261094">
|
|
<ele>16.082302</ele>
|
|
<time>2026-07-11T11:25:22.000Z</time>
|
|
</trkpt>
|
|
<trkpt lat="55.618401" lon="8.261032">
|
|
<ele>16.142123</ele>
|
|
<time>2026-07-11T11:25:23.000Z</time>
|
|
</trkpt>
|
|
<trkpt lat="55.618368" lon="8.260968">
|
|
<ele>16.203846</ele>
|
|
<time>2026-07-11T11:25:24.000Z</time>
|
|
</trkpt>
|
|
<trkpt lat="55.618336" lon="8.260905">
|
|
<ele>16.264195</ele>
|
|
<time>2026-07-11T11:25:25.000Z</time>
|
|
</trkpt>
|
|
<trkpt lat="55.618301" lon="8.260842">
|
|
<ele>16.327137</ele>
|
|
<time>2026-07-11T11:25:26.000Z</time>
|
|
</trkpt>
|
|
<trkpt lat="55.618267" lon="8.260778">
|
|
<ele>16.389718</ele>
|
|
<time>2026-07-11T11:25:27.000Z</time>
|
|
</trkpt>
|
|
<trkpt lat="55.618233" lon="8.260715">
|
|
<ele>16.451782</ele>
|
|
<time>2026-07-11T11:25:28.000Z</time>
|
|
</trkpt>
|
|
<trkpt lat="55.618200" lon="8.260654">
|
|
<ele>16.511945</ele>
|
|
<time>2026-07-11T11:25:29.000Z</time>
|
|
</trkpt>
|
|
<trkpt lat="55.618167" lon="8.260592">
|
|
<ele>16.572624</ele>
|
|
<time>2026-07-11T11:25:30.000Z</time>
|
|
</trkpt>
|
|
<trkpt lat="55.618130" lon="8.260527">
|
|
<ele>16.612436</ele>
|
|
<time>2026-07-11T11:25:31.000Z</time>
|
|
</trkpt>
|
|
<trkpt lat="55.618095" lon="8.260461">
|
|
<ele>16.630348</ele>
|
|
<time>2026-07-11T11:25:32.000Z</time>
|
|
</trkpt>
|
|
<trkpt lat="55.618059" lon="8.260395">
|
|
<ele>16.648502</ele>
|
|
<time>2026-07-11T11:25:33.000Z</time>
|
|
</trkpt>
|
|
<trkpt lat="55.618023" lon="8.260332">
|
|
<ele>16.666233</ele>
|
|
<time>2026-07-11T11:25:34.000Z</time>
|
|
</trkpt>
|
|
<trkpt lat="55.617990" lon="8.260267">
|
|
<ele>16.683525</ele>
|
|
<time>2026-07-11T11:25:35.000Z</time>
|
|
</trkpt>
|
|
<trkpt lat="55.617958" lon="8.260199">
|
|
<ele>16.701037</ele>
|
|
<time>2026-07-11T11:25:36.000Z</time>
|
|
</trkpt>
|
|
<trkpt lat="55.617924" lon="8.260129">
|
|
<ele>16.719304</ele>
|
|
<time>2026-07-11T11:25:37.000Z</time>
|
|
</trkpt>
|
|
<trkpt lat="55.617888" lon="8.260061">
|
|
<ele>16.737744</ele>
|
|
<time>2026-07-11T11:25:38.000Z</time>
|
|
</trkpt>
|
|
<trkpt lat="55.617850" lon="8.259994">
|
|
<ele>16.756530</ele>
|
|
<time>2026-07-11T11:25:39.000Z</time>
|
|
</trkpt>
|
|
<trkpt lat="55.617813" lon="8.259924">
|
|
<ele>16.775499</ele>
|
|
<time>2026-07-11T11:25:40.000Z</time>
|
|
</trkpt>
|
|
<trkpt lat="55.617779" lon="8.259855">
|
|
<ele>16.793616</ele>
|
|
<time>2026-07-11T11:25:41.000Z</time>
|
|
</trkpt>
|
|
<trkpt lat="55.617745" lon="8.259787">
|
|
<ele>16.811584</ele>
|
|
<time>2026-07-11T11:25:42.000Z</time>
|
|
</trkpt>
|
|
<trkpt lat="55.617710" lon="8.259719">
|
|
<ele>16.829787</ele>
|
|
<time>2026-07-11T11:25:43.000Z</time>
|
|
</trkpt>
|
|
<trkpt lat="55.617676" lon="8.259654">
|
|
<ele>16.847315</ele>
|
|
<time>2026-07-11T11:25:44.000Z</time>
|
|
</trkpt>
|
|
<trkpt lat="55.617640" lon="8.259590">
|
|
<ele>16.865186</ele>
|
|
<time>2026-07-11T11:25:45.000Z</time>
|
|
</trkpt>
|
|
<trkpt lat="55.617603" lon="8.259523">
|
|
<ele>16.883726</ele>
|
|
<time>2026-07-11T11:25:46.000Z</time>
|
|
</trkpt>
|
|
<trkpt lat="55.617569" lon="8.259455">
|
|
<ele>16.901695</ele>
|
|
<time>2026-07-11T11:25:47.000Z</time>
|
|
</trkpt>
|
|
<trkpt lat="55.617533" lon="8.259383">
|
|
<ele>16.920720</ele>
|
|
<time>2026-07-11T11:25:48.000Z</time>
|
|
</trkpt>
|
|
<trkpt lat="55.617496" lon="8.259312">
|
|
<ele>16.939834</ele>
|
|
<time>2026-07-11T11:25:49.000Z</time>
|
|
</trkpt>
|
|
<trkpt lat="55.617460" lon="8.259242">
|
|
<ele>16.958565</ele>
|
|
<time>2026-07-11T11:25:50.000Z</time>
|
|
</trkpt>
|
|
<trkpt lat="55.617422" lon="8.259171">
|
|
<ele>16.977918</ele>
|
|
<time>2026-07-11T11:25:51.000Z</time>
|
|
</trkpt>
|
|
<trkpt lat="55.617384" lon="8.259099">
|
|
<ele>16.997415</ele>
|
|
<time>2026-07-11T11:25:52.000Z</time>
|
|
</trkpt>
|
|
<trkpt lat="55.617348" lon="8.259025">
|
|
<ele>17.016738</ele>
|
|
<time>2026-07-11T11:25:53.000Z</time>
|
|
</trkpt>
|
|
<trkpt lat="55.617313" lon="8.258949">
|
|
<ele>17.036140</ele>
|
|
<time>2026-07-11T11:25:54.000Z</time>
|
|
</trkpt>
|
|
<trkpt lat="55.617279" lon="8.258876">
|
|
<ele>17.054861</ele>
|
|
<time>2026-07-11T11:25:55.000Z</time>
|
|
</trkpt>
|
|
<trkpt lat="55.617243" lon="8.258804">
|
|
<ele>17.073886</ele>
|
|
<time>2026-07-11T11:25:56.000Z</time>
|
|
</trkpt>
|
|
<trkpt lat="55.617207" lon="8.258734">
|
|
<ele>17.092617</ele>
|
|
<time>2026-07-11T11:25:57.000Z</time>
|
|
</trkpt>
|
|
<trkpt lat="55.617171" lon="8.258665">
|
|
<ele>17.111202</ele>
|
|
<time>2026-07-11T11:25:58.000Z</time>
|
|
</trkpt>
|
|
<trkpt lat="55.617133" lon="8.258596">
|
|
<ele>17.130270</ele>
|
|
<time>2026-07-11T11:25:59.000Z</time>
|
|
</trkpt>
|
|
<trkpt lat="55.617096" lon="8.258526">
|
|
<ele>17.149239</ele>
|
|
<time>2026-07-11T11:26:00.000Z</time>
|
|
</trkpt>
|
|
<trkpt lat="55.617060" lon="8.258455">
|
|
<ele>17.168117</ele>
|
|
<time>2026-07-11T11:26:01.000Z</time>
|
|
</trkpt>
|
|
<trkpt lat="55.617024" lon="8.258383">
|
|
<ele>17.187142</ele>
|
|
<time>2026-07-11T11:26:02.000Z</time>
|
|
</trkpt>
|
|
<trkpt lat="55.616991" lon="8.258306">
|
|
<ele>17.206266</ele>
|
|
<time>2026-07-11T11:26:03.000Z</time>
|
|
</trkpt>
|
|
<trkpt lat="55.616962" lon="8.258225">
|
|
<ele>17.225241</ele>
|
|
<time>2026-07-11T11:26:04.000Z</time>
|
|
</trkpt>
|
|
<trkpt lat="55.616937" lon="8.258144">
|
|
<ele>17.199500</ele>
|
|
<time>2026-07-11T11:26:05.000Z</time>
|
|
</trkpt>
|
|
<trkpt lat="55.616913" lon="8.258069">
|
|
<ele>17.147763</ele>
|
|
<time>2026-07-11T11:26:06.000Z</time>
|
|
</trkpt>
|
|
<trkpt lat="55.616881" lon="8.258012">
|
|
<ele>17.099526</ele>
|
|
<time>2026-07-11T11:26:07.000Z</time>
|
|
</trkpt>
|
|
<trkpt lat="55.616841" lon="8.257981">
|
|
<ele>17.053122</ele>
|
|
<time>2026-07-11T11:26:08.000Z</time>
|
|
</trkpt>
|
|
<trkpt lat="55.616797" lon="8.257964">
|
|
<ele>17.005261</ele>
|
|
<time>2026-07-11T11:26:09.000Z</time>
|
|
</trkpt>
|
|
<trkpt lat="55.616755" lon="8.257936">
|
|
<ele>16.957566</ele>
|
|
<time>2026-07-11T11:26:10.000Z</time>
|
|
</trkpt>
|
|
<trkpt lat="55.616720" lon="8.257887">
|
|
<ele>16.910149</ele>
|
|
<time>2026-07-11T11:26:11.000Z</time>
|
|
</trkpt>
|
|
<trkpt lat="55.616690" lon="8.257826">
|
|
<ele>16.861602</ele>
|
|
<time>2026-07-11T11:26:12.000Z</time>
|
|
</trkpt>
|
|
<trkpt lat="55.616659" lon="8.257764">
|
|
<ele>16.811902</ele>
|
|
<time>2026-07-11T11:26:13.000Z</time>
|
|
</trkpt>
|
|
<trkpt lat="55.616632" lon="8.257703">
|
|
<ele>16.765387</ele>
|
|
<time>2026-07-11T11:26:14.000Z</time>
|
|
</trkpt>
|
|
<trkpt lat="55.616606" lon="8.257642">
|
|
<ele>16.719519</ele>
|
|
<time>2026-07-11T11:26:15.000Z</time>
|
|
</trkpt>
|
|
<trkpt lat="55.616575" lon="8.257570">
|
|
<ele>16.665180</ele>
|
|
<time>2026-07-11T11:26:16.000Z</time>
|
|
</trkpt>
|
|
<trkpt lat="55.616543" lon="8.257503">
|
|
<ele>16.612516</ele>
|
|
<time>2026-07-11T11:26:17.000Z</time>
|
|
</trkpt>
|
|
<trkpt lat="55.616510" lon="8.257435">
|
|
<ele>16.558706</ele>
|
|
<time>2026-07-11T11:26:18.000Z</time>
|
|
</trkpt>
|
|
<trkpt lat="55.616478" lon="8.257366">
|
|
<ele>16.505119</ele>
|
|
<time>2026-07-11T11:26:19.000Z</time>
|
|
</trkpt>
|
|
<trkpt lat="55.616444" lon="8.257298">
|
|
<ele>16.450610</ele>
|
|
<time>2026-07-11T11:26:20.000Z</time>
|
|
</trkpt>
|
|
<trkpt lat="55.616409" lon="8.257229">
|
|
<ele>16.394946</ele>
|
|
<time>2026-07-11T11:26:21.000Z</time>
|
|
</trkpt>
|
|
<trkpt lat="55.616375" lon="8.257157">
|
|
<ele>16.338616</ele>
|
|
<time>2026-07-11T11:26:22.000Z</time>
|
|
</trkpt>
|
|
<trkpt lat="55.616341" lon="8.257083">
|
|
<ele>16.281361</ele>
|
|
<time>2026-07-11T11:26:23.000Z</time>
|
|
</trkpt>
|
|
<trkpt lat="55.616304" lon="8.257010">
|
|
<ele>16.222490</ele>
|
|
<time>2026-07-11T11:26:24.000Z</time>
|
|
</trkpt>
|
|
<trkpt lat="55.616266" lon="8.256938">
|
|
<ele>16.163344</ele>
|
|
<time>2026-07-11T11:26:25.000Z</time>
|
|
</trkpt>
|
|
<trkpt lat="55.616230" lon="8.256869">
|
|
<ele>16.106964</ele>
|
|
<time>2026-07-11T11:26:26.000Z</time>
|
|
</trkpt>
|
|
<trkpt lat="55.616194" lon="8.256802">
|
|
<ele>16.051459</ele>
|
|
<time>2026-07-11T11:26:27.000Z</time>
|
|
</trkpt>
|
|
<trkpt lat="55.616157" lon="8.256732">
|
|
<ele>15.993916</ele>
|
|
<time>2026-07-11T11:26:28.000Z</time>
|
|
</trkpt>
|
|
<trkpt lat="55.616123" lon="8.256661">
|
|
<ele>15.938045</ele>
|
|
<time>2026-07-11T11:26:29.000Z</time>
|
|
</trkpt>
|
|
<trkpt lat="55.616089" lon="8.256590">
|
|
<ele>15.882175</ele>
|
|
<time>2026-07-11T11:26:30.000Z</time>
|
|
</trkpt>
|
|
<trkpt lat="55.616055" lon="8.256519">
|
|
<ele>15.826305</ele>
|
|
<time>2026-07-11T11:26:31.000Z</time>
|
|
</trkpt>
|
|
<trkpt lat="55.616017" lon="8.256452">
|
|
<ele>15.769314</ele>
|
|
<time>2026-07-11T11:26:32.000Z</time>
|
|
</trkpt>
|
|
<trkpt lat="55.615978" lon="8.256387">
|
|
<ele>15.712395</ele>
|
|
<time>2026-07-11T11:26:33.000Z</time>
|
|
</trkpt>
|
|
<trkpt lat="55.615942" lon="8.256325">
|
|
<ele>15.659024</ele>
|
|
<time>2026-07-11T11:26:34.000Z</time>
|
|
</trkpt>
|
|
<trkpt lat="55.615902" lon="8.256268">
|
|
<ele>15.604458</ele>
|
|
<time>2026-07-11T11:26:35.000Z</time>
|
|
</trkpt>
|
|
<trkpt lat="55.615860" lon="8.256219">
|
|
<ele>15.551004</ele>
|
|
<time>2026-07-11T11:26:36.000Z</time>
|
|
</trkpt>
|
|
<trkpt lat="55.615817" lon="8.256179">
|
|
<ele>15.499383</ele>
|
|
<time>2026-07-11T11:26:37.000Z</time>
|
|
</trkpt>
|
|
<trkpt lat="55.615768" lon="8.256142">
|
|
<ele>15.442771</ele>
|
|
<time>2026-07-11T11:26:38.000Z</time>
|
|
</trkpt>
|
|
<trkpt lat="55.615711" lon="8.256104">
|
|
<ele>15.378043</ele>
|
|
<time>2026-07-11T11:26:39.000Z</time>
|
|
</trkpt>
|
|
<trkpt lat="55.615654" lon="8.256061">
|
|
<ele>15.307274</ele>
|
|
<time>2026-07-11T11:26:40.000Z</time>
|
|
</trkpt>
|
|
<trkpt lat="55.615599" lon="8.256011">
|
|
<ele>15.205109</ele>
|
|
<time>2026-07-11T11:26:41.000Z</time>
|
|
</trkpt>
|
|
<trkpt lat="55.615543" lon="8.255947">
|
|
<ele>15.094970</ele>
|
|
<time>2026-07-11T11:26:42.000Z</time>
|
|
</trkpt>
|
|
<trkpt lat="55.615494" lon="8.255868">
|
|
<ele>14.985463</ele>
|
|
<time>2026-07-11T11:26:43.000Z</time>
|
|
</trkpt>
|
|
<trkpt lat="55.615456" lon="8.255774">
|
|
<ele>14.877580</ele>
|
|
<time>2026-07-11T11:26:44.000Z</time>
|
|
</trkpt>
|
|
<trkpt lat="55.615423" lon="8.255666">
|
|
<ele>14.762985</ele>
|
|
<time>2026-07-11T11:26:45.000Z</time>
|
|
</trkpt>
|
|
<trkpt lat="55.615398" lon="8.255552">
|
|
<ele>14.648857</ele>
|
|
<time>2026-07-11T11:26:46.000Z</time>
|
|
</trkpt>
|
|
<trkpt lat="55.615380" lon="8.255433">
|
|
<ele>14.533888</ele>
|
|
<time>2026-07-11T11:26:47.000Z</time>
|
|
</trkpt>
|
|
<trkpt lat="55.615370" lon="8.255316">
|
|
<ele>14.423456</ele>
|
|
<time>2026-07-11T11:26:48.000Z</time>
|
|
</trkpt>
|
|
<trkpt lat="55.615368" lon="8.255207">
|
|
<ele>14.321680</ele>
|
|
<time>2026-07-11T11:26:49.000Z</time>
|
|
</trkpt>
|
|
<trkpt lat="55.615366" lon="8.255106">
|
|
<ele>14.227366</ele>
|
|
<time>2026-07-11T11:26:50.000Z</time>
|
|
</trkpt>
|
|
<trkpt lat="55.615364" lon="8.255019">
|
|
<ele>14.146107</ele>
|
|
<time>2026-07-11T11:26:51.000Z</time>
|
|
</trkpt>
|
|
<trkpt lat="55.615361" lon="8.254949">
|
|
<ele>14.080593</ele>
|
|
<time>2026-07-11T11:26:52.000Z</time>
|
|
</trkpt>
|
|
<trkpt lat="55.615350" lon="8.254895">
|
|
<ele>14.027020</ele>
|
|
<time>2026-07-11T11:26:53.000Z</time>
|
|
</trkpt>
|
|
<trkpt lat="55.615333" lon="8.254860">
|
|
<ele>13.983939</ele>
|
|
<time>2026-07-11T11:26:54.000Z</time>
|
|
</trkpt>
|
|
<trkpt lat="55.615312" lon="8.254844">
|
|
<ele>13.946160</ele>
|
|
<time>2026-07-11T11:26:55.000Z</time>
|
|
</trkpt>
|
|
<trkpt lat="55.615288" lon="8.254839">
|
|
<ele>13.906227</ele>
|
|
<time>2026-07-11T11:26:56.000Z</time>
|
|
</trkpt>
|
|
<trkpt lat="55.615264" lon="8.254839">
|
|
<ele>13.866568</ele>
|
|
<time>2026-07-11T11:26:57.000Z</time>
|
|
</trkpt>
|
|
<trkpt lat="55.615243" lon="8.254841">
|
|
<ele>13.831815</ele>
|
|
<time>2026-07-11T11:26:58.000Z</time>
|
|
</trkpt>
|
|
<trkpt lat="55.615222" lon="8.254843">
|
|
<ele>13.797063</ele>
|
|
<time>2026-07-11T11:26:59.000Z</time>
|
|
</trkpt>
|
|
<trkpt lat="55.615201" lon="8.254846">
|
|
<ele>13.762248</ele>
|
|
<time>2026-07-11T11:27:00.000Z</time>
|
|
</trkpt>
|
|
<trkpt lat="55.615178" lon="8.254844">
|
|
<ele>13.724195</ele>
|
|
<time>2026-07-11T11:27:01.000Z</time>
|
|
</trkpt>
|
|
<trkpt lat="55.615157" lon="8.254831">
|
|
<ele>13.687433</ele>
|
|
<time>2026-07-11T11:27:02.000Z</time>
|
|
</trkpt>
|
|
<trkpt lat="55.615142" lon="8.254805">
|
|
<ele>13.652747</ele>
|
|
<time>2026-07-11T11:27:03.000Z</time>
|
|
</trkpt>
|
|
<trkpt lat="55.615132" lon="8.254766">
|
|
<ele>13.612775</ele>
|
|
<time>2026-07-11T11:27:04.000Z</time>
|
|
</trkpt>
|
|
<trkpt lat="55.615124" lon="8.254718">
|
|
<ele>13.566069</ele>
|
|
<time>2026-07-11T11:27:05.000Z</time>
|
|
</trkpt>
|
|
<trkpt lat="55.615117" lon="8.254662">
|
|
<ele>13.512543</ele>
|
|
<time>2026-07-11T11:27:06.000Z</time>
|
|
</trkpt>
|
|
<trkpt lat="55.615111" lon="8.254600">
|
|
<ele>13.453839</ele>
|
|
<time>2026-07-11T11:27:07.000Z</time>
|
|
</trkpt>
|
|
<trkpt lat="55.615104" lon="8.254532">
|
|
<ele>13.389333</ele>
|
|
<time>2026-07-11T11:27:08.000Z</time>
|
|
</trkpt>
|
|
<trkpt lat="55.615090" lon="8.254460">
|
|
<ele>13.318269</ele>
|
|
<time>2026-07-11T11:27:09.000Z</time>
|
|
</trkpt>
|
|
<trkpt lat="55.615073" lon="8.254387">
|
|
<ele>13.244578</ele>
|
|
<time>2026-07-11T11:27:10.000Z</time>
|
|
</trkpt>
|
|
<trkpt lat="55.615058" lon="8.254314">
|
|
<ele>13.172082</ele>
|
|
<time>2026-07-11T11:27:11.000Z</time>
|
|
</trkpt>
|
|
<trkpt lat="55.615046" lon="8.254237">
|
|
<ele>13.097537</ele>
|
|
<time>2026-07-11T11:27:12.000Z</time>
|
|
</trkpt>
|
|
<trkpt lat="55.615038" lon="8.254158">
|
|
<ele>13.022635</ele>
|
|
<time>2026-07-11T11:27:13.000Z</time>
|
|
</trkpt>
|
|
<trkpt lat="55.615033" lon="8.254080">
|
|
<ele>12.949374</ele>
|
|
<time>2026-07-11T11:27:14.000Z</time>
|
|
</trkpt>
|
|
<trkpt lat="55.615022" lon="8.254008">
|
|
<ele>12.879766</ele>
|
|
<time>2026-07-11T11:27:15.000Z</time>
|
|
</trkpt>
|
|
<trkpt lat="55.615005" lon="8.253942">
|
|
<ele>12.812068</ele>
|
|
<time>2026-07-11T11:27:16.000Z</time>
|
|
</trkpt>
|
|
<trkpt lat="55.614989" lon="8.253874">
|
|
<ele>12.743320</ele>
|
|
<time>2026-07-11T11:27:17.000Z</time>
|
|
</trkpt>
|
|
<trkpt lat="55.614977" lon="8.253799">
|
|
<ele>12.670572</ele>
|
|
<time>2026-07-11T11:27:18.000Z</time>
|
|
</trkpt>
|
|
<trkpt lat="55.614968" lon="8.253718">
|
|
<ele>12.593531</ele>
|
|
<time>2026-07-11T11:27:19.000Z</time>
|
|
</trkpt>
|
|
<trkpt lat="55.614960" lon="8.253636">
|
|
<ele>12.515871</ele>
|
|
<time>2026-07-11T11:27:20.000Z</time>
|
|
</trkpt>
|
|
<trkpt lat="55.614953" lon="8.253552">
|
|
<ele>12.436630</ele>
|
|
<time>2026-07-11T11:27:21.000Z</time>
|
|
</trkpt>
|
|
<trkpt lat="55.614945" lon="8.253466">
|
|
<ele>12.355290</ele>
|
|
<time>2026-07-11T11:27:22.000Z</time>
|
|
</trkpt>
|
|
<trkpt lat="55.614941" lon="8.253379">
|
|
<ele>12.301272</ele>
|
|
<time>2026-07-11T11:27:23.000Z</time>
|
|
</trkpt>
|
|
<trkpt lat="55.614939" lon="8.253294">
|
|
<ele>12.250925</ele>
|
|
<time>2026-07-11T11:27:24.000Z</time>
|
|
</trkpt>
|
|
<trkpt lat="55.614933" lon="8.253208">
|
|
<ele>12.199642</ele>
|
|
<time>2026-07-11T11:27:25.000Z</time>
|
|
</trkpt>
|
|
<trkpt lat="55.614926" lon="8.253122">
|
|
<ele>12.148220</ele>
|
|
<time>2026-07-11T11:27:26.000Z</time>
|
|
</trkpt>
|
|
<trkpt lat="55.614920" lon="8.253034">
|
|
<ele>12.095763</ele>
|
|
<time>2026-07-11T11:27:27.000Z</time>
|
|
</trkpt>
|
|
<trkpt lat="55.614916" lon="8.252946">
|
|
<ele>12.043515</ele>
|
|
<time>2026-07-11T11:27:28.000Z</time>
|
|
</trkpt>
|
|
<trkpt lat="55.614910" lon="8.252860">
|
|
<ele>11.992232</ele>
|
|
<time>2026-07-11T11:27:29.000Z</time>
|
|
</trkpt>
|
|
<trkpt lat="55.614905" lon="8.252778">
|
|
<ele>11.943421</ele>
|
|
<time>2026-07-11T11:27:30.000Z</time>
|
|
</trkpt>
|
|
<trkpt lat="55.614903" lon="8.252698">
|
|
<ele>11.896030</ele>
|
|
<time>2026-07-11T11:27:31.000Z</time>
|
|
</trkpt>
|
|
<trkpt lat="55.614904" lon="8.252619">
|
|
<ele>11.849265</ele>
|
|
<time>2026-07-11T11:27:32.000Z</time>
|
|
</trkpt>
|
|
<trkpt lat="55.614908" lon="8.252539">
|
|
<ele>11.801735</ele>
|
|
<time>2026-07-11T11:27:33.000Z</time>
|
|
</trkpt>
|
|
<trkpt lat="55.614910" lon="8.252457">
|
|
<ele>11.753161</ele>
|
|
<time>2026-07-11T11:27:34.000Z</time>
|
|
</trkpt>
|
|
<trkpt lat="55.614912" lon="8.252377">
|
|
<ele>11.705770</ele>
|
|
<time>2026-07-11T11:27:35.000Z</time>
|
|
</trkpt>
|
|
<trkpt lat="55.614916" lon="8.252299">
|
|
<ele>11.659418</ele>
|
|
<time>2026-07-11T11:27:36.000Z</time>
|
|
</trkpt>
|
|
<trkpt lat="55.614919" lon="8.252222">
|
|
<ele>11.613741</ele>
|
|
<time>2026-07-11T11:27:37.000Z</time>
|
|
</trkpt>
|
|
<trkpt lat="55.614922" lon="8.252145">
|
|
<ele>11.568063</ele>
|
|
<time>2026-07-11T11:27:38.000Z</time>
|
|
</trkpt>
|
|
<trkpt lat="55.614922" lon="8.252068">
|
|
<ele>11.522493</ele>
|
|
<time>2026-07-11T11:27:39.000Z</time>
|
|
</trkpt>
|
|
<trkpt lat="55.614920" lon="8.251991">
|
|
<ele>11.476875</ele>
|
|
<time>2026-07-11T11:27:40.000Z</time>
|
|
</trkpt>
|
|
<trkpt lat="55.614916" lon="8.251915">
|
|
<ele>11.431703</ele>
|
|
<time>2026-07-11T11:27:41.000Z</time>
|
|
</trkpt>
|
|
<trkpt lat="55.614916" lon="8.251839">
|
|
<ele>11.386725</ele>
|
|
<time>2026-07-11T11:27:42.000Z</time>
|
|
</trkpt>
|
|
<trkpt lat="55.614919" lon="8.251765">
|
|
<ele>11.342818</ele>
|
|
<time>2026-07-11T11:27:43.000Z</time>
|
|
</trkpt>
|
|
<trkpt lat="55.614925" lon="8.251693">
|
|
<ele>11.299746</ele>
|
|
<time>2026-07-11T11:27:44.000Z</time>
|
|
</trkpt>
|
|
<trkpt lat="55.614933" lon="8.251623">
|
|
<ele>11.257480</ele>
|
|
<time>2026-07-11T11:27:45.000Z</time>
|
|
</trkpt>
|
|
<trkpt lat="55.614937" lon="8.251554">
|
|
<ele>11.216430</ele>
|
|
<time>2026-07-11T11:27:46.000Z</time>
|
|
</trkpt>
|
|
<trkpt lat="55.614932" lon="8.251490">
|
|
<ele>11.178194</ele>
|
|
<time>2026-07-11T11:27:47.000Z</time>
|
|
</trkpt>
|
|
<trkpt lat="55.614919" lon="8.251428">
|
|
<ele>11.139054</ele>
|
|
<time>2026-07-11T11:27:48.000Z</time>
|
|
</trkpt>
|
|
<trkpt lat="55.614907" lon="8.251364">
|
|
<ele>11.099145</ele>
|
|
<time>2026-07-11T11:27:49.000Z</time>
|
|
</trkpt>
|
|
<trkpt lat="55.614903" lon="8.251295">
|
|
<ele>11.058095</ele>
|
|
<time>2026-07-11T11:27:50.000Z</time>
|
|
</trkpt>
|
|
<trkpt lat="55.614901" lon="8.251218">
|
|
<ele>11.012478</ele>
|
|
<time>2026-07-11T11:27:51.000Z</time>
|
|
</trkpt>
|
|
<trkpt lat="55.614902" lon="8.251140">
|
|
<ele>10.966304</ele>
|
|
<time>2026-07-11T11:27:52.000Z</time>
|
|
</trkpt>
|
|
<trkpt lat="55.614908" lon="8.251058">
|
|
<ele>10.917370</ele>
|
|
<time>2026-07-11T11:27:53.000Z</time>
|
|
</trkpt>
|
|
<trkpt lat="55.614912" lon="8.250972">
|
|
<ele>10.866302</ele>
|
|
<time>2026-07-11T11:27:54.000Z</time>
|
|
</trkpt>
|
|
<trkpt lat="55.614917" lon="8.250880">
|
|
<ele>10.811604</ele>
|
|
<time>2026-07-11T11:27:55.000Z</time>
|
|
</trkpt>
|
|
<trkpt lat="55.614925" lon="8.250783">
|
|
<ele>10.753589</ele>
|
|
<time>2026-07-11T11:27:56.000Z</time>
|
|
</trkpt>
|
|
<trkpt lat="55.614933" lon="8.250687">
|
|
<ele>10.696160</ele>
|
|
<time>2026-07-11T11:27:57.000Z</time>
|
|
</trkpt>
|
|
<trkpt lat="55.614940" lon="8.250591">
|
|
<ele>10.638874</ele>
|
|
<time>2026-07-11T11:27:58.000Z</time>
|
|
</trkpt>
|
|
<trkpt lat="55.614948" lon="8.250492">
|
|
<ele>10.579688</ele>
|
|
<time>2026-07-11T11:27:59.000Z</time>
|
|
</trkpt>
|
|
<trkpt lat="55.614955" lon="8.250391">
|
|
<ele>10.519467</ele>
|
|
<time>2026-07-11T11:28:00.000Z</time>
|
|
</trkpt>
|
|
<trkpt lat="55.614963" lon="8.250289">
|
|
<ele>10.464124</ele>
|
|
<time>2026-07-11T11:28:01.000Z</time>
|
|
</trkpt>
|
|
<trkpt lat="55.614971" lon="8.250190">
|
|
<ele>10.465291</ele>
|
|
<time>2026-07-11T11:28:02.000Z</time>
|
|
</trkpt>
|
|
<trkpt lat="55.614977" lon="8.250093">
|
|
<ele>10.466430</ele>
|
|
<time>2026-07-11T11:28:03.000Z</time>
|
|
</trkpt>
|
|
<trkpt lat="55.614979" lon="8.249999">
|
|
<ele>10.467528</ele>
|
|
<time>2026-07-11T11:28:04.000Z</time>
|
|
</trkpt>
|
|
<trkpt lat="55.614982" lon="8.249905">
|
|
<ele>10.468626</ele>
|
|
<time>2026-07-11T11:28:05.000Z</time>
|
|
</trkpt>
|
|
<trkpt lat="55.614990" lon="8.249809">
|
|
<ele>10.469759</ele>
|
|
<time>2026-07-11T11:28:06.000Z</time>
|
|
</trkpt>
|
|
<trkpt lat="55.614997" lon="8.249711">
|
|
<ele>10.470911</ele>
|
|
<time>2026-07-11T11:28:07.000Z</time>
|
|
</trkpt>
|
|
<trkpt lat="55.615002" lon="8.249613">
|
|
<ele>10.472060</ele>
|
|
<time>2026-07-11T11:28:08.000Z</time>
|
|
</trkpt>
|
|
<trkpt lat="55.615003" lon="8.249517">
|
|
<ele>10.473180</ele>
|
|
<time>2026-07-11T11:28:09.000Z</time>
|
|
</trkpt>
|
|
<trkpt lat="55.615007" lon="8.249420">
|
|
<ele>10.474315</ele>
|
|
<time>2026-07-11T11:28:10.000Z</time>
|
|
</trkpt>
|
|
<trkpt lat="55.615011" lon="8.249327">
|
|
<ele>10.475404</ele>
|
|
<time>2026-07-11T11:28:11.000Z</time>
|
|
</trkpt>
|
|
<trkpt lat="55.615015" lon="8.249238">
|
|
<ele>10.476445</ele>
|
|
<time>2026-07-11T11:28:12.000Z</time>
|
|
</trkpt>
|
|
<trkpt lat="55.615019" lon="8.249147">
|
|
<ele>10.477511</ele>
|
|
<time>2026-07-11T11:28:13.000Z</time>
|
|
</trkpt>
|
|
<trkpt lat="55.615022" lon="8.249056">
|
|
<ele>10.478574</ele>
|
|
<time>2026-07-11T11:28:14.000Z</time>
|
|
</trkpt>
|
|
<trkpt lat="55.615025" lon="8.248966">
|
|
<ele>10.479626</ele>
|
|
<time>2026-07-11T11:28:15.000Z</time>
|
|
</trkpt>
|
|
<trkpt lat="55.615025" lon="8.248875">
|
|
<ele>10.480688</ele>
|
|
<time>2026-07-11T11:28:16.000Z</time>
|
|
</trkpt>
|
|
<trkpt lat="55.615025" lon="8.248781">
|
|
<ele>10.481785</ele>
|
|
<time>2026-07-11T11:28:17.000Z</time>
|
|
</trkpt>
|
|
<trkpt lat="55.615026" lon="8.248686">
|
|
<ele>10.482894</ele>
|
|
<time>2026-07-11T11:28:18.000Z</time>
|
|
</trkpt>
|
|
<trkpt lat="55.615030" lon="8.248591">
|
|
<ele>10.484006</ele>
|
|
<time>2026-07-11T11:28:19.000Z</time>
|
|
</trkpt>
|
|
<trkpt lat="55.615034" lon="8.248496">
|
|
<ele>10.485117</ele>
|
|
<time>2026-07-11T11:28:20.000Z</time>
|
|
</trkpt>
|
|
<trkpt lat="55.615038" lon="8.248400">
|
|
<ele>10.486241</ele>
|
|
<time>2026-07-11T11:28:21.000Z</time>
|
|
</trkpt>
|
|
<trkpt lat="55.615043" lon="8.248305">
|
|
<ele>10.487354</ele>
|
|
<time>2026-07-11T11:28:22.000Z</time>
|
|
</trkpt>
|
|
<trkpt lat="55.615051" lon="8.248212">
|
|
<ele>10.488452</ele>
|
|
<time>2026-07-11T11:28:23.000Z</time>
|
|
</trkpt>
|
|
<trkpt lat="55.615057" lon="8.248121">
|
|
<ele>10.489521</ele>
|
|
<time>2026-07-11T11:28:24.000Z</time>
|
|
</trkpt>
|
|
<trkpt lat="55.615062" lon="8.248028">
|
|
<ele>10.490611</ele>
|
|
<time>2026-07-11T11:28:25.000Z</time>
|
|
</trkpt>
|
|
<trkpt lat="55.615070" lon="8.247933">
|
|
<ele>10.491732</ele>
|
|
<time>2026-07-11T11:28:26.000Z</time>
|
|
</trkpt>
|
|
<trkpt lat="55.615078" lon="8.247834">
|
|
<ele>10.492899</ele>
|
|
<time>2026-07-11T11:28:27.000Z</time>
|
|
</trkpt>
|
|
<trkpt lat="55.615085" lon="8.247730">
|
|
<ele>10.494121</ele>
|
|
<time>2026-07-11T11:28:28.000Z</time>
|
|
</trkpt>
|
|
<trkpt lat="55.615093" lon="8.247622">
|
|
<ele>10.495392</ele>
|
|
<time>2026-07-11T11:28:29.000Z</time>
|
|
</trkpt>
|
|
<trkpt lat="55.615100" lon="8.247512">
|
|
<ele>10.496684</ele>
|
|
<time>2026-07-11T11:28:30.000Z</time>
|
|
</trkpt>
|
|
<trkpt lat="55.615106" lon="8.247401">
|
|
<ele>10.497985</ele>
|
|
<time>2026-07-11T11:28:31.000Z</time>
|
|
</trkpt>
|
|
<trkpt lat="55.615110" lon="8.247290">
|
|
<ele>10.499283</ele>
|
|
<time>2026-07-11T11:28:32.000Z</time>
|
|
</trkpt>
|
|
<trkpt lat="55.615114" lon="8.247182">
|
|
<ele>10.500546</ele>
|
|
<time>2026-07-11T11:28:33.000Z</time>
|
|
</trkpt>
|
|
<trkpt lat="55.615118" lon="8.247076">
|
|
<ele>10.507952</ele>
|
|
<time>2026-07-11T11:28:34.000Z</time>
|
|
</trkpt>
|
|
<trkpt lat="55.615122" lon="8.246972">
|
|
<ele>10.521571</ele>
|
|
<time>2026-07-11T11:28:35.000Z</time>
|
|
</trkpt>
|
|
<trkpt lat="55.615125" lon="8.246872">
|
|
<ele>10.534655</ele>
|
|
<time>2026-07-11T11:28:36.000Z</time>
|
|
</trkpt>
|
|
<trkpt lat="55.615129" lon="8.246779">
|
|
<ele>10.546841</ele>
|
|
<time>2026-07-11T11:28:37.000Z</time>
|
|
</trkpt>
|
|
<trkpt lat="55.615131" lon="8.246689">
|
|
<ele>10.558610</ele>
|
|
<time>2026-07-11T11:28:38.000Z</time>
|
|
</trkpt>
|
|
<trkpt lat="55.615130" lon="8.246602">
|
|
<ele>10.569979</ele>
|
|
<time>2026-07-11T11:28:39.000Z</time>
|
|
</trkpt>
|
|
<trkpt lat="55.615126" lon="8.246521">
|
|
<ele>10.580602</ele>
|
|
<time>2026-07-11T11:28:40.000Z</time>
|
|
</trkpt>
|
|
<trkpt lat="55.615122" lon="8.246441">
|
|
<ele>10.591096</ele>
|
|
<time>2026-07-11T11:28:41.000Z</time>
|
|
</trkpt>
|
|
<trkpt lat="55.615118" lon="8.246359">
|
|
<ele>10.601849</ele>
|
|
<time>2026-07-11T11:28:42.000Z</time>
|
|
</trkpt>
|
|
<trkpt lat="55.615116" lon="8.246273">
|
|
<ele>10.613095</ele>
|
|
<time>2026-07-11T11:28:43.000Z</time>
|
|
</trkpt>
|
|
<trkpt lat="55.615116" lon="8.246185">
|
|
<ele>10.624593</ele>
|
|
<time>2026-07-11T11:28:44.000Z</time>
|
|
</trkpt>
|
|
<trkpt lat="55.615114" lon="8.246092">
|
|
<ele>10.636753</ele>
|
|
<time>2026-07-11T11:28:45.000Z</time>
|
|
</trkpt>
|
|
<trkpt lat="55.615114" lon="8.245997">
|
|
<ele>10.649165</ele>
|
|
<time>2026-07-11T11:28:46.000Z</time>
|
|
</trkpt>
|
|
<trkpt lat="55.615116" lon="8.245899">
|
|
<ele>10.661978</ele>
|
|
<time>2026-07-11T11:28:47.000Z</time>
|
|
</trkpt>
|
|
<trkpt lat="55.615118" lon="8.245801">
|
|
<ele>10.674790</ele>
|
|
<time>2026-07-11T11:28:48.000Z</time>
|
|
</trkpt>
|
|
<trkpt lat="55.615120" lon="8.245706">
|
|
<ele>10.687211</ele>
|
|
<time>2026-07-11T11:28:49.000Z</time>
|
|
</trkpt>
|
|
<trkpt lat="55.615120" lon="8.245611">
|
|
<ele>10.699623</ele>
|
|
<time>2026-07-11T11:28:50.000Z</time>
|
|
</trkpt>
|
|
<trkpt lat="55.615115" lon="8.245517">
|
|
<ele>10.711959</ele>
|
|
<time>2026-07-11T11:28:51.000Z</time>
|
|
</trkpt>
|
|
<trkpt lat="55.615107" lon="8.245423">
|
|
<ele>10.724380</ele>
|
|
<time>2026-07-11T11:28:52.000Z</time>
|
|
</trkpt>
|
|
<trkpt lat="55.615105" lon="8.245329">
|
|
<ele>10.736670</ele>
|
|
<time>2026-07-11T11:28:53.000Z</time>
|
|
</trkpt>
|
|
<trkpt lat="55.615106" lon="8.245235">
|
|
<ele>10.748954</ele>
|
|
<time>2026-07-11T11:28:54.000Z</time>
|
|
</trkpt>
|
|
<trkpt lat="55.615110" lon="8.245142">
|
|
<ele>10.761140</ele>
|
|
<time>2026-07-11T11:28:55.000Z</time>
|
|
</trkpt>
|
|
<trkpt lat="55.615112" lon="8.245042">
|
|
<ele>10.774214</ele>
|
|
<time>2026-07-11T11:28:56.000Z</time>
|
|
</trkpt>
|
|
<trkpt lat="55.615112" lon="8.244944">
|
|
<ele>10.787018</ele>
|
|
<time>2026-07-11T11:28:57.000Z</time>
|
|
</trkpt>
|
|
<trkpt lat="55.615114" lon="8.244846">
|
|
<ele>10.799831</ele>
|
|
<time>2026-07-11T11:28:58.000Z</time>
|
|
</trkpt>
|
|
<trkpt lat="55.615118" lon="8.244749">
|
|
<ele>10.812538</ele>
|
|
<time>2026-07-11T11:28:59.000Z</time>
|
|
</trkpt>
|
|
<trkpt lat="55.615122" lon="8.244652">
|
|
<ele>10.825245</ele>
|
|
<time>2026-07-11T11:29:00.000Z</time>
|
|
</trkpt>
|
|
<trkpt lat="55.615125" lon="8.244555">
|
|
<ele>10.837938</ele>
|
|
<time>2026-07-11T11:29:01.000Z</time>
|
|
</trkpt>
|
|
<trkpt lat="55.615131" lon="8.244460">
|
|
<ele>10.850428</ele>
|
|
<time>2026-07-11T11:29:02.000Z</time>
|
|
</trkpt>
|
|
<trkpt lat="55.615137" lon="8.244368">
|
|
<ele>10.862528</ele>
|
|
<time>2026-07-11T11:29:03.000Z</time>
|
|
</trkpt>
|
|
<trkpt lat="55.615139" lon="8.244279">
|
|
<ele>10.874165</ele>
|
|
<time>2026-07-11T11:29:04.000Z</time>
|
|
</trkpt>
|
|
<trkpt lat="55.615141" lon="8.244193">
|
|
<ele>10.885411</ele>
|
|
<time>2026-07-11T11:29:05.000Z</time>
|
|
</trkpt>
|
|
<trkpt lat="55.615146" lon="8.244111">
|
|
<ele>10.896187</ele>
|
|
<time>2026-07-11T11:29:06.000Z</time>
|
|
</trkpt>
|
|
<trkpt lat="55.615154" lon="8.244030">
|
|
<ele>10.906931</ele>
|
|
<time>2026-07-11T11:29:07.000Z</time>
|
|
</trkpt>
|
|
<trkpt lat="55.615161" lon="8.243949">
|
|
<ele>10.917270</ele>
|
|
<time>2026-07-11T11:29:08.000Z</time>
|
|
</trkpt>
|
|
<trkpt lat="55.615167" lon="8.243871">
|
|
<ele>10.916353</ele>
|
|
<time>2026-07-11T11:29:09.000Z</time>
|
|
</trkpt>
|
|
<trkpt lat="55.615172" lon="8.243793">
|
|
<ele>10.915439</ele>
|
|
<time>2026-07-11T11:29:10.000Z</time>
|
|
</trkpt>
|
|
<trkpt lat="55.615179" lon="8.243704">
|
|
<ele>10.914392</ele>
|
|
<time>2026-07-11T11:29:11.000Z</time>
|
|
</trkpt>
|
|
<trkpt lat="55.615184" lon="8.243618">
|
|
<ele>10.913385</ele>
|
|
<time>2026-07-11T11:29:12.000Z</time>
|
|
</trkpt>
|
|
<trkpt lat="55.615190" lon="8.243534">
|
|
<ele>10.912398</ele>
|
|
<time>2026-07-11T11:29:13.000Z</time>
|
|
</trkpt>
|
|
<trkpt lat="55.615194" lon="8.243452">
|
|
<ele>10.911439</ele>
|
|
<time>2026-07-11T11:29:14.000Z</time>
|
|
</trkpt>
|
|
<trkpt lat="55.615198" lon="8.243367">
|
|
<ele>10.910446</ele>
|
|
<time>2026-07-11T11:29:15.000Z</time>
|
|
</trkpt>
|
|
<trkpt lat="55.615205" lon="8.243279">
|
|
<ele>10.909410</ele>
|
|
<time>2026-07-11T11:29:16.000Z</time>
|
|
</trkpt>
|
|
<trkpt lat="55.615213" lon="8.243189">
|
|
<ele>10.908349</ele>
|
|
<time>2026-07-11T11:29:17.000Z</time>
|
|
</trkpt>
|
|
<trkpt lat="55.615217" lon="8.243099">
|
|
<ele>10.907297</ele>
|
|
<time>2026-07-11T11:29:18.000Z</time>
|
|
</trkpt>
|
|
<trkpt lat="55.615223" lon="8.243010">
|
|
<ele>10.906253</ele>
|
|
<time>2026-07-11T11:29:19.000Z</time>
|
|
</trkpt>
|
|
<trkpt lat="55.615228" lon="8.242922">
|
|
<ele>10.905222</ele>
|
|
<time>2026-07-11T11:29:20.000Z</time>
|
|
</trkpt>
|
|
<trkpt lat="55.615232" lon="8.242832">
|
|
<ele>10.904171</ele>
|
|
<time>2026-07-11T11:29:21.000Z</time>
|
|
</trkpt>
|
|
<trkpt lat="55.615236" lon="8.242741">
|
|
<ele>10.903107</ele>
|
|
<time>2026-07-11T11:29:22.000Z</time>
|
|
</trkpt>
|
|
<trkpt lat="55.615238" lon="8.242653">
|
|
<ele>10.902081</ele>
|
|
<time>2026-07-11T11:29:23.000Z</time>
|
|
</trkpt>
|
|
<trkpt lat="55.615238" lon="8.242564">
|
|
<ele>10.901044</ele>
|
|
<time>2026-07-11T11:29:24.000Z</time>
|
|
</trkpt>
|
|
<trkpt lat="55.615240" lon="8.242474">
|
|
<ele>10.899995</ele>
|
|
<time>2026-07-11T11:29:25.000Z</time>
|
|
</trkpt>
|
|
<trkpt lat="55.615242" lon="8.242382">
|
|
<ele>10.898922</ele>
|
|
<time>2026-07-11T11:29:26.000Z</time>
|
|
</trkpt>
|
|
<trkpt lat="55.615240" lon="8.242289">
|
|
<ele>10.897838</ele>
|
|
<time>2026-07-11T11:29:27.000Z</time>
|
|
</trkpt>
|
|
<trkpt lat="55.615238" lon="8.242195">
|
|
<ele>10.896742</ele>
|
|
<time>2026-07-11T11:29:28.000Z</time>
|
|
</trkpt>
|
|
<trkpt lat="55.615240" lon="8.242099">
|
|
<ele>10.895623</ele>
|
|
<time>2026-07-11T11:29:29.000Z</time>
|
|
</trkpt>
|
|
<trkpt lat="55.615240" lon="8.242002">
|
|
<ele>10.894493</ele>
|
|
<time>2026-07-11T11:29:30.000Z</time>
|
|
</trkpt>
|
|
<trkpt lat="55.615238" lon="8.241905">
|
|
<ele>10.893362</ele>
|
|
<time>2026-07-11T11:29:31.000Z</time>
|
|
</trkpt>
|
|
<trkpt lat="55.615238" lon="8.241808">
|
|
<ele>10.892232</ele>
|
|
<time>2026-07-11T11:29:32.000Z</time>
|
|
</trkpt>
|
|
<trkpt lat="55.615240" lon="8.241711">
|
|
<ele>10.891101</ele>
|
|
<time>2026-07-11T11:29:33.000Z</time>
|
|
</trkpt>
|
|
<trkpt lat="55.615240" lon="8.241612">
|
|
<ele>10.889948</ele>
|
|
<time>2026-07-11T11:29:34.000Z</time>
|
|
</trkpt>
|
|
<trkpt lat="55.615238" lon="8.241514">
|
|
<ele>10.888805</ele>
|
|
<time>2026-07-11T11:29:35.000Z</time>
|
|
</trkpt>
|
|
<trkpt lat="55.615238" lon="8.241417">
|
|
<ele>10.887675</ele>
|
|
<time>2026-07-11T11:29:36.000Z</time>
|
|
</trkpt>
|
|
<trkpt lat="55.615238" lon="8.241321">
|
|
<ele>10.886557</ele>
|
|
<time>2026-07-11T11:29:37.000Z</time>
|
|
</trkpt>
|
|
<trkpt lat="55.615238" lon="8.241227">
|
|
<ele>10.885462</ele>
|
|
<time>2026-07-11T11:29:38.000Z</time>
|
|
</trkpt>
|
|
<trkpt lat="55.615238" lon="8.241136">
|
|
<ele>10.884401</ele>
|
|
<time>2026-07-11T11:29:39.000Z</time>
|
|
</trkpt>
|
|
<trkpt lat="55.615238" lon="8.241045">
|
|
<ele>10.883341</ele>
|
|
<time>2026-07-11T11:29:40.000Z</time>
|
|
</trkpt>
|
|
<trkpt lat="55.615238" lon="8.240957">
|
|
<ele>10.882316</ele>
|
|
<time>2026-07-11T11:29:41.000Z</time>
|
|
</trkpt>
|
|
<trkpt lat="55.615238" lon="8.240869">
|
|
<ele>10.881291</ele>
|
|
<time>2026-07-11T11:29:42.000Z</time>
|
|
</trkpt>
|
|
<trkpt lat="55.615238" lon="8.240778">
|
|
<ele>10.880230</ele>
|
|
<time>2026-07-11T11:29:43.000Z</time>
|
|
</trkpt>
|
|
<trkpt lat="55.615236" lon="8.240685">
|
|
<ele>10.787712</ele>
|
|
<time>2026-07-11T11:29:44.000Z</time>
|
|
</trkpt>
|
|
<trkpt lat="55.615233" lon="8.240591">
|
|
<ele>10.691045</ele>
|
|
<time>2026-07-11T11:29:45.000Z</time>
|
|
</trkpt>
|
|
<trkpt lat="55.615229" lon="8.240495">
|
|
<ele>10.592209</ele>
|
|
<time>2026-07-11T11:29:46.000Z</time>
|
|
</trkpt>
|
|
<trkpt lat="55.615225" lon="8.240399">
|
|
<ele>10.493374</ele>
|
|
<time>2026-07-11T11:29:47.000Z</time>
|
|
</trkpt>
|
|
<trkpt lat="55.615221" lon="8.240303">
|
|
<ele>10.394539</ele>
|
|
<time>2026-07-11T11:29:48.000Z</time>
|
|
</trkpt>
|
|
<trkpt lat="55.615217" lon="8.240206">
|
|
<ele>10.294679</ele>
|
|
<time>2026-07-11T11:29:49.000Z</time>
|
|
</trkpt>
|
|
<trkpt lat="55.615214" lon="8.240113">
|
|
<ele>10.199037</ele>
|
|
<time>2026-07-11T11:29:50.000Z</time>
|
|
</trkpt>
|
|
<trkpt lat="55.615210" lon="8.240021">
|
|
<ele>10.104297</ele>
|
|
<time>2026-07-11T11:29:51.000Z</time>
|
|
</trkpt>
|
|
<trkpt lat="55.615204" lon="8.239926">
|
|
<ele>10.006148</ele>
|
|
<time>2026-07-11T11:29:52.000Z</time>
|
|
</trkpt>
|
|
<trkpt lat="55.615197" lon="8.239830">
|
|
<ele>9.906762</ele>
|
|
<time>2026-07-11T11:29:53.000Z</time>
|
|
</trkpt>
|
|
<trkpt lat="55.615189" lon="8.239733">
|
|
<ele>9.806112</ele>
|
|
<time>2026-07-11T11:29:54.000Z</time>
|
|
</trkpt>
|
|
<trkpt lat="55.615180" lon="8.239632">
|
|
<ele>9.701128</ele>
|
|
<time>2026-07-11T11:29:55.000Z</time>
|
|
</trkpt>
|
|
<trkpt lat="55.615168" lon="8.239528">
|
|
<ele>9.592140</ele>
|
|
<time>2026-07-11T11:29:56.000Z</time>
|
|
</trkpt>
|
|
<trkpt lat="55.615156" lon="8.239424">
|
|
<ele>9.483153</ele>
|
|
<time>2026-07-11T11:29:57.000Z</time>
|
|
</trkpt>
|
|
<trkpt lat="55.615141" lon="8.239316">
|
|
<ele>9.368960</ele>
|
|
<time>2026-07-11T11:29:58.000Z</time>
|
|
</trkpt>
|
|
<trkpt lat="55.615123" lon="8.239199">
|
|
<ele>9.244453</ele>
|
|
<time>2026-07-11T11:29:59.000Z</time>
|
|
</trkpt>
|
|
<trkpt lat="55.615106" lon="8.239086">
|
|
<ele>9.124385</ele>
|
|
<time>2026-07-11T11:30:00.000Z</time>
|
|
</trkpt>
|
|
<trkpt lat="55.615090" lon="8.238975">
|
|
<ele>9.006762</ele>
|
|
<time>2026-07-11T11:30:01.000Z</time>
|
|
</trkpt>
|
|
<trkpt lat="55.615075" lon="8.238870">
|
|
<ele>8.895558</ele>
|
|
<time>2026-07-11T11:30:02.000Z</time>
|
|
</trkpt>
|
|
<trkpt lat="55.615058" lon="8.238764">
|
|
<ele>8.782420</ele>
|
|
<time>2026-07-11T11:30:03.000Z</time>
|
|
</trkpt>
|
|
<trkpt lat="55.615041" lon="8.238656">
|
|
<ele>8.667304</ele>
|
|
<time>2026-07-11T11:30:04.000Z</time>
|
|
</trkpt>
|
|
<trkpt lat="55.615025" lon="8.238549">
|
|
<ele>8.553656</ele>
|
|
<time>2026-07-11T11:30:05.000Z</time>
|
|
</trkpt>
|
|
<trkpt lat="55.615010" lon="8.238442">
|
|
<ele>8.440460</ele>
|
|
<time>2026-07-11T11:30:06.000Z</time>
|
|
</trkpt>
|
|
<trkpt lat="55.614997" lon="8.238334">
|
|
<ele>8.327080</ele>
|
|
<time>2026-07-11T11:30:07.000Z</time>
|
|
</trkpt>
|
|
<trkpt lat="55.614983" lon="8.238224">
|
|
<ele>8.211305</ele>
|
|
<time>2026-07-11T11:30:08.000Z</time>
|
|
</trkpt>
|
|
<trkpt lat="55.614968" lon="8.238112">
|
|
<ele>8.093120</ele>
|
|
<time>2026-07-11T11:30:09.000Z</time>
|
|
</trkpt>
|
|
<trkpt lat="55.614953" lon="8.238002">
|
|
<ele>7.976932</ele>
|
|
<time>2026-07-11T11:30:10.000Z</time>
|
|
</trkpt>
|
|
<trkpt lat="55.614938" lon="8.237893">
|
|
<ele>7.861741</ele>
|
|
<time>2026-07-11T11:30:11.000Z</time>
|
|
</trkpt>
|
|
<trkpt lat="55.614921" lon="8.237786">
|
|
<ele>7.747614</ele>
|
|
<time>2026-07-11T11:30:12.000Z</time>
|
|
</trkpt>
|
|
<trkpt lat="55.614903" lon="8.237681">
|
|
<ele>7.634948</ele>
|
|
<time>2026-07-11T11:30:13.000Z</time>
|
|
</trkpt>
|
|
<trkpt lat="55.614888" lon="8.237577">
|
|
<ele>7.573302</ele>
|
|
<time>2026-07-11T11:30:14.000Z</time>
|
|
</trkpt>
|
|
<trkpt lat="55.614871" lon="8.237474">
|
|
<ele>7.525762</ele>
|
|
<time>2026-07-11T11:30:15.000Z</time>
|
|
</trkpt>
|
|
<trkpt lat="55.614854" lon="8.237373">
|
|
<ele>7.479072</ele>
|
|
<time>2026-07-11T11:30:16.000Z</time>
|
|
</trkpt>
|
|
<trkpt lat="55.614837" lon="8.237271">
|
|
<ele>7.431957</ele>
|
|
<time>2026-07-11T11:30:17.000Z</time>
|
|
</trkpt>
|
|
<trkpt lat="55.614816" lon="8.237165">
|
|
<ele>7.382191</ele>
|
|
<time>2026-07-11T11:30:18.000Z</time>
|
|
</trkpt>
|
|
<trkpt lat="55.614795" lon="8.237063">
|
|
<ele>7.334094</ele>
|
|
<time>2026-07-11T11:30:19.000Z</time>
|
|
</trkpt>
|
|
<trkpt lat="55.614772" lon="8.236964">
|
|
<ele>7.286668</ele>
|
|
<time>2026-07-11T11:30:20.000Z</time>
|
|
</trkpt>
|
|
<trkpt lat="55.614746" lon="8.236868">
|
|
<ele>7.239501</ele>
|
|
<time>2026-07-11T11:30:21.000Z</time>
|
|
</trkpt>
|
|
<trkpt lat="55.614719" lon="8.236775">
|
|
<ele>7.193174</ele>
|
|
<time>2026-07-11T11:30:22.000Z</time>
|
|
</trkpt>
|
|
<trkpt lat="55.614689" lon="8.236682">
|
|
<ele>7.145725</ele>
|
|
<time>2026-07-11T11:30:23.000Z</time>
|
|
</trkpt>
|
|
<trkpt lat="55.614656" lon="8.236589">
|
|
<ele>7.097067</ele>
|
|
<time>2026-07-11T11:30:24.000Z</time>
|
|
</trkpt>
|
|
<trkpt lat="55.614629" lon="8.236500">
|
|
<ele>7.052309</ele>
|
|
<time>2026-07-11T11:30:25.000Z</time>
|
|
</trkpt>
|
|
<trkpt lat="55.614605" lon="8.236410">
|
|
<ele>7.008215</ele>
|
|
<time>2026-07-11T11:30:26.000Z</time>
|
|
</trkpt>
|
|
<trkpt lat="55.614579" lon="8.236324">
|
|
<ele>6.964999</ele>
|
|
<time>2026-07-11T11:30:27.000Z</time>
|
|
</trkpt>
|
|
<trkpt lat="55.614555" lon="8.236237">
|
|
<ele>6.922104</ele>
|
|
<time>2026-07-11T11:30:28.000Z</time>
|
|
</trkpt>
|
|
<trkpt lat="55.614534" lon="8.236141">
|
|
<ele>6.876494</ele>
|
|
<time>2026-07-11T11:30:29.000Z</time>
|
|
</trkpt>
|
|
<trkpt lat="55.614511" lon="8.236049">
|
|
<ele>6.831921</ele>
|
|
<time>2026-07-11T11:30:30.000Z</time>
|
|
</trkpt>
|
|
<trkpt lat="55.614491" lon="8.235955">
|
|
<ele>6.787419</ele>
|
|
<time>2026-07-11T11:30:31.000Z</time>
|
|
</trkpt>
|
|
<trkpt lat="55.614476" lon="8.235861">
|
|
<ele>6.744144</ele>
|
|
<time>2026-07-11T11:30:32.000Z</time>
|
|
</trkpt>
|
|
<trkpt lat="55.614458" lon="8.235768">
|
|
<ele>6.700590</ele>
|
|
<time>2026-07-11T11:30:33.000Z</time>
|
|
</trkpt>
|
|
<trkpt lat="55.614440" lon="8.235676">
|
|
<ele>6.657455</ele>
|
|
<time>2026-07-11T11:30:34.000Z</time>
|
|
</trkpt>
|
|
<trkpt lat="55.614430" lon="8.235578">
|
|
<ele>6.613336</ele>
|
|
<time>2026-07-11T11:30:35.000Z</time>
|
|
</trkpt>
|
|
<trkpt lat="55.614424" lon="8.235475">
|
|
<ele>6.567462</ele>
|
|
<time>2026-07-11T11:30:36.000Z</time>
|
|
</trkpt>
|
|
<trkpt lat="55.614420" lon="8.235369">
|
|
<ele>6.520396</ele>
|
|
<time>2026-07-11T11:30:37.000Z</time>
|
|
</trkpt>
|
|
<trkpt lat="55.614420" lon="8.235261">
|
|
<ele>6.472549</ele>
|
|
<time>2026-07-11T11:30:38.000Z</time>
|
|
</trkpt>
|
|
<trkpt lat="55.614420" lon="8.235150">
|
|
<ele>6.423373</ele>
|
|
<time>2026-07-11T11:30:39.000Z</time>
|
|
</trkpt>
|
|
<trkpt lat="55.614418" lon="8.235035">
|
|
<ele>6.372401</ele>
|
|
<time>2026-07-11T11:30:40.000Z</time>
|
|
</trkpt>
|
|
<trkpt lat="55.614413" lon="8.234926">
|
|
<ele>6.323952</ele>
|
|
<time>2026-07-11T11:30:41.000Z</time>
|
|
</trkpt>
|
|
<trkpt lat="55.614402" lon="8.234826">
|
|
<ele>6.278817</ele>
|
|
<time>2026-07-11T11:30:42.000Z</time>
|
|
</trkpt>
|
|
<trkpt lat="55.614384" lon="8.234736">
|
|
<ele>6.236518</ele>
|
|
<time>2026-07-11T11:30:43.000Z</time>
|
|
</trkpt>
|
|
<trkpt lat="55.614353" lon="8.234650">
|
|
<ele>6.206309</ele>
|
|
<time>2026-07-11T11:30:44.000Z</time>
|
|
</trkpt>
|
|
<trkpt lat="55.614319" lon="8.234564">
|
|
<ele>6.248156</ele>
|
|
<time>2026-07-11T11:30:45.000Z</time>
|
|
</trkpt>
|
|
<trkpt lat="55.614288" lon="8.234476">
|
|
<ele>6.289499</ele>
|
|
<time>2026-07-11T11:30:46.000Z</time>
|
|
</trkpt>
|
|
<trkpt lat="55.614260" lon="8.234387">
|
|
<ele>6.330111</ele>
|
|
<time>2026-07-11T11:30:47.000Z</time>
|
|
</trkpt>
|
|
<trkpt lat="55.614229" lon="8.234300">
|
|
<ele>6.371117</ele>
|
|
<time>2026-07-11T11:30:48.000Z</time>
|
|
</trkpt>
|
|
<trkpt lat="55.614199" lon="8.234216">
|
|
<ele>6.410735</ele>
|
|
<time>2026-07-11T11:30:49.000Z</time>
|
|
</trkpt>
|
|
<trkpt lat="55.614169" lon="8.234134">
|
|
<ele>6.449682</ele>
|
|
<time>2026-07-11T11:30:50.000Z</time>
|
|
</trkpt>
|
|
<trkpt lat="55.614138" lon="8.234053">
|
|
<ele>6.488686</ele>
|
|
<time>2026-07-11T11:30:51.000Z</time>
|
|
</trkpt>
|
|
<trkpt lat="55.614107" lon="8.233973">
|
|
<ele>6.527362</ele>
|
|
<time>2026-07-11T11:30:52.000Z</time>
|
|
</trkpt>
|
|
<trkpt lat="55.614078" lon="8.233893">
|
|
<ele>6.565256</ele>
|
|
<time>2026-07-11T11:30:53.000Z</time>
|
|
</trkpt>
|
|
<trkpt lat="55.614048" lon="8.233811">
|
|
<ele>6.604203</ele>
|
|
<time>2026-07-11T11:30:54.000Z</time>
|
|
</trkpt>
|
|
<trkpt lat="55.614015" lon="8.233727">
|
|
<ele>6.644992</ele>
|
|
<time>2026-07-11T11:30:55.000Z</time>
|
|
</trkpt>
|
|
<trkpt lat="55.613986" lon="8.233647">
|
|
<ele>6.682887</ele>
|
|
<time>2026-07-11T11:30:56.000Z</time>
|
|
</trkpt>
|
|
<trkpt lat="55.613958" lon="8.233568">
|
|
<ele>6.720066</ele>
|
|
<time>2026-07-11T11:30:57.000Z</time>
|
|
</trkpt>
|
|
<trkpt lat="55.613926" lon="8.233489">
|
|
<ele>6.758820</ele>
|
|
<time>2026-07-11T11:30:58.000Z</time>
|
|
</trkpt>
|
|
<trkpt lat="55.613893" lon="8.233412">
|
|
<ele>6.797352</ele>
|
|
<time>2026-07-11T11:30:59.000Z</time>
|
|
</trkpt>
|
|
<trkpt lat="55.613863" lon="8.233335">
|
|
<ele>6.834642</ele>
|
|
<time>2026-07-11T11:31:00.000Z</time>
|
|
</trkpt>
|
|
<trkpt lat="55.613830" lon="8.233258">
|
|
<ele>6.873174</ele>
|
|
<time>2026-07-11T11:31:01.000Z</time>
|
|
</trkpt>
|
|
<trkpt lat="55.613796" lon="8.233184">
|
|
<ele>6.911202</ele>
|
|
<time>2026-07-11T11:31:02.000Z</time>
|
|
</trkpt>
|
|
<trkpt lat="55.613762" lon="8.233112">
|
|
<ele>6.948614</ele>
|
|
<time>2026-07-11T11:31:03.000Z</time>
|
|
</trkpt>
|
|
<trkpt lat="55.613727" lon="8.233041">
|
|
<ele>6.986182</ele>
|
|
<time>2026-07-11T11:31:04.000Z</time>
|
|
</trkpt>
|
|
<trkpt lat="55.613695" lon="8.232970">
|
|
<ele>7.022393</ele>
|
|
<time>2026-07-11T11:31:05.000Z</time>
|
|
</trkpt>
|
|
<trkpt lat="55.613665" lon="8.232897">
|
|
<ele>7.058382</ele>
|
|
<time>2026-07-11T11:31:06.000Z</time>
|
|
</trkpt>
|
|
<trkpt lat="55.613634" lon="8.232822">
|
|
<ele>7.095431</ele>
|
|
<time>2026-07-11T11:31:07.000Z</time>
|
|
</trkpt>
|
|
<trkpt lat="55.613602" lon="8.232751">
|
|
<ele>7.131641</ele>
|
|
<time>2026-07-11T11:31:08.000Z</time>
|
|
</trkpt>
|
|
<trkpt lat="55.613567" lon="8.232681">
|
|
<ele>7.168910</ele>
|
|
<time>2026-07-11T11:31:09.000Z</time>
|
|
</trkpt>
|
|
<trkpt lat="55.613533" lon="8.232611">
|
|
<ele>7.205715</ele>
|
|
<time>2026-07-11T11:31:10.000Z</time>
|
|
</trkpt>
|
|
<trkpt lat="55.613498" lon="8.232546">
|
|
<ele>7.241515</ele>
|
|
<time>2026-07-11T11:31:11.000Z</time>
|
|
</trkpt>
|
|
<trkpt lat="55.613462" lon="8.232481">
|
|
<ele>7.277807</ele>
|
|
<time>2026-07-11T11:31:12.000Z</time>
|
|
</trkpt>
|
|
<trkpt lat="55.613424" lon="8.232417">
|
|
<ele>7.314824</ele>
|
|
<time>2026-07-11T11:31:13.000Z</time>
|
|
</trkpt>
|
|
<trkpt lat="55.613386" lon="8.232349">
|
|
<ele>7.352958</ele>
|
|
<time>2026-07-11T11:31:14.000Z</time>
|
|
</trkpt>
|
|
<trkpt lat="55.613345" lon="8.232282">
|
|
<ele>7.392339</ele>
|
|
<time>2026-07-11T11:31:15.000Z</time>
|
|
</trkpt>
|
|
<trkpt lat="55.613301" lon="8.232216">
|
|
<ele>7.433042</ele>
|
|
<time>2026-07-11T11:31:16.000Z</time>
|
|
</trkpt>
|
|
<trkpt lat="55.613259" lon="8.232149">
|
|
<ele>7.474531</ele>
|
|
<time>2026-07-11T11:31:17.000Z</time>
|
|
</trkpt>
|
|
<trkpt lat="55.613217" lon="8.232083">
|
|
<ele>7.529167</ele>
|
|
<time>2026-07-11T11:31:18.000Z</time>
|
|
</trkpt>
|
|
<trkpt lat="55.613175" lon="8.232019">
|
|
<ele>7.583081</ele>
|
|
<time>2026-07-11T11:31:19.000Z</time>
|
|
</trkpt>
|
|
<trkpt lat="55.613134" lon="8.231957">
|
|
<ele>7.635540</ele>
|
|
<time>2026-07-11T11:31:20.000Z</time>
|
|
</trkpt>
|
|
<trkpt lat="55.613095" lon="8.231898">
|
|
<ele>7.685449</ele>
|
|
<time>2026-07-11T11:31:21.000Z</time>
|
|
</trkpt>
|
|
<trkpt lat="55.613053" lon="8.231838">
|
|
<ele>7.737955</ele>
|
|
<time>2026-07-11T11:31:22.000Z</time>
|
|
</trkpt>
|
|
<trkpt lat="55.613010" lon="8.231780">
|
|
<ele>7.790548</ele>
|
|
<time>2026-07-11T11:31:23.000Z</time>
|
|
</trkpt>
|
|
<trkpt lat="55.612967" lon="8.231723">
|
|
<ele>7.842811</ele>
|
|
<time>2026-07-11T11:31:24.000Z</time>
|
|
</trkpt>
|
|
<trkpt lat="55.612927" lon="8.231663">
|
|
<ele>7.893817</ele>
|
|
<time>2026-07-11T11:31:25.000Z</time>
|
|
</trkpt>
|
|
<trkpt lat="55.612887" lon="8.231604">
|
|
<ele>7.944470</ele>
|
|
<time>2026-07-11T11:31:26.000Z</time>
|
|
</trkpt>
|
|
<trkpt lat="55.612849" lon="8.231548">
|
|
<ele>7.992572</ele>
|
|
<time>2026-07-11T11:31:27.000Z</time>
|
|
</trkpt>
|
|
<trkpt lat="55.612812" lon="8.231494">
|
|
<ele>8.039225</ele>
|
|
<time>2026-07-11T11:31:28.000Z</time>
|
|
</trkpt>
|
|
<trkpt lat="55.612772" lon="8.231438">
|
|
<ele>8.088838</ele>
|
|
<time>2026-07-11T11:31:29.000Z</time>
|
|
</trkpt>
|
|
<trkpt lat="55.612734" lon="8.231384">
|
|
<ele>8.136246</ele>
|
|
<time>2026-07-11T11:31:30.000Z</time>
|
|
</trkpt>
|
|
<trkpt lat="55.612696" lon="8.231330">
|
|
<ele>8.183653</ele>
|
|
<time>2026-07-11T11:31:31.000Z</time>
|
|
</trkpt>
|
|
<trkpt lat="55.612659" lon="8.231280">
|
|
<ele>8.228939</ele>
|
|
<time>2026-07-11T11:31:32.000Z</time>
|
|
</trkpt>
|
|
<trkpt lat="55.612623" lon="8.231232">
|
|
<ele>8.272786</ele>
|
|
<time>2026-07-11T11:31:33.000Z</time>
|
|
</trkpt>
|
|
<trkpt lat="55.612586" lon="8.231184">
|
|
<ele>8.317413</ele>
|
|
<time>2026-07-11T11:31:34.000Z</time>
|
|
</trkpt>
|
|
<trkpt lat="55.612548" lon="8.231133">
|
|
<ele>8.363807</ele>
|
|
<time>2026-07-11T11:31:35.000Z</time>
|
|
</trkpt>
|
|
<trkpt lat="55.612509" lon="8.231074">
|
|
<ele>8.413716</ele>
|
|
<time>2026-07-11T11:31:36.000Z</time>
|
|
</trkpt>
|
|
<trkpt lat="55.612471" lon="8.231016">
|
|
<ele>8.462529</ele>
|
|
<time>2026-07-11T11:31:37.000Z</time>
|
|
</trkpt>
|
|
<trkpt lat="55.612433" lon="8.230958">
|
|
<ele>8.511342</ele>
|
|
<time>2026-07-11T11:31:38.000Z</time>
|
|
</trkpt>
|
|
<trkpt lat="55.612395" lon="8.230899">
|
|
<ele>8.560516</ele>
|
|
<time>2026-07-11T11:31:39.000Z</time>
|
|
</trkpt>
|
|
<trkpt lat="55.612357" lon="8.230840">
|
|
<ele>8.609690</ele>
|
|
<time>2026-07-11T11:31:40.000Z</time>
|
|
</trkpt>
|
|
<trkpt lat="55.612317" lon="8.230783">
|
|
<ele>8.659646</ele>
|
|
<time>2026-07-11T11:31:41.000Z</time>
|
|
</trkpt>
|
|
<trkpt lat="55.612276" lon="8.230726">
|
|
<ele>8.710365</ele>
|
|
<time>2026-07-11T11:31:42.000Z</time>
|
|
</trkpt>
|
|
<trkpt lat="55.612241" lon="8.230674">
|
|
<ele>8.754819</ele>
|
|
<time>2026-07-11T11:31:43.000Z</time>
|
|
</trkpt>
|
|
<trkpt lat="55.612203" lon="8.230623">
|
|
<ele>8.801212</ele>
|
|
<time>2026-07-11T11:31:44.000Z</time>
|
|
</trkpt>
|
|
<trkpt lat="55.612162" lon="8.230568">
|
|
<ele>8.851259</ele>
|
|
<time>2026-07-11T11:31:45.000Z</time>
|
|
</trkpt>
|
|
<trkpt lat="55.612126" lon="8.230510">
|
|
<ele>8.898616</ele>
|
|
<time>2026-07-11T11:31:46.000Z</time>
|
|
</trkpt>
|
|
<trkpt lat="55.612089" lon="8.230451">
|
|
<ele>8.947062</ele>
|
|
<time>2026-07-11T11:31:47.000Z</time>
|
|
</trkpt>
|
|
<trkpt lat="55.612051" lon="8.230392">
|
|
<ele>8.996236</ele>
|
|
<time>2026-07-11T11:31:48.000Z</time>
|
|
</trkpt>
|
|
<trkpt lat="55.612013" lon="8.230335">
|
|
<ele>9.044693</ele>
|
|
<time>2026-07-11T11:31:49.000Z</time>
|
|
</trkpt>
|
|
<trkpt lat="55.611975" lon="8.230278">
|
|
<ele>9.093149</ele>
|
|
<time>2026-07-11T11:31:50.000Z</time>
|
|
</trkpt>
|
|
<trkpt lat="55.611937" lon="8.230223">
|
|
<ele>9.140902</ele>
|
|
<time>2026-07-11T11:31:51.000Z</time>
|
|
</trkpt>
|
|
<trkpt lat="55.611900" lon="8.230169">
|
|
<ele>9.187555</ele>
|
|
<time>2026-07-11T11:31:52.000Z</time>
|
|
</trkpt>
|
|
<trkpt lat="55.611864" lon="8.230113">
|
|
<ele>9.221324</ele>
|
|
<time>2026-07-11T11:31:53.000Z</time>
|
|
</trkpt>
|
|
<trkpt lat="55.611828" lon="8.230057">
|
|
<ele>9.229134</ele>
|
|
<time>2026-07-11T11:31:54.000Z</time>
|
|
</trkpt>
|
|
<trkpt lat="55.611792" lon="8.230004">
|
|
<ele>9.236765</ele>
|
|
<time>2026-07-11T11:31:55.000Z</time>
|
|
</trkpt>
|
|
<trkpt lat="55.611754" lon="8.229958">
|
|
<ele>9.244267</ele>
|
|
<time>2026-07-11T11:31:56.000Z</time>
|
|
</trkpt>
|
|
<trkpt lat="55.611714" lon="8.229916">
|
|
<ele>9.251846</ele>
|
|
<time>2026-07-11T11:31:57.000Z</time>
|
|
</trkpt>
|
|
<trkpt lat="55.611672" lon="8.229877">
|
|
<ele>9.259575</ele>
|
|
<time>2026-07-11T11:31:58.000Z</time>
|
|
</trkpt>
|
|
<trkpt lat="55.611630" lon="8.229840">
|
|
<ele>9.267221</ele>
|
|
<time>2026-07-11T11:31:59.000Z</time>
|
|
</trkpt>
|
|
<trkpt lat="55.611588" lon="8.229803">
|
|
<ele>9.274867</ele>
|
|
<time>2026-07-11T11:32:00.000Z</time>
|
|
</trkpt>
|
|
<trkpt lat="55.611548" lon="8.229762">
|
|
<ele>9.282399</ele>
|
|
<time>2026-07-11T11:32:01.000Z</time>
|
|
</trkpt>
|
|
<trkpt lat="55.611508" lon="8.229715">
|
|
<ele>9.290223</ele>
|
|
<time>2026-07-11T11:32:02.000Z</time>
|
|
</trkpt>
|
|
<trkpt lat="55.611467" lon="8.229672">
|
|
<ele>9.297990</ele>
|
|
<time>2026-07-11T11:32:03.000Z</time>
|
|
</trkpt>
|
|
<trkpt lat="55.611428" lon="8.229631">
|
|
<ele>9.305382</ele>
|
|
<time>2026-07-11T11:32:04.000Z</time>
|
|
</trkpt>
|
|
<trkpt lat="55.611386" lon="8.229590">
|
|
<ele>9.313198</ele>
|
|
<time>2026-07-11T11:32:05.000Z</time>
|
|
</trkpt>
|
|
<trkpt lat="55.611343" lon="8.229548">
|
|
<ele>9.321202</ele>
|
|
<time>2026-07-11T11:32:06.000Z</time>
|
|
</trkpt>
|
|
<trkpt lat="55.611298" lon="8.229507">
|
|
<ele>9.329450</ele>
|
|
<time>2026-07-11T11:32:07.000Z</time>
|
|
</trkpt>
|
|
<trkpt lat="55.611256" lon="8.229467">
|
|
<ele>9.337223</ele>
|
|
<time>2026-07-11T11:32:08.000Z</time>
|
|
</trkpt>
|
|
<trkpt lat="55.611212" lon="8.229429">
|
|
<ele>9.345201</ele>
|
|
<time>2026-07-11T11:32:09.000Z</time>
|
|
</trkpt>
|
|
<trkpt lat="55.611168" lon="8.229389">
|
|
<ele>9.353262</ele>
|
|
<time>2026-07-11T11:32:10.000Z</time>
|
|
</trkpt>
|
|
<trkpt lat="55.611126" lon="8.229350">
|
|
<ele>9.360992</ele>
|
|
<time>2026-07-11T11:32:11.000Z</time>
|
|
</trkpt>
|
|
<trkpt lat="55.611085" lon="8.229312">
|
|
<ele>9.368534</ele>
|
|
<time>2026-07-11T11:32:12.000Z</time>
|
|
</trkpt>
|
|
<trkpt lat="55.611041" lon="8.229277">
|
|
<ele>9.376396</ele>
|
|
<time>2026-07-11T11:32:13.000Z</time>
|
|
</trkpt>
|
|
<trkpt lat="55.610997" lon="8.229241">
|
|
<ele>9.384295</ele>
|
|
<time>2026-07-11T11:32:14.000Z</time>
|
|
</trkpt>
|
|
<trkpt lat="55.610953" lon="8.229207">
|
|
<ele>9.392119</ele>
|
|
<time>2026-07-11T11:32:15.000Z</time>
|
|
</trkpt>
|
|
<trkpt lat="55.610907" lon="8.229174">
|
|
<ele>9.400208</ele>
|
|
<time>2026-07-11T11:32:16.000Z</time>
|
|
</trkpt>
|
|
<trkpt lat="55.610862" lon="8.229141">
|
|
<ele>9.408147</ele>
|
|
<time>2026-07-11T11:32:17.000Z</time>
|
|
</trkpt>
|
|
<trkpt lat="55.610816" lon="8.229106">
|
|
<ele>9.416307</ele>
|
|
<time>2026-07-11T11:32:18.000Z</time>
|
|
</trkpt>
|
|
<trkpt lat="55.610770" lon="8.229071">
|
|
<ele>9.424466</ele>
|
|
<time>2026-07-11T11:32:19.000Z</time>
|
|
</trkpt>
|
|
<trkpt lat="55.610725" lon="8.229036">
|
|
<ele>9.432477</ele>
|
|
<time>2026-07-11T11:32:20.000Z</time>
|
|
</trkpt>
|
|
<trkpt lat="55.610677" lon="8.228999">
|
|
<ele>9.441009</ele>
|
|
<time>2026-07-11T11:32:21.000Z</time>
|
|
</trkpt>
|
|
<trkpt lat="55.610629" lon="8.228963">
|
|
<ele>9.449505</ele>
|
|
<time>2026-07-11T11:32:22.000Z</time>
|
|
</trkpt>
|
|
<trkpt lat="55.610580" lon="8.228930">
|
|
<ele>9.458049</ele>
|
|
<time>2026-07-11T11:32:23.000Z</time>
|
|
</trkpt>
|
|
<trkpt lat="55.610528" lon="8.228898">
|
|
<ele>9.467021</ele>
|
|
<time>2026-07-11T11:32:24.000Z</time>
|
|
</trkpt>
|
|
<trkpt lat="55.610478" lon="8.228866">
|
|
<ele>9.475686</ele>
|
|
<time>2026-07-11T11:32:25.000Z</time>
|
|
</trkpt>
|
|
<trkpt lat="55.610429" lon="8.228831">
|
|
<ele>9.484297</ele>
|
|
<time>2026-07-11T11:32:26.000Z</time>
|
|
</trkpt>
|
|
<trkpt lat="55.610379" lon="8.228796">
|
|
<ele>9.493060</ele>
|
|
<time>2026-07-11T11:32:27.000Z</time>
|
|
</trkpt>
|
|
<trkpt lat="55.610328" lon="8.228762">
|
|
<ele>9.501942</ele>
|
|
<time>2026-07-11T11:32:28.000Z</time>
|
|
</trkpt>
|
|
<trkpt lat="55.610275" lon="8.228730">
|
|
<ele>9.511068</ele>
|
|
<time>2026-07-11T11:32:29.000Z</time>
|
|
</trkpt>
|
|
<trkpt lat="55.610221" lon="8.228699">
|
|
<ele>9.516035</ele>
|
|
<time>2026-07-11T11:32:30.000Z</time>
|
|
</trkpt>
|
|
<trkpt lat="55.610169" lon="8.228667">
|
|
<ele>9.520454</ele>
|
|
<time>2026-07-11T11:32:31.000Z</time>
|
|
</trkpt>
|
|
<trkpt lat="55.610118" lon="8.228637">
|
|
<ele>9.524769</ele>
|
|
<time>2026-07-11T11:32:32.000Z</time>
|
|
</trkpt>
|
|
<trkpt lat="55.610064" lon="8.228608">
|
|
<ele>9.529299</ele>
|
|
<time>2026-07-11T11:32:33.000Z</time>
|
|
</trkpt>
|
|
<trkpt lat="55.610011" lon="8.228577">
|
|
<ele>9.533779</ele>
|
|
<time>2026-07-11T11:32:34.000Z</time>
|
|
</trkpt>
|
|
<trkpt lat="55.609959" lon="8.228544">
|
|
<ele>9.538214</ele>
|
|
<time>2026-07-11T11:32:35.000Z</time>
|
|
</trkpt>
|
|
<trkpt lat="55.609910" lon="8.228511">
|
|
<ele>9.542423</ele>
|
|
<time>2026-07-11T11:32:36.000Z</time>
|
|
</trkpt>
|
|
<trkpt lat="55.609861" lon="8.228484">
|
|
<ele>9.546542</ele>
|
|
<time>2026-07-11T11:32:37.000Z</time>
|
|
</trkpt>
|
|
<trkpt lat="55.609810" lon="8.228458">
|
|
<ele>9.550803</ele>
|
|
<time>2026-07-11T11:32:38.000Z</time>
|
|
</trkpt>
|
|
<trkpt lat="55.609758" lon="8.228431">
|
|
<ele>9.555153</ele>
|
|
<time>2026-07-11T11:32:39.000Z</time>
|
|
</trkpt>
|
|
<trkpt lat="55.609709" lon="8.228404">
|
|
<ele>9.559273</ele>
|
|
<time>2026-07-11T11:32:40.000Z</time>
|
|
</trkpt>
|
|
<trkpt lat="55.609656" lon="8.228380">
|
|
<ele>9.563664</ele>
|
|
<time>2026-07-11T11:32:41.000Z</time>
|
|
</trkpt>
|
|
<trkpt lat="55.609603" lon="8.228357">
|
|
<ele>9.568045</ele>
|
|
<time>2026-07-11T11:32:42.000Z</time>
|
|
</trkpt>
|
|
<trkpt lat="55.609549" lon="8.228333">
|
|
<ele>9.572514</ele>
|
|
<time>2026-07-11T11:32:43.000Z</time>
|
|
</trkpt>
|
|
<trkpt lat="55.609498" lon="8.228310">
|
|
<ele>9.576739</ele>
|
|
<time>2026-07-11T11:32:44.000Z</time>
|
|
</trkpt>
|
|
<trkpt lat="55.609449" lon="8.228286">
|
|
<ele>9.580821</ele>
|
|
<time>2026-07-11T11:32:45.000Z</time>
|
|
</trkpt>
|
|
<trkpt lat="55.609397" lon="8.228262">
|
|
<ele>9.585134</ele>
|
|
<time>2026-07-11T11:32:46.000Z</time>
|
|
</trkpt>
|
|
<trkpt lat="55.609345" lon="8.228235">
|
|
<ele>9.589485</ele>
|
|
<time>2026-07-11T11:32:47.000Z</time>
|
|
</trkpt>
|
|
<trkpt lat="55.609296" lon="8.228208">
|
|
<ele>9.593604</ele>
|
|
<time>2026-07-11T11:32:48.000Z</time>
|
|
</trkpt>
|
|
<trkpt lat="55.609247" lon="8.228181">
|
|
<ele>9.597724</ele>
|
|
<time>2026-07-11T11:32:49.000Z</time>
|
|
</trkpt>
|
|
<trkpt lat="55.609198" lon="8.228153">
|
|
<ele>9.601857</ele>
|
|
<time>2026-07-11T11:32:50.000Z</time>
|
|
</trkpt>
|
|
<trkpt lat="55.609147" lon="8.228124">
|
|
<ele>9.606158</ele>
|
|
<time>2026-07-11T11:32:51.000Z</time>
|
|
</trkpt>
|
|
<trkpt lat="55.609095" lon="8.228095">
|
|
<ele>9.610534</ele>
|
|
<time>2026-07-11T11:32:52.000Z</time>
|
|
</trkpt>
|
|
<trkpt lat="55.609048" lon="8.228069">
|
|
<ele>9.614487</ele>
|
|
<time>2026-07-11T11:32:53.000Z</time>
|
|
</trkpt>
|
|
<trkpt lat="55.608998" lon="8.228043">
|
|
<ele>9.618671</ele>
|
|
<time>2026-07-11T11:32:54.000Z</time>
|
|
</trkpt>
|
|
<trkpt lat="55.608947" lon="8.228021">
|
|
<ele>9.622884</ele>
|
|
<time>2026-07-11T11:32:55.000Z</time>
|
|
</trkpt>
|
|
<trkpt lat="55.608900" lon="8.228003">
|
|
<ele>9.626745</ele>
|
|
<time>2026-07-11T11:32:56.000Z</time>
|
|
</trkpt>
|
|
<trkpt lat="55.608849" lon="8.227985">
|
|
<ele>9.630919</ele>
|
|
<time>2026-07-11T11:32:57.000Z</time>
|
|
</trkpt>
|
|
<trkpt lat="55.608797" lon="8.227965">
|
|
<ele>9.635191</ele>
|
|
<time>2026-07-11T11:32:58.000Z</time>
|
|
</trkpt>
|
|
<trkpt lat="55.608746" lon="8.227943">
|
|
<ele>9.639405</ele>
|
|
<time>2026-07-11T11:32:59.000Z</time>
|
|
</trkpt>
|
|
<trkpt lat="55.608696" lon="8.227920">
|
|
<ele>9.643552</ele>
|
|
<time>2026-07-11T11:33:00.000Z</time>
|
|
</trkpt>
|
|
<trkpt lat="55.608649" lon="8.227896">
|
|
<ele>9.647479</ele>
|
|
<time>2026-07-11T11:33:01.000Z</time>
|
|
</trkpt>
|
|
<trkpt lat="55.608602" lon="8.227876">
|
|
<ele>9.651360</ele>
|
|
<time>2026-07-11T11:33:02.000Z</time>
|
|
</trkpt>
|
|
<trkpt lat="55.608551" lon="8.227859">
|
|
<ele>9.655526</ele>
|
|
<time>2026-07-11T11:33:03.000Z</time>
|
|
</trkpt>
|
|
<trkpt lat="55.608500" lon="8.227838">
|
|
<ele>9.657922</ele>
|
|
<time>2026-07-11T11:33:04.000Z</time>
|
|
</trkpt>
|
|
<trkpt lat="55.608447" lon="8.227816">
|
|
<ele>9.660012</ele>
|
|
<time>2026-07-11T11:33:05.000Z</time>
|
|
</trkpt>
|
|
<trkpt lat="55.608390" lon="8.227794">
|
|
<ele>9.662251</ele>
|
|
<time>2026-07-11T11:33:06.000Z</time>
|
|
</trkpt>
|
|
<trkpt lat="55.608337" lon="8.227775">
|
|
<ele>9.664327</ele>
|
|
<time>2026-07-11T11:33:07.000Z</time>
|
|
</trkpt>
|
|
<trkpt lat="55.608284" lon="8.227757">
|
|
<ele>9.666399</ele>
|
|
<time>2026-07-11T11:33:08.000Z</time>
|
|
</trkpt>
|
|
<trkpt lat="55.608229" lon="8.227735">
|
|
<ele>9.668564</ele>
|
|
<time>2026-07-11T11:33:09.000Z</time>
|
|
</trkpt>
|
|
<trkpt lat="55.608170" lon="8.227709">
|
|
<ele>9.670898</ele>
|
|
<time>2026-07-11T11:33:10.000Z</time>
|
|
</trkpt>
|
|
<trkpt lat="55.608112" lon="8.227680">
|
|
<ele>9.673212</ele>
|
|
<time>2026-07-11T11:33:11.000Z</time>
|
|
</trkpt>
|
|
<trkpt lat="55.608057" lon="8.227650">
|
|
<ele>9.675421</ele>
|
|
<time>2026-07-11T11:33:12.000Z</time>
|
|
</trkpt>
|
|
<trkpt lat="55.607998" lon="8.227623">
|
|
<ele>9.677761</ele>
|
|
<time>2026-07-11T11:33:13.000Z</time>
|
|
</trkpt>
|
|
<trkpt lat="55.607940" lon="8.227599">
|
|
<ele>9.680048</ele>
|
|
<time>2026-07-11T11:33:14.000Z</time>
|
|
</trkpt>
|
|
<trkpt lat="55.607883" lon="8.227576">
|
|
<ele>9.682292</ele>
|
|
<time>2026-07-11T11:33:15.000Z</time>
|
|
</trkpt>
|
|
<trkpt lat="55.607824" lon="8.227551">
|
|
<ele>9.684621</ele>
|
|
<time>2026-07-11T11:33:16.000Z</time>
|
|
</trkpt>
|
|
<trkpt lat="55.607768" lon="8.227523">
|
|
<ele>9.686855</ele>
|
|
<time>2026-07-11T11:33:17.000Z</time>
|
|
</trkpt>
|
|
<trkpt lat="55.607714" lon="8.227494">
|
|
<ele>9.689021</ele>
|
|
<time>2026-07-11T11:33:18.000Z</time>
|
|
</trkpt>
|
|
<trkpt lat="55.607657" lon="8.227467">
|
|
<ele>9.691287</ele>
|
|
<time>2026-07-11T11:33:19.000Z</time>
|
|
</trkpt>
|
|
<trkpt lat="55.607599" lon="8.227440">
|
|
<ele>9.693589</ele>
|
|
<time>2026-07-11T11:33:20.000Z</time>
|
|
</trkpt>
|
|
<trkpt lat="55.607543" lon="8.227412">
|
|
<ele>9.695823</ele>
|
|
<time>2026-07-11T11:33:21.000Z</time>
|
|
</trkpt>
|
|
<trkpt lat="55.607488" lon="8.227382">
|
|
<ele>9.698033</ele>
|
|
<time>2026-07-11T11:33:22.000Z</time>
|
|
</trkpt>
|
|
<trkpt lat="55.607433" lon="8.227352">
|
|
<ele>9.700242</ele>
|
|
<time>2026-07-11T11:33:23.000Z</time>
|
|
</trkpt>
|
|
<trkpt lat="55.607377" lon="8.227322">
|
|
<ele>9.702488</ele>
|
|
<time>2026-07-11T11:33:24.000Z</time>
|
|
</trkpt>
|
|
<trkpt lat="55.607321" lon="8.227290">
|
|
<ele>9.704747</ele>
|
|
<time>2026-07-11T11:33:25.000Z</time>
|
|
</trkpt>
|
|
<trkpt lat="55.607270" lon="8.227257">
|
|
<ele>9.706832</ele>
|
|
<time>2026-07-11T11:33:26.000Z</time>
|
|
</trkpt>
|
|
<trkpt lat="55.607219" lon="8.227222">
|
|
<ele>9.708932</ele>
|
|
<time>2026-07-11T11:33:27.000Z</time>
|
|
</trkpt>
|
|
<trkpt lat="55.607167" lon="8.227184">
|
|
<ele>9.711091</ele>
|
|
<time>2026-07-11T11:33:28.000Z</time>
|
|
</trkpt>
|
|
<trkpt lat="55.607118" lon="8.227148">
|
|
<ele>9.713128</ele>
|
|
<time>2026-07-11T11:33:29.000Z</time>
|
|
</trkpt>
|
|
<trkpt lat="55.607067" lon="8.227112">
|
|
<ele>9.715236</ele>
|
|
<time>2026-07-11T11:33:30.000Z</time>
|
|
</trkpt>
|
|
<trkpt lat="55.607013" lon="8.227077">
|
|
<ele>9.717444</ele>
|
|
<time>2026-07-11T11:33:31.000Z</time>
|
|
</trkpt>
|
|
<trkpt lat="55.606960" lon="8.227047">
|
|
<ele>9.719580</ele>
|
|
<time>2026-07-11T11:33:32.000Z</time>
|
|
</trkpt>
|
|
<trkpt lat="55.606908" lon="8.227021">
|
|
<ele>9.721654</ele>
|
|
<time>2026-07-11T11:33:33.000Z</time>
|
|
</trkpt>
|
|
<trkpt lat="55.606856" lon="8.226995">
|
|
<ele>9.723729</ele>
|
|
<time>2026-07-11T11:33:34.000Z</time>
|
|
</trkpt>
|
|
<trkpt lat="55.606803" lon="8.226969">
|
|
<ele>9.725253</ele>
|
|
<time>2026-07-11T11:33:35.000Z</time>
|
|
</trkpt>
|
|
<trkpt lat="55.606750" lon="8.226945">
|
|
<ele>9.724994</ele>
|
|
<time>2026-07-11T11:33:36.000Z</time>
|
|
</trkpt>
|
|
<trkpt lat="55.606697" lon="8.226922">
|
|
<ele>9.724735</ele>
|
|
<time>2026-07-11T11:33:37.000Z</time>
|
|
</trkpt>
|
|
<trkpt lat="55.606644" lon="8.226900">
|
|
<ele>9.724478</ele>
|
|
<time>2026-07-11T11:33:38.000Z</time>
|
|
</trkpt>
|
|
<trkpt lat="55.606595" lon="8.226878">
|
|
<ele>9.724238</ele>
|
|
<time>2026-07-11T11:33:39.000Z</time>
|
|
</trkpt>
|
|
<trkpt lat="55.606545" lon="8.226855">
|
|
<ele>9.723994</ele>
|
|
<time>2026-07-11T11:33:40.000Z</time>
|
|
</trkpt>
|
|
<trkpt lat="55.606494" lon="8.226830">
|
|
<ele>9.723743</ele>
|
|
<time>2026-07-11T11:33:41.000Z</time>
|
|
</trkpt>
|
|
<trkpt lat="55.606442" lon="8.226803">
|
|
<ele>9.723487</ele>
|
|
<time>2026-07-11T11:33:42.000Z</time>
|
|
</trkpt>
|
|
<trkpt lat="55.606391" lon="8.226775">
|
|
<ele>9.723234</ele>
|
|
<time>2026-07-11T11:33:43.000Z</time>
|
|
</trkpt>
|
|
<trkpt lat="55.606339" lon="8.226748">
|
|
<ele>9.722978</ele>
|
|
<time>2026-07-11T11:33:44.000Z</time>
|
|
</trkpt>
|
|
<trkpt lat="55.606288" lon="8.226722">
|
|
<ele>9.722727</ele>
|
|
<time>2026-07-11T11:33:45.000Z</time>
|
|
</trkpt>
|
|
<trkpt lat="55.606234" lon="8.226697">
|
|
<ele>9.722462</ele>
|
|
<time>2026-07-11T11:33:46.000Z</time>
|
|
</trkpt>
|
|
<trkpt lat="55.606183" lon="8.226672">
|
|
<ele>9.722212</ele>
|
|
<time>2026-07-11T11:33:47.000Z</time>
|
|
</trkpt>
|
|
<trkpt lat="55.606132" lon="8.226644">
|
|
<ele>9.721959</ele>
|
|
<time>2026-07-11T11:33:48.000Z</time>
|
|
</trkpt>
|
|
<trkpt lat="55.606082" lon="8.226617">
|
|
<ele>9.721712</ele>
|
|
<time>2026-07-11T11:33:49.000Z</time>
|
|
</trkpt>
|
|
<trkpt lat="55.606035" lon="8.226590">
|
|
<ele>9.721478</ele>
|
|
<time>2026-07-11T11:33:50.000Z</time>
|
|
</trkpt>
|
|
<trkpt lat="55.605983" lon="8.226563">
|
|
<ele>9.721221</ele>
|
|
<time>2026-07-11T11:33:51.000Z</time>
|
|
</trkpt>
|
|
<trkpt lat="55.605934" lon="8.226537">
|
|
<ele>9.720979</ele>
|
|
<time>2026-07-11T11:33:52.000Z</time>
|
|
</trkpt>
|
|
<trkpt lat="55.605886" lon="8.226512">
|
|
<ele>9.720742</ele>
|
|
<time>2026-07-11T11:33:53.000Z</time>
|
|
</trkpt>
|
|
<trkpt lat="55.605837" lon="8.226498">
|
|
<ele>9.720508</ele>
|
|
<time>2026-07-11T11:33:54.000Z</time>
|
|
</trkpt>
|
|
<trkpt lat="55.605789" lon="8.226506">
|
|
<ele>9.720279</ele>
|
|
<time>2026-07-11T11:33:55.000Z</time>
|
|
</trkpt>
|
|
<trkpt lat="55.605747" lon="8.226544">
|
|
<ele>9.720056</ele>
|
|
<time>2026-07-11T11:33:56.000Z</time>
|
|
</trkpt>
|
|
<trkpt lat="55.605713" lon="8.226598">
|
|
<ele>9.719840</ele>
|
|
<time>2026-07-11T11:33:57.000Z</time>
|
|
</trkpt>
|
|
<trkpt lat="55.605680" lon="8.226656">
|
|
<ele>9.719620</ele>
|
|
<time>2026-07-11T11:33:58.000Z</time>
|
|
</trkpt>
|
|
<trkpt lat="55.605648" lon="8.226712">
|
|
<ele>9.719407</ele>
|
|
<time>2026-07-11T11:33:59.000Z</time>
|
|
</trkpt>
|
|
<trkpt lat="55.605614" lon="8.226761">
|
|
<ele>9.719199</ele>
|
|
<time>2026-07-11T11:34:00.000Z</time>
|
|
</trkpt>
|
|
<trkpt lat="55.605578" lon="8.226791">
|
|
<ele>9.719011</ele>
|
|
<time>2026-07-11T11:34:01.000Z</time>
|
|
</trkpt>
|
|
<trkpt lat="55.605544" lon="8.226789">
|
|
<ele>9.718850</ele>
|
|
<time>2026-07-11T11:34:02.000Z</time>
|
|
</trkpt>
|
|
<trkpt lat="55.605517" lon="8.226766">
|
|
<ele>9.718708</ele>
|
|
<time>2026-07-11T11:34:03.000Z</time>
|
|
</trkpt>
|
|
<trkpt lat="55.605495" lon="8.226736">
|
|
<ele>9.718577</ele>
|
|
<time>2026-07-11T11:34:04.000Z</time>
|
|
</trkpt>
|
|
<trkpt lat="55.605477" lon="8.226703">
|
|
<ele>9.718454</ele>
|
|
<time>2026-07-11T11:34:05.000Z</time>
|
|
</trkpt>
|
|
<trkpt lat="55.605462" lon="8.226670">
|
|
<ele>9.718341</ele>
|
|
<time>2026-07-11T11:34:06.000Z</time>
|
|
</trkpt>
|
|
<trkpt lat="55.605444" lon="8.226632">
|
|
<ele>9.718208</ele>
|
|
<time>2026-07-11T11:34:07.000Z</time>
|
|
</trkpt>
|
|
<trkpt lat="55.605422" lon="8.226592">
|
|
<ele>9.718059</ele>
|
|
<time>2026-07-11T11:34:08.000Z</time>
|
|
</trkpt>
|
|
<trkpt lat="55.605397" lon="8.226553">
|
|
<ele>9.717901</ele>
|
|
<time>2026-07-11T11:34:09.000Z</time>
|
|
</trkpt>
|
|
<trkpt lat="55.605364" lon="8.226517">
|
|
<ele>9.717718</ele>
|
|
<time>2026-07-11T11:34:10.000Z</time>
|
|
</trkpt>
|
|
<trkpt lat="55.605330" lon="8.226492">
|
|
<ele>9.717543</ele>
|
|
<time>2026-07-11T11:34:11.000Z</time>
|
|
</trkpt>
|
|
<trkpt lat="55.605293" lon="8.226472">
|
|
<ele>9.717360</ele>
|
|
<time>2026-07-11T11:34:12.000Z</time>
|
|
</trkpt>
|
|
<trkpt lat="55.605254" lon="8.226454">
|
|
<ele>9.717170</ele>
|
|
<time>2026-07-11T11:34:13.000Z</time>
|
|
</trkpt>
|
|
<trkpt lat="55.605212" lon="8.226435">
|
|
<ele>9.716964</ele>
|
|
<time>2026-07-11T11:34:14.000Z</time>
|
|
</trkpt>
|
|
<trkpt lat="55.605169" lon="8.226417">
|
|
<ele>9.717067</ele>
|
|
<time>2026-07-11T11:34:15.000Z</time>
|
|
</trkpt>
|
|
<trkpt lat="55.605125" lon="8.226398">
|
|
<ele>9.718231</ele>
|
|
<time>2026-07-11T11:34:16.000Z</time>
|
|
</trkpt>
|
|
<trkpt lat="55.605082" lon="8.226382">
|
|
<ele>9.719360</ele>
|
|
<time>2026-07-11T11:34:17.000Z</time>
|
|
</trkpt>
|
|
<trkpt lat="55.605041" lon="8.226365">
|
|
<ele>9.720441</ele>
|
|
<time>2026-07-11T11:34:18.000Z</time>
|
|
</trkpt>
|
|
<trkpt lat="55.604994" lon="8.226347">
|
|
<ele>9.721677</ele>
|
|
<time>2026-07-11T11:34:19.000Z</time>
|
|
</trkpt>
|
|
<trkpt lat="55.604948" lon="8.226329">
|
|
<ele>9.722887</ele>
|
|
<time>2026-07-11T11:34:20.000Z</time>
|
|
</trkpt>
|
|
<trkpt lat="55.604905" lon="8.226311">
|
|
<ele>9.724022</ele>
|
|
<time>2026-07-11T11:34:21.000Z</time>
|
|
</trkpt>
|
|
<trkpt lat="55.604860" lon="8.226293">
|
|
<ele>9.725207</ele>
|
|
<time>2026-07-11T11:34:22.000Z</time>
|
|
</trkpt>
|
|
<trkpt lat="55.604812" lon="8.226271">
|
|
<ele>9.726481</ele>
|
|
<time>2026-07-11T11:34:23.000Z</time>
|
|
</trkpt>
|
|
<trkpt lat="55.604763" lon="8.226246">
|
|
<ele>9.727791</ele>
|
|
<time>2026-07-11T11:34:24.000Z</time>
|
|
</trkpt>
|
|
<trkpt lat="55.604713" lon="8.226224">
|
|
<ele>9.729114</ele>
|
|
<time>2026-07-11T11:34:25.000Z</time>
|
|
</trkpt>
|
|
<trkpt lat="55.604665" lon="8.226205">
|
|
<ele>9.730378</ele>
|
|
<time>2026-07-11T11:34:26.000Z</time>
|
|
</trkpt>
|
|
<trkpt lat="55.604616" lon="8.226185">
|
|
<ele>9.731670</ele>
|
|
<time>2026-07-11T11:34:27.000Z</time>
|
|
</trkpt>
|
|
<trkpt lat="55.604568" lon="8.226162">
|
|
<ele>9.732947</ele>
|
|
<time>2026-07-11T11:34:28.000Z</time>
|
|
</trkpt>
|
|
<trkpt lat="55.604523" lon="8.226140">
|
|
<ele>9.734146</ele>
|
|
<time>2026-07-11T11:34:29.000Z</time>
|
|
</trkpt>
|
|
<trkpt lat="55.604478" lon="8.226123">
|
|
<ele>9.735328</ele>
|
|
<time>2026-07-11T11:34:30.000Z</time>
|
|
</trkpt>
|
|
<trkpt lat="55.604430" lon="8.226106">
|
|
<ele>9.736586</ele>
|
|
<time>2026-07-11T11:34:31.000Z</time>
|
|
</trkpt>
|
|
<trkpt lat="55.604386" lon="8.226087">
|
|
<ele>9.737749</ele>
|
|
<time>2026-07-11T11:34:32.000Z</time>
|
|
</trkpt>
|
|
<trkpt lat="55.604340" lon="8.226071">
|
|
<ele>9.738954</ele>
|
|
<time>2026-07-11T11:34:33.000Z</time>
|
|
</trkpt>
|
|
<trkpt lat="55.604293" lon="8.226051">
|
|
<ele>9.740195</ele>
|
|
<time>2026-07-11T11:34:34.000Z</time>
|
|
</trkpt>
|
|
<trkpt lat="55.604247" lon="8.226031">
|
|
<ele>9.741412</ele>
|
|
<time>2026-07-11T11:34:35.000Z</time>
|
|
</trkpt>
|
|
<trkpt lat="55.604201" lon="8.226012">
|
|
<ele>9.742626</ele>
|
|
<time>2026-07-11T11:34:36.000Z</time>
|
|
</trkpt>
|
|
<trkpt lat="55.604155" lon="8.225992">
|
|
<ele>9.743843</ele>
|
|
<time>2026-07-11T11:34:37.000Z</time>
|
|
</trkpt>
|
|
<trkpt lat="55.604108" lon="8.225970">
|
|
<ele>9.745091</ele>
|
|
<time>2026-07-11T11:34:38.000Z</time>
|
|
</trkpt>
|
|
<trkpt lat="55.604059" lon="8.225947">
|
|
<ele>9.746394</ele>
|
|
<time>2026-07-11T11:34:39.000Z</time>
|
|
</trkpt>
|
|
<trkpt lat="55.604008" lon="8.225923">
|
|
<ele>9.747749</ele>
|
|
<time>2026-07-11T11:34:40.000Z</time>
|
|
</trkpt>
|
|
<trkpt lat="55.603957" lon="8.225899">
|
|
<ele>9.749105</ele>
|
|
<time>2026-07-11T11:34:41.000Z</time>
|
|
</trkpt>
|
|
<trkpt lat="55.603909" lon="8.225874">
|
|
<ele>9.750390</ele>
|
|
<time>2026-07-11T11:34:42.000Z</time>
|
|
</trkpt>
|
|
<trkpt lat="55.603859" lon="8.225848">
|
|
<ele>9.751729</ele>
|
|
<time>2026-07-11T11:34:43.000Z</time>
|
|
</trkpt>
|
|
<trkpt lat="55.603809" lon="8.225822">
|
|
<ele>9.753068</ele>
|
|
<time>2026-07-11T11:34:44.000Z</time>
|
|
</trkpt>
|
|
<trkpt lat="55.603755" lon="8.225796">
|
|
<ele>9.754505</ele>
|
|
<time>2026-07-11T11:34:45.000Z</time>
|
|
</trkpt>
|
|
<trkpt lat="55.603702" lon="8.225769">
|
|
<ele>9.755922</ele>
|
|
<time>2026-07-11T11:34:46.000Z</time>
|
|
</trkpt>
|
|
<trkpt lat="55.603647" lon="8.225741">
|
|
<ele>9.757392</ele>
|
|
<time>2026-07-11T11:34:47.000Z</time>
|
|
</trkpt>
|
|
<trkpt lat="55.603592" lon="8.225713">
|
|
<ele>9.758862</ele>
|
|
<time>2026-07-11T11:34:48.000Z</time>
|
|
</trkpt>
|
|
<trkpt lat="55.603535" lon="8.225688">
|
|
<ele>9.760371</ele>
|
|
<time>2026-07-11T11:34:49.000Z</time>
|
|
</trkpt>
|
|
<trkpt lat="55.603476" lon="8.225662">
|
|
<ele>9.761933</ele>
|
|
<time>2026-07-11T11:34:50.000Z</time>
|
|
</trkpt>
|
|
<trkpt lat="55.603420" lon="8.225633">
|
|
<ele>9.762333</ele>
|
|
<time>2026-07-11T11:34:51.000Z</time>
|
|
</trkpt>
|
|
<trkpt lat="55.603364" lon="8.225603">
|
|
<ele>9.759930</ele>
|
|
<time>2026-07-11T11:34:52.000Z</time>
|
|
</trkpt>
|
|
<trkpt lat="55.603307" lon="8.225574">
|
|
<ele>9.757495</ele>
|
|
<time>2026-07-11T11:34:53.000Z</time>
|
|
</trkpt>
|
|
<trkpt lat="55.603250" lon="8.225546">
|
|
<ele>9.755066</ele>
|
|
<time>2026-07-11T11:34:54.000Z</time>
|
|
</trkpt>
|
|
<trkpt lat="55.603195" lon="8.225519">
|
|
<ele>9.752722</ele>
|
|
<time>2026-07-11T11:34:55.000Z</time>
|
|
</trkpt>
|
|
<trkpt lat="55.603142" lon="8.225493">
|
|
<ele>9.750463</ele>
|
|
<time>2026-07-11T11:34:56.000Z</time>
|
|
</trkpt>
|
|
<trkpt lat="55.603087" lon="8.225467">
|
|
<ele>9.748125</ele>
|
|
<time>2026-07-11T11:34:57.000Z</time>
|
|
</trkpt>
|
|
<trkpt lat="55.603030" lon="8.225440">
|
|
<ele>9.745702</ele>
|
|
<time>2026-07-11T11:34:58.000Z</time>
|
|
</trkpt>
|
|
<trkpt lat="55.602972" lon="8.225413">
|
|
<ele>9.743239</ele>
|
|
<time>2026-07-11T11:34:59.000Z</time>
|
|
</trkpt>
|
|
<trkpt lat="55.602913" lon="8.225389">
|
|
<ele>9.740753</ele>
|
|
<time>2026-07-11T11:35:00.000Z</time>
|
|
</trkpt>
|
|
<trkpt lat="55.602854" lon="8.225365">
|
|
<ele>9.738267</ele>
|
|
<time>2026-07-11T11:35:01.000Z</time>
|
|
</trkpt>
|
|
<trkpt lat="55.602800" lon="8.225338">
|
|
<ele>9.735963</ele>
|
|
<time>2026-07-11T11:35:02.000Z</time>
|
|
</trkpt>
|
|
<trkpt lat="55.602742" lon="8.225310">
|
|
<ele>9.733494</ele>
|
|
<time>2026-07-11T11:35:03.000Z</time>
|
|
</trkpt>
|
|
<trkpt lat="55.602685" lon="8.225284">
|
|
<ele>9.731077</ele>
|
|
<time>2026-07-11T11:35:04.000Z</time>
|
|
</trkpt>
|
|
<trkpt lat="55.602628" lon="8.225262">
|
|
<ele>9.728681</ele>
|
|
<time>2026-07-11T11:35:05.000Z</time>
|
|
</trkpt>
|
|
<trkpt lat="55.602571" lon="8.225241">
|
|
<ele>9.726290</ele>
|
|
<time>2026-07-11T11:35:06.000Z</time>
|
|
</trkpt>
|
|
<trkpt lat="55.602514" lon="8.225224">
|
|
<ele>9.723917</ele>
|
|
<time>2026-07-11T11:35:07.000Z</time>
|
|
</trkpt>
|
|
<trkpt lat="55.602458" lon="8.225210">
|
|
<ele>9.721594</ele>
|
|
<time>2026-07-11T11:35:08.000Z</time>
|
|
</trkpt>
|
|
<trkpt lat="55.602404" lon="8.225200">
|
|
<ele>9.719364</ele>
|
|
<time>2026-07-11T11:35:09.000Z</time>
|
|
</trkpt>
|
|
<trkpt lat="55.602353" lon="8.225193">
|
|
<ele>9.717264</ele>
|
|
<time>2026-07-11T11:35:10.000Z</time>
|
|
</trkpt>
|
|
<trkpt lat="55.602301" lon="8.225188">
|
|
<ele>9.715125</ele>
|
|
<time>2026-07-11T11:35:11.000Z</time>
|
|
</trkpt>
|
|
<trkpt lat="55.602247" lon="8.225186">
|
|
<ele>9.712907</ele>
|
|
<time>2026-07-11T11:35:12.000Z</time>
|
|
</trkpt>
|
|
<trkpt lat="55.602191" lon="8.225186">
|
|
<ele>9.710607</ele>
|
|
<time>2026-07-11T11:35:13.000Z</time>
|
|
</trkpt>
|
|
<trkpt lat="55.602137" lon="8.225185">
|
|
<ele>9.708390</ele>
|
|
<time>2026-07-11T11:35:14.000Z</time>
|
|
</trkpt>
|
|
<trkpt lat="55.602082" lon="8.225180">
|
|
<ele>9.706128</ele>
|
|
<time>2026-07-11T11:35:15.000Z</time>
|
|
</trkpt>
|
|
<trkpt lat="55.602027" lon="8.225172">
|
|
<ele>9.703862</ele>
|
|
<time>2026-07-11T11:35:16.000Z</time>
|
|
</trkpt>
|
|
<trkpt lat="55.601975" lon="8.225165">
|
|
<ele>9.701720</ele>
|
|
<time>2026-07-11T11:35:17.000Z</time>
|
|
</trkpt>
|
|
<trkpt lat="55.601924" lon="8.225157">
|
|
<ele>9.699618</ele>
|
|
<time>2026-07-11T11:35:18.000Z</time>
|
|
</trkpt>
|
|
<trkpt lat="55.601870" lon="8.225150">
|
|
<ele>9.697394</ele>
|
|
<time>2026-07-11T11:35:19.000Z</time>
|
|
</trkpt>
|
|
<trkpt lat="55.601817" lon="8.225145">
|
|
<ele>9.695214</ele>
|
|
<time>2026-07-11T11:35:20.000Z</time>
|
|
</trkpt>
|
|
<trkpt lat="55.601766" lon="8.225139">
|
|
<ele>9.693115</ele>
|
|
<time>2026-07-11T11:35:21.000Z</time>
|
|
</trkpt>
|
|
<trkpt lat="55.601716" lon="8.225131">
|
|
<ele>9.691054</ele>
|
|
<time>2026-07-11T11:35:22.000Z</time>
|
|
</trkpt>
|
|
<trkpt lat="55.601665" lon="8.225125">
|
|
<ele>9.690157</ele>
|
|
<time>2026-07-11T11:35:23.000Z</time>
|
|
</trkpt>
|
|
<trkpt lat="55.601613" lon="8.225123">
|
|
<ele>9.701483</ele>
|
|
<time>2026-07-11T11:35:24.000Z</time>
|
|
</trkpt>
|
|
<trkpt lat="55.601562" lon="8.225119">
|
|
<ele>9.712599</ele>
|
|
<time>2026-07-11T11:35:25.000Z</time>
|
|
</trkpt>
|
|
<trkpt lat="55.601508" lon="8.225113">
|
|
<ele>9.724380</ele>
|
|
<time>2026-07-11T11:35:26.000Z</time>
|
|
</trkpt>
|
|
<trkpt lat="55.601455" lon="8.225108">
|
|
<ele>9.735937</ele>
|
|
<time>2026-07-11T11:35:27.000Z</time>
|
|
</trkpt>
|
|
<trkpt lat="55.601400" lon="8.225104">
|
|
<ele>9.747924</ele>
|
|
<time>2026-07-11T11:35:28.000Z</time>
|
|
</trkpt>
|
|
<trkpt lat="55.601344" lon="8.225101">
|
|
<ele>9.760123</ele>
|
|
<time>2026-07-11T11:35:29.000Z</time>
|
|
</trkpt>
|
|
<trkpt lat="55.601291" lon="8.225100">
|
|
<ele>9.771664</ele>
|
|
<time>2026-07-11T11:35:30.000Z</time>
|
|
</trkpt>
|
|
<trkpt lat="55.601235" lon="8.225097">
|
|
<ele>9.783864</ele>
|
|
<time>2026-07-11T11:35:31.000Z</time>
|
|
</trkpt>
|
|
<trkpt lat="55.601180" lon="8.225094">
|
|
<ele>9.795846</ele>
|
|
<time>2026-07-11T11:35:32.000Z</time>
|
|
</trkpt>
|
|
<trkpt lat="55.601121" lon="8.225090">
|
|
<ele>9.808702</ele>
|
|
<time>2026-07-11T11:35:33.000Z</time>
|
|
</trkpt>
|
|
<trkpt lat="55.601059" lon="8.225086">
|
|
<ele>9.822211</ele>
|
|
<time>2026-07-11T11:35:34.000Z</time>
|
|
</trkpt>
|
|
<trkpt lat="55.600998" lon="8.225083">
|
|
<ele>9.835499</ele>
|
|
<time>2026-07-11T11:35:35.000Z</time>
|
|
</trkpt>
|
|
<trkpt lat="55.600942" lon="8.225079">
|
|
<ele>9.847703</ele>
|
|
<time>2026-07-11T11:35:36.000Z</time>
|
|
</trkpt>
|
|
<trkpt lat="55.600889" lon="8.225076">
|
|
<ele>9.859249</ele>
|
|
<time>2026-07-11T11:35:37.000Z</time>
|
|
</trkpt>
|
|
<trkpt lat="55.600836" lon="8.225078">
|
|
<ele>9.870793</ele>
|
|
<time>2026-07-11T11:35:38.000Z</time>
|
|
</trkpt>
|
|
<trkpt lat="55.600783" lon="8.225079">
|
|
<ele>9.882334</ele>
|
|
<time>2026-07-11T11:35:39.000Z</time>
|
|
</trkpt>
|
|
<trkpt lat="55.600726" lon="8.225078">
|
|
<ele>9.894746</ele>
|
|
<time>2026-07-11T11:35:40.000Z</time>
|
|
</trkpt>
|
|
<trkpt lat="55.600672" lon="8.225076">
|
|
<ele>9.906507</ele>
|
|
<time>2026-07-11T11:35:41.000Z</time>
|
|
</trkpt>
|
|
<trkpt lat="55.600617" lon="8.225074">
|
|
<ele>9.918486</ele>
|
|
<time>2026-07-11T11:35:42.000Z</time>
|
|
</trkpt>
|
|
<trkpt lat="55.600560" lon="8.225073">
|
|
<ele>9.930898</ele>
|
|
<time>2026-07-11T11:35:43.000Z</time>
|
|
</trkpt>
|
|
<trkpt lat="55.600506" lon="8.225075">
|
|
<ele>9.942659</ele>
|
|
<time>2026-07-11T11:35:44.000Z</time>
|
|
</trkpt>
|
|
<trkpt lat="55.600455" lon="8.225082">
|
|
<ele>9.953797</ele>
|
|
<time>2026-07-11T11:35:45.000Z</time>
|
|
</trkpt>
|
|
<trkpt lat="55.600402" lon="8.225091">
|
|
<ele>9.965391</ele>
|
|
<time>2026-07-11T11:35:46.000Z</time>
|
|
</trkpt>
|
|
<trkpt lat="55.600352" lon="8.225103">
|
|
<ele>9.976378</ele>
|
|
<time>2026-07-11T11:35:47.000Z</time>
|
|
</trkpt>
|
|
<trkpt lat="55.600305" lon="8.225116">
|
|
<ele>9.986736</ele>
|
|
<time>2026-07-11T11:35:48.000Z</time>
|
|
</trkpt>
|
|
<trkpt lat="55.600255" lon="8.225128">
|
|
<ele>9.997723</ele>
|
|
<time>2026-07-11T11:35:49.000Z</time>
|
|
</trkpt>
|
|
<trkpt lat="55.600202" lon="8.225138">
|
|
<ele>10.009329</ele>
|
|
<time>2026-07-11T11:35:50.000Z</time>
|
|
</trkpt>
|
|
<trkpt lat="55.600146" lon="8.225151">
|
|
<ele>10.021628</ele>
|
|
<time>2026-07-11T11:35:51.000Z</time>
|
|
</trkpt>
|
|
<trkpt lat="55.600093" lon="8.225165">
|
|
<ele>10.033296</ele>
|
|
<time>2026-07-11T11:35:52.000Z</time>
|
|
</trkpt>
|
|
<trkpt lat="55.600040" lon="8.225177">
|
|
<ele>10.044931</ele>
|
|
<time>2026-07-11T11:35:53.000Z</time>
|
|
</trkpt>
|
|
<trkpt lat="55.599988" lon="8.225188">
|
|
<ele>10.056334</ele>
|
|
<time>2026-07-11T11:35:54.000Z</time>
|
|
</trkpt>
|
|
<trkpt lat="55.599936" lon="8.225198">
|
|
<ele>10.067724</ele>
|
|
<time>2026-07-11T11:35:55.000Z</time>
|
|
</trkpt>
|
|
<trkpt lat="55.599882" lon="8.225207">
|
|
<ele>10.079534</ele>
|
|
<time>2026-07-11T11:35:56.000Z</time>
|
|
</trkpt>
|
|
<trkpt lat="55.599826" lon="8.225206">
|
|
<ele>10.086259</ele>
|
|
<time>2026-07-11T11:35:57.000Z</time>
|
|
</trkpt>
|
|
<trkpt lat="55.599774" lon="8.225193">
|
|
<ele>10.091974</ele>
|
|
<time>2026-07-11T11:35:58.000Z</time>
|
|
</trkpt>
|
|
<trkpt lat="55.599724" lon="8.225171">
|
|
<ele>10.097581</ele>
|
|
<time>2026-07-11T11:35:59.000Z</time>
|
|
</trkpt>
|
|
<trkpt lat="55.599675" lon="8.225143">
|
|
<ele>10.103184</ele>
|
|
<time>2026-07-11T11:36:00.000Z</time>
|
|
</trkpt>
|
|
<trkpt lat="55.599624" lon="8.225114">
|
|
<ele>10.109013</ele>
|
|
<time>2026-07-11T11:36:01.000Z</time>
|
|
</trkpt>
|
|
<trkpt lat="55.599571" lon="8.225095">
|
|
<ele>10.114898</ele>
|
|
<time>2026-07-11T11:36:02.000Z</time>
|
|
</trkpt>
|
|
<trkpt lat="55.599519" lon="8.225091">
|
|
<ele>10.120562</ele>
|
|
<time>2026-07-11T11:36:03.000Z</time>
|
|
</trkpt>
|
|
<trkpt lat="55.599468" lon="8.225097">
|
|
<ele>10.126124</ele>
|
|
<time>2026-07-11T11:36:04.000Z</time>
|
|
</trkpt>
|
|
<trkpt lat="55.599413" lon="8.225109">
|
|
<ele>10.132154</ele>
|
|
<time>2026-07-11T11:36:05.000Z</time>
|
|
</trkpt>
|
|
<trkpt lat="55.599356" lon="8.225127">
|
|
<ele>10.138455</ele>
|
|
<time>2026-07-11T11:36:06.000Z</time>
|
|
</trkpt>
|
|
<trkpt lat="55.599299" lon="8.225147">
|
|
<ele>10.144778</ele>
|
|
<time>2026-07-11T11:36:07.000Z</time>
|
|
</trkpt>
|
|
<trkpt lat="55.599245" lon="8.225168">
|
|
<ele>10.150795</ele>
|
|
<time>2026-07-11T11:36:08.000Z</time>
|
|
</trkpt>
|
|
<trkpt lat="55.599189" lon="8.225187">
|
|
<ele>10.157000</ele>
|
|
<time>2026-07-11T11:36:09.000Z</time>
|
|
</trkpt>
|
|
<trkpt lat="55.599134" lon="8.225204">
|
|
<ele>10.163075</ele>
|
|
<time>2026-07-11T11:36:10.000Z</time>
|
|
</trkpt>
|
|
<trkpt lat="55.599077" lon="8.225218">
|
|
<ele>10.169338</ele>
|
|
<time>2026-07-11T11:36:11.000Z</time>
|
|
</trkpt>
|
|
<trkpt lat="55.599021" lon="8.225231">
|
|
<ele>10.175484</ele>
|
|
<time>2026-07-11T11:36:12.000Z</time>
|
|
</trkpt>
|
|
<trkpt lat="55.598965" lon="8.225244">
|
|
<ele>10.181630</ele>
|
|
<time>2026-07-11T11:36:13.000Z</time>
|
|
</trkpt>
|
|
<trkpt lat="55.598907" lon="8.225256">
|
|
<ele>10.187984</ele>
|
|
<time>2026-07-11T11:36:14.000Z</time>
|
|
</trkpt>
|
|
<trkpt lat="55.598853" lon="8.225270">
|
|
<ele>10.193923</ele>
|
|
<time>2026-07-11T11:36:15.000Z</time>
|
|
</trkpt>
|
|
<trkpt lat="55.598799" lon="8.225284">
|
|
<ele>10.199862</ele>
|
|
<time>2026-07-11T11:36:16.000Z</time>
|
|
</trkpt>
|
|
<trkpt lat="55.598742" lon="8.225299">
|
|
<ele>10.206133</ele>
|
|
<time>2026-07-11T11:36:17.000Z</time>
|
|
</trkpt>
|
|
<trkpt lat="55.598684" lon="8.225317">
|
|
<ele>10.212541</ele>
|
|
<time>2026-07-11T11:36:18.000Z</time>
|
|
</trkpt>
|
|
<trkpt lat="55.598627" lon="8.225338">
|
|
<ele>10.218877</ele>
|
|
<time>2026-07-11T11:36:19.000Z</time>
|
|
</trkpt>
|
|
<trkpt lat="55.598571" lon="8.225358">
|
|
<ele>10.225094</ele>
|
|
<time>2026-07-11T11:36:20.000Z</time>
|
|
</trkpt>
|
|
<trkpt lat="55.598513" lon="8.225377">
|
|
<ele>10.231512</ele>
|
|
<time>2026-07-11T11:36:21.000Z</time>
|
|
</trkpt>
|
|
<trkpt lat="55.598457" lon="8.225397">
|
|
<ele>10.237729</ele>
|
|
<time>2026-07-11T11:36:22.000Z</time>
|
|
</trkpt>
|
|
<trkpt lat="55.598404" lon="8.225415">
|
|
<ele>10.243602</ele>
|
|
<time>2026-07-11T11:36:23.000Z</time>
|
|
</trkpt>
|
|
<trkpt lat="55.598349" lon="8.225434">
|
|
<ele>10.249700</ele>
|
|
<time>2026-07-11T11:36:24.000Z</time>
|
|
</trkpt>
|
|
<trkpt lat="55.598291" lon="8.225453">
|
|
<ele>10.256119</ele>
|
|
<time>2026-07-11T11:36:25.000Z</time>
|
|
</trkpt>
|
|
<trkpt lat="55.598234" lon="8.225472">
|
|
<ele>10.262430</ele>
|
|
<time>2026-07-11T11:36:26.000Z</time>
|
|
</trkpt>
|
|
<trkpt lat="55.598178" lon="8.225490">
|
|
<ele>10.268624</ele>
|
|
<time>2026-07-11T11:36:27.000Z</time>
|
|
</trkpt>
|
|
<trkpt lat="55.598125" lon="8.225505">
|
|
<ele>10.274465</ele>
|
|
<time>2026-07-11T11:36:28.000Z</time>
|
|
</trkpt>
|
|
<trkpt lat="55.598070" lon="8.225520">
|
|
<ele>10.273007</ele>
|
|
<time>2026-07-11T11:36:29.000Z</time>
|
|
</trkpt>
|
|
<trkpt lat="55.598014" lon="8.225535">
|
|
<ele>10.267582</ele>
|
|
<time>2026-07-11T11:36:30.000Z</time>
|
|
</trkpt>
|
|
<trkpt lat="55.597961" lon="8.225551">
|
|
<ele>10.262433</ele>
|
|
<time>2026-07-11T11:36:31.000Z</time>
|
|
</trkpt>
|
|
<trkpt lat="55.597907" lon="8.225569">
|
|
<ele>10.257170</ele>
|
|
<time>2026-07-11T11:36:32.000Z</time>
|
|
</trkpt>
|
|
<trkpt lat="55.597852" lon="8.225589">
|
|
<ele>10.251792</ele>
|
|
<time>2026-07-11T11:36:33.000Z</time>
|
|
</trkpt>
|
|
<trkpt lat="55.597798" lon="8.225609">
|
|
<ele>10.246508</ele>
|
|
<time>2026-07-11T11:36:34.000Z</time>
|
|
</trkpt>
|
|
<trkpt lat="55.597743" lon="8.225627">
|
|
<ele>10.241151</ele>
|
|
<time>2026-07-11T11:36:35.000Z</time>
|
|
</trkpt>
|
|
<trkpt lat="55.597686" lon="8.225645">
|
|
<ele>10.235605</ele>
|
|
<time>2026-07-11T11:36:36.000Z</time>
|
|
</trkpt>
|
|
<trkpt lat="55.597633" lon="8.225666">
|
|
<ele>10.230403</ele>
|
|
<time>2026-07-11T11:36:37.000Z</time>
|
|
</trkpt>
|
|
<trkpt lat="55.597578" lon="8.225687">
|
|
<ele>10.225014</ele>
|
|
<time>2026-07-11T11:36:38.000Z</time>
|
|
</trkpt>
|
|
<trkpt lat="55.597523" lon="8.225706">
|
|
<ele>10.219647</ele>
|
|
<time>2026-07-11T11:36:39.000Z</time>
|
|
</trkpt>
|
|
<trkpt lat="55.597469" lon="8.225724">
|
|
<ele>10.214384</ele>
|
|
<time>2026-07-11T11:36:40.000Z</time>
|
|
</trkpt>
|
|
<trkpt lat="55.597413" lon="8.225742">
|
|
<ele>10.208932</ele>
|
|
<time>2026-07-11T11:36:41.000Z</time>
|
|
</trkpt>
|
|
<trkpt lat="55.597358" lon="8.225760">
|
|
<ele>10.203575</ele>
|
|
<time>2026-07-11T11:36:42.000Z</time>
|
|
</trkpt>
|
|
<trkpt lat="55.597304" lon="8.225778">
|
|
<ele>10.198312</ele>
|
|
<time>2026-07-11T11:36:43.000Z</time>
|
|
</trkpt>
|
|
<trkpt lat="55.597249" lon="8.225796">
|
|
<ele>10.192955</ele>
|
|
<time>2026-07-11T11:36:44.000Z</time>
|
|
</trkpt>
|
|
<trkpt lat="55.597192" lon="8.225813">
|
|
<ele>10.187418</ele>
|
|
<time>2026-07-11T11:36:45.000Z</time>
|
|
</trkpt>
|
|
<trkpt lat="55.597135" lon="8.225828">
|
|
<ele>10.181899</ele>
|
|
<time>2026-07-11T11:36:46.000Z</time>
|
|
</trkpt>
|
|
<trkpt lat="55.597077" lon="8.225844">
|
|
<ele>10.176277</ele>
|
|
<time>2026-07-11T11:36:47.000Z</time>
|
|
</trkpt>
|
|
<trkpt lat="55.597020" lon="8.225859">
|
|
<ele>10.170757</ele>
|
|
<time>2026-07-11T11:36:48.000Z</time>
|
|
</trkpt>
|
|
<trkpt lat="55.596963" lon="8.225875">
|
|
<ele>10.165230</ele>
|
|
<time>2026-07-11T11:36:49.000Z</time>
|
|
</trkpt>
|
|
<trkpt lat="55.596908" lon="8.225891">
|
|
<ele>10.159891</ele>
|
|
<time>2026-07-11T11:36:50.000Z</time>
|
|
</trkpt>
|
|
<trkpt lat="55.596853" lon="8.225907">
|
|
<ele>10.154552</ele>
|
|
<time>2026-07-11T11:36:51.000Z</time>
|
|
</trkpt>
|
|
<trkpt lat="55.596796" lon="8.225922">
|
|
<ele>10.149033</ele>
|
|
<time>2026-07-11T11:36:52.000Z</time>
|
|
</trkpt>
|
|
<trkpt lat="55.596741" lon="8.225936">
|
|
<ele>10.143711</ele>
|
|
<time>2026-07-11T11:36:53.000Z</time>
|
|
</trkpt>
|
|
<trkpt lat="55.596684" lon="8.225954">
|
|
<ele>10.138165</ele>
|
|
<time>2026-07-11T11:36:54.000Z</time>
|
|
</trkpt>
|
|
<trkpt lat="55.596627" lon="8.225972">
|
|
<ele>10.132620</ele>
|
|
<time>2026-07-11T11:36:55.000Z</time>
|
|
</trkpt>
|
|
<trkpt lat="55.596575" lon="8.225988">
|
|
<ele>10.127564</ele>
|
|
<time>2026-07-11T11:36:56.000Z</time>
|
|
</trkpt>
|
|
<trkpt lat="55.596525" lon="8.226005">
|
|
<ele>10.122688</ele>
|
|
<time>2026-07-11T11:36:57.000Z</time>
|
|
</trkpt>
|
|
<trkpt lat="55.596460" lon="8.226025">
|
|
<ele>10.116369</ele>
|
|
<time>2026-07-11T11:36:58.000Z</time>
|
|
</trkpt>
|
|
<trkpt lat="55.596403" lon="8.226042">
|
|
<ele>10.110832</ele>
|
|
<time>2026-07-11T11:36:59.000Z</time>
|
|
</trkpt>
|
|
<trkpt lat="55.596346" lon="8.226060">
|
|
<ele>10.105287</ele>
|
|
<time>2026-07-11T11:37:00.000Z</time>
|
|
</trkpt>
|
|
<trkpt lat="55.596288" lon="8.226079">
|
|
<ele>10.103104</ele>
|
|
<time>2026-07-11T11:37:01.000Z</time>
|
|
</trkpt>
|
|
<trkpt lat="55.596224" lon="8.226097">
|
|
<ele>10.101560</ele>
|
|
<time>2026-07-11T11:37:02.000Z</time>
|
|
</trkpt>
|
|
<trkpt lat="55.596152" lon="8.226112">
|
|
<ele>10.099833</ele>
|
|
<time>2026-07-11T11:37:03.000Z</time>
|
|
</trkpt>
|
|
<trkpt lat="55.596080" lon="8.226127">
|
|
<ele>10.098106</ele>
|
|
<time>2026-07-11T11:37:04.000Z</time>
|
|
</trkpt>
|
|
<trkpt lat="55.596016" lon="8.226144">
|
|
<ele>10.096565</ele>
|
|
<time>2026-07-11T11:37:05.000Z</time>
|
|
</trkpt>
|
|
<trkpt lat="55.595970" lon="8.226167">
|
|
<ele>10.095426</ele>
|
|
<time>2026-07-11T11:37:06.000Z</time>
|
|
</trkpt>
|
|
<trkpt lat="55.595913" lon="8.226194">
|
|
<ele>10.094020</ele>
|
|
<time>2026-07-11T11:37:07.000Z</time>
|
|
</trkpt>
|
|
<trkpt lat="55.595857" lon="8.226214">
|
|
<ele>10.092660</ele>
|
|
<time>2026-07-11T11:37:08.000Z</time>
|
|
</trkpt>
|
|
<trkpt lat="55.595805" lon="8.226224">
|
|
<ele>10.091414</ele>
|
|
<time>2026-07-11T11:37:09.000Z</time>
|
|
</trkpt>
|
|
<trkpt lat="55.595749" lon="8.226234">
|
|
<ele>10.090073</ele>
|
|
<time>2026-07-11T11:37:10.000Z</time>
|
|
</trkpt>
|
|
<trkpt lat="55.595683" lon="8.226249">
|
|
<ele>10.088488</ele>
|
|
<time>2026-07-11T11:37:11.000Z</time>
|
|
</trkpt>
|
|
<trkpt lat="55.595624" lon="8.226266">
|
|
<ele>10.087064</ele>
|
|
<time>2026-07-11T11:37:12.000Z</time>
|
|
</trkpt>
|
|
<trkpt lat="55.595561" lon="8.226288">
|
|
<ele>10.085534</ele>
|
|
<time>2026-07-11T11:37:13.000Z</time>
|
|
</trkpt>
|
|
<trkpt lat="55.595504" lon="8.226310">
|
|
<ele>10.084145</ele>
|
|
<time>2026-07-11T11:37:14.000Z</time>
|
|
</trkpt>
|
|
<trkpt lat="55.595448" lon="8.226331">
|
|
<ele>10.082781</ele>
|
|
<time>2026-07-11T11:37:15.000Z</time>
|
|
</trkpt>
|
|
<trkpt lat="55.595395" lon="8.226349">
|
|
<ele>10.081496</ele>
|
|
<time>2026-07-11T11:37:16.000Z</time>
|
|
</trkpt>
|
|
<trkpt lat="55.595346" lon="8.226364">
|
|
<ele>10.080311</ele>
|
|
<time>2026-07-11T11:37:17.000Z</time>
|
|
</trkpt>
|
|
<trkpt lat="55.595315" lon="8.226375">
|
|
<ele>10.079558</ele>
|
|
<time>2026-07-11T11:37:18.000Z</time>
|
|
</trkpt>
|
|
<trkpt lat="55.595249" lon="8.226395">
|
|
<ele>10.077963</ele>
|
|
<time>2026-07-11T11:37:19.000Z</time>
|
|
</trkpt>
|
|
<trkpt lat="55.595177" lon="8.226423">
|
|
<ele>10.076207</ele>
|
|
<time>2026-07-11T11:37:20.000Z</time>
|
|
</trkpt>
|
|
<trkpt lat="55.595118" lon="8.226446">
|
|
<ele>10.074768</ele>
|
|
<time>2026-07-11T11:37:21.000Z</time>
|
|
</trkpt>
|
|
<trkpt lat="55.595064" lon="8.226466">
|
|
<ele>10.073454</ele>
|
|
<time>2026-07-11T11:37:22.000Z</time>
|
|
</trkpt>
|
|
<trkpt lat="55.595012" lon="8.226481">
|
|
<ele>10.072199</ele>
|
|
<time>2026-07-11T11:37:23.000Z</time>
|
|
</trkpt>
|
|
<trkpt lat="55.594962" lon="8.226495">
|
|
<ele>10.070993</ele>
|
|
<time>2026-07-11T11:37:24.000Z</time>
|
|
</trkpt>
|
|
<trkpt lat="55.594920" lon="8.226505">
|
|
<ele>10.069984</ele>
|
|
<time>2026-07-11T11:37:25.000Z</time>
|
|
</trkpt>
|
|
<trkpt lat="55.594884" lon="8.226515">
|
|
<ele>10.069115</ele>
|
|
<time>2026-07-11T11:37:26.000Z</time>
|
|
</trkpt>
|
|
<trkpt lat="55.594823" lon="8.226533">
|
|
<ele>10.067642</ele>
|
|
<time>2026-07-11T11:37:27.000Z</time>
|
|
</trkpt>
|
|
<trkpt lat="55.594765" lon="8.226550">
|
|
<ele>10.066242</ele>
|
|
<time>2026-07-11T11:37:28.000Z</time>
|
|
</trkpt>
|
|
<trkpt lat="55.594717" lon="8.226562">
|
|
<ele>10.065087</ele>
|
|
<time>2026-07-11T11:37:29.000Z</time>
|
|
</trkpt>
|
|
<trkpt lat="55.594672" lon="8.226576">
|
|
<ele>10.063999</ele>
|
|
<time>2026-07-11T11:37:30.000Z</time>
|
|
</trkpt>
|
|
<trkpt lat="55.594628" lon="8.226590">
|
|
<ele>10.062934</ele>
|
|
<time>2026-07-11T11:37:31.000Z</time>
|
|
</trkpt>
|
|
<trkpt lat="55.594583" lon="8.226604">
|
|
<ele>10.061846</ele>
|
|
<time>2026-07-11T11:37:32.000Z</time>
|
|
</trkpt>
|
|
<trkpt lat="55.594543" lon="8.226617">
|
|
<ele>10.065371</ele>
|
|
<time>2026-07-11T11:37:33.000Z</time>
|
|
</trkpt>
|
|
<trkpt lat="55.594507" lon="8.226621">
|
|
<ele>10.071797</ele>
|
|
<time>2026-07-11T11:37:34.000Z</time>
|
|
</trkpt>
|
|
<trkpt lat="55.594485" lon="8.226618">
|
|
<ele>10.075729</ele>
|
|
<time>2026-07-11T11:37:35.000Z</time>
|
|
</trkpt>
|
|
<trkpt lat="55.594470" lon="8.226617">
|
|
<ele>10.078403</ele>
|
|
<time>2026-07-11T11:37:36.000Z</time>
|
|
</trkpt>
|
|
<trkpt lat="55.594316" lon="8.226698">
|
|
<ele>10.107025</ele>
|
|
<time>2026-07-11T11:40:08.000Z</time>
|
|
</trkpt>
|
|
<trkpt lat="55.594280" lon="8.226712">
|
|
<ele>10.113592</ele>
|
|
<time>2026-07-11T11:40:09.000Z</time>
|
|
</trkpt>
|
|
<trkpt lat="55.594246" lon="8.226725">
|
|
<ele>10.119789</ele>
|
|
<time>2026-07-11T11:40:10.000Z</time>
|
|
</trkpt>
|
|
<trkpt lat="55.594210" lon="8.226736">
|
|
<ele>10.126298</ele>
|
|
<time>2026-07-11T11:40:11.000Z</time>
|
|
</trkpt>
|
|
<trkpt lat="55.594173" lon="8.226746">
|
|
<ele>10.132966</ele>
|
|
<time>2026-07-11T11:40:12.000Z</time>
|
|
</trkpt>
|
|
<trkpt lat="55.594137" lon="8.226757">
|
|
<ele>10.139475</ele>
|
|
<time>2026-07-11T11:40:13.000Z</time>
|
|
</trkpt>
|
|
<trkpt lat="55.594097" lon="8.226770">
|
|
<ele>10.146720</ele>
|
|
<time>2026-07-11T11:40:14.000Z</time>
|
|
</trkpt>
|
|
<trkpt lat="55.594058" lon="8.226783">
|
|
<ele>10.153790</ele>
|
|
<time>2026-07-11T11:40:15.000Z</time>
|
|
</trkpt>
|
|
<trkpt lat="55.594018" lon="8.226796">
|
|
<ele>10.161036</ele>
|
|
<time>2026-07-11T11:40:16.000Z</time>
|
|
</trkpt>
|
|
<trkpt lat="55.593972" lon="8.226812">
|
|
<ele>10.169388</ele>
|
|
<time>2026-07-11T11:40:17.000Z</time>
|
|
</trkpt>
|
|
<trkpt lat="55.593930" lon="8.226826">
|
|
<ele>10.177002</ele>
|
|
<time>2026-07-11T11:40:18.000Z</time>
|
|
</trkpt>
|
|
<trkpt lat="55.593886" lon="8.226838">
|
|
<ele>10.184934</ele>
|
|
<time>2026-07-11T11:40:19.000Z</time>
|
|
</trkpt>
|
|
<trkpt lat="55.593840" lon="8.226848">
|
|
<ele>10.193191</ele>
|
|
<time>2026-07-11T11:40:20.000Z</time>
|
|
</trkpt>
|
|
<trkpt lat="55.593796" lon="8.226861">
|
|
<ele>10.201138</ele>
|
|
<time>2026-07-11T11:40:21.000Z</time>
|
|
</trkpt>
|
|
<trkpt lat="55.593752" lon="8.226875">
|
|
<ele>10.209103</ele>
|
|
<time>2026-07-11T11:40:22.000Z</time>
|
|
</trkpt>
|
|
<trkpt lat="55.593705" lon="8.226888">
|
|
<ele>10.217578</ele>
|
|
<time>2026-07-11T11:40:23.000Z</time>
|
|
</trkpt>
|
|
<trkpt lat="55.593657" lon="8.226901">
|
|
<ele>10.226229</ele>
|
|
<time>2026-07-11T11:40:24.000Z</time>
|
|
</trkpt>
|
|
<trkpt lat="55.593610" lon="8.226914">
|
|
<ele>10.234704</ele>
|
|
<time>2026-07-11T11:40:25.000Z</time>
|
|
</trkpt>
|
|
<trkpt lat="55.593558" lon="8.226926">
|
|
<ele>10.244047</ele>
|
|
<time>2026-07-11T11:40:26.000Z</time>
|
|
</trkpt>
|
|
<trkpt lat="55.593507" lon="8.226940">
|
|
<ele>10.253242</ele>
|
|
<time>2026-07-11T11:40:27.000Z</time>
|
|
</trkpt>
|
|
<trkpt lat="55.593457" lon="8.226955">
|
|
<ele>10.262277</ele>
|
|
<time>2026-07-11T11:40:28.000Z</time>
|
|
</trkpt>
|
|
<trkpt lat="55.593406" lon="8.226971">
|
|
<ele>10.271504</ele>
|
|
<time>2026-07-11T11:40:29.000Z</time>
|
|
</trkpt>
|
|
<trkpt lat="55.593355" lon="8.226987">
|
|
<ele>10.280732</ele>
|
|
<time>2026-07-11T11:40:30.000Z</time>
|
|
</trkpt>
|
|
<trkpt lat="55.593305" lon="8.227004">
|
|
<ele>10.289803</ele>
|
|
<time>2026-07-11T11:40:31.000Z</time>
|
|
</trkpt>
|
|
<trkpt lat="55.593254" lon="8.227021">
|
|
<ele>10.299049</ele>
|
|
<time>2026-07-11T11:40:32.000Z</time>
|
|
</trkpt>
|
|
<trkpt lat="55.593203" lon="8.227036">
|
|
<ele>10.308259</ele>
|
|
<time>2026-07-11T11:40:33.000Z</time>
|
|
</trkpt>
|
|
<trkpt lat="55.593151" lon="8.227051">
|
|
<ele>10.317646</ele>
|
|
<time>2026-07-11T11:40:34.000Z</time>
|
|
</trkpt>
|
|
<trkpt lat="55.593097" lon="8.227065">
|
|
<ele>10.327369</ele>
|
|
<time>2026-07-11T11:40:35.000Z</time>
|
|
</trkpt>
|
|
<trkpt lat="55.593042" lon="8.227078">
|
|
<ele>10.337255</ele>
|
|
<time>2026-07-11T11:40:36.000Z</time>
|
|
</trkpt>
|
|
<trkpt lat="55.592987" lon="8.227086">
|
|
<ele>10.347087</ele>
|
|
<time>2026-07-11T11:40:37.000Z</time>
|
|
</trkpt>
|
|
<trkpt lat="55.592932" lon="8.227092">
|
|
<ele>10.356904</ele>
|
|
<time>2026-07-11T11:40:38.000Z</time>
|
|
</trkpt>
|
|
<trkpt lat="55.592875" lon="8.227096">
|
|
<ele>10.367067</ele>
|
|
<time>2026-07-11T11:40:39.000Z</time>
|
|
</trkpt>
|
|
<trkpt lat="55.592817" lon="8.227101">
|
|
<ele>10.377412</ele>
|
|
<time>2026-07-11T11:40:40.000Z</time>
|
|
</trkpt>
|
|
<trkpt lat="55.592762" lon="8.227107">
|
|
<ele>10.384967</ele>
|
|
<time>2026-07-11T11:40:41.000Z</time>
|
|
</trkpt>
|
|
<trkpt lat="55.592706" lon="8.227113">
|
|
<ele>10.390757</ele>
|
|
<time>2026-07-11T11:40:42.000Z</time>
|
|
</trkpt>
|
|
<trkpt lat="55.592652" lon="8.227121">
|
|
<ele>10.396350</ele>
|
|
<time>2026-07-11T11:40:43.000Z</time>
|
|
</trkpt>
|
|
<trkpt lat="55.592601" lon="8.227130">
|
|
<ele>10.401639</ele>
|
|
<time>2026-07-11T11:40:44.000Z</time>
|
|
</trkpt>
|
|
<trkpt lat="55.592550" lon="8.227136">
|
|
<ele>10.406915</ele>
|
|
<time>2026-07-11T11:40:45.000Z</time>
|
|
</trkpt>
|
|
<trkpt lat="55.592498" lon="8.227135">
|
|
<ele>10.412282</ele>
|
|
<time>2026-07-11T11:40:46.000Z</time>
|
|
</trkpt>
|
|
<trkpt lat="55.592444" lon="8.227134">
|
|
<ele>10.417856</ele>
|
|
<time>2026-07-11T11:40:47.000Z</time>
|
|
</trkpt>
|
|
<trkpt lat="55.592387" lon="8.227133">
|
|
<ele>10.423739</ele>
|
|
<time>2026-07-11T11:40:48.000Z</time>
|
|
</trkpt>
|
|
<trkpt lat="55.592329" lon="8.227130">
|
|
<ele>10.429728</ele>
|
|
<time>2026-07-11T11:40:49.000Z</time>
|
|
</trkpt>
|
|
<trkpt lat="55.592272" lon="8.227125">
|
|
<ele>10.435618</ele>
|
|
<time>2026-07-11T11:40:50.000Z</time>
|
|
</trkpt>
|
|
<trkpt lat="55.592214" lon="8.227117">
|
|
<ele>10.441622</ele>
|
|
<time>2026-07-11T11:40:51.000Z</time>
|
|
</trkpt>
|
|
<trkpt lat="55.592157" lon="8.227107">
|
|
<ele>10.447534</ele>
|
|
<time>2026-07-11T11:40:52.000Z</time>
|
|
</trkpt>
|
|
<trkpt lat="55.592099" lon="8.227096">
|
|
<ele>10.453554</ele>
|
|
<time>2026-07-11T11:40:53.000Z</time>
|
|
</trkpt>
|
|
<trkpt lat="55.592040" lon="8.227085">
|
|
<ele>10.459677</ele>
|
|
<time>2026-07-11T11:40:54.000Z</time>
|
|
</trkpt>
|
|
<trkpt lat="55.591980" lon="8.227073">
|
|
<ele>10.465909</ele>
|
|
<time>2026-07-11T11:40:55.000Z</time>
|
|
</trkpt>
|
|
<trkpt lat="55.591921" lon="8.227059">
|
|
<ele>10.472053</ele>
|
|
<time>2026-07-11T11:40:56.000Z</time>
|
|
</trkpt>
|
|
<trkpt lat="55.591864" lon="8.227046">
|
|
<ele>10.477985</ele>
|
|
<time>2026-07-11T11:40:57.000Z</time>
|
|
</trkpt>
|
|
<trkpt lat="55.591805" lon="8.227033">
|
|
<ele>10.484121</ele>
|
|
<time>2026-07-11T11:40:58.000Z</time>
|
|
</trkpt>
|
|
<trkpt lat="55.591745" lon="8.227018">
|
|
<ele>10.490375</ele>
|
|
<time>2026-07-11T11:40:59.000Z</time>
|
|
</trkpt>
|
|
<trkpt lat="55.591688" lon="8.227001">
|
|
<ele>10.496341</ele>
|
|
<time>2026-07-11T11:41:00.000Z</time>
|
|
</trkpt>
|
|
<trkpt lat="55.591630" lon="8.226986">
|
|
<ele>10.502391</ele>
|
|
<time>2026-07-11T11:41:01.000Z</time>
|
|
</trkpt>
|
|
<trkpt lat="55.591571" lon="8.226972">
|
|
<ele>10.508535</ele>
|
|
<time>2026-07-11T11:41:02.000Z</time>
|
|
</trkpt>
|
|
<trkpt lat="55.591512" lon="8.226959">
|
|
<ele>10.514671</ele>
|
|
<time>2026-07-11T11:41:03.000Z</time>
|
|
</trkpt>
|
|
<trkpt lat="55.591457" lon="8.226945">
|
|
<ele>10.520406</ele>
|
|
<time>2026-07-11T11:41:04.000Z</time>
|
|
</trkpt>
|
|
<trkpt lat="55.591402" lon="8.226930">
|
|
<ele>10.526150</ele>
|
|
<time>2026-07-11T11:41:05.000Z</time>
|
|
</trkpt>
|
|
<trkpt lat="55.591346" lon="8.226917">
|
|
<ele>10.531979</ele>
|
|
<time>2026-07-11T11:41:06.000Z</time>
|
|
</trkpt>
|
|
<trkpt lat="55.591292" lon="8.226904">
|
|
<ele>10.537603</ele>
|
|
<time>2026-07-11T11:41:07.000Z</time>
|
|
</trkpt>
|
|
<trkpt lat="55.591239" lon="8.226890">
|
|
<ele>10.543134</ele>
|
|
<time>2026-07-11T11:41:08.000Z</time>
|
|
</trkpt>
|
|
<trkpt lat="55.591188" lon="8.226877">
|
|
<ele>10.548452</ele>
|
|
<time>2026-07-11T11:41:09.000Z</time>
|
|
</trkpt>
|
|
<trkpt lat="55.591136" lon="8.226863">
|
|
<ele>10.553881</ele>
|
|
<time>2026-07-11T11:41:10.000Z</time>
|
|
</trkpt>
|
|
<trkpt lat="55.591083" lon="8.226848">
|
|
<ele>10.559420</ele>
|
|
<time>2026-07-11T11:41:11.000Z</time>
|
|
</trkpt>
|
|
<trkpt lat="55.591030" lon="8.226830">
|
|
<ele>10.564990</ele>
|
|
<time>2026-07-11T11:41:12.000Z</time>
|
|
</trkpt>
|
|
<trkpt lat="55.590977" lon="8.226813">
|
|
<ele>10.573294</ele>
|
|
<time>2026-07-11T11:41:13.000Z</time>
|
|
</trkpt>
|
|
<trkpt lat="55.590922" lon="8.226797">
|
|
<ele>10.584201</ele>
|
|
<time>2026-07-11T11:41:14.000Z</time>
|
|
</trkpt>
|
|
<trkpt lat="55.590866" lon="8.226784">
|
|
<ele>10.595254</ele>
|
|
<time>2026-07-11T11:41:15.000Z</time>
|
|
</trkpt>
|
|
<trkpt lat="55.590813" lon="8.226772">
|
|
<ele>10.605710</ele>
|
|
<time>2026-07-11T11:41:16.000Z</time>
|
|
</trkpt>
|
|
<trkpt lat="55.590757" lon="8.226761">
|
|
<ele>10.616736</ele>
|
|
<time>2026-07-11T11:41:17.000Z</time>
|
|
</trkpt>
|
|
<trkpt lat="55.590702" lon="8.226751">
|
|
<ele>10.627556</ele>
|
|
<time>2026-07-11T11:41:18.000Z</time>
|
|
</trkpt>
|
|
<trkpt lat="55.590648" lon="8.226745">
|
|
<ele>10.638144</ele>
|
|
<time>2026-07-11T11:41:19.000Z</time>
|
|
</trkpt>
|
|
<trkpt lat="55.590595" lon="8.226741">
|
|
<ele>10.648525</ele>
|
|
<time>2026-07-11T11:41:20.000Z</time>
|
|
</trkpt>
|
|
<trkpt lat="55.590543" lon="8.226735">
|
|
<ele>10.658723</ele>
|
|
<time>2026-07-11T11:41:21.000Z</time>
|
|
</trkpt>
|
|
<trkpt lat="55.590492" lon="8.226731">
|
|
<ele>10.668713</ele>
|
|
<time>2026-07-11T11:41:22.000Z</time>
|
|
</trkpt>
|
|
<trkpt lat="55.590438" lon="8.226732">
|
|
<ele>10.679281</ele>
|
|
<time>2026-07-11T11:41:23.000Z</time>
|
|
</trkpt>
|
|
<trkpt lat="55.590385" lon="8.226735">
|
|
<ele>10.689658</ele>
|
|
<time>2026-07-11T11:41:24.000Z</time>
|
|
</trkpt>
|
|
<trkpt lat="55.590330" lon="8.226739">
|
|
<ele>10.700430</ele>
|
|
<time>2026-07-11T11:41:25.000Z</time>
|
|
</trkpt>
|
|
<trkpt lat="55.590271" lon="8.226742">
|
|
<ele>10.711980</ele>
|
|
<time>2026-07-11T11:41:26.000Z</time>
|
|
</trkpt>
|
|
<trkpt lat="55.590212" lon="8.226744">
|
|
<ele>10.723528</ele>
|
|
<time>2026-07-11T11:41:27.000Z</time>
|
|
</trkpt>
|
|
<trkpt lat="55.590155" lon="8.226747">
|
|
<ele>10.734688</ele>
|
|
<time>2026-07-11T11:41:28.000Z</time>
|
|
</trkpt>
|
|
<trkpt lat="55.590098" lon="8.226753">
|
|
<ele>10.745862</ele>
|
|
<time>2026-07-11T11:41:29.000Z</time>
|
|
</trkpt>
|
|
<trkpt lat="55.590041" lon="8.226760">
|
|
<ele>10.757043</ele>
|
|
<time>2026-07-11T11:41:30.000Z</time>
|
|
</trkpt>
|
|
<trkpt lat="55.589985" lon="8.226769">
|
|
<ele>10.768047</ele>
|
|
<time>2026-07-11T11:41:31.000Z</time>
|
|
</trkpt>
|
|
<trkpt lat="55.589930" lon="8.226779">
|
|
<ele>10.778867</ele>
|
|
<time>2026-07-11T11:41:32.000Z</time>
|
|
</trkpt>
|
|
<trkpt lat="55.589874" lon="8.226790">
|
|
<ele>10.789893</ele>
|
|
<time>2026-07-11T11:41:33.000Z</time>
|
|
</trkpt>
|
|
<trkpt lat="55.589818" lon="8.226805">
|
|
<ele>10.800976</ele>
|
|
<time>2026-07-11T11:41:34.000Z</time>
|
|
</trkpt>
|
|
<trkpt lat="55.589764" lon="8.226823">
|
|
<ele>10.811730</ele>
|
|
<time>2026-07-11T11:41:35.000Z</time>
|
|
</trkpt>
|
|
<trkpt lat="55.589710" lon="8.226841">
|
|
<ele>10.822483</ele>
|
|
<time>2026-07-11T11:41:36.000Z</time>
|
|
</trkpt>
|
|
<trkpt lat="55.589653" lon="8.226860">
|
|
<ele>10.833833</ele>
|
|
<time>2026-07-11T11:41:37.000Z</time>
|
|
</trkpt>
|
|
<trkpt lat="55.589594" lon="8.226881">
|
|
<ele>10.845610</ele>
|
|
<time>2026-07-11T11:41:38.000Z</time>
|
|
</trkpt>
|
|
<trkpt lat="55.589533" lon="8.226902">
|
|
<ele>10.857771</ele>
|
|
<time>2026-07-11T11:41:39.000Z</time>
|
|
</trkpt>
|
|
<trkpt lat="55.589471" lon="8.226924">
|
|
<ele>10.870146</ele>
|
|
<time>2026-07-11T11:41:40.000Z</time>
|
|
</trkpt>
|
|
<trkpt lat="55.589412" lon="8.226948">
|
|
<ele>10.881993</ele>
|
|
<time>2026-07-11T11:41:41.000Z</time>
|
|
</trkpt>
|
|
<trkpt lat="55.589351" lon="8.226974">
|
|
<ele>10.894272</ele>
|
|
<time>2026-07-11T11:41:42.000Z</time>
|
|
</trkpt>
|
|
<trkpt lat="55.589291" lon="8.227000">
|
|
<ele>10.906360</ele>
|
|
<time>2026-07-11T11:41:43.000Z</time>
|
|
</trkpt>
|
|
<trkpt lat="55.589230" lon="8.227025">
|
|
<ele>10.918613</ele>
|
|
<time>2026-07-11T11:41:44.000Z</time>
|
|
</trkpt>
|
|
<trkpt lat="55.589170" lon="8.227053">
|
|
<ele>10.905946</ele>
|
|
<time>2026-07-11T11:41:45.000Z</time>
|
|
</trkpt>
|
|
<trkpt lat="55.589112" lon="8.227082">
|
|
<ele>10.891818</ele>
|
|
<time>2026-07-11T11:41:46.000Z</time>
|
|
</trkpt>
|
|
<trkpt lat="55.589052" lon="8.227111">
|
|
<ele>10.877239</ele>
|
|
<time>2026-07-11T11:41:47.000Z</time>
|
|
</trkpt>
|
|
<trkpt lat="55.588991" lon="8.227142">
|
|
<ele>10.862363</ele>
|
|
<time>2026-07-11T11:41:48.000Z</time>
|
|
</trkpt>
|
|
<trkpt lat="55.588933" lon="8.227172">
|
|
<ele>10.848199</ele>
|
|
<time>2026-07-11T11:41:49.000Z</time>
|
|
</trkpt>
|
|
<trkpt lat="55.588875" lon="8.227204">
|
|
<ele>10.833959</ele>
|
|
<time>2026-07-11T11:41:50.000Z</time>
|
|
</trkpt>
|
|
<trkpt lat="55.588815" lon="8.227242">
|
|
<ele>10.819021</ele>
|
|
<time>2026-07-11T11:41:51.000Z</time>
|
|
</trkpt>
|
|
<trkpt lat="55.588756" lon="8.227281">
|
|
<ele>10.804258</ele>
|
|
<time>2026-07-11T11:41:52.000Z</time>
|
|
</trkpt>
|
|
<trkpt lat="55.588697" lon="8.227323">
|
|
<ele>10.789352</ele>
|
|
<time>2026-07-11T11:41:53.000Z</time>
|
|
</trkpt>
|
|
<trkpt lat="55.588638" lon="8.227370">
|
|
<ele>10.774186</ele>
|
|
<time>2026-07-11T11:41:54.000Z</time>
|
|
</trkpt>
|
|
<trkpt lat="55.588577" lon="8.227416">
|
|
<ele>10.758643</ele>
|
|
<time>2026-07-11T11:41:55.000Z</time>
|
|
</trkpt>
|
|
<trkpt lat="55.588518" lon="8.227459">
|
|
<ele>10.743687</ele>
|
|
<time>2026-07-11T11:41:56.000Z</time>
|
|
</trkpt>
|
|
<trkpt lat="55.588461" lon="8.227503">
|
|
<ele>10.729110</ele>
|
|
<time>2026-07-11T11:41:57.000Z</time>
|
|
</trkpt>
|
|
<trkpt lat="55.588404" lon="8.227550">
|
|
<ele>10.714370</ele>
|
|
<time>2026-07-11T11:41:58.000Z</time>
|
|
</trkpt>
|
|
<trkpt lat="55.588345" lon="8.227598">
|
|
<ele>10.699149</ele>
|
|
<time>2026-07-11T11:41:59.000Z</time>
|
|
</trkpt>
|
|
<trkpt lat="55.588287" lon="8.227646">
|
|
<ele>10.684140</ele>
|
|
<time>2026-07-11T11:42:00.000Z</time>
|
|
</trkpt>
|
|
<trkpt lat="55.588230" lon="8.227694">
|
|
<ele>10.669344</ele>
|
|
<time>2026-07-11T11:42:01.000Z</time>
|
|
</trkpt>
|
|
<trkpt lat="55.588171" lon="8.227741">
|
|
<ele>10.654178</ele>
|
|
<time>2026-07-11T11:42:02.000Z</time>
|
|
</trkpt>
|
|
<trkpt lat="55.588115" lon="8.227786">
|
|
<ele>10.639761</ele>
|
|
<time>2026-07-11T11:42:03.000Z</time>
|
|
</trkpt>
|
|
<trkpt lat="55.588060" lon="8.227827">
|
|
<ele>10.625772</ele>
|
|
<time>2026-07-11T11:42:04.000Z</time>
|
|
</trkpt>
|
|
<trkpt lat="55.588003" lon="8.227865">
|
|
<ele>10.611495</ele>
|
|
<time>2026-07-11T11:42:05.000Z</time>
|
|
</trkpt>
|
|
<trkpt lat="55.587947" lon="8.227908">
|
|
<ele>10.597186</ele>
|
|
<time>2026-07-11T11:42:06.000Z</time>
|
|
</trkpt>
|
|
<trkpt lat="55.587894" lon="8.227952">
|
|
<ele>10.583464</ele>
|
|
<time>2026-07-11T11:42:07.000Z</time>
|
|
</trkpt>
|
|
<trkpt lat="55.587839" lon="8.227996">
|
|
<ele>10.569315</ele>
|
|
<time>2026-07-11T11:42:08.000Z</time>
|
|
</trkpt>
|
|
<trkpt lat="55.587783" lon="8.228039">
|
|
<ele>10.555006</ele>
|
|
<time>2026-07-11T11:42:09.000Z</time>
|
|
</trkpt>
|
|
<trkpt lat="55.587728" lon="8.228083">
|
|
<ele>10.540858</ele>
|
|
<time>2026-07-11T11:42:10.000Z</time>
|
|
</trkpt>
|
|
<trkpt lat="55.587673" lon="8.228128">
|
|
<ele>10.526655</ele>
|
|
<time>2026-07-11T11:42:11.000Z</time>
|
|
</trkpt>
|
|
<trkpt lat="55.587620" lon="8.228173">
|
|
<ele>10.512876</ele>
|
|
<time>2026-07-11T11:42:12.000Z</time>
|
|
</trkpt>
|
|
<trkpt lat="55.587566" lon="8.228221">
|
|
<ele>10.498711</ele>
|
|
<time>2026-07-11T11:42:13.000Z</time>
|
|
</trkpt>
|
|
<trkpt lat="55.587512" lon="8.228269">
|
|
<ele>10.491392</ele>
|
|
<time>2026-07-11T11:42:14.000Z</time>
|
|
</trkpt>
|
|
<trkpt lat="55.587457" lon="8.228316">
|
|
<ele>10.484430</ele>
|
|
<time>2026-07-11T11:42:15.000Z</time>
|
|
</trkpt>
|
|
<trkpt lat="55.587398" lon="8.228362">
|
|
<ele>10.477081</ele>
|
|
<time>2026-07-11T11:42:16.000Z</time>
|
|
</trkpt>
|
|
<trkpt lat="55.587337" lon="8.228408">
|
|
<ele>10.469523</ele>
|
|
<time>2026-07-11T11:42:17.000Z</time>
|
|
</trkpt>
|
|
<trkpt lat="55.587280" lon="8.228455">
|
|
<ele>10.462356</ele>
|
|
<time>2026-07-11T11:42:18.000Z</time>
|
|
</trkpt>
|
|
<trkpt lat="55.587227" lon="8.228503">
|
|
<ele>10.455570</ele>
|
|
<time>2026-07-11T11:42:19.000Z</time>
|
|
</trkpt>
|
|
<trkpt lat="55.587172" lon="8.228546">
|
|
<ele>10.448716</ele>
|
|
<time>2026-07-11T11:42:20.000Z</time>
|
|
</trkpt>
|
|
<trkpt lat="55.587116" lon="8.228588">
|
|
<ele>10.441783</ele>
|
|
<time>2026-07-11T11:42:21.000Z</time>
|
|
</trkpt>
|
|
<trkpt lat="55.587060" lon="8.228628">
|
|
<ele>10.434900</ele>
|
|
<time>2026-07-11T11:42:22.000Z</time>
|
|
</trkpt>
|
|
<trkpt lat="55.587004" lon="8.228669">
|
|
<ele>10.427993</ele>
|
|
<time>2026-07-11T11:42:23.000Z</time>
|
|
</trkpt>
|
|
<trkpt lat="55.586946" lon="8.228710">
|
|
<ele>10.420874</ele>
|
|
<time>2026-07-11T11:42:24.000Z</time>
|
|
</trkpt>
|
|
<trkpt lat="55.586886" lon="8.228752">
|
|
<ele>10.413519</ele>
|
|
<time>2026-07-11T11:42:25.000Z</time>
|
|
</trkpt>
|
|
<trkpt lat="55.586827" lon="8.228798">
|
|
<ele>10.406171</ele>
|
|
<time>2026-07-11T11:42:26.000Z</time>
|
|
</trkpt>
|
|
<trkpt lat="55.586765" lon="8.228843">
|
|
<ele>10.398532</ele>
|
|
<time>2026-07-11T11:42:27.000Z</time>
|
|
</trkpt>
|
|
<trkpt lat="55.586704" lon="8.228886">
|
|
<ele>10.391048</ele>
|
|
<time>2026-07-11T11:42:28.000Z</time>
|
|
</trkpt>
|
|
<trkpt lat="55.586645" lon="8.228928">
|
|
<ele>10.383800</ele>
|
|
<time>2026-07-11T11:42:29.000Z</time>
|
|
</trkpt>
|
|
<trkpt lat="55.586588" lon="8.228969">
|
|
<ele>10.376786</ele>
|
|
<time>2026-07-11T11:42:30.000Z</time>
|
|
</trkpt>
|
|
<trkpt lat="55.586530" lon="8.229008">
|
|
<ele>10.369714</ele>
|
|
<time>2026-07-11T11:42:31.000Z</time>
|
|
</trkpt>
|
|
<trkpt lat="55.586473" lon="8.229050">
|
|
<ele>10.362677</ele>
|
|
<time>2026-07-11T11:42:32.000Z</time>
|
|
</trkpt>
|
|
<trkpt lat="55.586416" lon="8.229095">
|
|
<ele>10.355563</ele>
|
|
<time>2026-07-11T11:42:33.000Z</time>
|
|
</trkpt>
|
|
<trkpt lat="55.586361" lon="8.229140">
|
|
<ele>10.348656</ele>
|
|
<time>2026-07-11T11:42:34.000Z</time>
|
|
</trkpt>
|
|
<trkpt lat="55.586307" lon="8.229186">
|
|
<ele>10.341825</ele>
|
|
<time>2026-07-11T11:42:35.000Z</time>
|
|
</trkpt>
|
|
<trkpt lat="55.586253" lon="8.229230">
|
|
<ele>10.335049</ele>
|
|
<time>2026-07-11T11:42:36.000Z</time>
|
|
</trkpt>
|
|
<trkpt lat="55.586198" lon="8.229273">
|
|
<ele>10.328195</ele>
|
|
<time>2026-07-11T11:42:37.000Z</time>
|
|
</trkpt>
|
|
<trkpt lat="55.586140" lon="8.229316">
|
|
<ele>10.321027</ele>
|
|
<time>2026-07-11T11:42:38.000Z</time>
|
|
</trkpt>
|
|
<trkpt lat="55.586081" lon="8.229361">
|
|
<ele>10.313705</ele>
|
|
<time>2026-07-11T11:42:39.000Z</time>
|
|
</trkpt>
|
|
<trkpt lat="55.586024" lon="8.229406">
|
|
<ele>10.306590</ele>
|
|
<time>2026-07-11T11:42:40.000Z</time>
|
|
</trkpt>
|
|
<trkpt lat="55.585964" lon="8.229449">
|
|
<ele>10.299212</ele>
|
|
<time>2026-07-11T11:42:41.000Z</time>
|
|
</trkpt>
|
|
<trkpt lat="55.585905" lon="8.229487">
|
|
<ele>10.292390</ele>
|
|
<time>2026-07-11T11:42:42.000Z</time>
|
|
</trkpt>
|
|
<trkpt lat="55.585846" lon="8.229524">
|
|
<ele>10.288214</ele>
|
|
<time>2026-07-11T11:42:43.000Z</time>
|
|
</trkpt>
|
|
<trkpt lat="55.585783" lon="8.229560">
|
|
<ele>10.283797</ele>
|
|
<time>2026-07-11T11:42:44.000Z</time>
|
|
</trkpt>
|
|
<trkpt lat="55.585720" lon="8.229595">
|
|
<ele>10.279392</ele>
|
|
<time>2026-07-11T11:42:45.000Z</time>
|
|
</trkpt>
|
|
<trkpt lat="55.585659" lon="8.229627">
|
|
<ele>10.275147</ele>
|
|
<time>2026-07-11T11:42:46.000Z</time>
|
|
</trkpt>
|
|
<trkpt lat="55.585598" lon="8.229660">
|
|
<ele>10.270892</ele>
|
|
<time>2026-07-11T11:42:47.000Z</time>
|
|
</trkpt>
|
|
<trkpt lat="55.585537" lon="8.229695">
|
|
<ele>10.266614</ele>
|
|
<time>2026-07-11T11:42:48.000Z</time>
|
|
</trkpt>
|
|
<trkpt lat="55.585476" lon="8.229727">
|
|
<ele>10.262369</ele>
|
|
<time>2026-07-11T11:42:49.000Z</time>
|
|
</trkpt>
|
|
<trkpt lat="55.585413" lon="8.229757">
|
|
<ele>10.258017</ele>
|
|
<time>2026-07-11T11:42:50.000Z</time>
|
|
</trkpt>
|
|
<trkpt lat="55.585352" lon="8.229782">
|
|
<ele>10.253839</ele>
|
|
<time>2026-07-11T11:42:51.000Z</time>
|
|
</trkpt>
|
|
<trkpt lat="55.585293" lon="8.229808">
|
|
<ele>10.249783</ele>
|
|
<time>2026-07-11T11:42:52.000Z</time>
|
|
</trkpt>
|
|
<trkpt lat="55.585235" lon="8.229836">
|
|
<ele>10.245772</ele>
|
|
<time>2026-07-11T11:42:53.000Z</time>
|
|
</trkpt>
|
|
<trkpt lat="55.585178" lon="8.229865">
|
|
<ele>10.241815</ele>
|
|
<time>2026-07-11T11:42:54.000Z</time>
|
|
</trkpt>
|
|
<trkpt lat="55.585117" lon="8.229888">
|
|
<ele>10.237654</ele>
|
|
<time>2026-07-11T11:42:55.000Z</time>
|
|
</trkpt>
|
|
<trkpt lat="55.585055" lon="8.229909">
|
|
<ele>10.233443</ele>
|
|
<time>2026-07-11T11:42:56.000Z</time>
|
|
</trkpt>
|
|
<trkpt lat="55.584990" lon="8.229929">
|
|
<ele>10.229041</ele>
|
|
<time>2026-07-11T11:42:57.000Z</time>
|
|
</trkpt>
|
|
<trkpt lat="55.584926" lon="8.229949">
|
|
<ele>10.224706</ele>
|
|
<time>2026-07-11T11:42:58.000Z</time>
|
|
</trkpt>
|
|
<trkpt lat="55.584865" lon="8.229966">
|
|
<ele>10.220586</ele>
|
|
<time>2026-07-11T11:42:59.000Z</time>
|
|
</trkpt>
|
|
<trkpt lat="55.584804" lon="8.229982">
|
|
<ele>10.216472</ele>
|
|
<time>2026-07-11T11:43:00.000Z</time>
|
|
</trkpt>
|
|
<trkpt lat="55.584743" lon="8.229997">
|
|
<ele>10.212363</ele>
|
|
<time>2026-07-11T11:43:01.000Z</time>
|
|
</trkpt>
|
|
<trkpt lat="55.584682" lon="8.230009">
|
|
<ele>10.208269</ele>
|
|
<time>2026-07-11T11:43:02.000Z</time>
|
|
</trkpt>
|
|
<trkpt lat="55.584623" lon="8.230020">
|
|
<ele>10.204311</ele>
|
|
<time>2026-07-11T11:43:03.000Z</time>
|
|
</trkpt>
|
|
<trkpt lat="55.584564" lon="8.230031">
|
|
<ele>10.200353</ele>
|
|
<time>2026-07-11T11:43:04.000Z</time>
|
|
</trkpt>
|
|
<trkpt lat="55.584504" lon="8.230040">
|
|
<ele>10.196336</ele>
|
|
<time>2026-07-11T11:43:05.000Z</time>
|
|
</trkpt>
|
|
<trkpt lat="55.584446" lon="8.230048">
|
|
<ele>10.192454</ele>
|
|
<time>2026-07-11T11:43:06.000Z</time>
|
|
</trkpt>
|
|
<trkpt lat="55.584386" lon="8.230058">
|
|
<ele>10.188434</ele>
|
|
<time>2026-07-11T11:43:07.000Z</time>
|
|
</trkpt>
|
|
<trkpt lat="55.584328" lon="8.230065">
|
|
<ele>10.184555</ele>
|
|
<time>2026-07-11T11:43:08.000Z</time>
|
|
</trkpt>
|
|
<trkpt lat="55.584268" lon="8.230070">
|
|
<ele>10.180548</ele>
|
|
<time>2026-07-11T11:43:09.000Z</time>
|
|
</trkpt>
|
|
<trkpt lat="55.584211" lon="8.230075">
|
|
<ele>10.176741</ele>
|
|
<time>2026-07-11T11:43:10.000Z</time>
|
|
</trkpt>
|
|
<trkpt lat="55.584152" lon="8.230079">
|
|
<ele>10.172901</ele>
|
|
<time>2026-07-11T11:43:11.000Z</time>
|
|
</trkpt>
|
|
<trkpt lat="55.584093" lon="8.230081">
|
|
<ele>10.174901</ele>
|
|
<time>2026-07-11T11:43:12.000Z</time>
|
|
</trkpt>
|
|
<trkpt lat="55.584035" lon="8.230085">
|
|
<ele>10.176868</ele>
|
|
<time>2026-07-11T11:43:13.000Z</time>
|
|
</trkpt>
|
|
<trkpt lat="55.583976" lon="8.230087">
|
|
<ele>10.178868</ele>
|
|
<time>2026-07-11T11:43:14.000Z</time>
|
|
</trkpt>
|
|
<trkpt lat="55.583918" lon="8.230088">
|
|
<ele>10.180834</ele>
|
|
<time>2026-07-11T11:43:15.000Z</time>
|
|
</trkpt>
|
|
<trkpt lat="55.583861" lon="8.230086">
|
|
<ele>10.182766</ele>
|
|
<time>2026-07-11T11:43:16.000Z</time>
|
|
</trkpt>
|
|
<trkpt lat="55.583803" lon="8.230081">
|
|
<ele>10.184734</ele>
|
|
<time>2026-07-11T11:43:17.000Z</time>
|
|
</trkpt>
|
|
<trkpt lat="55.583745" lon="8.230074">
|
|
<ele>10.186704</ele>
|
|
<time>2026-07-11T11:43:18.000Z</time>
|
|
</trkpt>
|
|
<trkpt lat="55.583685" lon="8.230069">
|
|
<ele>10.188740</ele>
|
|
<time>2026-07-11T11:43:19.000Z</time>
|
|
</trkpt>
|
|
<trkpt lat="55.583622" lon="8.230066">
|
|
<ele>10.190876</ele>
|
|
<time>2026-07-11T11:43:20.000Z</time>
|
|
</trkpt>
|
|
<trkpt lat="55.583558" lon="8.230062">
|
|
<ele>10.193046</ele>
|
|
<time>2026-07-11T11:43:21.000Z</time>
|
|
</trkpt>
|
|
<trkpt lat="55.583496" lon="8.230058">
|
|
<ele>10.195149</ele>
|
|
<time>2026-07-11T11:43:22.000Z</time>
|
|
</trkpt>
|
|
<trkpt lat="55.583433" lon="8.230055">
|
|
<ele>10.197285</ele>
|
|
<time>2026-07-11T11:43:23.000Z</time>
|
|
</trkpt>
|
|
<trkpt lat="55.583369" lon="8.230057">
|
|
<ele>10.199454</ele>
|
|
<time>2026-07-11T11:43:24.000Z</time>
|
|
</trkpt>
|
|
<trkpt lat="55.583309" lon="8.230064">
|
|
<ele>10.201492</ele>
|
|
<time>2026-07-11T11:43:25.000Z</time>
|
|
</trkpt>
|
|
<trkpt lat="55.583247" lon="8.230075">
|
|
<ele>10.203604</ele>
|
|
<time>2026-07-11T11:43:26.000Z</time>
|
|
</trkpt>
|
|
<trkpt lat="55.583185" lon="8.230086">
|
|
<ele>10.205715</ele>
|
|
<time>2026-07-11T11:43:27.000Z</time>
|
|
</trkpt>
|
|
<trkpt lat="55.583120" lon="8.230095">
|
|
<ele>10.207925</ele>
|
|
<time>2026-07-11T11:43:28.000Z</time>
|
|
</trkpt>
|
|
<trkpt lat="55.583056" lon="8.230097">
|
|
<ele>10.210094</ele>
|
|
<time>2026-07-11T11:43:29.000Z</time>
|
|
</trkpt>
|
|
<trkpt lat="55.582991" lon="8.230093">
|
|
<ele>10.212298</ele>
|
|
<time>2026-07-11T11:43:30.000Z</time>
|
|
</trkpt>
|
|
<trkpt lat="55.582924" lon="8.230086">
|
|
<ele>10.214573</ele>
|
|
<time>2026-07-11T11:43:31.000Z</time>
|
|
</trkpt>
|
|
<trkpt lat="55.582857" lon="8.230079">
|
|
<ele>10.216848</ele>
|
|
<time>2026-07-11T11:43:32.000Z</time>
|
|
</trkpt>
|
|
<trkpt lat="55.582791" lon="8.230073">
|
|
<ele>10.219087</ele>
|
|
<time>2026-07-11T11:43:33.000Z</time>
|
|
</trkpt>
|
|
<trkpt lat="55.582724" lon="8.230068">
|
|
<ele>10.221360</ele>
|
|
<time>2026-07-11T11:43:34.000Z</time>
|
|
</trkpt>
|
|
<trkpt lat="55.582658" lon="8.230063">
|
|
<ele>10.223599</ele>
|
|
<time>2026-07-11T11:43:35.000Z</time>
|
|
</trkpt>
|
|
<trkpt lat="55.582590" lon="8.230057">
|
|
<ele>10.225906</ele>
|
|
<time>2026-07-11T11:43:36.000Z</time>
|
|
</trkpt>
|
|
<trkpt lat="55.582525" lon="8.230050">
|
|
<ele>10.228113</ele>
|
|
<time>2026-07-11T11:43:37.000Z</time>
|
|
</trkpt>
|
|
<trkpt lat="55.582459" lon="8.230044">
|
|
<ele>10.230353</ele>
|
|
<time>2026-07-11T11:43:38.000Z</time>
|
|
</trkpt>
|
|
<trkpt lat="55.582392" lon="8.230039">
|
|
<ele>10.232626</ele>
|
|
<time>2026-07-11T11:43:39.000Z</time>
|
|
</trkpt>
|
|
<trkpt lat="55.582328" lon="8.230035">
|
|
<ele>10.240925</ele>
|
|
<time>2026-07-11T11:43:40.000Z</time>
|
|
</trkpt>
|
|
<trkpt lat="55.582264" lon="8.230032">
|
|
<ele>10.256784</ele>
|
|
<time>2026-07-11T11:43:41.000Z</time>
|
|
</trkpt>
|
|
<trkpt lat="55.582201" lon="8.230028">
|
|
<ele>10.272400</ele>
|
|
<time>2026-07-11T11:43:42.000Z</time>
|
|
</trkpt>
|
|
<trkpt lat="55.582138" lon="8.230024">
|
|
<ele>10.288016</ele>
|
|
<time>2026-07-11T11:43:43.000Z</time>
|
|
</trkpt>
|
|
<trkpt lat="55.582079" lon="8.230019">
|
|
<ele>10.302647</ele>
|
|
<time>2026-07-11T11:43:44.000Z</time>
|
|
</trkpt>
|
|
<trkpt lat="55.582021" lon="8.230015">
|
|
<ele>10.317026</ele>
|
|
<time>2026-07-11T11:43:45.000Z</time>
|
|
</trkpt>
|
|
<trkpt lat="55.581958" lon="8.230009">
|
|
<ele>10.332654</ele>
|
|
<time>2026-07-11T11:43:46.000Z</time>
|
|
</trkpt>
|
|
<trkpt lat="55.581899" lon="8.230001">
|
|
<ele>10.347312</ele>
|
|
<time>2026-07-11T11:43:47.000Z</time>
|
|
</trkpt>
|
|
<trkpt lat="55.581842" lon="8.229991">
|
|
<ele>10.361500</ele>
|
|
<time>2026-07-11T11:43:48.000Z</time>
|
|
</trkpt>
|
|
<trkpt lat="55.581786" lon="8.229983">
|
|
<ele>10.375417</ele>
|
|
<time>2026-07-11T11:43:49.000Z</time>
|
|
</trkpt>
|
|
<trkpt lat="55.581731" lon="8.229976">
|
|
<ele>10.389077</ele>
|
|
<time>2026-07-11T11:43:50.000Z</time>
|
|
</trkpt>
|
|
<trkpt lat="55.581676" lon="8.229971">
|
|
<ele>10.402719</ele>
|
|
<time>2026-07-11T11:43:51.000Z</time>
|
|
</trkpt>
|
|
<trkpt lat="55.581622" lon="8.229962">
|
|
<ele>10.416154</ele>
|
|
<time>2026-07-11T11:43:52.000Z</time>
|
|
</trkpt>
|
|
<trkpt lat="55.581566" lon="8.229952">
|
|
<ele>10.430096</ele>
|
|
<time>2026-07-11T11:43:53.000Z</time>
|
|
</trkpt>
|
|
<trkpt lat="55.581507" lon="8.229940">
|
|
<ele>10.444808</ele>
|
|
<time>2026-07-11T11:43:54.000Z</time>
|
|
</trkpt>
|
|
<trkpt lat="55.581448" lon="8.229927">
|
|
<ele>10.459535</ele>
|
|
<time>2026-07-11T11:43:55.000Z</time>
|
|
</trkpt>
|
|
<trkpt lat="55.581385" lon="8.229911">
|
|
<ele>10.475301</ele>
|
|
<time>2026-07-11T11:43:56.000Z</time>
|
|
</trkpt>
|
|
<trkpt lat="55.581322" lon="8.229894">
|
|
<ele>10.491087</ele>
|
|
<time>2026-07-11T11:43:57.000Z</time>
|
|
</trkpt>
|
|
<trkpt lat="55.581259" lon="8.229879">
|
|
<ele>10.506834</ele>
|
|
<time>2026-07-11T11:43:58.000Z</time>
|
|
</trkpt>
|
|
<trkpt lat="55.581194" lon="8.229867">
|
|
<ele>10.523022</ele>
|
|
<time>2026-07-11T11:43:59.000Z</time>
|
|
</trkpt>
|
|
<trkpt lat="55.581131" lon="8.229854">
|
|
<ele>10.538734</ele>
|
|
<time>2026-07-11T11:44:00.000Z</time>
|
|
</trkpt>
|
|
<trkpt lat="55.581068" lon="8.229842">
|
|
<ele>10.554430</ele>
|
|
<time>2026-07-11T11:44:01.000Z</time>
|
|
</trkpt>
|
|
<trkpt lat="55.581008" lon="8.229833">
|
|
<ele>10.569346</ele>
|
|
<time>2026-07-11T11:44:02.000Z</time>
|
|
</trkpt>
|
|
<trkpt lat="55.580953" lon="8.229822">
|
|
<ele>10.583057</ele>
|
|
<time>2026-07-11T11:44:03.000Z</time>
|
|
</trkpt>
|
|
<trkpt lat="55.580897" lon="8.229805">
|
|
<ele>10.597131</ele>
|
|
<time>2026-07-11T11:44:04.000Z</time>
|
|
</trkpt>
|
|
<trkpt lat="55.580844" lon="8.229787">
|
|
<ele>10.610499</ele>
|
|
<time>2026-07-11T11:44:05.000Z</time>
|
|
</trkpt>
|
|
<trkpt lat="55.580789" lon="8.229767">
|
|
<ele>10.624408</ele>
|
|
<time>2026-07-11T11:44:06.000Z</time>
|
|
</trkpt>
|
|
<trkpt lat="55.580732" lon="8.229747">
|
|
<ele>10.638803</ele>
|
|
<time>2026-07-11T11:44:07.000Z</time>
|
|
</trkpt>
|
|
<trkpt lat="55.580673" lon="8.229724">
|
|
<ele>10.653768</ele>
|
|
<time>2026-07-11T11:44:08.000Z</time>
|
|
</trkpt>
|
|
<trkpt lat="55.580614" lon="8.229699">
|
|
<ele>10.668797</ele>
|
|
<time>2026-07-11T11:44:09.000Z</time>
|
|
</trkpt>
|
|
<trkpt lat="55.580555" lon="8.229674">
|
|
<ele>10.678550</ele>
|
|
<time>2026-07-11T11:44:10.000Z</time>
|
|
</trkpt>
|
|
<trkpt lat="55.580496" lon="8.229651">
|
|
<ele>10.675807</ele>
|
|
<time>2026-07-11T11:44:11.000Z</time>
|
|
</trkpt>
|
|
<trkpt lat="55.580436" lon="8.229630">
|
|
<ele>10.673030</ele>
|
|
<time>2026-07-11T11:44:12.000Z</time>
|
|
</trkpt>
|
|
<trkpt lat="55.580372" lon="8.229612">
|
|
<ele>10.670088</ele>
|
|
<time>2026-07-11T11:44:13.000Z</time>
|
|
</trkpt>
|
|
<trkpt lat="55.580309" lon="8.229592">
|
|
<ele>10.667182</ele>
|
|
<time>2026-07-11T11:44:14.000Z</time>
|
|
</trkpt>
|
|
<trkpt lat="55.580244" lon="8.229567">
|
|
<ele>10.664162</ele>
|
|
<time>2026-07-11T11:44:15.000Z</time>
|
|
</trkpt>
|
|
<trkpt lat="55.580179" lon="8.229542">
|
|
<ele>10.661142</ele>
|
|
<time>2026-07-11T11:44:16.000Z</time>
|
|
</trkpt>
|
|
<trkpt lat="55.580113" lon="8.229518">
|
|
<ele>10.658083</ele>
|
|
<time>2026-07-11T11:44:17.000Z</time>
|
|
</trkpt>
|
|
<trkpt lat="55.580046" lon="8.229492">
|
|
<ele>10.654969</ele>
|
|
<time>2026-07-11T11:44:18.000Z</time>
|
|
</trkpt>
|
|
<trkpt lat="55.579981" lon="8.229467">
|
|
<ele>10.651949</ele>
|
|
<time>2026-07-11T11:44:19.000Z</time>
|
|
</trkpt>
|
|
<trkpt lat="55.579916" lon="8.229442">
|
|
<ele>10.648929</ele>
|
|
<time>2026-07-11T11:44:20.000Z</time>
|
|
</trkpt>
|
|
<trkpt lat="55.579851" lon="8.229418">
|
|
<ele>10.645914</ele>
|
|
<time>2026-07-11T11:44:21.000Z</time>
|
|
</trkpt>
|
|
<trkpt lat="55.579786" lon="8.229394">
|
|
<ele>10.642900</ele>
|
|
<time>2026-07-11T11:44:22.000Z</time>
|
|
</trkpt>
|
|
<trkpt lat="55.579724" lon="8.229371">
|
|
<ele>10.640024</ele>
|
|
<time>2026-07-11T11:44:23.000Z</time>
|
|
</trkpt>
|
|
<trkpt lat="55.579664" lon="8.229349">
|
|
<ele>10.637242</ele>
|
|
<time>2026-07-11T11:44:24.000Z</time>
|
|
</trkpt>
|
|
<trkpt lat="55.579600" lon="8.229325">
|
|
<ele>10.634272</ele>
|
|
<time>2026-07-11T11:44:25.000Z</time>
|
|
</trkpt>
|
|
<trkpt lat="55.579536" lon="8.229300">
|
|
<ele>10.631296</ele>
|
|
<time>2026-07-11T11:44:26.000Z</time>
|
|
</trkpt>
|
|
<trkpt lat="55.579475" lon="8.229275">
|
|
<ele>10.628453</ele>
|
|
<time>2026-07-11T11:44:27.000Z</time>
|
|
</trkpt>
|
|
<trkpt lat="55.579414" lon="8.229252">
|
|
<ele>10.625622</ele>
|
|
<time>2026-07-11T11:44:28.000Z</time>
|
|
</trkpt>
|
|
<trkpt lat="55.579353" lon="8.229232">
|
|
<ele>10.622805</ele>
|
|
<time>2026-07-11T11:44:29.000Z</time>
|
|
</trkpt>
|
|
<trkpt lat="55.579293" lon="8.229210">
|
|
<ele>10.620023</ele>
|
|
<time>2026-07-11T11:44:30.000Z</time>
|
|
</trkpt>
|
|
<trkpt lat="55.579238" lon="8.229185">
|
|
<ele>10.617445</ele>
|
|
<time>2026-07-11T11:44:31.000Z</time>
|
|
</trkpt>
|
|
<trkpt lat="55.579188" lon="8.229160">
|
|
<ele>10.615086</ele>
|
|
<time>2026-07-11T11:44:32.000Z</time>
|
|
</trkpt>
|
|
<trkpt lat="55.579139" lon="8.229135">
|
|
<ele>10.612771</ele>
|
|
<time>2026-07-11T11:44:33.000Z</time>
|
|
</trkpt>
|
|
<trkpt lat="55.579075" lon="8.229104">
|
|
<ele>10.609759</ele>
|
|
<time>2026-07-11T11:44:34.000Z</time>
|
|
</trkpt>
|
|
<trkpt lat="55.579019" lon="8.229077">
|
|
<ele>10.607123</ele>
|
|
<time>2026-07-11T11:44:35.000Z</time>
|
|
</trkpt>
|
|
<trkpt lat="55.578965" lon="8.229049">
|
|
<ele>10.604569</ele>
|
|
<time>2026-07-11T11:44:36.000Z</time>
|
|
</trkpt>
|
|
<trkpt lat="55.578915" lon="8.229020">
|
|
<ele>10.602180</ele>
|
|
<time>2026-07-11T11:44:37.000Z</time>
|
|
</trkpt>
|
|
<trkpt lat="55.578864" lon="8.228988">
|
|
<ele>10.599723</ele>
|
|
<time>2026-07-11T11:44:38.000Z</time>
|
|
</trkpt>
|
|
<trkpt lat="55.578811" lon="8.228957">
|
|
<ele>10.596675</ele>
|
|
<time>2026-07-11T11:44:39.000Z</time>
|
|
</trkpt>
|
|
<trkpt lat="55.578757" lon="8.228929">
|
|
<ele>10.591595</ele>
|
|
<time>2026-07-11T11:44:40.000Z</time>
|
|
</trkpt>
|
|
<trkpt lat="55.578706" lon="8.228902">
|
|
<ele>10.586790</ele>
|
|
<time>2026-07-11T11:44:41.000Z</time>
|
|
</trkpt>
|
|
<trkpt lat="55.578656" lon="8.228874">
|
|
<ele>10.582055</ele>
|
|
<time>2026-07-11T11:44:42.000Z</time>
|
|
</trkpt>
|
|
<trkpt lat="55.578605" lon="8.228846">
|
|
<ele>10.577235</ele>
|
|
<time>2026-07-11T11:44:43.000Z</time>
|
|
</trkpt>
|
|
<trkpt lat="55.578550" lon="8.228818">
|
|
<ele>10.572068</ele>
|
|
<time>2026-07-11T11:44:44.000Z</time>
|
|
</trkpt>
|
|
<trkpt lat="55.578494" lon="8.228791">
|
|
<ele>10.566829</ele>
|
|
<time>2026-07-11T11:44:45.000Z</time>
|
|
</trkpt>
|
|
<trkpt lat="55.578442" lon="8.228768">
|
|
<ele>10.561990</ele>
|
|
<time>2026-07-11T11:44:46.000Z</time>
|
|
</trkpt>
|
|
<trkpt lat="55.578391" lon="8.228745">
|
|
<ele>10.557239</ele>
|
|
<time>2026-07-11T11:44:47.000Z</time>
|
|
</trkpt>
|
|
<trkpt lat="55.578339" lon="8.228719">
|
|
<ele>10.552361</ele>
|
|
<time>2026-07-11T11:44:48.000Z</time>
|
|
</trkpt>
|
|
<trkpt lat="55.578288" lon="8.228693">
|
|
<ele>10.547569</ele>
|
|
<time>2026-07-11T11:44:49.000Z</time>
|
|
</trkpt>
|
|
<trkpt lat="55.578236" lon="8.228668">
|
|
<ele>10.542705</ele>
|
|
<time>2026-07-11T11:44:50.000Z</time>
|
|
</trkpt>
|
|
<trkpt lat="55.578190" lon="8.228645">
|
|
<ele>10.538389</ele>
|
|
<time>2026-07-11T11:44:51.000Z</time>
|
|
</trkpt>
|
|
<trkpt lat="55.578149" lon="8.228623">
|
|
<ele>10.534522</ele>
|
|
<time>2026-07-11T11:44:52.000Z</time>
|
|
</trkpt>
|
|
<trkpt lat="55.578111" lon="8.228606">
|
|
<ele>10.530983</ele>
|
|
<time>2026-07-11T11:44:53.000Z</time>
|
|
</trkpt>
|
|
<trkpt lat="55.578079" lon="8.228586">
|
|
<ele>10.527920</ele>
|
|
<time>2026-07-11T11:44:54.000Z</time>
|
|
</trkpt>
|
|
<trkpt lat="55.578059" lon="8.228553">
|
|
<ele>10.525451</ele>
|
|
<time>2026-07-11T11:44:55.000Z</time>
|
|
</trkpt>
|
|
<trkpt lat="55.578051" lon="8.228519">
|
|
<ele>10.523571</ele>
|
|
<time>2026-07-11T11:44:56.000Z</time>
|
|
</trkpt>
|
|
<trkpt lat="55.578049" lon="8.228493">
|
|
<ele>10.522232</ele>
|
|
<time>2026-07-11T11:44:57.000Z</time>
|
|
</trkpt>
|
|
<trkpt lat="55.578050" lon="8.228474">
|
|
<ele>10.521259</ele>
|
|
<time>2026-07-11T11:44:58.000Z</time>
|
|
</trkpt>
|
|
<trkpt lat="55.578063" lon="8.228337">
|
|
<ele>10.514170</ele>
|
|
<time>2026-07-11T11:45:24.000Z</time>
|
|
</trkpt>
|
|
<trkpt lat="55.578071" lon="8.228280">
|
|
<ele>10.511173</ele>
|
|
<time>2026-07-11T11:45:25.000Z</time>
|
|
</trkpt>
|
|
<trkpt lat="55.578077" lon="8.228224">
|
|
<ele>10.508264</ele>
|
|
<time>2026-07-11T11:45:26.000Z</time>
|
|
</trkpt>
|
|
<trkpt lat="55.578082" lon="8.228164">
|
|
<ele>10.505169</ele>
|
|
<time>2026-07-11T11:45:27.000Z</time>
|
|
</trkpt>
|
|
<trkpt lat="55.578090" lon="8.228095">
|
|
<ele>10.501575</ele>
|
|
<time>2026-07-11T11:45:28.000Z</time>
|
|
</trkpt>
|
|
<trkpt lat="55.578094" lon="8.228025">
|
|
<ele>10.497984</ele>
|
|
<time>2026-07-11T11:45:29.000Z</time>
|
|
</trkpt>
|
|
<trkpt lat="55.578094" lon="8.227955">
|
|
<ele>10.494412</ele>
|
|
<time>2026-07-11T11:45:30.000Z</time>
|
|
</trkpt>
|
|
<trkpt lat="55.578094" lon="8.227883">
|
|
<ele>10.490738</ele>
|
|
<time>2026-07-11T11:45:31.000Z</time>
|
|
</trkpt>
|
|
<trkpt lat="55.578094" lon="8.227806">
|
|
<ele>10.486809</ele>
|
|
<time>2026-07-11T11:45:32.000Z</time>
|
|
</trkpt>
|
|
<trkpt lat="55.578094" lon="8.227729">
|
|
<ele>10.482880</ele>
|
|
<time>2026-07-11T11:45:33.000Z</time>
|
|
</trkpt>
|
|
<trkpt lat="55.578091" lon="8.227652">
|
|
<ele>10.478941</ele>
|
|
<time>2026-07-11T11:45:34.000Z</time>
|
|
</trkpt>
|
|
<trkpt lat="55.578085" lon="8.227576">
|
|
<ele>10.475025</ele>
|
|
<time>2026-07-11T11:45:35.000Z</time>
|
|
</trkpt>
|
|
<trkpt lat="55.578083" lon="8.227501">
|
|
<ele>10.471194</ele>
|
|
<time>2026-07-11T11:45:36.000Z</time>
|
|
</trkpt>
|
|
<trkpt lat="55.578081" lon="8.227424">
|
|
<ele>10.467260</ele>
|
|
<time>2026-07-11T11:45:37.000Z</time>
|
|
</trkpt>
|
|
<trkpt lat="55.578078" lon="8.227343">
|
|
<ele>10.463118</ele>
|
|
<time>2026-07-11T11:45:38.000Z</time>
|
|
</trkpt>
|
|
<trkpt lat="55.578069" lon="8.227259">
|
|
<ele>10.458755</ele>
|
|
<time>2026-07-11T11:45:39.000Z</time>
|
|
</trkpt>
|
|
<trkpt lat="55.578052" lon="8.227165">
|
|
<ele>10.453719</ele>
|
|
<time>2026-07-11T11:45:40.000Z</time>
|
|
</trkpt>
|
|
<trkpt lat="55.578031" lon="8.227075">
|
|
<ele>10.448750</ele>
|
|
<time>2026-07-11T11:45:41.000Z</time>
|
|
</trkpt>
|
|
<trkpt lat="55.578010" lon="8.226988">
|
|
<ele>10.443923</ele>
|
|
<time>2026-07-11T11:45:42.000Z</time>
|
|
</trkpt>
|
|
<trkpt lat="55.577989" lon="8.226902">
|
|
<ele>10.439142</ele>
|
|
<time>2026-07-11T11:45:43.000Z</time>
|
|
</trkpt>
|
|
<trkpt lat="55.577967" lon="8.226816">
|
|
<ele>10.436167</ele>
|
|
<time>2026-07-11T11:45:44.000Z</time>
|
|
</trkpt>
|
|
<trkpt lat="55.577942" lon="8.226727">
|
|
<ele>10.440312</ele>
|
|
<time>2026-07-11T11:45:45.000Z</time>
|
|
</trkpt>
|
|
<trkpt lat="55.577915" lon="8.226638">
|
|
<ele>10.444525</ele>
|
|
<time>2026-07-11T11:45:46.000Z</time>
|
|
</trkpt>
|
|
<trkpt lat="55.577888" lon="8.226547">
|
|
<ele>10.448812</ele>
|
|
<time>2026-07-11T11:45:47.000Z</time>
|
|
</trkpt>
|
|
<trkpt lat="55.577861" lon="8.226461">
|
|
<ele>10.452915</ele>
|
|
<time>2026-07-11T11:45:48.000Z</time>
|
|
</trkpt>
|
|
<trkpt lat="55.577835" lon="8.226378">
|
|
<ele>10.456873</ele>
|
|
<time>2026-07-11T11:45:49.000Z</time>
|
|
</trkpt>
|
|
<trkpt lat="55.577809" lon="8.226292">
|
|
<ele>10.460941</ele>
|
|
<time>2026-07-11T11:45:50.000Z</time>
|
|
</trkpt>
|
|
<trkpt lat="55.577785" lon="8.226202">
|
|
<ele>10.465092</ele>
|
|
<time>2026-07-11T11:45:51.000Z</time>
|
|
</trkpt>
|
|
<trkpt lat="55.577765" lon="8.226113">
|
|
<ele>10.469087</ele>
|
|
<time>2026-07-11T11:45:52.000Z</time>
|
|
</trkpt>
|
|
<trkpt lat="55.577743" lon="8.226024">
|
|
<ele>10.473139</ele>
|
|
<time>2026-07-11T11:45:53.000Z</time>
|
|
</trkpt>
|
|
<trkpt lat="55.577717" lon="8.225932">
|
|
<ele>10.477429</ele>
|
|
<time>2026-07-11T11:45:54.000Z</time>
|
|
</trkpt>
|
|
<trkpt lat="55.577693" lon="8.225839">
|
|
<ele>10.481693</ele>
|
|
<time>2026-07-11T11:45:55.000Z</time>
|
|
</trkpt>
|
|
<trkpt lat="55.577674" lon="8.225748">
|
|
<ele>10.485740</ele>
|
|
<time>2026-07-11T11:45:56.000Z</time>
|
|
</trkpt>
|
|
<trkpt lat="55.577653" lon="8.225658">
|
|
<ele>10.489801</ele>
|
|
<time>2026-07-11T11:45:57.000Z</time>
|
|
</trkpt>
|
|
<trkpt lat="55.577630" lon="8.225566">
|
|
<ele>10.493997</ele>
|
|
<time>2026-07-11T11:45:58.000Z</time>
|
|
</trkpt>
|
|
<trkpt lat="55.577606" lon="8.225471">
|
|
<ele>10.498337</ele>
|
|
<time>2026-07-11T11:45:59.000Z</time>
|
|
</trkpt>
|
|
<trkpt lat="55.577579" lon="8.225375">
|
|
<ele>10.502810</ele>
|
|
<time>2026-07-11T11:46:00.000Z</time>
|
|
</trkpt>
|
|
<trkpt lat="55.577554" lon="8.225278">
|
|
<ele>10.507257</ele>
|
|
<time>2026-07-11T11:46:01.000Z</time>
|
|
</trkpt>
|
|
<trkpt lat="55.577533" lon="8.225180">
|
|
<ele>10.511628</ele>
|
|
<time>2026-07-11T11:46:02.000Z</time>
|
|
</trkpt>
|
|
<trkpt lat="55.577514" lon="8.225087">
|
|
<ele>10.515753</ele>
|
|
<time>2026-07-11T11:46:03.000Z</time>
|
|
</trkpt>
|
|
<trkpt lat="55.577494" lon="8.224995">
|
|
<ele>10.519864</ele>
|
|
<time>2026-07-11T11:46:04.000Z</time>
|
|
</trkpt>
|
|
<trkpt lat="55.577472" lon="8.224900">
|
|
<ele>10.524147</ele>
|
|
<time>2026-07-11T11:46:05.000Z</time>
|
|
</trkpt>
|
|
<trkpt lat="55.577453" lon="8.224811">
|
|
<ele>10.528115</ele>
|
|
<time>2026-07-11T11:46:06.000Z</time>
|
|
</trkpt>
|
|
<trkpt lat="55.577434" lon="8.224727">
|
|
<ele>10.531889</ele>
|
|
<time>2026-07-11T11:46:07.000Z</time>
|
|
</trkpt>
|
|
<trkpt lat="55.577413" lon="8.224646">
|
|
<ele>10.535606</ele>
|
|
<time>2026-07-11T11:46:08.000Z</time>
|
|
</trkpt>
|
|
<trkpt lat="55.577390" lon="8.224564">
|
|
<ele>10.539424</ele>
|
|
<time>2026-07-11T11:46:09.000Z</time>
|
|
</trkpt>
|
|
<trkpt lat="55.577366" lon="8.224479">
|
|
<ele>10.543387</ele>
|
|
<time>2026-07-11T11:46:10.000Z</time>
|
|
</trkpt>
|
|
<trkpt lat="55.577341" lon="8.224411">
|
|
<ele>10.546771</ele>
|
|
<time>2026-07-11T11:46:11.000Z</time>
|
|
</trkpt>
|
|
<trkpt lat="55.577321" lon="8.224359">
|
|
<ele>10.549394</ele>
|
|
<time>2026-07-11T11:46:12.000Z</time>
|
|
</trkpt>
|
|
<trkpt lat="55.577276" lon="8.224241">
|
|
<ele>10.555331</ele>
|
|
<time>2026-07-11T11:46:13.000Z</time>
|
|
</trkpt>
|
|
<trkpt lat="55.577245" lon="8.224165">
|
|
<ele>10.559241</ele>
|
|
<time>2026-07-11T11:46:14.000Z</time>
|
|
</trkpt>
|
|
<trkpt lat="55.577212" lon="8.224094">
|
|
<ele>10.563075</ele>
|
|
<time>2026-07-11T11:46:15.000Z</time>
|
|
</trkpt>
|
|
<trkpt lat="55.577177" lon="8.224021">
|
|
<ele>10.567067</ele>
|
|
<time>2026-07-11T11:46:16.000Z</time>
|
|
</trkpt>
|
|
<trkpt lat="55.577146" lon="8.223945">
|
|
<ele>10.569344</ele>
|
|
<time>2026-07-11T11:46:17.000Z</time>
|
|
</trkpt>
|
|
<trkpt lat="55.577116" lon="8.223868">
|
|
<ele>10.571064</ele>
|
|
<time>2026-07-11T11:46:18.000Z</time>
|
|
</trkpt>
|
|
<trkpt lat="55.577085" lon="8.223788">
|
|
<ele>10.572847</ele>
|
|
<time>2026-07-11T11:46:19.000Z</time>
|
|
</trkpt>
|
|
<trkpt lat="55.577056" lon="8.223716">
|
|
<ele>10.574473</ele>
|
|
<time>2026-07-11T11:46:20.000Z</time>
|
|
</trkpt>
|
|
<trkpt lat="55.577032" lon="8.223645">
|
|
<ele>10.575994</ele>
|
|
<time>2026-07-11T11:46:21.000Z</time>
|
|
</trkpt>
|
|
<trkpt lat="55.577007" lon="8.223573">
|
|
<ele>10.577548</ele>
|
|
<time>2026-07-11T11:46:22.000Z</time>
|
|
</trkpt>
|
|
<trkpt lat="55.576979" lon="8.223503">
|
|
<ele>10.579125</ele>
|
|
<time>2026-07-11T11:46:23.000Z</time>
|
|
</trkpt>
|
|
<trkpt lat="55.576948" lon="8.223429">
|
|
<ele>10.580819</ele>
|
|
<time>2026-07-11T11:46:24.000Z</time>
|
|
</trkpt>
|
|
<trkpt lat="55.576917" lon="8.223353">
|
|
<ele>10.582543</ele>
|
|
<time>2026-07-11T11:46:25.000Z</time>
|
|
</trkpt>
|
|
<trkpt lat="55.576887" lon="8.223277">
|
|
<ele>10.584247</ele>
|
|
<time>2026-07-11T11:46:26.000Z</time>
|
|
</trkpt>
|
|
<trkpt lat="55.576857" lon="8.223190">
|
|
<ele>10.586121</ele>
|
|
<time>2026-07-11T11:46:27.000Z</time>
|
|
</trkpt>
|
|
<trkpt lat="55.576823" lon="8.223102">
|
|
<ele>10.588081</ele>
|
|
<time>2026-07-11T11:46:28.000Z</time>
|
|
</trkpt>
|
|
<trkpt lat="55.576786" lon="8.223021">
|
|
<ele>10.589997</ele>
|
|
<time>2026-07-11T11:46:29.000Z</time>
|
|
</trkpt>
|
|
<trkpt lat="55.576754" lon="8.222948">
|
|
<ele>10.591695</ele>
|
|
<time>2026-07-11T11:46:30.000Z</time>
|
|
</trkpt>
|
|
<trkpt lat="55.576725" lon="8.222876">
|
|
<ele>10.593321</ele>
|
|
<time>2026-07-11T11:46:31.000Z</time>
|
|
</trkpt>
|
|
<trkpt lat="55.576697" lon="8.222804">
|
|
<ele>10.594928</ele>
|
|
<time>2026-07-11T11:46:32.000Z</time>
|
|
</trkpt>
|
|
<trkpt lat="55.576667" lon="8.222734">
|
|
<ele>10.596544</ele>
|
|
<time>2026-07-11T11:46:33.000Z</time>
|
|
</trkpt>
|
|
<trkpt lat="55.576636" lon="8.222662">
|
|
<ele>10.598208</ele>
|
|
<time>2026-07-11T11:46:34.000Z</time>
|
|
</trkpt>
|
|
<trkpt lat="55.576605" lon="8.222591">
|
|
<ele>10.599858</ele>
|
|
<time>2026-07-11T11:46:35.000Z</time>
|
|
</trkpt>
|
|
<trkpt lat="55.576572" lon="8.222518">
|
|
<ele>10.601577</ele>
|
|
<time>2026-07-11T11:46:36.000Z</time>
|
|
</trkpt>
|
|
<trkpt lat="55.576540" lon="8.222445">
|
|
<ele>10.603276</ele>
|
|
<time>2026-07-11T11:46:37.000Z</time>
|
|
</trkpt>
|
|
<trkpt lat="55.576509" lon="8.222370">
|
|
<ele>10.604984</ele>
|
|
<time>2026-07-11T11:46:38.000Z</time>
|
|
</trkpt>
|
|
<trkpt lat="55.576482" lon="8.222291">
|
|
<ele>10.606682</ele>
|
|
<time>2026-07-11T11:46:39.000Z</time>
|
|
</trkpt>
|
|
<trkpt lat="55.576459" lon="8.222210">
|
|
<ele>10.608349</ele>
|
|
<time>2026-07-11T11:46:40.000Z</time>
|
|
</trkpt>
|
|
<trkpt lat="55.576438" lon="8.222132">
|
|
<ele>10.609938</ele>
|
|
<time>2026-07-11T11:46:41.000Z</time>
|
|
</trkpt>
|
|
<trkpt lat="55.576419" lon="8.222049">
|
|
<ele>10.611584</ele>
|
|
<time>2026-07-11T11:46:42.000Z</time>
|
|
</trkpt>
|
|
<trkpt lat="55.576399" lon="8.221964">
|
|
<ele>10.613278</ele>
|
|
<time>2026-07-11T11:46:43.000Z</time>
|
|
</trkpt>
|
|
<trkpt lat="55.576379" lon="8.221884">
|
|
<ele>10.614886</ele>
|
|
<time>2026-07-11T11:46:44.000Z</time>
|
|
</trkpt>
|
|
<trkpt lat="55.576362" lon="8.221810">
|
|
<ele>10.616355</ele>
|
|
<time>2026-07-11T11:46:45.000Z</time>
|
|
</trkpt>
|
|
<trkpt lat="55.576343" lon="8.221733">
|
|
<ele>10.617900</ele>
|
|
<time>2026-07-11T11:46:46.000Z</time>
|
|
</trkpt>
|
|
<trkpt lat="55.576322" lon="8.221649">
|
|
<ele>10.619589</ele>
|
|
<time>2026-07-11T11:46:47.000Z</time>
|
|
</trkpt>
|
|
<trkpt lat="55.576295" lon="8.221568">
|
|
<ele>10.621319</ele>
|
|
<time>2026-07-11T11:46:48.000Z</time>
|
|
</trkpt>
|
|
<trkpt lat="55.576265" lon="8.221485">
|
|
<ele>10.623130</ele>
|
|
<time>2026-07-11T11:46:49.000Z</time>
|
|
</trkpt>
|
|
<trkpt lat="55.576242" lon="8.221396">
|
|
<ele>10.624930</ele>
|
|
<time>2026-07-11T11:46:50.000Z</time>
|
|
</trkpt>
|
|
<trkpt lat="55.576219" lon="8.221313">
|
|
<ele>10.626764</ele>
|
|
<time>2026-07-11T11:46:51.000Z</time>
|
|
</trkpt>
|
|
<trkpt lat="55.576196" lon="8.221232">
|
|
<ele>10.632094</ele>
|
|
<time>2026-07-11T11:46:52.000Z</time>
|
|
</trkpt>
|
|
<trkpt lat="55.576172" lon="8.221142">
|
|
<ele>10.637944</ele>
|
|
<time>2026-07-11T11:46:53.000Z</time>
|
|
</trkpt>
|
|
<trkpt lat="55.576147" lon="8.221046">
|
|
<ele>10.644158</ele>
|
|
<time>2026-07-11T11:46:54.000Z</time>
|
|
</trkpt>
|
|
<trkpt lat="55.576122" lon="8.220954">
|
|
<ele>10.650159</ele>
|
|
<time>2026-07-11T11:46:55.000Z</time>
|
|
</trkpt>
|
|
<trkpt lat="55.576095" lon="8.220861">
|
|
<ele>10.656306</ele>
|
|
<time>2026-07-11T11:46:56.000Z</time>
|
|
</trkpt>
|
|
<trkpt lat="55.576069" lon="8.220757">
|
|
<ele>10.662992</ele>
|
|
<time>2026-07-11T11:46:57.000Z</time>
|
|
</trkpt>
|
|
<trkpt lat="55.576041" lon="8.220650">
|
|
<ele>10.669924</ele>
|
|
<time>2026-07-11T11:46:58.000Z</time>
|
|
</trkpt>
|
|
<trkpt lat="55.576013" lon="8.220554">
|
|
<ele>10.676275</ele>
|
|
<time>2026-07-11T11:46:59.000Z</time>
|
|
</trkpt>
|
|
<trkpt lat="55.575988" lon="8.220456">
|
|
<ele>10.682596</ele>
|
|
<time>2026-07-11T11:47:00.000Z</time>
|
|
</trkpt>
|
|
<trkpt lat="55.575962" lon="8.220360">
|
|
<ele>10.688854</ele>
|
|
<time>2026-07-11T11:47:01.000Z</time>
|
|
</trkpt>
|
|
<trkpt lat="55.575935" lon="8.220264">
|
|
<ele>10.695158</ele>
|
|
<time>2026-07-11T11:47:02.000Z</time>
|
|
</trkpt>
|
|
<trkpt lat="55.575910" lon="8.220169">
|
|
<ele>10.701319</ele>
|
|
<time>2026-07-11T11:47:03.000Z</time>
|
|
</trkpt>
|
|
<trkpt lat="55.575886" lon="8.220076">
|
|
<ele>10.707329</ele>
|
|
<time>2026-07-11T11:47:04.000Z</time>
|
|
</trkpt>
|
|
<trkpt lat="55.575855" lon="8.219978">
|
|
<ele>10.713932</ele>
|
|
<time>2026-07-11T11:47:05.000Z</time>
|
|
</trkpt>
|
|
<trkpt lat="55.575824" lon="8.219881">
|
|
<ele>10.720483</ele>
|
|
<time>2026-07-11T11:47:06.000Z</time>
|
|
</trkpt>
|
|
<trkpt lat="55.575798" lon="8.219789">
|
|
<ele>10.726530</ele>
|
|
<time>2026-07-11T11:47:07.000Z</time>
|
|
</trkpt>
|
|
<trkpt lat="55.575773" lon="8.219695">
|
|
<ele>10.732638</ele>
|
|
<time>2026-07-11T11:47:08.000Z</time>
|
|
</trkpt>
|
|
<trkpt lat="55.575746" lon="8.219602">
|
|
<ele>10.738784</ele>
|
|
<time>2026-07-11T11:47:09.000Z</time>
|
|
</trkpt>
|
|
<trkpt lat="55.575719" lon="8.219514">
|
|
<ele>10.744671</ele>
|
|
<time>2026-07-11T11:47:10.000Z</time>
|
|
</trkpt>
|
|
<trkpt lat="55.575693" lon="8.219419">
|
|
<ele>10.750876</ele>
|
|
<time>2026-07-11T11:47:11.000Z</time>
|
|
</trkpt>
|
|
<trkpt lat="55.575664" lon="8.219319">
|
|
<ele>10.757484</ele>
|
|
<time>2026-07-11T11:47:12.000Z</time>
|
|
</trkpt>
|
|
<trkpt lat="55.575638" lon="8.219221">
|
|
<ele>10.763849</ele>
|
|
<time>2026-07-11T11:47:13.000Z</time>
|
|
</trkpt>
|
|
<trkpt lat="55.575613" lon="8.219123">
|
|
<ele>10.770170</ele>
|
|
<time>2026-07-11T11:47:14.000Z</time>
|
|
</trkpt>
|
|
<trkpt lat="55.575589" lon="8.219032">
|
|
<ele>10.776074</ele>
|
|
<time>2026-07-11T11:47:15.000Z</time>
|
|
</trkpt>
|
|
<trkpt lat="55.575562" lon="8.218939">
|
|
<ele>10.782220</ele>
|
|
<time>2026-07-11T11:47:16.000Z</time>
|
|
</trkpt>
|
|
<trkpt lat="55.575531" lon="8.218841">
|
|
<ele>10.788823</ele>
|
|
<time>2026-07-11T11:47:17.000Z</time>
|
|
</trkpt>
|
|
<trkpt lat="55.575504" lon="8.218750">
|
|
<ele>10.794865</ele>
|
|
<time>2026-07-11T11:47:18.000Z</time>
|
|
</trkpt>
|
|
<trkpt lat="55.575479" lon="8.218663">
|
|
<ele>10.800603</ele>
|
|
<time>2026-07-11T11:47:19.000Z</time>
|
|
</trkpt>
|
|
<trkpt lat="55.575456" lon="8.218580">
|
|
<ele>10.806037</ele>
|
|
<time>2026-07-11T11:47:20.000Z</time>
|
|
</trkpt>
|
|
<trkpt lat="55.575428" lon="8.218487">
|
|
<ele>10.812232</ele>
|
|
<time>2026-07-11T11:47:21.000Z</time>
|
|
</trkpt>
|
|
<trkpt lat="55.575397" lon="8.218381">
|
|
<ele>10.807599</ele>
|
|
<time>2026-07-11T11:47:22.000Z</time>
|
|
</trkpt>
|
|
<trkpt lat="55.575369" lon="8.218289">
|
|
<ele>10.801013</ele>
|
|
<time>2026-07-11T11:47:23.000Z</time>
|
|
</trkpt>
|
|
<trkpt lat="55.575341" lon="8.218200">
|
|
<ele>10.794592</ele>
|
|
<time>2026-07-11T11:47:24.000Z</time>
|
|
</trkpt>
|
|
<trkpt lat="55.575312" lon="8.218111">
|
|
<ele>10.788116</ele>
|
|
<time>2026-07-11T11:47:25.000Z</time>
|
|
</trkpt>
|
|
<trkpt lat="55.575279" lon="8.218024">
|
|
<ele>10.781512</ele>
|
|
<time>2026-07-11T11:47:26.000Z</time>
|
|
</trkpt>
|
|
<trkpt lat="55.575247" lon="8.217941">
|
|
<ele>10.775178</ele>
|
|
<time>2026-07-11T11:47:27.000Z</time>
|
|
</trkpt>
|
|
<trkpt lat="55.575214" lon="8.217856">
|
|
<ele>10.768678</ele>
|
|
<time>2026-07-11T11:47:28.000Z</time>
|
|
</trkpt>
|
|
<trkpt lat="55.575182" lon="8.217774">
|
|
<ele>10.762397</ele>
|
|
<time>2026-07-11T11:47:29.000Z</time>
|
|
</trkpt>
|
|
<trkpt lat="55.575151" lon="8.217695">
|
|
<ele>10.756334</ele>
|
|
<time>2026-07-11T11:47:30.000Z</time>
|
|
</trkpt>
|
|
<trkpt lat="55.575123" lon="8.217620">
|
|
<ele>10.750669</ele>
|
|
<time>2026-07-11T11:47:31.000Z</time>
|
|
</trkpt>
|
|
<trkpt lat="55.575092" lon="8.217548">
|
|
<ele>10.744963</ele>
|
|
<time>2026-07-11T11:47:32.000Z</time>
|
|
</trkpt>
|
|
<trkpt lat="55.575062" lon="8.217473">
|
|
<ele>10.739171</ele>
|
|
<time>2026-07-11T11:47:33.000Z</time>
|
|
</trkpt>
|
|
<trkpt lat="55.575032" lon="8.217397">
|
|
<ele>10.733328</ele>
|
|
<time>2026-07-11T11:47:34.000Z</time>
|
|
</trkpt>
|
|
<trkpt lat="55.574999" lon="8.217323">
|
|
<ele>10.727386</ele>
|
|
<time>2026-07-11T11:47:35.000Z</time>
|
|
</trkpt>
|
|
<trkpt lat="55.574970" lon="8.217246">
|
|
<ele>10.721554</ele>
|
|
<time>2026-07-11T11:47:36.000Z</time>
|
|
</trkpt>
|
|
<trkpt lat="55.574940" lon="8.217166">
|
|
<ele>10.715502</ele>
|
|
<time>2026-07-11T11:47:37.000Z</time>
|
|
</trkpt>
|
|
<trkpt lat="55.574907" lon="8.217089">
|
|
<ele>10.709411</ele>
|
|
<time>2026-07-11T11:47:38.000Z</time>
|
|
</trkpt>
|
|
<trkpt lat="55.574873" lon="8.217012">
|
|
<ele>10.703251</ele>
|
|
<time>2026-07-11T11:47:39.000Z</time>
|
|
</trkpt>
|
|
<trkpt lat="55.574834" lon="8.216929">
|
|
<ele>10.696448</ele>
|
|
<time>2026-07-11T11:47:40.000Z</time>
|
|
</trkpt>
|
|
<trkpt lat="55.574794" lon="8.216844">
|
|
<ele>10.689476</ele>
|
|
<time>2026-07-11T11:47:41.000Z</time>
|
|
</trkpt>
|
|
<trkpt lat="55.574758" lon="8.216761">
|
|
<ele>10.682881</ele>
|
|
<time>2026-07-11T11:47:42.000Z</time>
|
|
</trkpt>
|
|
<trkpt lat="55.574723" lon="8.216678">
|
|
<ele>10.676353</ele>
|
|
<time>2026-07-11T11:47:43.000Z</time>
|
|
</trkpt>
|
|
<trkpt lat="55.574689" lon="8.216599">
|
|
<ele>10.670094</ele>
|
|
<time>2026-07-11T11:47:44.000Z</time>
|
|
</trkpt>
|
|
<trkpt lat="55.574650" lon="8.216518">
|
|
<ele>10.663387</ele>
|
|
<time>2026-07-11T11:47:45.000Z</time>
|
|
</trkpt>
|
|
<trkpt lat="55.574612" lon="8.216440">
|
|
<ele>10.656896</ele>
|
|
<time>2026-07-11T11:47:46.000Z</time>
|
|
</trkpt>
|
|
<trkpt lat="55.574578" lon="8.216361">
|
|
<ele>10.650637</ele>
|
|
<time>2026-07-11T11:47:47.000Z</time>
|
|
</trkpt>
|
|
<trkpt lat="55.574545" lon="8.216281">
|
|
<ele>10.644393</ele>
|
|
<time>2026-07-11T11:47:48.000Z</time>
|
|
</trkpt>
|
|
<trkpt lat="55.574513" lon="8.216203">
|
|
<ele>10.638318</ele>
|
|
<time>2026-07-11T11:47:49.000Z</time>
|
|
</trkpt>
|
|
<trkpt lat="55.574478" lon="8.216125">
|
|
<ele>10.632040</ele>
|
|
<time>2026-07-11T11:47:50.000Z</time>
|
|
</trkpt>
|
|
<trkpt lat="55.574444" lon="8.216045">
|
|
<ele>10.625731</ele>
|
|
<time>2026-07-11T11:47:51.000Z</time>
|
|
</trkpt>
|
|
<trkpt lat="55.574411" lon="8.215964">
|
|
<ele>10.619437</ele>
|
|
<time>2026-07-11T11:47:52.000Z</time>
|
|
</trkpt>
|
|
<trkpt lat="55.574381" lon="8.215882">
|
|
<ele>10.613279</ele>
|
|
<time>2026-07-11T11:47:53.000Z</time>
|
|
</trkpt>
|
|
<trkpt lat="55.574351" lon="8.215803">
|
|
<ele>10.614089</ele>
|
|
<time>2026-07-11T11:47:54.000Z</time>
|
|
</trkpt>
|
|
<trkpt lat="55.574323" lon="8.215722">
|
|
<ele>10.615156</ele>
|
|
<time>2026-07-11T11:47:55.000Z</time>
|
|
</trkpt>
|
|
<trkpt lat="55.574297" lon="8.215640">
|
|
<ele>10.616212</ele>
|
|
<time>2026-07-11T11:47:56.000Z</time>
|
|
</trkpt>
|
|
<trkpt lat="55.574270" lon="8.215558">
|
|
<ele>10.617278</ele>
|
|
<time>2026-07-11T11:47:57.000Z</time>
|
|
</trkpt>
|
|
<trkpt lat="55.574242" lon="8.215476">
|
|
<ele>10.618354</ele>
|
|
<time>2026-07-11T11:47:58.000Z</time>
|
|
</trkpt>
|
|
<trkpt lat="55.574210" lon="8.215400">
|
|
<ele>10.619419</ele>
|
|
<time>2026-07-11T11:47:59.000Z</time>
|
|
</trkpt>
|
|
<trkpt lat="55.574180" lon="8.215325">
|
|
<ele>10.620451</ele>
|
|
<time>2026-07-11T11:48:00.000Z</time>
|
|
</trkpt>
|
|
<trkpt lat="55.574152" lon="8.215246">
|
|
<ele>10.621498</ele>
|
|
<time>2026-07-11T11:48:01.000Z</time>
|
|
</trkpt>
|
|
<trkpt lat="55.574118" lon="8.215166">
|
|
<ele>10.622623</ele>
|
|
<time>2026-07-11T11:48:02.000Z</time>
|
|
</trkpt>
|
|
<trkpt lat="55.574082" lon="8.215085">
|
|
<ele>10.623780</ele>
|
|
<time>2026-07-11T11:48:03.000Z</time>
|
|
</trkpt>
|
|
<trkpt lat="55.574046" lon="8.215002">
|
|
<ele>10.624956</ele>
|
|
<time>2026-07-11T11:48:04.000Z</time>
|
|
</trkpt>
|
|
<trkpt lat="55.574010" lon="8.214914">
|
|
<ele>10.626176</ele>
|
|
<time>2026-07-11T11:48:05.000Z</time>
|
|
</trkpt>
|
|
<trkpt lat="55.573978" lon="8.214824">
|
|
<ele>10.627370</ele>
|
|
<time>2026-07-11T11:48:06.000Z</time>
|
|
</trkpt>
|
|
<trkpt lat="55.573953" lon="8.214736">
|
|
<ele>10.628477</ele>
|
|
<time>2026-07-11T11:48:07.000Z</time>
|
|
</trkpt>
|
|
<trkpt lat="55.573932" lon="8.214645">
|
|
<ele>10.629581</ele>
|
|
<time>2026-07-11T11:48:08.000Z</time>
|
|
</trkpt>
|
|
<trkpt lat="55.573913" lon="8.214551">
|
|
<ele>10.630703</ele>
|
|
<time>2026-07-11T11:48:09.000Z</time>
|
|
</trkpt>
|
|
<trkpt lat="55.573894" lon="8.214461">
|
|
<ele>10.631782</ele>
|
|
<time>2026-07-11T11:48:10.000Z</time>
|
|
</trkpt>
|
|
<trkpt lat="55.573871" lon="8.214384">
|
|
<ele>10.632760</ele>
|
|
<time>2026-07-11T11:48:11.000Z</time>
|
|
</trkpt>
|
|
<trkpt lat="55.573846" lon="8.214315">
|
|
<ele>10.633681</ele>
|
|
<time>2026-07-11T11:48:12.000Z</time>
|
|
</trkpt>
|
|
<trkpt lat="55.573824" lon="8.214251">
|
|
<ele>10.634522</ele>
|
|
<time>2026-07-11T11:48:13.000Z</time>
|
|
</trkpt>
|
|
<trkpt lat="55.573801" lon="8.214192">
|
|
<ele>10.635328</ele>
|
|
<time>2026-07-11T11:48:14.000Z</time>
|
|
</trkpt>
|
|
<trkpt lat="55.573775" lon="8.214133">
|
|
<ele>10.636168</ele>
|
|
<time>2026-07-11T11:48:15.000Z</time>
|
|
</trkpt>
|
|
<trkpt lat="55.573746" lon="8.214069">
|
|
<ele>10.637089</ele>
|
|
<time>2026-07-11T11:48:16.000Z</time>
|
|
</trkpt>
|
|
<trkpt lat="55.573718" lon="8.214003">
|
|
<ele>10.638016</ele>
|
|
<time>2026-07-11T11:48:17.000Z</time>
|
|
</trkpt>
|
|
<trkpt lat="55.573689" lon="8.213939">
|
|
<ele>10.638938</ele>
|
|
<time>2026-07-11T11:48:18.000Z</time>
|
|
</trkpt>
|
|
<trkpt lat="55.573662" lon="8.213871">
|
|
<ele>10.639871</ele>
|
|
<time>2026-07-11T11:48:19.000Z</time>
|
|
</trkpt>
|
|
<trkpt lat="55.573635" lon="8.213793">
|
|
<ele>10.640899</ele>
|
|
<time>2026-07-11T11:48:20.000Z</time>
|
|
</trkpt>
|
|
<trkpt lat="55.573608" lon="8.213728">
|
|
<ele>10.641805</ele>
|
|
<time>2026-07-11T11:48:21.000Z</time>
|
|
</trkpt>
|
|
<trkpt lat="55.573582" lon="8.213665">
|
|
<ele>10.642681</ele>
|
|
<time>2026-07-11T11:48:22.000Z</time>
|
|
</trkpt>
|
|
<trkpt lat="55.573557" lon="8.213598">
|
|
<ele>10.643583</ele>
|
|
<time>2026-07-11T11:48:23.000Z</time>
|
|
</trkpt>
|
|
<trkpt lat="55.573533" lon="8.213528">
|
|
<ele>10.644503</ele>
|
|
<time>2026-07-11T11:48:24.000Z</time>
|
|
</trkpt>
|
|
<trkpt lat="55.573507" lon="8.213462">
|
|
<ele>10.645407</ele>
|
|
<time>2026-07-11T11:48:25.000Z</time>
|
|
</trkpt>
|
|
<trkpt lat="55.573479" lon="8.213399">
|
|
<ele>10.646307</ele>
|
|
<time>2026-07-11T11:48:26.000Z</time>
|
|
</trkpt>
|
|
<trkpt lat="55.573454" lon="8.213336">
|
|
<ele>10.647172</ele>
|
|
<time>2026-07-11T11:48:27.000Z</time>
|
|
</trkpt>
|
|
<trkpt lat="55.573429" lon="8.213273">
|
|
<ele>10.648037</ele>
|
|
<time>2026-07-11T11:48:28.000Z</time>
|
|
</trkpt>
|
|
<trkpt lat="55.573406" lon="8.213204">
|
|
<ele>10.648447</ele>
|
|
<time>2026-07-11T11:48:29.000Z</time>
|
|
</trkpt>
|
|
<trkpt lat="55.573384" lon="8.213128">
|
|
<ele>10.645921</ele>
|
|
<time>2026-07-11T11:48:30.000Z</time>
|
|
</trkpt>
|
|
<trkpt lat="55.573359" lon="8.213059">
|
|
<ele>10.643497</ele>
|
|
<time>2026-07-11T11:48:31.000Z</time>
|
|
</trkpt>
|
|
<trkpt lat="55.573333" lon="8.212993">
|
|
<ele>10.641118</ele>
|
|
<time>2026-07-11T11:48:32.000Z</time>
|
|
</trkpt>
|
|
<trkpt lat="55.573307" lon="8.212929">
|
|
<ele>10.638786</ele>
|
|
<time>2026-07-11T11:48:33.000Z</time>
|
|
</trkpt>
|
|
<trkpt lat="55.573280" lon="8.212861">
|
|
<ele>10.636329</ele>
|
|
<time>2026-07-11T11:48:34.000Z</time>
|
|
</trkpt>
|
|
<trkpt lat="55.573254" lon="8.212785">
|
|
<ele>10.633701</ele>
|
|
<time>2026-07-11T11:48:35.000Z</time>
|
|
</trkpt>
|
|
<trkpt lat="55.573225" lon="8.212699">
|
|
<ele>10.630739</ele>
|
|
<time>2026-07-11T11:48:36.000Z</time>
|
|
</trkpt>
|
|
<trkpt lat="55.573194" lon="8.212618">
|
|
<ele>10.627846</ele>
|
|
<time>2026-07-11T11:48:37.000Z</time>
|
|
</trkpt>
|
|
<trkpt lat="55.573164" lon="8.212537">
|
|
<ele>10.624981</ele>
|
|
<time>2026-07-11T11:48:38.000Z</time>
|
|
</trkpt>
|
|
<trkpt lat="55.573132" lon="8.212455">
|
|
<ele>10.622034</ele>
|
|
<time>2026-07-11T11:48:39.000Z</time>
|
|
</trkpt>
|
|
<trkpt lat="55.573097" lon="8.212369">
|
|
<ele>10.618900</ele>
|
|
<time>2026-07-11T11:48:40.000Z</time>
|
|
</trkpt>
|
|
<trkpt lat="55.573063" lon="8.212280">
|
|
<ele>10.615722</ele>
|
|
<time>2026-07-11T11:48:41.000Z</time>
|
|
</trkpt>
|
|
<trkpt lat="55.573030" lon="8.212191">
|
|
<ele>10.612574</ele>
|
|
<time>2026-07-11T11:48:42.000Z</time>
|
|
</trkpt>
|
|
<trkpt lat="55.572999" lon="8.212106">
|
|
<ele>10.609582</ele>
|
|
<time>2026-07-11T11:48:43.000Z</time>
|
|
</trkpt>
|
|
<trkpt lat="55.572966" lon="8.212017">
|
|
<ele>10.606434</ele>
|
|
<time>2026-07-11T11:48:44.000Z</time>
|
|
</trkpt>
|
|
<trkpt lat="55.572931" lon="8.211929">
|
|
<ele>10.603251</ele>
|
|
<time>2026-07-11T11:48:45.000Z</time>
|
|
</trkpt>
|
|
<trkpt lat="55.572897" lon="8.211842">
|
|
<ele>10.600123</ele>
|
|
<time>2026-07-11T11:48:46.000Z</time>
|
|
</trkpt>
|
|
<trkpt lat="55.572867" lon="8.211759">
|
|
<ele>10.597209</ele>
|
|
<time>2026-07-11T11:48:47.000Z</time>
|
|
</trkpt>
|
|
<trkpt lat="55.572834" lon="8.211674">
|
|
<ele>10.594159</ele>
|
|
<time>2026-07-11T11:48:48.000Z</time>
|
|
</trkpt>
|
|
<trkpt lat="55.572801" lon="8.211587">
|
|
<ele>10.591060</ele>
|
|
<time>2026-07-11T11:48:49.000Z</time>
|
|
</trkpt>
|
|
<trkpt lat="55.572771" lon="8.211500">
|
|
<ele>10.588045</ele>
|
|
<time>2026-07-11T11:48:50.000Z</time>
|
|
</trkpt>
|
|
<trkpt lat="55.572742" lon="8.211408">
|
|
<ele>10.584929</ele>
|
|
<time>2026-07-11T11:48:51.000Z</time>
|
|
</trkpt>
|
|
<trkpt lat="55.572716" lon="8.211316">
|
|
<ele>10.581887</ele>
|
|
<time>2026-07-11T11:48:52.000Z</time>
|
|
</trkpt>
|
|
<trkpt lat="55.572687" lon="8.211227">
|
|
<ele>10.578848</ele>
|
|
<time>2026-07-11T11:48:53.000Z</time>
|
|
</trkpt>
|
|
<trkpt lat="55.572656" lon="8.211139">
|
|
<ele>10.575781</ele>
|
|
<time>2026-07-11T11:48:54.000Z</time>
|
|
</trkpt>
|
|
<trkpt lat="55.572626" lon="8.211056">
|
|
<ele>10.572867</ele>
|
|
<time>2026-07-11T11:48:55.000Z</time>
|
|
</trkpt>
|
|
<trkpt lat="55.572595" lon="8.210973">
|
|
<ele>10.569925</ele>
|
|
<time>2026-07-11T11:48:56.000Z</time>
|
|
</trkpt>
|
|
<trkpt lat="55.572567" lon="8.210890">
|
|
<ele>10.567066</ele>
|
|
<time>2026-07-11T11:48:57.000Z</time>
|
|
</trkpt>
|
|
<trkpt lat="55.572540" lon="8.210805">
|
|
<ele>10.564182</ele>
|
|
<time>2026-07-11T11:48:58.000Z</time>
|
|
</trkpt>
|
|
<trkpt lat="55.572511" lon="8.210722">
|
|
<ele>10.561296</ele>
|
|
<time>2026-07-11T11:48:59.000Z</time>
|
|
</trkpt>
|
|
<trkpt lat="55.572481" lon="8.210643">
|
|
<ele>10.558481</ele>
|
|
<time>2026-07-11T11:49:00.000Z</time>
|
|
</trkpt>
|
|
<trkpt lat="55.572450" lon="8.210565">
|
|
<ele>10.555660</ele>
|
|
<time>2026-07-11T11:49:01.000Z</time>
|
|
</trkpt>
|
|
<trkpt lat="55.572420" lon="8.210488">
|
|
<ele>10.540623</ele>
|
|
<time>2026-07-11T11:49:02.000Z</time>
|
|
</trkpt>
|
|
<trkpt lat="55.572388" lon="8.210413">
|
|
<ele>10.518907</ele>
|
|
<time>2026-07-11T11:49:03.000Z</time>
|
|
</trkpt>
|
|
<trkpt lat="55.572355" lon="8.210339">
|
|
<ele>10.497124</ele>
|
|
<time>2026-07-11T11:49:04.000Z</time>
|
|
</trkpt>
|
|
<trkpt lat="55.572321" lon="8.210264">
|
|
<ele>10.474905</ele>
|
|
<time>2026-07-11T11:49:05.000Z</time>
|
|
</trkpt>
|
|
<trkpt lat="55.572283" lon="8.210191">
|
|
<ele>10.451971</ele>
|
|
<time>2026-07-11T11:49:06.000Z</time>
|
|
</trkpt>
|
|
<trkpt lat="55.572241" lon="8.210131">
|
|
<ele>10.429901</ele>
|
|
<time>2026-07-11T11:49:07.000Z</time>
|
|
</trkpt>
|
|
<trkpt lat="55.572194" lon="8.210080">
|
|
<ele>10.407360</ele>
|
|
<time>2026-07-11T11:49:08.000Z</time>
|
|
</trkpt>
|
|
<trkpt lat="55.572146" lon="8.210026">
|
|
<ele>10.384104</ele>
|
|
<time>2026-07-11T11:49:09.000Z</time>
|
|
</trkpt>
|
|
<trkpt lat="55.572102" lon="8.209968">
|
|
<ele>10.361672</ele>
|
|
<time>2026-07-11T11:49:10.000Z</time>
|
|
</trkpt>
|
|
<trkpt lat="55.572061" lon="8.209902">
|
|
<ele>10.339009</ele>
|
|
<time>2026-07-11T11:49:11.000Z</time>
|
|
</trkpt>
|
|
<trkpt lat="55.572021" lon="8.209831">
|
|
<ele>10.315843</ele>
|
|
<time>2026-07-11T11:49:12.000Z</time>
|
|
</trkpt>
|
|
<trkpt lat="55.571982" lon="8.209762">
|
|
<ele>10.293292</ele>
|
|
<time>2026-07-11T11:49:13.000Z</time>
|
|
</trkpt>
|
|
<trkpt lat="55.571944" lon="8.209695">
|
|
<ele>10.271358</ele>
|
|
<time>2026-07-11T11:49:14.000Z</time>
|
|
</trkpt>
|
|
<trkpt lat="55.571904" lon="8.209631">
|
|
<ele>10.249308</ele>
|
|
<time>2026-07-11T11:49:15.000Z</time>
|
|
</trkpt>
|
|
<trkpt lat="55.571862" lon="8.209565">
|
|
<ele>10.226341</ele>
|
|
<time>2026-07-11T11:49:16.000Z</time>
|
|
</trkpt>
|
|
<trkpt lat="55.571817" lon="8.209498">
|
|
<ele>10.202296</ele>
|
|
<time>2026-07-11T11:49:17.000Z</time>
|
|
</trkpt>
|
|
<trkpt lat="55.571769" lon="8.209431">
|
|
<ele>10.177299</ele>
|
|
<time>2026-07-11T11:49:18.000Z</time>
|
|
</trkpt>
|
|
<trkpt lat="55.571721" lon="8.209367">
|
|
<ele>10.152726</ele>
|
|
<time>2026-07-11T11:49:19.000Z</time>
|
|
</trkpt>
|
|
<trkpt lat="55.571671" lon="8.209301">
|
|
<ele>10.127221</ele>
|
|
<time>2026-07-11T11:49:20.000Z</time>
|
|
</trkpt>
|
|
<trkpt lat="55.571622" lon="8.209233">
|
|
<ele>10.101760</ele>
|
|
<time>2026-07-11T11:49:21.000Z</time>
|
|
</trkpt>
|
|
<trkpt lat="55.571574" lon="8.209165">
|
|
<ele>10.076620</ele>
|
|
<time>2026-07-11T11:49:22.000Z</time>
|
|
</trkpt>
|
|
<trkpt lat="55.571527" lon="8.209102">
|
|
<ele>10.052512</ele>
|
|
<time>2026-07-11T11:49:23.000Z</time>
|
|
</trkpt>
|
|
<trkpt lat="55.571479" lon="8.209042">
|
|
<ele>10.028484</ele>
|
|
<time>2026-07-11T11:49:24.000Z</time>
|
|
</trkpt>
|
|
<trkpt lat="55.571435" lon="8.208982">
|
|
<ele>10.005772</ele>
|
|
<time>2026-07-11T11:49:25.000Z</time>
|
|
</trkpt>
|
|
<trkpt lat="55.571390" lon="8.208920">
|
|
<ele>9.982453</ele>
|
|
<time>2026-07-11T11:49:26.000Z</time>
|
|
</trkpt>
|
|
<trkpt lat="55.571345" lon="8.208856">
|
|
<ele>9.958847</ele>
|
|
<time>2026-07-11T11:49:27.000Z</time>
|
|
</trkpt>
|
|
<trkpt lat="55.571299" lon="8.208795">
|
|
<ele>9.935344</ele>
|
|
<time>2026-07-11T11:49:28.000Z</time>
|
|
</trkpt>
|
|
<trkpt lat="55.571255" lon="8.208736">
|
|
<ele>9.912772</ele>
|
|
<time>2026-07-11T11:49:29.000Z</time>
|
|
</trkpt>
|
|
<trkpt lat="55.571212" lon="8.208678">
|
|
<ele>9.890666</ele>
|
|
<time>2026-07-11T11:49:30.000Z</time>
|
|
</trkpt>
|
|
<trkpt lat="55.571166" lon="8.208622">
|
|
<ele>9.867837</ele>
|
|
<time>2026-07-11T11:49:31.000Z</time>
|
|
</trkpt>
|
|
<trkpt lat="55.571122" lon="8.208564">
|
|
<ele>9.845404</ele>
|
|
<time>2026-07-11T11:49:32.000Z</time>
|
|
</trkpt>
|
|
<trkpt lat="55.571077" lon="8.208505">
|
|
<ele>9.822505</ele>
|
|
<time>2026-07-11T11:49:33.000Z</time>
|
|
</trkpt>
|
|
<trkpt lat="55.571027" lon="8.208443">
|
|
<ele>9.824735</ele>
|
|
<time>2026-07-11T11:49:34.000Z</time>
|
|
</trkpt>
|
|
<trkpt lat="55.570978" lon="8.208378">
|
|
<ele>9.830832</ele>
|
|
<time>2026-07-11T11:49:35.000Z</time>
|
|
</trkpt>
|
|
<trkpt lat="55.570928" lon="8.208308">
|
|
<ele>9.837179</ele>
|
|
<time>2026-07-11T11:49:36.000Z</time>
|
|
</trkpt>
|
|
<trkpt lat="55.570878" lon="8.208236">
|
|
<ele>9.843597</ele>
|
|
<time>2026-07-11T11:49:37.000Z</time>
|
|
</trkpt>
|
|
<trkpt lat="55.570829" lon="8.208165">
|
|
<ele>9.849902</ele>
|
|
<time>2026-07-11T11:49:38.000Z</time>
|
|
</trkpt>
|
|
<trkpt lat="55.570781" lon="8.208093">
|
|
<ele>9.856167</ele>
|
|
<time>2026-07-11T11:49:39.000Z</time>
|
|
</trkpt>
|
|
<trkpt lat="55.570734" lon="8.208022">
|
|
<ele>9.862320</ele>
|
|
<time>2026-07-11T11:49:40.000Z</time>
|
|
</trkpt>
|
|
<trkpt lat="55.570688" lon="8.207954">
|
|
<ele>9.868287</ele>
|
|
<time>2026-07-11T11:49:41.000Z</time>
|
|
</trkpt>
|
|
<trkpt lat="55.570644" lon="8.207887">
|
|
<ele>9.874066</ele>
|
|
<time>2026-07-11T11:49:42.000Z</time>
|
|
</trkpt>
|
|
<trkpt lat="55.570600" lon="8.207821">
|
|
<ele>9.879809</ele>
|
|
<time>2026-07-11T11:49:43.000Z</time>
|
|
</trkpt>
|
|
<trkpt lat="55.570557" lon="8.207755">
|
|
<ele>9.885476</ele>
|
|
<time>2026-07-11T11:49:44.000Z</time>
|
|
</trkpt>
|
|
<trkpt lat="55.570515" lon="8.207688">
|
|
<ele>9.891106</ele>
|
|
<time>2026-07-11T11:49:45.000Z</time>
|
|
</trkpt>
|
|
<trkpt lat="55.570473" lon="8.207620">
|
|
<ele>9.896774</ele>
|
|
<time>2026-07-11T11:49:46.000Z</time>
|
|
</trkpt>
|
|
<trkpt lat="55.570433" lon="8.207551">
|
|
<ele>9.902336</ele>
|
|
<time>2026-07-11T11:49:47.000Z</time>
|
|
</trkpt>
|
|
<trkpt lat="55.570395" lon="8.207479">
|
|
<ele>9.907879</ele>
|
|
<time>2026-07-11T11:49:48.000Z</time>
|
|
</trkpt>
|
|
<trkpt lat="55.570357" lon="8.207407">
|
|
<ele>9.913422</ele>
|
|
<time>2026-07-11T11:49:49.000Z</time>
|
|
</trkpt>
|
|
<trkpt lat="55.570320" lon="8.207336">
|
|
<ele>9.918856</ele>
|
|
<time>2026-07-11T11:49:50.000Z</time>
|
|
</trkpt>
|
|
<trkpt lat="55.570286" lon="8.207263">
|
|
<ele>9.924179</ele>
|
|
<time>2026-07-11T11:49:51.000Z</time>
|
|
</trkpt>
|
|
<trkpt lat="55.570252" lon="8.207191">
|
|
<ele>9.929458</ele>
|
|
<time>2026-07-11T11:49:52.000Z</time>
|
|
</trkpt>
|
|
<trkpt lat="55.570217" lon="8.207118">
|
|
<ele>9.934845</ele>
|
|
<time>2026-07-11T11:49:53.000Z</time>
|
|
</trkpt>
|
|
<trkpt lat="55.570185" lon="8.207045">
|
|
<ele>9.940044</ele>
|
|
<time>2026-07-11T11:49:54.000Z</time>
|
|
</trkpt>
|
|
<trkpt lat="55.570156" lon="8.206971">
|
|
<ele>9.945111</ele>
|
|
<time>2026-07-11T11:49:55.000Z</time>
|
|
</trkpt>
|
|
<trkpt lat="55.570129" lon="8.206900">
|
|
<ele>9.949926</ele>
|
|
<time>2026-07-11T11:49:56.000Z</time>
|
|
</trkpt>
|
|
<trkpt lat="55.570099" lon="8.206830">
|
|
<ele>9.954870</ele>
|
|
<time>2026-07-11T11:49:57.000Z</time>
|
|
</trkpt>
|
|
<trkpt lat="55.570069" lon="8.206757">
|
|
<ele>9.959949</ele>
|
|
<time>2026-07-11T11:49:58.000Z</time>
|
|
</trkpt>
|
|
<trkpt lat="55.570040" lon="8.206680">
|
|
<ele>9.965156</ele>
|
|
<time>2026-07-11T11:49:59.000Z</time>
|
|
</trkpt>
|
|
<trkpt lat="55.570011" lon="8.206601">
|
|
<ele>9.970457</ele>
|
|
<time>2026-07-11T11:50:00.000Z</time>
|
|
</trkpt>
|
|
<trkpt lat="55.569984" lon="8.206517">
|
|
<ele>9.975895</ele>
|
|
<time>2026-07-11T11:50:01.000Z</time>
|
|
</trkpt>
|
|
<trkpt lat="55.569956" lon="8.206430">
|
|
<ele>9.981529</ele>
|
|
<time>2026-07-11T11:50:02.000Z</time>
|
|
</trkpt>
|
|
<trkpt lat="55.569925" lon="8.206339">
|
|
<ele>9.987508</ele>
|
|
<time>2026-07-11T11:50:03.000Z</time>
|
|
</trkpt>
|
|
<trkpt lat="55.569893" lon="8.206252">
|
|
<ele>9.993349</ele>
|
|
<time>2026-07-11T11:50:04.000Z</time>
|
|
</trkpt>
|
|
<trkpt lat="55.569862" lon="8.206169">
|
|
<ele>9.998257</ele>
|
|
<time>2026-07-11T11:50:05.000Z</time>
|
|
</trkpt>
|
|
<trkpt lat="55.569835" lon="8.206089">
|
|
<ele>9.996282</ele>
|
|
<time>2026-07-11T11:50:06.000Z</time>
|
|
</trkpt>
|
|
<trkpt lat="55.569809" lon="8.206011">
|
|
<ele>9.994363</ele>
|
|
<time>2026-07-11T11:50:07.000Z</time>
|
|
</trkpt>
|
|
<trkpt lat="55.569784" lon="8.205932">
|
|
<ele>9.992444</ele>
|
|
<time>2026-07-11T11:50:08.000Z</time>
|
|
</trkpt>
|
|
<trkpt lat="55.569761" lon="8.205850">
|
|
<ele>9.990504</ele>
|
|
<time>2026-07-11T11:50:09.000Z</time>
|
|
</trkpt>
|
|
<trkpt lat="55.569738" lon="8.205771">
|
|
<ele>9.988620</ele>
|
|
<time>2026-07-11T11:50:10.000Z</time>
|
|
</trkpt>
|
|
<trkpt lat="55.569715" lon="8.205698">
|
|
<ele>9.986849</ele>
|
|
<time>2026-07-11T11:50:11.000Z</time>
|
|
</trkpt>
|
|
<trkpt lat="55.569694" lon="8.205628">
|
|
<ele>9.985169</ele>
|
|
<time>2026-07-11T11:50:12.000Z</time>
|
|
</trkpt>
|
|
<trkpt lat="55.569675" lon="8.205554">
|
|
<ele>9.983446</ele>
|
|
<time>2026-07-11T11:50:13.000Z</time>
|
|
</trkpt>
|
|
<trkpt lat="55.569655" lon="8.205481">
|
|
<ele>9.981727</ele>
|
|
<time>2026-07-11T11:50:14.000Z</time>
|
|
</trkpt>
|
|
<trkpt lat="55.569636" lon="8.205407">
|
|
<ele>9.980004</ele>
|
|
<time>2026-07-11T11:50:15.000Z</time>
|
|
</trkpt>
|
|
<trkpt lat="55.569617" lon="8.205328">
|
|
<ele>9.978184</ele>
|
|
<time>2026-07-11T11:50:16.000Z</time>
|
|
</trkpt>
|
|
<trkpt lat="55.569599" lon="8.205243">
|
|
<ele>9.976260</ele>
|
|
<time>2026-07-11T11:50:17.000Z</time>
|
|
</trkpt>
|
|
<trkpt lat="55.569578" lon="8.205158">
|
|
<ele>9.974294</ele>
|
|
<time>2026-07-11T11:50:18.000Z</time>
|
|
</trkpt>
|
|
<trkpt lat="55.569556" lon="8.205073">
|
|
<ele>9.972312</ele>
|
|
<time>2026-07-11T11:50:19.000Z</time>
|
|
</trkpt>
|
|
<trkpt lat="55.569537" lon="8.204986">
|
|
<ele>9.970335</ele>
|
|
<time>2026-07-11T11:50:20.000Z</time>
|
|
</trkpt>
|
|
<trkpt lat="55.569517" lon="8.204896">
|
|
<ele>9.968286</ele>
|
|
<time>2026-07-11T11:50:21.000Z</time>
|
|
</trkpt>
|
|
<trkpt lat="55.569494" lon="8.204803">
|
|
<ele>9.966134</ele>
|
|
<time>2026-07-11T11:50:22.000Z</time>
|
|
</trkpt>
|
|
<trkpt lat="55.569471" lon="8.204713">
|
|
<ele>9.964040</ele>
|
|
<time>2026-07-11T11:50:23.000Z</time>
|
|
</trkpt>
|
|
<trkpt lat="55.569448" lon="8.204624">
|
|
<ele>9.961966</ele>
|
|
<time>2026-07-11T11:50:24.000Z</time>
|
|
</trkpt>
|
|
<trkpt lat="55.569430" lon="8.204534">
|
|
<ele>9.959943</ele>
|
|
<time>2026-07-11T11:50:25.000Z</time>
|
|
</trkpt>
|
|
<trkpt lat="55.569415" lon="8.204444">
|
|
<ele>9.957954</ele>
|
|
<time>2026-07-11T11:50:26.000Z</time>
|
|
</trkpt>
|
|
<trkpt lat="55.569396" lon="8.204357">
|
|
<ele>9.955977</ele>
|
|
<time>2026-07-11T11:50:27.000Z</time>
|
|
</trkpt>
|
|
<trkpt lat="55.569377" lon="8.204270">
|
|
<ele>9.954000</ele>
|
|
<time>2026-07-11T11:50:28.000Z</time>
|
|
</trkpt>
|
|
<trkpt lat="55.569360" lon="8.204181">
|
|
<ele>9.952008</ele>
|
|
<time>2026-07-11T11:50:29.000Z</time>
|
|
</trkpt>
|
|
<trkpt lat="55.569343" lon="8.204095">
|
|
<ele>9.950077</ele>
|
|
<time>2026-07-11T11:50:30.000Z</time>
|
|
</trkpt>
|
|
<trkpt lat="55.569324" lon="8.204006">
|
|
<ele>9.948061</ele>
|
|
<time>2026-07-11T11:50:31.000Z</time>
|
|
</trkpt>
|
|
<trkpt lat="55.569305" lon="8.203919">
|
|
<ele>9.946084</ele>
|
|
<time>2026-07-11T11:50:32.000Z</time>
|
|
</trkpt>
|
|
<trkpt lat="55.569286" lon="8.203834">
|
|
<ele>9.944146</ele>
|
|
<time>2026-07-11T11:50:33.000Z</time>
|
|
</trkpt>
|
|
<trkpt lat="55.569268" lon="8.203747">
|
|
<ele>9.942183</ele>
|
|
<time>2026-07-11T11:50:34.000Z</time>
|
|
</trkpt>
|
|
<trkpt lat="55.569249" lon="8.203659">
|
|
<ele>9.940186</ele>
|
|
<time>2026-07-11T11:50:35.000Z</time>
|
|
</trkpt>
|
|
<trkpt lat="55.569228" lon="8.203569">
|
|
<ele>9.938122</ele>
|
|
<time>2026-07-11T11:50:36.000Z</time>
|
|
</trkpt>
|
|
<trkpt lat="55.569209" lon="8.203480">
|
|
<ele>9.936105</ele>
|
|
<time>2026-07-11T11:50:37.000Z</time>
|
|
</trkpt>
|
|
<trkpt lat="55.569192" lon="8.203397">
|
|
<ele>9.934234</ele>
|
|
<time>2026-07-11T11:50:38.000Z</time>
|
|
</trkpt>
|
|
<trkpt lat="55.569175" lon="8.203314">
|
|
<ele>9.932363</ele>
|
|
<time>2026-07-11T11:50:39.000Z</time>
|
|
</trkpt>
|
|
<trkpt lat="55.569161" lon="8.203230">
|
|
<ele>9.932923</ele>
|
|
<time>2026-07-11T11:50:40.000Z</time>
|
|
</trkpt>
|
|
<trkpt lat="55.569152" lon="8.203143">
|
|
<ele>9.939969</ele>
|
|
<time>2026-07-11T11:50:41.000Z</time>
|
|
</trkpt>
|
|
<trkpt lat="55.569138" lon="8.203054">
|
|
<ele>9.947328</ele>
|
|
<time>2026-07-11T11:50:42.000Z</time>
|
|
</trkpt>
|
|
<trkpt lat="55.569121" lon="8.202969">
|
|
<ele>9.954510</ele>
|
|
<time>2026-07-11T11:50:43.000Z</time>
|
|
</trkpt>
|
|
<trkpt lat="55.569104" lon="8.202885">
|
|
<ele>9.961617</ele>
|
|
<time>2026-07-11T11:50:44.000Z</time>
|
|
</trkpt>
|
|
<trkpt lat="55.569087" lon="8.202801">
|
|
<ele>9.968724</ele>
|
|
<time>2026-07-11T11:50:45.000Z</time>
|
|
</trkpt>
|
|
<trkpt lat="55.569070" lon="8.202718">
|
|
<ele>9.975757</ele>
|
|
<time>2026-07-11T11:50:46.000Z</time>
|
|
</trkpt>
|
|
<trkpt lat="55.569055" lon="8.202635">
|
|
<ele>9.982698</ele>
|
|
<time>2026-07-11T11:50:47.000Z</time>
|
|
</trkpt>
|
|
<trkpt lat="55.569039" lon="8.202548">
|
|
<ele>9.989986</ele>
|
|
<time>2026-07-11T11:50:48.000Z</time>
|
|
</trkpt>
|
|
<trkpt lat="55.569024" lon="8.202456">
|
|
<ele>9.997613</ele>
|
|
<time>2026-07-11T11:50:49.000Z</time>
|
|
</trkpt>
|
|
<trkpt lat="55.569009" lon="8.202364">
|
|
<ele>10.005241</ele>
|
|
<time>2026-07-11T11:50:50.000Z</time>
|
|
</trkpt>
|
|
<trkpt lat="55.568993" lon="8.202274">
|
|
<ele>10.012756</ele>
|
|
<time>2026-07-11T11:50:51.000Z</time>
|
|
</trkpt>
|
|
<trkpt lat="55.568978" lon="8.202180">
|
|
<ele>10.020537</ele>
|
|
<time>2026-07-11T11:50:52.000Z</time>
|
|
</trkpt>
|
|
<trkpt lat="55.568963" lon="8.202085">
|
|
<ele>10.028394</ele>
|
|
<time>2026-07-11T11:50:53.000Z</time>
|
|
</trkpt>
|
|
<trkpt lat="55.568948" lon="8.201990">
|
|
<ele>10.036252</ele>
|
|
<time>2026-07-11T11:50:54.000Z</time>
|
|
</trkpt>
|
|
<trkpt lat="55.568932" lon="8.201898">
|
|
<ele>10.043919</ele>
|
|
<time>2026-07-11T11:50:55.000Z</time>
|
|
</trkpt>
|
|
<trkpt lat="55.568915" lon="8.201808">
|
|
<ele>10.051478</ele>
|
|
<time>2026-07-11T11:50:56.000Z</time>
|
|
</trkpt>
|
|
<trkpt lat="55.568900" lon="8.201721">
|
|
<ele>10.058724</ele>
|
|
<time>2026-07-11T11:50:57.000Z</time>
|
|
</trkpt>
|
|
<trkpt lat="55.568887" lon="8.201637">
|
|
<ele>10.065662</ele>
|
|
<time>2026-07-11T11:50:58.000Z</time>
|
|
</trkpt>
|
|
<trkpt lat="55.568872" lon="8.201554">
|
|
<ele>10.072603</ele>
|
|
<time>2026-07-11T11:50:59.000Z</time>
|
|
</trkpt>
|
|
<trkpt lat="55.568858" lon="8.201468">
|
|
<ele>10.079732</ele>
|
|
<time>2026-07-11T11:51:00.000Z</time>
|
|
</trkpt>
|
|
<trkpt lat="55.568846" lon="8.201381">
|
|
<ele>10.086866</ele>
|
|
<time>2026-07-11T11:51:01.000Z</time>
|
|
</trkpt>
|
|
<trkpt lat="55.568835" lon="8.201293">
|
|
<ele>10.094045</ele>
|
|
<time>2026-07-11T11:51:02.000Z</time>
|
|
</trkpt>
|
|
<trkpt lat="55.568824" lon="8.201204">
|
|
<ele>10.101303</ele>
|
|
<time>2026-07-11T11:51:03.000Z</time>
|
|
</trkpt>
|
|
<trkpt lat="55.568812" lon="8.201115">
|
|
<ele>10.108591</ele>
|
|
<time>2026-07-11T11:51:04.000Z</time>
|
|
</trkpt>
|
|
<trkpt lat="55.568802" lon="8.201023">
|
|
<ele>10.116054</ele>
|
|
<time>2026-07-11T11:51:05.000Z</time>
|
|
</trkpt>
|
|
<trkpt lat="55.568793" lon="8.200928">
|
|
<ele>10.123728</ele>
|
|
<time>2026-07-11T11:51:06.000Z</time>
|
|
</trkpt>
|
|
<trkpt lat="55.568783" lon="8.200835">
|
|
<ele>10.131269</ele>
|
|
<time>2026-07-11T11:51:07.000Z</time>
|
|
</trkpt>
|
|
<trkpt lat="55.568776" lon="8.200742">
|
|
<ele>10.138743</ele>
|
|
<time>2026-07-11T11:51:08.000Z</time>
|
|
</trkpt>
|
|
<trkpt lat="55.568766" lon="8.200650">
|
|
<ele>10.146206</ele>
|
|
<time>2026-07-11T11:51:09.000Z</time>
|
|
</trkpt>
|
|
<trkpt lat="55.568755" lon="8.200562">
|
|
<ele>10.153385</ele>
|
|
<time>2026-07-11T11:51:10.000Z</time>
|
|
</trkpt>
|
|
<trkpt lat="55.568743" lon="8.200476">
|
|
<ele>10.160442</ele>
|
|
<time>2026-07-11T11:51:11.000Z</time>
|
|
</trkpt>
|
|
<trkpt lat="55.568734" lon="8.200390">
|
|
<ele>10.167409</ele>
|
|
<time>2026-07-11T11:51:12.000Z</time>
|
|
</trkpt>
|
|
<trkpt lat="55.568725" lon="8.200303">
|
|
<ele>10.174454</ele>
|
|
<time>2026-07-11T11:51:13.000Z</time>
|
|
</trkpt>
|
|
<trkpt lat="55.568714" lon="8.200213">
|
|
<ele>10.181790</ele>
|
|
<time>2026-07-11T11:51:14.000Z</time>
|
|
</trkpt>
|
|
<trkpt lat="55.568702" lon="8.200127">
|
|
<ele>10.178083</ele>
|
|
<time>2026-07-11T11:51:15.000Z</time>
|
|
</trkpt>
|
|
<trkpt lat="55.568689" lon="8.200045">
|
|
<ele>10.168353</ele>
|
|
<time>2026-07-11T11:51:16.000Z</time>
|
|
</trkpt>
|
|
<trkpt lat="55.568675" lon="8.199962">
|
|
<ele>10.158456</ele>
|
|
<time>2026-07-11T11:51:17.000Z</time>
|
|
</trkpt>
|
|
<trkpt lat="55.568665" lon="8.199877">
|
|
<ele>10.148536</ele>
|
|
<time>2026-07-11T11:51:18.000Z</time>
|
|
</trkpt>
|
|
<trkpt lat="55.568656" lon="8.199794">
|
|
<ele>10.138880</ele>
|
|
<time>2026-07-11T11:51:19.000Z</time>
|
|
</trkpt>
|
|
<trkpt lat="55.568644" lon="8.199709">
|
|
<ele>10.128870</ele>
|
|
<time>2026-07-11T11:51:20.000Z</time>
|
|
</trkpt>
|
|
<trkpt lat="55.568633" lon="8.199622">
|
|
<ele>10.118684</ele>
|
|
<time>2026-07-11T11:51:21.000Z</time>
|
|
</trkpt>
|
|
<trkpt lat="55.568623" lon="8.199533">
|
|
<ele>10.108317</ele>
|
|
<time>2026-07-11T11:51:22.000Z</time>
|
|
</trkpt>
|
|
<trkpt lat="55.568615" lon="8.199443">
|
|
<ele>10.097907</ele>
|
|
<time>2026-07-11T11:51:23.000Z</time>
|
|
</trkpt>
|
|
<trkpt lat="55.568608" lon="8.199357">
|
|
<ele>10.087980</ele>
|
|
<time>2026-07-11T11:51:24.000Z</time>
|
|
</trkpt>
|
|
<trkpt lat="55.568599" lon="8.199271">
|
|
<ele>10.077987</ele>
|
|
<time>2026-07-11T11:51:25.000Z</time>
|
|
</trkpt>
|
|
<trkpt lat="55.568590" lon="8.199186">
|
|
<ele>10.068106</ele>
|
|
<time>2026-07-11T11:51:26.000Z</time>
|
|
</trkpt>
|
|
<trkpt lat="55.568585" lon="8.199101">
|
|
<ele>10.058342</ele>
|
|
<time>2026-07-11T11:51:27.000Z</time>
|
|
</trkpt>
|
|
<trkpt lat="55.568577" lon="8.199019">
|
|
<ele>10.048834</ele>
|
|
<time>2026-07-11T11:51:28.000Z</time>
|
|
</trkpt>
|
|
<trkpt lat="55.568571" lon="8.198934">
|
|
<ele>10.039047</ele>
|
|
<time>2026-07-11T11:51:29.000Z</time>
|
|
</trkpt>
|
|
<trkpt lat="55.568569" lon="8.198846">
|
|
<ele>10.028984</ele>
|
|
<time>2026-07-11T11:51:30.000Z</time>
|
|
</trkpt>
|
|
<trkpt lat="55.568566" lon="8.198758">
|
|
<ele>10.018911</ele>
|
|
<time>2026-07-11T11:51:31.000Z</time>
|
|
</trkpt>
|
|
<trkpt lat="55.568562" lon="8.198666">
|
|
<ele>10.008368</ele>
|
|
<time>2026-07-11T11:51:32.000Z</time>
|
|
</trkpt>
|
|
<trkpt lat="55.568562" lon="8.198573">
|
|
<ele>9.997742</ele>
|
|
<time>2026-07-11T11:51:33.000Z</time>
|
|
</trkpt>
|
|
<trkpt lat="55.568560" lon="8.198478">
|
|
<ele>9.986880</ele>
|
|
<time>2026-07-11T11:51:34.000Z</time>
|
|
</trkpt>
|
|
<trkpt lat="55.568556" lon="8.198384">
|
|
<ele>9.976110</ele>
|
|
<time>2026-07-11T11:51:35.000Z</time>
|
|
</trkpt>
|
|
<trkpt lat="55.568552" lon="8.198295">
|
|
<ele>9.965909</ele>
|
|
<time>2026-07-11T11:51:36.000Z</time>
|
|
</trkpt>
|
|
<trkpt lat="55.568548" lon="8.198209">
|
|
<ele>9.956050</ele>
|
|
<time>2026-07-11T11:51:37.000Z</time>
|
|
</trkpt>
|
|
<trkpt lat="55.568545" lon="8.198122">
|
|
<ele>9.946091</ele>
|
|
<time>2026-07-11T11:51:38.000Z</time>
|
|
</trkpt>
|
|
<trkpt lat="55.568539" lon="8.198032">
|
|
<ele>9.935736</ele>
|
|
<time>2026-07-11T11:51:39.000Z</time>
|
|
</trkpt>
|
|
<trkpt lat="55.568535" lon="8.197943">
|
|
<ele>9.925535</ele>
|
|
<time>2026-07-11T11:51:40.000Z</time>
|
|
</trkpt>
|
|
<trkpt lat="55.568531" lon="8.197857">
|
|
<ele>9.915676</ele>
|
|
<time>2026-07-11T11:51:41.000Z</time>
|
|
</trkpt>
|
|
<trkpt lat="55.568526" lon="8.197769">
|
|
<ele>9.905571</ele>
|
|
<time>2026-07-11T11:51:42.000Z</time>
|
|
</trkpt>
|
|
<trkpt lat="55.568522" lon="8.197677">
|
|
<ele>9.895028</ele>
|
|
<time>2026-07-11T11:51:43.000Z</time>
|
|
</trkpt>
|
|
<trkpt lat="55.568520" lon="8.197580">
|
|
<ele>9.883937</ele>
|
|
<time>2026-07-11T11:51:44.000Z</time>
|
|
</trkpt>
|
|
<trkpt lat="55.568518" lon="8.197480">
|
|
<ele>9.872505</ele>
|
|
<time>2026-07-11T11:51:45.000Z</time>
|
|
</trkpt>
|
|
<trkpt lat="55.568514" lon="8.197384">
|
|
<ele>9.861506</ele>
|
|
<time>2026-07-11T11:51:46.000Z</time>
|
|
</trkpt>
|
|
<trkpt lat="55.568510" lon="8.197291">
|
|
<ele>9.850849</ele>
|
|
<time>2026-07-11T11:51:47.000Z</time>
|
|
</trkpt>
|
|
<trkpt lat="55.568508" lon="8.197199">
|
|
<ele>9.840330</ele>
|
|
<time>2026-07-11T11:51:48.000Z</time>
|
|
</trkpt>
|
|
<trkpt lat="55.568508" lon="8.197104">
|
|
<ele>9.829475</ele>
|
|
<time>2026-07-11T11:51:49.000Z</time>
|
|
</trkpt>
|
|
<trkpt lat="55.568506" lon="8.197006">
|
|
<ele>9.827617</ele>
|
|
<time>2026-07-11T11:51:50.000Z</time>
|
|
</trkpt>
|
|
<trkpt lat="55.568501" lon="8.196909">
|
|
<ele>9.855135</ele>
|
|
<time>2026-07-11T11:51:51.000Z</time>
|
|
</trkpt>
|
|
<trkpt lat="55.568495" lon="8.196816">
|
|
<ele>9.881578</ele>
|
|
<time>2026-07-11T11:51:52.000Z</time>
|
|
</trkpt>
|
|
<trkpt lat="55.568491" lon="8.196723">
|
|
<ele>9.907928</ele>
|
|
<time>2026-07-11T11:51:53.000Z</time>
|
|
</trkpt>
|
|
<trkpt lat="55.568489" lon="8.196629">
|
|
<ele>9.934503</ele>
|
|
<time>2026-07-11T11:51:54.000Z</time>
|
|
</trkpt>
|
|
<trkpt lat="55.568489" lon="8.196539">
|
|
<ele>9.959928</ele>
|
|
<time>2026-07-11T11:51:55.000Z</time>
|
|
</trkpt>
|
|
<trkpt lat="55.568487" lon="8.196451">
|
|
<ele>9.984809</ele>
|
|
<time>2026-07-11T11:51:56.000Z</time>
|
|
</trkpt>
|
|
<trkpt lat="55.568485" lon="8.196358">
|
|
<ele>10.011102</ele>
|
|
<time>2026-07-11T11:51:57.000Z</time>
|
|
</trkpt>
|
|
<trkpt lat="55.568485" lon="8.196264">
|
|
<ele>10.037658</ele>
|
|
<time>2026-07-11T11:51:58.000Z</time>
|
|
</trkpt>
|
|
<trkpt lat="55.568485" lon="8.196169">
|
|
<ele>10.064496</ele>
|
|
<time>2026-07-11T11:51:59.000Z</time>
|
|
</trkpt>
|
|
<trkpt lat="55.568485" lon="8.196074">
|
|
<ele>10.091335</ele>
|
|
<time>2026-07-11T11:52:00.000Z</time>
|
|
</trkpt>
|
|
<trkpt lat="55.568485" lon="8.195977">
|
|
<ele>10.118738</ele>
|
|
<time>2026-07-11T11:52:01.000Z</time>
|
|
</trkpt>
|
|
<trkpt lat="55.568485" lon="8.195883">
|
|
<ele>10.145294</ele>
|
|
<time>2026-07-11T11:52:02.000Z</time>
|
|
</trkpt>
|
|
<trkpt lat="55.568485" lon="8.195788">
|
|
<ele>10.172133</ele>
|
|
<time>2026-07-11T11:52:03.000Z</time>
|
|
</trkpt>
|
|
<trkpt lat="55.568484" lon="8.195692">
|
|
<ele>10.199258</ele>
|
|
<time>2026-07-11T11:52:04.000Z</time>
|
|
</trkpt>
|
|
<trkpt lat="55.568481" lon="8.195597">
|
|
<ele>10.226139</ele>
|
|
<time>2026-07-11T11:52:05.000Z</time>
|
|
</trkpt>
|
|
<trkpt lat="55.568481" lon="8.195507">
|
|
<ele>10.251564</ele>
|
|
<time>2026-07-11T11:52:06.000Z</time>
|
|
</trkpt>
|
|
<trkpt lat="55.568481" lon="8.195420">
|
|
<ele>10.276143</ele>
|
|
<time>2026-07-11T11:52:07.000Z</time>
|
|
</trkpt>
|
|
<trkpt lat="55.568481" lon="8.195335">
|
|
<ele>10.300156</ele>
|
|
<time>2026-07-11T11:52:08.000Z</time>
|
|
</trkpt>
|
|
<trkpt lat="55.568481" lon="8.195254">
|
|
<ele>10.323040</ele>
|
|
<time>2026-07-11T11:52:09.000Z</time>
|
|
</trkpt>
|
|
<trkpt lat="55.568481" lon="8.195174">
|
|
<ele>10.345640</ele>
|
|
<time>2026-07-11T11:52:10.000Z</time>
|
|
</trkpt>
|
|
<trkpt lat="55.568480" lon="8.195096">
|
|
<ele>10.367682</ele>
|
|
<time>2026-07-11T11:52:11.000Z</time>
|
|
</trkpt>
|
|
<trkpt lat="55.568479" lon="8.195023">
|
|
<ele>10.388311</ele>
|
|
<time>2026-07-11T11:52:12.000Z</time>
|
|
</trkpt>
|
|
<trkpt lat="55.568481" lon="8.194951">
|
|
<ele>10.408676</ele>
|
|
<time>2026-07-11T11:52:13.000Z</time>
|
|
</trkpt>
|
|
<trkpt lat="55.568481" lon="8.194876">
|
|
<ele>10.429865</ele>
|
|
<time>2026-07-11T11:52:14.000Z</time>
|
|
</trkpt>
|
|
<trkpt lat="55.568481" lon="8.194803">
|
|
<ele>10.450488</ele>
|
|
<time>2026-07-11T11:52:15.000Z</time>
|
|
</trkpt>
|
|
<trkpt lat="55.568483" lon="8.194723">
|
|
<ele>10.473111</ele>
|
|
<time>2026-07-11T11:52:16.000Z</time>
|
|
</trkpt>
|
|
<trkpt lat="55.568485" lon="8.194652">
|
|
<ele>10.493194</ele>
|
|
<time>2026-07-11T11:52:17.000Z</time>
|
|
</trkpt>
|
|
<trkpt lat="55.568485" lon="8.194587">
|
|
<ele>10.511557</ele>
|
|
<time>2026-07-11T11:52:18.000Z</time>
|
|
</trkpt>
|
|
<trkpt lat="55.568487" lon="8.194539">
|
|
<ele>10.525154</ele>
|
|
<time>2026-07-11T11:52:19.000Z</time>
|
|
</trkpt>
|
|
<trkpt lat="55.568497" lon="8.194477">
|
|
<ele>10.543369</ele>
|
|
<time>2026-07-11T11:53:34.000Z</time>
|
|
</trkpt>
|
|
<trkpt lat="55.568497" lon="8.194428">
|
|
<ele>10.557212</ele>
|
|
<time>2026-07-11T11:53:35.000Z</time>
|
|
</trkpt>
|
|
<trkpt lat="55.568495" lon="8.194384">
|
|
<ele>10.569682</ele>
|
|
<time>2026-07-11T11:53:36.000Z</time>
|
|
</trkpt>
|
|
<trkpt lat="55.568491" lon="8.194329">
|
|
<ele>10.585348</ele>
|
|
<time>2026-07-11T11:53:37.000Z</time>
|
|
</trkpt>
|
|
<trkpt lat="55.568489" lon="8.194268">
|
|
<ele>10.602610</ele>
|
|
<time>2026-07-11T11:53:38.000Z</time>
|
|
</trkpt>
|
|
<trkpt lat="55.568487" lon="8.194202">
|
|
<ele>10.621283</ele>
|
|
<time>2026-07-11T11:53:39.000Z</time>
|
|
</trkpt>
|
|
<trkpt lat="55.568484" lon="8.194137">
|
|
<ele>10.639707</ele>
|
|
<time>2026-07-11T11:53:40.000Z</time>
|
|
</trkpt>
|
|
<trkpt lat="55.568480" lon="8.194066">
|
|
<ele>10.659865</ele>
|
|
<time>2026-07-11T11:53:41.000Z</time>
|
|
</trkpt>
|
|
<trkpt lat="55.568476" lon="8.193987">
|
|
<ele>10.682272</ele>
|
|
<time>2026-07-11T11:53:42.000Z</time>
|
|
</trkpt>
|
|
<trkpt lat="55.568472" lon="8.193909">
|
|
<ele>10.704398</ele>
|
|
<time>2026-07-11T11:53:43.000Z</time>
|
|
</trkpt>
|
|
<trkpt lat="55.568468" lon="8.193829">
|
|
<ele>10.722238</ele>
|
|
<time>2026-07-11T11:53:44.000Z</time>
|
|
</trkpt>
|
|
<trkpt lat="55.568466" lon="8.193750">
|
|
<ele>10.730017</ele>
|
|
<time>2026-07-11T11:53:45.000Z</time>
|
|
</trkpt>
|
|
<trkpt lat="55.568466" lon="8.193669">
|
|
<ele>10.737985</ele>
|
|
<time>2026-07-11T11:53:46.000Z</time>
|
|
</trkpt>
|
|
<trkpt lat="55.568465" lon="8.193586">
|
|
<ele>10.746152</ele>
|
|
<time>2026-07-11T11:53:47.000Z</time>
|
|
</trkpt>
|
|
<trkpt lat="55.568462" lon="8.193502">
|
|
<ele>10.754431</ele>
|
|
<time>2026-07-11T11:53:48.000Z</time>
|
|
</trkpt>
|
|
<trkpt lat="55.568461" lon="8.193417">
|
|
<ele>10.762795</ele>
|
|
<time>2026-07-11T11:53:49.000Z</time>
|
|
</trkpt>
|
|
<trkpt lat="55.568459" lon="8.193331">
|
|
<ele>10.771262</ele>
|
|
<time>2026-07-11T11:53:50.000Z</time>
|
|
</trkpt>
|
|
<trkpt lat="55.568460" lon="8.193241">
|
|
<ele>10.780117</ele>
|
|
<time>2026-07-11T11:53:51.000Z</time>
|
|
</trkpt>
|
|
<trkpt lat="55.568462" lon="8.193150">
|
|
<ele>10.789076</ele>
|
|
<time>2026-07-11T11:53:52.000Z</time>
|
|
</trkpt>
|
|
<trkpt lat="55.568461" lon="8.193057">
|
|
<ele>10.798226</ele>
|
|
<time>2026-07-11T11:53:53.000Z</time>
|
|
</trkpt>
|
|
<trkpt lat="55.568459" lon="8.192965">
|
|
<ele>10.807283</ele>
|
|
<time>2026-07-11T11:53:54.000Z</time>
|
|
</trkpt>
|
|
<trkpt lat="55.568459" lon="8.192873">
|
|
<ele>10.816333</ele>
|
|
<time>2026-07-11T11:53:55.000Z</time>
|
|
</trkpt>
|
|
<trkpt lat="55.568459" lon="8.192782">
|
|
<ele>10.825285</ele>
|
|
<time>2026-07-11T11:53:56.000Z</time>
|
|
</trkpt>
|
|
<trkpt lat="55.568459" lon="8.192691">
|
|
<ele>10.834236</ele>
|
|
<time>2026-07-11T11:53:57.000Z</time>
|
|
</trkpt>
|
|
<trkpt lat="55.568459" lon="8.192599">
|
|
<ele>10.843286</ele>
|
|
<time>2026-07-11T11:53:58.000Z</time>
|
|
</trkpt>
|
|
<trkpt lat="55.568459" lon="8.192507">
|
|
<ele>10.852337</ele>
|
|
<time>2026-07-11T11:53:59.000Z</time>
|
|
</trkpt>
|
|
<trkpt lat="55.568459" lon="8.192414">
|
|
<ele>10.861485</ele>
|
|
<time>2026-07-11T11:54:00.000Z</time>
|
|
</trkpt>
|
|
<trkpt lat="55.568460" lon="8.192319">
|
|
<ele>10.870832</ele>
|
|
<time>2026-07-11T11:54:01.000Z</time>
|
|
</trkpt>
|
|
<trkpt lat="55.568462" lon="8.192224">
|
|
<ele>10.880184</ele>
|
|
<time>2026-07-11T11:54:02.000Z</time>
|
|
</trkpt>
|
|
<trkpt lat="55.568464" lon="8.192130">
|
|
<ele>10.889437</ele>
|
|
<time>2026-07-11T11:54:03.000Z</time>
|
|
</trkpt>
|
|
<trkpt lat="55.568466" lon="8.192035">
|
|
<ele>10.898789</ele>
|
|
<time>2026-07-11T11:54:04.000Z</time>
|
|
</trkpt>
|
|
<trkpt lat="55.568466" lon="8.191939">
|
|
<ele>10.908233</ele>
|
|
<time>2026-07-11T11:54:05.000Z</time>
|
|
</trkpt>
|
|
<trkpt lat="55.568465" lon="8.191843">
|
|
<ele>10.917678</ele>
|
|
<time>2026-07-11T11:54:06.000Z</time>
|
|
</trkpt>
|
|
<trkpt lat="55.568461" lon="8.191748">
|
|
<ele>10.927049</ele>
|
|
<time>2026-07-11T11:54:07.000Z</time>
|
|
</trkpt>
|
|
<trkpt lat="55.568459" lon="8.191656">
|
|
<ele>10.936106</ele>
|
|
<time>2026-07-11T11:54:08.000Z</time>
|
|
</trkpt>
|
|
<trkpt lat="55.568459" lon="8.191566">
|
|
<ele>10.944959</ele>
|
|
<time>2026-07-11T11:54:09.000Z</time>
|
|
</trkpt>
|
|
<trkpt lat="55.568459" lon="8.191476">
|
|
<ele>10.953813</ele>
|
|
<time>2026-07-11T11:54:10.000Z</time>
|
|
</trkpt>
|
|
<trkpt lat="55.568457" lon="8.191388">
|
|
<ele>10.962476</ele>
|
|
<time>2026-07-11T11:54:11.000Z</time>
|
|
</trkpt>
|
|
<trkpt lat="55.568451" lon="8.191297">
|
|
<ele>10.971489</ele>
|
|
<time>2026-07-11T11:54:12.000Z</time>
|
|
</trkpt>
|
|
<trkpt lat="55.568445" lon="8.191210">
|
|
<ele>10.980111</ele>
|
|
<time>2026-07-11T11:54:13.000Z</time>
|
|
</trkpt>
|
|
<trkpt lat="55.568443" lon="8.191123">
|
|
<ele>10.988676</ele>
|
|
<time>2026-07-11T11:54:14.000Z</time>
|
|
</trkpt>
|
|
<trkpt lat="55.568440" lon="8.191034">
|
|
<ele>10.997447</ele>
|
|
<time>2026-07-11T11:54:15.000Z</time>
|
|
</trkpt>
|
|
<trkpt lat="55.568433" lon="8.190946">
|
|
<ele>11.006189</ele>
|
|
<time>2026-07-11T11:54:16.000Z</time>
|
|
</trkpt>
|
|
<trkpt lat="55.568425" lon="8.190858">
|
|
<ele>11.014956</ele>
|
|
<time>2026-07-11T11:54:17.000Z</time>
|
|
</trkpt>
|
|
<trkpt lat="55.568417" lon="8.190764">
|
|
<ele>11.024308</ele>
|
|
<time>2026-07-11T11:54:18.000Z</time>
|
|
</trkpt>
|
|
<trkpt lat="55.568409" lon="8.190668">
|
|
<ele>11.032944</ele>
|
|
<time>2026-07-11T11:54:19.000Z</time>
|
|
</trkpt>
|
|
<trkpt lat="55.568402" lon="8.190574">
|
|
<ele>11.035645</ele>
|
|
<time>2026-07-11T11:54:20.000Z</time>
|
|
</trkpt>
|
|
<trkpt lat="55.568394" lon="8.190483">
|
|
<ele>11.038269</ele>
|
|
<time>2026-07-11T11:54:21.000Z</time>
|
|
</trkpt>
|
|
<trkpt lat="55.568385" lon="8.190390">
|
|
<ele>11.040957</ele>
|
|
<time>2026-07-11T11:54:22.000Z</time>
|
|
</trkpt>
|
|
<trkpt lat="55.568375" lon="8.190293">
|
|
<ele>11.043767</ele>
|
|
<time>2026-07-11T11:54:23.000Z</time>
|
|
</trkpt>
|
|
<trkpt lat="55.568366" lon="8.190194">
|
|
<ele>11.046624</ele>
|
|
<time>2026-07-11T11:54:24.000Z</time>
|
|
</trkpt>
|
|
<trkpt lat="55.568356" lon="8.190095">
|
|
<ele>11.049489</ele>
|
|
<time>2026-07-11T11:54:25.000Z</time>
|
|
</trkpt>
|
|
<trkpt lat="55.568345" lon="8.189999">
|
|
<ele>11.052280</ele>
|
|
<time>2026-07-11T11:54:26.000Z</time>
|
|
</trkpt>
|
|
<trkpt lat="55.568332" lon="8.189904">
|
|
<ele>11.055065</ele>
|
|
<time>2026-07-11T11:54:27.000Z</time>
|
|
</trkpt>
|
|
<trkpt lat="55.568320" lon="8.189808">
|
|
<ele>11.057866</ele>
|
|
<time>2026-07-11T11:54:28.000Z</time>
|
|
</trkpt>
|
|
<trkpt lat="55.568309" lon="8.189717">
|
|
<ele>11.060517</ele>
|
|
<time>2026-07-11T11:54:29.000Z</time>
|
|
</trkpt>
|
|
<trkpt lat="55.568299" lon="8.189624">
|
|
<ele>11.063214</ele>
|
|
<time>2026-07-11T11:54:30.000Z</time>
|
|
</trkpt>
|
|
<trkpt lat="55.568290" lon="8.189529">
|
|
<ele>11.065959</ele>
|
|
<time>2026-07-11T11:54:31.000Z</time>
|
|
</trkpt>
|
|
<trkpt lat="55.568278" lon="8.189437">
|
|
<ele>11.068649</ele>
|
|
<time>2026-07-11T11:54:32.000Z</time>
|
|
</trkpt>
|
|
<trkpt lat="55.568267" lon="8.189346">
|
|
<ele>11.071300</ele>
|
|
<time>2026-07-11T11:54:33.000Z</time>
|
|
</trkpt>
|
|
<trkpt lat="55.568254" lon="8.189252">
|
|
<ele>11.074058</ele>
|
|
<time>2026-07-11T11:54:34.000Z</time>
|
|
</trkpt>
|
|
<trkpt lat="55.568240" lon="8.189154">
|
|
<ele>11.076938</ele>
|
|
<time>2026-07-11T11:54:35.000Z</time>
|
|
</trkpt>
|
|
<trkpt lat="55.568230" lon="8.189054">
|
|
<ele>11.079831</ele>
|
|
<time>2026-07-11T11:54:36.000Z</time>
|
|
</trkpt>
|
|
<trkpt lat="55.568221" lon="8.188955">
|
|
<ele>11.082688</ele>
|
|
<time>2026-07-11T11:54:37.000Z</time>
|
|
</trkpt>
|
|
<trkpt lat="55.568210" lon="8.188860">
|
|
<ele>11.085451</ele>
|
|
<time>2026-07-11T11:54:38.000Z</time>
|
|
</trkpt>
|
|
<trkpt lat="55.568198" lon="8.188762">
|
|
<ele>11.088308</ele>
|
|
<time>2026-07-11T11:54:39.000Z</time>
|
|
</trkpt>
|
|
<trkpt lat="55.568188" lon="8.188661">
|
|
<ele>11.091229</ele>
|
|
<time>2026-07-11T11:54:40.000Z</time>
|
|
</trkpt>
|
|
<trkpt lat="55.568179" lon="8.188563">
|
|
<ele>11.094058</ele>
|
|
<time>2026-07-11T11:54:41.000Z</time>
|
|
</trkpt>
|
|
<trkpt lat="55.568169" lon="8.188465">
|
|
<ele>11.096895</ele>
|
|
<time>2026-07-11T11:54:42.000Z</time>
|
|
</trkpt>
|
|
<trkpt lat="55.568160" lon="8.188365">
|
|
<ele>11.099780</ele>
|
|
<time>2026-07-11T11:54:43.000Z</time>
|
|
</trkpt>
|
|
<trkpt lat="55.568148" lon="8.188268">
|
|
<ele>11.102609</ele>
|
|
<time>2026-07-11T11:54:44.000Z</time>
|
|
</trkpt>
|
|
<trkpt lat="55.568139" lon="8.188173">
|
|
<ele>11.105354</ele>
|
|
<time>2026-07-11T11:54:45.000Z</time>
|
|
</trkpt>
|
|
<trkpt lat="55.568129" lon="8.188075">
|
|
<ele>11.108191</ele>
|
|
<time>2026-07-11T11:54:46.000Z</time>
|
|
</trkpt>
|
|
<trkpt lat="55.568118" lon="8.187984">
|
|
<ele>11.110843</ele>
|
|
<time>2026-07-11T11:54:47.000Z</time>
|
|
</trkpt>
|
|
<trkpt lat="55.568107" lon="8.187899">
|
|
<ele>11.113327</ele>
|
|
<time>2026-07-11T11:54:48.000Z</time>
|
|
</trkpt>
|
|
<trkpt lat="55.568095" lon="8.187806">
|
|
<ele>11.116045</ele>
|
|
<time>2026-07-11T11:54:49.000Z</time>
|
|
</trkpt>
|
|
<trkpt lat="55.568083" lon="8.187718">
|
|
<ele>11.118624</ele>
|
|
<time>2026-07-11T11:54:50.000Z</time>
|
|
</trkpt>
|
|
<trkpt lat="55.568072" lon="8.187630">
|
|
<ele>11.121192</ele>
|
|
<time>2026-07-11T11:54:51.000Z</time>
|
|
</trkpt>
|
|
<trkpt lat="55.568062" lon="8.187537">
|
|
<ele>11.126988</ele>
|
|
<time>2026-07-11T11:54:52.000Z</time>
|
|
</trkpt>
|
|
<trkpt lat="55.568055" lon="8.187445">
|
|
<ele>11.141655</ele>
|
|
<time>2026-07-11T11:54:53.000Z</time>
|
|
</trkpt>
|
|
<trkpt lat="55.568046" lon="8.187354">
|
|
<ele>11.156251</ele>
|
|
<time>2026-07-11T11:54:54.000Z</time>
|
|
</trkpt>
|
|
<trkpt lat="55.568036" lon="8.187262">
|
|
<ele>11.171053</ele>
|
|
<time>2026-07-11T11:54:55.000Z</time>
|
|
</trkpt>
|
|
<trkpt lat="55.568025" lon="8.187169">
|
|
<ele>11.186065</ele>
|
|
<time>2026-07-11T11:54:56.000Z</time>
|
|
</trkpt>
|
|
<trkpt lat="55.568011" lon="8.187079">
|
|
<ele>11.200814</ele>
|
|
<time>2026-07-11T11:54:57.000Z</time>
|
|
</trkpt>
|
|
<trkpt lat="55.568000" lon="8.186990">
|
|
<ele>11.215208</ele>
|
|
<time>2026-07-11T11:54:58.000Z</time>
|
|
</trkpt>
|
|
<trkpt lat="55.567990" lon="8.186901">
|
|
<ele>11.229544</ele>
|
|
<time>2026-07-11T11:54:59.000Z</time>
|
|
</trkpt>
|
|
<trkpt lat="55.567981" lon="8.186810">
|
|
<ele>11.244141</ele>
|
|
<time>2026-07-11T11:55:00.000Z</time>
|
|
</trkpt>
|
|
<trkpt lat="55.567969" lon="8.186716">
|
|
<ele>11.259366</ele>
|
|
<time>2026-07-11T11:55:01.000Z</time>
|
|
</trkpt>
|
|
<trkpt lat="55.567959" lon="8.186625">
|
|
<ele>11.274013</ele>
|
|
<time>2026-07-11T11:55:02.000Z</time>
|
|
</trkpt>
|
|
<trkpt lat="55.567950" lon="8.186534">
|
|
<ele>11.288610</ele>
|
|
<time>2026-07-11T11:55:03.000Z</time>
|
|
</trkpt>
|
|
<trkpt lat="55.567939" lon="8.186444">
|
|
<ele>11.303158</ele>
|
|
<time>2026-07-11T11:55:04.000Z</time>
|
|
</trkpt>
|
|
<trkpt lat="55.567927" lon="8.186357">
|
|
<ele>11.317307</ele>
|
|
<time>2026-07-11T11:55:05.000Z</time>
|
|
</trkpt>
|
|
<trkpt lat="55.567916" lon="8.186268">
|
|
<ele>11.331701</ele>
|
|
<time>2026-07-11T11:55:06.000Z</time>
|
|
</trkpt>
|
|
<trkpt lat="55.567904" lon="8.186178">
|
|
<ele>11.346311</ele>
|
|
<time>2026-07-11T11:55:07.000Z</time>
|
|
</trkpt>
|
|
<trkpt lat="55.567894" lon="8.186091">
|
|
<ele>11.360338</ele>
|
|
<time>2026-07-11T11:55:08.000Z</time>
|
|
</trkpt>
|
|
<trkpt lat="55.567885" lon="8.186002">
|
|
<ele>11.374623</ele>
|
|
<time>2026-07-11T11:55:09.000Z</time>
|
|
</trkpt>
|
|
<trkpt lat="55.567874" lon="8.185912">
|
|
<ele>11.389172</ele>
|
|
<time>2026-07-11T11:55:10.000Z</time>
|
|
</trkpt>
|
|
<trkpt lat="55.567861" lon="8.185823">
|
|
<ele>11.403695</ele>
|
|
<time>2026-07-11T11:55:11.000Z</time>
|
|
</trkpt>
|
|
<trkpt lat="55.567847" lon="8.185731">
|
|
<ele>11.418748</ele>
|
|
<time>2026-07-11T11:55:12.000Z</time>
|
|
</trkpt>
|
|
<trkpt lat="55.567836" lon="8.185641">
|
|
<ele>11.433297</ele>
|
|
<time>2026-07-11T11:55:13.000Z</time>
|
|
</trkpt>
|
|
<trkpt lat="55.567824" lon="8.185554">
|
|
<ele>11.447446</ele>
|
|
<time>2026-07-11T11:55:14.000Z</time>
|
|
</trkpt>
|
|
<trkpt lat="55.567813" lon="8.185465">
|
|
<ele>11.461840</ele>
|
|
<time>2026-07-11T11:55:15.000Z</time>
|
|
</trkpt>
|
|
<trkpt lat="55.567801" lon="8.185374">
|
|
<ele>11.476604</ele>
|
|
<time>2026-07-11T11:55:16.000Z</time>
|
|
</trkpt>
|
|
<trkpt lat="55.567790" lon="8.185286">
|
|
<ele>11.490843</ele>
|
|
<time>2026-07-11T11:55:17.000Z</time>
|
|
</trkpt>
|
|
<trkpt lat="55.567778" lon="8.185201">
|
|
<ele>11.504686</ele>
|
|
<time>2026-07-11T11:55:18.000Z</time>
|
|
</trkpt>
|
|
<trkpt lat="55.567767" lon="8.185115">
|
|
<ele>11.518617</ele>
|
|
<time>2026-07-11T11:55:19.000Z</time>
|
|
</trkpt>
|
|
<trkpt lat="55.567757" lon="8.185028">
|
|
<ele>11.532644</ele>
|
|
<time>2026-07-11T11:55:20.000Z</time>
|
|
</trkpt>
|
|
<trkpt lat="55.567750" lon="8.184942">
|
|
<ele>11.546372</ele>
|
|
<time>2026-07-11T11:55:21.000Z</time>
|
|
</trkpt>
|
|
<trkpt lat="55.567740" lon="8.184855">
|
|
<ele>11.560399</ele>
|
|
<time>2026-07-11T11:55:22.000Z</time>
|
|
</trkpt>
|
|
<trkpt lat="55.567729" lon="8.184768">
|
|
<ele>11.574485</ele>
|
|
<time>2026-07-11T11:55:23.000Z</time>
|
|
</trkpt>
|
|
<trkpt lat="55.567716" lon="8.184682">
|
|
<ele>11.588550</ele>
|
|
<time>2026-07-11T11:55:24.000Z</time>
|
|
</trkpt>
|
|
<trkpt lat="55.567702" lon="8.184595">
|
|
<ele>11.602842</ele>
|
|
<time>2026-07-11T11:55:25.000Z</time>
|
|
</trkpt>
|
|
<trkpt lat="55.567691" lon="8.184507">
|
|
<ele>11.617082</ele>
|
|
<time>2026-07-11T11:55:26.000Z</time>
|
|
</trkpt>
|
|
<trkpt lat="55.567679" lon="8.184419">
|
|
<ele>11.623277</ele>
|
|
<time>2026-07-11T11:55:27.000Z</time>
|
|
</trkpt>
|
|
<trkpt lat="55.567666" lon="8.184328">
|
|
<ele>11.616549</ele>
|
|
<time>2026-07-11T11:55:28.000Z</time>
|
|
</trkpt>
|
|
<trkpt lat="55.567652" lon="8.184240">
|
|
<ele>11.609996</ele>
|
|
<time>2026-07-11T11:55:29.000Z</time>
|
|
</trkpt>
|
|
<trkpt lat="55.567638" lon="8.184153">
|
|
<ele>11.603511</ele>
|
|
<time>2026-07-11T11:55:30.000Z</time>
|
|
</trkpt>
|
|
<trkpt lat="55.567621" lon="8.184065">
|
|
<ele>11.596845</ele>
|
|
<time>2026-07-11T11:55:31.000Z</time>
|
|
</trkpt>
|
|
<trkpt lat="55.567603" lon="8.183975">
|
|
<ele>11.590001</ele>
|
|
<time>2026-07-11T11:55:32.000Z</time>
|
|
</trkpt>
|
|
<trkpt lat="55.567583" lon="8.183887">
|
|
<ele>11.583202</ele>
|
|
<time>2026-07-11T11:55:33.000Z</time>
|
|
</trkpt>
|
|
<trkpt lat="55.567560" lon="8.183799">
|
|
<ele>11.576252</ele>
|
|
<time>2026-07-11T11:55:34.000Z</time>
|
|
</trkpt>
|
|
<trkpt lat="55.567537" lon="8.183710">
|
|
<ele>11.569238</ele>
|
|
<time>2026-07-11T11:55:35.000Z</time>
|
|
</trkpt>
|
|
<trkpt lat="55.567514" lon="8.183619">
|
|
<ele>11.562092</ele>
|
|
<time>2026-07-11T11:55:36.000Z</time>
|
|
</trkpt>
|
|
<trkpt lat="55.567489" lon="8.183528">
|
|
<ele>11.554839</ele>
|
|
<time>2026-07-11T11:55:37.000Z</time>
|
|
</trkpt>
|
|
<trkpt lat="55.567463" lon="8.183438">
|
|
<ele>11.547594</ele>
|
|
<time>2026-07-11T11:55:38.000Z</time>
|
|
</trkpt>
|
|
<trkpt lat="55.567436" lon="8.183341">
|
|
<ele>11.539844</ele>
|
|
<time>2026-07-11T11:55:39.000Z</time>
|
|
</trkpt>
|
|
<trkpt lat="55.567409" lon="8.183242">
|
|
<ele>11.531964</ele>
|
|
<time>2026-07-11T11:55:40.000Z</time>
|
|
</trkpt>
|
|
<trkpt lat="55.567381" lon="8.183144">
|
|
<ele>11.524093</ele>
|
|
<time>2026-07-11T11:55:41.000Z</time>
|
|
</trkpt>
|
|
<trkpt lat="55.567351" lon="8.183050">
|
|
<ele>11.516355</ele>
|
|
<time>2026-07-11T11:55:42.000Z</time>
|
|
</trkpt>
|
|
<trkpt lat="55.567323" lon="8.182957">
|
|
<ele>11.508802</ele>
|
|
<time>2026-07-11T11:55:43.000Z</time>
|
|
</trkpt>
|
|
<trkpt lat="55.567295" lon="8.182861">
|
|
<ele>11.501058</ele>
|
|
<time>2026-07-11T11:55:44.000Z</time>
|
|
</trkpt>
|
|
<trkpt lat="55.567263" lon="8.182760">
|
|
<ele>11.492759</ele>
|
|
<time>2026-07-11T11:55:45.000Z</time>
|
|
</trkpt>
|
|
<trkpt lat="55.567232" lon="8.182666">
|
|
<ele>11.484958</ele>
|
|
<time>2026-07-11T11:55:46.000Z</time>
|
|
</trkpt>
|
|
<trkpt lat="55.567202" lon="8.182573">
|
|
<ele>11.477282</ele>
|
|
<time>2026-07-11T11:55:47.000Z</time>
|
|
</trkpt>
|
|
<trkpt lat="55.567172" lon="8.182483">
|
|
<ele>11.469793</ele>
|
|
<time>2026-07-11T11:55:48.000Z</time>
|
|
</trkpt>
|
|
<trkpt lat="55.567143" lon="8.182392">
|
|
<ele>11.462305</ele>
|
|
<time>2026-07-11T11:55:49.000Z</time>
|
|
</trkpt>
|
|
<trkpt lat="55.567114" lon="8.182304">
|
|
<ele>11.455003</ele>
|
|
<time>2026-07-11T11:55:50.000Z</time>
|
|
</trkpt>
|
|
<trkpt lat="55.567086" lon="8.182216">
|
|
<ele>11.447764</ele>
|
|
<time>2026-07-11T11:55:51.000Z</time>
|
|
</trkpt>
|
|
<trkpt lat="55.567059" lon="8.182126">
|
|
<ele>11.440460</ele>
|
|
<time>2026-07-11T11:55:52.000Z</time>
|
|
</trkpt>
|
|
<trkpt lat="55.567032" lon="8.182041">
|
|
<ele>11.433471</ele>
|
|
<time>2026-07-11T11:55:53.000Z</time>
|
|
</trkpt>
|
|
<trkpt lat="55.567007" lon="8.181952">
|
|
<ele>11.426347</ele>
|
|
<time>2026-07-11T11:55:54.000Z</time>
|
|
</trkpt>
|
|
<trkpt lat="55.566982" lon="8.181863">
|
|
<ele>11.419223</ele>
|
|
<time>2026-07-11T11:55:55.000Z</time>
|
|
</trkpt>
|
|
<trkpt lat="55.566957" lon="8.181775">
|
|
<ele>11.412163</ele>
|
|
<time>2026-07-11T11:55:56.000Z</time>
|
|
</trkpt>
|
|
<trkpt lat="55.566934" lon="8.181689">
|
|
<ele>11.405343</ele>
|
|
<time>2026-07-11T11:55:57.000Z</time>
|
|
</trkpt>
|
|
<trkpt lat="55.566911" lon="8.181605">
|
|
<ele>11.398652</ele>
|
|
<time>2026-07-11T11:55:58.000Z</time>
|
|
</trkpt>
|
|
<trkpt lat="55.566887" lon="8.181522">
|
|
<ele>11.397649</ele>
|
|
<time>2026-07-11T11:55:59.000Z</time>
|
|
</trkpt>
|
|
<trkpt lat="55.566860" lon="8.181437">
|
|
<ele>11.397501</ele>
|
|
<time>2026-07-11T11:56:00.000Z</time>
|
|
</trkpt>
|
|
<trkpt lat="55.566835" lon="8.181349">
|
|
<ele>11.397351</ele>
|
|
<time>2026-07-11T11:56:01.000Z</time>
|
|
</trkpt>
|
|
<trkpt lat="55.566811" lon="8.181260">
|
|
<ele>11.397201</ele>
|
|
<time>2026-07-11T11:56:02.000Z</time>
|
|
</trkpt>
|
|
<trkpt lat="55.566786" lon="8.181175">
|
|
<ele>11.397055</ele>
|
|
<time>2026-07-11T11:56:03.000Z</time>
|
|
</trkpt>
|
|
<trkpt lat="55.566761" lon="8.181090">
|
|
<ele>11.396909</ele>
|
|
<time>2026-07-11T11:56:04.000Z</time>
|
|
</trkpt>
|
|
<trkpt lat="55.566736" lon="8.181005">
|
|
<ele>11.396763</ele>
|
|
<time>2026-07-11T11:56:05.000Z</time>
|
|
</trkpt>
|
|
<trkpt lat="55.566713" lon="8.180924">
|
|
<ele>11.396625</ele>
|
|
<time>2026-07-11T11:56:06.000Z</time>
|
|
</trkpt>
|
|
<trkpt lat="55.566690" lon="8.180841">
|
|
<ele>11.396485</ele>
|
|
<time>2026-07-11T11:56:07.000Z</time>
|
|
</trkpt>
|
|
<trkpt lat="55.566666" lon="8.180758">
|
|
<ele>11.396343</ele>
|
|
<time>2026-07-11T11:56:08.000Z</time>
|
|
</trkpt>
|
|
<trkpt lat="55.566641" lon="8.180675">
|
|
<ele>11.396199</ele>
|
|
<time>2026-07-11T11:56:09.000Z</time>
|
|
</trkpt>
|
|
<trkpt lat="55.566618" lon="8.180590">
|
|
<ele>11.396056</ele>
|
|
<time>2026-07-11T11:56:10.000Z</time>
|
|
</trkpt>
|
|
<trkpt lat="55.566594" lon="8.180507">
|
|
<ele>11.395914</ele>
|
|
<time>2026-07-11T11:56:11.000Z</time>
|
|
</trkpt>
|
|
<trkpt lat="55.566567" lon="8.180421">
|
|
<ele>11.395764</ele>
|
|
<time>2026-07-11T11:56:12.000Z</time>
|
|
</trkpt>
|
|
<trkpt lat="55.566540" lon="8.180333">
|
|
<ele>11.395612</ele>
|
|
<time>2026-07-11T11:56:13.000Z</time>
|
|
</trkpt>
|
|
<trkpt lat="55.566515" lon="8.180244">
|
|
<ele>11.395461</ele>
|
|
<time>2026-07-11T11:56:14.000Z</time>
|
|
</trkpt>
|
|
<trkpt lat="55.566490" lon="8.180156">
|
|
<ele>11.395311</ele>
|
|
<time>2026-07-11T11:56:15.000Z</time>
|
|
</trkpt>
|
|
<trkpt lat="55.566464" lon="8.180068">
|
|
<ele>11.395160</ele>
|
|
<time>2026-07-11T11:56:16.000Z</time>
|
|
</trkpt>
|
|
<trkpt lat="55.566437" lon="8.179978">
|
|
<ele>11.395004</ele>
|
|
<time>2026-07-11T11:56:17.000Z</time>
|
|
</trkpt>
|
|
<trkpt lat="55.566410" lon="8.179891">
|
|
<ele>11.394853</ele>
|
|
<time>2026-07-11T11:56:18.000Z</time>
|
|
</trkpt>
|
|
<trkpt lat="55.566384" lon="8.179804">
|
|
<ele>11.394704</ele>
|
|
<time>2026-07-11T11:56:19.000Z</time>
|
|
</trkpt>
|
|
<trkpt lat="55.566357" lon="8.179716">
|
|
<ele>11.394551</ele>
|
|
<time>2026-07-11T11:56:20.000Z</time>
|
|
</trkpt>
|
|
<trkpt lat="55.566329" lon="8.179629">
|
|
<ele>11.394399</ele>
|
|
<time>2026-07-11T11:56:21.000Z</time>
|
|
</trkpt>
|
|
<trkpt lat="55.566300" lon="8.179541">
|
|
<ele>11.394244</ele>
|
|
<time>2026-07-11T11:56:22.000Z</time>
|
|
</trkpt>
|
|
<trkpt lat="55.566273" lon="8.179452">
|
|
<ele>11.394090</ele>
|
|
<time>2026-07-11T11:56:23.000Z</time>
|
|
</trkpt>
|
|
<trkpt lat="55.566244" lon="8.179361">
|
|
<ele>11.393931</ele>
|
|
<time>2026-07-11T11:56:24.000Z</time>
|
|
</trkpt>
|
|
<trkpt lat="55.566214" lon="8.179274">
|
|
<ele>11.393776</ele>
|
|
<time>2026-07-11T11:56:25.000Z</time>
|
|
</trkpt>
|
|
<trkpt lat="55.566183" lon="8.179189">
|
|
<ele>11.393622</ele>
|
|
<time>2026-07-11T11:56:26.000Z</time>
|
|
</trkpt>
|
|
<trkpt lat="55.566153" lon="8.179105">
|
|
<ele>11.393470</ele>
|
|
<time>2026-07-11T11:56:27.000Z</time>
|
|
</trkpt>
|
|
<trkpt lat="55.566122" lon="8.179025">
|
|
<ele>11.393323</ele>
|
|
<time>2026-07-11T11:56:28.000Z</time>
|
|
</trkpt>
|
|
<trkpt lat="55.566092" lon="8.178948">
|
|
<ele>11.393180</ele>
|
|
<time>2026-07-11T11:56:29.000Z</time>
|
|
</trkpt>
|
|
<trkpt lat="55.566059" lon="8.178872">
|
|
<ele>11.393035</ele>
|
|
<time>2026-07-11T11:56:30.000Z</time>
|
|
</trkpt>
|
|
<trkpt lat="55.566027" lon="8.178797">
|
|
<ele>11.385163</ele>
|
|
<time>2026-07-11T11:56:31.000Z</time>
|
|
</trkpt>
|
|
<trkpt lat="55.565995" lon="8.178717">
|
|
<ele>11.354974</ele>
|
|
<time>2026-07-11T11:56:32.000Z</time>
|
|
</trkpt>
|
|
<trkpt lat="55.565961" lon="8.178636">
|
|
<ele>11.323896</ele>
|
|
<time>2026-07-11T11:56:33.000Z</time>
|
|
</trkpt>
|
|
<trkpt lat="55.565926" lon="8.178557">
|
|
<ele>11.292978</ele>
|
|
<time>2026-07-11T11:56:34.000Z</time>
|
|
</trkpt>
|
|
<trkpt lat="55.565896" lon="8.178480">
|
|
<ele>11.264170</ele>
|
|
<time>2026-07-11T11:56:35.000Z</time>
|
|
</trkpt>
|
|
<trkpt lat="55.565867" lon="8.178400">
|
|
<ele>11.234895</ele>
|
|
<time>2026-07-11T11:56:36.000Z</time>
|
|
</trkpt>
|
|
<trkpt lat="55.565835" lon="8.178323">
|
|
<ele>11.205455</ele>
|
|
<time>2026-07-11T11:56:37.000Z</time>
|
|
</trkpt>
|
|
<trkpt lat="55.565802" lon="8.178244">
|
|
<ele>11.175196</ele>
|
|
<time>2026-07-11T11:56:38.000Z</time>
|
|
</trkpt>
|
|
<trkpt lat="55.565771" lon="8.178166">
|
|
<ele>11.145825</ele>
|
|
<time>2026-07-11T11:56:39.000Z</time>
|
|
</trkpt>
|
|
<trkpt lat="55.565738" lon="8.178088">
|
|
<ele>11.115813</ele>
|
|
<time>2026-07-11T11:56:40.000Z</time>
|
|
</trkpt>
|
|
<trkpt lat="55.565707" lon="8.178010">
|
|
<ele>11.086442</ele>
|
|
<time>2026-07-11T11:56:41.000Z</time>
|
|
</trkpt>
|
|
<trkpt lat="55.565676" lon="8.177933">
|
|
<ele>11.057321</ele>
|
|
<time>2026-07-11T11:56:42.000Z</time>
|
|
</trkpt>
|
|
<trkpt lat="55.565647" lon="8.177858">
|
|
<ele>11.029330</ele>
|
|
<time>2026-07-11T11:56:43.000Z</time>
|
|
</trkpt>
|
|
<trkpt lat="55.565620" lon="8.177787">
|
|
<ele>11.002970</ele>
|
|
<time>2026-07-11T11:56:44.000Z</time>
|
|
</trkpt>
|
|
<trkpt lat="55.565592" lon="8.177716">
|
|
<ele>10.976302</ele>
|
|
<time>2026-07-11T11:56:45.000Z</time>
|
|
</trkpt>
|
|
<trkpt lat="55.565564" lon="8.177644">
|
|
<ele>10.949381</ele>
|
|
<time>2026-07-11T11:56:46.000Z</time>
|
|
</trkpt>
|
|
<trkpt lat="55.565535" lon="8.177568">
|
|
<ele>10.921135</ele>
|
|
<time>2026-07-11T11:56:47.000Z</time>
|
|
</trkpt>
|
|
<trkpt lat="55.565506" lon="8.177493">
|
|
<ele>10.893144</ele>
|
|
<time>2026-07-11T11:56:48.000Z</time>
|
|
</trkpt>
|
|
<trkpt lat="55.565479" lon="8.177418">
|
|
<ele>10.865753</ele>
|
|
<time>2026-07-11T11:56:49.000Z</time>
|
|
</trkpt>
|
|
<trkpt lat="55.565449" lon="8.177339">
|
|
<ele>10.836436</ele>
|
|
<time>2026-07-11T11:56:50.000Z</time>
|
|
</trkpt>
|
|
<trkpt lat="55.565420" lon="8.177259">
|
|
<ele>10.807160</ele>
|
|
<time>2026-07-11T11:56:51.000Z</time>
|
|
</trkpt>
|
|
<trkpt lat="55.565390" lon="8.177179">
|
|
<ele>10.777586</ele>
|
|
<time>2026-07-11T11:56:52.000Z</time>
|
|
</trkpt>
|
|
<trkpt lat="55.565358" lon="8.177096">
|
|
<ele>10.746638</ele>
|
|
<time>2026-07-11T11:56:53.000Z</time>
|
|
</trkpt>
|
|
<trkpt lat="55.565325" lon="8.177009">
|
|
<ele>10.714363</ele>
|
|
<time>2026-07-11T11:56:54.000Z</time>
|
|
</trkpt>
|
|
<trkpt lat="55.565292" lon="8.176920">
|
|
<ele>10.681575</ele>
|
|
<time>2026-07-11T11:56:55.000Z</time>
|
|
</trkpt>
|
|
<trkpt lat="55.565258" lon="8.176837">
|
|
<ele>10.650000</ele>
|
|
<time>2026-07-11T11:56:56.000Z</time>
|
|
</trkpt>
|
|
<trkpt lat="55.565222" lon="8.176755">
|
|
<ele>10.618017</ele>
|
|
<time>2026-07-11T11:56:57.000Z</time>
|
|
</trkpt>
|
|
<trkpt lat="55.565186" lon="8.176675">
|
|
<ele>10.586519</ele>
|
|
<time>2026-07-11T11:56:58.000Z</time>
|
|
</trkpt>
|
|
<trkpt lat="55.565151" lon="8.176600">
|
|
<ele>10.556560</ele>
|
|
<time>2026-07-11T11:56:59.000Z</time>
|
|
</trkpt>
|
|
<trkpt lat="55.565113" lon="8.176524">
|
|
<ele>10.525306</ele>
|
|
<time>2026-07-11T11:57:00.000Z</time>
|
|
</trkpt>
|
|
<trkpt lat="55.565074" lon="8.176453">
|
|
<ele>10.494811</ele>
|
|
<time>2026-07-11T11:57:01.000Z</time>
|
|
</trkpt>
|
|
<trkpt lat="55.565036" lon="8.176380">
|
|
<ele>10.464242</ele>
|
|
<time>2026-07-11T11:57:02.000Z</time>
|
|
</trkpt>
|
|
<trkpt lat="55.565001" lon="8.176307">
|
|
<ele>10.434756</ele>
|
|
<time>2026-07-11T11:57:03.000Z</time>
|
|
</trkpt>
|
|
<trkpt lat="55.564970" lon="8.176234">
|
|
<ele>10.407609</ele>
|
|
<time>2026-07-11T11:57:04.000Z</time>
|
|
</trkpt>
|
|
<trkpt lat="55.564939" lon="8.176155">
|
|
<ele>10.382544</ele>
|
|
<time>2026-07-11T11:57:05.000Z</time>
|
|
</trkpt>
|
|
<trkpt lat="55.564906" lon="8.176072">
|
|
<ele>10.356096</ele>
|
|
<time>2026-07-11T11:57:06.000Z</time>
|
|
</trkpt>
|
|
<trkpt lat="55.564875" lon="8.175992">
|
|
<ele>10.330816</ele>
|
|
<time>2026-07-11T11:57:07.000Z</time>
|
|
</trkpt>
|
|
<trkpt lat="55.564843" lon="8.175913">
|
|
<ele>10.305486</ele>
|
|
<time>2026-07-11T11:57:08.000Z</time>
|
|
</trkpt>
|
|
<trkpt lat="55.564807" lon="8.175831">
|
|
<ele>10.278425</ele>
|
|
<time>2026-07-11T11:57:09.000Z</time>
|
|
</trkpt>
|
|
<trkpt lat="55.564772" lon="8.175746">
|
|
<ele>10.251017</ele>
|
|
<time>2026-07-11T11:57:10.000Z</time>
|
|
</trkpt>
|
|
<trkpt lat="55.564743" lon="8.175660">
|
|
<ele>10.224917</ele>
|
|
<time>2026-07-11T11:57:11.000Z</time>
|
|
</trkpt>
|
|
<trkpt lat="55.564715" lon="8.175581">
|
|
<ele>10.200613</ele>
|
|
<time>2026-07-11T11:57:12.000Z</time>
|
|
</trkpt>
|
|
<trkpt lat="55.564685" lon="8.175504">
|
|
<ele>10.176239</ele>
|
|
<time>2026-07-11T11:57:13.000Z</time>
|
|
</trkpt>
|
|
<trkpt lat="55.564655" lon="8.175425">
|
|
<ele>10.151434</ele>
|
|
<time>2026-07-11T11:57:14.000Z</time>
|
|
</trkpt>
|
|
<trkpt lat="55.564629" lon="8.175344">
|
|
<ele>10.127156</ele>
|
|
<time>2026-07-11T11:57:15.000Z</time>
|
|
</trkpt>
|
|
<trkpt lat="55.564604" lon="8.175264">
|
|
<ele>10.103330</ele>
|
|
<time>2026-07-11T11:57:16.000Z</time>
|
|
</trkpt>
|
|
<trkpt lat="55.564580" lon="8.175187">
|
|
<ele>10.080411</ele>
|
|
<time>2026-07-11T11:57:17.000Z</time>
|
|
</trkpt>
|
|
<trkpt lat="55.564551" lon="8.175104">
|
|
<ele>10.054979</ele>
|
|
<time>2026-07-11T11:57:18.000Z</time>
|
|
</trkpt>
|
|
<trkpt lat="55.564522" lon="8.175019">
|
|
<ele>10.029102</ele>
|
|
<time>2026-07-11T11:57:19.000Z</time>
|
|
</trkpt>
|
|
<trkpt lat="55.564495" lon="8.174937">
|
|
<ele>10.004368</ele>
|
|
<time>2026-07-11T11:57:20.000Z</time>
|
|
</trkpt>
|
|
<trkpt lat="55.564466" lon="8.174859">
|
|
<ele>9.980035</ele>
|
|
<time>2026-07-11T11:57:21.000Z</time>
|
|
</trkpt>
|
|
<trkpt lat="55.564438" lon="8.174779">
|
|
<ele>9.955510</ele>
|
|
<time>2026-07-11T11:57:22.000Z</time>
|
|
</trkpt>
|
|
<trkpt lat="55.564409" lon="8.174708">
|
|
<ele>9.932680</ele>
|
|
<time>2026-07-11T11:57:23.000Z</time>
|
|
</trkpt>
|
|
<trkpt lat="55.564378" lon="8.174637">
|
|
<ele>9.909298</ele>
|
|
<time>2026-07-11T11:57:24.000Z</time>
|
|
</trkpt>
|
|
<trkpt lat="55.564344" lon="8.174558">
|
|
<ele>9.883419</ele>
|
|
<time>2026-07-11T11:57:25.000Z</time>
|
|
</trkpt>
|
|
<trkpt lat="55.564312" lon="8.174481">
|
|
<ele>9.858510</ele>
|
|
<time>2026-07-11T11:57:26.000Z</time>
|
|
</trkpt>
|
|
<trkpt lat="55.564286" lon="8.174407">
|
|
<ele>9.835800</ele>
|
|
<time>2026-07-11T11:57:27.000Z</time>
|
|
</trkpt>
|
|
<trkpt lat="55.564261" lon="8.174333">
|
|
<ele>9.813331</ele>
|
|
<time>2026-07-11T11:57:28.000Z</time>
|
|
</trkpt>
|
|
<trkpt lat="55.564239" lon="8.174261">
|
|
<ele>9.791998</ele>
|
|
<time>2026-07-11T11:57:29.000Z</time>
|
|
</trkpt>
|
|
<trkpt lat="55.564218" lon="8.174194">
|
|
<ele>9.772030</ele>
|
|
<time>2026-07-11T11:57:30.000Z</time>
|
|
</trkpt>
|
|
<trkpt lat="55.564199" lon="8.174130">
|
|
<ele>9.753188</ele>
|
|
<time>2026-07-11T11:57:31.000Z</time>
|
|
</trkpt>
|
|
<trkpt lat="55.564179" lon="8.174058">
|
|
<ele>9.732277</ele>
|
|
<time>2026-07-11T11:57:32.000Z</time>
|
|
</trkpt>
|
|
<trkpt lat="55.564150" lon="8.173977">
|
|
<ele>9.707287</ele>
|
|
<time>2026-07-11T11:57:33.000Z</time>
|
|
</trkpt>
|
|
<trkpt lat="55.564127" lon="8.173909">
|
|
<ele>9.686633</ele>
|
|
<time>2026-07-11T11:57:34.000Z</time>
|
|
</trkpt>
|
|
<trkpt lat="55.564102" lon="8.173828">
|
|
<ele>9.662578</ele>
|
|
<time>2026-07-11T11:57:35.000Z</time>
|
|
</trkpt>
|
|
<trkpt lat="55.564074" lon="8.173739">
|
|
<ele>9.636030</ele>
|
|
<time>2026-07-11T11:57:36.000Z</time>
|
|
</trkpt>
|
|
<trkpt lat="55.564040" lon="8.173655">
|
|
<ele>9.609102</ele>
|
|
<time>2026-07-11T11:57:37.000Z</time>
|
|
</trkpt>
|
|
<trkpt lat="55.564007" lon="8.173575">
|
|
<ele>9.583418</ele>
|
|
<time>2026-07-11T11:57:38.000Z</time>
|
|
</trkpt>
|
|
<trkpt lat="55.563984" lon="8.173502">
|
|
<ele>9.566435</ele>
|
|
<time>2026-07-11T11:57:39.000Z</time>
|
|
</trkpt>
|
|
<trkpt lat="55.563963" lon="8.173423">
|
|
<ele>9.548695</ele>
|
|
<time>2026-07-11T11:57:40.000Z</time>
|
|
</trkpt>
|
|
<trkpt lat="55.563940" lon="8.173334">
|
|
<ele>9.528809</ele>
|
|
<time>2026-07-11T11:57:41.000Z</time>
|
|
</trkpt>
|
|
<trkpt lat="55.563915" lon="8.173237">
|
|
<ele>9.507146</ele>
|
|
<time>2026-07-11T11:57:42.000Z</time>
|
|
</trkpt>
|
|
<trkpt lat="55.563889" lon="8.173134">
|
|
<ele>9.484223</ele>
|
|
<time>2026-07-11T11:57:43.000Z</time>
|
|
</trkpt>
|
|
<trkpt lat="55.563860" lon="8.173025">
|
|
<ele>9.459742</ele>
|
|
<time>2026-07-11T11:57:44.000Z</time>
|
|
</trkpt>
|
|
<trkpt lat="55.563828" lon="8.172915">
|
|
<ele>9.434603</ele>
|
|
<time>2026-07-11T11:57:45.000Z</time>
|
|
</trkpt>
|
|
<trkpt lat="55.563795" lon="8.172805">
|
|
<ele>9.409297</ele>
|
|
<time>2026-07-11T11:57:46.000Z</time>
|
|
</trkpt>
|
|
<trkpt lat="55.563765" lon="8.172700">
|
|
<ele>9.385390</ele>
|
|
<time>2026-07-11T11:57:47.000Z</time>
|
|
</trkpt>
|
|
<trkpt lat="55.563735" lon="8.172600">
|
|
<ele>9.362385</ele>
|
|
<time>2026-07-11T11:57:48.000Z</time>
|
|
</trkpt>
|
|
<trkpt lat="55.563706" lon="8.172501">
|
|
<ele>9.339726</ele>
|
|
<time>2026-07-11T11:57:49.000Z</time>
|
|
</trkpt>
|
|
<trkpt lat="55.563679" lon="8.172408">
|
|
<ele>9.318481</ele>
|
|
<time>2026-07-11T11:57:50.000Z</time>
|
|
</trkpt>
|
|
<trkpt lat="55.563653" lon="8.172314">
|
|
<ele>9.297215</ele>
|
|
<time>2026-07-11T11:57:51.000Z</time>
|
|
</trkpt>
|
|
<trkpt lat="55.563624" lon="8.172216">
|
|
<ele>9.274737</ele>
|
|
<time>2026-07-11T11:57:52.000Z</time>
|
|
</trkpt>
|
|
<trkpt lat="55.563594" lon="8.172126">
|
|
<ele>9.253506</ele>
|
|
<time>2026-07-11T11:57:53.000Z</time>
|
|
</trkpt>
|
|
<trkpt lat="55.563564" lon="8.172037">
|
|
<ele>9.232449</ele>
|
|
<time>2026-07-11T11:57:54.000Z</time>
|
|
</trkpt>
|
|
<trkpt lat="55.563537" lon="8.171953">
|
|
<ele>9.212813</ele>
|
|
<time>2026-07-11T11:57:55.000Z</time>
|
|
</trkpt>
|
|
<trkpt lat="55.563509" lon="8.171869">
|
|
<ele>9.192997</ele>
|
|
<time>2026-07-11T11:57:56.000Z</time>
|
|
</trkpt>
|
|
<trkpt lat="55.563481" lon="8.171784">
|
|
<ele>9.173006</ele>
|
|
<time>2026-07-11T11:57:57.000Z</time>
|
|
</trkpt>
|
|
<trkpt lat="55.563454" lon="8.171699">
|
|
<ele>9.153193</ele>
|
|
<time>2026-07-11T11:57:58.000Z</time>
|
|
</trkpt>
|
|
<trkpt lat="55.563426" lon="8.171613">
|
|
<ele>9.133026</ele>
|
|
<time>2026-07-11T11:57:59.000Z</time>
|
|
</trkpt>
|
|
<trkpt lat="55.563395" lon="8.171529">
|
|
<ele>9.112641</ele>
|
|
<time>2026-07-11T11:58:00.000Z</time>
|
|
</trkpt>
|
|
<trkpt lat="55.563365" lon="8.171446">
|
|
<ele>9.092622</ele>
|
|
<time>2026-07-11T11:58:01.000Z</time>
|
|
</trkpt>
|
|
<trkpt lat="55.563336" lon="8.171367">
|
|
<ele>9.073481</ele>
|
|
<time>2026-07-11T11:58:02.000Z</time>
|
|
</trkpt>
|
|
<trkpt lat="55.563306" lon="8.171286">
|
|
<ele>9.053804</ele>
|
|
<time>2026-07-11T11:58:03.000Z</time>
|
|
</trkpt>
|
|
<trkpt lat="55.563273" lon="8.171205">
|
|
<ele>9.033515</ele>
|
|
<time>2026-07-11T11:58:04.000Z</time>
|
|
</trkpt>
|
|
<trkpt lat="55.563244" lon="8.171125">
|
|
<ele>9.014203</ele>
|
|
<time>2026-07-11T11:58:05.000Z</time>
|
|
</trkpt>
|
|
<trkpt lat="55.563216" lon="8.171041">
|
|
<ele>8.994387</ele>
|
|
<time>2026-07-11T11:58:06.000Z</time>
|
|
</trkpt>
|
|
<trkpt lat="55.563187" lon="8.170959">
|
|
<ele>8.974732</ele>
|
|
<time>2026-07-11T11:58:07.000Z</time>
|
|
</trkpt>
|
|
<trkpt lat="55.563157" lon="8.170876">
|
|
<ele>8.954713</ele>
|
|
<time>2026-07-11T11:58:08.000Z</time>
|
|
</trkpt>
|
|
<trkpt lat="55.563124" lon="8.170790">
|
|
<ele>8.937204</ele>
|
|
<time>2026-07-11T11:58:09.000Z</time>
|
|
</trkpt>
|
|
<trkpt lat="55.563094" lon="8.170706">
|
|
<ele>8.935790</ele>
|
|
<time>2026-07-11T11:58:10.000Z</time>
|
|
</trkpt>
|
|
<trkpt lat="55.563062" lon="8.170622">
|
|
<ele>8.934347</ele>
|
|
<time>2026-07-11T11:58:11.000Z</time>
|
|
</trkpt>
|
|
<trkpt lat="55.563029" lon="8.170537">
|
|
<ele>8.932879</ele>
|
|
<time>2026-07-11T11:58:12.000Z</time>
|
|
</trkpt>
|
|
<trkpt lat="55.562997" lon="8.170457">
|
|
<ele>8.931484</ele>
|
|
<time>2026-07-11T11:58:13.000Z</time>
|
|
</trkpt>
|
|
<trkpt lat="55.562962" lon="8.170378">
|
|
<ele>8.930055</ele>
|
|
<time>2026-07-11T11:58:14.000Z</time>
|
|
</trkpt>
|
|
<trkpt lat="55.562930" lon="8.170301">
|
|
<ele>8.928694</ele>
|
|
<time>2026-07-11T11:58:15.000Z</time>
|
|
</trkpt>
|
|
<trkpt lat="55.562897" lon="8.170226">
|
|
<ele>8.927341</ele>
|
|
<time>2026-07-11T11:58:16.000Z</time>
|
|
</trkpt>
|
|
<trkpt lat="55.562863" lon="8.170152">
|
|
<ele>8.925983</ele>
|
|
<time>2026-07-11T11:58:17.000Z</time>
|
|
</trkpt>
|
|
<trkpt lat="55.562831" lon="8.170079">
|
|
<ele>8.924668</ele>
|
|
<time>2026-07-11T11:58:18.000Z</time>
|
|
</trkpt>
|
|
<trkpt lat="55.562799" lon="8.170007">
|
|
<ele>8.923364</ele>
|
|
<time>2026-07-11T11:58:19.000Z</time>
|
|
</trkpt>
|
|
<trkpt lat="55.562764" lon="8.169937">
|
|
<ele>8.922033</ele>
|
|
<time>2026-07-11T11:58:20.000Z</time>
|
|
</trkpt>
|
|
<trkpt lat="55.562730" lon="8.169868">
|
|
<ele>8.920730</ele>
|
|
<time>2026-07-11T11:58:21.000Z</time>
|
|
</trkpt>
|
|
<trkpt lat="55.562695" lon="8.169798">
|
|
<ele>8.919399</ele>
|
|
<time>2026-07-11T11:58:22.000Z</time>
|
|
</trkpt>
|
|
<trkpt lat="55.562660" lon="8.169727">
|
|
<ele>8.918058</ele>
|
|
<time>2026-07-11T11:58:23.000Z</time>
|
|
</trkpt>
|
|
<trkpt lat="55.562627" lon="8.169655">
|
|
<ele>8.916738</ele>
|
|
<time>2026-07-11T11:58:24.000Z</time>
|
|
</trkpt>
|
|
<trkpt lat="55.562591" lon="8.169579">
|
|
<ele>8.915326</ele>
|
|
<time>2026-07-11T11:58:25.000Z</time>
|
|
</trkpt>
|
|
<trkpt lat="55.562552" lon="8.169500">
|
|
<ele>8.913833</ele>
|
|
<time>2026-07-11T11:58:26.000Z</time>
|
|
</trkpt>
|
|
<trkpt lat="55.562514" lon="8.169420">
|
|
<ele>8.912345</ele>
|
|
<time>2026-07-11T11:58:27.000Z</time>
|
|
</trkpt>
|
|
<trkpt lat="55.562475" lon="8.169340">
|
|
<ele>8.910841</ele>
|
|
<time>2026-07-11T11:58:28.000Z</time>
|
|
</trkpt>
|
|
<trkpt lat="55.562438" lon="8.169263">
|
|
<ele>8.909402</ele>
|
|
<time>2026-07-11T11:58:29.000Z</time>
|
|
</trkpt>
|
|
<trkpt lat="55.562401" lon="8.169187">
|
|
<ele>8.907974</ele>
|
|
<time>2026-07-11T11:58:30.000Z</time>
|
|
</trkpt>
|
|
<trkpt lat="55.562362" lon="8.169109">
|
|
<ele>8.906492</ele>
|
|
<time>2026-07-11T11:58:31.000Z</time>
|
|
</trkpt>
|
|
<trkpt lat="55.562327" lon="8.169033">
|
|
<ele>8.905096</ele>
|
|
<time>2026-07-11T11:58:32.000Z</time>
|
|
</trkpt>
|
|
<trkpt lat="55.562295" lon="8.168959">
|
|
<ele>8.903769</ele>
|
|
<time>2026-07-11T11:58:33.000Z</time>
|
|
</trkpt>
|
|
<trkpt lat="55.562264" lon="8.168884">
|
|
<ele>8.902446</ele>
|
|
<time>2026-07-11T11:58:34.000Z</time>
|
|
</trkpt>
|
|
<trkpt lat="55.562235" lon="8.168809">
|
|
<ele>8.901153</ele>
|
|
<time>2026-07-11T11:58:35.000Z</time>
|
|
</trkpt>
|
|
<trkpt lat="55.562204" lon="8.168743">
|
|
<ele>8.899931</ele>
|
|
<time>2026-07-11T11:58:36.000Z</time>
|
|
</trkpt>
|
|
<trkpt lat="55.562174" lon="8.168681">
|
|
<ele>8.898769</ele>
|
|
<time>2026-07-11T11:58:37.000Z</time>
|
|
</trkpt>
|
|
<trkpt lat="55.562142" lon="8.168617">
|
|
<ele>8.897552</ele>
|
|
<time>2026-07-11T11:58:38.000Z</time>
|
|
</trkpt>
|
|
<trkpt lat="55.562108" lon="8.168551">
|
|
<ele>8.896281</ele>
|
|
<time>2026-07-11T11:58:39.000Z</time>
|
|
</trkpt>
|
|
<trkpt lat="55.562073" lon="8.168480">
|
|
<ele>8.894940</ele>
|
|
<time>2026-07-11T11:58:40.000Z</time>
|
|
</trkpt>
|
|
<trkpt lat="55.562041" lon="8.168407">
|
|
<ele>8.893624</ele>
|
|
<time>2026-07-11T11:58:41.000Z</time>
|
|
</trkpt>
|
|
<trkpt lat="55.562008" lon="8.168331">
|
|
<ele>8.892260</ele>
|
|
<time>2026-07-11T11:58:42.000Z</time>
|
|
</trkpt>
|
|
<trkpt lat="55.561976" lon="8.168257">
|
|
<ele>8.890260</ele>
|
|
<time>2026-07-11T11:58:43.000Z</time>
|
|
</trkpt>
|
|
<trkpt lat="55.561944" lon="8.168184">
|
|
<ele>8.888236</ele>
|
|
<time>2026-07-11T11:58:44.000Z</time>
|
|
</trkpt>
|
|
<trkpt lat="55.561911" lon="8.168113">
|
|
<ele>8.886222</ele>
|
|
<time>2026-07-11T11:58:45.000Z</time>
|
|
</trkpt>
|
|
<trkpt lat="55.561879" lon="8.168041">
|
|
<ele>8.884216</ele>
|
|
<time>2026-07-11T11:58:46.000Z</time>
|
|
</trkpt>
|
|
<trkpt lat="55.561844" lon="8.167970">
|
|
<ele>8.882152</ele>
|
|
<time>2026-07-11T11:58:47.000Z</time>
|
|
</trkpt>
|
|
<trkpt lat="55.561812" lon="8.167900">
|
|
<ele>8.880180</ele>
|
|
<time>2026-07-11T11:58:48.000Z</time>
|
|
</trkpt>
|
|
<trkpt lat="55.561781" lon="8.167829">
|
|
<ele>8.878215</ele>
|
|
<time>2026-07-11T11:58:49.000Z</time>
|
|
</trkpt>
|
|
<trkpt lat="55.561751" lon="8.167758">
|
|
<ele>8.876273</ele>
|
|
<time>2026-07-11T11:58:50.000Z</time>
|
|
</trkpt>
|
|
<trkpt lat="55.561720" lon="8.167688">
|
|
<ele>8.874325</ele>
|
|
<time>2026-07-11T11:58:51.000Z</time>
|
|
</trkpt>
|
|
<trkpt lat="55.561689" lon="8.167617">
|
|
<ele>8.872360</ele>
|
|
<time>2026-07-11T11:58:52.000Z</time>
|
|
</trkpt>
|
|
<trkpt lat="55.561659" lon="8.167549">
|
|
<ele>8.870470</ele>
|
|
<time>2026-07-11T11:58:53.000Z</time>
|
|
</trkpt>
|
|
<trkpt lat="55.561629" lon="8.167482">
|
|
<ele>8.868598</ele>
|
|
<time>2026-07-11T11:58:54.000Z</time>
|
|
</trkpt>
|
|
<trkpt lat="55.561598" lon="8.167412">
|
|
<ele>8.866650</ele>
|
|
<time>2026-07-11T11:58:55.000Z</time>
|
|
</trkpt>
|
|
<trkpt lat="55.561567" lon="8.167341">
|
|
<ele>8.864685</ele>
|
|
<time>2026-07-11T11:58:56.000Z</time>
|
|
</trkpt>
|
|
<trkpt lat="55.561539" lon="8.167270">
|
|
<ele>8.862788</ele>
|
|
<time>2026-07-11T11:58:57.000Z</time>
|
|
</trkpt>
|
|
<trkpt lat="55.561512" lon="8.167197">
|
|
<ele>8.860877</ele>
|
|
<time>2026-07-11T11:58:58.000Z</time>
|
|
</trkpt>
|
|
<trkpt lat="55.561484" lon="8.167121">
|
|
<ele>8.858890</ele>
|
|
<time>2026-07-11T11:58:59.000Z</time>
|
|
</trkpt>
|
|
<trkpt lat="55.561452" lon="8.167044">
|
|
<ele>8.856796</ele>
|
|
<time>2026-07-11T11:59:00.000Z</time>
|
|
</trkpt>
|
|
<trkpt lat="55.561419" lon="8.166968">
|
|
<ele>8.854697</ele>
|
|
<time>2026-07-11T11:59:01.000Z</time>
|
|
</trkpt>
|
|
<trkpt lat="55.561388" lon="8.166895">
|
|
<ele>8.852697</ele>
|
|
<time>2026-07-11T11:59:02.000Z</time>
|
|
</trkpt>
|
|
<trkpt lat="55.561360" lon="8.166823">
|
|
<ele>8.850782</ele>
|
|
<time>2026-07-11T11:59:03.000Z</time>
|
|
</trkpt>
|
|
<trkpt lat="55.561333" lon="8.166748">
|
|
<ele>8.848834</ele>
|
|
<time>2026-07-11T11:59:04.000Z</time>
|
|
</trkpt>
|
|
<trkpt lat="55.561304" lon="8.166667">
|
|
<ele>8.846734</ele>
|
|
<time>2026-07-11T11:59:05.000Z</time>
|
|
</trkpt>
|
|
<trkpt lat="55.561276" lon="8.166589">
|
|
<ele>8.844709</ele>
|
|
<time>2026-07-11T11:59:06.000Z</time>
|
|
</trkpt>
|
|
<trkpt lat="55.561251" lon="8.166511">
|
|
<ele>8.842745</ele>
|
|
<time>2026-07-11T11:59:07.000Z</time>
|
|
</trkpt>
|
|
<trkpt lat="55.561224" lon="8.166433">
|
|
<ele>8.840741</ele>
|
|
<time>2026-07-11T11:59:08.000Z</time>
|
|
</trkpt>
|
|
<trkpt lat="55.561195" lon="8.166359">
|
|
<ele>8.838769</ele>
|
|
<time>2026-07-11T11:59:09.000Z</time>
|
|
</trkpt>
|
|
<trkpt lat="55.561167" lon="8.166285">
|
|
<ele>8.836818</ele>
|
|
<time>2026-07-11T11:59:10.000Z</time>
|
|
</trkpt>
|
|
<trkpt lat="55.561138" lon="8.166208">
|
|
<ele>8.834791</ele>
|
|
<time>2026-07-11T11:59:11.000Z</time>
|
|
</trkpt>
|
|
<trkpt lat="55.561112" lon="8.166128">
|
|
<ele>8.832769</ele>
|
|
<time>2026-07-11T11:59:12.000Z</time>
|
|
</trkpt>
|
|
<trkpt lat="55.561085" lon="8.166047">
|
|
<ele>8.830709</ele>
|
|
<time>2026-07-11T11:59:13.000Z</time>
|
|
</trkpt>
|
|
<trkpt lat="55.561058" lon="8.165968">
|
|
<ele>8.828687</ele>
|
|
<time>2026-07-11T11:59:14.000Z</time>
|
|
</trkpt>
|
|
<trkpt lat="55.561032" lon="8.165888">
|
|
<ele>8.826665</ele>
|
|
<time>2026-07-11T11:59:15.000Z</time>
|
|
</trkpt>
|
|
<trkpt lat="55.561005" lon="8.165804">
|
|
<ele>8.824548</ele>
|
|
<time>2026-07-11T11:59:16.000Z</time>
|
|
</trkpt>
|
|
<trkpt lat="55.560978" lon="8.165717">
|
|
<ele>8.822814</ele>
|
|
<time>2026-07-11T11:59:17.000Z</time>
|
|
</trkpt>
|
|
<trkpt lat="55.560953" lon="8.165630">
|
|
<ele>8.828167</ele>
|
|
<time>2026-07-11T11:59:18.000Z</time>
|
|
</trkpt>
|
|
<trkpt lat="55.560930" lon="8.165540">
|
|
<ele>8.833585</ele>
|
|
<time>2026-07-11T11:59:19.000Z</time>
|
|
</trkpt>
|
|
<trkpt lat="55.560906" lon="8.165450">
|
|
<ele>8.839043</ele>
|
|
<time>2026-07-11T11:59:20.000Z</time>
|
|
</trkpt>
|
|
<trkpt lat="55.560881" lon="8.165360">
|
|
<ele>8.844543</ele>
|
|
<time>2026-07-11T11:59:21.000Z</time>
|
|
</trkpt>
|
|
<trkpt lat="55.560857" lon="8.165270">
|
|
<ele>8.850001</ele>
|
|
<time>2026-07-11T11:59:22.000Z</time>
|
|
</trkpt>
|
|
<trkpt lat="55.560835" lon="8.165182">
|
|
<ele>8.855279</ele>
|
|
<time>2026-07-11T11:59:23.000Z</time>
|
|
</trkpt>
|
|
<trkpt lat="55.560810" lon="8.165095">
|
|
<ele>8.860632</ele>
|
|
<time>2026-07-11T11:59:24.000Z</time>
|
|
</trkpt>
|
|
<trkpt lat="55.560785" lon="8.165010">
|
|
<ele>8.865888</ele>
|
|
<time>2026-07-11T11:59:25.000Z</time>
|
|
</trkpt>
|
|
<trkpt lat="55.560764" lon="8.164927">
|
|
<ele>8.870875</ele>
|
|
<time>2026-07-11T11:59:26.000Z</time>
|
|
</trkpt>
|
|
<trkpt lat="55.560743" lon="8.164838">
|
|
<ele>8.876165</ele>
|
|
<time>2026-07-11T11:59:27.000Z</time>
|
|
</trkpt>
|
|
<trkpt lat="55.560720" lon="8.164746">
|
|
<ele>8.881683</ele>
|
|
<time>2026-07-11T11:59:28.000Z</time>
|
|
</trkpt>
|
|
<trkpt lat="55.560699" lon="8.164655">
|
|
<ele>8.887074</ele>
|
|
<time>2026-07-11T11:59:29.000Z</time>
|
|
</trkpt>
|
|
<trkpt lat="55.560678" lon="8.164568">
|
|
<ele>8.892263</ele>
|
|
<time>2026-07-11T11:59:30.000Z</time>
|
|
</trkpt>
|
|
<trkpt lat="55.560657" lon="8.164481">
|
|
<ele>8.897452</ele>
|
|
<time>2026-07-11T11:59:31.000Z</time>
|
|
</trkpt>
|
|
<trkpt lat="55.560639" lon="8.164389">
|
|
<ele>8.902792</ele>
|
|
<time>2026-07-11T11:59:32.000Z</time>
|
|
</trkpt>
|
|
<trkpt lat="55.560623" lon="8.164296">
|
|
<ele>8.908124</ele>
|
|
<time>2026-07-11T11:59:33.000Z</time>
|
|
</trkpt>
|
|
<trkpt lat="55.560602" lon="8.164205">
|
|
<ele>8.913516</ele>
|
|
<time>2026-07-11T11:59:34.000Z</time>
|
|
</trkpt>
|
|
<trkpt lat="55.560580" lon="8.164115">
|
|
<ele>8.918894</ele>
|
|
<time>2026-07-11T11:59:35.000Z</time>
|
|
</trkpt>
|
|
<trkpt lat="55.560560" lon="8.164029">
|
|
<ele>8.923995</ele>
|
|
<time>2026-07-11T11:59:36.000Z</time>
|
|
</trkpt>
|
|
<trkpt lat="55.560541" lon="8.163940">
|
|
<ele>8.929213</ele>
|
|
<time>2026-07-11T11:59:37.000Z</time>
|
|
</trkpt>
|
|
<trkpt lat="55.560521" lon="8.163836">
|
|
<ele>8.935239</ele>
|
|
<time>2026-07-11T11:59:38.000Z</time>
|
|
</trkpt>
|
|
<trkpt lat="55.560504" lon="8.163742">
|
|
<ele>8.940653</ele>
|
|
<time>2026-07-11T11:59:39.000Z</time>
|
|
</trkpt>
|
|
<trkpt lat="55.560489" lon="8.163647">
|
|
<ele>8.946063</ele>
|
|
<time>2026-07-11T11:59:40.000Z</time>
|
|
</trkpt>
|
|
<trkpt lat="55.560480" lon="8.163548">
|
|
<ele>8.951563</ele>
|
|
<time>2026-07-11T11:59:41.000Z</time>
|
|
</trkpt>
|
|
<trkpt lat="55.560475" lon="8.163445">
|
|
<ele>8.957234</ele>
|
|
<time>2026-07-11T11:59:42.000Z</time>
|
|
</trkpt>
|
|
<trkpt lat="55.560467" lon="8.163344">
|
|
<ele>8.962829</ele>
|
|
<time>2026-07-11T11:59:43.000Z</time>
|
|
</trkpt>
|
|
<trkpt lat="55.560456" lon="8.163246">
|
|
<ele>8.968309</ele>
|
|
<time>2026-07-11T11:59:44.000Z</time>
|
|
</trkpt>
|
|
<trkpt lat="55.560441" lon="8.163149">
|
|
<ele>8.973825</ele>
|
|
<time>2026-07-11T11:59:45.000Z</time>
|
|
</trkpt>
|
|
<trkpt lat="55.560424" lon="8.163052">
|
|
<ele>8.979396</ele>
|
|
<time>2026-07-11T11:59:46.000Z</time>
|
|
</trkpt>
|
|
<trkpt lat="55.560405" lon="8.162961">
|
|
<ele>8.984717</ele>
|
|
<time>2026-07-11T11:59:47.000Z</time>
|
|
</trkpt>
|
|
<trkpt lat="55.560386" lon="8.162873">
|
|
<ele>8.989884</ele>
|
|
<time>2026-07-11T11:59:48.000Z</time>
|
|
</trkpt>
|
|
<trkpt lat="55.560365" lon="8.162783">
|
|
<ele>8.995225</ele>
|
|
<time>2026-07-11T11:59:49.000Z</time>
|
|
</trkpt>
|
|
<trkpt lat="55.560345" lon="8.162695">
|
|
<ele>8.996302</ele>
|
|
<time>2026-07-11T11:59:50.000Z</time>
|
|
</trkpt>
|
|
<trkpt lat="55.560326" lon="8.162608">
|
|
<ele>8.995331</ele>
|
|
<time>2026-07-11T11:59:51.000Z</time>
|
|
</trkpt>
|
|
<trkpt lat="55.560309" lon="8.162517">
|
|
<ele>8.994333</ele>
|
|
<time>2026-07-11T11:59:52.000Z</time>
|
|
</trkpt>
|
|
<trkpt lat="55.560296" lon="8.162425">
|
|
<ele>8.993346</ele>
|
|
<time>2026-07-11T11:59:53.000Z</time>
|
|
</trkpt>
|
|
<trkpt lat="55.560283" lon="8.162335">
|
|
<ele>8.992378</ele>
|
|
<time>2026-07-11T11:59:54.000Z</time>
|
|
</trkpt>
|
|
<trkpt lat="55.560270" lon="8.162248">
|
|
<ele>8.991441</ele>
|
|
<time>2026-07-11T11:59:55.000Z</time>
|
|
</trkpt>
|
|
<trkpt lat="55.560253" lon="8.162161">
|
|
<ele>8.990483</ele>
|
|
<time>2026-07-11T11:59:56.000Z</time>
|
|
</trkpt>
|
|
<trkpt lat="55.560236" lon="8.162082">
|
|
<ele>8.989602</ele>
|
|
<time>2026-07-11T11:59:57.000Z</time>
|
|
</trkpt>
|
|
<trkpt lat="55.560220" lon="8.162003">
|
|
<ele>8.988729</ele>
|
|
<time>2026-07-11T11:59:58.000Z</time>
|
|
</trkpt>
|
|
<trkpt lat="55.560192" lon="8.161904">
|
|
<ele>8.987576</ele>
|
|
<time>2026-07-11T11:59:59.000Z</time>
|
|
</trkpt>
|
|
<trkpt lat="55.560165" lon="8.161823">
|
|
<ele>8.986597</ele>
|
|
<time>2026-07-11T12:00:00.000Z</time>
|
|
</trkpt>
|
|
<trkpt lat="55.560136" lon="8.161747">
|
|
<ele>8.985642</ele>
|
|
<time>2026-07-11T12:00:01.000Z</time>
|
|
</trkpt>
|
|
<trkpt lat="55.560103" lon="8.161672">
|
|
<ele>8.984652</ele>
|
|
<time>2026-07-11T12:00:02.000Z</time>
|
|
</trkpt>
|
|
<trkpt lat="55.560072" lon="8.161592">
|
|
<ele>8.983642</ele>
|
|
<time>2026-07-11T12:00:03.000Z</time>
|
|
</trkpt>
|
|
<trkpt lat="55.560047" lon="8.161503">
|
|
<ele>8.982608</ele>
|
|
<time>2026-07-11T12:00:04.000Z</time>
|
|
</trkpt>
|
|
<trkpt lat="55.560029" lon="8.161408">
|
|
<ele>8.981564</ele>
|
|
<time>2026-07-11T12:00:05.000Z</time>
|
|
</trkpt>
|
|
<trkpt lat="55.560014" lon="8.161311">
|
|
<ele>8.980517</ele>
|
|
<time>2026-07-11T12:00:06.000Z</time>
|
|
</trkpt>
|
|
<trkpt lat="55.559999" lon="8.161214">
|
|
<ele>8.979470</ele>
|
|
<time>2026-07-11T12:00:07.000Z</time>
|
|
</trkpt>
|
|
<trkpt lat="55.559983" lon="8.161113">
|
|
<ele>8.978377</ele>
|
|
<time>2026-07-11T12:00:08.000Z</time>
|
|
</trkpt>
|
|
<trkpt lat="55.559967" lon="8.161014">
|
|
<ele>8.977305</ele>
|
|
<time>2026-07-11T12:00:09.000Z</time>
|
|
</trkpt>
|
|
<trkpt lat="55.559947" lon="8.160917">
|
|
<ele>8.976230</ele>
|
|
<time>2026-07-11T12:00:10.000Z</time>
|
|
</trkpt>
|
|
<trkpt lat="55.559927" lon="8.160823">
|
|
<ele>8.975184</ele>
|
|
<time>2026-07-11T12:00:11.000Z</time>
|
|
</trkpt>
|
|
<trkpt lat="55.559906" lon="8.160732">
|
|
<ele>8.974161</ele>
|
|
<time>2026-07-11T12:00:12.000Z</time>
|
|
</trkpt>
|
|
<trkpt lat="55.559887" lon="8.160640">
|
|
<ele>8.973141</ele>
|
|
<time>2026-07-11T12:00:13.000Z</time>
|
|
</trkpt>
|
|
<trkpt lat="55.559869" lon="8.160550">
|
|
<ele>8.972147</ele>
|
|
<time>2026-07-11T12:00:14.000Z</time>
|
|
</trkpt>
|
|
<trkpt lat="55.559854" lon="8.160462">
|
|
<ele>8.971189</ele>
|
|
<time>2026-07-11T12:00:15.000Z</time>
|
|
</trkpt>
|
|
<trkpt lat="55.559839" lon="8.160374">
|
|
<ele>8.970232</ele>
|
|
<time>2026-07-11T12:00:16.000Z</time>
|
|
</trkpt>
|
|
<trkpt lat="55.559823" lon="8.160284">
|
|
<ele>8.969250</ele>
|
|
<time>2026-07-11T12:00:17.000Z</time>
|
|
</trkpt>
|
|
<trkpt lat="55.559808" lon="8.160191">
|
|
<ele>8.968243</ele>
|
|
<time>2026-07-11T12:00:18.000Z</time>
|
|
</trkpt>
|
|
<trkpt lat="55.559791" lon="8.160100">
|
|
<ele>8.967245</ele>
|
|
<time>2026-07-11T12:00:19.000Z</time>
|
|
</trkpt>
|
|
<trkpt lat="55.559772" lon="8.160010">
|
|
<ele>8.966244</ele>
|
|
<time>2026-07-11T12:00:20.000Z</time>
|
|
</trkpt>
|
|
<trkpt lat="55.559751" lon="8.159918">
|
|
<ele>8.965211</ele>
|
|
<time>2026-07-11T12:00:21.000Z</time>
|
|
</trkpt>
|
|
<trkpt lat="55.559730" lon="8.159828">
|
|
<ele>8.964197</ele>
|
|
<time>2026-07-11T12:00:22.000Z</time>
|
|
</trkpt>
|
|
<trkpt lat="55.559712" lon="8.159737">
|
|
<ele>8.946608</ele>
|
|
<time>2026-07-11T12:00:23.000Z</time>
|
|
</trkpt>
|
|
<trkpt lat="55.559691" lon="8.159640">
|
|
<ele>8.917806</ele>
|
|
<time>2026-07-11T12:00:24.000Z</time>
|
|
</trkpt>
|
|
<trkpt lat="55.559671" lon="8.159544">
|
|
<ele>8.889437</ele>
|
|
<time>2026-07-11T12:00:25.000Z</time>
|
|
</trkpt>
|
|
<trkpt lat="55.559655" lon="8.159447">
|
|
<ele>8.861418</ele>
|
|
<time>2026-07-11T12:00:26.000Z</time>
|
|
</trkpt>
|
|
<trkpt lat="55.559639" lon="8.159352">
|
|
<ele>8.833932</ele>
|
|
<time>2026-07-11T12:00:27.000Z</time>
|
|
</trkpt>
|
|
<trkpt lat="55.559619" lon="8.159259">
|
|
<ele>8.806341</ele>
|
|
<time>2026-07-11T12:00:28.000Z</time>
|
|
</trkpt>
|
|
<trkpt lat="55.559601" lon="8.159167">
|
|
<ele>8.779346</ele>
|
|
<time>2026-07-11T12:00:29.000Z</time>
|
|
</trkpt>
|
|
<trkpt lat="55.559582" lon="8.159077">
|
|
<ele>8.752707</ele>
|
|
<time>2026-07-11T12:00:30.000Z</time>
|
|
</trkpt>
|
|
<trkpt lat="55.559564" lon="8.158986">
|
|
<ele>8.725974</ele>
|
|
<time>2026-07-11T12:00:31.000Z</time>
|
|
</trkpt>
|
|
<trkpt lat="55.559549" lon="8.158892">
|
|
<ele>8.698890</ele>
|
|
<time>2026-07-11T12:00:32.000Z</time>
|
|
</trkpt>
|
|
<trkpt lat="55.559533" lon="8.158796">
|
|
<ele>8.671138</ele>
|
|
<time>2026-07-11T12:00:33.000Z</time>
|
|
</trkpt>
|
|
<trkpt lat="55.559517" lon="8.158700">
|
|
<ele>8.643385</ele>
|
|
<time>2026-07-11T12:00:34.000Z</time>
|
|
</trkpt>
|
|
<trkpt lat="55.559498" lon="8.158604">
|
|
<ele>8.615181</ele>
|
|
<time>2026-07-11T12:00:35.000Z</time>
|
|
</trkpt>
|
|
<trkpt lat="55.559478" lon="8.158507">
|
|
<ele>8.586552</ele>
|
|
<time>2026-07-11T12:00:36.000Z</time>
|
|
</trkpt>
|
|
<trkpt lat="55.559459" lon="8.158414">
|
|
<ele>8.559132</ele>
|
|
<time>2026-07-11T12:00:37.000Z</time>
|
|
</trkpt>
|
|
<trkpt lat="55.559440" lon="8.158320">
|
|
<ele>8.531451</ele>
|
|
<time>2026-07-11T12:00:38.000Z</time>
|
|
</trkpt>
|
|
<trkpt lat="55.559421" lon="8.158226">
|
|
<ele>8.503770</ele>
|
|
<time>2026-07-11T12:00:39.000Z</time>
|
|
</trkpt>
|
|
<trkpt lat="55.559404" lon="8.158131">
|
|
<ele>8.476139</ele>
|
|
<time>2026-07-11T12:00:40.000Z</time>
|
|
</trkpt>
|
|
<trkpt lat="55.559387" lon="8.158034">
|
|
<ele>8.447979</ele>
|
|
<time>2026-07-11T12:00:41.000Z</time>
|
|
</trkpt>
|
|
<trkpt lat="55.559370" lon="8.157938">
|
|
<ele>8.420084</ele>
|
|
<time>2026-07-11T12:00:42.000Z</time>
|
|
</trkpt>
|
|
<trkpt lat="55.559353" lon="8.157843">
|
|
<ele>8.392453</ele>
|
|
<time>2026-07-11T12:00:43.000Z</time>
|
|
</trkpt>
|
|
<trkpt lat="55.559334" lon="8.157749">
|
|
<ele>8.364772</ele>
|
|
<time>2026-07-11T12:00:44.000Z</time>
|
|
</trkpt>
|
|
<trkpt lat="55.559315" lon="8.157657">
|
|
<ele>8.337612</ele>
|
|
<time>2026-07-11T12:00:45.000Z</time>
|
|
</trkpt>
|
|
<trkpt lat="55.559295" lon="8.157564">
|
|
<ele>8.310022</ele>
|
|
<time>2026-07-11T12:00:46.000Z</time>
|
|
</trkpt>
|
|
<trkpt lat="55.559274" lon="8.157478">
|
|
<ele>8.284046</ele>
|
|
<time>2026-07-11T12:00:47.000Z</time>
|
|
</trkpt>
|
|
<trkpt lat="55.559254" lon="8.157395">
|
|
<ele>8.259028</ele>
|
|
<time>2026-07-11T12:00:48.000Z</time>
|
|
</trkpt>
|
|
<trkpt lat="55.559236" lon="8.157306">
|
|
<ele>8.232818</ele>
|
|
<time>2026-07-11T12:00:49.000Z</time>
|
|
</trkpt>
|
|
<trkpt lat="55.559221" lon="8.157218">
|
|
<ele>8.207331</ele>
|
|
<time>2026-07-11T12:00:50.000Z</time>
|
|
</trkpt>
|
|
<trkpt lat="55.559204" lon="8.157132">
|
|
<ele>8.182068</ele>
|
|
<time>2026-07-11T12:00:51.000Z</time>
|
|
</trkpt>
|
|
<trkpt lat="55.559188" lon="8.157044">
|
|
<ele>8.156436</ele>
|
|
<time>2026-07-11T12:00:52.000Z</time>
|
|
</trkpt>
|
|
<trkpt lat="55.559173" lon="8.156952">
|
|
<ele>8.129885</ele>
|
|
<time>2026-07-11T12:00:53.000Z</time>
|
|
</trkpt>
|
|
<trkpt lat="55.559156" lon="8.156861">
|
|
<ele>8.103309</ele>
|
|
<time>2026-07-11T12:00:54.000Z</time>
|
|
</trkpt>
|
|
<trkpt lat="55.559137" lon="8.156773">
|
|
<ele>8.081592</ele>
|
|
<time>2026-07-11T12:00:55.000Z</time>
|
|
</trkpt>
|
|
<trkpt lat="55.559118" lon="8.156686">
|
|
<ele>8.079732</ele>
|
|
<time>2026-07-11T12:00:56.000Z</time>
|
|
</trkpt>
|
|
<trkpt lat="55.559101" lon="8.156598">
|
|
<ele>8.077877</ele>
|
|
<time>2026-07-11T12:00:57.000Z</time>
|
|
</trkpt>
|
|
<trkpt lat="55.559082" lon="8.156514">
|
|
<ele>8.076073</ele>
|
|
<time>2026-07-11T12:00:58.000Z</time>
|
|
</trkpt>
|
|
<trkpt lat="55.559063" lon="8.156428">
|
|
<ele>8.074231</ele>
|
|
<time>2026-07-11T12:00:59.000Z</time>
|
|
</trkpt>
|
|
<trkpt lat="55.559042" lon="8.156343">
|
|
<ele>8.072381</ele>
|
|
<time>2026-07-11T12:01:00.000Z</time>
|
|
</trkpt>
|
|
<trkpt lat="55.559019" lon="8.156257">
|
|
<ele>8.070484</ele>
|
|
<time>2026-07-11T12:01:01.000Z</time>
|
|
</trkpt>
|
|
<trkpt lat="55.558996" lon="8.156171">
|
|
<ele>8.068586</ele>
|
|
<time>2026-07-11T12:01:02.000Z</time>
|
|
</trkpt>
|
|
<trkpt lat="55.558973" lon="8.156080">
|
|
<ele>8.066598</ele>
|
|
<time>2026-07-11T12:01:03.000Z</time>
|
|
</trkpt>
|
|
<trkpt lat="55.558950" lon="8.155990">
|
|
<ele>8.064628</ele>
|
|
<time>2026-07-11T12:01:04.000Z</time>
|
|
</trkpt>
|
|
<trkpt lat="55.558930" lon="8.155900">
|
|
<ele>8.062700</ele>
|
|
<time>2026-07-11T12:01:05.000Z</time>
|
|
</trkpt>
|
|
<trkpt lat="55.558909" lon="8.155809">
|
|
<ele>8.060739</ele>
|
|
<time>2026-07-11T12:01:06.000Z</time>
|
|
</trkpt>
|
|
<trkpt lat="55.558886" lon="8.155723">
|
|
<ele>8.058842</ele>
|
|
<time>2026-07-11T12:01:07.000Z</time>
|
|
</trkpt>
|
|
<trkpt lat="55.558864" lon="8.155637">
|
|
<ele>8.056959</ele>
|
|
<time>2026-07-11T12:01:08.000Z</time>
|
|
</trkpt>
|
|
<trkpt lat="55.558847" lon="8.155548">
|
|
<ele>8.055086</ele>
|
|
<time>2026-07-11T12:01:09.000Z</time>
|
|
</trkpt>
|
|
<trkpt lat="55.558830" lon="8.155458">
|
|
<ele>8.053193</ele>
|
|
<time>2026-07-11T12:01:10.000Z</time>
|
|
</trkpt>
|
|
<trkpt lat="55.558809" lon="8.155367">
|
|
<ele>8.051233</ele>
|
|
<time>2026-07-11T12:01:11.000Z</time>
|
|
</trkpt>
|
|
<trkpt lat="55.558789" lon="8.155272">
|
|
<ele>8.049211</ele>
|
|
<time>2026-07-11T12:01:12.000Z</time>
|
|
</trkpt>
|
|
<trkpt lat="55.558774" lon="8.155180">
|
|
<ele>8.047301</ele>
|
|
<time>2026-07-11T12:01:13.000Z</time>
|
|
</trkpt>
|
|
<trkpt lat="55.558759" lon="8.155091">
|
|
<ele>8.045449</ele>
|
|
<time>2026-07-11T12:01:14.000Z</time>
|
|
</trkpt>
|
|
<trkpt lat="55.558744" lon="8.155001">
|
|
<ele>8.043577</ele>
|
|
<time>2026-07-11T12:01:15.000Z</time>
|
|
</trkpt>
|
|
<trkpt lat="55.558730" lon="8.154911">
|
|
<ele>8.041716</ele>
|
|
<time>2026-07-11T12:01:16.000Z</time>
|
|
</trkpt>
|
|
<trkpt lat="55.558717" lon="8.154817">
|
|
<ele>8.039786</ele>
|
|
<time>2026-07-11T12:01:17.000Z</time>
|
|
</trkpt>
|
|
<trkpt lat="55.558700" lon="8.154718">
|
|
<ele>8.037722</ele>
|
|
<time>2026-07-11T12:01:18.000Z</time>
|
|
</trkpt>
|
|
<trkpt lat="55.558681" lon="8.154623">
|
|
<ele>8.035712</ele>
|
|
<time>2026-07-11T12:01:19.000Z</time>
|
|
</trkpt>
|
|
<trkpt lat="55.558662" lon="8.154527">
|
|
<ele>8.033684</ele>
|
|
<time>2026-07-11T12:01:20.000Z</time>
|
|
</trkpt>
|
|
<trkpt lat="55.558643" lon="8.154431">
|
|
<ele>8.031655</ele>
|
|
<time>2026-07-11T12:01:21.000Z</time>
|
|
</trkpt>
|
|
<trkpt lat="55.558624" lon="8.154339">
|
|
<ele>8.029701</ele>
|
|
<time>2026-07-11T12:01:22.000Z</time>
|
|
</trkpt>
|
|
<trkpt lat="55.558605" lon="8.154245">
|
|
<ele>8.027710</ele>
|
|
<time>2026-07-11T12:01:23.000Z</time>
|
|
</trkpt>
|
|
<trkpt lat="55.558583" lon="8.154152">
|
|
<ele>8.025700</ele>
|
|
<time>2026-07-11T12:01:24.000Z</time>
|
|
</trkpt>
|
|
<trkpt lat="55.558561" lon="8.154067">
|
|
<ele>8.023835</ele>
|
|
<time>2026-07-11T12:01:25.000Z</time>
|
|
</trkpt>
|
|
<trkpt lat="55.558544" lon="8.153985">
|
|
<ele>8.022093</ele>
|
|
<time>2026-07-11T12:01:26.000Z</time>
|
|
</trkpt>
|
|
<trkpt lat="55.558525" lon="8.153899">
|
|
<ele>8.020252</ele>
|
|
<time>2026-07-11T12:01:27.000Z</time>
|
|
</trkpt>
|
|
<trkpt lat="55.558506" lon="8.153810">
|
|
<ele>8.016436</ele>
|
|
<time>2026-07-11T12:01:28.000Z</time>
|
|
</trkpt>
|
|
<trkpt lat="55.558487" lon="8.153721">
|
|
<ele>7.989705</ele>
|
|
<time>2026-07-11T12:01:29.000Z</time>
|
|
</trkpt>
|
|
<trkpt lat="55.558466" lon="8.153630">
|
|
<ele>7.962088</ele>
|
|
<time>2026-07-11T12:01:30.000Z</time>
|
|
</trkpt>
|
|
<trkpt lat="55.558443" lon="8.153538">
|
|
<ele>7.933824</ele>
|
|
<time>2026-07-11T12:01:31.000Z</time>
|
|
</trkpt>
|
|
<trkpt lat="55.558422" lon="8.153450">
|
|
<ele>7.906985</ele>
|
|
<time>2026-07-11T12:01:32.000Z</time>
|
|
</trkpt>
|
|
<trkpt lat="55.558403" lon="8.153357">
|
|
<ele>7.879200</ele>
|
|
<time>2026-07-11T12:01:33.000Z</time>
|
|
</trkpt>
|
|
<trkpt lat="55.558384" lon="8.153258">
|
|
<ele>7.849823</ele>
|
|
<time>2026-07-11T12:01:34.000Z</time>
|
|
</trkpt>
|
|
<trkpt lat="55.558363" lon="8.153162">
|
|
<ele>7.820900</ele>
|
|
<time>2026-07-11T12:01:35.000Z</time>
|
|
</trkpt>
|
|
<trkpt lat="55.558341" lon="8.153075">
|
|
<ele>7.794121</ele>
|
|
<time>2026-07-11T12:01:36.000Z</time>
|
|
</trkpt>
|
|
<trkpt lat="55.558319" lon="8.152993">
|
|
<ele>7.768618</ele>
|
|
<time>2026-07-11T12:01:37.000Z</time>
|
|
</trkpt>
|
|
<trkpt lat="55.558300" lon="8.152912">
|
|
<ele>7.743978</ele>
|
|
<time>2026-07-11T12:01:38.000Z</time>
|
|
</trkpt>
|
|
<trkpt lat="55.558281" lon="8.152831">
|
|
<ele>7.719337</ele>
|
|
<time>2026-07-11T12:01:39.000Z</time>
|
|
</trkpt>
|
|
<trkpt lat="55.558260" lon="8.152753">
|
|
<ele>7.695063</ele>
|
|
<time>2026-07-11T12:01:40.000Z</time>
|
|
</trkpt>
|
|
<trkpt lat="55.558239" lon="8.152674">
|
|
<ele>7.670534</ele>
|
|
<time>2026-07-11T12:01:41.000Z</time>
|
|
</trkpt>
|
|
<trkpt lat="55.558220" lon="8.152588">
|
|
<ele>7.644590</ele>
|
|
<time>2026-07-11T12:01:42.000Z</time>
|
|
</trkpt>
|
|
<trkpt lat="55.558198" lon="8.152497">
|
|
<ele>7.616781</ele>
|
|
<time>2026-07-11T12:01:43.000Z</time>
|
|
</trkpt>
|
|
<trkpt lat="55.558174" lon="8.152403">
|
|
<ele>7.587801</ele>
|
|
<time>2026-07-11T12:01:44.000Z</time>
|
|
</trkpt>
|
|
<trkpt lat="55.558152" lon="8.152309">
|
|
<ele>7.559215</ele>
|
|
<time>2026-07-11T12:01:45.000Z</time>
|
|
</trkpt>
|
|
<trkpt lat="55.558127" lon="8.152217">
|
|
<ele>7.530534</ele>
|
|
<time>2026-07-11T12:01:46.000Z</time>
|
|
</trkpt>
|
|
<trkpt lat="55.558104" lon="8.152128">
|
|
<ele>7.503038</ele>
|
|
<time>2026-07-11T12:01:47.000Z</time>
|
|
</trkpt>
|
|
<trkpt lat="55.558081" lon="8.152039">
|
|
<ele>7.475542</ele>
|
|
<time>2026-07-11T12:01:48.000Z</time>
|
|
</trkpt>
|
|
<trkpt lat="55.558058" lon="8.151947">
|
|
<ele>7.447278</ele>
|
|
<time>2026-07-11T12:01:49.000Z</time>
|
|
</trkpt>
|
|
<trkpt lat="55.558035" lon="8.151849">
|
|
<ele>7.417463</ele>
|
|
<time>2026-07-11T12:01:50.000Z</time>
|
|
</trkpt>
|
|
<trkpt lat="55.558014" lon="8.151755">
|
|
<ele>7.389063</ele>
|
|
<time>2026-07-11T12:01:51.000Z</time>
|
|
</trkpt>
|
|
<trkpt lat="55.557995" lon="8.151658">
|
|
<ele>7.360218</ele>
|
|
<time>2026-07-11T12:01:52.000Z</time>
|
|
</trkpt>
|
|
<trkpt lat="55.557977" lon="8.151560">
|
|
<ele>7.331264</ele>
|
|
<time>2026-07-11T12:01:53.000Z</time>
|
|
</trkpt>
|
|
<trkpt lat="55.557962" lon="8.151459">
|
|
<ele>7.301921</ele>
|
|
<time>2026-07-11T12:01:54.000Z</time>
|
|
</trkpt>
|
|
<trkpt lat="55.557943" lon="8.151356">
|
|
<ele>7.271478</ele>
|
|
<time>2026-07-11T12:01:55.000Z</time>
|
|
</trkpt>
|
|
<trkpt lat="55.557924" lon="8.151258">
|
|
<ele>7.242367</ele>
|
|
<time>2026-07-11T12:01:56.000Z</time>
|
|
</trkpt>
|
|
<trkpt lat="55.557906" lon="8.151163">
|
|
<ele>7.214214</ele>
|
|
<time>2026-07-11T12:01:57.000Z</time>
|
|
</trkpt>
|
|
<trkpt lat="55.557884" lon="8.151070">
|
|
<ele>7.185887</ele>
|
|
<time>2026-07-11T12:01:58.000Z</time>
|
|
</trkpt>
|
|
<trkpt lat="55.557865" lon="8.150978">
|
|
<ele>7.158366</ele>
|
|
<time>2026-07-11T12:01:59.000Z</time>
|
|
</trkpt>
|
|
<trkpt lat="55.557848" lon="8.150892">
|
|
<ele>7.132766</ele>
|
|
<time>2026-07-11T12:02:00.000Z</time>
|
|
</trkpt>
|
|
<trkpt lat="55.557828" lon="8.150807">
|
|
<ele>7.126383</ele>
|
|
<time>2026-07-11T12:02:01.000Z</time>
|
|
</trkpt>
|
|
<trkpt lat="55.557806" lon="8.150711">
|
|
<ele>7.128843</ele>
|
|
<time>2026-07-11T12:02:02.000Z</time>
|
|
</trkpt>
|
|
<trkpt lat="55.557787" lon="8.150617">
|
|
<ele>7.131214</ele>
|
|
<time>2026-07-11T12:02:03.000Z</time>
|
|
</trkpt>
|
|
<trkpt lat="55.557765" lon="8.150528">
|
|
<ele>7.133521</ele>
|
|
<time>2026-07-11T12:02:04.000Z</time>
|
|
</trkpt>
|
|
<trkpt lat="55.557747" lon="8.150439">
|
|
<ele>7.135766</ele>
|
|
<time>2026-07-11T12:02:05.000Z</time>
|
|
</trkpt>
|
|
<trkpt lat="55.557728" lon="8.150350">
|
|
<ele>7.138025</ele>
|
|
<time>2026-07-11T12:02:06.000Z</time>
|
|
</trkpt>
|
|
<trkpt lat="55.557709" lon="8.150256">
|
|
<ele>7.140395</ele>
|
|
<time>2026-07-11T12:02:07.000Z</time>
|
|
</trkpt>
|
|
<trkpt lat="55.557691" lon="8.150163">
|
|
<ele>7.142730</ele>
|
|
<time>2026-07-11T12:02:08.000Z</time>
|
|
</trkpt>
|
|
<trkpt lat="55.557676" lon="8.150075">
|
|
<ele>7.144913</ele>
|
|
<time>2026-07-11T12:02:09.000Z</time>
|
|
</trkpt>
|
|
<trkpt lat="55.557660" lon="8.149992">
|
|
<ele>7.146995</ele>
|
|
<time>2026-07-11T12:02:10.000Z</time>
|
|
</trkpt>
|
|
<trkpt lat="55.557646" lon="8.149912">
|
|
<ele>7.148984</ele>
|
|
<time>2026-07-11T12:02:11.000Z</time>
|
|
</trkpt>
|
|
<trkpt lat="55.557630" lon="8.149831">
|
|
<ele>7.151022</ele>
|
|
<time>2026-07-11T12:02:12.000Z</time>
|
|
</trkpt>
|
|
<trkpt lat="55.557617" lon="8.149751">
|
|
<ele>7.152998</ele>
|
|
<time>2026-07-11T12:02:13.000Z</time>
|
|
</trkpt>
|
|
<trkpt lat="55.557604" lon="8.149674">
|
|
<ele>7.154907</ele>
|
|
<time>2026-07-11T12:02:14.000Z</time>
|
|
</trkpt>
|
|
<trkpt lat="55.557590" lon="8.149590">
|
|
<ele>7.156986</ele>
|
|
<time>2026-07-11T12:02:15.000Z</time>
|
|
</trkpt>
|
|
<trkpt lat="55.557575" lon="8.149509">
|
|
<ele>7.159011</ele>
|
|
<time>2026-07-11T12:02:16.000Z</time>
|
|
</trkpt>
|
|
<trkpt lat="55.557558" lon="8.149427">
|
|
<ele>7.161085</ele>
|
|
<time>2026-07-11T12:02:17.000Z</time>
|
|
</trkpt>
|
|
<trkpt lat="55.557543" lon="8.149343">
|
|
<ele>7.163177</ele>
|
|
<time>2026-07-11T12:02:18.000Z</time>
|
|
</trkpt>
|
|
<trkpt lat="55.557528" lon="8.149254">
|
|
<ele>7.165382</ele>
|
|
<time>2026-07-11T12:02:19.000Z</time>
|
|
</trkpt>
|
|
<trkpt lat="55.557514" lon="8.149170">
|
|
<ele>7.167462</ele>
|
|
<time>2026-07-11T12:02:20.000Z</time>
|
|
</trkpt>
|
|
<trkpt lat="55.557498" lon="8.149088">
|
|
<ele>7.169522</ele>
|
|
<time>2026-07-11T12:02:21.000Z</time>
|
|
</trkpt>
|
|
<trkpt lat="55.557484" lon="8.149009">
|
|
<ele>7.171488</ele>
|
|
<time>2026-07-11T12:02:22.000Z</time>
|
|
</trkpt>
|
|
<trkpt lat="55.557466" lon="8.148934">
|
|
<ele>7.173423</ele>
|
|
<time>2026-07-11T12:02:23.000Z</time>
|
|
</trkpt>
|
|
<trkpt lat="55.557452" lon="8.148867">
|
|
<ele>7.175119</ele>
|
|
<time>2026-07-11T12:02:24.000Z</time>
|
|
</trkpt>
|
|
<trkpt lat="55.557441" lon="8.148814">
|
|
<ele>7.176460</ele>
|
|
<time>2026-07-11T12:02:25.000Z</time>
|
|
</trkpt>
|
|
<trkpt lat="55.557432" lon="8.148770">
|
|
<ele>7.177571</ele>
|
|
<time>2026-07-11T12:02:26.000Z</time>
|
|
</trkpt>
|
|
<trkpt lat="55.557429" lon="8.148730">
|
|
<ele>7.178530</ele>
|
|
<time>2026-07-11T12:02:27.000Z</time>
|
|
</trkpt>
|
|
<trkpt lat="55.557426" lon="8.148698">
|
|
<ele>7.179300</ele>
|
|
<time>2026-07-11T12:02:28.000Z</time>
|
|
</trkpt>
|
|
<trkpt lat="55.557426" lon="8.148671">
|
|
<ele>7.179941</ele>
|
|
<time>2026-07-11T12:02:29.000Z</time>
|
|
</trkpt>
|
|
<trkpt lat="55.557429" lon="8.148650">
|
|
<ele>7.180456</ele>
|
|
<time>2026-07-11T12:02:30.000Z</time>
|
|
</trkpt>
|
|
<trkpt lat="55.557438" lon="8.148637">
|
|
<ele>7.180944</ele>
|
|
<time>2026-07-11T12:02:31.000Z</time>
|
|
</trkpt>
|
|
<trkpt lat="55.557450" lon="8.148630">
|
|
<ele>7.181474</ele>
|
|
<time>2026-07-11T12:02:32.000Z</time>
|
|
</trkpt>
|
|
<trkpt lat="55.557463" lon="8.148622">
|
|
<ele>7.182052</ele>
|
|
<time>2026-07-11T12:02:33.000Z</time>
|
|
</trkpt>
|
|
<trkpt lat="55.557473" lon="8.148611">
|
|
<ele>7.182547</ele>
|
|
<time>2026-07-11T12:02:34.000Z</time>
|
|
</trkpt>
|
|
<trkpt lat="55.557477" lon="8.148592">
|
|
<ele>7.183028</ele>
|
|
<time>2026-07-11T12:02:35.000Z</time>
|
|
</trkpt>
|
|
<trkpt lat="55.557478" lon="8.148553">
|
|
<ele>7.183955</ele>
|
|
<time>2026-07-11T12:02:36.000Z</time>
|
|
</trkpt>
|
|
<trkpt lat="55.557471" lon="8.148514">
|
|
<ele>7.184927</ele>
|
|
<time>2026-07-11T12:02:37.000Z</time>
|
|
</trkpt>
|
|
<trkpt lat="55.557458" lon="8.148463">
|
|
<ele>7.186256</ele>
|
|
<time>2026-07-11T12:02:38.000Z</time>
|
|
</trkpt>
|
|
<trkpt lat="55.557443" lon="8.148407">
|
|
<ele>7.187727</ele>
|
|
<time>2026-07-11T12:02:39.000Z</time>
|
|
</trkpt>
|
|
<trkpt lat="55.557427" lon="8.148347">
|
|
<ele>7.189303</ele>
|
|
<time>2026-07-11T12:02:40.000Z</time>
|
|
</trkpt>
|
|
<trkpt lat="55.557406" lon="8.148279">
|
|
<ele>7.191143</ele>
|
|
<time>2026-07-11T12:02:41.000Z</time>
|
|
</trkpt>
|
|
<trkpt lat="55.557385" lon="8.148210">
|
|
<ele>7.193004</ele>
|
|
<time>2026-07-11T12:02:42.000Z</time>
|
|
</trkpt>
|
|
<trkpt lat="55.557364" lon="8.148136">
|
|
<ele>7.194970</ele>
|
|
<time>2026-07-11T12:02:43.000Z</time>
|
|
</trkpt>
|
|
<trkpt lat="55.557341" lon="8.148063">
|
|
<ele>7.196954</ele>
|
|
<time>2026-07-11T12:02:44.000Z</time>
|
|
</trkpt>
|
|
<trkpt lat="55.557318" lon="8.147987">
|
|
<ele>7.199001</ele>
|
|
<time>2026-07-11T12:02:45.000Z</time>
|
|
</trkpt>
|
|
<trkpt lat="55.557293" lon="8.147915">
|
|
<ele>7.198712</ele>
|
|
<time>2026-07-11T12:02:46.000Z</time>
|
|
</trkpt>
|
|
<trkpt lat="55.557268" lon="8.147839">
|
|
<ele>7.193026</ele>
|
|
<time>2026-07-11T12:02:47.000Z</time>
|
|
</trkpt>
|
|
<trkpt lat="55.557247" lon="8.147759">
|
|
<ele>7.187322</ele>
|
|
<time>2026-07-11T12:02:48.000Z</time>
|
|
</trkpt>
|
|
<trkpt lat="55.557226" lon="8.147682">
|
|
<ele>7.181794</ele>
|
|
<time>2026-07-11T12:02:49.000Z</time>
|
|
</trkpt>
|
|
<trkpt lat="55.557203" lon="8.147607">
|
|
<ele>7.176276</ele>
|
|
<time>2026-07-11T12:02:50.000Z</time>
|
|
</trkpt>
|
|
<trkpt lat="55.557182" lon="8.147532">
|
|
<ele>7.170864</ele>
|
|
<time>2026-07-11T12:02:51.000Z</time>
|
|
</trkpt>
|
|
<trkpt lat="55.557165" lon="8.147459">
|
|
<ele>7.165758</ele>
|
|
<time>2026-07-11T12:02:52.000Z</time>
|
|
</trkpt>
|
|
<trkpt lat="55.557149" lon="8.147388">
|
|
<ele>7.160816</ele>
|
|
<time>2026-07-11T12:02:53.000Z</time>
|
|
</trkpt>
|
|
<trkpt lat="55.557134" lon="8.147321">
|
|
<ele>7.156155</ele>
|
|
<time>2026-07-11T12:02:54.000Z</time>
|
|
</trkpt>
|
|
<trkpt lat="55.557117" lon="8.147253">
|
|
<ele>7.151347</ele>
|
|
<time>2026-07-11T12:02:55.000Z</time>
|
|
</trkpt>
|
|
<trkpt lat="55.557097" lon="8.147181">
|
|
<ele>7.146159</ele>
|
|
<time>2026-07-11T12:02:56.000Z</time>
|
|
</trkpt>
|
|
<trkpt lat="55.557076" lon="8.147109">
|
|
<ele>7.140920</ele>
|
|
<time>2026-07-11T12:02:57.000Z</time>
|
|
</trkpt>
|
|
<trkpt lat="55.557057" lon="8.147032">
|
|
<ele>7.135487</ele>
|
|
<time>2026-07-11T12:02:58.000Z</time>
|
|
</trkpt>
|
|
<trkpt lat="55.557040" lon="8.146958">
|
|
<ele>7.130322</ele>
|
|
<time>2026-07-11T12:02:59.000Z</time>
|
|
</trkpt>
|
|
<trkpt lat="55.557025" lon="8.146884">
|
|
<ele>7.125238</ele>
|
|
<time>2026-07-11T12:03:00.000Z</time>
|
|
</trkpt>
|
|
<trkpt lat="55.557008" lon="8.146810">
|
|
<ele>7.120072</ele>
|
|
<time>2026-07-11T12:03:01.000Z</time>
|
|
</trkpt>
|
|
<trkpt lat="55.556993" lon="8.146737">
|
|
<ele>7.115049</ele>
|
|
<time>2026-07-11T12:03:02.000Z</time>
|
|
</trkpt>
|
|
<trkpt lat="55.556981" lon="8.146668">
|
|
<ele>7.110381</ele>
|
|
<time>2026-07-11T12:03:03.000Z</time>
|
|
</trkpt>
|
|
<trkpt lat="55.556973" lon="8.146603">
|
|
<ele>7.106079</ele>
|
|
<time>2026-07-11T12:03:04.000Z</time>
|
|
</trkpt>
|
|
<trkpt lat="55.556967" lon="8.146540">
|
|
<ele>7.101947</ele>
|
|
<time>2026-07-11T12:03:05.000Z</time>
|
|
</trkpt>
|
|
<trkpt lat="55.556962" lon="8.146479">
|
|
<ele>7.097960</ele>
|
|
<time>2026-07-11T12:03:06.000Z</time>
|
|
</trkpt>
|
|
<trkpt lat="55.556956" lon="8.146414">
|
|
<ele>7.093701</ele>
|
|
<time>2026-07-11T12:03:07.000Z</time>
|
|
</trkpt>
|
|
<trkpt lat="55.556952" lon="8.146349">
|
|
<ele>7.089473</ele>
|
|
<time>2026-07-11T12:03:08.000Z</time>
|
|
</trkpt>
|
|
<trkpt lat="55.556950" lon="8.146282">
|
|
<ele>7.085133</ele>
|
|
<time>2026-07-11T12:03:09.000Z</time>
|
|
</trkpt>
|
|
<trkpt lat="55.556950" lon="8.146215">
|
|
<ele>7.080800</ele>
|
|
<time>2026-07-11T12:03:10.000Z</time>
|
|
</trkpt>
|
|
<trkpt lat="55.556948" lon="8.146144">
|
|
<ele>7.076203</ele>
|
|
<time>2026-07-11T12:03:11.000Z</time>
|
|
</trkpt>
|
|
<trkpt lat="55.556944" lon="8.146075">
|
|
<ele>7.071717</ele>
|
|
<time>2026-07-11T12:03:12.000Z</time>
|
|
</trkpt>
|
|
<trkpt lat="55.556940" lon="8.145998">
|
|
<ele>7.066716</ele>
|
|
<time>2026-07-11T12:03:13.000Z</time>
|
|
</trkpt>
|
|
<trkpt lat="55.556937" lon="8.145926">
|
|
<ele>7.062047</ele>
|
|
<time>2026-07-11T12:03:14.000Z</time>
|
|
</trkpt>
|
|
<trkpt lat="55.556934" lon="8.145851">
|
|
<ele>7.057185</ele>
|
|
<time>2026-07-11T12:03:15.000Z</time>
|
|
</trkpt>
|
|
<trkpt lat="55.556933" lon="8.145779">
|
|
<ele>7.052527</ele>
|
|
<time>2026-07-11T12:03:16.000Z</time>
|
|
</trkpt>
|
|
<trkpt lat="55.556931" lon="8.145706">
|
|
<ele>7.047800</ele>
|
|
<time>2026-07-11T12:03:17.000Z</time>
|
|
</trkpt>
|
|
<trkpt lat="55.556929" lon="8.145628">
|
|
<ele>7.042750</ele>
|
|
<time>2026-07-11T12:03:18.000Z</time>
|
|
</trkpt>
|
|
<trkpt lat="55.556927" lon="8.145548">
|
|
<ele>7.037572</ele>
|
|
<time>2026-07-11T12:03:19.000Z</time>
|
|
</trkpt>
|
|
<trkpt lat="55.556925" lon="8.145467">
|
|
<ele>7.032328</ele>
|
|
<time>2026-07-11T12:03:20.000Z</time>
|
|
</trkpt>
|
|
<trkpt lat="55.556921" lon="8.145379">
|
|
<ele>7.026618</ele>
|
|
<time>2026-07-11T12:03:21.000Z</time>
|
|
</trkpt>
|
|
<trkpt lat="55.556919" lon="8.145294">
|
|
<ele>7.021117</ele>
|
|
<time>2026-07-11T12:03:22.000Z</time>
|
|
</trkpt>
|
|
<trkpt lat="55.556918" lon="8.145209">
|
|
<ele>7.015618</ele>
|
|
<time>2026-07-11T12:03:23.000Z</time>
|
|
</trkpt>
|
|
<trkpt lat="55.556914" lon="8.145123">
|
|
<ele>7.010037</ele>
|
|
<time>2026-07-11T12:03:24.000Z</time>
|
|
</trkpt>
|
|
<trkpt lat="55.556911" lon="8.145036">
|
|
<ele>7.004400</ele>
|
|
<time>2026-07-11T12:03:25.000Z</time>
|
|
</trkpt>
|
|
<trkpt lat="55.556911" lon="8.144955">
|
|
<ele>6.999162</ele>
|
|
<time>2026-07-11T12:03:26.000Z</time>
|
|
</trkpt>
|
|
<trkpt lat="55.556911" lon="8.144878">
|
|
<ele>6.993209</ele>
|
|
<time>2026-07-11T12:03:27.000Z</time>
|
|
</trkpt>
|
|
<trkpt lat="55.556911" lon="8.144799">
|
|
<ele>6.978894</ele>
|
|
<time>2026-07-11T12:03:28.000Z</time>
|
|
</trkpt>
|
|
<trkpt lat="55.556911" lon="8.144723">
|
|
<ele>6.965122</ele>
|
|
<time>2026-07-11T12:03:29.000Z</time>
|
|
</trkpt>
|
|
<trkpt lat="55.556909" lon="8.144644">
|
|
<ele>6.950793</ele>
|
|
<time>2026-07-11T12:03:30.000Z</time>
|
|
</trkpt>
|
|
<trkpt lat="55.556902" lon="8.144553">
|
|
<ele>6.934152</ele>
|
|
<time>2026-07-11T12:03:31.000Z</time>
|
|
</trkpt>
|
|
<trkpt lat="55.556898" lon="8.144464">
|
|
<ele>6.917974</ele>
|
|
<time>2026-07-11T12:03:32.000Z</time>
|
|
</trkpt>
|
|
<trkpt lat="55.556895" lon="8.144375">
|
|
<ele>6.901819</ele>
|
|
<time>2026-07-11T12:03:33.000Z</time>
|
|
</trkpt>
|
|
<trkpt lat="55.556891" lon="8.144286">
|
|
<ele>6.885641</ele>
|
|
<time>2026-07-11T12:03:34.000Z</time>
|
|
</trkpt>
|
|
<trkpt lat="55.556887" lon="8.144198">
|
|
<ele>6.869644</ele>
|
|
<time>2026-07-11T12:03:35.000Z</time>
|
|
</trkpt>
|
|
<trkpt lat="55.556883" lon="8.144112">
|
|
<ele>6.854008</ele>
|
|
<time>2026-07-11T12:03:36.000Z</time>
|
|
</trkpt>
|
|
<trkpt lat="55.556879" lon="8.144028">
|
|
<ele>6.838733</ele>
|
|
<time>2026-07-11T12:03:37.000Z</time>
|
|
</trkpt>
|
|
<trkpt lat="55.556876" lon="8.143948">
|
|
<ele>6.824205</ele>
|
|
<time>2026-07-11T12:03:38.000Z</time>
|
|
</trkpt>
|
|
<trkpt lat="55.556870" lon="8.143871">
|
|
<ele>6.810121</ele>
|
|
<time>2026-07-11T12:03:39.000Z</time>
|
|
</trkpt>
|
|
<trkpt lat="55.556864" lon="8.143791">
|
|
<ele>6.795498</ele>
|
|
<time>2026-07-11T12:03:40.000Z</time>
|
|
</trkpt>
|
|
<trkpt lat="55.556859" lon="8.143713">
|
|
<ele>6.781274</ele>
|
|
<time>2026-07-11T12:03:41.000Z</time>
|
|
</trkpt>
|
|
<trkpt lat="55.556851" lon="8.143631">
|
|
<ele>6.766196</ele>
|
|
<time>2026-07-11T12:03:42.000Z</time>
|
|
</trkpt>
|
|
<trkpt lat="55.556845" lon="8.143551">
|
|
<ele>6.751573</ele>
|
|
<time>2026-07-11T12:03:43.000Z</time>
|
|
</trkpt>
|
|
<trkpt lat="55.556840" lon="8.143472">
|
|
<ele>6.737169</ele>
|
|
<time>2026-07-11T12:03:44.000Z</time>
|
|
</trkpt>
|
|
<trkpt lat="55.556834" lon="8.143392">
|
|
<ele>6.722546</ele>
|
|
<time>2026-07-11T12:03:45.000Z</time>
|
|
</trkpt>
|
|
<trkpt lat="55.556830" lon="8.143306">
|
|
<ele>6.706910</ele>
|
|
<time>2026-07-11T12:03:46.000Z</time>
|
|
</trkpt>
|
|
<trkpt lat="55.556824" lon="8.143221">
|
|
<ele>6.691388</ele>
|
|
<time>2026-07-11T12:03:47.000Z</time>
|
|
</trkpt>
|
|
<trkpt lat="55.556818" lon="8.143136">
|
|
<ele>6.675867</ele>
|
|
<time>2026-07-11T12:03:48.000Z</time>
|
|
</trkpt>
|
|
<trkpt lat="55.556811" lon="8.143052">
|
|
<ele>6.660481</ele>
|
|
<time>2026-07-11T12:03:49.000Z</time>
|
|
</trkpt>
|
|
<trkpt lat="55.556800" lon="8.142970">
|
|
<ele>6.645211</ele>
|
|
<time>2026-07-11T12:03:50.000Z</time>
|
|
</trkpt>
|
|
<trkpt lat="55.556790" lon="8.142891">
|
|
<ele>6.630542</ele>
|
|
<time>2026-07-11T12:03:51.000Z</time>
|
|
</trkpt>
|
|
<trkpt lat="55.556783" lon="8.142809">
|
|
<ele>6.615515</ele>
|
|
<time>2026-07-11T12:03:52.000Z</time>
|
|
</trkpt>
|
|
<trkpt lat="55.556776" lon="8.142721">
|
|
<ele>6.599412</ele>
|
|
<time>2026-07-11T12:03:53.000Z</time>
|
|
</trkpt>
|
|
<trkpt lat="55.556773" lon="8.142639">
|
|
<ele>6.584523</ele>
|
|
<time>2026-07-11T12:03:54.000Z</time>
|
|
</trkpt>
|
|
<trkpt lat="55.556769" lon="8.142557">
|
|
<ele>6.569609</ele>
|
|
<time>2026-07-11T12:03:55.000Z</time>
|
|
</trkpt>
|
|
<trkpt lat="55.556764" lon="8.142477">
|
|
<ele>6.555024</ele>
|
|
<time>2026-07-11T12:03:56.000Z</time>
|
|
</trkpt>
|
|
<trkpt lat="55.556757" lon="8.142390">
|
|
<ele>6.539101</ele>
|
|
<time>2026-07-11T12:03:57.000Z</time>
|
|
</trkpt>
|
|
<trkpt lat="55.556753" lon="8.142308">
|
|
<ele>6.524187</ele>
|
|
<time>2026-07-11T12:03:58.000Z</time>
|
|
</trkpt>
|
|
<trkpt lat="55.556747" lon="8.142227">
|
|
<ele>6.509385</ele>
|
|
<time>2026-07-11T12:03:59.000Z</time>
|
|
</trkpt>
|
|
<trkpt lat="55.556737" lon="8.142150">
|
|
<ele>6.495069</ele>
|
|
<time>2026-07-11T12:04:00.000Z</time>
|
|
</trkpt>
|
|
<trkpt lat="55.556729" lon="8.142071">
|
|
<ele>6.480527</ele>
|
|
<time>2026-07-11T12:04:01.000Z</time>
|
|
</trkpt>
|
|
<trkpt lat="55.556720" lon="8.141991">
|
|
<ele>6.465746</ele>
|
|
<time>2026-07-11T12:04:02.000Z</time>
|
|
</trkpt>
|
|
<trkpt lat="55.556709" lon="8.141913">
|
|
<ele>6.451180</ele>
|
|
<time>2026-07-11T12:04:03.000Z</time>
|
|
</trkpt>
|
|
<trkpt lat="55.556699" lon="8.141829">
|
|
<ele>6.435625</ele>
|
|
<time>2026-07-11T12:04:04.000Z</time>
|
|
</trkpt>
|
|
<trkpt lat="55.556689" lon="8.141747">
|
|
<ele>6.420425</ele>
|
|
<time>2026-07-11T12:04:05.000Z</time>
|
|
</trkpt>
|
|
<trkpt lat="55.556679" lon="8.141665">
|
|
<ele>6.424583</ele>
|
|
<time>2026-07-11T12:04:06.000Z</time>
|
|
</trkpt>
|
|
<trkpt lat="55.556672" lon="8.141584">
|
|
<ele>6.431422</ele>
|
|
<time>2026-07-11T12:04:07.000Z</time>
|
|
</trkpt>
|
|
<trkpt lat="55.556664" lon="8.141504">
|
|
<ele>6.438202</ele>
|
|
<time>2026-07-11T12:04:08.000Z</time>
|
|
</trkpt>
|
|
<trkpt lat="55.556657" lon="8.141428">
|
|
<ele>6.444628</ele>
|
|
<time>2026-07-11T12:04:09.000Z</time>
|
|
</trkpt>
|
|
<trkpt lat="55.556649" lon="8.141353">
|
|
<ele>6.450998</ele>
|
|
<time>2026-07-11T12:04:10.000Z</time>
|
|
</trkpt>
|
|
<trkpt lat="55.556641" lon="8.141277">
|
|
<ele>6.457449</ele>
|
|
<time>2026-07-11T12:04:11.000Z</time>
|
|
</trkpt>
|
|
<trkpt lat="55.556634" lon="8.141201">
|
|
<ele>6.463876</ele>
|
|
<time>2026-07-11T12:04:12.000Z</time>
|
|
</trkpt>
|
|
<trkpt lat="55.556626" lon="8.141126">
|
|
<ele>6.470245</ele>
|
|
<time>2026-07-11T12:04:13.000Z</time>
|
|
</trkpt>
|
|
<trkpt lat="55.556620" lon="8.141052">
|
|
<ele>6.476484</ele>
|
|
<time>2026-07-11T12:04:14.000Z</time>
|
|
</trkpt>
|
|
<trkpt lat="55.556614" lon="8.140971">
|
|
<ele>6.483302</ele>
|
|
<time>2026-07-11T12:04:15.000Z</time>
|
|
</trkpt>
|
|
<trkpt lat="55.556607" lon="8.140893">
|
|
<ele>6.489893</ele>
|
|
<time>2026-07-11T12:04:16.000Z</time>
|
|
</trkpt>
|
|
<trkpt lat="55.556599" lon="8.140815">
|
|
<ele>6.496509</ele>
|
|
<time>2026-07-11T12:04:17.000Z</time>
|
|
</trkpt>
|
|
<trkpt lat="55.556591" lon="8.140737">
|
|
<ele>6.503125</ele>
|
|
<time>2026-07-11T12:04:18.000Z</time>
|
|
</trkpt>
|
|
<trkpt lat="55.556586" lon="8.140657">
|
|
<ele>6.509842</ele>
|
|
<time>2026-07-11T12:04:19.000Z</time>
|
|
</trkpt>
|
|
<trkpt lat="55.556580" lon="8.140578">
|
|
<ele>6.516494</ele>
|
|
<time>2026-07-11T12:04:20.000Z</time>
|
|
</trkpt>
|
|
<trkpt lat="55.556573" lon="8.140503">
|
|
<ele>6.522838</ele>
|
|
<time>2026-07-11T12:04:21.000Z</time>
|
|
</trkpt>
|
|
<trkpt lat="55.556563" lon="8.140426">
|
|
<ele>6.529432</ele>
|
|
<time>2026-07-11T12:04:22.000Z</time>
|
|
</trkpt>
|
|
<trkpt lat="55.556555" lon="8.140346">
|
|
<ele>6.536212</ele>
|
|
<time>2026-07-11T12:04:23.000Z</time>
|
|
</trkpt>
|
|
<trkpt lat="55.556548" lon="8.140269">
|
|
<ele>6.542720</ele>
|
|
<time>2026-07-11T12:04:24.000Z</time>
|
|
</trkpt>
|
|
<trkpt lat="55.556540" lon="8.140192">
|
|
<ele>6.549254</ele>
|
|
<time>2026-07-11T12:04:25.000Z</time>
|
|
</trkpt>
|
|
<trkpt lat="55.556534" lon="8.140117">
|
|
<ele>6.555576</ele>
|
|
<time>2026-07-11T12:04:26.000Z</time>
|
|
</trkpt>
|
|
<trkpt lat="55.556527" lon="8.140044">
|
|
<ele>6.561755</ele>
|
|
<time>2026-07-11T12:04:27.000Z</time>
|
|
</trkpt>
|
|
<trkpt lat="55.556517" lon="8.139971">
|
|
<ele>6.568023</ele>
|
|
<time>2026-07-11T12:04:28.000Z</time>
|
|
</trkpt>
|
|
<trkpt lat="55.556509" lon="8.139902">
|
|
<ele>6.573902</ele>
|
|
<time>2026-07-11T12:04:29.000Z</time>
|
|
</trkpt>
|
|
<trkpt lat="55.556505" lon="8.139833">
|
|
<ele>6.579690</ele>
|
|
<time>2026-07-11T12:04:30.000Z</time>
|
|
</trkpt>
|
|
<trkpt lat="55.556502" lon="8.139760">
|
|
<ele>6.585799</ele>
|
|
<time>2026-07-11T12:04:31.000Z</time>
|
|
</trkpt>
|
|
<trkpt lat="55.556496" lon="8.139688">
|
|
<ele>6.591873</ele>
|
|
<time>2026-07-11T12:04:32.000Z</time>
|
|
</trkpt>
|
|
<trkpt lat="55.556488" lon="8.139619">
|
|
<ele>6.597751</ele>
|
|
<time>2026-07-11T12:04:33.000Z</time>
|
|
</trkpt>
|
|
<trkpt lat="55.556479" lon="8.139555">
|
|
<ele>6.603255</ele>
|
|
<time>2026-07-11T12:04:34.000Z</time>
|
|
</trkpt>
|
|
<trkpt lat="55.556470" lon="8.139492">
|
|
<ele>6.608678</ele>
|
|
<time>2026-07-11T12:04:35.000Z</time>
|
|
</trkpt>
|
|
<trkpt lat="55.556460" lon="8.139427">
|
|
<ele>6.614300</ele>
|
|
<time>2026-07-11T12:04:36.000Z</time>
|
|
</trkpt>
|
|
<trkpt lat="55.556450" lon="8.139365">
|
|
<ele>6.619680</ele>
|
|
<time>2026-07-11T12:04:37.000Z</time>
|
|
</trkpt>
|
|
<trkpt lat="55.556443" lon="8.139307">
|
|
<ele>6.624630</ele>
|
|
<time>2026-07-11T12:04:38.000Z</time>
|
|
</trkpt>
|
|
<trkpt lat="55.556433" lon="8.139249">
|
|
<ele>6.629690</ele>
|
|
<time>2026-07-11T12:04:39.000Z</time>
|
|
</trkpt>
|
|
<trkpt lat="55.556424" lon="8.139189">
|
|
<ele>6.634871</ele>
|
|
<time>2026-07-11T12:04:40.000Z</time>
|
|
</trkpt>
|
|
<trkpt lat="55.556415" lon="8.139129">
|
|
<ele>6.640051</ele>
|
|
<time>2026-07-11T12:04:41.000Z</time>
|
|
</trkpt>
|
|
<trkpt lat="55.556403" lon="8.139067">
|
|
<ele>6.645520</ele>
|
|
<time>2026-07-11T12:04:42.000Z</time>
|
|
</trkpt>
|
|
<trkpt lat="55.556391" lon="8.139003">
|
|
<ele>6.651147</ele>
|
|
<time>2026-07-11T12:04:43.000Z</time>
|
|
</trkpt>
|
|
<trkpt lat="55.556379" lon="8.138947">
|
|
<ele>6.656145</ele>
|
|
<time>2026-07-11T12:04:44.000Z</time>
|
|
</trkpt>
|
|
<trkpt lat="55.556365" lon="8.138891">
|
|
<ele>6.661255</ele>
|
|
<time>2026-07-11T12:04:45.000Z</time>
|
|
</trkpt>
|
|
<trkpt lat="55.556353" lon="8.138834">
|
|
<ele>6.666331</ele>
|
|
<time>2026-07-11T12:04:46.000Z</time>
|
|
</trkpt>
|
|
<trkpt lat="55.556340" lon="8.138778">
|
|
<ele>6.671383</ele>
|
|
<time>2026-07-11T12:04:47.000Z</time>
|
|
</trkpt>
|
|
<trkpt lat="55.556327" lon="8.138722">
|
|
<ele>6.676435</ele>
|
|
<time>2026-07-11T12:04:48.000Z</time>
|
|
</trkpt>
|
|
<trkpt lat="55.556314" lon="8.138668">
|
|
<ele>6.681333</ele>
|
|
<time>2026-07-11T12:04:49.000Z</time>
|
|
</trkpt>
|
|
<trkpt lat="55.556300" lon="8.138611">
|
|
<ele>6.685791</ele>
|
|
<time>2026-07-11T12:04:50.000Z</time>
|
|
</trkpt>
|
|
<trkpt lat="55.556287" lon="8.138552">
|
|
<ele>6.689618</ele>
|
|
<time>2026-07-11T12:04:51.000Z</time>
|
|
</trkpt>
|
|
<trkpt lat="55.556272" lon="8.138495">
|
|
<ele>6.693418</ele>
|
|
<time>2026-07-11T12:04:52.000Z</time>
|
|
</trkpt>
|
|
<trkpt lat="55.556255" lon="8.138434">
|
|
<ele>6.697527</ele>
|
|
<time>2026-07-11T12:04:53.000Z</time>
|
|
</trkpt>
|
|
<trkpt lat="55.556235" lon="8.138370">
|
|
<ele>6.701946</ele>
|
|
<time>2026-07-11T12:04:54.000Z</time>
|
|
</trkpt>
|
|
<trkpt lat="55.556218" lon="8.138306">
|
|
<ele>6.706219</ele>
|
|
<time>2026-07-11T12:04:55.000Z</time>
|
|
</trkpt>
|
|
<trkpt lat="55.556201" lon="8.138241">
|
|
<ele>6.710547</ele>
|
|
<time>2026-07-11T12:04:56.000Z</time>
|
|
</trkpt>
|
|
<trkpt lat="55.556184" lon="8.138176">
|
|
<ele>6.714875</ele>
|
|
<time>2026-07-11T12:04:57.000Z</time>
|
|
</trkpt>
|
|
<trkpt lat="55.556167" lon="8.138113">
|
|
<ele>6.719094</ele>
|
|
<time>2026-07-11T12:04:58.000Z</time>
|
|
</trkpt>
|
|
<trkpt lat="55.556149" lon="8.138052">
|
|
<ele>6.723252</ele>
|
|
<time>2026-07-11T12:04:59.000Z</time>
|
|
</trkpt>
|
|
<trkpt lat="55.556134" lon="8.137995">
|
|
<ele>6.727052</ele>
|
|
<time>2026-07-11T12:05:00.000Z</time>
|
|
</trkpt>
|
|
<trkpt lat="55.556119" lon="8.137942">
|
|
<ele>6.730633</ele>
|
|
<time>2026-07-11T12:05:01.000Z</time>
|
|
</trkpt>
|
|
<trkpt lat="55.556102" lon="8.137891">
|
|
<ele>6.734211</ele>
|
|
<time>2026-07-11T12:05:02.000Z</time>
|
|
</trkpt>
|
|
<trkpt lat="55.556083" lon="8.137840">
|
|
<ele>6.737902</ele>
|
|
<time>2026-07-11T12:05:03.000Z</time>
|
|
</trkpt>
|
|
<trkpt lat="55.556066" lon="8.137788">
|
|
<ele>6.741532</ele>
|
|
<time>2026-07-11T12:05:04.000Z</time>
|
|
</trkpt>
|
|
<trkpt lat="55.556050" lon="8.137732">
|
|
<ele>6.745323</ele>
|
|
<time>2026-07-11T12:05:05.000Z</time>
|
|
</trkpt>
|
|
<trkpt lat="55.556035" lon="8.137671">
|
|
<ele>6.749343</ele>
|
|
<time>2026-07-11T12:05:06.000Z</time>
|
|
</trkpt>
|
|
<trkpt lat="55.556020" lon="8.137608">
|
|
<ele>6.753474</ele>
|
|
<time>2026-07-11T12:05:07.000Z</time>
|
|
</trkpt>
|
|
<trkpt lat="55.556004" lon="8.137543">
|
|
<ele>6.757758</ele>
|
|
<time>2026-07-11T12:05:08.000Z</time>
|
|
</trkpt>
|
|
<trkpt lat="55.555991" lon="8.137478">
|
|
<ele>6.761925</ele>
|
|
<time>2026-07-11T12:05:09.000Z</time>
|
|
</trkpt>
|
|
<trkpt lat="55.555978" lon="8.137413">
|
|
<ele>6.766092</ele>
|
|
<time>2026-07-11T12:05:10.000Z</time>
|
|
</trkpt>
|
|
<trkpt lat="55.555963" lon="8.137350">
|
|
<ele>6.770223</ele>
|
|
<time>2026-07-11T12:05:11.000Z</time>
|
|
</trkpt>
|
|
<trkpt lat="55.555949" lon="8.137286">
|
|
<ele>6.774370</ele>
|
|
<time>2026-07-11T12:05:12.000Z</time>
|
|
</trkpt>
|
|
<trkpt lat="55.555939" lon="8.137214">
|
|
<ele>6.778851</ele>
|
|
<time>2026-07-11T12:05:13.000Z</time>
|
|
</trkpt>
|
|
<trkpt lat="55.555930" lon="8.137144">
|
|
<ele>6.783189</ele>
|
|
<time>2026-07-11T12:05:14.000Z</time>
|
|
</trkpt>
|
|
<trkpt lat="55.555920" lon="8.137076">
|
|
<ele>6.787435</ele>
|
|
<time>2026-07-11T12:05:15.000Z</time>
|
|
</trkpt>
|
|
<trkpt lat="55.555912" lon="8.137010">
|
|
<ele>6.791515</ele>
|
|
<time>2026-07-11T12:05:16.000Z</time>
|
|
</trkpt>
|
|
<trkpt lat="55.555905" lon="8.136948">
|
|
<ele>6.795336</ele>
|
|
<time>2026-07-11T12:05:17.000Z</time>
|
|
</trkpt>
|
|
<trkpt lat="55.555899" lon="8.136885">
|
|
<ele>6.799197</ele>
|
|
<time>2026-07-11T12:05:18.000Z</time>
|
|
</trkpt>
|
|
<trkpt lat="55.555893" lon="8.136821">
|
|
<ele>6.803117</ele>
|
|
<time>2026-07-11T12:05:19.000Z</time>
|
|
</trkpt>
|
|
<trkpt lat="55.555886" lon="8.136752">
|
|
<ele>6.807354</ele>
|
|
<time>2026-07-11T12:05:20.000Z</time>
|
|
</trkpt>
|
|
<trkpt lat="55.555880" lon="8.136682">
|
|
<ele>6.811633</ele>
|
|
<time>2026-07-11T12:05:21.000Z</time>
|
|
</trkpt>
|
|
<trkpt lat="55.555876" lon="8.136614">
|
|
<ele>6.815765</ele>
|
|
<time>2026-07-11T12:05:22.000Z</time>
|
|
</trkpt>
|
|
<trkpt lat="55.555872" lon="8.136548">
|
|
<ele>6.819776</ele>
|
|
<time>2026-07-11T12:05:23.000Z</time>
|
|
</trkpt>
|
|
<trkpt lat="55.555868" lon="8.136483">
|
|
<ele>6.823728</ele>
|
|
<time>2026-07-11T12:05:24.000Z</time>
|
|
</trkpt>
|
|
<trkpt lat="55.555866" lon="8.136418">
|
|
<ele>6.827662</ele>
|
|
<time>2026-07-11T12:05:25.000Z</time>
|
|
</trkpt>
|
|
<trkpt lat="55.555866" lon="8.136354">
|
|
<ele>6.831530</ele>
|
|
<time>2026-07-11T12:05:26.000Z</time>
|
|
</trkpt>
|
|
<trkpt lat="55.555866" lon="8.136289">
|
|
<ele>6.835458</ele>
|
|
<time>2026-07-11T12:05:27.000Z</time>
|
|
</trkpt>
|
|
<trkpt lat="55.555865" lon="8.136224">
|
|
<ele>6.839388</ele>
|
|
<time>2026-07-11T12:05:28.000Z</time>
|
|
</trkpt>
|
|
<trkpt lat="55.555862" lon="8.136162">
|
|
<ele>6.843149</ele>
|
|
<time>2026-07-11T12:05:29.000Z</time>
|
|
</trkpt>
|
|
<trkpt lat="55.555862" lon="8.136103">
|
|
<ele>6.846714</ele>
|
|
<time>2026-07-11T12:05:30.000Z</time>
|
|
</trkpt>
|
|
<trkpt lat="55.555864" lon="8.136044">
|
|
<ele>6.850287</ele>
|
|
<time>2026-07-11T12:05:31.000Z</time>
|
|
</trkpt>
|
|
<trkpt lat="55.555866" lon="8.135985">
|
|
<ele>6.853859</ele>
|
|
<time>2026-07-11T12:05:32.000Z</time>
|
|
</trkpt>
|
|
<trkpt lat="55.555865" lon="8.135926">
|
|
<ele>6.857426</ele>
|
|
<time>2026-07-11T12:05:33.000Z</time>
|
|
</trkpt>
|
|
<trkpt lat="55.555862" lon="8.135868">
|
|
<ele>6.860946</ele>
|
|
<time>2026-07-11T12:05:34.000Z</time>
|
|
</trkpt>
|
|
<trkpt lat="55.555862" lon="8.135815">
|
|
<ele>6.864149</ele>
|
|
<time>2026-07-11T12:05:35.000Z</time>
|
|
</trkpt>
|
|
<trkpt lat="55.555862" lon="8.135770">
|
|
<ele>6.866869</ele>
|
|
<time>2026-07-11T12:05:36.000Z</time>
|
|
</trkpt>
|
|
<trkpt lat="55.555862" lon="8.135734">
|
|
<ele>6.869044</ele>
|
|
<time>2026-07-11T12:05:37.000Z</time>
|
|
</trkpt>
|
|
<trkpt lat="55.555862" lon="8.135710">
|
|
<ele>6.870495</ele>
|
|
<time>2026-07-11T12:05:38.000Z</time>
|
|
</trkpt>
|
|
<trkpt lat="55.555740" lon="8.135772">
|
|
<ele>6.859945</ele>
|
|
<time>2026-07-11T12:09:32.000Z</time>
|
|
</trkpt>
|
|
<trkpt lat="55.555739" lon="8.135775">
|
|
<ele>6.859520</ele>
|
|
<time>2026-07-11T12:09:33.000Z</time>
|
|
</trkpt>
|
|
<trkpt lat="55.555727" lon="8.135799">
|
|
<ele>6.855612</ele>
|
|
<time>2026-07-11T12:09:34.000Z</time>
|
|
</trkpt>
|
|
<trkpt lat="55.555722" lon="8.135810">
|
|
<ele>6.853890</ele>
|
|
<time>2026-07-11T12:09:35.000Z</time>
|
|
</trkpt>
|
|
<trkpt lat="55.555716" lon="8.135822">
|
|
<ele>6.851936</ele>
|
|
<time>2026-07-11T12:09:36.000Z</time>
|
|
</trkpt>
|
|
<trkpt lat="55.555712" lon="8.135834">
|
|
<ele>6.850236</ele>
|
|
<time>2026-07-11T12:09:37.000Z</time>
|
|
</trkpt>
|
|
<trkpt lat="55.555708" lon="8.135848">
|
|
<ele>6.848323</ele>
|
|
<time>2026-07-11T12:09:38.000Z</time>
|
|
</trkpt>
|
|
<trkpt lat="55.555703" lon="8.135862">
|
|
<ele>6.846303</ele>
|
|
<time>2026-07-11T12:09:39.000Z</time>
|
|
</trkpt>
|
|
<trkpt lat="55.555698" lon="8.135872">
|
|
<ele>6.844674</ele>
|
|
<time>2026-07-11T12:09:40.000Z</time>
|
|
</trkpt>
|
|
<trkpt lat="55.555698" lon="8.135883">
|
|
<ele>6.843332</ele>
|
|
<time>2026-07-11T12:09:41.000Z</time>
|
|
</trkpt>
|
|
<trkpt lat="55.555695" lon="8.135895">
|
|
<ele>6.841731</ele>
|
|
<time>2026-07-11T12:09:42.000Z</time>
|
|
</trkpt>
|
|
<trkpt lat="55.555669" lon="8.135946">
|
|
<ele>6.833355</ele>
|
|
<time>2026-07-11T12:09:57.000Z</time>
|
|
</trkpt>
|
|
<trkpt lat="55.555607" lon="8.135977">
|
|
<ele>6.819456</ele>
|
|
<time>2026-07-11T12:30:37.000Z</time>
|
|
</trkpt>
|
|
<trkpt lat="55.555631" lon="8.135963">
|
|
<ele>6.814005</ele>
|
|
<time>2026-07-11T12:30:38.000Z</time>
|
|
</trkpt>
|
|
<trkpt lat="55.555698" lon="8.135918">
|
|
<ele>6.798544</ele>
|
|
<time>2026-07-11T12:30:39.000Z</time>
|
|
</trkpt>
|
|
<trkpt lat="55.555700" lon="8.135901">
|
|
<ele>6.796426</ele>
|
|
<time>2026-07-11T12:30:40.000Z</time>
|
|
</trkpt>
|
|
<trkpt lat="55.555704" lon="8.135881">
|
|
<ele>6.793838</ele>
|
|
<time>2026-07-11T12:30:41.000Z</time>
|
|
</trkpt>
|
|
<trkpt lat="55.555706" lon="8.135862">
|
|
<ele>6.791480</ele>
|
|
<time>2026-07-11T12:30:42.000Z</time>
|
|
</trkpt>
|
|
<trkpt lat="55.555708" lon="8.135843">
|
|
<ele>6.789122</ele>
|
|
<time>2026-07-11T12:30:43.000Z</time>
|
|
</trkpt>
|
|
<trkpt lat="55.555710" lon="8.135822">
|
|
<ele>6.786524</ele>
|
|
<time>2026-07-11T12:30:44.000Z</time>
|
|
</trkpt>
|
|
<trkpt lat="55.555711" lon="8.135802">
|
|
<ele>6.784074</ele>
|
|
<time>2026-07-11T12:30:45.000Z</time>
|
|
</trkpt>
|
|
<trkpt lat="55.555719" lon="8.135784">
|
|
<ele>6.781281</ele>
|
|
<time>2026-07-11T12:30:46.000Z</time>
|
|
</trkpt>
|
|
<trkpt lat="55.555728" lon="8.135767">
|
|
<ele>6.778440</ele>
|
|
<time>2026-07-11T12:30:47.000Z</time>
|
|
</trkpt>
|
|
<trkpt lat="55.555734" lon="8.135753">
|
|
<ele>6.776297</ele>
|
|
<time>2026-07-11T12:30:48.000Z</time>
|
|
</trkpt>
|
|
<trkpt lat="55.555740" lon="8.135741">
|
|
<ele>6.774343</ele>
|
|
<time>2026-07-11T12:30:49.000Z</time>
|
|
</trkpt>
|
|
<trkpt lat="55.555746" lon="8.135726">
|
|
<ele>6.772101</ele>
|
|
<time>2026-07-11T12:30:50.000Z</time>
|
|
</trkpt>
|
|
<trkpt lat="55.555750" lon="8.135710">
|
|
<ele>6.769967</ele>
|
|
<time>2026-07-11T12:30:51.000Z</time>
|
|
</trkpt>
|
|
<trkpt lat="55.555754" lon="8.135691">
|
|
<ele>6.767493</ele>
|
|
<time>2026-07-11T12:30:52.000Z</time>
|
|
</trkpt>
|
|
<trkpt lat="55.555757" lon="8.135670">
|
|
<ele>6.764851</ele>
|
|
<time>2026-07-11T12:30:53.000Z</time>
|
|
</trkpt>
|
|
<trkpt lat="55.555759" lon="8.135650">
|
|
<ele>6.762373</ele>
|
|
<time>2026-07-11T12:30:54.000Z</time>
|
|
</trkpt>
|
|
<trkpt lat="55.555759" lon="8.135630">
|
|
<ele>6.759933</ele>
|
|
<time>2026-07-11T12:30:55.000Z</time>
|
|
</trkpt>
|
|
<trkpt lat="55.555761" lon="8.135609">
|
|
<ele>6.757335</ele>
|
|
<time>2026-07-11T12:30:56.000Z</time>
|
|
</trkpt>
|
|
<trkpt lat="55.555763" lon="8.135588">
|
|
<ele>6.754736</ele>
|
|
<time>2026-07-11T12:30:57.000Z</time>
|
|
</trkpt>
|
|
<trkpt lat="55.555763" lon="8.135568">
|
|
<ele>6.752296</ele>
|
|
<time>2026-07-11T12:30:58.000Z</time>
|
|
</trkpt>
|
|
<trkpt lat="55.555763" lon="8.135548">
|
|
<ele>6.749856</ele>
|
|
<time>2026-07-11T12:30:59.000Z</time>
|
|
</trkpt>
|
|
<trkpt lat="55.555763" lon="8.135528">
|
|
<ele>6.747416</ele>
|
|
<time>2026-07-11T12:31:00.000Z</time>
|
|
</trkpt>
|
|
<trkpt lat="55.555763" lon="8.135509">
|
|
<ele>6.745098</ele>
|
|
<time>2026-07-11T12:31:01.000Z</time>
|
|
</trkpt>
|
|
<trkpt lat="55.555763" lon="8.135489">
|
|
<ele>6.742658</ele>
|
|
<time>2026-07-11T12:31:02.000Z</time>
|
|
</trkpt>
|
|
<trkpt lat="55.555763" lon="8.135471">
|
|
<ele>6.740462</ele>
|
|
<time>2026-07-11T12:31:03.000Z</time>
|
|
</trkpt>
|
|
<trkpt lat="55.555763" lon="8.135454">
|
|
<ele>6.738388</ele>
|
|
<time>2026-07-11T12:31:04.000Z</time>
|
|
</trkpt>
|
|
<trkpt lat="55.555763" lon="8.135436">
|
|
<ele>6.736191</ele>
|
|
<time>2026-07-11T12:31:05.000Z</time>
|
|
</trkpt>
|
|
<trkpt lat="55.555763" lon="8.135419">
|
|
<ele>6.734117</ele>
|
|
<time>2026-07-11T12:31:06.000Z</time>
|
|
</trkpt>
|
|
<trkpt lat="55.555765" lon="8.135403">
|
|
<ele>6.732118</ele>
|
|
<time>2026-07-11T12:31:07.000Z</time>
|
|
</trkpt>
|
|
<trkpt lat="55.555767" lon="8.135385">
|
|
<ele>6.729880</ele>
|
|
<time>2026-07-11T12:31:08.000Z</time>
|
|
</trkpt>
|
|
<trkpt lat="55.555769" lon="8.135367">
|
|
<ele>6.727642</ele>
|
|
<time>2026-07-11T12:31:09.000Z</time>
|
|
</trkpt>
|
|
<trkpt lat="55.555771" lon="8.135349">
|
|
<ele>6.725404</ele>
|
|
<time>2026-07-11T12:31:10.000Z</time>
|
|
</trkpt>
|
|
<trkpt lat="55.555773" lon="8.135330">
|
|
<ele>6.723046</ele>
|
|
<time>2026-07-11T12:31:11.000Z</time>
|
|
</trkpt>
|
|
<trkpt lat="55.555775" lon="8.135311">
|
|
<ele>6.720688</ele>
|
|
<time>2026-07-11T12:31:12.000Z</time>
|
|
</trkpt>
|
|
<trkpt lat="55.555776" lon="8.135292">
|
|
<ele>6.718360</ele>
|
|
<time>2026-07-11T12:31:13.000Z</time>
|
|
</trkpt>
|
|
<trkpt lat="55.555779" lon="8.135273">
|
|
<ele>6.715953</ele>
|
|
<time>2026-07-11T12:31:14.000Z</time>
|
|
</trkpt>
|
|
<trkpt lat="55.555779" lon="8.135253">
|
|
<ele>6.713513</ele>
|
|
<time>2026-07-11T12:31:15.000Z</time>
|
|
</trkpt>
|
|
<trkpt lat="55.555779" lon="8.135234">
|
|
<ele>6.711195</ele>
|
|
<time>2026-07-11T12:31:16.000Z</time>
|
|
</trkpt>
|
|
<trkpt lat="55.555779" lon="8.135217">
|
|
<ele>6.709121</ele>
|
|
<time>2026-07-11T12:31:17.000Z</time>
|
|
</trkpt>
|
|
<trkpt lat="55.555780" lon="8.135199">
|
|
<ele>6.706914</ele>
|
|
<time>2026-07-11T12:31:18.000Z</time>
|
|
</trkpt>
|
|
<trkpt lat="55.555782" lon="8.135183">
|
|
<ele>6.704915</ele>
|
|
<time>2026-07-11T12:31:19.000Z</time>
|
|
</trkpt>
|
|
<trkpt lat="55.555782" lon="8.135165">
|
|
<ele>6.702719</ele>
|
|
<time>2026-07-11T12:31:20.000Z</time>
|
|
</trkpt>
|
|
<trkpt lat="55.555782" lon="8.135147">
|
|
<ele>6.700523</ele>
|
|
<time>2026-07-11T12:31:21.000Z</time>
|
|
</trkpt>
|
|
<trkpt lat="55.555782" lon="8.135128">
|
|
<ele>6.698205</ele>
|
|
<time>2026-07-11T12:31:22.000Z</time>
|
|
</trkpt>
|
|
<trkpt lat="55.555782" lon="8.135109">
|
|
<ele>6.695886</ele>
|
|
<time>2026-07-11T12:31:23.000Z</time>
|
|
</trkpt>
|
|
<trkpt lat="55.555784" lon="8.135091">
|
|
<ele>6.693648</ele>
|
|
<time>2026-07-11T12:31:24.000Z</time>
|
|
</trkpt>
|
|
<trkpt lat="55.555786" lon="8.135073">
|
|
<ele>6.691410</ele>
|
|
<time>2026-07-11T12:31:25.000Z</time>
|
|
</trkpt>
|
|
<trkpt lat="55.555786" lon="8.135052">
|
|
<ele>6.688848</ele>
|
|
<time>2026-07-11T12:31:26.000Z</time>
|
|
</trkpt>
|
|
<trkpt lat="55.555784" lon="8.135033">
|
|
<ele>6.686490</ele>
|
|
<time>2026-07-11T12:31:27.000Z</time>
|
|
</trkpt>
|
|
<trkpt lat="55.555781" lon="8.135014">
|
|
<ele>6.684083</ele>
|
|
<time>2026-07-11T12:31:28.000Z</time>
|
|
</trkpt>
|
|
<trkpt lat="55.555779" lon="8.134995">
|
|
<ele>6.681726</ele>
|
|
<time>2026-07-11T12:31:29.000Z</time>
|
|
</trkpt>
|
|
<trkpt lat="55.555779" lon="8.134977">
|
|
<ele>6.679529</ele>
|
|
<time>2026-07-11T12:31:30.000Z</time>
|
|
</trkpt>
|
|
<trkpt lat="55.555779" lon="8.134959">
|
|
<ele>6.677333</ele>
|
|
<time>2026-07-11T12:31:31.000Z</time>
|
|
</trkpt>
|
|
<trkpt lat="55.555779" lon="8.134941">
|
|
<ele>6.675137</ele>
|
|
<time>2026-07-11T12:31:32.000Z</time>
|
|
</trkpt>
|
|
<trkpt lat="55.555779" lon="8.134922">
|
|
<ele>6.672819</ele>
|
|
<time>2026-07-11T12:31:33.000Z</time>
|
|
</trkpt>
|
|
<trkpt lat="55.555777" lon="8.134904">
|
|
<ele>6.670581</ele>
|
|
<time>2026-07-11T12:31:34.000Z</time>
|
|
</trkpt>
|
|
<trkpt lat="55.555775" lon="8.134888">
|
|
<ele>6.668582</ele>
|
|
<time>2026-07-11T12:31:35.000Z</time>
|
|
</trkpt>
|
|
<trkpt lat="55.555775" lon="8.134871">
|
|
<ele>6.666508</ele>
|
|
<time>2026-07-11T12:31:36.000Z</time>
|
|
</trkpt>
|
|
<trkpt lat="55.555775" lon="8.134855">
|
|
<ele>6.664556</ele>
|
|
<time>2026-07-11T12:31:37.000Z</time>
|
|
</trkpt>
|
|
<trkpt lat="55.555775" lon="8.134838">
|
|
<ele>6.662482</ele>
|
|
<time>2026-07-11T12:31:38.000Z</time>
|
|
</trkpt>
|
|
<trkpt lat="55.555775" lon="8.134820">
|
|
<ele>6.660285</ele>
|
|
<time>2026-07-11T12:31:39.000Z</time>
|
|
</trkpt>
|
|
<trkpt lat="55.555773" lon="8.134805">
|
|
<ele>6.658405</ele>
|
|
<time>2026-07-11T12:31:40.000Z</time>
|
|
</trkpt>
|
|
<trkpt lat="55.555771" lon="8.134797">
|
|
<ele>6.657338</ele>
|
|
<time>2026-07-11T12:31:41.000Z</time>
|
|
</trkpt>
|
|
<trkpt lat="55.555768" lon="8.134770">
|
|
<ele>6.653981</ele>
|
|
<time>2026-07-11T12:31:44.000Z</time>
|
|
</trkpt>
|
|
<trkpt lat="55.555763" lon="8.134727">
|
|
<ele>6.648625</ele>
|
|
<time>2026-07-11T12:31:45.000Z</time>
|
|
</trkpt>
|
|
<trkpt lat="55.555762" lon="8.134707">
|
|
<ele>6.646175</ele>
|
|
<time>2026-07-11T12:31:46.000Z</time>
|
|
</trkpt>
|
|
<trkpt lat="55.555758" lon="8.134688">
|
|
<ele>6.643702</ele>
|
|
<time>2026-07-11T12:31:47.000Z</time>
|
|
</trkpt>
|
|
<trkpt lat="55.555752" lon="8.134671">
|
|
<ele>6.641257</ele>
|
|
<time>2026-07-11T12:31:48.000Z</time>
|
|
</trkpt>
|
|
<trkpt lat="55.555745" lon="8.134654">
|
|
<ele>6.638691</ele>
|
|
<time>2026-07-11T12:31:49.000Z</time>
|
|
</trkpt>
|
|
<trkpt lat="55.555739" lon="8.134637">
|
|
<ele>6.636247</ele>
|
|
<time>2026-07-11T12:31:50.000Z</time>
|
|
</trkpt>
|
|
<trkpt lat="55.555735" lon="8.134616">
|
|
<ele>6.633543</ele>
|
|
<time>2026-07-11T12:31:51.000Z</time>
|
|
</trkpt>
|
|
<trkpt lat="55.555731" lon="8.134597">
|
|
<ele>6.631070</ele>
|
|
<time>2026-07-11T12:31:52.000Z</time>
|
|
</trkpt>
|
|
<trkpt lat="55.555727" lon="8.134578">
|
|
<ele>6.628596</ele>
|
|
<time>2026-07-11T12:31:53.000Z</time>
|
|
</trkpt>
|
|
<trkpt lat="55.555724" lon="8.134560">
|
|
<ele>6.626307</ele>
|
|
<time>2026-07-11T12:31:54.000Z</time>
|
|
</trkpt>
|
|
<trkpt lat="55.555720" lon="8.134542">
|
|
<ele>6.623947</ele>
|
|
<time>2026-07-11T12:31:55.000Z</time>
|
|
</trkpt>
|
|
<trkpt lat="55.555716" lon="8.134527">
|
|
<ele>6.621924</ele>
|
|
<time>2026-07-11T12:31:56.000Z</time>
|
|
</trkpt>
|
|
<trkpt lat="55.555712" lon="8.134511">
|
|
<ele>6.619790</ele>
|
|
<time>2026-07-11T12:31:57.000Z</time>
|
|
</trkpt>
|
|
<trkpt lat="55.555710" lon="8.134496">
|
|
<ele>6.617909</ele>
|
|
<time>2026-07-11T12:31:58.000Z</time>
|
|
</trkpt>
|
|
<trkpt lat="55.555710" lon="8.134482">
|
|
<ele>6.616201</ele>
|
|
<time>2026-07-11T12:31:59.000Z</time>
|
|
</trkpt>
|
|
<trkpt lat="55.555708" lon="8.134466">
|
|
<ele>6.614202</ele>
|
|
<time>2026-07-11T12:32:00.000Z</time>
|
|
</trkpt>
|
|
<trkpt lat="55.555704" lon="8.134449">
|
|
<ele>6.611956</ele>
|
|
<time>2026-07-11T12:32:01.000Z</time>
|
|
</trkpt>
|
|
<trkpt lat="55.555701" lon="8.134432">
|
|
<ele>6.609783</ele>
|
|
<time>2026-07-11T12:32:02.000Z</time>
|
|
</trkpt>
|
|
<trkpt lat="55.555698" lon="8.134412">
|
|
<ele>6.607258</ele>
|
|
<time>2026-07-11T12:32:03.000Z</time>
|
|
</trkpt>
|
|
<trkpt lat="55.555698" lon="8.134395">
|
|
<ele>6.605184</ele>
|
|
<time>2026-07-11T12:32:04.000Z</time>
|
|
</trkpt>
|
|
<trkpt lat="55.555698" lon="8.134379">
|
|
<ele>6.603232</ele>
|
|
<time>2026-07-11T12:32:05.000Z</time>
|
|
</trkpt>
|
|
<trkpt lat="55.555697" lon="8.134357">
|
|
<ele>6.600539</ele>
|
|
<time>2026-07-11T12:32:06.000Z</time>
|
|
</trkpt>
|
|
<trkpt lat="55.555695" lon="8.134339">
|
|
<ele>6.598301</ele>
|
|
<time>2026-07-11T12:32:07.000Z</time>
|
|
</trkpt>
|
|
<trkpt lat="55.555695" lon="8.134319">
|
|
<ele>6.595861</ele>
|
|
<time>2026-07-11T12:32:08.000Z</time>
|
|
</trkpt>
|
|
<trkpt lat="55.555693" lon="8.134298">
|
|
<ele>6.593263</ele>
|
|
<time>2026-07-11T12:32:09.000Z</time>
|
|
</trkpt>
|
|
<trkpt lat="55.555689" lon="8.134279">
|
|
<ele>6.590789</ele>
|
|
<time>2026-07-11T12:32:10.000Z</time>
|
|
</trkpt>
|
|
<trkpt lat="55.555687" lon="8.134260">
|
|
<ele>6.588432</ele>
|
|
<time>2026-07-11T12:32:11.000Z</time>
|
|
</trkpt>
|
|
<trkpt lat="55.555685" lon="8.134242">
|
|
<ele>6.586193</ele>
|
|
<time>2026-07-11T12:32:12.000Z</time>
|
|
</trkpt>
|
|
<trkpt lat="55.555682" lon="8.134225">
|
|
<ele>6.584021</ele>
|
|
<time>2026-07-11T12:32:13.000Z</time>
|
|
</trkpt>
|
|
<trkpt lat="55.555678" lon="8.134208">
|
|
<ele>6.581774</ele>
|
|
<time>2026-07-11T12:32:14.000Z</time>
|
|
</trkpt>
|
|
<trkpt lat="55.555675" lon="8.134190">
|
|
<ele>6.579485</ele>
|
|
<time>2026-07-11T12:32:15.000Z</time>
|
|
</trkpt>
|
|
<trkpt lat="55.555674" lon="8.134173">
|
|
<ele>6.577399</ele>
|
|
<time>2026-07-11T12:32:16.000Z</time>
|
|
</trkpt>
|
|
<trkpt lat="55.555672" lon="8.134155">
|
|
<ele>6.575161</ele>
|
|
<time>2026-07-11T12:32:17.000Z</time>
|
|
</trkpt>
|
|
<trkpt lat="55.555672" lon="8.134137">
|
|
<ele>6.572965</ele>
|
|
<time>2026-07-11T12:32:18.000Z</time>
|
|
</trkpt>
|
|
<trkpt lat="55.555672" lon="8.134119">
|
|
<ele>6.570769</ele>
|
|
<time>2026-07-11T12:32:19.000Z</time>
|
|
</trkpt>
|
|
<trkpt lat="55.555670" lon="8.134101">
|
|
<ele>6.568531</ele>
|
|
<time>2026-07-11T12:32:20.000Z</time>
|
|
</trkpt>
|
|
<trkpt lat="55.555666" lon="8.134084">
|
|
<ele>6.566285</ele>
|
|
<time>2026-07-11T12:32:21.000Z</time>
|
|
</trkpt>
|
|
<trkpt lat="55.555662" lon="8.134069">
|
|
<ele>6.564261</ele>
|
|
<time>2026-07-11T12:32:22.000Z</time>
|
|
</trkpt>
|
|
<trkpt lat="55.555659" lon="8.134055">
|
|
<ele>6.562435</ele>
|
|
<time>2026-07-11T12:32:23.000Z</time>
|
|
</trkpt>
|
|
<trkpt lat="55.555656" lon="8.134040">
|
|
<ele>6.560494</ele>
|
|
<time>2026-07-11T12:32:24.000Z</time>
|
|
</trkpt>
|
|
<trkpt lat="55.555656" lon="8.134024">
|
|
<ele>6.558542</ele>
|
|
<time>2026-07-11T12:32:25.000Z</time>
|
|
</trkpt>
|
|
<trkpt lat="55.555655" lon="8.134010">
|
|
<ele>6.556820</ele>
|
|
<time>2026-07-11T12:32:26.000Z</time>
|
|
</trkpt>
|
|
<trkpt lat="55.555653" lon="8.134001">
|
|
<ele>6.555640</ele>
|
|
<time>2026-07-11T12:32:27.000Z</time>
|
|
</trkpt>
|
|
<trkpt lat="55.555653" lon="8.133997">
|
|
<ele>6.555152</ele>
|
|
<time>2026-07-11T12:32:28.000Z</time>
|
|
</trkpt>
|
|
<trkpt lat="55.555653" lon="8.133997">
|
|
<ele>6.555152</ele>
|
|
<time>2026-07-11T12:32:36.000Z</time>
|
|
</trkpt>
|
|
<trkpt lat="55.555653" lon="8.133997">
|
|
<ele>6.555152</ele>
|
|
<time>2026-07-11T12:32:39.000Z</time>
|
|
</trkpt>
|
|
<trkpt lat="55.555653" lon="8.133997">
|
|
<ele>6.555152</ele>
|
|
<time>2026-07-11T12:32:46.000Z</time>
|
|
</trkpt>
|
|
<trkpt lat="55.555668" lon="8.133938">
|
|
<ele>6.547260</ele>
|
|
<time>2026-07-11T12:32:53.000Z</time>
|
|
</trkpt>
|
|
<trkpt lat="55.555693" lon="8.133824">
|
|
<ele>6.532342</ele>
|
|
<time>2026-07-11T12:32:54.000Z</time>
|
|
</trkpt>
|
|
<trkpt lat="55.555689" lon="8.133768">
|
|
<ele>6.525456</ele>
|
|
<time>2026-07-11T12:32:55.000Z</time>
|
|
</trkpt>
|
|
<trkpt lat="55.555685" lon="8.133713">
|
|
<ele>6.518690</ele>
|
|
<time>2026-07-11T12:32:56.000Z</time>
|
|
</trkpt>
|
|
<trkpt lat="55.555680" lon="8.133655">
|
|
<ele>6.511532</ele>
|
|
<time>2026-07-11T12:32:57.000Z</time>
|
|
</trkpt>
|
|
<trkpt lat="55.555672" lon="8.133596">
|
|
<ele>6.504130</ele>
|
|
<time>2026-07-11T12:32:58.000Z</time>
|
|
</trkpt>
|
|
<trkpt lat="55.555663" lon="8.133537">
|
|
<ele>6.496674</ele>
|
|
<time>2026-07-11T12:32:59.000Z</time>
|
|
</trkpt>
|
|
<trkpt lat="55.555653" lon="8.133474">
|
|
<ele>6.488691</ele>
|
|
<time>2026-07-11T12:33:00.000Z</time>
|
|
</trkpt>
|
|
<trkpt lat="55.555645" lon="8.133410">
|
|
<ele>6.490005</ele>
|
|
<time>2026-07-11T12:33:01.000Z</time>
|
|
</trkpt>
|
|
<trkpt lat="55.555638" lon="8.133345">
|
|
<ele>6.492100</ele>
|
|
<time>2026-07-11T12:33:02.000Z</time>
|
|
</trkpt>
|
|
<trkpt lat="55.555629" lon="8.133279">
|
|
<ele>6.494251</ele>
|
|
<time>2026-07-11T12:33:03.000Z</time>
|
|
</trkpt>
|
|
<trkpt lat="55.555617" lon="8.133212">
|
|
<ele>6.496476</ele>
|
|
<time>2026-07-11T12:33:04.000Z</time>
|
|
</trkpt>
|
|
<trkpt lat="55.555607" lon="8.133149">
|
|
<ele>6.498549</ele>
|
|
<time>2026-07-11T12:33:05.000Z</time>
|
|
</trkpt>
|
|
<trkpt lat="55.555600" lon="8.133086">
|
|
<ele>6.500582</ele>
|
|
<time>2026-07-11T12:33:06.000Z</time>
|
|
</trkpt>
|
|
<trkpt lat="55.555594" lon="8.133023">
|
|
<ele>6.502606</ele>
|
|
<time>2026-07-11T12:33:07.000Z</time>
|
|
</trkpt>
|
|
<trkpt lat="55.555592" lon="8.132957">
|
|
<ele>6.504699</ele>
|
|
<time>2026-07-11T12:33:08.000Z</time>
|
|
</trkpt>
|
|
<trkpt lat="55.555590" lon="8.132891">
|
|
<ele>6.506792</ele>
|
|
<time>2026-07-11T12:33:09.000Z</time>
|
|
</trkpt>
|
|
<trkpt lat="55.555586" lon="8.132824">
|
|
<ele>6.508926</ele>
|
|
<time>2026-07-11T12:33:10.000Z</time>
|
|
</trkpt>
|
|
<trkpt lat="55.555582" lon="8.132759">
|
|
<ele>6.510997</ele>
|
|
<time>2026-07-11T12:33:11.000Z</time>
|
|
</trkpt>
|
|
<trkpt lat="55.555574" lon="8.132697">
|
|
<ele>6.513011</ele>
|
|
<time>2026-07-11T12:33:12.000Z</time>
|
|
</trkpt>
|
|
<trkpt lat="55.555563" lon="8.132636">
|
|
<ele>6.515039</ele>
|
|
<time>2026-07-11T12:33:13.000Z</time>
|
|
</trkpt>
|
|
<trkpt lat="55.555558" lon="8.132570">
|
|
<ele>6.517147</ele>
|
|
<time>2026-07-11T12:33:14.000Z</time>
|
|
</trkpt>
|
|
<trkpt lat="55.555550" lon="8.132507">
|
|
<ele>6.519192</ele>
|
|
<time>2026-07-11T12:33:15.000Z</time>
|
|
</trkpt>
|
|
<trkpt lat="55.555542" lon="8.132442">
|
|
<ele>6.521299</ele>
|
|
<time>2026-07-11T12:33:16.000Z</time>
|
|
</trkpt>
|
|
<trkpt lat="55.555535" lon="8.132377">
|
|
<ele>6.523395</ele>
|
|
<time>2026-07-11T12:33:17.000Z</time>
|
|
</trkpt>
|
|
<trkpt lat="55.555525" lon="8.132310">
|
|
<ele>6.525589</ele>
|
|
<time>2026-07-11T12:33:18.000Z</time>
|
|
</trkpt>
|
|
<trkpt lat="55.555514" lon="8.132246">
|
|
<ele>6.527708</ele>
|
|
<time>2026-07-11T12:33:19.000Z</time>
|
|
</trkpt>
|
|
<trkpt lat="55.555505" lon="8.132185">
|
|
<ele>6.529705</ele>
|
|
<time>2026-07-11T12:33:20.000Z</time>
|
|
</trkpt>
|
|
<trkpt lat="55.555496" lon="8.132122">
|
|
<ele>6.531763</ele>
|
|
<time>2026-07-11T12:33:21.000Z</time>
|
|
</trkpt>
|
|
<trkpt lat="55.555487" lon="8.132049">
|
|
<ele>6.534129</ele>
|
|
<time>2026-07-11T12:33:22.000Z</time>
|
|
</trkpt>
|
|
<trkpt lat="55.555482" lon="8.131984">
|
|
<ele>6.536206</ele>
|
|
<time>2026-07-11T12:33:23.000Z</time>
|
|
</trkpt>
|
|
<trkpt lat="55.555474" lon="8.131919">
|
|
<ele>6.538313</ele>
|
|
<time>2026-07-11T12:33:24.000Z</time>
|
|
</trkpt>
|
|
<trkpt lat="55.555465" lon="8.131855">
|
|
<ele>6.540402</ele>
|
|
<time>2026-07-11T12:33:25.000Z</time>
|
|
</trkpt>
|
|
<trkpt lat="55.555455" lon="8.131783">
|
|
<ele>6.542750</ele>
|
|
<time>2026-07-11T12:33:26.000Z</time>
|
|
</trkpt>
|
|
<trkpt lat="55.555445" lon="8.131713">
|
|
<ele>6.545037</ele>
|
|
<time>2026-07-11T12:33:27.000Z</time>
|
|
</trkpt>
|
|
<trkpt lat="55.555434" lon="8.131645">
|
|
<ele>6.547277</ele>
|
|
<time>2026-07-11T12:33:28.000Z</time>
|
|
</trkpt>
|
|
<trkpt lat="55.555428" lon="8.131574">
|
|
<ele>6.549550</ele>
|
|
<time>2026-07-11T12:33:29.000Z</time>
|
|
</trkpt>
|
|
<trkpt lat="55.555423" lon="8.131504">
|
|
<ele>6.551785</ele>
|
|
<time>2026-07-11T12:33:30.000Z</time>
|
|
</trkpt>
|
|
<trkpt lat="55.555411" lon="8.131444">
|
|
<ele>6.553800</ele>
|
|
<time>2026-07-11T12:33:31.000Z</time>
|
|
</trkpt>
|
|
<trkpt lat="55.555400" lon="8.131383">
|
|
<ele>6.555828</ele>
|
|
<time>2026-07-11T12:33:32.000Z</time>
|
|
</trkpt>
|
|
<trkpt lat="55.555388" lon="8.131319">
|
|
<ele>6.557964</ele>
|
|
<time>2026-07-11T12:33:33.000Z</time>
|
|
</trkpt>
|
|
<trkpt lat="55.555379" lon="8.131257">
|
|
<ele>6.559991</ele>
|
|
<time>2026-07-11T12:33:34.000Z</time>
|
|
</trkpt>
|
|
<trkpt lat="55.555371" lon="8.131192">
|
|
<ele>6.562098</ele>
|
|
<time>2026-07-11T12:33:35.000Z</time>
|
|
</trkpt>
|
|
<trkpt lat="55.555362" lon="8.131124">
|
|
<ele>6.564310</ele>
|
|
<time>2026-07-11T12:33:36.000Z</time>
|
|
</trkpt>
|
|
<trkpt lat="55.555352" lon="8.131056">
|
|
<ele>6.566535</ele>
|
|
<time>2026-07-11T12:33:37.000Z</time>
|
|
</trkpt>
|
|
<trkpt lat="55.555344" lon="8.130985">
|
|
<ele>6.568828</ele>
|
|
<time>2026-07-11T12:33:38.000Z</time>
|
|
</trkpt>
|
|
<trkpt lat="55.555335" lon="8.130916">
|
|
<ele>6.571070</ele>
|
|
<time>2026-07-11T12:33:39.000Z</time>
|
|
</trkpt>
|
|
<trkpt lat="55.555326" lon="8.130857">
|
|
<ele>6.573006</ele>
|
|
<time>2026-07-11T12:33:40.000Z</time>
|
|
</trkpt>
|
|
<trkpt lat="55.555319" lon="8.130797">
|
|
<ele>6.574946</ele>
|
|
<time>2026-07-11T12:33:41.000Z</time>
|
|
</trkpt>
|
|
<trkpt lat="55.555310" lon="8.130722">
|
|
<ele>6.577374</ele>
|
|
<time>2026-07-11T12:33:42.000Z</time>
|
|
</trkpt>
|
|
<trkpt lat="55.555302" lon="8.130658">
|
|
<ele>6.579450</ele>
|
|
<time>2026-07-11T12:33:43.000Z</time>
|
|
</trkpt>
|
|
<trkpt lat="55.555295" lon="8.130599">
|
|
<ele>6.581359</ele>
|
|
<time>2026-07-11T12:33:44.000Z</time>
|
|
</trkpt>
|
|
<trkpt lat="55.555288" lon="8.130539">
|
|
<ele>6.583300</ele>
|
|
<time>2026-07-11T12:33:45.000Z</time>
|
|
</trkpt>
|
|
<trkpt lat="55.555281" lon="8.130459">
|
|
<ele>6.585864</ele>
|
|
<time>2026-07-11T12:33:46.000Z</time>
|
|
</trkpt>
|
|
<trkpt lat="55.555277" lon="8.130386">
|
|
<ele>6.588186</ele>
|
|
<time>2026-07-11T12:33:47.000Z</time>
|
|
</trkpt>
|
|
<trkpt lat="55.555273" lon="8.130312">
|
|
<ele>6.583351</ele>
|
|
<time>2026-07-11T12:33:48.000Z</time>
|
|
</trkpt>
|
|
<trkpt lat="55.555271" lon="8.130242">
|
|
<ele>6.576396</ele>
|
|
<time>2026-07-11T12:33:49.000Z</time>
|
|
</trkpt>
|
|
<trkpt lat="55.555268" lon="8.130175">
|
|
<ele>6.569727</ele>
|
|
<time>2026-07-11T12:33:50.000Z</time>
|
|
</trkpt>
|
|
<trkpt lat="55.555262" lon="8.130115">
|
|
<ele>6.563681</ele>
|
|
<time>2026-07-11T12:33:51.000Z</time>
|
|
</trkpt>
|
|
<trkpt lat="55.555256" lon="8.130053">
|
|
<ele>6.557439</ele>
|
|
<time>2026-07-11T12:33:52.000Z</time>
|
|
</trkpt>
|
|
<trkpt lat="55.555249" lon="8.129992">
|
|
<ele>6.551263</ele>
|
|
<time>2026-07-11T12:33:53.000Z</time>
|
|
</trkpt>
|
|
<trkpt lat="55.555241" lon="8.129932">
|
|
<ele>6.545146</ele>
|
|
<time>2026-07-11T12:33:54.000Z</time>
|
|
</trkpt>
|
|
<trkpt lat="55.555234" lon="8.129873">
|
|
<ele>6.539164</ele>
|
|
<time>2026-07-11T12:33:55.000Z</time>
|
|
</trkpt>
|
|
<trkpt lat="55.555226" lon="8.129815">
|
|
<ele>6.533240</ele>
|
|
<time>2026-07-11T12:33:56.000Z</time>
|
|
</trkpt>
|
|
<trkpt lat="55.555218" lon="8.129759">
|
|
<ele>6.527508</ele>
|
|
<time>2026-07-11T12:33:57.000Z</time>
|
|
</trkpt>
|
|
<trkpt lat="55.555212" lon="8.129704">
|
|
<ele>6.521950</ele>
|
|
<time>2026-07-11T12:33:58.000Z</time>
|
|
</trkpt>
|
|
<trkpt lat="55.555208" lon="8.129647">
|
|
<ele>6.516251</ele>
|
|
<time>2026-07-11T12:33:59.000Z</time>
|
|
</trkpt>
|
|
<trkpt lat="55.555203" lon="8.129594">
|
|
<ele>6.510919</ele>
|
|
<time>2026-07-11T12:34:00.000Z</time>
|
|
</trkpt>
|
|
<trkpt lat="55.555196" lon="8.129541">
|
|
<ele>6.505518</ele>
|
|
<time>2026-07-11T12:34:01.000Z</time>
|
|
</trkpt>
|
|
<trkpt lat="55.555188" lon="8.129487">
|
|
<ele>6.499979</ele>
|
|
<time>2026-07-11T12:34:02.000Z</time>
|
|
</trkpt>
|
|
<trkpt lat="55.555182" lon="8.129433">
|
|
<ele>6.494518</ele>
|
|
<time>2026-07-11T12:34:03.000Z</time>
|
|
</trkpt>
|
|
<trkpt lat="55.555175" lon="8.129379">
|
|
<ele>6.489020</ele>
|
|
<time>2026-07-11T12:34:04.000Z</time>
|
|
</trkpt>
|
|
<trkpt lat="55.555165" lon="8.129324">
|
|
<ele>6.483288</ele>
|
|
<time>2026-07-11T12:34:05.000Z</time>
|
|
</trkpt>
|
|
<trkpt lat="55.555156" lon="8.129267">
|
|
<ele>6.477415</ele>
|
|
<time>2026-07-11T12:34:06.000Z</time>
|
|
</trkpt>
|
|
<trkpt lat="55.555146" lon="8.129211">
|
|
<ele>6.471588</ele>
|
|
<time>2026-07-11T12:34:07.000Z</time>
|
|
</trkpt>
|
|
<trkpt lat="55.555137" lon="8.129153">
|
|
<ele>6.465620</ele>
|
|
<time>2026-07-11T12:34:08.000Z</time>
|
|
</trkpt>
|
|
<trkpt lat="55.555128" lon="8.129093">
|
|
<ele>6.459460</ele>
|
|
<time>2026-07-11T12:34:09.000Z</time>
|
|
</trkpt>
|
|
<trkpt lat="55.555123" lon="8.129034">
|
|
<ele>6.453540</ele>
|
|
<time>2026-07-11T12:34:10.000Z</time>
|
|
</trkpt>
|
|
<trkpt lat="55.555116" lon="8.128976">
|
|
<ele>6.447655</ele>
|
|
<time>2026-07-11T12:34:11.000Z</time>
|
|
</trkpt>
|
|
<trkpt lat="55.555108" lon="8.128906">
|
|
<ele>6.440569</ele>
|
|
<time>2026-07-11T12:34:12.000Z</time>
|
|
</trkpt>
|
|
<trkpt lat="55.555100" lon="8.128847">
|
|
<ele>6.434548</ele>
|
|
<time>2026-07-11T12:34:13.000Z</time>
|
|
</trkpt>
|
|
<trkpt lat="55.555093" lon="8.128787">
|
|
<ele>6.428469</ele>
|
|
<time>2026-07-11T12:34:14.000Z</time>
|
|
</trkpt>
|
|
<trkpt lat="55.555085" lon="8.128722">
|
|
<ele>6.421868</ele>
|
|
<time>2026-07-11T12:34:15.000Z</time>
|
|
</trkpt>
|
|
<trkpt lat="55.555077" lon="8.128648">
|
|
<ele>6.414392</ele>
|
|
<time>2026-07-11T12:34:16.000Z</time>
|
|
</trkpt>
|
|
<trkpt lat="55.555069" lon="8.128580">
|
|
<ele>6.407500</ele>
|
|
<time>2026-07-11T12:34:17.000Z</time>
|
|
</trkpt>
|
|
<trkpt lat="55.555060" lon="8.128510">
|
|
<ele>6.400377</ele>
|
|
<time>2026-07-11T12:34:18.000Z</time>
|
|
</trkpt>
|
|
<trkpt lat="55.555050" lon="8.128441">
|
|
<ele>6.393308</ele>
|
|
<time>2026-07-11T12:34:19.000Z</time>
|
|
</trkpt>
|
|
<trkpt lat="55.555045" lon="8.128374">
|
|
<ele>6.386602</ele>
|
|
<time>2026-07-11T12:34:20.000Z</time>
|
|
</trkpt>
|
|
<trkpt lat="55.555039" lon="8.128311">
|
|
<ele>6.380263</ele>
|
|
<time>2026-07-11T12:34:21.000Z</time>
|
|
</trkpt>
|
|
<trkpt lat="55.555033" lon="8.128249">
|
|
<ele>6.374021</ele>
|
|
<time>2026-07-11T12:34:22.000Z</time>
|
|
</trkpt>
|
|
<trkpt lat="55.555028" lon="8.128185">
|
|
<ele>6.367610</ele>
|
|
<time>2026-07-11T12:34:23.000Z</time>
|
|
</trkpt>
|
|
<trkpt lat="55.555021" lon="8.128122">
|
|
<ele>6.361239</ele>
|
|
<time>2026-07-11T12:34:24.000Z</time>
|
|
</trkpt>
|
|
<trkpt lat="55.555014" lon="8.128057">
|
|
<ele>6.354673</ele>
|
|
<time>2026-07-11T12:34:25.000Z</time>
|
|
</trkpt>
|
|
<trkpt lat="55.555003" lon="8.127976">
|
|
<ele>6.346407</ele>
|
|
<time>2026-07-11T12:34:26.000Z</time>
|
|
</trkpt>
|
|
<trkpt lat="55.554994" lon="8.127907">
|
|
<ele>6.339380</ele>
|
|
<time>2026-07-11T12:34:27.000Z</time>
|
|
</trkpt>
|
|
<trkpt lat="55.554986" lon="8.127834">
|
|
<ele>6.332002</ele>
|
|
<time>2026-07-11T12:34:28.000Z</time>
|
|
</trkpt>
|
|
<trkpt lat="55.554976" lon="8.127766">
|
|
<ele>6.325030</ele>
|
|
<time>2026-07-11T12:34:29.000Z</time>
|
|
</trkpt>
|
|
<trkpt lat="55.554965" lon="8.127698">
|
|
<ele>6.318011</ele>
|
|
<time>2026-07-11T12:34:30.000Z</time>
|
|
</trkpt>
|
|
<trkpt lat="55.554954" lon="8.127630">
|
|
<ele>6.310993</ele>
|
|
<time>2026-07-11T12:34:31.000Z</time>
|
|
</trkpt>
|
|
<trkpt lat="55.554942" lon="8.127558">
|
|
<ele>6.303545</ele>
|
|
<time>2026-07-11T12:34:32.000Z</time>
|
|
</trkpt>
|
|
<trkpt lat="55.554929" lon="8.127487">
|
|
<ele>6.296139</ele>
|
|
<time>2026-07-11T12:34:33.000Z</time>
|
|
</trkpt>
|
|
<trkpt lat="55.554916" lon="8.127420">
|
|
<ele>6.289110</ele>
|
|
<time>2026-07-11T12:34:34.000Z</time>
|
|
</trkpt>
|
|
<trkpt lat="55.554905" lon="8.127352">
|
|
<ele>6.282092</ele>
|
|
<time>2026-07-11T12:34:35.000Z</time>
|
|
</trkpt>
|
|
<trkpt lat="55.554892" lon="8.127276">
|
|
<ele>6.274213</ele>
|
|
<time>2026-07-11T12:34:36.000Z</time>
|
|
</trkpt>
|
|
<trkpt lat="55.554881" lon="8.127207">
|
|
<ele>6.262813</ele>
|
|
<time>2026-07-11T12:34:37.000Z</time>
|
|
</trkpt>
|
|
<trkpt lat="55.554868" lon="8.127135">
|
|
<ele>6.250084</ele>
|
|
<time>2026-07-11T12:34:38.000Z</time>
|
|
</trkpt>
|
|
<trkpt lat="55.554853" lon="8.127066">
|
|
<ele>6.237635</ele>
|
|
<time>2026-07-11T12:34:39.000Z</time>
|
|
</trkpt>
|
|
<trkpt lat="55.554836" lon="8.126998">
|
|
<ele>6.225114</ele>
|
|
<time>2026-07-11T12:34:40.000Z</time>
|
|
</trkpt>
|
|
<trkpt lat="55.554819" lon="8.126932">
|
|
<ele>6.212900</ele>
|
|
<time>2026-07-11T12:34:41.000Z</time>
|
|
</trkpt>
|
|
<trkpt lat="55.554802" lon="8.126865">
|
|
<ele>6.200533</ele>
|
|
<time>2026-07-11T12:34:42.000Z</time>
|
|
</trkpt>
|
|
<trkpt lat="55.554784" lon="8.126799">
|
|
<ele>6.188193</ele>
|
|
<time>2026-07-11T12:34:43.000Z</time>
|
|
</trkpt>
|
|
<trkpt lat="55.554769" lon="8.126735">
|
|
<ele>6.176526</ele>
|
|
<time>2026-07-11T12:34:44.000Z</time>
|
|
</trkpt>
|
|
<trkpt lat="55.554752" lon="8.126674">
|
|
<ele>6.165073</ele>
|
|
<time>2026-07-11T12:34:45.000Z</time>
|
|
</trkpt>
|
|
<trkpt lat="55.554733" lon="8.126611">
|
|
<ele>6.153049</ele>
|
|
<time>2026-07-11T12:34:46.000Z</time>
|
|
</trkpt>
|
|
<trkpt lat="55.554714" lon="8.126551">
|
|
<ele>6.141468</ele>
|
|
<time>2026-07-11T12:34:47.000Z</time>
|
|
</trkpt>
|
|
<trkpt lat="55.554695" lon="8.126490">
|
|
<ele>6.129740</ele>
|
|
<time>2026-07-11T12:34:48.000Z</time>
|
|
</trkpt>
|
|
<trkpt lat="55.554677" lon="8.126430">
|
|
<ele>6.118302</ele>
|
|
<time>2026-07-11T12:34:49.000Z</time>
|
|
</trkpt>
|
|
<trkpt lat="55.554662" lon="8.126368">
|
|
<ele>6.106945</ele>
|
|
<time>2026-07-11T12:34:50.000Z</time>
|
|
</trkpt>
|
|
<trkpt lat="55.554646" lon="8.126307">
|
|
<ele>6.095621</ele>
|
|
<time>2026-07-11T12:34:51.000Z</time>
|
|
</trkpt>
|
|
<trkpt lat="55.554627" lon="8.126246">
|
|
<ele>6.083893</ele>
|
|
<time>2026-07-11T12:34:52.000Z</time>
|
|
</trkpt>
|
|
<trkpt lat="55.554605" lon="8.126184">
|
|
<ele>6.071566</ele>
|
|
<time>2026-07-11T12:34:53.000Z</time>
|
|
</trkpt>
|
|
<trkpt lat="55.554584" lon="8.126123">
|
|
<ele>6.059540</ele>
|
|
<time>2026-07-11T12:34:54.000Z</time>
|
|
</trkpt>
|
|
<trkpt lat="55.554565" lon="8.126060">
|
|
<ele>6.047516</ele>
|
|
<time>2026-07-11T12:34:55.000Z</time>
|
|
</trkpt>
|
|
<trkpt lat="55.554547" lon="8.125994">
|
|
<ele>6.035175</ele>
|
|
<time>2026-07-11T12:34:56.000Z</time>
|
|
</trkpt>
|
|
<trkpt lat="55.554531" lon="8.125930">
|
|
<ele>6.023391</ele>
|
|
<time>2026-07-11T12:34:57.000Z</time>
|
|
</trkpt>
|
|
<trkpt lat="55.554513" lon="8.125869">
|
|
<ele>6.011804</ele>
|
|
<time>2026-07-11T12:34:58.000Z</time>
|
|
</trkpt>
|
|
<trkpt lat="55.554495" lon="8.125810">
|
|
<ele>6.000514</ele>
|
|
<time>2026-07-11T12:34:59.000Z</time>
|
|
</trkpt>
|
|
<trkpt lat="55.554473" lon="8.125744">
|
|
<ele>5.987612</ele>
|
|
<time>2026-07-11T12:35:00.000Z</time>
|
|
</trkpt>
|
|
<trkpt lat="55.554451" lon="8.125682">
|
|
<ele>5.975285</ele>
|
|
<time>2026-07-11T12:35:01.000Z</time>
|
|
</trkpt>
|
|
<trkpt lat="55.554426" lon="8.125612">
|
|
<ele>5.961343</ele>
|
|
<time>2026-07-11T12:35:02.000Z</time>
|
|
</trkpt>
|
|
<trkpt lat="55.554403" lon="8.125546">
|
|
<ele>5.948287</ele>
|
|
<time>2026-07-11T12:35:03.000Z</time>
|
|
</trkpt>
|
|
<trkpt lat="55.554384" lon="8.125479">
|
|
<ele>5.935664</ele>
|
|
<time>2026-07-11T12:35:04.000Z</time>
|
|
</trkpt>
|
|
<trkpt lat="55.554367" lon="8.125411">
|
|
<ele>5.923143</ele>
|
|
<time>2026-07-11T12:35:05.000Z</time>
|
|
</trkpt>
|
|
<trkpt lat="55.554348" lon="8.125342">
|
|
<ele>5.910218</ele>
|
|
<time>2026-07-11T12:35:06.000Z</time>
|
|
</trkpt>
|
|
<trkpt lat="55.554329" lon="8.125275">
|
|
<ele>5.897596</ele>
|
|
<time>2026-07-11T12:35:07.000Z</time>
|
|
</trkpt>
|
|
<trkpt lat="55.554309" lon="8.125204">
|
|
<ele>5.884237</ele>
|
|
<time>2026-07-11T12:35:08.000Z</time>
|
|
</trkpt>
|
|
<trkpt lat="55.554289" lon="8.125133">
|
|
<ele>5.870879</ele>
|
|
<time>2026-07-11T12:35:09.000Z</time>
|
|
</trkpt>
|
|
<trkpt lat="55.554268" lon="8.125062">
|
|
<ele>5.857385</ele>
|
|
<time>2026-07-11T12:35:10.000Z</time>
|
|
</trkpt>
|
|
<trkpt lat="55.554247" lon="8.124992">
|
|
<ele>5.844040</ele>
|
|
<time>2026-07-11T12:35:11.000Z</time>
|
|
</trkpt>
|
|
<trkpt lat="55.554223" lon="8.124926">
|
|
<ele>5.830826</ele>
|
|
<time>2026-07-11T12:35:12.000Z</time>
|
|
</trkpt>
|
|
<trkpt lat="55.554197" lon="8.124862">
|
|
<ele>5.817555</ele>
|
|
<time>2026-07-11T12:35:13.000Z</time>
|
|
</trkpt>
|
|
<trkpt lat="55.554175" lon="8.124797">
|
|
<ele>5.804798</ele>
|
|
<time>2026-07-11T12:35:14.000Z</time>
|
|
</trkpt>
|
|
<trkpt lat="55.554155" lon="8.124733">
|
|
<ele>5.792483</ele>
|
|
<time>2026-07-11T12:35:15.000Z</time>
|
|
</trkpt>
|
|
<trkpt lat="55.554133" lon="8.124671">
|
|
<ele>5.780157</ele>
|
|
<time>2026-07-11T12:35:16.000Z</time>
|
|
</trkpt>
|
|
<trkpt lat="55.554112" lon="8.124607">
|
|
<ele>5.767696</ele>
|
|
<time>2026-07-11T12:35:17.000Z</time>
|
|
</trkpt>
|
|
<trkpt lat="55.554090" lon="8.124535">
|
|
<ele>5.753914</ele>
|
|
<time>2026-07-11T12:35:18.000Z</time>
|
|
</trkpt>
|
|
<trkpt lat="55.554069" lon="8.124469">
|
|
<ele>5.741160</ele>
|
|
<time>2026-07-11T12:35:19.000Z</time>
|
|
</trkpt>
|
|
<trkpt lat="55.554048" lon="8.124408">
|
|
<ele>5.734561</ele>
|
|
<time>2026-07-11T12:35:20.000Z</time>
|
|
</trkpt>
|
|
<trkpt lat="55.554027" lon="8.124350">
|
|
<ele>5.730314</ele>
|
|
<time>2026-07-11T12:35:21.000Z</time>
|
|
</trkpt>
|
|
<trkpt lat="55.554006" lon="8.124290">
|
|
<ele>5.725963</ele>
|
|
<time>2026-07-11T12:35:22.000Z</time>
|
|
</trkpt>
|
|
<trkpt lat="55.553985" lon="8.124224">
|
|
<ele>5.721294</ele>
|
|
<time>2026-07-11T12:35:23.000Z</time>
|
|
</trkpt>
|
|
<trkpt lat="55.553964" lon="8.124157">
|
|
<ele>5.716571</ele>
|
|
<time>2026-07-11T12:35:24.000Z</time>
|
|
</trkpt>
|
|
<trkpt lat="55.553941" lon="8.124089">
|
|
<ele>5.711685</ele>
|
|
<time>2026-07-11T12:35:25.000Z</time>
|
|
</trkpt>
|
|
<trkpt lat="55.553919" lon="8.124018">
|
|
<ele>5.706693</ele>
|
|
<time>2026-07-11T12:35:26.000Z</time>
|
|
</trkpt>
|
|
<trkpt lat="55.553894" lon="8.123946">
|
|
<ele>5.701484</ele>
|
|
<time>2026-07-11T12:35:27.000Z</time>
|
|
</trkpt>
|
|
<trkpt lat="55.553867" lon="8.123871">
|
|
<ele>5.696002</ele>
|
|
<time>2026-07-11T12:35:28.000Z</time>
|
|
</trkpt>
|
|
<trkpt lat="55.553841" lon="8.123795">
|
|
<ele>5.690525</ele>
|
|
<time>2026-07-11T12:35:29.000Z</time>
|
|
</trkpt>
|
|
<trkpt lat="55.553814" lon="8.123719">
|
|
<ele>5.684991</ele>
|
|
<time>2026-07-11T12:35:30.000Z</time>
|
|
</trkpt>
|
|
<trkpt lat="55.553787" lon="8.123642">
|
|
<ele>5.679404</ele>
|
|
<time>2026-07-11T12:35:31.000Z</time>
|
|
</trkpt>
|
|
<trkpt lat="55.553764" lon="8.123566">
|
|
<ele>5.674089</ele>
|
|
<time>2026-07-11T12:35:32.000Z</time>
|
|
</trkpt>
|
|
<trkpt lat="55.553743" lon="8.123492">
|
|
<ele>5.668984</ele>
|
|
<time>2026-07-11T12:35:33.000Z</time>
|
|
</trkpt>
|
|
<trkpt lat="55.553722" lon="8.123416">
|
|
<ele>5.663768</ele>
|
|
<time>2026-07-11T12:35:34.000Z</time>
|
|
</trkpt>
|
|
<trkpt lat="55.553702" lon="8.123337">
|
|
<ele>5.658431</ele>
|
|
<time>2026-07-11T12:35:35.000Z</time>
|
|
</trkpt>
|
|
<trkpt lat="55.553680" lon="8.123260">
|
|
<ele>5.653112</ele>
|
|
<time>2026-07-11T12:35:36.000Z</time>
|
|
</trkpt>
|
|
<trkpt lat="55.553654" lon="8.123185">
|
|
<ele>5.647688</ele>
|
|
<time>2026-07-11T12:35:37.000Z</time>
|
|
</trkpt>
|
|
<trkpt lat="55.553629" lon="8.123110">
|
|
<ele>5.642319</ele>
|
|
<time>2026-07-11T12:35:38.000Z</time>
|
|
</trkpt>
|
|
<trkpt lat="55.553604" lon="8.123036">
|
|
<ele>5.637004</ele>
|
|
<time>2026-07-11T12:35:39.000Z</time>
|
|
</trkpt>
|
|
<trkpt lat="55.553579" lon="8.122961">
|
|
<ele>5.631636</ele>
|
|
<time>2026-07-11T12:35:40.000Z</time>
|
|
</trkpt>
|
|
<trkpt lat="55.553554" lon="8.122889">
|
|
<ele>5.626427</ele>
|
|
<time>2026-07-11T12:35:41.000Z</time>
|
|
</trkpt>
|
|
<trkpt lat="55.553528" lon="8.122818">
|
|
<ele>5.621211</ele>
|
|
<time>2026-07-11T12:35:42.000Z</time>
|
|
</trkpt>
|
|
<trkpt lat="55.553503" lon="8.122745">
|
|
<ele>5.615949</ele>
|
|
<time>2026-07-11T12:35:43.000Z</time>
|
|
</trkpt>
|
|
<trkpt lat="55.553480" lon="8.122672">
|
|
<ele>5.610796</ele>
|
|
<time>2026-07-11T12:35:44.000Z</time>
|
|
</trkpt>
|
|
<trkpt lat="55.553457" lon="8.122600">
|
|
<ele>5.605698</ele>
|
|
<time>2026-07-11T12:35:45.000Z</time>
|
|
</trkpt>
|
|
<trkpt lat="55.553434" lon="8.122522">
|
|
<ele>5.600273</ele>
|
|
<time>2026-07-11T12:35:46.000Z</time>
|
|
</trkpt>
|
|
<trkpt lat="55.553410" lon="8.122443">
|
|
<ele>5.594744</ele>
|
|
<time>2026-07-11T12:35:47.000Z</time>
|
|
</trkpt>
|
|
<trkpt lat="55.553383" lon="8.122364">
|
|
<ele>5.589052</ele>
|
|
<time>2026-07-11T12:35:48.000Z</time>
|
|
</trkpt>
|
|
<trkpt lat="55.553359" lon="8.122290">
|
|
<ele>5.583792</ele>
|
|
<time>2026-07-11T12:35:49.000Z</time>
|
|
</trkpt>
|
|
<trkpt lat="55.553338" lon="8.122216">
|
|
<ele>5.578687</ele>
|
|
<time>2026-07-11T12:35:50.000Z</time>
|
|
</trkpt>
|
|
<trkpt lat="55.553311" lon="8.122137">
|
|
<ele>5.572995</ele>
|
|
<time>2026-07-11T12:35:51.000Z</time>
|
|
</trkpt>
|
|
<trkpt lat="55.553284" lon="8.122056">
|
|
<ele>5.567198</ele>
|
|
<time>2026-07-11T12:35:52.000Z</time>
|
|
</trkpt>
|
|
<trkpt lat="55.553259" lon="8.121973">
|
|
<ele>5.561399</ele>
|
|
<time>2026-07-11T12:35:53.000Z</time>
|
|
</trkpt>
|
|
<trkpt lat="55.553236" lon="8.121891">
|
|
<ele>5.555755</ele>
|
|
<time>2026-07-11T12:35:54.000Z</time>
|
|
</trkpt>
|
|
<trkpt lat="55.553213" lon="8.121811">
|
|
<ele>5.550221</ele>
|
|
<time>2026-07-11T12:35:55.000Z</time>
|
|
</trkpt>
|
|
<trkpt lat="55.553190" lon="8.121733">
|
|
<ele>5.544797</ele>
|
|
<time>2026-07-11T12:35:56.000Z</time>
|
|
</trkpt>
|
|
<trkpt lat="55.553166" lon="8.121657">
|
|
<ele>5.539014</ele>
|
|
<time>2026-07-11T12:35:57.000Z</time>
|
|
</trkpt>
|
|
<trkpt lat="55.553139" lon="8.121580">
|
|
<ele>5.532365</ele>
|
|
<time>2026-07-11T12:35:58.000Z</time>
|
|
</trkpt>
|
|
<trkpt lat="55.553113" lon="8.121505">
|
|
<ele>5.525908</ele>
|
|
<time>2026-07-11T12:35:59.000Z</time>
|
|
</trkpt>
|
|
<trkpt lat="55.553086" lon="8.121424">
|
|
<ele>5.519008</ele>
|
|
<time>2026-07-11T12:36:00.000Z</time>
|
|
</trkpt>
|
|
<trkpt lat="55.553059" lon="8.121338">
|
|
<ele>5.511788</ele>
|
|
<time>2026-07-11T12:36:01.000Z</time>
|
|
</trkpt>
|
|
<trkpt lat="55.553035" lon="8.121252">
|
|
<ele>5.504749</ele>
|
|
<time>2026-07-11T12:36:02.000Z</time>
|
|
</trkpt>
|
|
<trkpt lat="55.553015" lon="8.121163">
|
|
<ele>5.497720</ele>
|
|
<time>2026-07-11T12:36:03.000Z</time>
|
|
</trkpt>
|
|
<trkpt lat="55.552992" lon="8.121076">
|
|
<ele>5.490672</ele>
|
|
<time>2026-07-11T12:36:04.000Z</time>
|
|
</trkpt>
|
|
<trkpt lat="55.552968" lon="8.120988">
|
|
<ele>5.483501</ele>
|
|
<time>2026-07-11T12:36:05.000Z</time>
|
|
</trkpt>
|
|
<trkpt lat="55.552943" lon="8.120902">
|
|
<ele>5.476404</ele>
|
|
<time>2026-07-11T12:36:06.000Z</time>
|
|
</trkpt>
|
|
<trkpt lat="55.552920" lon="8.120818">
|
|
<ele>5.469554</ele>
|
|
<time>2026-07-11T12:36:07.000Z</time>
|
|
</trkpt>
|
|
<trkpt lat="55.552897" lon="8.120735">
|
|
<ele>5.462770</ele>
|
|
<time>2026-07-11T12:36:08.000Z</time>
|
|
</trkpt>
|
|
<trkpt lat="55.552877" lon="8.120648">
|
|
<ele>5.455877</ele>
|
|
<time>2026-07-11T12:36:09.000Z</time>
|
|
</trkpt>
|
|
<trkpt lat="55.552860" lon="8.120562">
|
|
<ele>5.449190</ele>
|
|
<time>2026-07-11T12:36:10.000Z</time>
|
|
</trkpt>
|
|
<trkpt lat="55.552843" lon="8.120478">
|
|
<ele>5.442642</ele>
|
|
<time>2026-07-11T12:36:11.000Z</time>
|
|
</trkpt>
|
|
<trkpt lat="55.552827" lon="8.120390">
|
|
<ele>5.435858</ele>
|
|
<time>2026-07-11T12:36:12.000Z</time>
|
|
</trkpt>
|
|
<trkpt lat="55.552812" lon="8.120301">
|
|
<ele>5.429041</ele>
|
|
<time>2026-07-11T12:36:13.000Z</time>
|
|
</trkpt>
|
|
<trkpt lat="55.552799" lon="8.120217">
|
|
<ele>5.422649</ele>
|
|
<time>2026-07-11T12:36:14.000Z</time>
|
|
</trkpt>
|
|
<trkpt lat="55.552787" lon="8.120129">
|
|
<ele>5.416005</ele>
|
|
<time>2026-07-11T12:36:15.000Z</time>
|
|
</trkpt>
|
|
<trkpt lat="55.552774" lon="8.120036">
|
|
<ele>5.408974</ele>
|
|
<time>2026-07-11T12:36:16.000Z</time>
|
|
</trkpt>
|
|
<trkpt lat="55.552759" lon="8.119949">
|
|
<ele>5.402298</ele>
|
|
<time>2026-07-11T12:36:17.000Z</time>
|
|
</trkpt>
|
|
<trkpt lat="55.552744" lon="8.119857">
|
|
<ele>5.395270</ele>
|
|
<time>2026-07-11T12:36:18.000Z</time>
|
|
</trkpt>
|
|
<trkpt lat="55.552728" lon="8.119759">
|
|
<ele>5.387783</ele>
|
|
<time>2026-07-11T12:36:19.000Z</time>
|
|
</trkpt>
|
|
<trkpt lat="55.552715" lon="8.119660">
|
|
<ele>5.380324</ele>
|
|
<time>2026-07-11T12:36:20.000Z</time>
|
|
</trkpt>
|
|
<trkpt lat="55.552706" lon="8.119561">
|
|
<ele>5.372964</ele>
|
|
<time>2026-07-11T12:36:21.000Z</time>
|
|
</trkpt>
|
|
<trkpt lat="55.552697" lon="8.119463">
|
|
<ele>5.365676</ele>
|
|
<time>2026-07-11T12:36:22.000Z</time>
|
|
</trkpt>
|
|
<trkpt lat="55.552689" lon="8.119369">
|
|
<ele>5.358699</ele>
|
|
<time>2026-07-11T12:36:23.000Z</time>
|
|
</trkpt>
|
|
<trkpt lat="55.552681" lon="8.119276">
|
|
<ele>5.351795</ele>
|
|
<time>2026-07-11T12:36:24.000Z</time>
|
|
</trkpt>
|
|
<trkpt lat="55.552671" lon="8.119185">
|
|
<ele>5.344990</ele>
|
|
<time>2026-07-11T12:36:25.000Z</time>
|
|
</trkpt>
|
|
<trkpt lat="55.552664" lon="8.119093">
|
|
<ele>5.338177</ele>
|
|
<time>2026-07-11T12:36:26.000Z</time>
|
|
</trkpt>
|
|
<trkpt lat="55.552660" lon="8.119001">
|
|
<ele>5.331404</ele>
|
|
<time>2026-07-11T12:36:27.000Z</time>
|
|
</trkpt>
|
|
<trkpt lat="55.552658" lon="8.118910">
|
|
<ele>5.324720</ele>
|
|
<time>2026-07-11T12:36:28.000Z</time>
|
|
</trkpt>
|
|
<trkpt lat="55.552657" lon="8.118817">
|
|
<ele>5.317892</ele>
|
|
<time>2026-07-11T12:36:29.000Z</time>
|
|
</trkpt>
|
|
<trkpt lat="55.552653" lon="8.118723">
|
|
<ele>5.310973</ele>
|
|
<time>2026-07-11T12:36:30.000Z</time>
|
|
</trkpt>
|
|
<trkpt lat="55.552649" lon="8.118634">
|
|
<ele>5.300830</ele>
|
|
<time>2026-07-11T12:36:31.000Z</time>
|
|
</trkpt>
|
|
<trkpt lat="55.552643" lon="8.118544">
|
|
<ele>5.287893</ele>
|
|
<time>2026-07-11T12:36:32.000Z</time>
|
|
</trkpt>
|
|
<trkpt lat="55.552637" lon="8.118456">
|
|
<ele>5.275239</ele>
|
|
<time>2026-07-11T12:36:33.000Z</time>
|
|
</trkpt>
|
|
<trkpt lat="55.552634" lon="8.118369">
|
|
<ele>5.262795</ele>
|
|
<time>2026-07-11T12:36:34.000Z</time>
|
|
</trkpt>
|
|
<trkpt lat="55.552628" lon="8.118277">
|
|
<ele>5.249574</ele>
|
|
<time>2026-07-11T12:36:35.000Z</time>
|
|
</trkpt>
|
|
<trkpt lat="55.552621" lon="8.118187">
|
|
<ele>5.236605</ele>
|
|
<time>2026-07-11T12:36:36.000Z</time>
|
|
</trkpt>
|
|
<trkpt lat="55.552616" lon="8.118097">
|
|
<ele>5.223694</ele>
|
|
<time>2026-07-11T12:36:37.000Z</time>
|
|
</trkpt>
|
|
<trkpt lat="55.552609" lon="8.118007">
|
|
<ele>5.210725</ele>
|
|
<time>2026-07-11T12:36:38.000Z</time>
|
|
</trkpt>
|
|
<trkpt lat="55.552602" lon="8.117915">
|
|
<ele>5.197473</ele>
|
|
<time>2026-07-11T12:36:39.000Z</time>
|
|
</trkpt>
|
|
<trkpt lat="55.552595" lon="8.117823">
|
|
<ele>5.184220</ele>
|
|
<time>2026-07-11T12:36:40.000Z</time>
|
|
</trkpt>
|
|
<trkpt lat="55.552590" lon="8.117731">
|
|
<ele>5.171026</ele>
|
|
<time>2026-07-11T12:36:41.000Z</time>
|
|
</trkpt>
|
|
<trkpt lat="55.552584" lon="8.117638">
|
|
<ele>5.157663</ele>
|
|
<time>2026-07-11T12:36:42.000Z</time>
|
|
</trkpt>
|
|
<trkpt lat="55.552579" lon="8.117542">
|
|
<ele>5.143900</ele>
|
|
<time>2026-07-11T12:36:43.000Z</time>
|
|
</trkpt>
|
|
<trkpt lat="55.552571" lon="8.117448">
|
|
<ele>5.130329</ele>
|
|
<time>2026-07-11T12:36:44.000Z</time>
|
|
</trkpt>
|
|
<trkpt lat="55.552565" lon="8.117357">
|
|
<ele>5.117250</ele>
|
|
<time>2026-07-11T12:36:45.000Z</time>
|
|
</trkpt>
|
|
<trkpt lat="55.552560" lon="8.117266">
|
|
<ele>5.104197</ele>
|
|
<time>2026-07-11T12:36:46.000Z</time>
|
|
</trkpt>
|
|
<trkpt lat="55.552554" lon="8.117174">
|
|
<ele>5.090976</ele>
|
|
<time>2026-07-11T12:36:47.000Z</time>
|
|
</trkpt>
|
|
<trkpt lat="55.552548" lon="8.117080">
|
|
<ele>5.077471</ele>
|
|
<time>2026-07-11T12:36:48.000Z</time>
|
|
</trkpt>
|
|
<trkpt lat="55.552541" lon="8.116990">
|
|
<ele>5.064502</ele>
|
|
<time>2026-07-11T12:36:49.000Z</time>
|
|
</trkpt>
|
|
<trkpt lat="55.552533" lon="8.116903">
|
|
<ele>5.051918</ele>
|
|
<time>2026-07-11T12:36:50.000Z</time>
|
|
</trkpt>
|
|
<trkpt lat="55.552527" lon="8.116816">
|
|
<ele>5.039406</ele>
|
|
<time>2026-07-11T12:36:51.000Z</time>
|
|
</trkpt>
|
|
<trkpt lat="55.552523" lon="8.116726">
|
|
<ele>5.026518</ele>
|
|
<time>2026-07-11T12:36:52.000Z</time>
|
|
</trkpt>
|
|
<trkpt lat="55.552518" lon="8.116639">
|
|
<ele>5.014034</ele>
|
|
<time>2026-07-11T12:36:53.000Z</time>
|
|
</trkpt>
|
|
<trkpt lat="55.552511" lon="8.116551">
|
|
<ele>5.001347</ele>
|
|
<time>2026-07-11T12:36:54.000Z</time>
|
|
</trkpt>
|
|
<trkpt lat="55.552509" lon="8.116460">
|
|
<ele>4.988346</ele>
|
|
<time>2026-07-11T12:36:55.000Z</time>
|
|
</trkpt>
|
|
<trkpt lat="55.552508" lon="8.116369">
|
|
<ele>4.975352</ele>
|
|
<time>2026-07-11T12:36:56.000Z</time>
|
|
</trkpt>
|
|
<trkpt lat="55.552502" lon="8.116278">
|
|
<ele>4.962273</ele>
|
|
<time>2026-07-11T12:36:57.000Z</time>
|
|
</trkpt>
|
|
<trkpt lat="55.552496" lon="8.116187">
|
|
<ele>4.949193</ele>
|
|
<time>2026-07-11T12:36:58.000Z</time>
|
|
</trkpt>
|
|
<trkpt lat="55.552493" lon="8.116096">
|
|
<ele>4.936180</ele>
|
|
<time>2026-07-11T12:36:59.000Z</time>
|
|
</trkpt>
|
|
<trkpt lat="55.552489" lon="8.116005">
|
|
<ele>4.923149</ele>
|
|
<time>2026-07-11T12:37:00.000Z</time>
|
|
</trkpt>
|
|
<trkpt lat="55.552485" lon="8.115911">
|
|
<ele>4.909692</ele>
|
|
<time>2026-07-11T12:37:01.000Z</time>
|
|
</trkpt>
|
|
<trkpt lat="55.552483" lon="8.115822">
|
|
<ele>4.896976</ele>
|
|
<time>2026-07-11T12:37:02.000Z</time>
|
|
</trkpt>
|
|
<trkpt lat="55.552481" lon="8.115733">
|
|
<ele>4.884260</ele>
|
|
<time>2026-07-11T12:37:03.000Z</time>
|
|
</trkpt>
|
|
<trkpt lat="55.552477" lon="8.115641">
|
|
<ele>4.871087</ele>
|
|
<time>2026-07-11T12:37:04.000Z</time>
|
|
</trkpt>
|
|
<trkpt lat="55.552473" lon="8.115559">
|
|
<ele>4.859337</ele>
|
|
<time>2026-07-11T12:37:05.000Z</time>
|
|
</trkpt>
|
|
<trkpt lat="55.552469" lon="8.115488">
|
|
<ele>4.852160</ele>
|
|
<time>2026-07-11T12:37:06.000Z</time>
|
|
</trkpt>
|
|
<trkpt lat="55.552465" lon="8.115417">
|
|
<ele>4.847965</ele>
|
|
<time>2026-07-11T12:37:07.000Z</time>
|
|
</trkpt>
|
|
<trkpt lat="55.552459" lon="8.115328">
|
|
<ele>4.842695</ele>
|
|
<time>2026-07-11T12:37:08.000Z</time>
|
|
</trkpt>
|
|
<trkpt lat="55.552454" lon="8.115227">
|
|
<ele>4.836735</ele>
|
|
<time>2026-07-11T12:37:09.000Z</time>
|
|
</trkpt>
|
|
<trkpt lat="55.552450" lon="8.115127">
|
|
<ele>4.830841</ele>
|
|
<time>2026-07-11T12:37:10.000Z</time>
|
|
</trkpt>
|
|
<trkpt lat="55.552445" lon="8.115032">
|
|
<ele>4.825231</ele>
|
|
<time>2026-07-11T12:37:11.000Z</time>
|
|
</trkpt>
|
|
<trkpt lat="55.552439" lon="8.114937">
|
|
<ele>4.819611</ele>
|
|
<time>2026-07-11T12:37:12.000Z</time>
|
|
</trkpt>
|
|
<trkpt lat="55.552432" lon="8.114845">
|
|
<ele>4.814153</ele>
|
|
<time>2026-07-11T12:37:13.000Z</time>
|
|
</trkpt>
|
|
<trkpt lat="55.552422" lon="8.114754">
|
|
<ele>4.808703</ele>
|
|
<time>2026-07-11T12:37:14.000Z</time>
|
|
</trkpt>
|
|
<trkpt lat="55.552416" lon="8.114659">
|
|
<ele>4.803083</ele>
|
|
<time>2026-07-11T12:37:15.000Z</time>
|
|
</trkpt>
|
|
<trkpt lat="55.552414" lon="8.114569">
|
|
<ele>4.797787</ele>
|
|
<time>2026-07-11T12:37:16.000Z</time>
|
|
</trkpt>
|
|
<trkpt lat="55.552414" lon="8.114475">
|
|
<ele>4.792261</ele>
|
|
<time>2026-07-11T12:37:17.000Z</time>
|
|
</trkpt>
|
|
<trkpt lat="55.552414" lon="8.114378">
|
|
<ele>4.786558</ele>
|
|
<time>2026-07-11T12:37:18.000Z</time>
|
|
</trkpt>
|
|
<trkpt lat="55.552414" lon="8.114287">
|
|
<ele>4.781207</ele>
|
|
<time>2026-07-11T12:37:19.000Z</time>
|
|
</trkpt>
|
|
<trkpt lat="55.552412" lon="8.114203">
|
|
<ele>4.776264</ele>
|
|
<time>2026-07-11T12:37:20.000Z</time>
|
|
</trkpt>
|
|
<trkpt lat="55.552410" lon="8.114122">
|
|
<ele>4.771498</ele>
|
|
<time>2026-07-11T12:37:21.000Z</time>
|
|
</trkpt>
|
|
<trkpt lat="55.552410" lon="8.114043">
|
|
<ele>4.766853</ele>
|
|
<time>2026-07-11T12:37:22.000Z</time>
|
|
</trkpt>
|
|
<trkpt lat="55.552408" lon="8.113961">
|
|
<ele>4.762027</ele>
|
|
<time>2026-07-11T12:37:23.000Z</time>
|
|
</trkpt>
|
|
<trkpt lat="55.552405" lon="8.113872">
|
|
<ele>4.756785</ele>
|
|
<time>2026-07-11T12:37:24.000Z</time>
|
|
</trkpt>
|
|
<trkpt lat="55.552401" lon="8.113785">
|
|
<ele>4.751653</ele>
|
|
<time>2026-07-11T12:37:25.000Z</time>
|
|
</trkpt>
|
|
<trkpt lat="55.552397" lon="8.113696">
|
|
<ele>4.746404</ele>
|
|
<time>2026-07-11T12:37:26.000Z</time>
|
|
</trkpt>
|
|
<trkpt lat="55.552395" lon="8.113605">
|
|
<ele>4.741050</ele>
|
|
<time>2026-07-11T12:37:27.000Z</time>
|
|
</trkpt>
|
|
<trkpt lat="55.552393" lon="8.113516">
|
|
<ele>4.735813</ele>
|
|
<time>2026-07-11T12:37:28.000Z</time>
|
|
</trkpt>
|
|
<trkpt lat="55.552389" lon="8.113426">
|
|
<ele>4.730506</ele>
|
|
<time>2026-07-11T12:37:29.000Z</time>
|
|
</trkpt>
|
|
<trkpt lat="55.552386" lon="8.113334">
|
|
<ele>4.725088</ele>
|
|
<time>2026-07-11T12:37:30.000Z</time>
|
|
</trkpt>
|
|
<trkpt lat="55.552382" lon="8.113246">
|
|
<ele>4.719897</ele>
|
|
<time>2026-07-11T12:37:31.000Z</time>
|
|
</trkpt>
|
|
<trkpt lat="55.552380" lon="8.113158">
|
|
<ele>4.714719</ele>
|
|
<time>2026-07-11T12:37:32.000Z</time>
|
|
</trkpt>
|
|
<trkpt lat="55.552376" lon="8.113069">
|
|
<ele>4.709470</ele>
|
|
<time>2026-07-11T12:37:33.000Z</time>
|
|
</trkpt>
|
|
<trkpt lat="55.552372" lon="8.112982">
|
|
<ele>4.704338</ele>
|
|
<time>2026-07-11T12:37:34.000Z</time>
|
|
</trkpt>
|
|
<trkpt lat="55.552370" lon="8.112890">
|
|
<ele>4.698925</ele>
|
|
<time>2026-07-11T12:37:35.000Z</time>
|
|
</trkpt>
|
|
<trkpt lat="55.552367" lon="8.112798">
|
|
<ele>4.693507</ele>
|
|
<time>2026-07-11T12:37:36.000Z</time>
|
|
</trkpt>
|
|
<trkpt lat="55.552364" lon="8.112707">
|
|
<ele>4.688148</ele>
|
|
<time>2026-07-11T12:37:37.000Z</time>
|
|
</trkpt>
|
|
<trkpt lat="55.552363" lon="8.112616">
|
|
<ele>4.682796</ele>
|
|
<time>2026-07-11T12:37:38.000Z</time>
|
|
</trkpt>
|
|
<trkpt lat="55.552359" lon="8.112533">
|
|
<ele>4.677899</ele>
|
|
<time>2026-07-11T12:37:39.000Z</time>
|
|
</trkpt>
|
|
<trkpt lat="55.552355" lon="8.112457">
|
|
<ele>4.673411</ele>
|
|
<time>2026-07-11T12:37:40.000Z</time>
|
|
</trkpt>
|
|
<trkpt lat="55.552350" lon="8.112381">
|
|
<ele>4.668913</ele>
|
|
<time>2026-07-11T12:37:41.000Z</time>
|
|
</trkpt>
|
|
<trkpt lat="55.552344" lon="8.112300">
|
|
<ele>4.655831</ele>
|
|
<time>2026-07-11T12:37:42.000Z</time>
|
|
</trkpt>
|
|
<trkpt lat="55.552341" lon="8.112215">
|
|
<ele>4.637898</ele>
|
|
<time>2026-07-11T12:37:43.000Z</time>
|
|
</trkpt>
|
|
<trkpt lat="55.552340" lon="8.112129">
|
|
<ele>4.619786</ele>
|
|
<time>2026-07-11T12:37:44.000Z</time>
|
|
</trkpt>
|
|
<trkpt lat="55.552334" lon="8.112041">
|
|
<ele>4.601122</ele>
|
|
<time>2026-07-11T12:37:45.000Z</time>
|
|
</trkpt>
|
|
<trkpt lat="55.552328" lon="8.111952">
|
|
<ele>4.582249</ele>
|
|
<time>2026-07-11T12:37:46.000Z</time>
|
|
</trkpt>
|
|
<trkpt lat="55.552328" lon="8.111869">
|
|
<ele>4.564773</ele>
|
|
<time>2026-07-11T12:37:47.000Z</time>
|
|
</trkpt>
|
|
<trkpt lat="55.552328" lon="8.111789">
|
|
<ele>4.547927</ele>
|
|
<time>2026-07-11T12:37:48.000Z</time>
|
|
</trkpt>
|
|
<trkpt lat="55.552323" lon="8.111706">
|
|
<ele>4.530352</ele>
|
|
<time>2026-07-11T12:37:49.000Z</time>
|
|
</trkpt>
|
|
<trkpt lat="55.552319" lon="8.111616">
|
|
<ele>4.511343</ele>
|
|
<time>2026-07-11T12:37:50.000Z</time>
|
|
</trkpt>
|
|
<trkpt lat="55.552319" lon="8.111519">
|
|
<ele>4.490918</ele>
|
|
<time>2026-07-11T12:37:51.000Z</time>
|
|
</trkpt>
|
|
<trkpt lat="55.552319" lon="8.111421">
|
|
<ele>4.470282</ele>
|
|
<time>2026-07-11T12:37:52.000Z</time>
|
|
</trkpt>
|
|
<trkpt lat="55.552319" lon="8.111325">
|
|
<ele>4.450068</ele>
|
|
<time>2026-07-11T12:37:53.000Z</time>
|
|
</trkpt>
|
|
<trkpt lat="55.552319" lon="8.111231">
|
|
<ele>4.430275</ele>
|
|
<time>2026-07-11T12:37:54.000Z</time>
|
|
</trkpt>
|
|
<trkpt lat="55.552319" lon="8.111134">
|
|
<ele>4.409850</ele>
|
|
<time>2026-07-11T12:37:55.000Z</time>
|
|
</trkpt>
|
|
<trkpt lat="55.552317" lon="8.111036">
|
|
<ele>4.389202</ele>
|
|
<time>2026-07-11T12:37:56.000Z</time>
|
|
</trkpt>
|
|
<trkpt lat="55.552313" lon="8.110940">
|
|
<ele>4.368933</ele>
|
|
<time>2026-07-11T12:37:57.000Z</time>
|
|
</trkpt>
|
|
<trkpt lat="55.552313" lon="8.110842">
|
|
<ele>4.348297</ele>
|
|
<time>2026-07-11T12:37:58.000Z</time>
|
|
</trkpt>
|
|
<trkpt lat="55.552315" lon="8.110741">
|
|
<ele>4.327017</ele>
|
|
<time>2026-07-11T12:37:59.000Z</time>
|
|
</trkpt>
|
|
<trkpt lat="55.552315" lon="8.110645">
|
|
<ele>4.306803</ele>
|
|
<time>2026-07-11T12:38:00.000Z</time>
|
|
</trkpt>
|
|
<trkpt lat="55.552315" lon="8.110546">
|
|
<ele>4.285957</ele>
|
|
<time>2026-07-11T12:38:01.000Z</time>
|
|
</trkpt>
|
|
<trkpt lat="55.552315" lon="8.110450">
|
|
<ele>4.265743</ele>
|
|
<time>2026-07-11T12:38:02.000Z</time>
|
|
</trkpt>
|
|
<trkpt lat="55.552315" lon="8.110358">
|
|
<ele>4.246371</ele>
|
|
<time>2026-07-11T12:38:03.000Z</time>
|
|
</trkpt>
|
|
<trkpt lat="55.552313" lon="8.110265">
|
|
<ele>4.226775</ele>
|
|
<time>2026-07-11T12:38:04.000Z</time>
|
|
</trkpt>
|
|
<trkpt lat="55.552311" lon="8.110170">
|
|
<ele>4.206757</ele>
|
|
<time>2026-07-11T12:38:05.000Z</time>
|
|
</trkpt>
|
|
<trkpt lat="55.552309" lon="8.110074">
|
|
<ele>4.186529</ele>
|
|
<time>2026-07-11T12:38:06.000Z</time>
|
|
</trkpt>
|
|
<trkpt lat="55.552307" lon="8.109981">
|
|
<ele>4.166933</ele>
|
|
<time>2026-07-11T12:38:07.000Z</time>
|
|
</trkpt>
|
|
<trkpt lat="55.552307" lon="8.109893">
|
|
<ele>4.148403</ele>
|
|
<time>2026-07-11T12:38:08.000Z</time>
|
|
</trkpt>
|
|
<trkpt lat="55.552306" lon="8.109803">
|
|
<ele>4.129448</ele>
|
|
<time>2026-07-11T12:38:09.000Z</time>
|
|
</trkpt>
|
|
<trkpt lat="55.552303" lon="8.109709">
|
|
<ele>4.109624</ele>
|
|
<time>2026-07-11T12:38:10.000Z</time>
|
|
</trkpt>
|
|
<trkpt lat="55.552303" lon="8.109619">
|
|
<ele>4.090673</ele>
|
|
<time>2026-07-11T12:38:11.000Z</time>
|
|
</trkpt>
|
|
<trkpt lat="55.552302" lon="8.109529">
|
|
<ele>4.071719</ele>
|
|
<time>2026-07-11T12:38:12.000Z</time>
|
|
</trkpt>
|
|
<trkpt lat="55.552300" lon="8.109439">
|
|
<ele>4.052753</ele>
|
|
<time>2026-07-11T12:38:13.000Z</time>
|
|
</trkpt>
|
|
<trkpt lat="55.552300" lon="8.109350">
|
|
<ele>4.034013</ele>
|
|
<time>2026-07-11T12:38:14.000Z</time>
|
|
</trkpt>
|
|
<trkpt lat="55.552300" lon="8.109259">
|
|
<ele>4.014852</ele>
|
|
<time>2026-07-11T12:38:15.000Z</time>
|
|
</trkpt>
|
|
<trkpt lat="55.552300" lon="8.109168">
|
|
<ele>3.996785</ele>
|
|
<time>2026-07-11T12:38:16.000Z</time>
|
|
</trkpt>
|
|
<trkpt lat="55.552300" lon="8.109075">
|
|
<ele>3.987496</ele>
|
|
<time>2026-07-11T12:38:17.000Z</time>
|
|
</trkpt>
|
|
<trkpt lat="55.552300" lon="8.108981">
|
|
<ele>3.978109</ele>
|
|
<time>2026-07-11T12:38:18.000Z</time>
|
|
</trkpt>
|
|
<trkpt lat="55.552300" lon="8.108888">
|
|
<ele>3.968820</ele>
|
|
<time>2026-07-11T12:38:19.000Z</time>
|
|
</trkpt>
|
|
<trkpt lat="55.552300" lon="8.108795">
|
|
<ele>3.959532</ele>
|
|
<time>2026-07-11T12:38:20.000Z</time>
|
|
</trkpt>
|
|
<trkpt lat="55.552300" lon="8.108701">
|
|
<ele>3.950144</ele>
|
|
<time>2026-07-11T12:38:21.000Z</time>
|
|
</trkpt>
|
|
<trkpt lat="55.552300" lon="8.108607">
|
|
<ele>3.940756</ele>
|
|
<time>2026-07-11T12:38:22.000Z</time>
|
|
</trkpt>
|
|
<trkpt lat="55.552300" lon="8.108515">
|
|
<ele>3.931568</ele>
|
|
<time>2026-07-11T12:38:23.000Z</time>
|
|
</trkpt>
|
|
<trkpt lat="55.552301" lon="8.108419">
|
|
<ele>3.921979</ele>
|
|
<time>2026-07-11T12:38:24.000Z</time>
|
|
</trkpt>
|
|
<trkpt lat="55.552303" lon="8.108324">
|
|
<ele>3.912485</ele>
|
|
<time>2026-07-11T12:38:25.000Z</time>
|
|
</trkpt>
|
|
<trkpt lat="55.552303" lon="8.108229">
|
|
<ele>3.902997</ele>
|
|
<time>2026-07-11T12:38:26.000Z</time>
|
|
</trkpt>
|
|
<trkpt lat="55.552303" lon="8.108135">
|
|
<ele>3.893609</ele>
|
|
<time>2026-07-11T12:38:27.000Z</time>
|
|
</trkpt>
|
|
<trkpt lat="55.552303" lon="8.108043">
|
|
<ele>3.884421</ele>
|
|
<time>2026-07-11T12:38:28.000Z</time>
|
|
</trkpt>
|
|
<trkpt lat="55.552303" lon="8.107952">
|
|
<ele>3.875332</ele>
|
|
<time>2026-07-11T12:38:29.000Z</time>
|
|
</trkpt>
|
|
<trkpt lat="55.552303" lon="8.107861">
|
|
<ele>3.866244</ele>
|
|
<time>2026-07-11T12:38:30.000Z</time>
|
|
</trkpt>
|
|
<trkpt lat="55.552305" lon="8.107772">
|
|
<ele>3.857348</ele>
|
|
<time>2026-07-11T12:38:31.000Z</time>
|
|
</trkpt>
|
|
<trkpt lat="55.552307" lon="8.107684">
|
|
<ele>3.848553</ele>
|
|
<time>2026-07-11T12:38:32.000Z</time>
|
|
</trkpt>
|
|
<trkpt lat="55.552307" lon="8.107598">
|
|
<ele>3.839964</ele>
|
|
<time>2026-07-11T12:38:33.000Z</time>
|
|
</trkpt>
|
|
<trkpt lat="55.552307" lon="8.107515">
|
|
<ele>3.831674</ele>
|
|
<time>2026-07-11T12:38:34.000Z</time>
|
|
</trkpt>
|
|
<trkpt lat="55.552305" lon="8.107432">
|
|
<ele>3.823377</ele>
|
|
<time>2026-07-11T12:38:35.000Z</time>
|
|
</trkpt>
|
|
<trkpt lat="55.552302" lon="8.107350">
|
|
<ele>3.815171</ele>
|
|
<time>2026-07-11T12:38:36.000Z</time>
|
|
</trkpt>
|
|
<trkpt lat="55.552298" lon="8.107268">
|
|
<ele>3.806951</ele>
|
|
<time>2026-07-11T12:38:37.000Z</time>
|
|
</trkpt>
|
|
<trkpt lat="55.552294" lon="8.107181">
|
|
<ele>3.798233</ele>
|
|
<time>2026-07-11T12:38:38.000Z</time>
|
|
</trkpt>
|
|
<trkpt lat="55.552292" lon="8.107091">
|
|
<ele>3.789238</ele>
|
|
<time>2026-07-11T12:38:39.000Z</time>
|
|
</trkpt>
|
|
<trkpt lat="55.552292" lon="8.107002">
|
|
<ele>3.780349</ele>
|
|
<time>2026-07-11T12:38:40.000Z</time>
|
|
</trkpt>
|
|
<trkpt lat="55.552293" lon="8.106914">
|
|
<ele>3.771559</ele>
|
|
<time>2026-07-11T12:38:41.000Z</time>
|
|
</trkpt>
|
|
<trkpt lat="55.552297" lon="8.106826">
|
|
<ele>3.762742</ele>
|
|
<time>2026-07-11T12:38:42.000Z</time>
|
|
</trkpt>
|
|
<trkpt lat="55.552303" lon="8.106738">
|
|
<ele>3.753890</ele>
|
|
<time>2026-07-11T12:38:43.000Z</time>
|
|
</trkpt>
|
|
<trkpt lat="55.552309" lon="8.106645">
|
|
<ele>3.744541</ele>
|
|
<time>2026-07-11T12:38:44.000Z</time>
|
|
</trkpt>
|
|
<trkpt lat="55.552314" lon="8.106552">
|
|
<ele>3.735211</ele>
|
|
<time>2026-07-11T12:38:45.000Z</time>
|
|
</trkpt>
|
|
<trkpt lat="55.552320" lon="8.106459">
|
|
<ele>3.725863</ele>
|
|
<time>2026-07-11T12:38:46.000Z</time>
|
|
</trkpt>
|
|
<trkpt lat="55.552324" lon="8.106369">
|
|
<ele>3.716847</ele>
|
|
<time>2026-07-11T12:38:47.000Z</time>
|
|
</trkpt>
|
|
<trkpt lat="55.552328" lon="8.106278">
|
|
<ele>3.707731</ele>
|
|
<time>2026-07-11T12:38:48.000Z</time>
|
|
</trkpt>
|
|
<trkpt lat="55.552332" lon="8.106185">
|
|
<ele>3.698416</ele>
|
|
<time>2026-07-11T12:38:49.000Z</time>
|
|
</trkpt>
|
|
<trkpt lat="55.552335" lon="8.106093">
|
|
<ele>3.689213</ele>
|
|
<time>2026-07-11T12:38:50.000Z</time>
|
|
</trkpt>
|
|
<trkpt lat="55.552338" lon="8.106003">
|
|
<ele>3.680209</ele>
|
|
<time>2026-07-11T12:38:51.000Z</time>
|
|
</trkpt>
|
|
<trkpt lat="55.552339" lon="8.105915">
|
|
<ele>3.668375</ele>
|
|
<time>2026-07-11T12:38:52.000Z</time>
|
|
</trkpt>
|
|
<trkpt lat="55.552341" lon="8.105824">
|
|
<ele>3.656130</ele>
|
|
<time>2026-07-11T12:38:53.000Z</time>
|
|
</trkpt>
|
|
<trkpt lat="55.552341" lon="8.105735">
|
|
<ele>3.644162</ele>
|
|
<time>2026-07-11T12:38:54.000Z</time>
|
|
</trkpt>
|
|
<trkpt lat="55.552341" lon="8.105648">
|
|
<ele>3.632464</ele>
|
|
<time>2026-07-11T12:38:55.000Z</time>
|
|
</trkpt>
|
|
<trkpt lat="55.552341" lon="8.105560">
|
|
<ele>3.620631</ele>
|
|
<time>2026-07-11T12:38:56.000Z</time>
|
|
</trkpt>
|
|
<trkpt lat="55.552343" lon="8.105468">
|
|
<ele>3.608251</ele>
|
|
<time>2026-07-11T12:38:57.000Z</time>
|
|
</trkpt>
|
|
<trkpt lat="55.552347" lon="8.105378">
|
|
<ele>3.596112</ele>
|
|
<time>2026-07-11T12:38:58.000Z</time>
|
|
</trkpt>
|
|
<trkpt lat="55.552352" lon="8.105289">
|
|
<ele>3.584086</ele>
|
|
<time>2026-07-11T12:38:59.000Z</time>
|
|
</trkpt>
|
|
<trkpt lat="55.552358" lon="8.105199">
|
|
<ele>3.571900</ele>
|
|
<time>2026-07-11T12:39:00.000Z</time>
|
|
</trkpt>
|
|
<trkpt lat="55.552364" lon="8.105108">
|
|
<ele>3.559581</ele>
|
|
<time>2026-07-11T12:39:01.000Z</time>
|
|
</trkpt>
|
|
<trkpt lat="55.552370" lon="8.105019">
|
|
<ele>3.547529</ele>
|
|
<time>2026-07-11T12:39:02.000Z</time>
|
|
</trkpt>
|
|
<trkpt lat="55.552377" lon="8.104932">
|
|
<ele>3.535713</ele>
|
|
<time>2026-07-11T12:39:03.000Z</time>
|
|
</trkpt>
|
|
<trkpt lat="55.552387" lon="8.104840">
|
|
<ele>3.523115</ele>
|
|
<time>2026-07-11T12:39:04.000Z</time>
|
|
</trkpt>
|
|
<trkpt lat="55.552394" lon="8.104749">
|
|
<ele>3.510767</ele>
|
|
<time>2026-07-11T12:39:05.000Z</time>
|
|
</trkpt>
|
|
<trkpt lat="55.552402" lon="8.104659">
|
|
<ele>3.498516</ele>
|
|
<time>2026-07-11T12:39:06.000Z</time>
|
|
</trkpt>
|
|
<trkpt lat="55.552410" lon="8.104569">
|
|
<ele>3.486266</ele>
|
|
<time>2026-07-11T12:39:07.000Z</time>
|
|
</trkpt>
|
|
<trkpt lat="55.552417" lon="8.104476">
|
|
<ele>3.473650</ele>
|
|
<time>2026-07-11T12:39:08.000Z</time>
|
|
</trkpt>
|
|
<trkpt lat="55.552423" lon="8.104383">
|
|
<ele>3.461064</ele>
|
|
<time>2026-07-11T12:39:09.000Z</time>
|
|
</trkpt>
|
|
<trkpt lat="55.552427" lon="8.104289">
|
|
<ele>3.448389</ele>
|
|
<time>2026-07-11T12:39:10.000Z</time>
|
|
</trkpt>
|
|
<trkpt lat="55.552433" lon="8.104193">
|
|
<ele>3.435402</ele>
|
|
<time>2026-07-11T12:39:11.000Z</time>
|
|
</trkpt>
|
|
<trkpt lat="55.552440" lon="8.104098">
|
|
<ele>3.422519</ele>
|
|
<time>2026-07-11T12:39:12.000Z</time>
|
|
</trkpt>
|
|
<trkpt lat="55.552448" lon="8.104004">
|
|
<ele>3.409738</ele>
|
|
<time>2026-07-11T12:39:13.000Z</time>
|
|
</trkpt>
|
|
<trkpt lat="55.552455" lon="8.103908">
|
|
<ele>3.396722</ele>
|
|
<time>2026-07-11T12:39:14.000Z</time>
|
|
</trkpt>
|
|
<trkpt lat="55.552463" lon="8.103810">
|
|
<ele>3.383408</ele>
|
|
<time>2026-07-11T12:39:15.000Z</time>
|
|
</trkpt>
|
|
<trkpt lat="55.552472" lon="8.103711">
|
|
<ele>3.369925</ele>
|
|
<time>2026-07-11T12:39:16.000Z</time>
|
|
</trkpt>
|
|
<trkpt lat="55.552482" lon="8.103610">
|
|
<ele>3.356138</ele>
|
|
<time>2026-07-11T12:39:17.000Z</time>
|
|
</trkpt>
|
|
<trkpt lat="55.552490" lon="8.103514">
|
|
<ele>3.343090</ele>
|
|
<time>2026-07-11T12:39:18.000Z</time>
|
|
</trkpt>
|
|
<trkpt lat="55.552497" lon="8.103417">
|
|
<ele>3.329941</ele>
|
|
<time>2026-07-11T12:39:19.000Z</time>
|
|
</trkpt>
|
|
<trkpt lat="55.552507" lon="8.103320">
|
|
<ele>3.316683</ele>
|
|
<time>2026-07-11T12:39:20.000Z</time>
|
|
</trkpt>
|
|
<trkpt lat="55.552519" lon="8.103226">
|
|
<ele>3.303726</ele>
|
|
<time>2026-07-11T12:39:21.000Z</time>
|
|
</trkpt>
|
|
<trkpt lat="55.552534" lon="8.103135">
|
|
<ele>3.290981</ele>
|
|
<time>2026-07-11T12:39:22.000Z</time>
|
|
</trkpt>
|
|
<trkpt lat="55.552548" lon="8.103041">
|
|
<ele>3.277910</ele>
|
|
<time>2026-07-11T12:39:23.000Z</time>
|
|
</trkpt>
|
|
<trkpt lat="55.552563" lon="8.102947">
|
|
<ele>3.264777</ele>
|
|
<time>2026-07-11T12:39:24.000Z</time>
|
|
</trkpt>
|
|
<trkpt lat="55.552581" lon="8.102854">
|
|
<ele>3.253629</ele>
|
|
<time>2026-07-11T12:39:25.000Z</time>
|
|
</trkpt>
|
|
<trkpt lat="55.552598" lon="8.102762">
|
|
<ele>3.265622</ele>
|
|
<time>2026-07-11T12:39:26.000Z</time>
|
|
</trkpt>
|
|
<trkpt lat="55.552613" lon="8.102676">
|
|
<ele>3.276773</ele>
|
|
<time>2026-07-11T12:39:27.000Z</time>
|
|
</trkpt>
|
|
<trkpt lat="55.552626" lon="8.102589">
|
|
<ele>3.287923</ele>
|
|
<time>2026-07-11T12:39:28.000Z</time>
|
|
</trkpt>
|
|
<trkpt lat="55.552642" lon="8.102504">
|
|
<ele>3.299023</ele>
|
|
<time>2026-07-11T12:39:29.000Z</time>
|
|
</trkpt>
|
|
<trkpt lat="55.552658" lon="8.102418">
|
|
<ele>3.310241</ele>
|
|
<time>2026-07-11T12:39:30.000Z</time>
|
|
</trkpt>
|
|
<trkpt lat="55.552676" lon="8.102332">
|
|
<ele>3.321603</ele>
|
|
<time>2026-07-11T12:39:31.000Z</time>
|
|
</trkpt>
|
|
<trkpt lat="55.552691" lon="8.102245">
|
|
<ele>3.332873</ele>
|
|
<time>2026-07-11T12:39:32.000Z</time>
|
|
</trkpt>
|
|
<trkpt lat="55.552708" lon="8.102160">
|
|
<ele>3.344045</ele>
|
|
<time>2026-07-11T12:39:33.000Z</time>
|
|
</trkpt>
|
|
<trkpt lat="55.552725" lon="8.102077">
|
|
<ele>3.354983</ele>
|
|
<time>2026-07-11T12:39:34.000Z</time>
|
|
</trkpt>
|
|
<trkpt lat="55.552742" lon="8.101992">
|
|
<ele>3.366154</ele>
|
|
<time>2026-07-11T12:39:35.000Z</time>
|
|
</trkpt>
|
|
<trkpt lat="55.552758" lon="8.101909">
|
|
<ele>3.377019</ele>
|
|
<time>2026-07-11T12:39:36.000Z</time>
|
|
</trkpt>
|
|
<trkpt lat="55.552772" lon="8.101826">
|
|
<ele>3.387751</ele>
|
|
<time>2026-07-11T12:39:37.000Z</time>
|
|
</trkpt>
|
|
<trkpt lat="55.552788" lon="8.101746">
|
|
<ele>3.398265</ele>
|
|
<time>2026-07-11T12:39:38.000Z</time>
|
|
</trkpt>
|
|
<trkpt lat="55.552807" lon="8.101664">
|
|
<ele>3.409245</ele>
|
|
<time>2026-07-11T12:39:39.000Z</time>
|
|
</trkpt>
|
|
<trkpt lat="55.552825" lon="8.101578">
|
|
<ele>3.420608</ele>
|
|
<time>2026-07-11T12:39:40.000Z</time>
|
|
</trkpt>
|
|
<trkpt lat="55.552840" lon="8.101488">
|
|
<ele>3.432234</ele>
|
|
<time>2026-07-11T12:39:41.000Z</time>
|
|
</trkpt>
|
|
<trkpt lat="55.552855" lon="8.101401">
|
|
<ele>3.443503</ele>
|
|
<time>2026-07-11T12:39:42.000Z</time>
|
|
</trkpt>
|
|
<trkpt lat="55.552871" lon="8.101316">
|
|
<ele>3.454604</ele>
|
|
<time>2026-07-11T12:39:43.000Z</time>
|
|
</trkpt>
|
|
<trkpt lat="55.552884" lon="8.101229">
|
|
<ele>3.465753</ele>
|
|
<time>2026-07-11T12:39:44.000Z</time>
|
|
</trkpt>
|
|
<trkpt lat="55.552899" lon="8.101141">
|
|
<ele>3.477142</ele>
|
|
<time>2026-07-11T12:39:45.000Z</time>
|
|
</trkpt>
|
|
<trkpt lat="55.552915" lon="8.101055">
|
|
<ele>3.488360</ele>
|
|
<time>2026-07-11T12:39:46.000Z</time>
|
|
</trkpt>
|
|
<trkpt lat="55.552926" lon="8.100969">
|
|
<ele>3.499285</ele>
|
|
<time>2026-07-11T12:39:47.000Z</time>
|
|
</trkpt>
|
|
<trkpt lat="55.552938" lon="8.100883">
|
|
<ele>3.510260</ele>
|
|
<time>2026-07-11T12:39:48.000Z</time>
|
|
</trkpt>
|
|
<trkpt lat="55.552949" lon="8.100799">
|
|
<ele>3.520944</ele>
|
|
<time>2026-07-11T12:39:49.000Z</time>
|
|
</trkpt>
|
|
<trkpt lat="55.552960" lon="8.100716">
|
|
<ele>3.531507</ele>
|
|
<time>2026-07-11T12:39:50.000Z</time>
|
|
</trkpt>
|
|
<trkpt lat="55.552971" lon="8.100633">
|
|
<ele>3.542070</ele>
|
|
<time>2026-07-11T12:39:51.000Z</time>
|
|
</trkpt>
|
|
<trkpt lat="55.552982" lon="8.100546">
|
|
<ele>3.553116</ele>
|
|
<time>2026-07-11T12:39:52.000Z</time>
|
|
</trkpt>
|
|
<trkpt lat="55.552989" lon="8.100460">
|
|
<ele>3.563882</ele>
|
|
<time>2026-07-11T12:39:53.000Z</time>
|
|
</trkpt>
|
|
<trkpt lat="55.552998" lon="8.100374">
|
|
<ele>3.574719</ele>
|
|
<time>2026-07-11T12:39:54.000Z</time>
|
|
</trkpt>
|
|
<trkpt lat="55.553007" lon="8.100284">
|
|
<ele>3.586044</ele>
|
|
<time>2026-07-11T12:39:55.000Z</time>
|
|
</trkpt>
|
|
<trkpt lat="55.553012" lon="8.100200">
|
|
<ele>3.596510</ele>
|
|
<time>2026-07-11T12:39:56.000Z</time>
|
|
</trkpt>
|
|
<trkpt lat="55.553020" lon="8.100114">
|
|
<ele>3.607309</ele>
|
|
<time>2026-07-11T12:39:57.000Z</time>
|
|
</trkpt>
|
|
<trkpt lat="55.553026" lon="8.100030">
|
|
<ele>3.617800</ele>
|
|
<time>2026-07-11T12:39:58.000Z</time>
|
|
</trkpt>
|
|
<trkpt lat="55.553030" lon="8.099942">
|
|
<ele>3.628739</ele>
|
|
<time>2026-07-11T12:39:59.000Z</time>
|
|
</trkpt>
|
|
<trkpt lat="55.553035" lon="8.099853">
|
|
<ele>3.639821</ele>
|
|
<time>2026-07-11T12:40:00.000Z</time>
|
|
</trkpt>
|
|
<trkpt lat="55.553041" lon="8.099764">
|
|
<ele>3.643955</ele>
|
|
<time>2026-07-11T12:40:01.000Z</time>
|
|
</trkpt>
|
|
<trkpt lat="55.553047" lon="8.099673">
|
|
<ele>3.636826</ele>
|
|
<time>2026-07-11T12:40:02.000Z</time>
|
|
</trkpt>
|
|
<trkpt lat="55.553053" lon="8.099580">
|
|
<ele>3.629542</ele>
|
|
<time>2026-07-11T12:40:03.000Z</time>
|
|
</trkpt>
|
|
<trkpt lat="55.553056" lon="8.099488">
|
|
<ele>3.622370</ele>
|
|
<time>2026-07-11T12:40:04.000Z</time>
|
|
</trkpt>
|
|
<trkpt lat="55.553060" lon="8.099396">
|
|
<ele>3.615190</ele>
|
|
<time>2026-07-11T12:40:05.000Z</time>
|
|
</trkpt>
|
|
<trkpt lat="55.553064" lon="8.099302">
|
|
<ele>3.607855</ele>
|
|
<time>2026-07-11T12:40:06.000Z</time>
|
|
</trkpt>
|
|
<trkpt lat="55.553068" lon="8.099208">
|
|
<ele>3.600519</ele>
|
|
<time>2026-07-11T12:40:07.000Z</time>
|
|
</trkpt>
|
|
<trkpt lat="55.553072" lon="8.099117">
|
|
<ele>3.593416</ele>
|
|
<time>2026-07-11T12:40:08.000Z</time>
|
|
</trkpt>
|
|
<trkpt lat="55.553077" lon="8.099024">
|
|
<ele>3.586147</ele>
|
|
<time>2026-07-11T12:40:09.000Z</time>
|
|
</trkpt>
|
|
<trkpt lat="55.553083" lon="8.098930">
|
|
<ele>3.578785</ele>
|
|
<time>2026-07-11T12:40:10.000Z</time>
|
|
</trkpt>
|
|
<trkpt lat="55.553087" lon="8.098839">
|
|
<ele>3.571683</ele>
|
|
<time>2026-07-11T12:40:11.000Z</time>
|
|
</trkpt>
|
|
<trkpt lat="55.553092" lon="8.098747">
|
|
<ele>3.564490</ele>
|
|
<time>2026-07-11T12:40:12.000Z</time>
|
|
</trkpt>
|
|
<trkpt lat="55.553098" lon="8.098652">
|
|
<ele>3.557052</ele>
|
|
<time>2026-07-11T12:40:13.000Z</time>
|
|
</trkpt>
|
|
<trkpt lat="55.553104" lon="8.098555">
|
|
<ele>3.549459</ele>
|
|
<time>2026-07-11T12:40:14.000Z</time>
|
|
</trkpt>
|
|
<trkpt lat="55.553110" lon="8.098458">
|
|
<ele>3.541865</ele>
|
|
<time>2026-07-11T12:40:15.000Z</time>
|
|
</trkpt>
|
|
<trkpt lat="55.553115" lon="8.098362">
|
|
<ele>3.534363</ele>
|
|
<time>2026-07-11T12:40:16.000Z</time>
|
|
</trkpt>
|
|
<trkpt lat="55.553123" lon="8.098268">
|
|
<ele>3.526966</ele>
|
|
<time>2026-07-11T12:40:17.000Z</time>
|
|
</trkpt>
|
|
<trkpt lat="55.553130" lon="8.098175">
|
|
<ele>3.519665</ele>
|
|
<time>2026-07-11T12:40:18.000Z</time>
|
|
</trkpt>
|
|
<trkpt lat="55.553136" lon="8.098083">
|
|
<ele>3.512459</ele>
|
|
<time>2026-07-11T12:40:19.000Z</time>
|
|
</trkpt>
|
|
<trkpt lat="55.553140" lon="8.097989">
|
|
<ele>3.505123</ele>
|
|
<time>2026-07-11T12:40:20.000Z</time>
|
|
</trkpt>
|
|
<trkpt lat="55.553146" lon="8.097897">
|
|
<ele>3.497916</ele>
|
|
<time>2026-07-11T12:40:21.000Z</time>
|
|
</trkpt>
|
|
<trkpt lat="55.553152" lon="8.097808">
|
|
<ele>3.490942</ele>
|
|
<time>2026-07-11T12:40:22.000Z</time>
|
|
</trkpt>
|
|
<trkpt lat="55.553156" lon="8.097718">
|
|
<ele>3.483917</ele>
|
|
<time>2026-07-11T12:40:23.000Z</time>
|
|
</trkpt>
|
|
<trkpt lat="55.553159" lon="8.097630">
|
|
<ele>3.477056</ele>
|
|
<time>2026-07-11T12:40:24.000Z</time>
|
|
</trkpt>
|
|
<trkpt lat="55.553165" lon="8.097544">
|
|
<ele>3.470313</ele>
|
|
<time>2026-07-11T12:40:25.000Z</time>
|
|
</trkpt>
|
|
<trkpt lat="55.553171" lon="8.097459">
|
|
<ele>3.463647</ele>
|
|
<time>2026-07-11T12:40:26.000Z</time>
|
|
</trkpt>
|
|
<trkpt lat="55.553176" lon="8.097375">
|
|
<ele>3.457075</ele>
|
|
<time>2026-07-11T12:40:27.000Z</time>
|
|
</trkpt>
|
|
<trkpt lat="55.553184" lon="8.097290">
|
|
<ele>3.450369</ele>
|
|
<time>2026-07-11T12:40:28.000Z</time>
|
|
</trkpt>
|
|
<trkpt lat="55.553191" lon="8.097201">
|
|
<ele>3.443377</ele>
|
|
<time>2026-07-11T12:40:29.000Z</time>
|
|
</trkpt>
|
|
<trkpt lat="55.553199" lon="8.097112">
|
|
<ele>3.436364</ele>
|
|
<time>2026-07-11T12:40:30.000Z</time>
|
|
</trkpt>
|
|
<trkpt lat="55.553208" lon="8.097023">
|
|
<ele>3.429329</ele>
|
|
<time>2026-07-11T12:40:31.000Z</time>
|
|
</trkpt>
|
|
<trkpt lat="55.553220" lon="8.096931">
|
|
<ele>3.421982</ele>
|
|
<time>2026-07-11T12:40:32.000Z</time>
|
|
</trkpt>
|
|
<trkpt lat="55.553231" lon="8.096842">
|
|
<ele>3.414892</ele>
|
|
<time>2026-07-11T12:40:33.000Z</time>
|
|
</trkpt>
|
|
<trkpt lat="55.553244" lon="8.096754">
|
|
<ele>3.407815</ele>
|
|
<time>2026-07-11T12:40:34.000Z</time>
|
|
</trkpt>
|
|
<trkpt lat="55.553259" lon="8.096667">
|
|
<ele>3.400737</ele>
|
|
<time>2026-07-11T12:40:35.000Z</time>
|
|
</trkpt>
|
|
<trkpt lat="55.553273" lon="8.096577">
|
|
<ele>3.409817</ele>
|
|
<time>2026-07-11T12:40:36.000Z</time>
|
|
</trkpt>
|
|
<trkpt lat="55.553286" lon="8.096490">
|
|
<ele>3.422806</ele>
|
|
<time>2026-07-11T12:40:37.000Z</time>
|
|
</trkpt>
|
|
<trkpt lat="55.553303" lon="8.096402">
|
|
<ele>3.436229</ele>
|
|
<time>2026-07-11T12:40:38.000Z</time>
|
|
</trkpt>
|
|
<trkpt lat="55.553322" lon="8.096313">
|
|
<ele>3.449960</ele>
|
|
<time>2026-07-11T12:40:39.000Z</time>
|
|
</trkpt>
|
|
<trkpt lat="55.553343" lon="8.096225">
|
|
<ele>3.463747</ele>
|
|
<time>2026-07-11T12:40:40.000Z</time>
|
|
</trkpt>
|
|
<trkpt lat="55.553364" lon="8.096140">
|
|
<ele>3.477135</ele>
|
|
<time>2026-07-11T12:40:41.000Z</time>
|
|
</trkpt>
|
|
<trkpt lat="55.553385" lon="8.096055">
|
|
<ele>3.490524</ele>
|
|
<time>2026-07-11T12:40:42.000Z</time>
|
|
</trkpt>
|
|
<trkpt lat="55.553408" lon="8.095970">
|
|
<ele>3.504125</ele>
|
|
<time>2026-07-11T12:40:43.000Z</time>
|
|
</trkpt>
|
|
<trkpt lat="55.553431" lon="8.095887">
|
|
<ele>3.517466</ele>
|
|
<time>2026-07-11T12:40:44.000Z</time>
|
|
</trkpt>
|
|
<trkpt lat="55.553454" lon="8.095804">
|
|
<ele>3.530807</ele>
|
|
<time>2026-07-11T12:40:45.000Z</time>
|
|
</trkpt>
|
|
<trkpt lat="55.553477" lon="8.095722">
|
|
<ele>3.544018</ele>
|
|
<time>2026-07-11T12:40:46.000Z</time>
|
|
</trkpt>
|
|
<trkpt lat="55.553500" lon="8.095640">
|
|
<ele>3.557230</ele>
|
|
<time>2026-07-11T12:40:47.000Z</time>
|
|
</trkpt>
|
|
<trkpt lat="55.553523" lon="8.095558">
|
|
<ele>3.570441</ele>
|
|
<time>2026-07-11T12:40:48.000Z</time>
|
|
</trkpt>
|
|
<trkpt lat="55.553546" lon="8.095476">
|
|
<ele>3.583653</ele>
|
|
<time>2026-07-11T12:40:49.000Z</time>
|
|
</trkpt>
|
|
<trkpt lat="55.553568" lon="8.095397">
|
|
<ele>3.596363</ele>
|
|
<time>2026-07-11T12:40:50.000Z</time>
|
|
</trkpt>
|
|
<trkpt lat="55.553591" lon="8.095318">
|
|
<ele>3.609188</ele>
|
|
<time>2026-07-11T12:40:51.000Z</time>
|
|
</trkpt>
|
|
<trkpt lat="55.553614" lon="8.095237">
|
|
<ele>3.622271</ele>
|
|
<time>2026-07-11T12:40:52.000Z</time>
|
|
</trkpt>
|
|
<trkpt lat="55.553637" lon="8.095158">
|
|
<ele>3.635096</ele>
|
|
<time>2026-07-11T12:40:53.000Z</time>
|
|
</trkpt>
|
|
<trkpt lat="55.553660" lon="8.095080">
|
|
<ele>3.647792</ele>
|
|
<time>2026-07-11T12:40:54.000Z</time>
|
|
</trkpt>
|
|
<trkpt lat="55.553681" lon="8.095001">
|
|
<ele>3.660392</ele>
|
|
<time>2026-07-11T12:40:55.000Z</time>
|
|
</trkpt>
|
|
<trkpt lat="55.553702" lon="8.094921">
|
|
<ele>3.673122</ele>
|
|
<time>2026-07-11T12:40:56.000Z</time>
|
|
</trkpt>
|
|
<trkpt lat="55.553725" lon="8.094840">
|
|
<ele>3.686205</ele>
|
|
<time>2026-07-11T12:40:57.000Z</time>
|
|
</trkpt>
|
|
<trkpt lat="55.553746" lon="8.094761">
|
|
<ele>3.698804</ele>
|
|
<time>2026-07-11T12:40:58.000Z</time>
|
|
</trkpt>
|
|
<trkpt lat="55.553767" lon="8.094683">
|
|
<ele>3.711273</ele>
|
|
<time>2026-07-11T12:40:59.000Z</time>
|
|
</trkpt>
|
|
<trkpt lat="55.553789" lon="8.094605">
|
|
<ele>3.723854</ele>
|
|
<time>2026-07-11T12:41:00.000Z</time>
|
|
</trkpt>
|
|
<trkpt lat="55.553812" lon="8.094528">
|
|
<ele>3.736423</ele>
|
|
<time>2026-07-11T12:41:01.000Z</time>
|
|
</trkpt>
|
|
<trkpt lat="55.553835" lon="8.094452">
|
|
<ele>3.748865</ele>
|
|
<time>2026-07-11T12:41:02.000Z</time>
|
|
</trkpt>
|
|
<trkpt lat="55.553858" lon="8.094373">
|
|
<ele>3.761690</ele>
|
|
<time>2026-07-11T12:41:03.000Z</time>
|
|
</trkpt>
|
|
<trkpt lat="55.553880" lon="8.094293">
|
|
<ele>3.774529</ele>
|
|
<time>2026-07-11T12:41:04.000Z</time>
|
|
</trkpt>
|
|
<trkpt lat="55.553900" lon="8.094216">
|
|
<ele>3.786760</ele>
|
|
<time>2026-07-11T12:41:05.000Z</time>
|
|
</trkpt>
|
|
<trkpt lat="55.553921" lon="8.094140">
|
|
<ele>3.798969</ele>
|
|
<time>2026-07-11T12:41:06.000Z</time>
|
|
</trkpt>
|
|
<trkpt lat="55.553942" lon="8.094064">
|
|
<ele>3.811178</ele>
|
|
<time>2026-07-11T12:41:07.000Z</time>
|
|
</trkpt>
|
|
<trkpt lat="55.553961" lon="8.093994">
|
|
<ele>3.822385</ele>
|
|
<time>2026-07-11T12:41:08.000Z</time>
|
|
</trkpt>
|
|
<trkpt lat="55.553978" lon="8.093924">
|
|
<ele>3.833381</ele>
|
|
<time>2026-07-11T12:41:09.000Z</time>
|
|
</trkpt>
|
|
<trkpt lat="55.553998" lon="8.093854">
|
|
<ele>3.844700</ele>
|
|
<time>2026-07-11T12:41:10.000Z</time>
|
|
</trkpt>
|
|
<trkpt lat="55.554018" lon="8.093786">
|
|
<ele>3.855763</ele>
|
|
<time>2026-07-11T12:41:11.000Z</time>
|
|
</trkpt>
|
|
<trkpt lat="55.554038" lon="8.093717">
|
|
<ele>3.885681</ele>
|
|
<time>2026-07-11T12:41:12.000Z</time>
|
|
</trkpt>
|
|
<trkpt lat="55.554057" lon="8.093650">
|
|
<ele>3.919618</ele>
|
|
<time>2026-07-11T12:41:13.000Z</time>
|
|
</trkpt>
|
|
<trkpt lat="55.554078" lon="8.093582">
|
|
<ele>3.954700</ele>
|
|
<time>2026-07-11T12:41:14.000Z</time>
|
|
</trkpt>
|
|
<trkpt lat="55.554099" lon="8.093513">
|
|
<ele>3.990179</ele>
|
|
<time>2026-07-11T12:41:15.000Z</time>
|
|
</trkpt>
|
|
<trkpt lat="55.554120" lon="8.093442">
|
|
<ele>4.026458</ele>
|
|
<time>2026-07-11T12:41:16.000Z</time>
|
|
</trkpt>
|
|
<trkpt lat="55.554139" lon="8.093373">
|
|
<ele>4.061207</ele>
|
|
<time>2026-07-11T12:41:17.000Z</time>
|
|
</trkpt>
|
|
<trkpt lat="55.554158" lon="8.093306">
|
|
<ele>4.095145</ele>
|
|
<time>2026-07-11T12:41:18.000Z</time>
|
|
</trkpt>
|
|
<trkpt lat="55.554177" lon="8.093241">
|
|
<ele>4.128275</ele>
|
|
<time>2026-07-11T12:41:19.000Z</time>
|
|
</trkpt>
|
|
<trkpt lat="55.554196" lon="8.093183">
|
|
<ele>4.158624</ele>
|
|
<time>2026-07-11T12:41:20.000Z</time>
|
|
</trkpt>
|
|
<trkpt lat="55.554213" lon="8.093135">
|
|
<ele>4.184268</ele>
|
|
<time>2026-07-11T12:41:21.000Z</time>
|
|
</trkpt>
|
|
<trkpt lat="55.554229" lon="8.093098">
|
|
<ele>4.205357</ele>
|
|
<time>2026-07-11T12:41:22.000Z</time>
|
|
</trkpt>
|
|
<trkpt lat="55.554239" lon="8.093075">
|
|
<ele>4.218492</ele>
|
|
<time>2026-07-11T12:41:23.000Z</time>
|
|
</trkpt>
|
|
<trkpt lat="55.554241" lon="8.093058">
|
|
<ele>4.226355</ele>
|
|
<time>2026-07-11T12:42:06.000Z</time>
|
|
</trkpt>
|
|
<trkpt lat="55.554243" lon="8.093039">
|
|
<ele>4.235106</ele>
|
|
<time>2026-07-11T12:42:07.000Z</time>
|
|
</trkpt>
|
|
<trkpt lat="55.554248" lon="8.093017">
|
|
<ele>4.245841</ele>
|
|
<time>2026-07-11T12:42:08.000Z</time>
|
|
</trkpt>
|
|
<trkpt lat="55.554256" lon="8.092986">
|
|
<ele>4.261270</ele>
|
|
<time>2026-07-11T12:42:09.000Z</time>
|
|
</trkpt>
|
|
<trkpt lat="55.554265" lon="8.092949">
|
|
<ele>4.279507</ele>
|
|
<time>2026-07-11T12:42:10.000Z</time>
|
|
</trkpt>
|
|
<trkpt lat="55.554277" lon="8.092907">
|
|
<ele>4.300814</ele>
|
|
<time>2026-07-11T12:42:11.000Z</time>
|
|
</trkpt>
|
|
<trkpt lat="55.554289" lon="8.092866">
|
|
<ele>4.321717</ele>
|
|
<time>2026-07-11T12:42:12.000Z</time>
|
|
</trkpt>
|
|
<trkpt lat="55.554302" lon="8.092823">
|
|
<ele>4.343794</ele>
|
|
<time>2026-07-11T12:42:13.000Z</time>
|
|
</trkpt>
|
|
<trkpt lat="55.554316" lon="8.092768">
|
|
<ele>4.371104</ele>
|
|
<time>2026-07-11T12:42:14.000Z</time>
|
|
</trkpt>
|
|
<trkpt lat="55.554331" lon="8.092716">
|
|
<ele>4.397535</ele>
|
|
<time>2026-07-11T12:42:15.000Z</time>
|
|
</trkpt>
|
|
<trkpt lat="55.554349" lon="8.092659">
|
|
<ele>4.427094</ele>
|
|
<time>2026-07-11T12:42:16.000Z</time>
|
|
</trkpt>
|
|
<trkpt lat="55.554368" lon="8.092604">
|
|
<ele>4.456276</ele>
|
|
<time>2026-07-11T12:42:17.000Z</time>
|
|
</trkpt>
|
|
<trkpt lat="55.554387" lon="8.092548">
|
|
<ele>4.485845</ele>
|
|
<time>2026-07-11T12:42:18.000Z</time>
|
|
</trkpt>
|
|
<trkpt lat="55.554406" lon="8.092491">
|
|
<ele>4.515803</ele>
|
|
<time>2026-07-11T12:42:19.000Z</time>
|
|
</trkpt>
|
|
<trkpt lat="55.554427" lon="8.092434">
|
|
<ele>4.546605</ele>
|
|
<time>2026-07-11T12:42:20.000Z</time>
|
|
</trkpt>
|
|
<trkpt lat="55.554448" lon="8.092378">
|
|
<ele>4.577028</ele>
|
|
<time>2026-07-11T12:42:21.000Z</time>
|
|
</trkpt>
|
|
<trkpt lat="55.554469" lon="8.092322">
|
|
<ele>4.607452</ele>
|
|
<time>2026-07-11T12:42:22.000Z</time>
|
|
</trkpt>
|
|
<trkpt lat="55.554490" lon="8.092269">
|
|
<ele>4.636753</ele>
|
|
<time>2026-07-11T12:42:23.000Z</time>
|
|
</trkpt>
|
|
<trkpt lat="55.554510" lon="8.092216">
|
|
<ele>4.665602</ele>
|
|
<time>2026-07-11T12:42:24.000Z</time>
|
|
</trkpt>
|
|
<trkpt lat="55.554535" lon="8.092164">
|
|
<ele>4.696504</ele>
|
|
<time>2026-07-11T12:42:25.000Z</time>
|
|
</trkpt>
|
|
<trkpt lat="55.554560" lon="8.092111">
|
|
<ele>4.727752</ele>
|
|
<time>2026-07-11T12:42:26.000Z</time>
|
|
</trkpt>
|
|
<trkpt lat="55.554583" lon="8.092059">
|
|
<ele>4.757642</ele>
|
|
<time>2026-07-11T12:42:27.000Z</time>
|
|
</trkpt>
|
|
<trkpt lat="55.554607" lon="8.092007">
|
|
<ele>4.788032</ele>
|
|
<time>2026-07-11T12:42:28.000Z</time>
|
|
</trkpt>
|
|
<trkpt lat="55.554631" lon="8.091956">
|
|
<ele>4.818072</ele>
|
|
<time>2026-07-11T12:42:29.000Z</time>
|
|
</trkpt>
|
|
<trkpt lat="55.554659" lon="8.091898">
|
|
<ele>4.852599</ele>
|
|
<time>2026-07-11T12:42:30.000Z</time>
|
|
</trkpt>
|
|
<trkpt lat="55.554686" lon="8.091843">
|
|
<ele>4.885575</ele>
|
|
<time>2026-07-11T12:42:31.000Z</time>
|
|
</trkpt>
|
|
<trkpt lat="55.554709" lon="8.091791">
|
|
<ele>4.915464</ele>
|
|
<time>2026-07-11T12:42:32.000Z</time>
|
|
</trkpt>
|
|
<trkpt lat="55.554734" lon="8.091739">
|
|
<ele>4.946366</ele>
|
|
<time>2026-07-11T12:42:33.000Z</time>
|
|
</trkpt>
|
|
<trkpt lat="55.554769" lon="8.091676">
|
|
<ele>4.986351</ele>
|
|
<time>2026-07-11T12:42:34.000Z</time>
|
|
</trkpt>
|
|
<trkpt lat="55.554798" lon="8.091621">
|
|
<ele>5.020398</ele>
|
|
<time>2026-07-11T12:42:35.000Z</time>
|
|
</trkpt>
|
|
<trkpt lat="55.554828" lon="8.091569">
|
|
<ele>5.054030</ele>
|
|
<time>2026-07-11T12:42:36.000Z</time>
|
|
</trkpt>
|
|
<trkpt lat="55.554861" lon="8.091524">
|
|
<ele>5.087393</ele>
|
|
<time>2026-07-11T12:42:37.000Z</time>
|
|
</trkpt>
|
|
<trkpt lat="55.554893" lon="8.091486">
|
|
<ele>5.118252</ele>
|
|
<time>2026-07-11T12:42:38.000Z</time>
|
|
</trkpt>
|
|
<trkpt lat="55.554926" lon="8.091454">
|
|
<ele>5.148383</ele>
|
|
<time>2026-07-11T12:42:39.000Z</time>
|
|
</trkpt>
|
|
<trkpt lat="55.554957" lon="8.091429">
|
|
<ele>5.175659</ele>
|
|
<time>2026-07-11T12:42:40.000Z</time>
|
|
</trkpt>
|
|
<trkpt lat="55.554989" lon="8.091412">
|
|
<ele>5.202408</ele>
|
|
<time>2026-07-11T12:42:41.000Z</time>
|
|
</trkpt>
|
|
<trkpt lat="55.555023" lon="8.091399">
|
|
<ele>5.230255</ele>
|
|
<time>2026-07-11T12:42:42.000Z</time>
|
|
</trkpt>
|
|
<trkpt lat="55.555057" lon="8.091383">
|
|
<ele>5.258421</ele>
|
|
<time>2026-07-11T12:42:43.000Z</time>
|
|
</trkpt>
|
|
<trkpt lat="55.555092" lon="8.091361">
|
|
<ele>5.288158</ele>
|
|
<time>2026-07-11T12:42:44.000Z</time>
|
|
</trkpt>
|
|
<trkpt lat="55.555130" lon="8.091338">
|
|
<ele>5.289547</ele>
|
|
<time>2026-07-11T12:42:45.000Z</time>
|
|
</trkpt>
|
|
<trkpt lat="55.555171" lon="8.091315">
|
|
<ele>5.276355</ele>
|
|
<time>2026-07-11T12:42:46.000Z</time>
|
|
</trkpt>
|
|
<trkpt lat="55.555216" lon="8.091294">
|
|
<ele>5.262082</ele>
|
|
<time>2026-07-11T12:42:47.000Z</time>
|
|
</trkpt>
|
|
<trkpt lat="55.555264" lon="8.091272">
|
|
<ele>5.246875</ele>
|
|
<time>2026-07-11T12:42:48.000Z</time>
|
|
</trkpt>
|
|
<trkpt lat="55.555311" lon="8.091246">
|
|
<ele>5.231772</ele>
|
|
<time>2026-07-11T12:42:49.000Z</time>
|
|
</trkpt>
|
|
<trkpt lat="55.555361" lon="8.091217">
|
|
<ele>5.215633</ele>
|
|
<time>2026-07-11T12:42:50.000Z</time>
|
|
</trkpt>
|
|
<trkpt lat="55.555410" lon="8.091185">
|
|
<ele>5.199614</ele>
|
|
<time>2026-07-11T12:42:51.000Z</time>
|
|
</trkpt>
|
|
<trkpt lat="55.555460" lon="8.091151">
|
|
<ele>5.183185</ele>
|
|
<time>2026-07-11T12:42:52.000Z</time>
|
|
</trkpt>
|
|
<trkpt lat="55.555513" lon="8.091107">
|
|
<ele>5.165228</ele>
|
|
<time>2026-07-11T12:42:53.000Z</time>
|
|
</trkpt>
|
|
<trkpt lat="55.555563" lon="8.091062">
|
|
<ele>5.148021</ele>
|
|
<time>2026-07-11T12:42:54.000Z</time>
|
|
</trkpt>
|
|
<trkpt lat="55.555612" lon="8.091015">
|
|
<ele>5.130925</ele>
|
|
<time>2026-07-11T12:42:55.000Z</time>
|
|
</trkpt>
|
|
<trkpt lat="55.555664" lon="8.090971">
|
|
<ele>5.113245</ele>
|
|
<time>2026-07-11T12:42:56.000Z</time>
|
|
</trkpt>
|
|
<trkpt lat="55.555717" lon="8.090931">
|
|
<ele>5.095572</ele>
|
|
<time>2026-07-11T12:42:57.000Z</time>
|
|
</trkpt>
|
|
<trkpt lat="55.555772" lon="8.090893">
|
|
<ele>5.077463</ele>
|
|
<time>2026-07-11T12:42:58.000Z</time>
|
|
</trkpt>
|
|
<trkpt lat="55.555826" lon="8.090857">
|
|
<ele>5.059764</ele>
|
|
<time>2026-07-11T12:42:59.000Z</time>
|
|
</trkpt>
|
|
<trkpt lat="55.555877" lon="8.090823">
|
|
<ele>5.043048</ele>
|
|
<time>2026-07-11T12:43:00.000Z</time>
|
|
</trkpt>
|
|
<trkpt lat="55.555931" lon="8.090788">
|
|
<ele>5.025409</ele>
|
|
<time>2026-07-11T12:43:01.000Z</time>
|
|
</trkpt>
|
|
<trkpt lat="55.555985" lon="8.090755">
|
|
<ele>5.007887</ele>
|
|
<time>2026-07-11T12:43:02.000Z</time>
|
|
</trkpt>
|
|
<trkpt lat="55.556036" lon="8.090726">
|
|
<ele>4.991458</ele>
|
|
<time>2026-07-11T12:43:03.000Z</time>
|
|
</trkpt>
|
|
<trkpt lat="55.556086" lon="8.090695">
|
|
<ele>4.975208</ele>
|
|
<time>2026-07-11T12:43:04.000Z</time>
|
|
</trkpt>
|
|
<trkpt lat="55.556136" lon="8.090661">
|
|
<ele>4.958779</ele>
|
|
<time>2026-07-11T12:43:05.000Z</time>
|
|
</trkpt>
|
|
<trkpt lat="55.556186" lon="8.090626">
|
|
<ele>4.942287</ele>
|
|
<time>2026-07-11T12:43:06.000Z</time>
|
|
</trkpt>
|
|
<trkpt lat="55.556232" lon="8.090588">
|
|
<ele>4.926716</ele>
|
|
<time>2026-07-11T12:43:07.000Z</time>
|
|
</trkpt>
|
|
<trkpt lat="55.556275" lon="8.090548">
|
|
<ele>4.911815</ele>
|
|
<time>2026-07-11T12:43:08.000Z</time>
|
|
</trkpt>
|
|
<trkpt lat="55.556319" lon="8.090502">
|
|
<ele>4.896138</ele>
|
|
<time>2026-07-11T12:43:09.000Z</time>
|
|
</trkpt>
|
|
<trkpt lat="55.556358" lon="8.090448">
|
|
<ele>4.880946</ele>
|
|
<time>2026-07-11T12:43:10.000Z</time>
|
|
</trkpt>
|
|
<trkpt lat="55.556393" lon="8.090392">
|
|
<ele>4.866470</ele>
|
|
<time>2026-07-11T12:43:11.000Z</time>
|
|
</trkpt>
|
|
<trkpt lat="55.556425" lon="8.090333">
|
|
<ele>4.852291</ele>
|
|
<time>2026-07-11T12:43:12.000Z</time>
|
|
</trkpt>
|
|
<trkpt lat="55.556456" lon="8.090270">
|
|
<ele>4.837806</ele>
|
|
<time>2026-07-11T12:43:13.000Z</time>
|
|
</trkpt>
|
|
<trkpt lat="55.556486" lon="8.090204">
|
|
<ele>4.823119</ele>
|
|
<time>2026-07-11T12:43:14.000Z</time>
|
|
</trkpt>
|
|
<trkpt lat="55.556514" lon="8.090137">
|
|
<ele>4.808669</ele>
|
|
<time>2026-07-11T12:43:15.000Z</time>
|
|
</trkpt>
|
|
<trkpt lat="55.556543" lon="8.090068">
|
|
<ele>4.793758</ele>
|
|
<time>2026-07-11T12:43:16.000Z</time>
|
|
</trkpt>
|
|
<trkpt lat="55.556572" lon="8.089995">
|
|
<ele>4.778285</ele>
|
|
<time>2026-07-11T12:43:17.000Z</time>
|
|
</trkpt>
|
|
<trkpt lat="55.556600" lon="8.089921">
|
|
<ele>4.762841</ele>
|
|
<time>2026-07-11T12:43:18.000Z</time>
|
|
</trkpt>
|
|
<trkpt lat="55.556629" lon="8.089845">
|
|
<ele>4.746939</ele>
|
|
<time>2026-07-11T12:43:19.000Z</time>
|
|
</trkpt>
|
|
<trkpt lat="55.556655" lon="8.089775">
|
|
<ele>4.761969</ele>
|
|
<time>2026-07-11T12:43:20.000Z</time>
|
|
</trkpt>
|
|
<trkpt lat="55.556683" lon="8.089702">
|
|
<ele>4.778864</ele>
|
|
<time>2026-07-11T12:43:21.000Z</time>
|
|
</trkpt>
|
|
<trkpt lat="55.556714" lon="8.089626">
|
|
<ele>4.796812</ele>
|
|
<time>2026-07-11T12:43:22.000Z</time>
|
|
</trkpt>
|
|
<trkpt lat="55.556740" lon="8.089554">
|
|
<ele>4.813175</ele>
|
|
<time>2026-07-11T12:43:23.000Z</time>
|
|
</trkpt>
|
|
<trkpt lat="55.556765" lon="8.089479">
|
|
<ele>4.829850</ele>
|
|
<time>2026-07-11T12:43:24.000Z</time>
|
|
</trkpt>
|
|
<trkpt lat="55.556790" lon="8.089405">
|
|
<ele>4.846360</ele>
|
|
<time>2026-07-11T12:43:25.000Z</time>
|
|
</trkpt>
|
|
<trkpt lat="55.556815" lon="8.089333">
|
|
<ele>4.862543</ele>
|
|
<time>2026-07-11T12:43:26.000Z</time>
|
|
</trkpt>
|
|
<trkpt lat="55.556837" lon="8.089262">
|
|
<ele>4.878049</ele>
|
|
<time>2026-07-11T12:43:27.000Z</time>
|
|
</trkpt>
|
|
<trkpt lat="55.556857" lon="8.089187">
|
|
<ele>4.893932</ele>
|
|
<time>2026-07-11T12:43:28.000Z</time>
|
|
</trkpt>
|
|
<trkpt lat="55.556874" lon="8.089110">
|
|
<ele>4.909764</ele>
|
|
<time>2026-07-11T12:43:29.000Z</time>
|
|
</trkpt>
|
|
<trkpt lat="55.556893" lon="8.089034">
|
|
<ele>4.925680</ele>
|
|
<time>2026-07-11T12:43:30.000Z</time>
|
|
</trkpt>
|
|
<trkpt lat="55.556914" lon="8.088959">
|
|
<ele>4.941710</ele>
|
|
<time>2026-07-11T12:43:31.000Z</time>
|
|
</trkpt>
|
|
<trkpt lat="55.556933" lon="8.088883">
|
|
<ele>4.957626</ele>
|
|
<time>2026-07-11T12:43:32.000Z</time>
|
|
</trkpt>
|
|
<trkpt lat="55.556950" lon="8.088805">
|
|
<ele>4.973637</ele>
|
|
<time>2026-07-11T12:43:33.000Z</time>
|
|
</trkpt>
|
|
<trkpt lat="55.556968" lon="8.088724">
|
|
<ele>4.990307</ele>
|
|
<time>2026-07-11T12:43:34.000Z</time>
|
|
</trkpt>
|
|
<trkpt lat="55.556985" lon="8.088640">
|
|
<ele>5.007395</ele>
|
|
<time>2026-07-11T12:43:35.000Z</time>
|
|
</trkpt>
|
|
<trkpt lat="55.557004" lon="8.088557">
|
|
<ele>5.024546</ele>
|
|
<time>2026-07-11T12:43:36.000Z</time>
|
|
</trkpt>
|
|
<trkpt lat="55.557022" lon="8.088473">
|
|
<ele>5.041752</ele>
|
|
<time>2026-07-11T12:43:37.000Z</time>
|
|
</trkpt>
|
|
<trkpt lat="55.557042" lon="8.088386">
|
|
<ele>5.059740</ele>
|
|
<time>2026-07-11T12:43:38.000Z</time>
|
|
</trkpt>
|
|
<trkpt lat="55.557061" lon="8.088302">
|
|
<ele>5.077068</ele>
|
|
<time>2026-07-11T12:43:39.000Z</time>
|
|
</trkpt>
|
|
<trkpt lat="55.557081" lon="8.088221">
|
|
<ele>5.093997</ele>
|
|
<time>2026-07-11T12:43:40.000Z</time>
|
|
</trkpt>
|
|
<trkpt lat="55.557103" lon="8.088138">
|
|
<ele>5.111554</ele>
|
|
<time>2026-07-11T12:43:41.000Z</time>
|
|
</trkpt>
|
|
<trkpt lat="55.557123" lon="8.088058">
|
|
<ele>5.128308</ele>
|
|
<time>2026-07-11T12:43:42.000Z</time>
|
|
</trkpt>
|
|
<trkpt lat="55.557147" lon="8.087978">
|
|
<ele>5.145653</ele>
|
|
<time>2026-07-11T12:43:43.000Z</time>
|
|
</trkpt>
|
|
<trkpt lat="55.557170" lon="8.087901">
|
|
<ele>5.162333</ele>
|
|
<time>2026-07-11T12:43:44.000Z</time>
|
|
</trkpt>
|
|
<trkpt lat="55.557192" lon="8.087825">
|
|
<ele>5.178686</ele>
|
|
<time>2026-07-11T12:43:45.000Z</time>
|
|
</trkpt>
|
|
<trkpt lat="55.557214" lon="8.087748">
|
|
<ele>5.195209</ele>
|
|
<time>2026-07-11T12:43:46.000Z</time>
|
|
</trkpt>
|
|
<trkpt lat="55.557236" lon="8.087670">
|
|
<ele>5.211904</ele>
|
|
<time>2026-07-11T12:43:47.000Z</time>
|
|
</trkpt>
|
|
<trkpt lat="55.557261" lon="8.087593">
|
|
<ele>5.228910</ele>
|
|
<time>2026-07-11T12:43:48.000Z</time>
|
|
</trkpt>
|
|
<trkpt lat="55.557284" lon="8.087516">
|
|
<ele>5.245589</ele>
|
|
<time>2026-07-11T12:43:49.000Z</time>
|
|
</trkpt>
|
|
<trkpt lat="55.557303" lon="8.087439">
|
|
<ele>5.261681</ele>
|
|
<time>2026-07-11T12:43:50.000Z</time>
|
|
</trkpt>
|
|
<trkpt lat="55.557318" lon="8.087359">
|
|
<ele>5.277824</ele>
|
|
<time>2026-07-11T12:43:51.000Z</time>
|
|
</trkpt>
|
|
<trkpt lat="55.557332" lon="8.087270">
|
|
<ele>5.295518</ele>
|
|
<time>2026-07-11T12:43:52.000Z</time>
|
|
</trkpt>
|
|
<trkpt lat="55.557344" lon="8.087183">
|
|
<ele>5.312670</ele>
|
|
<time>2026-07-11T12:43:53.000Z</time>
|
|
</trkpt>
|
|
<trkpt lat="55.557353" lon="8.087098">
|
|
<ele>5.329234</ele>
|
|
<time>2026-07-11T12:43:54.000Z</time>
|
|
</trkpt>
|
|
<trkpt lat="55.557359" lon="8.087012">
|
|
<ele>5.345832</ele>
|
|
<time>2026-07-11T12:43:55.000Z</time>
|
|
</trkpt>
|
|
<trkpt lat="55.557362" lon="8.086927">
|
|
<ele>5.431913</ele>
|
|
<time>2026-07-11T12:43:56.000Z</time>
|
|
</trkpt>
|
|
<trkpt lat="55.557363" lon="8.086842">
|
|
<ele>5.621538</ele>
|
|
<time>2026-07-11T12:43:57.000Z</time>
|
|
</trkpt>
|
|
<trkpt lat="55.557365" lon="8.086758">
|
|
<ele>5.809058</ele>
|
|
<time>2026-07-11T12:43:58.000Z</time>
|
|
</trkpt>
|
|
<trkpt lat="55.557364" lon="8.086671">
|
|
<ele>6.003144</ele>
|
|
<time>2026-07-11T12:43:59.000Z</time>
|
|
</trkpt>
|
|
<trkpt lat="55.557358" lon="8.086583">
|
|
<ele>6.200840</ele>
|
|
<time>2026-07-11T12:44:00.000Z</time>
|
|
</trkpt>
|
|
<trkpt lat="55.557351" lon="8.086491">
|
|
<ele>6.407886</ele>
|
|
<time>2026-07-11T12:44:01.000Z</time>
|
|
</trkpt>
|
|
<trkpt lat="55.557340" lon="8.086402">
|
|
<ele>6.611077</ele>
|
|
<time>2026-07-11T12:44:02.000Z</time>
|
|
</trkpt>
|
|
<trkpt lat="55.557324" lon="8.086316">
|
|
<ele>6.813003</ele>
|
|
<time>2026-07-11T12:44:03.000Z</time>
|
|
</trkpt>
|
|
<trkpt lat="55.557309" lon="8.086231">
|
|
<ele>7.011602</ele>
|
|
<time>2026-07-11T12:44:04.000Z</time>
|
|
</trkpt>
|
|
<trkpt lat="55.557294" lon="8.086150">
|
|
<ele>7.201702</ele>
|
|
<time>2026-07-11T12:44:05.000Z</time>
|
|
</trkpt>
|
|
<trkpt lat="55.557281" lon="8.086071">
|
|
<ele>7.385211</ele>
|
|
<time>2026-07-11T12:44:06.000Z</time>
|
|
</trkpt>
|
|
<trkpt lat="55.557269" lon="8.085989">
|
|
<ele>7.574128</ele>
|
|
<time>2026-07-11T12:44:07.000Z</time>
|
|
</trkpt>
|
|
<trkpt lat="55.557258" lon="8.085909">
|
|
<ele>7.757758</ele>
|
|
<time>2026-07-11T12:44:08.000Z</time>
|
|
</trkpt>
|
|
<trkpt lat="55.557248" lon="8.085840">
|
|
<ele>7.916629</ele>
|
|
<time>2026-07-11T12:44:09.000Z</time>
|
|
</trkpt>
|
|
<trkpt lat="55.557242" lon="8.085780">
|
|
<ele>8.052529</ele>
|
|
<time>2026-07-11T12:44:10.000Z</time>
|
|
</trkpt>
|
|
<trkpt lat="55.557236" lon="8.085730">
|
|
<ele>8.166532</ele>
|
|
<time>2026-07-11T12:44:11.000Z</time>
|
|
</trkpt>
|
|
<trkpt lat="55.557233" lon="8.085687">
|
|
<ele>8.263167</ele>
|
|
<time>2026-07-11T12:44:12.000Z</time>
|
|
</trkpt>
|
|
<trkpt lat="55.557229" lon="8.085625">
|
|
<ele>8.402349</ele>
|
|
<time>2026-07-11T12:44:13.000Z</time>
|
|
</trkpt>
|
|
<trkpt lat="55.557220" lon="8.085533">
|
|
<ele>8.610594</ele>
|
|
<time>2026-07-11T12:44:14.000Z</time>
|
|
</trkpt>
|
|
<trkpt lat="55.557216" lon="8.085468">
|
|
<ele>8.756426</ele>
|
|
<time>2026-07-11T12:44:15.000Z</time>
|
|
</trkpt>
|
|
<trkpt lat="55.557211" lon="8.085400">
|
|
<ele>8.909371</ele>
|
|
<time>2026-07-11T12:44:16.000Z</time>
|
|
</trkpt>
|
|
<trkpt lat="55.557208" lon="8.085343">
|
|
<ele>9.037053</ele>
|
|
<time>2026-07-11T12:44:17.000Z</time>
|
|
</trkpt>
|
|
<trkpt lat="55.557204" lon="8.085290">
|
|
<ele>9.156313</ele>
|
|
<time>2026-07-11T12:44:18.000Z</time>
|
|
</trkpt>
|
|
<trkpt lat="55.557201" lon="8.085238">
|
|
<ele>9.272897</ele>
|
|
<time>2026-07-11T12:44:19.000Z</time>
|
|
</trkpt>
|
|
<trkpt lat="55.557201" lon="8.085183">
|
|
<ele>9.395569</ele>
|
|
<time>2026-07-11T12:44:20.000Z</time>
|
|
</trkpt>
|
|
<trkpt lat="55.557203" lon="8.085129">
|
|
<ele>9.516270</ele>
|
|
<time>2026-07-11T12:44:21.000Z</time>
|
|
</trkpt>
|
|
<trkpt lat="55.557205" lon="8.085075">
|
|
<ele>9.636970</ele>
|
|
<time>2026-07-11T12:44:22.000Z</time>
|
|
</trkpt>
|
|
<trkpt lat="55.557205" lon="8.085026">
|
|
<ele>9.746260</ele>
|
|
<time>2026-07-11T12:44:23.000Z</time>
|
|
</trkpt>
|
|
<trkpt lat="55.557207" lon="8.084976">
|
|
<ele>9.858059</ele>
|
|
<time>2026-07-11T12:44:24.000Z</time>
|
|
</trkpt>
|
|
<trkpt lat="55.557209" lon="8.084921">
|
|
<ele>9.980985</ele>
|
|
<time>2026-07-11T12:44:25.000Z</time>
|
|
</trkpt>
|
|
<trkpt lat="55.557210" lon="8.084865">
|
|
<ele>10.105951</ele>
|
|
<time>2026-07-11T12:44:26.000Z</time>
|
|
</trkpt>
|
|
<trkpt lat="55.557214" lon="8.084813">
|
|
<ele>10.223000</ele>
|
|
<time>2026-07-11T12:44:27.000Z</time>
|
|
</trkpt>
|
|
<trkpt lat="55.557217" lon="8.084753">
|
|
<ele>10.357347</ele>
|
|
<time>2026-07-11T12:44:28.000Z</time>
|
|
</trkpt>
|
|
<trkpt lat="55.557218" lon="8.084707">
|
|
<ele>10.460022</ele>
|
|
<time>2026-07-11T12:44:29.000Z</time>
|
|
</trkpt>
|
|
<trkpt lat="55.557222" lon="8.084655">
|
|
<ele>10.577071</ele>
|
|
<time>2026-07-11T12:44:30.000Z</time>
|
|
</trkpt>
|
|
<trkpt lat="55.557225" lon="8.084604">
|
|
<ele>10.691435</ele>
|
|
<time>2026-07-11T12:44:31.000Z</time>
|
|
</trkpt>
|
|
<trkpt lat="55.557228" lon="8.084551">
|
|
<ele>10.810238</ele>
|
|
<time>2026-07-11T12:44:32.000Z</time>
|
|
</trkpt>
|
|
<trkpt lat="55.557230" lon="8.084503">
|
|
<ele>10.917588</ele>
|
|
<time>2026-07-11T12:44:33.000Z</time>
|
|
</trkpt>
|
|
<trkpt lat="55.557229" lon="8.084453">
|
|
<ele>11.029178</ele>
|
|
<time>2026-07-11T12:44:34.000Z</time>
|
|
</trkpt>
|
|
<trkpt lat="55.557221" lon="8.084409">
|
|
<ele>11.132262</ele>
|
|
<time>2026-07-11T12:44:35.000Z</time>
|
|
</trkpt>
|
|
<trkpt lat="55.557215" lon="8.084370">
|
|
<ele>11.222409</ele>
|
|
<time>2026-07-11T12:44:36.000Z</time>
|
|
</trkpt>
|
|
<trkpt lat="55.557211" lon="8.084333">
|
|
<ele>11.306429</ele>
|
|
<time>2026-07-11T12:44:37.000Z</time>
|
|
</trkpt>
|
|
<trkpt lat="55.557205" lon="8.084288">
|
|
<ele>11.409548</ele>
|
|
<time>2026-07-11T12:44:38.000Z</time>
|
|
</trkpt>
|
|
<trkpt lat="55.557208" lon="8.084259">
|
|
<ele>11.475304</ele>
|
|
<time>2026-07-11T12:44:39.000Z</time>
|
|
</trkpt>
|
|
<trkpt lat="55.557214" lon="8.084245">
|
|
<ele>11.514481</ele>
|
|
<time>2026-07-11T12:44:40.000Z</time>
|
|
</trkpt>
|
|
<trkpt lat="55.557231" lon="8.084210">
|
|
<ele>11.617382</ele>
|
|
<time>2026-07-11T12:44:57.000Z</time>
|
|
</trkpt>
|
|
<trkpt lat="55.557238" lon="8.084199">
|
|
<ele>11.654314</ele>
|
|
<time>2026-07-11T12:44:58.000Z</time>
|
|
</trkpt>
|
|
<trkpt lat="55.557244" lon="8.084189">
|
|
<ele>11.686831</ele>
|
|
<time>2026-07-11T12:44:59.000Z</time>
|
|
</trkpt>
|
|
<trkpt lat="55.557253" lon="8.084175">
|
|
<ele>11.734104</ele>
|
|
<time>2026-07-11T12:45:00.000Z</time>
|
|
</trkpt>
|
|
<trkpt lat="55.557256" lon="8.084165">
|
|
<ele>11.759351</ele>
|
|
<time>2026-07-11T12:45:01.000Z</time>
|
|
</trkpt>
|
|
<trkpt lat="55.557261" lon="8.084156">
|
|
<ele>11.787489</ele>
|
|
<time>2026-07-11T12:45:02.000Z</time>
|
|
</trkpt>
|
|
<trkpt lat="55.557273" lon="8.084145">
|
|
<ele>11.840794</ele>
|
|
<time>2026-07-11T12:45:03.000Z</time>
|
|
</trkpt>
|
|
<trkpt lat="55.557281" lon="8.084135">
|
|
<ele>11.879430</ele>
|
|
<time>2026-07-11T12:45:04.000Z</time>
|
|
</trkpt>
|
|
<trkpt lat="55.557288" lon="8.084126">
|
|
<ele>11.913562</ele>
|
|
<time>2026-07-11T12:45:05.000Z</time>
|
|
</trkpt>
|
|
<trkpt lat="55.557295" lon="8.084119">
|
|
<ele>11.945276</ele>
|
|
<time>2026-07-11T12:45:06.000Z</time>
|
|
</trkpt>
|
|
<trkpt lat="55.557304" lon="8.084104">
|
|
<ele>11.994051</ele>
|
|
<time>2026-07-11T12:45:07.000Z</time>
|
|
</trkpt>
|
|
<trkpt lat="55.557312" lon="8.084092">
|
|
<ele>12.035424</ele>
|
|
<time>2026-07-11T12:45:08.000Z</time>
|
|
</trkpt>
|
|
<trkpt lat="55.557318" lon="8.084082">
|
|
<ele>12.067940</ele>
|
|
<time>2026-07-11T12:45:09.000Z</time>
|
|
</trkpt>
|
|
<trkpt lat="55.557323" lon="8.084075">
|
|
<ele>12.093091</ele>
|
|
<time>2026-07-11T12:45:10.000Z</time>
|
|
</trkpt>
|
|
<trkpt lat="55.557334" lon="8.084059">
|
|
<ele>12.149263</ele>
|
|
<time>2026-07-11T12:45:11.000Z</time>
|
|
</trkpt>
|
|
<trkpt lat="55.557341" lon="8.084050">
|
|
<ele>12.183395</ele>
|
|
<time>2026-07-11T12:45:12.000Z</time>
|
|
</trkpt>
|
|
<trkpt lat="55.557347" lon="8.084043">
|
|
<ele>12.211743</ele>
|
|
<time>2026-07-11T12:45:13.000Z</time>
|
|
</trkpt>
|
|
<trkpt lat="55.557353" lon="8.084029">
|
|
<ele>12.250921</ele>
|
|
<time>2026-07-11T12:45:14.000Z</time>
|
|
</trkpt>
|
|
<trkpt lat="55.557363" lon="8.084019">
|
|
<ele>12.296227</ele>
|
|
<time>2026-07-11T12:45:15.000Z</time>
|
|
</trkpt>
|
|
<trkpt lat="55.557371" lon="8.084011">
|
|
<ele>12.332472</ele>
|
|
<time>2026-07-11T12:45:16.000Z</time>
|
|
</trkpt>
|
|
<trkpt lat="55.557376" lon="8.084006">
|
|
<ele>12.355125</ele>
|
|
<time>2026-07-11T12:45:17.000Z</time>
|
|
</trkpt>
|
|
<trkpt lat="55.557388" lon="8.083987">
|
|
<ele>12.418649</ele>
|
|
<time>2026-07-11T12:45:18.000Z</time>
|
|
</trkpt>
|
|
<trkpt lat="55.557394" lon="8.083976">
|
|
<ele>12.449935</ele>
|
|
<time>2026-07-11T12:45:19.000Z</time>
|
|
</trkpt>
|
|
<trkpt lat="55.557400" lon="8.083968">
|
|
<ele>12.459238</ele>
|
|
<time>2026-07-11T12:45:20.000Z</time>
|
|
</trkpt>
|
|
<trkpt lat="55.557411" lon="8.083952">
|
|
<ele>12.476869</ele>
|
|
<time>2026-07-11T12:45:21.000Z</time>
|
|
</trkpt>
|
|
<trkpt lat="55.557417" lon="8.083944">
|
|
<ele>12.486171</ele>
|
|
<time>2026-07-11T12:45:22.000Z</time>
|
|
</trkpt>
|
|
<trkpt lat="55.557422" lon="8.083938">
|
|
<ele>12.493651</ele>
|
|
<time>2026-07-11T12:45:23.000Z</time>
|
|
</trkpt>
|
|
<trkpt lat="55.557428" lon="8.083925">
|
|
<ele>12.505399</ele>
|
|
<time>2026-07-11T12:45:24.000Z</time>
|
|
</trkpt>
|
|
<trkpt lat="55.557434" lon="8.083916">
|
|
<ele>12.515138</ele>
|
|
<time>2026-07-11T12:45:25.000Z</time>
|
|
</trkpt>
|
|
<trkpt lat="55.557439" lon="8.083910">
|
|
<ele>12.522618</ele>
|
|
<time>2026-07-11T12:45:26.000Z</time>
|
|
</trkpt>
|
|
<trkpt lat="55.557441" lon="8.083906">
|
|
<ele>12.526356</ele>
|
|
<time>2026-07-11T12:45:27.000Z</time>
|
|
</trkpt>
|
|
<trkpt lat="55.557447" lon="8.083898">
|
|
<ele>12.535658</ele>
|
|
<time>2026-07-11T12:45:28.000Z</time>
|
|
</trkpt>
|
|
<trkpt lat="55.557453" lon="8.083891">
|
|
<ele>12.544556</ele>
|
|
<time>2026-07-11T12:45:29.000Z</time>
|
|
</trkpt>
|
|
<trkpt lat="55.557459" lon="8.083885">
|
|
<ele>12.553089</ele>
|
|
<time>2026-07-11T12:45:30.000Z</time>
|
|
</trkpt>
|
|
<trkpt lat="55.557463" lon="8.083880">
|
|
<ele>12.559153</ele>
|
|
<time>2026-07-11T12:45:31.000Z</time>
|
|
</trkpt>
|
|
<trkpt lat="55.557468" lon="8.083877">
|
|
<ele>12.565689</ele>
|
|
<time>2026-07-11T12:45:32.000Z</time>
|
|
</trkpt>
|
|
<trkpt lat="55.557474" lon="8.083869">
|
|
<ele>12.574991</ele>
|
|
<time>2026-07-11T12:45:33.000Z</time>
|
|
</trkpt>
|
|
<trkpt lat="55.557476" lon="8.083863">
|
|
<ele>12.579867</ele>
|
|
<time>2026-07-11T12:45:34.000Z</time>
|
|
</trkpt>
|
|
<trkpt lat="55.557476" lon="8.083861">
|
|
<ele>12.581267</ele>
|
|
<time>2026-07-11T12:45:35.000Z</time>
|
|
</trkpt>
|
|
<trkpt lat="55.557476" lon="8.083860">
|
|
<ele>12.581967</ele>
|
|
<time>2026-07-11T12:45:36.000Z</time>
|
|
</trkpt>
|
|
<trkpt lat="55.557459" lon="8.083853">
|
|
<ele>12.603573</ele>
|
|
<time>2026-07-11T12:46:18.000Z</time>
|
|
</trkpt>
|
|
<trkpt lat="55.557454" lon="8.083860">
|
|
<ele>12.611468</ele>
|
|
<time>2026-07-11T12:46:19.000Z</time>
|
|
</trkpt>
|
|
<trkpt lat="55.557446" lon="8.083873">
|
|
<ele>12.624917</ele>
|
|
<time>2026-07-11T12:46:20.000Z</time>
|
|
</trkpt>
|
|
<trkpt lat="55.557435" lon="8.083895">
|
|
<ele>12.645475</ele>
|
|
<time>2026-07-11T12:46:21.000Z</time>
|
|
</trkpt>
|
|
<trkpt lat="55.557428" lon="8.083907">
|
|
<ele>12.657544</ele>
|
|
<time>2026-07-11T12:46:22.000Z</time>
|
|
</trkpt>
|
|
<trkpt lat="55.557423" lon="8.083915">
|
|
<ele>12.665891</ele>
|
|
<time>2026-07-11T12:46:23.000Z</time>
|
|
</trkpt>
|
|
<trkpt lat="55.557412" lon="8.083933">
|
|
<ele>12.684444</ele>
|
|
<time>2026-07-11T12:46:24.000Z</time>
|
|
</trkpt>
|
|
<trkpt lat="55.557405" lon="8.083941">
|
|
<ele>12.694762</ele>
|
|
<time>2026-07-11T12:46:25.000Z</time>
|
|
</trkpt>
|
|
<trkpt lat="55.557400" lon="8.083948">
|
|
<ele>12.702656</ele>
|
|
<time>2026-07-11T12:46:26.000Z</time>
|
|
</trkpt>
|
|
<trkpt lat="55.557385" lon="8.083965">
|
|
<ele>12.724711</ele>
|
|
<time>2026-07-11T12:46:27.000Z</time>
|
|
</trkpt>
|
|
<trkpt lat="55.557377" lon="8.083977">
|
|
<ele>12.737697</ele>
|
|
<time>2026-07-11T12:46:28.000Z</time>
|
|
</trkpt>
|
|
<trkpt lat="55.557370" lon="8.083986">
|
|
<ele>12.748410</ele>
|
|
<time>2026-07-11T12:46:29.000Z</time>
|
|
</trkpt>
|
|
<trkpt lat="55.557354" lon="8.084008">
|
|
<ele>12.773500</ele>
|
|
<time>2026-07-11T12:46:30.000Z</time>
|
|
</trkpt>
|
|
<trkpt lat="55.557347" lon="8.084021">
|
|
<ele>12.786066</ele>
|
|
<time>2026-07-11T12:46:31.000Z</time>
|
|
</trkpt>
|
|
<trkpt lat="55.557340" lon="8.084031">
|
|
<ele>12.797206</ele>
|
|
<time>2026-07-11T12:46:32.000Z</time>
|
|
</trkpt>
|
|
<trkpt lat="55.557330" lon="8.084050">
|
|
<ele>12.815376</ele>
|
|
<time>2026-07-11T12:46:33.000Z</time>
|
|
</trkpt>
|
|
<trkpt lat="55.557321" lon="8.084060">
|
|
<ele>12.828534</ele>
|
|
<time>2026-07-11T12:46:34.000Z</time>
|
|
</trkpt>
|
|
<trkpt lat="55.557317" lon="8.084066">
|
|
<ele>12.835027</ele>
|
|
<time>2026-07-11T12:46:35.000Z</time>
|
|
</trkpt>
|
|
<trkpt lat="55.557305" lon="8.084081">
|
|
<ele>12.853219</ele>
|
|
<time>2026-07-11T12:46:36.000Z</time>
|
|
</trkpt>
|
|
<trkpt lat="55.557299" lon="8.084090">
|
|
<ele>12.862958</ele>
|
|
<time>2026-07-11T12:46:37.000Z</time>
|
|
</trkpt>
|
|
<trkpt lat="55.557297" lon="8.084097">
|
|
<ele>12.868449</ele>
|
|
<time>2026-07-11T12:46:38.000Z</time>
|
|
</trkpt>
|
|
<trkpt lat="55.557286" lon="8.084111">
|
|
<ele>12.885226</ele>
|
|
<time>2026-07-11T12:46:39.000Z</time>
|
|
</trkpt>
|
|
<trkpt lat="55.557278" lon="8.084120">
|
|
<ele>12.896963</ele>
|
|
<time>2026-07-11T12:46:40.000Z</time>
|
|
</trkpt>
|
|
<trkpt lat="55.557270" lon="8.084126">
|
|
<ele>12.907720</ele>
|
|
<time>2026-07-11T12:46:41.000Z</time>
|
|
</trkpt>
|
|
<trkpt lat="55.557263" lon="8.084145">
|
|
<ele>12.923595</ele>
|
|
<time>2026-07-11T12:46:42.000Z</time>
|
|
</trkpt>
|
|
<trkpt lat="55.557257" lon="8.084155">
|
|
<ele>12.933802</ele>
|
|
<time>2026-07-11T12:46:43.000Z</time>
|
|
</trkpt>
|
|
<trkpt lat="55.557252" lon="8.084163">
|
|
<ele>12.942149</ele>
|
|
<time>2026-07-11T12:46:44.000Z</time>
|
|
</trkpt>
|
|
<trkpt lat="55.557242" lon="8.084187">
|
|
<ele>12.963019</ele>
|
|
<time>2026-07-11T12:46:45.000Z</time>
|
|
</trkpt>
|
|
<trkpt lat="55.557238" lon="8.084200">
|
|
<ele>12.973380</ele>
|
|
<time>2026-07-11T12:46:46.000Z</time>
|
|
</trkpt>
|
|
<trkpt lat="55.557236" lon="8.084211">
|
|
<ele>12.981469</ele>
|
|
<time>2026-07-11T12:46:47.000Z</time>
|
|
</trkpt>
|
|
<trkpt lat="55.557229" lon="8.084231">
|
|
<ele>12.997935</ele>
|
|
<time>2026-07-11T12:46:48.000Z</time>
|
|
</trkpt>
|
|
<trkpt lat="55.557223" lon="8.084244">
|
|
<ele>13.009682</ele>
|
|
<time>2026-07-11T12:46:49.000Z</time>
|
|
</trkpt>
|
|
<trkpt lat="55.557219" lon="8.084253">
|
|
<ele>13.017696</ele>
|
|
<time>2026-07-11T12:46:50.000Z</time>
|
|
</trkpt>
|
|
<trkpt lat="55.557207" lon="8.084277">
|
|
<ele>13.040122</ele>
|
|
<time>2026-07-11T12:46:51.000Z</time>
|
|
</trkpt>
|
|
<trkpt lat="55.557203" lon="8.084288">
|
|
<ele>13.049278</ele>
|
|
<time>2026-07-11T12:46:52.000Z</time>
|
|
</trkpt>
|
|
<trkpt lat="55.557198" lon="8.084295">
|
|
<ele>13.057172</ele>
|
|
<time>2026-07-11T12:46:53.000Z</time>
|
|
</trkpt>
|
|
<trkpt lat="55.557183" lon="8.084305">
|
|
<ele>13.077016</ele>
|
|
<time>2026-07-11T12:46:54.000Z</time>
|
|
</trkpt>
|
|
<trkpt lat="55.557176" lon="8.084309">
|
|
<ele>13.086122</ele>
|
|
<time>2026-07-11T12:46:55.000Z</time>
|
|
</trkpt>
|
|
<trkpt lat="55.557169" lon="8.084309">
|
|
<ele>13.094787</ele>
|
|
<time>2026-07-11T12:46:56.000Z</time>
|
|
</trkpt>
|
|
<trkpt lat="55.557152" lon="8.084300">
|
|
<ele>13.116753</ele>
|
|
<time>2026-07-11T12:46:57.000Z</time>
|
|
</trkpt>
|
|
<trkpt lat="55.557146" lon="8.084292">
|
|
<ele>13.126056</ele>
|
|
<time>2026-07-11T12:46:58.000Z</time>
|
|
</trkpt>
|
|
<trkpt lat="55.557141" lon="8.084286">
|
|
<ele>13.133536</ele>
|
|
<time>2026-07-11T12:46:59.000Z</time>
|
|
</trkpt>
|
|
<trkpt lat="55.557135" lon="8.084268">
|
|
<ele>13.148163</ele>
|
|
<time>2026-07-11T12:47:00.000Z</time>
|
|
</trkpt>
|
|
<trkpt lat="55.557131" lon="8.084261">
|
|
<ele>13.155130</ele>
|
|
<time>2026-07-11T12:47:01.000Z</time>
|
|
</trkpt>
|
|
<trkpt lat="55.557129" lon="8.084259">
|
|
<ele>13.157974</ele>
|
|
<time>2026-07-11T12:47:02.000Z</time>
|
|
</trkpt>
|
|
<trkpt lat="55.557129" lon="8.084260">
|
|
<ele>13.158674</ele>
|
|
<time>2026-07-11T12:47:03.000Z</time>
|
|
</trkpt>
|
|
<trkpt lat="55.557129" lon="8.084260">
|
|
<ele>13.158674</ele>
|
|
<time>2026-07-11T12:47:04.000Z</time>
|
|
</trkpt>
|
|
<trkpt lat="55.557126" lon="8.084252">
|
|
<ele>13.165394</ele>
|
|
<time>2026-07-11T12:47:43.000Z</time>
|
|
</trkpt>
|
|
<trkpt lat="55.557118" lon="8.084233">
|
|
<ele>13.181977</ele>
|
|
<time>2026-07-11T12:47:44.000Z</time>
|
|
</trkpt>
|
|
<trkpt lat="55.557112" lon="8.084215">
|
|
<ele>13.196605</ele>
|
|
<time>2026-07-11T12:47:45.000Z</time>
|
|
</trkpt>
|
|
<trkpt lat="55.557110" lon="8.084198">
|
|
<ele>13.208762</ele>
|
|
<time>2026-07-11T12:47:46.000Z</time>
|
|
</trkpt>
|
|
<trkpt lat="55.557108" lon="8.084183">
|
|
<ele>13.219551</ele>
|
|
<time>2026-07-11T12:47:47.000Z</time>
|
|
</trkpt>
|
|
<trkpt lat="55.557104" lon="8.084169">
|
|
<ele>13.230532</ele>
|
|
<time>2026-07-11T12:47:48.000Z</time>
|
|
</trkpt>
|
|
<trkpt lat="55.557101" lon="8.084153">
|
|
<ele>13.242333</ele>
|
|
<time>2026-07-11T12:47:49.000Z</time>
|
|
</trkpt>
|
|
<trkpt lat="55.557098" lon="8.084137">
|
|
<ele>13.254134</ele>
|
|
<time>2026-07-11T12:47:50.000Z</time>
|
|
</trkpt>
|
|
<trkpt lat="55.557097" lon="8.084124">
|
|
<ele>13.263319</ele>
|
|
<time>2026-07-11T12:47:51.000Z</time>
|
|
</trkpt>
|
|
<trkpt lat="55.557092" lon="8.084112">
|
|
<ele>13.273754</ele>
|
|
<time>2026-07-11T12:47:52.000Z</time>
|
|
</trkpt>
|
|
<trkpt lat="55.557084" lon="8.084099">
|
|
<ele>13.287204</ele>
|
|
<time>2026-07-11T12:47:53.000Z</time>
|
|
</trkpt>
|
|
<trkpt lat="55.557076" lon="8.084083">
|
|
<ele>13.302155</ele>
|
|
<time>2026-07-11T12:47:54.000Z</time>
|
|
</trkpt>
|
|
<trkpt lat="55.557068" lon="8.084066">
|
|
<ele>13.317638</ele>
|
|
<time>2026-07-11T12:47:55.000Z</time>
|
|
</trkpt>
|
|
<trkpt lat="55.557062" lon="8.084049">
|
|
<ele>13.331667</ele>
|
|
<time>2026-07-11T12:47:56.000Z</time>
|
|
</trkpt>
|
|
<trkpt lat="55.557059" lon="8.084031">
|
|
<ele>13.344805</ele>
|
|
<time>2026-07-11T12:47:57.000Z</time>
|
|
</trkpt>
|
|
<trkpt lat="55.557055" lon="8.084011">
|
|
<ele>13.359656</ele>
|
|
<time>2026-07-11T12:47:58.000Z</time>
|
|
</trkpt>
|
|
<trkpt lat="55.557049" lon="8.083990">
|
|
<ele>13.376128</ele>
|
|
<time>2026-07-11T12:47:59.000Z</time>
|
|
</trkpt>
|
|
<trkpt lat="55.557043" lon="8.083972">
|
|
<ele>13.390756</ele>
|
|
<time>2026-07-11T12:48:00.000Z</time>
|
|
</trkpt>
|
|
<trkpt lat="55.557038" lon="8.083954">
|
|
<ele>13.404795</ele>
|
|
<time>2026-07-11T12:48:01.000Z</time>
|
|
</trkpt>
|
|
<trkpt lat="55.557034" lon="8.083934">
|
|
<ele>13.419647</ele>
|
|
<time>2026-07-11T12:48:02.000Z</time>
|
|
</trkpt>
|
|
<trkpt lat="55.557030" lon="8.083915">
|
|
<ele>13.433841</ele>
|
|
<time>2026-07-11T12:48:03.000Z</time>
|
|
</trkpt>
|
|
<trkpt lat="55.557024" lon="8.083896">
|
|
<ele>13.449076</ele>
|
|
<time>2026-07-11T12:48:04.000Z</time>
|
|
</trkpt>
|
|
<trkpt lat="55.557020" lon="8.083876">
|
|
<ele>13.463927</ele>
|
|
<time>2026-07-11T12:48:05.000Z</time>
|
|
</trkpt>
|
|
<trkpt lat="55.557018" lon="8.083857">
|
|
<ele>13.477458</ele>
|
|
<time>2026-07-11T12:48:06.000Z</time>
|
|
</trkpt>
|
|
<trkpt lat="55.557015" lon="8.083839">
|
|
<ele>13.490595</ele>
|
|
<time>2026-07-11T12:48:07.000Z</time>
|
|
</trkpt>
|
|
<trkpt lat="55.557009" lon="8.083821">
|
|
<ele>13.505223</ele>
|
|
<time>2026-07-11T12:48:08.000Z</time>
|
|
</trkpt>
|
|
<trkpt lat="55.557005" lon="8.083801">
|
|
<ele>13.520075</ele>
|
|
<time>2026-07-11T12:48:09.000Z</time>
|
|
</trkpt>
|
|
<trkpt lat="55.557001" lon="8.083783">
|
|
<ele>13.533615</ele>
|
|
<time>2026-07-11T12:48:10.000Z</time>
|
|
</trkpt>
|
|
<trkpt lat="55.556998" lon="8.083766">
|
|
<ele>13.546082</ele>
|
|
<time>2026-07-11T12:48:11.000Z</time>
|
|
</trkpt>
|
|
<trkpt lat="55.556994" lon="8.083749">
|
|
<ele>13.558973</ele>
|
|
<time>2026-07-11T12:48:12.000Z</time>
|
|
</trkpt>
|
|
<trkpt lat="55.556988" lon="8.083731">
|
|
<ele>13.573600</ele>
|
|
<time>2026-07-11T12:48:13.000Z</time>
|
|
</trkpt>
|
|
<trkpt lat="55.556982" lon="8.083712">
|
|
<ele>13.588835</ele>
|
|
<time>2026-07-11T12:48:14.000Z</time>
|
|
</trkpt>
|
|
<trkpt lat="55.556978" lon="8.083694">
|
|
<ele>13.602375</ele>
|
|
<time>2026-07-11T12:48:15.000Z</time>
|
|
</trkpt>
|
|
<trkpt lat="55.556975" lon="8.083677">
|
|
<ele>13.614843</ele>
|
|
<time>2026-07-11T12:48:16.000Z</time>
|
|
</trkpt>
|
|
<trkpt lat="55.556971" lon="8.083661">
|
|
<ele>13.627090</ele>
|
|
<time>2026-07-11T12:48:17.000Z</time>
|
|
</trkpt>
|
|
<trkpt lat="55.556967" lon="8.083645">
|
|
<ele>13.639337</ele>
|
|
<time>2026-07-11T12:48:18.000Z</time>
|
|
</trkpt>
|
|
<trkpt lat="55.556963" lon="8.083629">
|
|
<ele>13.651584</ele>
|
|
<time>2026-07-11T12:48:19.000Z</time>
|
|
</trkpt>
|
|
<trkpt lat="55.556959" lon="8.083614">
|
|
<ele>13.663195</ele>
|
|
<time>2026-07-11T12:48:20.000Z</time>
|
|
</trkpt>
|
|
<trkpt lat="55.556957" lon="8.083602">
|
|
<ele>13.671953</ele>
|
|
<time>2026-07-11T12:48:21.000Z</time>
|
|
</trkpt>
|
|
<trkpt lat="55.556956" lon="8.083592">
|
|
<ele>13.679063</ele>
|
|
<time>2026-07-11T12:48:22.000Z</time>
|
|
</trkpt>
|
|
<trkpt lat="55.556952" lon="8.083582">
|
|
<ele>13.687638</ele>
|
|
<time>2026-07-11T12:48:23.000Z</time>
|
|
</trkpt>
|
|
<trkpt lat="55.556950" lon="8.083572">
|
|
<ele>13.695064</ele>
|
|
<time>2026-07-11T12:48:24.000Z</time>
|
|
</trkpt>
|
|
<trkpt lat="55.556950" lon="8.083560">
|
|
<ele>13.703465</ele>
|
|
<time>2026-07-11T12:48:25.000Z</time>
|
|
</trkpt>
|
|
<trkpt lat="55.556955" lon="8.083571">
|
|
<ele>13.713345</ele>
|
|
<time>2026-07-11T12:48:33.000Z</time>
|
|
</trkpt>
|
|
<trkpt lat="55.556959" lon="8.083588">
|
|
<ele>13.726235</ele>
|
|
<time>2026-07-11T12:48:34.000Z</time>
|
|
</trkpt>
|
|
<trkpt lat="55.556963" lon="8.083606">
|
|
<ele>13.739775</ele>
|
|
<time>2026-07-11T12:48:35.000Z</time>
|
|
</trkpt>
|
|
<trkpt lat="55.556965" lon="8.083628">
|
|
<ele>13.755375</ele>
|
|
<time>2026-07-11T12:48:36.000Z</time>
|
|
</trkpt>
|
|
<trkpt lat="55.556967" lon="8.083649">
|
|
<ele>13.770284</ele>
|
|
<time>2026-07-11T12:48:37.000Z</time>
|
|
</trkpt>
|
|
<trkpt lat="55.556970" lon="8.083667">
|
|
<ele>13.783422</ele>
|
|
<time>2026-07-11T12:48:38.000Z</time>
|
|
</trkpt>
|
|
<trkpt lat="55.556974" lon="8.083683">
|
|
<ele>13.795669</ele>
|
|
<time>2026-07-11T12:48:39.000Z</time>
|
|
</trkpt>
|
|
<trkpt lat="55.556978" lon="8.083699">
|
|
<ele>13.807916</ele>
|
|
<time>2026-07-11T12:48:40.000Z</time>
|
|
</trkpt>
|
|
<trkpt lat="55.556982" lon="8.083715">
|
|
<ele>13.820163</ele>
|
|
<time>2026-07-11T12:48:41.000Z</time>
|
|
</trkpt>
|
|
<trkpt lat="55.556986" lon="8.083731">
|
|
<ele>13.832411</ele>
|
|
<time>2026-07-11T12:48:42.000Z</time>
|
|
</trkpt>
|
|
<trkpt lat="55.556989" lon="8.083746">
|
|
<ele>13.843549</ele>
|
|
<time>2026-07-11T12:48:43.000Z</time>
|
|
</trkpt>
|
|
<trkpt lat="55.556993" lon="8.083761">
|
|
<ele>13.855160</ele>
|
|
<time>2026-07-11T12:48:44.000Z</time>
|
|
</trkpt>
|
|
<trkpt lat="55.556997" lon="8.083777">
|
|
<ele>13.867407</ele>
|
|
<time>2026-07-11T12:48:45.000Z</time>
|
|
</trkpt>
|
|
<trkpt lat="55.557003" lon="8.083794">
|
|
<ele>13.881436</ele>
|
|
<time>2026-07-11T12:48:46.000Z</time>
|
|
</trkpt>
|
|
<trkpt lat="55.557007" lon="8.083810">
|
|
<ele>13.893683</ele>
|
|
<time>2026-07-11T12:48:47.000Z</time>
|
|
</trkpt>
|
|
<trkpt lat="55.557009" lon="8.083825">
|
|
<ele>13.904472</ele>
|
|
<time>2026-07-11T12:48:48.000Z</time>
|
|
</trkpt>
|
|
<trkpt lat="55.557016" lon="8.083843">
|
|
<ele>13.919766</ele>
|
|
<time>2026-07-11T12:48:49.000Z</time>
|
|
</trkpt>
|
|
<trkpt lat="55.557022" lon="8.083862">
|
|
<ele>13.935001</ele>
|
|
<time>2026-07-11T12:48:50.000Z</time>
|
|
</trkpt>
|
|
<trkpt lat="55.557028" lon="8.083880">
|
|
<ele>13.949628</ele>
|
|
<time>2026-07-11T12:48:51.000Z</time>
|
|
</trkpt>
|
|
<trkpt lat="55.557031" lon="8.083898">
|
|
<ele>13.962766</ele>
|
|
<time>2026-07-11T12:48:52.000Z</time>
|
|
</trkpt>
|
|
<trkpt lat="55.557037" lon="8.083915">
|
|
<ele>13.976795</ele>
|
|
<time>2026-07-11T12:48:53.000Z</time>
|
|
</trkpt>
|
|
<trkpt lat="55.557043" lon="8.083937">
|
|
<ele>13.993894</ele>
|
|
<time>2026-07-11T12:48:54.000Z</time>
|
|
</trkpt>
|
|
<trkpt lat="55.557045" lon="8.083961">
|
|
<ele>14.010878</ele>
|
|
<time>2026-07-11T12:48:55.000Z</time>
|
|
</trkpt>
|
|
<trkpt lat="55.557047" lon="8.083985">
|
|
<ele>14.027862</ele>
|
|
<time>2026-07-11T12:48:56.000Z</time>
|
|
</trkpt>
|
|
<trkpt lat="55.557050" lon="8.084007">
|
|
<ele>14.043706</ele>
|
|
<time>2026-07-11T12:48:57.000Z</time>
|
|
</trkpt>
|
|
<trkpt lat="55.557053" lon="8.084024">
|
|
<ele>14.056173</ele>
|
|
<time>2026-07-11T12:48:58.000Z</time>
|
|
</trkpt>
|
|
<trkpt lat="55.557053" lon="8.084040">
|
|
<ele>14.067375</ele>
|
|
<time>2026-07-11T12:48:59.000Z</time>
|
|
</trkpt>
|
|
<trkpt lat="55.557051" lon="8.084060">
|
|
<ele>14.081594</ele>
|
|
<time>2026-07-11T12:49:00.000Z</time>
|
|
</trkpt>
|
|
<trkpt lat="55.557047" lon="8.084082">
|
|
<ele>14.097773</ele>
|
|
<time>2026-07-11T12:49:01.000Z</time>
|
|
</trkpt>
|
|
<trkpt lat="55.557042" lon="8.084101">
|
|
<ele>14.112444</ele>
|
|
<time>2026-07-11T12:49:02.000Z</time>
|
|
</trkpt>
|
|
<trkpt lat="55.557036" lon="8.084117">
|
|
<ele>14.125884</ele>
|
|
<time>2026-07-11T12:49:03.000Z</time>
|
|
</trkpt>
|
|
<trkpt lat="55.557030" lon="8.084129">
|
|
<ele>14.137098</ele>
|
|
<time>2026-07-11T12:49:04.000Z</time>
|
|
</trkpt>
|
|
<trkpt lat="55.557021" lon="8.084138">
|
|
<ele>14.149897</ele>
|
|
<time>2026-07-11T12:49:05.000Z</time>
|
|
</trkpt>
|
|
<trkpt lat="55.557010" lon="8.084144">
|
|
<ele>14.164146</ele>
|
|
<time>2026-07-11T12:49:06.000Z</time>
|
|
</trkpt>
|
|
<trkpt lat="55.557001" lon="8.084151">
|
|
<ele>14.176317</ele>
|
|
<time>2026-07-11T12:49:07.000Z</time>
|
|
</trkpt>
|
|
<trkpt lat="55.556997" lon="8.084159">
|
|
<ele>14.183793</ele>
|
|
<time>2026-07-11T12:49:08.000Z</time>
|
|
</trkpt>
|
|
<trkpt lat="55.556997" lon="8.084165">
|
|
<ele>14.187993</ele>
|
|
<time>2026-07-11T12:49:09.000Z</time>
|
|
</trkpt>
|
|
<trkpt lat="55.556999" lon="8.084167">
|
|
<ele>14.190838</ele>
|
|
<time>2026-07-11T12:49:10.000Z</time>
|
|
</trkpt>
|
|
<trkpt lat="55.556998" lon="8.084169">
|
|
<ele>14.192707</ele>
|
|
<time>2026-07-11T12:49:11.000Z</time>
|
|
</trkpt>
|
|
<trkpt lat="55.557028" lon="8.083980">
|
|
<ele>14.330138</ele>
|
|
<time>2026-07-11T12:53:02.000Z</time>
|
|
</trkpt>
|
|
<trkpt lat="55.557026" lon="8.083959">
|
|
<ele>14.345048</ele>
|
|
<time>2026-07-11T12:53:03.000Z</time>
|
|
</trkpt>
|
|
<trkpt lat="55.557024" lon="8.083935">
|
|
<ele>14.362031</ele>
|
|
<time>2026-07-11T12:53:04.000Z</time>
|
|
</trkpt>
|
|
<trkpt lat="55.557020" lon="8.083917">
|
|
<ele>14.375571</ele>
|
|
<time>2026-07-11T12:53:05.000Z</time>
|
|
</trkpt>
|
|
<trkpt lat="55.557018" lon="8.083899">
|
|
<ele>14.388414</ele>
|
|
<time>2026-07-11T12:53:06.000Z</time>
|
|
</trkpt>
|
|
<trkpt lat="55.557017" lon="8.083880">
|
|
<ele>14.401773</ele>
|
|
<time>2026-07-11T12:53:07.000Z</time>
|
|
</trkpt>
|
|
<trkpt lat="55.557013" lon="8.083863">
|
|
<ele>14.414664</ele>
|
|
<time>2026-07-11T12:53:08.000Z</time>
|
|
</trkpt>
|
|
<trkpt lat="55.557011" lon="8.083846">
|
|
<ele>14.426820</ele>
|
|
<time>2026-07-11T12:53:09.000Z</time>
|
|
</trkpt>
|
|
<trkpt lat="55.557011" lon="8.083828">
|
|
<ele>14.439422</ele>
|
|
<time>2026-07-11T12:53:10.000Z</time>
|
|
</trkpt>
|
|
<trkpt lat="55.557009" lon="8.083811">
|
|
<ele>14.451579</ele>
|
|
<time>2026-07-11T12:53:11.000Z</time>
|
|
</trkpt>
|
|
<trkpt lat="55.557007" lon="8.083795">
|
|
<ele>14.463051</ele>
|
|
<time>2026-07-11T12:53:12.000Z</time>
|
|
</trkpt>
|
|
<trkpt lat="55.557007" lon="8.083774">
|
|
<ele>14.477753</ele>
|
|
<time>2026-07-11T12:53:13.000Z</time>
|
|
</trkpt>
|
|
<trkpt lat="55.557004" lon="8.083758">
|
|
<ele>14.489554</ele>
|
|
<time>2026-07-11T12:53:14.000Z</time>
|
|
</trkpt>
|
|
<trkpt lat="55.556999" lon="8.083742">
|
|
<ele>14.502352</ele>
|
|
<time>2026-07-11T12:53:15.000Z</time>
|
|
</trkpt>
|
|
<trkpt lat="55.556997" lon="8.083728">
|
|
<ele>14.512461</ele>
|
|
<time>2026-07-11T12:53:16.000Z</time>
|
|
</trkpt>
|
|
<trkpt lat="55.556995" lon="8.083717">
|
|
<ele>14.520550</ele>
|
|
<time>2026-07-11T12:53:17.000Z</time>
|
|
</trkpt>
|
|
<trkpt lat="55.556994" lon="8.083704">
|
|
<ele>14.529736</ele>
|
|
<time>2026-07-11T12:53:18.000Z</time>
|
|
</trkpt>
|
|
<trkpt lat="55.556990" lon="8.083691">
|
|
<ele>14.540097</ele>
|
|
<time>2026-07-11T12:53:19.000Z</time>
|
|
</trkpt>
|
|
<trkpt lat="55.556986" lon="8.083677">
|
|
<ele>14.551078</ele>
|
|
<time>2026-07-11T12:53:20.000Z</time>
|
|
</trkpt>
|
|
<trkpt lat="55.556982" lon="8.083665">
|
|
<ele>14.560830</ele>
|
|
<time>2026-07-11T12:53:21.000Z</time>
|
|
</trkpt>
|
|
<trkpt lat="55.556980" lon="8.083653">
|
|
<ele>14.569588</ele>
|
|
<time>2026-07-11T12:53:22.000Z</time>
|
|
</trkpt>
|
|
<trkpt lat="55.556980" lon="8.083638">
|
|
<ele>14.580089</ele>
|
|
<time>2026-07-11T12:53:23.000Z</time>
|
|
</trkpt>
|
|
<trkpt lat="55.556980" lon="8.083623">
|
|
<ele>14.590591</ele>
|
|
<time>2026-07-11T12:53:24.000Z</time>
|
|
</trkpt>
|
|
<trkpt lat="55.556980" lon="8.083608">
|
|
<ele>14.601093</ele>
|
|
<time>2026-07-11T12:53:25.000Z</time>
|
|
</trkpt>
|
|
<trkpt lat="55.556982" lon="8.083591">
|
|
<ele>14.613249</ele>
|
|
<time>2026-07-11T12:53:26.000Z</time>
|
|
</trkpt>
|
|
<trkpt lat="55.556984" lon="8.083575">
|
|
<ele>14.624721</ele>
|
|
<time>2026-07-11T12:53:27.000Z</time>
|
|
</trkpt>
|
|
<trkpt lat="55.556984" lon="8.083560">
|
|
<ele>14.635223</ele>
|
|
<time>2026-07-11T12:53:28.000Z</time>
|
|
</trkpt>
|
|
<trkpt lat="55.556984" lon="8.083545">
|
|
<ele>14.645724</ele>
|
|
<time>2026-07-11T12:53:29.000Z</time>
|
|
</trkpt>
|
|
<trkpt lat="55.556982" lon="8.083530">
|
|
<ele>14.656514</ele>
|
|
<time>2026-07-11T12:53:30.000Z</time>
|
|
</trkpt>
|
|
<trkpt lat="55.556980" lon="8.083516">
|
|
<ele>14.666623</ele>
|
|
<time>2026-07-11T12:53:31.000Z</time>
|
|
</trkpt>
|
|
<trkpt lat="55.556980" lon="8.083503">
|
|
<ele>14.674079</ele>
|
|
<time>2026-07-11T12:53:32.000Z</time>
|
|
</trkpt>
|
|
<trkpt lat="55.556979" lon="8.083490">
|
|
<ele>14.659647</ele>
|
|
<time>2026-07-11T12:53:33.000Z</time>
|
|
</trkpt>
|
|
<trkpt lat="55.556976" lon="8.083475">
|
|
<ele>14.642144</ele>
|
|
<time>2026-07-11T12:53:34.000Z</time>
|
|
</trkpt>
|
|
<trkpt lat="55.556976" lon="8.083456">
|
|
<ele>14.621243</ele>
|
|
<time>2026-07-11T12:53:35.000Z</time>
|
|
</trkpt>
|
|
<trkpt lat="55.556975" lon="8.083441">
|
|
<ele>14.604627</ele>
|
|
<time>2026-07-11T12:53:36.000Z</time>
|
|
</trkpt>
|
|
<trkpt lat="55.556971" lon="8.083430">
|
|
<ele>14.590241</ele>
|
|
<time>2026-07-11T12:53:37.000Z</time>
|
|
</trkpt>
|
|
<trkpt lat="55.556967" lon="8.083419">
|
|
<ele>14.575855</ele>
|
|
<time>2026-07-11T12:53:38.000Z</time>
|
|
</trkpt>
|
|
<trkpt lat="55.556965" lon="8.083407">
|
|
<ele>14.562093</ele>
|
|
<time>2026-07-11T12:53:39.000Z</time>
|
|
</trkpt>
|
|
<trkpt lat="55.556965" lon="8.083395">
|
|
<ele>14.548892</ele>
|
|
<time>2026-07-11T12:53:40.000Z</time>
|
|
</trkpt>
|
|
<trkpt lat="55.556964" lon="8.083382">
|
|
<ele>14.534459</ele>
|
|
<time>2026-07-11T12:53:41.000Z</time>
|
|
</trkpt>
|
|
<trkpt lat="55.556963" lon="8.083367">
|
|
<ele>14.517843</ele>
|
|
<time>2026-07-11T12:53:42.000Z</time>
|
|
</trkpt>
|
|
<trkpt lat="55.556965" lon="8.083350">
|
|
<ele>14.498742</ele>
|
|
<time>2026-07-11T12:53:43.000Z</time>
|
|
</trkpt>
|
|
<trkpt lat="55.556963" lon="8.083336">
|
|
<ele>14.482857</ele>
|
|
<time>2026-07-11T12:53:44.000Z</time>
|
|
</trkpt>
|
|
<trkpt lat="55.556961" lon="8.083323">
|
|
<ele>14.468036</ele>
|
|
<time>2026-07-11T12:53:45.000Z</time>
|
|
</trkpt>
|
|
<trkpt lat="55.556961" lon="8.083307">
|
|
<ele>14.450435</ele>
|
|
<time>2026-07-11T12:53:46.000Z</time>
|
|
</trkpt>
|
|
<trkpt lat="55.556961" lon="8.083290">
|
|
<ele>14.431733</ele>
|
|
<time>2026-07-11T12:53:47.000Z</time>
|
|
</trkpt>
|
|
<trkpt lat="55.556961" lon="8.083278">
|
|
<ele>14.418532</ele>
|
|
<time>2026-07-11T12:53:48.000Z</time>
|
|
</trkpt>
|
|
<trkpt lat="55.556961" lon="8.083269">
|
|
<ele>14.408632</ele>
|
|
<time>2026-07-11T12:53:49.000Z</time>
|
|
</trkpt>
|
|
<trkpt lat="55.556959" lon="8.083257">
|
|
<ele>14.394869</ele>
|
|
<time>2026-07-11T12:53:50.000Z</time>
|
|
</trkpt>
|
|
<trkpt lat="55.556957" lon="8.083244">
|
|
<ele>14.380049</ele>
|
|
<time>2026-07-11T12:53:51.000Z</time>
|
|
</trkpt>
|
|
<trkpt lat="55.556956" lon="8.083230">
|
|
<ele>14.364525</ele>
|
|
<time>2026-07-11T12:53:52.000Z</time>
|
|
</trkpt>
|
|
<trkpt lat="55.556953" lon="8.083216">
|
|
<ele>14.348056</ele>
|
|
<time>2026-07-11T12:53:53.000Z</time>
|
|
</trkpt>
|
|
<trkpt lat="55.556953" lon="8.083205">
|
|
<ele>14.335955</ele>
|
|
<time>2026-07-11T12:53:54.000Z</time>
|
|
</trkpt>
|
|
<trkpt lat="55.556953" lon="8.083193">
|
|
<ele>14.322754</ele>
|
|
<time>2026-07-11T12:53:55.000Z</time>
|
|
</trkpt>
|
|
<trkpt lat="55.556955" lon="8.083180">
|
|
<ele>14.307933</ele>
|
|
<time>2026-07-11T12:53:56.000Z</time>
|
|
</trkpt>
|
|
<trkpt lat="55.556956" lon="8.083167">
|
|
<ele>14.293500</ele>
|
|
<time>2026-07-11T12:53:57.000Z</time>
|
|
</trkpt>
|
|
<trkpt lat="55.556952" lon="8.083152">
|
|
<ele>14.275257</ele>
|
|
<time>2026-07-11T12:53:58.000Z</time>
|
|
</trkpt>
|
|
<trkpt lat="55.556951" lon="8.083133">
|
|
<ele>14.254265</ele>
|
|
<time>2026-07-11T12:53:59.000Z</time>
|
|
</trkpt>
|
|
<trkpt lat="55.556953" lon="8.083116">
|
|
<ele>14.235164</ele>
|
|
<time>2026-07-11T12:54:00.000Z</time>
|
|
</trkpt>
|
|
<trkpt lat="55.556953" lon="8.083099">
|
|
<ele>14.216462</ele>
|
|
<time>2026-07-11T12:54:01.000Z</time>
|
|
</trkpt>
|
|
<trkpt lat="55.556952" lon="8.083081">
|
|
<ele>14.196565</ele>
|
|
<time>2026-07-11T12:54:02.000Z</time>
|
|
</trkpt>
|
|
<trkpt lat="55.556950" lon="8.083065">
|
|
<ele>14.178539</ele>
|
|
<time>2026-07-11T12:54:03.000Z</time>
|
|
</trkpt>
|
|
<trkpt lat="55.556950" lon="8.083051">
|
|
<ele>14.163138</ele>
|
|
<time>2026-07-11T12:54:04.000Z</time>
|
|
</trkpt>
|
|
<trkpt lat="55.556948" lon="8.083035">
|
|
<ele>14.145112</ele>
|
|
<time>2026-07-11T12:54:05.000Z</time>
|
|
</trkpt>
|
|
<trkpt lat="55.556948" lon="8.083017">
|
|
<ele>14.125311</ele>
|
|
<time>2026-07-11T12:54:06.000Z</time>
|
|
</trkpt>
|
|
<trkpt lat="55.556950" lon="8.083000">
|
|
<ele>14.106209</ele>
|
|
<time>2026-07-11T12:54:07.000Z</time>
|
|
</trkpt>
|
|
<trkpt lat="55.556950" lon="8.082984">
|
|
<ele>14.088608</ele>
|
|
<time>2026-07-11T12:54:08.000Z</time>
|
|
</trkpt>
|
|
<trkpt lat="55.556950" lon="8.082966">
|
|
<ele>14.068806</ele>
|
|
<time>2026-07-11T12:54:09.000Z</time>
|
|
</trkpt>
|
|
<trkpt lat="55.556950" lon="8.082948">
|
|
<ele>14.049005</ele>
|
|
<time>2026-07-11T12:54:10.000Z</time>
|
|
</trkpt>
|
|
<trkpt lat="55.556951" lon="8.082932">
|
|
<ele>14.031296</ele>
|
|
<time>2026-07-11T12:54:11.000Z</time>
|
|
</trkpt>
|
|
<trkpt lat="55.556952" lon="8.082917">
|
|
<ele>14.014681</ele>
|
|
<time>2026-07-11T12:54:12.000Z</time>
|
|
</trkpt>
|
|
<trkpt lat="55.556950" lon="8.082902">
|
|
<ele>13.997727</ele>
|
|
<time>2026-07-11T12:54:13.000Z</time>
|
|
</trkpt>
|
|
<trkpt lat="55.556951" lon="8.082884">
|
|
<ele>13.977830</ele>
|
|
<time>2026-07-11T12:54:14.000Z</time>
|
|
</trkpt>
|
|
<trkpt lat="55.556953" lon="8.082865">
|
|
<ele>13.956570</ele>
|
|
<time>2026-07-11T12:54:15.000Z</time>
|
|
</trkpt>
|
|
<trkpt lat="55.556953" lon="8.082843">
|
|
<ele>13.932368</ele>
|
|
<time>2026-07-11T12:54:16.000Z</time>
|
|
</trkpt>
|
|
<trkpt lat="55.556953" lon="8.082826">
|
|
<ele>13.913667</ele>
|
|
<time>2026-07-11T12:54:17.000Z</time>
|
|
</trkpt>
|
|
<trkpt lat="55.556953" lon="8.082809">
|
|
<ele>13.894965</ele>
|
|
<time>2026-07-11T12:54:18.000Z</time>
|
|
</trkpt>
|
|
<trkpt lat="55.556953" lon="8.082787">
|
|
<ele>13.870763</ele>
|
|
<time>2026-07-11T12:54:19.000Z</time>
|
|
</trkpt>
|
|
<trkpt lat="55.556953" lon="8.082768">
|
|
<ele>13.849862</ele>
|
|
<time>2026-07-11T12:54:20.000Z</time>
|
|
</trkpt>
|
|
<trkpt lat="55.556953" lon="8.082752">
|
|
<ele>13.832261</ele>
|
|
<time>2026-07-11T12:54:21.000Z</time>
|
|
</trkpt>
|
|
<trkpt lat="55.556953" lon="8.082732">
|
|
<ele>13.810259</ele>
|
|
<time>2026-07-11T12:54:22.000Z</time>
|
|
</trkpt>
|
|
<trkpt lat="55.556953" lon="8.082712">
|
|
<ele>13.788257</ele>
|
|
<time>2026-07-11T12:54:23.000Z</time>
|
|
</trkpt>
|
|
<trkpt lat="55.556953" lon="8.082695">
|
|
<ele>13.769556</ele>
|
|
<time>2026-07-11T12:54:24.000Z</time>
|
|
</trkpt>
|
|
<trkpt lat="55.556953" lon="8.082679">
|
|
<ele>13.751955</ele>
|
|
<time>2026-07-11T12:54:25.000Z</time>
|
|
</trkpt>
|
|
<trkpt lat="55.556955" lon="8.082663">
|
|
<ele>13.733928</ele>
|
|
<time>2026-07-11T12:54:26.000Z</time>
|
|
</trkpt>
|
|
<trkpt lat="55.556957" lon="8.082647">
|
|
<ele>13.715902</ele>
|
|
<time>2026-07-11T12:54:27.000Z</time>
|
|
</trkpt>
|
|
<trkpt lat="55.556957" lon="8.082628">
|
|
<ele>13.695001</ele>
|
|
<time>2026-07-11T12:54:28.000Z</time>
|
|
</trkpt>
|
|
<trkpt lat="55.556957" lon="8.082611">
|
|
<ele>13.676299</ele>
|
|
<time>2026-07-11T12:54:29.000Z</time>
|
|
</trkpt>
|
|
<trkpt lat="55.556957" lon="8.082595">
|
|
<ele>13.658698</ele>
|
|
<time>2026-07-11T12:54:30.000Z</time>
|
|
</trkpt>
|
|
<trkpt lat="55.556961" lon="8.082573">
|
|
<ele>13.633277</ele>
|
|
<time>2026-07-11T12:54:31.000Z</time>
|
|
</trkpt>
|
|
<trkpt lat="55.556965" lon="8.082555">
|
|
<ele>13.612001</ele>
|
|
<time>2026-07-11T12:54:32.000Z</time>
|
|
</trkpt>
|
|
<trkpt lat="55.556965" lon="8.082538">
|
|
<ele>13.593300</ele>
|
|
<time>2026-07-11T12:54:33.000Z</time>
|
|
</trkpt>
|
|
<trkpt lat="55.556967" lon="8.082518">
|
|
<ele>13.570957</ele>
|
|
<time>2026-07-11T12:54:34.000Z</time>
|
|
</trkpt>
|
|
<trkpt lat="55.556969" lon="8.082501">
|
|
<ele>13.551855</ele>
|
|
<time>2026-07-11T12:54:35.000Z</time>
|
|
</trkpt>
|
|
<trkpt lat="55.556970" lon="8.082487">
|
|
<ele>13.536332</ele>
|
|
<time>2026-07-11T12:54:36.000Z</time>
|
|
</trkpt>
|
|
<trkpt lat="55.556971" lon="8.082473">
|
|
<ele>13.520808</ele>
|
|
<time>2026-07-11T12:54:37.000Z</time>
|
|
</trkpt>
|
|
<trkpt lat="55.556969" lon="8.082455">
|
|
<ele>13.500629</ele>
|
|
<time>2026-07-11T12:54:38.000Z</time>
|
|
</trkpt>
|
|
<trkpt lat="55.556970" lon="8.082437">
|
|
<ele>13.480732</ele>
|
|
<time>2026-07-11T12:54:39.000Z</time>
|
|
</trkpt>
|
|
<trkpt lat="55.556973" lon="8.082422">
|
|
<ele>13.463229</ele>
|
|
<time>2026-07-11T12:54:40.000Z</time>
|
|
</trkpt>
|
|
<trkpt lat="55.556978" lon="8.082397">
|
|
<ele>13.434058</ele>
|
|
<time>2026-07-11T12:54:41.000Z</time>
|
|
</trkpt>
|
|
<trkpt lat="55.556979" lon="8.082381">
|
|
<ele>13.416350</ele>
|
|
<time>2026-07-11T12:54:42.000Z</time>
|
|
</trkpt>
|
|
<trkpt lat="55.556978" lon="8.082364">
|
|
<ele>13.397548</ele>
|
|
<time>2026-07-11T12:54:43.000Z</time>
|
|
</trkpt>
|
|
<trkpt lat="55.556980" lon="8.082346">
|
|
<ele>13.377368</ele>
|
|
<time>2026-07-11T12:54:44.000Z</time>
|
|
</trkpt>
|
|
<trkpt lat="55.556980" lon="8.082330">
|
|
<ele>13.359766</ele>
|
|
<time>2026-07-11T12:54:45.000Z</time>
|
|
</trkpt>
|
|
<trkpt lat="55.556981" lon="8.082316">
|
|
<ele>13.344243</ele>
|
|
<time>2026-07-11T12:54:46.000Z</time>
|
|
</trkpt>
|
|
<trkpt lat="55.556989" lon="8.082298">
|
|
<ele>13.319059</ele>
|
|
<time>2026-07-11T12:54:47.000Z</time>
|
|
</trkpt>
|
|
<trkpt lat="55.556992" lon="8.082284">
|
|
<ele>13.302590</ele>
|
|
<time>2026-07-11T12:54:48.000Z</time>
|
|
</trkpt>
|
|
<trkpt lat="55.556994" lon="8.082269">
|
|
<ele>13.285636</ele>
|
|
<time>2026-07-11T12:54:49.000Z</time>
|
|
</trkpt>
|
|
<trkpt lat="55.557001" lon="8.082251">
|
|
<ele>13.261606</ele>
|
|
<time>2026-07-11T12:54:50.000Z</time>
|
|
</trkpt>
|
|
<trkpt lat="55.557004" lon="8.082238">
|
|
<ele>13.246160</ele>
|
|
<time>2026-07-11T12:54:51.000Z</time>
|
|
</trkpt>
|
|
<trkpt lat="55.557007" lon="8.082225">
|
|
<ele>13.230714</ele>
|
|
<time>2026-07-11T12:54:52.000Z</time>
|
|
</trkpt>
|
|
<trkpt lat="55.557016" lon="8.082195">
|
|
<ele>13.193357</ele>
|
|
<time>2026-07-11T12:54:53.000Z</time>
|
|
</trkpt>
|
|
<trkpt lat="55.557020" lon="8.082173">
|
|
<ele>13.167935</ele>
|
|
<time>2026-07-11T12:54:54.000Z</time>
|
|
</trkpt>
|
|
<trkpt lat="55.557023" lon="8.082154">
|
|
<ele>13.146234</ele>
|
|
<time>2026-07-11T12:54:55.000Z</time>
|
|
</trkpt>
|
|
<trkpt lat="55.557028" lon="8.082132">
|
|
<ele>13.120152</ele>
|
|
<time>2026-07-11T12:54:56.000Z</time>
|
|
</trkpt>
|
|
<trkpt lat="55.557031" lon="8.082116">
|
|
<ele>13.101608</ele>
|
|
<time>2026-07-11T12:54:57.000Z</time>
|
|
</trkpt>
|
|
<trkpt lat="55.557034" lon="8.082101">
|
|
<ele>13.084106</ele>
|
|
<time>2026-07-11T12:54:58.000Z</time>
|
|
</trkpt>
|
|
<trkpt lat="55.557041" lon="8.082082">
|
|
<ele>13.059161</ele>
|
|
<time>2026-07-11T12:54:59.000Z</time>
|
|
</trkpt>
|
|
<trkpt lat="55.557046" lon="8.082068">
|
|
<ele>13.040946</ele>
|
|
<time>2026-07-11T12:55:00.000Z</time>
|
|
</trkpt>
|
|
<trkpt lat="55.557050" lon="8.082055">
|
|
<ele>13.024666</ele>
|
|
<time>2026-07-11T12:55:01.000Z</time>
|
|
</trkpt>
|
|
<trkpt lat="55.557056" lon="8.082042">
|
|
<ele>13.006208</ele>
|
|
<time>2026-07-11T12:55:02.000Z</time>
|
|
</trkpt>
|
|
<trkpt lat="55.557062" lon="8.082031">
|
|
<ele>12.989396</ele>
|
|
<time>2026-07-11T12:55:03.000Z</time>
|
|
</trkpt>
|
|
<trkpt lat="55.557064" lon="8.082018">
|
|
<ele>12.974575</ele>
|
|
<time>2026-07-11T12:55:04.000Z</time>
|
|
</trkpt>
|
|
<trkpt lat="55.557064" lon="8.081999">
|
|
<ele>12.953674</ele>
|
|
<time>2026-07-11T12:55:05.000Z</time>
|
|
</trkpt>
|
|
<trkpt lat="55.557064" lon="8.081987">
|
|
<ele>12.940473</ele>
|
|
<time>2026-07-11T12:55:06.000Z</time>
|
|
</trkpt>
|
|
<trkpt lat="55.557065" lon="8.081977">
|
|
<ele>12.929302</ele>
|
|
<time>2026-07-11T12:55:07.000Z</time>
|
|
</trkpt>
|
|
<trkpt lat="55.557070" lon="8.081965">
|
|
<ele>12.912905</ele>
|
|
<time>2026-07-11T12:55:08.000Z</time>
|
|
</trkpt>
|
|
<trkpt lat="55.557079" lon="8.081947">
|
|
<ele>12.886475</ele>
|
|
<time>2026-07-11T12:55:09.000Z</time>
|
|
</trkpt>
|
|
<trkpt lat="55.557085" lon="8.081934">
|
|
<ele>12.868017</ele>
|
|
<time>2026-07-11T12:55:10.000Z</time>
|
|
</trkpt>
|
|
<trkpt lat="55.557087" lon="8.081922">
|
|
<ele>12.854255</ele>
|
|
<time>2026-07-11T12:55:11.000Z</time>
|
|
</trkpt>
|
|
<trkpt lat="55.557089" lon="8.081908">
|
|
<ele>12.838370</ele>
|
|
<time>2026-07-11T12:55:12.000Z</time>
|
|
</trkpt>
|
|
<trkpt lat="55.557092" lon="8.081893">
|
|
<ele>12.820868</ele>
|
|
<time>2026-07-11T12:55:13.000Z</time>
|
|
</trkpt>
|
|
<trkpt lat="55.557096" lon="8.081881">
|
|
<ele>12.805545</ele>
|
|
<time>2026-07-11T12:55:14.000Z</time>
|
|
</trkpt>
|
|
<trkpt lat="55.557098" lon="8.081871">
|
|
<ele>12.793876</ele>
|
|
<time>2026-07-11T12:55:15.000Z</time>
|
|
</trkpt>
|
|
<trkpt lat="55.557100" lon="8.081860">
|
|
<ele>12.781165</ele>
|
|
<time>2026-07-11T12:55:16.000Z</time>
|
|
</trkpt>
|
|
<trkpt lat="55.557102" lon="8.081848">
|
|
<ele>12.767403</ele>
|
|
<time>2026-07-11T12:55:17.000Z</time>
|
|
</trkpt>
|
|
<trkpt lat="55.557104" lon="8.081834">
|
|
<ele>12.751519</ele>
|
|
<time>2026-07-11T12:55:18.000Z</time>
|
|
</trkpt>
|
|
<trkpt lat="55.557107" lon="8.081822">
|
|
<ele>12.737085</ele>
|
|
<time>2026-07-11T12:55:19.000Z</time>
|
|
</trkpt>
|
|
<trkpt lat="55.557111" lon="8.081808">
|
|
<ele>12.719831</ele>
|
|
<time>2026-07-11T12:55:20.000Z</time>
|
|
</trkpt>
|
|
<trkpt lat="55.557114" lon="8.081789">
|
|
<ele>12.698130</ele>
|
|
<time>2026-07-11T12:55:21.000Z</time>
|
|
</trkpt>
|
|
<trkpt lat="55.557115" lon="8.081776">
|
|
<ele>12.683697</ele>
|
|
<time>2026-07-11T12:55:22.000Z</time>
|
|
</trkpt>
|
|
<trkpt lat="55.557119" lon="8.081760">
|
|
<ele>12.664453</ele>
|
|
<time>2026-07-11T12:55:23.000Z</time>
|
|
</trkpt>
|
|
<trkpt lat="55.557120" lon="8.081739">
|
|
<ele>12.641270</ele>
|
|
<time>2026-07-11T12:55:24.000Z</time>
|
|
</trkpt>
|
|
<trkpt lat="55.557117" lon="8.081721">
|
|
<ele>12.620627</ele>
|
|
<time>2026-07-11T12:55:25.000Z</time>
|
|
</trkpt>
|
|
<trkpt lat="55.557118" lon="8.081704">
|
|
<ele>12.601825</ele>
|
|
<time>2026-07-11T12:55:26.000Z</time>
|
|
</trkpt>
|
|
<trkpt lat="55.557123" lon="8.081689">
|
|
<ele>12.582671</ele>
|
|
<time>2026-07-11T12:55:27.000Z</time>
|
|
</trkpt>
|
|
<trkpt lat="55.557127" lon="8.081677">
|
|
<ele>12.567348</ele>
|
|
<time>2026-07-11T12:55:28.000Z</time>
|
|
</trkpt>
|
|
<trkpt lat="55.557130" lon="8.081663">
|
|
<ele>12.550878</ele>
|
|
<time>2026-07-11T12:55:29.000Z</time>
|
|
</trkpt>
|
|
<trkpt lat="55.557133" lon="8.081652">
|
|
<ele>12.537444</ele>
|
|
<time>2026-07-11T12:55:30.000Z</time>
|
|
</trkpt>
|
|
<trkpt lat="55.557138" lon="8.081641">
|
|
<ele>12.521920</ele>
|
|
<time>2026-07-11T12:55:31.000Z</time>
|
|
</trkpt>
|
|
<trkpt lat="55.557144" lon="8.081634">
|
|
<ele>12.507938</ele>
|
|
<time>2026-07-11T12:55:32.000Z</time>
|
|
</trkpt>
|
|
<trkpt lat="55.557151" lon="8.081624">
|
|
<ele>12.490434</ele>
|
|
<time>2026-07-11T12:55:33.000Z</time>
|
|
</trkpt>
|
|
<trkpt lat="55.557158" lon="8.081613">
|
|
<ele>12.472218</ele>
|
|
<time>2026-07-11T12:55:34.000Z</time>
|
|
</trkpt>
|
|
<trkpt lat="55.557165" lon="8.081598">
|
|
<ele>12.450825</ele>
|
|
<time>2026-07-11T12:55:35.000Z</time>
|
|
</trkpt>
|
|
<trkpt lat="55.557170" lon="8.081592">
|
|
<ele>12.439072</ele>
|
|
<time>2026-07-11T12:55:36.000Z</time>
|
|
</trkpt>
|
|
<trkpt lat="55.557173" lon="8.081590">
|
|
<ele>12.432836</ele>
|
|
<time>2026-07-11T12:55:37.000Z</time>
|
|
</trkpt>
|
|
<trkpt lat="55.557171" lon="8.081592">
|
|
<ele>12.428367</ele>
|
|
<time>2026-07-11T12:55:38.000Z</time>
|
|
</trkpt>
|
|
<trkpt lat="55.557173" lon="8.081593">
|
|
<ele>12.424324</ele>
|
|
<time>2026-07-11T12:55:39.000Z</time>
|
|
</trkpt>
|
|
<trkpt lat="55.557175" lon="8.081591">
|
|
<ele>12.419855</ele>
|
|
<time>2026-07-11T12:55:40.000Z</time>
|
|
</trkpt>
|
|
<trkpt lat="55.557176" lon="8.081588">
|
|
<ele>12.416024</ele>
|
|
<time>2026-07-11T12:55:41.000Z</time>
|
|
</trkpt>
|
|
<trkpt lat="55.557179" lon="8.081586">
|
|
<ele>12.409788</ele>
|
|
<time>2026-07-11T12:55:42.000Z</time>
|
|
</trkpt>
|
|
<trkpt lat="55.557220" lon="8.081546">
|
|
<ele>12.318707</ele>
|
|
<time>2026-07-11T12:56:27.000Z</time>
|
|
</trkpt>
|
|
<trkpt lat="55.557227" lon="8.081540">
|
|
<ele>12.303576</ele>
|
|
<time>2026-07-11T12:56:28.000Z</time>
|
|
</trkpt>
|
|
<trkpt lat="55.557234" lon="8.081532">
|
|
<ele>12.287365</ele>
|
|
<time>2026-07-11T12:56:29.000Z</time>
|
|
</trkpt>
|
|
<trkpt lat="55.557241" lon="8.081525">
|
|
<ele>12.271723</ele>
|
|
<time>2026-07-11T12:56:30.000Z</time>
|
|
</trkpt>
|
|
<trkpt lat="55.557251" lon="8.081514">
|
|
<ele>12.248815</ele>
|
|
<time>2026-07-11T12:56:31.000Z</time>
|
|
</trkpt>
|
|
<trkpt lat="55.557256" lon="8.081505">
|
|
<ele>12.234937</ele>
|
|
<time>2026-07-11T12:56:32.000Z</time>
|
|
</trkpt>
|
|
<trkpt lat="55.557262" lon="8.081500">
|
|
<ele>12.222036</ele>
|
|
<time>2026-07-11T12:56:33.000Z</time>
|
|
</trkpt>
|
|
<trkpt lat="55.557270" lon="8.081496">
|
|
<ele>12.205865</ele>
|
|
<time>2026-07-11T12:56:34.000Z</time>
|
|
</trkpt>
|
|
<trkpt lat="55.557283" lon="8.081486">
|
|
<ele>12.178291</ele>
|
|
<time>2026-07-11T12:56:35.000Z</time>
|
|
</trkpt>
|
|
<trkpt lat="55.557291" lon="8.081478">
|
|
<ele>12.160414</ele>
|
|
<time>2026-07-11T12:56:36.000Z</time>
|
|
</trkpt>
|
|
<trkpt lat="55.557296" lon="8.081470">
|
|
<ele>12.147298</ele>
|
|
<time>2026-07-11T12:56:37.000Z</time>
|
|
</trkpt>
|
|
<trkpt lat="55.557311" lon="8.081456">
|
|
<ele>12.114307</ele>
|
|
<time>2026-07-11T12:56:38.000Z</time>
|
|
</trkpt>
|
|
<trkpt lat="55.557319" lon="8.081447">
|
|
<ele>12.095864</ele>
|
|
<time>2026-07-11T12:56:39.000Z</time>
|
|
</trkpt>
|
|
<trkpt lat="55.557325" lon="8.081443">
|
|
<ele>12.083392</ele>
|
|
<time>2026-07-11T12:56:40.000Z</time>
|
|
</trkpt>
|
|
<trkpt lat="55.557335" lon="8.081433">
|
|
<ele>12.061046</ele>
|
|
<time>2026-07-11T12:56:41.000Z</time>
|
|
</trkpt>
|
|
<trkpt lat="55.557344" lon="8.081424">
|
|
<ele>12.040935</ele>
|
|
<time>2026-07-11T12:56:42.000Z</time>
|
|
</trkpt>
|
|
<trkpt lat="55.557354" lon="8.081418">
|
|
<ele>12.020396</ele>
|
|
<time>2026-07-11T12:56:43.000Z</time>
|
|
</trkpt>
|
|
<trkpt lat="55.557365" lon="8.081414">
|
|
<ele>11.998552</ele>
|
|
<time>2026-07-11T12:56:44.000Z</time>
|
|
</trkpt>
|
|
<trkpt lat="55.557378" lon="8.081407">
|
|
<ele>11.972121</ele>
|
|
<time>2026-07-11T12:56:45.000Z</time>
|
|
</trkpt>
|
|
<trkpt lat="55.557389" lon="8.081399">
|
|
<ele>11.948986</ele>
|
|
<time>2026-07-11T12:56:46.000Z</time>
|
|
</trkpt>
|
|
<trkpt lat="55.557400" lon="8.081394">
|
|
<ele>11.926895</ele>
|
|
<time>2026-07-11T12:56:47.000Z</time>
|
|
</trkpt>
|
|
<trkpt lat="55.557412" lon="8.081387">
|
|
<ele>11.902317</ele>
|
|
<time>2026-07-11T12:56:48.000Z</time>
|
|
</trkpt>
|
|
<trkpt lat="55.557423" lon="8.081381">
|
|
<ele>11.879927</ele>
|
|
<time>2026-07-11T12:56:49.000Z</time>
|
|
</trkpt>
|
|
<trkpt lat="55.557432" lon="8.081378">
|
|
<ele>11.862113</ele>
|
|
<time>2026-07-11T12:56:50.000Z</time>
|
|
</trkpt>
|
|
<trkpt lat="55.557449" lon="8.081382">
|
|
<ele>11.828756</ele>
|
|
<time>2026-07-11T12:56:51.000Z</time>
|
|
</trkpt>
|
|
<trkpt lat="55.557461" lon="8.081378">
|
|
<ele>11.805005</ele>
|
|
<time>2026-07-11T12:56:52.000Z</time>
|
|
</trkpt>
|
|
<trkpt lat="55.557469" lon="8.081370">
|
|
<ele>11.787128</ele>
|
|
<time>2026-07-11T12:56:53.000Z</time>
|
|
</trkpt>
|
|
<trkpt lat="55.557483" lon="8.081362">
|
|
<ele>11.758511</ele>
|
|
<time>2026-07-11T12:56:54.000Z</time>
|
|
</trkpt>
|
|
<trkpt lat="55.557494" lon="8.081358">
|
|
<ele>11.736668</ele>
|
|
<time>2026-07-11T12:56:55.000Z</time>
|
|
</trkpt>
|
|
<trkpt lat="55.557503" lon="8.081353">
|
|
<ele>11.718319</ele>
|
|
<time>2026-07-11T12:56:56.000Z</time>
|
|
</trkpt>
|
|
<trkpt lat="55.557515" lon="8.081347">
|
|
<ele>11.694063</ele>
|
|
<time>2026-07-11T12:56:57.000Z</time>
|
|
</trkpt>
|
|
<trkpt lat="55.557527" lon="8.081344">
|
|
<ele>11.670491</ele>
|
|
<time>2026-07-11T12:56:58.000Z</time>
|
|
</trkpt>
|
|
<trkpt lat="55.557541" lon="8.081341">
|
|
<ele>11.643061</ele>
|
|
<time>2026-07-11T12:56:59.000Z</time>
|
|
</trkpt>
|
|
<trkpt lat="55.557554" lon="8.081338">
|
|
<ele>11.617561</ele>
|
|
<time>2026-07-11T12:57:00.000Z</time>
|
|
</trkpt>
|
|
<trkpt lat="55.557564" lon="8.081336">
|
|
<ele>11.597987</ele>
|
|
<time>2026-07-11T12:57:01.000Z</time>
|
|
</trkpt>
|
|
<trkpt lat="55.557573" lon="8.081333">
|
|
<ele>11.580173</ele>
|
|
<time>2026-07-11T12:57:02.000Z</time>
|
|
</trkpt>
|
|
<trkpt lat="55.557588" lon="8.081328">
|
|
<ele>11.550484</ele>
|
|
<time>2026-07-11T12:57:03.000Z</time>
|
|
</trkpt>
|
|
<trkpt lat="55.557598" lon="8.081324">
|
|
<ele>11.530542</ele>
|
|
<time>2026-07-11T12:57:04.000Z</time>
|
|
</trkpt>
|
|
<trkpt lat="55.557608" lon="8.081320">
|
|
<ele>11.510600</ele>
|
|
<time>2026-07-11T12:57:05.000Z</time>
|
|
</trkpt>
|
|
<trkpt lat="55.557624" lon="8.081311">
|
|
<ele>11.477943</ele>
|
|
<time>2026-07-11T12:57:06.000Z</time>
|
|
</trkpt>
|
|
<trkpt lat="55.557637" lon="8.081310">
|
|
<ele>11.452634</ele>
|
|
<time>2026-07-11T12:57:07.000Z</time>
|
|
</trkpt>
|
|
<trkpt lat="55.557649" lon="8.081307">
|
|
<ele>11.429061</ele>
|
|
<time>2026-07-11T12:57:08.000Z</time>
|
|
</trkpt>
|
|
<trkpt lat="55.557664" lon="8.081302">
|
|
<ele>11.399372</ele>
|
|
<time>2026-07-11T12:57:09.000Z</time>
|
|
</trkpt>
|
|
<trkpt lat="55.557675" lon="8.081296">
|
|
<ele>11.376981</ele>
|
|
<time>2026-07-11T12:57:10.000Z</time>
|
|
</trkpt>
|
|
<trkpt lat="55.557686" lon="8.081291">
|
|
<ele>11.354890</ele>
|
|
<time>2026-07-11T12:57:11.000Z</time>
|
|
</trkpt>
|
|
<trkpt lat="55.557699" lon="8.081285">
|
|
<ele>11.328758</ele>
|
|
<time>2026-07-11T12:57:12.000Z</time>
|
|
</trkpt>
|
|
<trkpt lat="55.557709" lon="8.081278">
|
|
<ele>11.307839</ele>
|
|
<time>2026-07-11T12:57:13.000Z</time>
|
|
</trkpt>
|
|
<trkpt lat="55.557717" lon="8.081273">
|
|
<ele>11.291335</ele>
|
|
<time>2026-07-11T12:57:14.000Z</time>
|
|
</trkpt>
|
|
<trkpt lat="55.557729" lon="8.081265">
|
|
<ele>11.266390</ele>
|
|
<time>2026-07-11T12:57:15.000Z</time>
|
|
</trkpt>
|
|
<trkpt lat="55.557739" lon="8.081262">
|
|
<ele>11.246662</ele>
|
|
<time>2026-07-11T12:57:16.000Z</time>
|
|
</trkpt>
|
|
<trkpt lat="55.557748" lon="8.081257">
|
|
<ele>11.228313</ele>
|
|
<time>2026-07-11T12:57:17.000Z</time>
|
|
</trkpt>
|
|
<trkpt lat="55.557758" lon="8.081250">
|
|
<ele>11.207394</ele>
|
|
<time>2026-07-11T12:57:18.000Z</time>
|
|
</trkpt>
|
|
<trkpt lat="55.557766" lon="8.081243">
|
|
<ele>11.190033</ele>
|
|
<time>2026-07-11T12:57:19.000Z</time>
|
|
</trkpt>
|
|
<trkpt lat="55.557777" lon="8.081235">
|
|
<ele>11.167095</ele>
|
|
<time>2026-07-11T12:57:20.000Z</time>
|
|
</trkpt>
|
|
<trkpt lat="55.557790" lon="8.081229">
|
|
<ele>11.141490</ele>
|
|
<time>2026-07-11T12:57:21.000Z</time>
|
|
</trkpt>
|
|
<trkpt lat="55.557800" lon="8.081223">
|
|
<ele>11.121365</ele>
|
|
<time>2026-07-11T12:57:22.000Z</time>
|
|
</trkpt>
|
|
<trkpt lat="55.557810" lon="8.081217">
|
|
<ele>11.101239</ele>
|
|
<time>2026-07-11T12:57:23.000Z</time>
|
|
</trkpt>
|
|
<trkpt lat="55.557821" lon="8.081210">
|
|
<ele>11.078959</ele>
|
|
<time>2026-07-11T12:57:24.000Z</time>
|
|
</trkpt>
|
|
<trkpt lat="55.557831" lon="8.081207">
|
|
<ele>11.059629</ele>
|
|
<time>2026-07-11T12:57:25.000Z</time>
|
|
</trkpt>
|
|
<trkpt lat="55.557841" lon="8.081206">
|
|
<ele>11.040541</ele>
|
|
<time>2026-07-11T12:57:26.000Z</time>
|
|
</trkpt>
|
|
<trkpt lat="55.557855" lon="8.081208">
|
|
<ele>11.013773</ele>
|
|
<time>2026-07-11T12:57:27.000Z</time>
|
|
</trkpt>
|
|
<trkpt lat="55.557865" lon="8.081208">
|
|
<ele>10.994715</ele>
|
|
<time>2026-07-11T12:57:28.000Z</time>
|
|
</trkpt>
|
|
<trkpt lat="55.557876" lon="8.081206">
|
|
<ele>10.973641</ele>
|
|
<time>2026-07-11T12:57:29.000Z</time>
|
|
</trkpt>
|
|
<trkpt lat="55.557888" lon="8.081206">
|
|
<ele>10.950771</ele>
|
|
<time>2026-07-11T12:57:30.000Z</time>
|
|
</trkpt>
|
|
<trkpt lat="55.557896" lon="8.081204">
|
|
<ele>10.935373</ele>
|
|
<time>2026-07-11T12:57:31.000Z</time>
|
|
</trkpt>
|
|
<trkpt lat="55.557904" lon="8.081200">
|
|
<ele>10.919529</ele>
|
|
<time>2026-07-11T12:57:32.000Z</time>
|
|
</trkpt>
|
|
<trkpt lat="55.557920" lon="8.081198">
|
|
<ele>10.888961</ele>
|
|
<time>2026-07-11T12:57:33.000Z</time>
|
|
</trkpt>
|
|
<trkpt lat="55.557930" lon="8.081198">
|
|
<ele>10.869903</ele>
|
|
<time>2026-07-11T12:57:34.000Z</time>
|
|
</trkpt>
|
|
<trkpt lat="55.557940" lon="8.081199">
|
|
<ele>10.850814</ele>
|
|
<time>2026-07-11T12:57:35.000Z</time>
|
|
</trkpt>
|
|
<trkpt lat="55.557954" lon="8.081201">
|
|
<ele>10.824046</ele>
|
|
<time>2026-07-11T12:57:36.000Z</time>
|
|
</trkpt>
|
|
<trkpt lat="55.557963" lon="8.081204">
|
|
<ele>10.806592</ele>
|
|
<time>2026-07-11T12:57:37.000Z</time>
|
|
</trkpt>
|
|
<trkpt lat="55.557968" lon="8.081205">
|
|
<ele>10.797003</ele>
|
|
<time>2026-07-11T12:57:38.000Z</time>
|
|
</trkpt>
|
|
<trkpt lat="55.557987" lon="8.081203">
|
|
<ele>10.760729</ele>
|
|
<time>2026-07-11T12:57:39.000Z</time>
|
|
</trkpt>
|
|
<trkpt lat="55.557995" lon="8.081204">
|
|
<ele>10.745444</ele>
|
|
<time>2026-07-11T12:57:40.000Z</time>
|
|
</trkpt>
|
|
<trkpt lat="55.558006" lon="8.081205">
|
|
<ele>10.724453</ele>
|
|
<time>2026-07-11T12:57:41.000Z</time>
|
|
</trkpt>
|
|
<trkpt lat="55.558019" lon="8.081199">
|
|
<ele>10.698847</ele>
|
|
<time>2026-07-11T12:57:42.000Z</time>
|
|
</trkpt>
|
|
<trkpt lat="55.558029" lon="8.081194">
|
|
<ele>10.679042</ele>
|
|
<time>2026-07-11T12:57:43.000Z</time>
|
|
</trkpt>
|
|
<trkpt lat="55.558040" lon="8.081196">
|
|
<ele>10.657968</ele>
|
|
<time>2026-07-11T12:57:44.000Z</time>
|
|
</trkpt>
|
|
<trkpt lat="55.558053" lon="8.081200">
|
|
<ele>10.632821</ele>
|
|
<time>2026-07-11T12:57:45.000Z</time>
|
|
</trkpt>
|
|
<trkpt lat="55.558063" lon="8.081201">
|
|
<ele>10.613732</ele>
|
|
<time>2026-07-11T12:57:46.000Z</time>
|
|
</trkpt>
|
|
<trkpt lat="55.558071" lon="8.081200">
|
|
<ele>10.598448</ele>
|
|
<time>2026-07-11T12:57:47.000Z</time>
|
|
</trkpt>
|
|
<trkpt lat="55.558088" lon="8.081202">
|
|
<ele>10.565978</ele>
|
|
<time>2026-07-11T12:57:48.000Z</time>
|
|
</trkpt>
|
|
<trkpt lat="55.558100" lon="8.081203">
|
|
<ele>10.543083</ele>
|
|
<time>2026-07-11T12:57:49.000Z</time>
|
|
</trkpt>
|
|
<trkpt lat="55.558112" lon="8.081201">
|
|
<ele>10.520112</ele>
|
|
<time>2026-07-11T12:57:50.000Z</time>
|
|
</trkpt>
|
|
<trkpt lat="55.558126" lon="8.081201">
|
|
<ele>10.493431</ele>
|
|
<time>2026-07-11T12:57:51.000Z</time>
|
|
</trkpt>
|
|
<trkpt lat="55.558136" lon="8.081203">
|
|
<ele>10.474252</ele>
|
|
<time>2026-07-11T12:57:52.000Z</time>
|
|
</trkpt>
|
|
<trkpt lat="55.558143" lon="8.081203">
|
|
<ele>10.460911</ele>
|
|
<time>2026-07-11T12:57:53.000Z</time>
|
|
</trkpt>
|
|
<trkpt lat="55.558160" lon="8.081200">
|
|
<ele>10.428352</ele>
|
|
<time>2026-07-11T12:57:54.000Z</time>
|
|
</trkpt>
|
|
<trkpt lat="55.558171" lon="8.081199">
|
|
<ele>10.407361</ele>
|
|
<time>2026-07-11T12:57:55.000Z</time>
|
|
</trkpt>
|
|
<trkpt lat="55.558182" lon="8.081199">
|
|
<ele>10.386397</ele>
|
|
<time>2026-07-11T12:57:56.000Z</time>
|
|
</trkpt>
|
|
<trkpt lat="55.558194" lon="8.081199">
|
|
<ele>10.363528</ele>
|
|
<time>2026-07-11T12:57:57.000Z</time>
|
|
</trkpt>
|
|
<trkpt lat="55.558205" lon="8.081201">
|
|
<ele>10.342453</ele>
|
|
<time>2026-07-11T12:57:58.000Z</time>
|
|
</trkpt>
|
|
<trkpt lat="55.558214" lon="8.081204">
|
|
<ele>10.324999</ele>
|
|
<time>2026-07-11T12:57:59.000Z</time>
|
|
</trkpt>
|
|
<trkpt lat="55.558229" lon="8.081208">
|
|
<ele>10.296089</ele>
|
|
<time>2026-07-11T12:58:00.000Z</time>
|
|
</trkpt>
|
|
<trkpt lat="55.558239" lon="8.081209">
|
|
<ele>10.277001</ele>
|
|
<time>2026-07-11T12:58:01.000Z</time>
|
|
</trkpt>
|
|
<trkpt lat="55.558250" lon="8.081207">
|
|
<ele>10.255927</ele>
|
|
<time>2026-07-11T12:58:02.000Z</time>
|
|
</trkpt>
|
|
<trkpt lat="55.558263" lon="8.081205">
|
|
<ele>10.231058</ele>
|
|
<time>2026-07-11T12:58:03.000Z</time>
|
|
</trkpt>
|
|
<trkpt lat="55.558272" lon="8.081205">
|
|
<ele>10.213906</ele>
|
|
<time>2026-07-11T12:58:04.000Z</time>
|
|
</trkpt>
|
|
<trkpt lat="55.558280" lon="8.081206">
|
|
<ele>10.198621</ele>
|
|
<time>2026-07-11T12:58:05.000Z</time>
|
|
</trkpt>
|
|
<trkpt lat="55.558294" lon="8.081207">
|
|
<ele>10.171919</ele>
|
|
<time>2026-07-11T12:58:06.000Z</time>
|
|
</trkpt>
|
|
<trkpt lat="55.558303" lon="8.081206">
|
|
<ele>10.154733</ele>
|
|
<time>2026-07-11T12:58:07.000Z</time>
|
|
</trkpt>
|
|
<trkpt lat="55.558311" lon="8.081205">
|
|
<ele>10.139448</ele>
|
|
<time>2026-07-11T12:58:08.000Z</time>
|
|
</trkpt>
|
|
<trkpt lat="55.558326" lon="8.081200">
|
|
<ele>10.110358</ele>
|
|
<time>2026-07-11T12:58:09.000Z</time>
|
|
</trkpt>
|
|
<trkpt lat="55.558334" lon="8.081197">
|
|
<ele>10.094773</ele>
|
|
<time>2026-07-11T12:58:10.000Z</time>
|
|
</trkpt>
|
|
<trkpt lat="55.558344" lon="8.081195">
|
|
<ele>10.075593</ele>
|
|
<time>2026-07-11T12:58:11.000Z</time>
|
|
</trkpt>
|
|
<trkpt lat="55.558358" lon="8.081189">
|
|
<ele>10.048140</ele>
|
|
<time>2026-07-11T12:58:12.000Z</time>
|
|
</trkpt>
|
|
<trkpt lat="55.558369" lon="8.081188">
|
|
<ele>10.027148</ele>
|
|
<time>2026-07-11T12:58:13.000Z</time>
|
|
</trkpt>
|
|
<trkpt lat="55.558378" lon="8.081186">
|
|
<ele>10.009861</ele>
|
|
<time>2026-07-11T12:58:14.000Z</time>
|
|
</trkpt>
|
|
<trkpt lat="55.558389" lon="8.081180">
|
|
<ele>9.987923</ele>
|
|
<time>2026-07-11T12:58:15.000Z</time>
|
|
</trkpt>
|
|
<trkpt lat="55.558399" lon="8.081171">
|
|
<ele>9.966538</ele>
|
|
<time>2026-07-11T12:58:16.000Z</time>
|
|
</trkpt>
|
|
<trkpt lat="55.558409" lon="8.081165">
|
|
<ele>9.946413</ele>
|
|
<time>2026-07-11T12:58:17.000Z</time>
|
|
</trkpt>
|
|
<trkpt lat="55.558418" lon="8.081153">
|
|
<ele>9.924931</ele>
|
|
<time>2026-07-11T12:58:18.000Z</time>
|
|
</trkpt>
|
|
<trkpt lat="55.558425" lon="8.081143">
|
|
<ele>9.907780</ele>
|
|
<time>2026-07-11T12:58:19.000Z</time>
|
|
</trkpt>
|
|
<trkpt lat="55.558432" lon="8.081136">
|
|
<ele>9.892454</ele>
|
|
<time>2026-07-11T12:58:20.000Z</time>
|
|
</trkpt>
|
|
<trkpt lat="55.558441" lon="8.081128">
|
|
<ele>9.873256</ele>
|
|
<time>2026-07-11T12:58:21.000Z</time>
|
|
</trkpt>
|
|
<trkpt lat="55.558448" lon="8.081122">
|
|
<ele>9.858431</ele>
|
|
<time>2026-07-11T12:58:22.000Z</time>
|
|
</trkpt>
|
|
<trkpt lat="55.558455" lon="8.081115">
|
|
<ele>9.843105</ele>
|
|
<time>2026-07-11T12:58:23.000Z</time>
|
|
</trkpt>
|
|
<trkpt lat="55.558464" lon="8.081107">
|
|
<ele>9.823907</ele>
|
|
<time>2026-07-11T12:58:24.000Z</time>
|
|
</trkpt>
|
|
<trkpt lat="55.558475" lon="8.081093">
|
|
<ele>9.798077</ele>
|
|
<time>2026-07-11T12:58:25.000Z</time>
|
|
</trkpt>
|
|
<trkpt lat="55.558482" lon="8.081083">
|
|
<ele>9.780927</ele>
|
|
<time>2026-07-11T12:58:26.000Z</time>
|
|
</trkpt>
|
|
<trkpt lat="55.558487" lon="8.081075">
|
|
<ele>9.768076</ele>
|
|
<time>2026-07-11T12:58:27.000Z</time>
|
|
</trkpt>
|
|
<trkpt lat="55.558500" lon="8.081057">
|
|
<ele>9.736608</ele>
|
|
<time>2026-07-11T12:58:28.000Z</time>
|
|
</trkpt>
|
|
<trkpt lat="55.558507" lon="8.081044">
|
|
<ele>9.717261</ele>
|
|
<time>2026-07-11T12:58:29.000Z</time>
|
|
</trkpt>
|
|
<trkpt lat="55.558514" lon="8.081030">
|
|
<ele>9.697120</ele>
|
|
<time>2026-07-11T12:58:30.000Z</time>
|
|
</trkpt>
|
|
<trkpt lat="55.558525" lon="8.081013">
|
|
<ele>9.669277</ele>
|
|
<time>2026-07-11T12:58:31.000Z</time>
|
|
</trkpt>
|
|
<trkpt lat="55.558533" lon="8.080999">
|
|
<ele>9.647826</ele>
|
|
<time>2026-07-11T12:58:32.000Z</time>
|
|
</trkpt>
|
|
<trkpt lat="55.558543" lon="8.080984">
|
|
<ele>9.622834</ele>
|
|
<time>2026-07-11T12:58:33.000Z</time>
|
|
</trkpt>
|
|
<trkpt lat="55.558555" lon="8.080967">
|
|
<ele>9.593529</ele>
|
|
<time>2026-07-11T12:58:34.000Z</time>
|
|
</trkpt>
|
|
<trkpt lat="55.558562" lon="8.080953">
|
|
<ele>9.573388</ele>
|
|
<time>2026-07-11T12:58:35.000Z</time>
|
|
</trkpt>
|
|
<trkpt lat="55.558568" lon="8.080944">
|
|
<ele>9.558393</ele>
|
|
<time>2026-07-11T12:58:36.000Z</time>
|
|
</trkpt>
|
|
<trkpt lat="55.558582" lon="8.080923">
|
|
<ele>9.523404</ele>
|
|
<time>2026-07-11T12:58:37.000Z</time>
|
|
</trkpt>
|
|
<trkpt lat="55.558590" lon="8.080909">
|
|
<ele>9.501953</ele>
|
|
<time>2026-07-11T12:58:38.000Z</time>
|
|
</trkpt>
|
|
<trkpt lat="55.558600" lon="8.080895">
|
|
<ele>9.477645</ele>
|
|
<time>2026-07-11T12:58:39.000Z</time>
|
|
</trkpt>
|
|
<trkpt lat="55.558612" lon="8.080871">
|
|
<ele>9.443117</ele>
|
|
<time>2026-07-11T12:58:40.000Z</time>
|
|
</trkpt>
|
|
<trkpt lat="55.558618" lon="8.080857">
|
|
<ele>9.424184</ele>
|
|
<time>2026-07-11T12:58:41.000Z</time>
|
|
</trkpt>
|
|
<trkpt lat="55.558622" lon="8.080842">
|
|
<ele>9.406309</ele>
|
|
<time>2026-07-11T12:58:42.000Z</time>
|
|
</trkpt>
|
|
<trkpt lat="55.558627" lon="8.080826">
|
|
<ele>9.386606</ele>
|
|
<time>2026-07-11T12:58:43.000Z</time>
|
|
</trkpt>
|
|
<trkpt lat="55.558633" lon="8.080811">
|
|
<ele>9.366804</ele>
|
|
<time>2026-07-11T12:58:44.000Z</time>
|
|
</trkpt>
|
|
<trkpt lat="55.558639" lon="8.080796">
|
|
<ele>9.347001</ele>
|
|
<time>2026-07-11T12:58:45.000Z</time>
|
|
</trkpt>
|
|
<trkpt lat="55.558647" lon="8.080783">
|
|
<ele>9.326294</ele>
|
|
<time>2026-07-11T12:58:46.000Z</time>
|
|
</trkpt>
|
|
<trkpt lat="55.558653" lon="8.080769">
|
|
<ele>9.307361</ele>
|
|
<time>2026-07-11T12:58:47.000Z</time>
|
|
</trkpt>
|
|
<trkpt lat="55.558658" lon="8.080753">
|
|
<ele>9.287658</ele>
|
|
<time>2026-07-11T12:58:48.000Z</time>
|
|
</trkpt>
|
|
<trkpt lat="55.558664" lon="8.080739">
|
|
<ele>9.268725</ele>
|
|
<time>2026-07-11T12:58:49.000Z</time>
|
|
</trkpt>
|
|
<trkpt lat="55.558668" lon="8.080725">
|
|
<ele>9.251819</ele>
|
|
<time>2026-07-11T12:58:50.000Z</time>
|
|
</trkpt>
|
|
<trkpt lat="55.558673" lon="8.080711">
|
|
<ele>9.233972</ele>
|
|
<time>2026-07-11T12:58:51.000Z</time>
|
|
</trkpt>
|
|
<trkpt lat="55.558681" lon="8.080694">
|
|
<ele>9.210136</ele>
|
|
<time>2026-07-11T12:58:52.000Z</time>
|
|
</trkpt>
|
|
<trkpt lat="55.558688" lon="8.080678">
|
|
<ele>9.188333</ele>
|
|
<time>2026-07-11T12:58:53.000Z</time>
|
|
</trkpt>
|
|
<trkpt lat="55.558695" lon="8.080663">
|
|
<ele>9.167372</ele>
|
|
<time>2026-07-11T12:58:54.000Z</time>
|
|
</trkpt>
|
|
<trkpt lat="55.558698" lon="8.080648">
|
|
<ele>9.150223</ele>
|
|
<time>2026-07-11T12:58:55.000Z</time>
|
|
</trkpt>
|
|
<trkpt lat="55.558704" lon="8.080633">
|
|
<ele>9.130420</ele>
|
|
<time>2026-07-11T12:58:56.000Z</time>
|
|
</trkpt>
|
|
<trkpt lat="55.558712" lon="8.080620">
|
|
<ele>9.109713</ele>
|
|
<time>2026-07-11T12:58:57.000Z</time>
|
|
</trkpt>
|
|
<trkpt lat="55.558717" lon="8.080608">
|
|
<ele>9.093648</ele>
|
|
<time>2026-07-11T12:58:58.000Z</time>
|
|
</trkpt>
|
|
<trkpt lat="55.558723" lon="8.080597">
|
|
<ele>9.077176</ele>
|
|
<time>2026-07-11T12:58:59.000Z</time>
|
|
</trkpt>
|
|
<trkpt lat="55.558731" lon="8.080584">
|
|
<ele>9.056469</ele>
|
|
<time>2026-07-11T12:59:00.000Z</time>
|
|
</trkpt>
|
|
<trkpt lat="55.558738" lon="8.080573">
|
|
<ele>9.038622</ele>
|
|
<time>2026-07-11T12:59:01.000Z</time>
|
|
</trkpt>
|
|
<trkpt lat="55.558746" lon="8.080564">
|
|
<ele>9.020551</ele>
|
|
<time>2026-07-11T12:59:02.000Z</time>
|
|
</trkpt>
|
|
<trkpt lat="55.558753" lon="8.080554">
|
|
<ele>9.003400</ele>
|
|
<time>2026-07-11T12:59:03.000Z</time>
|
|
</trkpt>
|
|
<trkpt lat="55.558761" lon="8.080541">
|
|
<ele>8.982693</ele>
|
|
<time>2026-07-11T12:59:04.000Z</time>
|
|
</trkpt>
|
|
<trkpt lat="55.558771" lon="8.080532">
|
|
<ele>8.961309</ele>
|
|
<time>2026-07-11T12:59:05.000Z</time>
|
|
</trkpt>
|
|
<trkpt lat="55.558782" lon="8.080524">
|
|
<ele>8.938641</ele>
|
|
<time>2026-07-11T12:59:06.000Z</time>
|
|
</trkpt>
|
|
<trkpt lat="55.558793" lon="8.080513">
|
|
<ele>8.914557</ele>
|
|
<time>2026-07-11T12:59:07.000Z</time>
|
|
</trkpt>
|
|
<trkpt lat="55.558802" lon="8.080505">
|
|
<ele>8.895359</ele>
|
|
<time>2026-07-11T12:59:08.000Z</time>
|
|
</trkpt>
|
|
<trkpt lat="55.558812" lon="8.080498">
|
|
<ele>8.874862</ele>
|
|
<time>2026-07-11T12:59:09.000Z</time>
|
|
</trkpt>
|
|
<trkpt lat="55.558822" lon="8.080490">
|
|
<ele>8.853945</ele>
|
|
<time>2026-07-11T12:59:10.000Z</time>
|
|
</trkpt>
|
|
<trkpt lat="55.558830" lon="8.080480">
|
|
<ele>8.835273</ele>
|
|
<time>2026-07-11T12:59:11.000Z</time>
|
|
</trkpt>
|
|
<trkpt lat="55.558837" lon="8.080469">
|
|
<ele>8.817425</ele>
|
|
<time>2026-07-11T12:59:12.000Z</time>
|
|
</trkpt>
|
|
<trkpt lat="55.558843" lon="8.080458">
|
|
<ele>8.800954</ele>
|
|
<time>2026-07-11T12:59:13.000Z</time>
|
|
</trkpt>
|
|
<trkpt lat="55.558849" lon="8.080447">
|
|
<ele>8.784482</ele>
|
|
<time>2026-07-11T12:59:14.000Z</time>
|
|
</trkpt>
|
|
<trkpt lat="55.558857" lon="8.080434">
|
|
<ele>8.763775</ele>
|
|
<time>2026-07-11T12:59:15.000Z</time>
|
|
</trkpt>
|
|
<trkpt lat="55.558864" lon="8.080420">
|
|
<ele>8.743634</ele>
|
|
<time>2026-07-11T12:59:16.000Z</time>
|
|
</trkpt>
|
|
<trkpt lat="55.558868" lon="8.080406">
|
|
<ele>8.726728</ele>
|
|
<time>2026-07-11T12:59:17.000Z</time>
|
|
</trkpt>
|
|
<trkpt lat="55.558868" lon="8.080391">
|
|
<ele>8.710560</ele>
|
|
<time>2026-07-11T12:59:18.000Z</time>
|
|
</trkpt>
|
|
<trkpt lat="55.558870" lon="8.080373">
|
|
<ele>8.690788</ele>
|
|
<time>2026-07-11T12:59:19.000Z</time>
|
|
</trkpt>
|
|
<trkpt lat="55.558874" lon="8.080353">
|
|
<ele>8.667923</ele>
|
|
<time>2026-07-11T12:59:20.000Z</time>
|
|
</trkpt>
|
|
<trkpt lat="55.558878" lon="8.080335">
|
|
<ele>8.647078</ele>
|
|
<time>2026-07-11T12:59:21.000Z</time>
|
|
</trkpt>
|
|
<trkpt lat="55.558881" lon="8.080319">
|
|
<ele>8.628910</ele>
|
|
<time>2026-07-11T12:59:22.000Z</time>
|
|
</trkpt>
|
|
<trkpt lat="55.558884" lon="8.080301">
|
|
<ele>8.608684</ele>
|
|
<time>2026-07-11T12:59:23.000Z</time>
|
|
</trkpt>
|
|
<trkpt lat="55.558885" lon="8.080284">
|
|
<ele>8.590262</ele>
|
|
<time>2026-07-11T12:59:24.000Z</time>
|
|
</trkpt>
|
|
<trkpt lat="55.558886" lon="8.080264">
|
|
<ele>8.568621</ele>
|
|
<time>2026-07-11T12:59:25.000Z</time>
|
|
</trkpt>
|
|
<trkpt lat="55.558884" lon="8.080244">
|
|
<ele>8.546730</ele>
|
|
<time>2026-07-11T12:59:26.000Z</time>
|
|
</trkpt>
|
|
<trkpt lat="55.558885" lon="8.080229">
|
|
<ele>8.530451</ele>
|
|
<time>2026-07-11T12:59:27.000Z</time>
|
|
</trkpt>
|
|
<trkpt lat="55.558888" lon="8.080213">
|
|
<ele>8.512282</ele>
|
|
<time>2026-07-11T12:59:28.000Z</time>
|
|
</trkpt>
|
|
<trkpt lat="55.558893" lon="8.080188">
|
|
<ele>8.483701</ele>
|
|
<time>2026-07-11T12:59:29.000Z</time>
|
|
</trkpt>
|
|
<trkpt lat="55.558895" lon="8.080170">
|
|
<ele>8.463929</ele>
|
|
<time>2026-07-11T12:59:30.000Z</time>
|
|
</trkpt>
|
|
<trkpt lat="55.558895" lon="8.080151">
|
|
<ele>8.443451</ele>
|
|
<time>2026-07-11T12:59:31.000Z</time>
|
|
</trkpt>
|
|
<trkpt lat="55.558895" lon="8.080132">
|
|
<ele>8.422972</ele>
|
|
<time>2026-07-11T12:59:32.000Z</time>
|
|
</trkpt>
|
|
<trkpt lat="55.558893" lon="8.080114">
|
|
<ele>8.403200</ele>
|
|
<time>2026-07-11T12:59:33.000Z</time>
|
|
</trkpt>
|
|
<trkpt lat="55.558890" lon="8.080094">
|
|
<ele>8.380898</ele>
|
|
<time>2026-07-11T12:59:34.000Z</time>
|
|
</trkpt>
|
|
<trkpt lat="55.558887" lon="8.080075">
|
|
<ele>8.359636</ele>
|
|
<time>2026-07-11T12:59:35.000Z</time>
|
|
</trkpt>
|
|
<trkpt lat="55.558886" lon="8.080056">
|
|
<ele>8.339069</ele>
|
|
<time>2026-07-11T12:59:36.000Z</time>
|
|
</trkpt>
|
|
<trkpt lat="55.558882" lon="8.080037">
|
|
<ele>8.317217</ele>
|
|
<time>2026-07-11T12:59:37.000Z</time>
|
|
</trkpt>
|
|
<trkpt lat="55.558880" lon="8.080017">
|
|
<ele>8.295326</ele>
|
|
<time>2026-07-11T12:59:38.000Z</time>
|
|
</trkpt>
|
|
<trkpt lat="55.558878" lon="8.079995">
|
|
<ele>8.271309</ele>
|
|
<time>2026-07-11T12:59:39.000Z</time>
|
|
</trkpt>
|
|
<trkpt lat="55.558874" lon="8.079975">
|
|
<ele>8.248444</ele>
|
|
<time>2026-07-11T12:59:40.000Z</time>
|
|
</trkpt>
|
|
<trkpt lat="55.558872" lon="8.079956">
|
|
<ele>8.227614</ele>
|
|
<time>2026-07-11T12:59:41.000Z</time>
|
|
</trkpt>
|
|
<trkpt lat="55.558871" lon="8.079937">
|
|
<ele>8.207046</ele>
|
|
<time>2026-07-11T12:59:42.000Z</time>
|
|
</trkpt>
|
|
<trkpt lat="55.558870" lon="8.079918">
|
|
<ele>8.186479</ele>
|
|
<time>2026-07-11T12:59:43.000Z</time>
|
|
</trkpt>
|
|
<trkpt lat="55.558871" lon="8.079899">
|
|
<ele>8.165912</ele>
|
|
<time>2026-07-11T12:59:44.000Z</time>
|
|
</trkpt>
|
|
<trkpt lat="55.558870" lon="8.079881">
|
|
<ele>8.146417</ele>
|
|
<time>2026-07-11T12:59:45.000Z</time>
|
|
</trkpt>
|
|
<trkpt lat="55.558872" lon="8.079863">
|
|
<ele>8.126645</ele>
|
|
<time>2026-07-11T12:59:46.000Z</time>
|
|
</trkpt>
|
|
<trkpt lat="55.558872" lon="8.079845">
|
|
<ele>8.107244</ele>
|
|
<time>2026-07-11T12:59:47.000Z</time>
|
|
</trkpt>
|
|
<trkpt lat="55.558872" lon="8.079827">
|
|
<ele>8.087843</ele>
|
|
<time>2026-07-11T12:59:48.000Z</time>
|
|
</trkpt>
|
|
<trkpt lat="55.558874" lon="8.079808">
|
|
<ele>8.067013</ele>
|
|
<time>2026-07-11T12:59:49.000Z</time>
|
|
</trkpt>
|
|
<trkpt lat="55.558876" lon="8.079789">
|
|
<ele>8.046182</ele>
|
|
<time>2026-07-11T12:59:50.000Z</time>
|
|
</trkpt>
|
|
<trkpt lat="55.558878" lon="8.079771">
|
|
<ele>8.026410</ele>
|
|
<time>2026-07-11T12:59:51.000Z</time>
|
|
</trkpt>
|
|
<trkpt lat="55.558880" lon="8.079754">
|
|
<ele>8.007695</ele>
|
|
<time>2026-07-11T12:59:52.000Z</time>
|
|
</trkpt>
|
|
<trkpt lat="55.558880" lon="8.079738">
|
|
<ele>7.990450</ele>
|
|
<time>2026-07-11T12:59:53.000Z</time>
|
|
</trkpt>
|
|
<trkpt lat="55.558882" lon="8.079720">
|
|
<ele>7.970678</ele>
|
|
<time>2026-07-11T12:59:54.000Z</time>
|
|
</trkpt>
|
|
<trkpt lat="55.558884" lon="8.079702">
|
|
<ele>7.950906</ele>
|
|
<time>2026-07-11T12:59:55.000Z</time>
|
|
</trkpt>
|
|
<trkpt lat="55.558884" lon="8.079685">
|
|
<ele>7.932583</ele>
|
|
<time>2026-07-11T12:59:56.000Z</time>
|
|
</trkpt>
|
|
<trkpt lat="55.558885" lon="8.079670">
|
|
<ele>7.916303</ele>
|
|
<time>2026-07-11T12:59:57.000Z</time>
|
|
</trkpt>
|
|
<trkpt lat="55.558887" lon="8.079655">
|
|
<ele>7.899692</ele>
|
|
<time>2026-07-11T12:59:58.000Z</time>
|
|
</trkpt>
|
|
<trkpt lat="55.558887" lon="8.079640">
|
|
<ele>7.883525</ele>
|
|
<time>2026-07-11T12:59:59.000Z</time>
|
|
</trkpt>
|
|
<trkpt lat="55.558891" lon="8.079624">
|
|
<ele>7.864670</ele>
|
|
<time>2026-07-11T13:00:00.000Z</time>
|
|
</trkpt>
|
|
<trkpt lat="55.558897" lon="8.079607">
|
|
<ele>7.843071</ele>
|
|
<time>2026-07-11T13:00:01.000Z</time>
|
|
</trkpt>
|
|
<trkpt lat="55.558899" lon="8.079592">
|
|
<ele>7.826461</ele>
|
|
<time>2026-07-11T13:00:02.000Z</time>
|
|
</trkpt>
|
|
<trkpt lat="55.558902" lon="8.079579">
|
|
<ele>7.811327</ele>
|
|
<time>2026-07-11T13:00:03.000Z</time>
|
|
</trkpt>
|
|
<trkpt lat="55.558907" lon="8.079566">
|
|
<ele>7.794382</ele>
|
|
<time>2026-07-11T13:00:04.000Z</time>
|
|
</trkpt>
|
|
<trkpt lat="55.558908" lon="8.079552">
|
|
<ele>7.779173</ele>
|
|
<time>2026-07-11T13:00:05.000Z</time>
|
|
</trkpt>
|
|
<trkpt lat="55.558910" lon="8.079538">
|
|
<ele>7.763609</ele>
|
|
<time>2026-07-11T13:00:06.000Z</time>
|
|
</trkpt>
|
|
<trkpt lat="55.558910" lon="8.079530">
|
|
<ele>7.754986</ele>
|
|
<time>2026-07-11T13:00:07.000Z</time>
|
|
</trkpt>
|
|
<trkpt lat="55.558929" lon="8.079403">
|
|
<ele>7.729687</ele>
|
|
<time>2026-07-11T13:00:17.000Z</time>
|
|
</trkpt>
|
|
<trkpt lat="55.558931" lon="8.079387">
|
|
<ele>7.727189</ele>
|
|
<time>2026-07-11T13:00:18.000Z</time>
|
|
</trkpt>
|
|
<trkpt lat="55.558933" lon="8.079370">
|
|
<ele>7.724542</ele>
|
|
<time>2026-07-11T13:00:19.000Z</time>
|
|
</trkpt>
|
|
<trkpt lat="55.558933" lon="8.079354">
|
|
<ele>7.722103</ele>
|
|
<time>2026-07-11T13:00:20.000Z</time>
|
|
</trkpt>
|
|
<trkpt lat="55.558932" lon="8.079335">
|
|
<ele>7.719195</ele>
|
|
<time>2026-07-11T13:00:21.000Z</time>
|
|
</trkpt>
|
|
<trkpt lat="55.558928" lon="8.079317">
|
|
<ele>7.716246</ele>
|
|
<time>2026-07-11T13:00:22.000Z</time>
|
|
</trkpt>
|
|
<trkpt lat="55.558927" lon="8.079301">
|
|
<ele>7.713793</ele>
|
|
<time>2026-07-11T13:00:23.000Z</time>
|
|
</trkpt>
|
|
<trkpt lat="55.558931" lon="8.079285">
|
|
<ele>7.711126</ele>
|
|
<time>2026-07-11T13:00:24.000Z</time>
|
|
</trkpt>
|
|
<trkpt lat="55.558933" lon="8.079270">
|
|
<ele>7.708777</ele>
|
|
<time>2026-07-11T13:00:25.000Z</time>
|
|
</trkpt>
|
|
<trkpt lat="55.558933" lon="8.079257">
|
|
<ele>7.706795</ele>
|
|
<time>2026-07-11T13:00:26.000Z</time>
|
|
</trkpt>
|
|
<trkpt lat="55.558933" lon="8.079244">
|
|
<ele>7.704813</ele>
|
|
<time>2026-07-11T13:00:27.000Z</time>
|
|
</trkpt>
|
|
<trkpt lat="55.558933" lon="8.079230">
|
|
<ele>7.702679</ele>
|
|
<time>2026-07-11T13:00:28.000Z</time>
|
|
</trkpt>
|
|
<trkpt lat="55.558935" lon="8.079216">
|
|
<ele>7.700478</ele>
|
|
<time>2026-07-11T13:00:29.000Z</time>
|
|
</trkpt>
|
|
<trkpt lat="55.558937" lon="8.079202">
|
|
<ele>7.698277</ele>
|
|
<time>2026-07-11T13:00:30.000Z</time>
|
|
</trkpt>
|
|
<trkpt lat="55.558937" lon="8.079189">
|
|
<ele>7.696295</ele>
|
|
<time>2026-07-11T13:00:31.000Z</time>
|
|
</trkpt>
|
|
<trkpt lat="55.558937" lon="8.079174">
|
|
<ele>7.694009</ele>
|
|
<time>2026-07-11T13:00:32.000Z</time>
|
|
</trkpt>
|
|
<trkpt lat="55.558937" lon="8.079161">
|
|
<ele>7.692027</ele>
|
|
<time>2026-07-11T13:00:33.000Z</time>
|
|
</trkpt>
|
|
<trkpt lat="55.558935" lon="8.079149">
|
|
<ele>7.690120</ele>
|
|
<time>2026-07-11T13:00:34.000Z</time>
|
|
</trkpt>
|
|
<trkpt lat="55.558933" lon="8.079139">
|
|
<ele>7.688503</ele>
|
|
<time>2026-07-11T13:00:35.000Z</time>
|
|
</trkpt>
|
|
<trkpt lat="55.558933" lon="8.079127">
|
|
<ele>7.686674</ele>
|
|
<time>2026-07-11T13:00:36.000Z</time>
|
|
</trkpt>
|
|
<trkpt lat="55.558933" lon="8.079113">
|
|
<ele>7.684540</ele>
|
|
<time>2026-07-11T13:00:37.000Z</time>
|
|
</trkpt>
|
|
<trkpt lat="55.558933" lon="8.079101">
|
|
<ele>7.682710</ele>
|
|
<time>2026-07-11T13:00:38.000Z</time>
|
|
</trkpt>
|
|
<trkpt lat="55.558932" lon="8.079088">
|
|
<ele>7.680710</ele>
|
|
<time>2026-07-11T13:00:39.000Z</time>
|
|
</trkpt>
|
|
<trkpt lat="55.558928" lon="8.079073">
|
|
<ele>7.678182</ele>
|
|
<time>2026-07-11T13:00:40.000Z</time>
|
|
</trkpt>
|
|
<trkpt lat="55.558924" lon="8.079060">
|
|
<ele>7.675926</ele>
|
|
<time>2026-07-11T13:00:41.000Z</time>
|
|
</trkpt>
|
|
<trkpt lat="55.558920" lon="8.079047">
|
|
<ele>7.673670</ele>
|
|
<time>2026-07-11T13:00:42.000Z</time>
|
|
</trkpt>
|
|
<trkpt lat="55.558918" lon="8.079036">
|
|
<ele>7.671909</ele>
|
|
<time>2026-07-11T13:00:43.000Z</time>
|
|
</trkpt>
|
|
<trkpt lat="55.558918" lon="8.079027">
|
|
<ele>7.670537</ele>
|
|
<time>2026-07-11T13:00:44.000Z</time>
|
|
</trkpt>
|
|
<trkpt lat="55.558916" lon="8.079017">
|
|
<ele>7.668920</ele>
|
|
<time>2026-07-11T13:00:45.000Z</time>
|
|
</trkpt>
|
|
<trkpt lat="55.558914" lon="8.079006">
|
|
<ele>7.667159</ele>
|
|
<time>2026-07-11T13:00:46.000Z</time>
|
|
</trkpt>
|
|
<trkpt lat="55.558913" lon="8.078996">
|
|
<ele>7.665611</ele>
|
|
<time>2026-07-11T13:00:47.000Z</time>
|
|
</trkpt>
|
|
<trkpt lat="55.558909" lon="8.078984">
|
|
<ele>7.663488</ele>
|
|
<time>2026-07-11T13:00:48.000Z</time>
|
|
</trkpt>
|
|
<trkpt lat="55.558905" lon="8.078972">
|
|
<ele>7.661364</ele>
|
|
<time>2026-07-11T13:00:49.000Z</time>
|
|
</trkpt>
|
|
<trkpt lat="55.558901" lon="8.078962">
|
|
<ele>7.659497</ele>
|
|
<time>2026-07-11T13:00:50.000Z</time>
|
|
</trkpt>
|
|
<trkpt lat="55.558897" lon="8.078951">
|
|
<ele>7.657504</ele>
|
|
<time>2026-07-11T13:00:51.000Z</time>
|
|
</trkpt>
|
|
<trkpt lat="55.558895" lon="8.078944">
|
|
<ele>7.656308</ele>
|
|
<time>2026-07-11T13:00:52.000Z</time>
|
|
</trkpt>
|
|
<trkpt lat="55.558893" lon="8.078937">
|
|
<ele>7.655113</ele>
|
|
<time>2026-07-11T13:00:53.000Z</time>
|
|
</trkpt>
|
|
<trkpt lat="55.558891" lon="8.078928">
|
|
<ele>7.653638</ele>
|
|
<time>2026-07-11T13:00:54.000Z</time>
|
|
</trkpt>
|
|
<trkpt lat="55.558891" lon="8.078917">
|
|
<ele>7.651962</ele>
|
|
<time>2026-07-11T13:00:55.000Z</time>
|
|
</trkpt>
|
|
<trkpt lat="55.558843" lon="8.078750">
|
|
<ele>7.623406</ele>
|
|
<time>2026-07-11T13:01:17.000Z</time>
|
|
</trkpt>
|
|
<trkpt lat="55.558846" lon="8.078745">
|
|
<ele>7.622294</ele>
|
|
<time>2026-07-11T13:01:18.000Z</time>
|
|
</trkpt>
|
|
<trkpt lat="55.558846" lon="8.078740">
|
|
<ele>7.621532</ele>
|
|
<time>2026-07-11T13:01:19.000Z</time>
|
|
</trkpt>
|
|
<trkpt lat="55.558844" lon="8.078739">
|
|
<ele>7.620972</ele>
|
|
<time>2026-07-11T13:01:20.000Z</time>
|
|
</trkpt>
|
|
<trkpt lat="55.558842" lon="8.078742">
|
|
<ele>7.620265</ele>
|
|
<time>2026-07-11T13:01:21.000Z</time>
|
|
</trkpt>
|
|
<trkpt lat="55.558836" lon="8.078709">
|
|
<ele>7.614981</ele>
|
|
<time>2026-07-11T13:01:26.000Z</time>
|
|
</trkpt>
|
|
<trkpt lat="55.558833" lon="8.078694">
|
|
<ele>7.612556</ele>
|
|
<time>2026-07-11T13:01:27.000Z</time>
|
|
</trkpt>
|
|
<trkpt lat="55.558830" lon="8.078679">
|
|
<ele>7.610130</ele>
|
|
<time>2026-07-11T13:01:28.000Z</time>
|
|
</trkpt>
|
|
<trkpt lat="55.558830" lon="8.078665">
|
|
<ele>7.607996</ele>
|
|
<time>2026-07-11T13:01:29.000Z</time>
|
|
</trkpt>
|
|
<trkpt lat="55.558832" lon="8.078649">
|
|
<ele>7.605498</ele>
|
|
<time>2026-07-11T13:01:30.000Z</time>
|
|
</trkpt>
|
|
<trkpt lat="55.558834" lon="8.078630">
|
|
<ele>7.602552</ele>
|
|
<time>2026-07-11T13:01:31.000Z</time>
|
|
</trkpt>
|
|
<trkpt lat="55.558836" lon="8.078615">
|
|
<ele>7.600203</ele>
|
|
<time>2026-07-11T13:01:32.000Z</time>
|
|
</trkpt>
|
|
<trkpt lat="55.558839" lon="8.078601">
|
|
<ele>7.597921</ele>
|
|
<time>2026-07-11T13:01:33.000Z</time>
|
|
</trkpt>
|
|
<trkpt lat="55.558842" lon="8.078586">
|
|
<ele>7.595495</ele>
|
|
<time>2026-07-11T13:01:34.000Z</time>
|
|
</trkpt>
|
|
<trkpt lat="55.558842" lon="8.078571">
|
|
<ele>7.593209</ele>
|
|
<time>2026-07-11T13:01:35.000Z</time>
|
|
</trkpt>
|
|
<trkpt lat="55.558842" lon="8.078559">
|
|
<ele>7.591380</ele>
|
|
<time>2026-07-11T13:01:36.000Z</time>
|
|
</trkpt>
|
|
<trkpt lat="55.558840" lon="8.078549">
|
|
<ele>7.589763</ele>
|
|
<time>2026-07-11T13:01:37.000Z</time>
|
|
</trkpt>
|
|
<trkpt lat="55.558838" lon="8.078537">
|
|
<ele>7.587856</ele>
|
|
<time>2026-07-11T13:01:38.000Z</time>
|
|
</trkpt>
|
|
<trkpt lat="55.558838" lon="8.078528">
|
|
<ele>7.586484</ele>
|
|
<time>2026-07-11T13:01:39.000Z</time>
|
|
</trkpt>
|
|
<trkpt lat="55.558840" lon="8.078526">
|
|
<ele>7.585864</ele>
|
|
<time>2026-07-11T13:01:40.000Z</time>
|
|
</trkpt>
|
|
<trkpt lat="55.558840" lon="8.078523">
|
|
<ele>7.585407</ele>
|
|
<time>2026-07-11T13:01:41.000Z</time>
|
|
</trkpt>
|
|
<trkpt lat="55.558838" lon="8.078522">
|
|
<ele>7.584847</ele>
|
|
<time>2026-07-11T13:01:42.000Z</time>
|
|
</trkpt>
|
|
<trkpt lat="55.558853" lon="8.078390">
|
|
<ele>7.564323</ele>
|
|
<time>2026-07-11T13:02:12.000Z</time>
|
|
</trkpt>
|
|
<trkpt lat="55.558855" lon="8.078378">
|
|
<ele>7.562416</ele>
|
|
<time>2026-07-11T13:02:13.000Z</time>
|
|
</trkpt>
|
|
<trkpt lat="55.558857" lon="8.078363">
|
|
<ele>7.560067</ele>
|
|
<time>2026-07-11T13:02:14.000Z</time>
|
|
</trkpt>
|
|
<trkpt lat="55.558859" lon="8.078346">
|
|
<ele>7.557420</ele>
|
|
<time>2026-07-11T13:02:15.000Z</time>
|
|
</trkpt>
|
|
<trkpt lat="55.558861" lon="8.078329">
|
|
<ele>7.554773</ele>
|
|
<time>2026-07-11T13:02:16.000Z</time>
|
|
</trkpt>
|
|
<trkpt lat="55.558861" lon="8.078311">
|
|
<ele>7.552029</ele>
|
|
<time>2026-07-11T13:02:17.000Z</time>
|
|
</trkpt>
|
|
<trkpt lat="55.558862" lon="8.078294">
|
|
<ele>7.549423</ele>
|
|
<time>2026-07-11T13:02:18.000Z</time>
|
|
</trkpt>
|
|
<trkpt lat="55.558865" lon="8.078277">
|
|
<ele>7.546709</ele>
|
|
<time>2026-07-11T13:02:19.000Z</time>
|
|
</trkpt>
|
|
<trkpt lat="55.558865" lon="8.078258">
|
|
<ele>7.543812</ele>
|
|
<time>2026-07-11T13:02:20.000Z</time>
|
|
</trkpt>
|
|
<trkpt lat="55.558866" lon="8.078239">
|
|
<ele>7.540904</ele>
|
|
<time>2026-07-11T13:02:21.000Z</time>
|
|
</trkpt>
|
|
<trkpt lat="55.558867" lon="8.078223">
|
|
<ele>7.538450</ele>
|
|
<time>2026-07-11T13:02:22.000Z</time>
|
|
</trkpt>
|
|
<trkpt lat="55.558863" lon="8.078205">
|
|
<ele>7.535502</ele>
|
|
<time>2026-07-11T13:02:23.000Z</time>
|
|
</trkpt>
|
|
<trkpt lat="55.558862" lon="8.078190">
|
|
<ele>7.533199</ele>
|
|
<time>2026-07-11T13:02:24.000Z</time>
|
|
</trkpt>
|
|
<trkpt lat="55.558865" lon="8.078177">
|
|
<ele>7.531059</ele>
|
|
<time>2026-07-11T13:02:25.000Z</time>
|
|
</trkpt>
|
|
<trkpt lat="55.558865" lon="8.078163">
|
|
<ele>7.528925</ele>
|
|
<time>2026-07-11T13:02:26.000Z</time>
|
|
</trkpt>
|
|
<trkpt lat="55.558865" lon="8.078149">
|
|
<ele>7.526791</ele>
|
|
<time>2026-07-11T13:02:27.000Z</time>
|
|
</trkpt>
|
|
<trkpt lat="55.558863" lon="8.078133">
|
|
<ele>7.524293</ele>
|
|
<time>2026-07-11T13:02:28.000Z</time>
|
|
</trkpt>
|
|
<trkpt lat="55.558861" lon="8.078114">
|
|
<ele>7.521347</ele>
|
|
<time>2026-07-11T13:02:29.000Z</time>
|
|
</trkpt>
|
|
<trkpt lat="55.558859" lon="8.078094">
|
|
<ele>7.518251</ele>
|
|
<time>2026-07-11T13:02:30.000Z</time>
|
|
</trkpt>
|
|
<trkpt lat="55.558855" lon="8.078075">
|
|
<ele>7.515160</ele>
|
|
<time>2026-07-11T13:02:31.000Z</time>
|
|
</trkpt>
|
|
<trkpt lat="55.558853" lon="8.078058">
|
|
<ele>7.512513</ele>
|
|
<time>2026-07-11T13:02:32.000Z</time>
|
|
</trkpt>
|
|
<trkpt lat="55.558853" lon="8.078040">
|
|
<ele>7.509769</ele>
|
|
<time>2026-07-11T13:02:33.000Z</time>
|
|
</trkpt>
|
|
<trkpt lat="55.558851" lon="8.078023">
|
|
<ele>7.507122</ele>
|
|
<time>2026-07-11T13:02:34.000Z</time>
|
|
</trkpt>
|
|
<trkpt lat="55.558851" lon="8.078006">
|
|
<ele>7.504531</ele>
|
|
<time>2026-07-11T13:02:35.000Z</time>
|
|
</trkpt>
|
|
<trkpt lat="55.558853" lon="8.077987">
|
|
<ele>7.501585</ele>
|
|
<time>2026-07-11T13:02:36.000Z</time>
|
|
</trkpt>
|
|
<trkpt lat="55.558853" lon="8.077969">
|
|
<ele>7.498841</ele>
|
|
<time>2026-07-11T13:02:37.000Z</time>
|
|
</trkpt>
|
|
<trkpt lat="55.558853" lon="8.077954">
|
|
<ele>7.496554</ele>
|
|
<time>2026-07-11T13:02:38.000Z</time>
|
|
</trkpt>
|
|
<trkpt lat="55.558853" lon="8.077949">
|
|
<ele>7.495792</ele>
|
|
<time>2026-07-11T13:02:39.000Z</time>
|
|
</trkpt>
|
|
<trkpt lat="55.558855" lon="8.077953">
|
|
<ele>7.494978</ele>
|
|
<time>2026-07-11T13:02:40.000Z</time>
|
|
</trkpt>
|
|
<trkpt lat="55.558857" lon="8.077952">
|
|
<ele>7.494418</ele>
|
|
<time>2026-07-11T13:02:41.000Z</time>
|
|
</trkpt>
|
|
<trkpt lat="55.558859" lon="8.077945">
|
|
<ele>7.493223</ele>
|
|
<time>2026-07-11T13:02:42.000Z</time>
|
|
</trkpt>
|
|
<trkpt lat="55.558859" lon="8.077937">
|
|
<ele>7.492003</ele>
|
|
<time>2026-07-11T13:02:43.000Z</time>
|
|
</trkpt>
|
|
<trkpt lat="55.558859" lon="8.077932">
|
|
<ele>7.491241</ele>
|
|
<time>2026-07-11T13:02:44.000Z</time>
|
|
</trkpt>
|
|
<trkpt lat="55.558842" lon="8.077954">
|
|
<ele>7.485563</ele>
|
|
<time>2026-07-11T13:02:56.000Z</time>
|
|
</trkpt>
|
|
<trkpt lat="55.558842" lon="8.077969">
|
|
<ele>7.483276</ele>
|
|
<time>2026-07-11T13:02:57.000Z</time>
|
|
</trkpt>
|
|
<trkpt lat="55.558840" lon="8.077990">
|
|
<ele>7.480030</ele>
|
|
<time>2026-07-11T13:02:58.000Z</time>
|
|
</trkpt>
|
|
<trkpt lat="55.558838" lon="8.078007">
|
|
<ele>7.477383</ele>
|
|
<time>2026-07-11T13:02:59.000Z</time>
|
|
</trkpt>
|
|
<trkpt lat="55.558836" lon="8.078023">
|
|
<ele>7.474885</ele>
|
|
<time>2026-07-11T13:03:00.000Z</time>
|
|
</trkpt>
|
|
<trkpt lat="55.558832" lon="8.078040">
|
|
<ele>7.472078</ele>
|
|
<time>2026-07-11T13:03:01.000Z</time>
|
|
</trkpt>
|
|
<trkpt lat="55.558829" lon="8.078059">
|
|
<ele>7.469071</ele>
|
|
<time>2026-07-11T13:03:02.000Z</time>
|
|
</trkpt>
|
|
<trkpt lat="55.558826" lon="8.078077">
|
|
<ele>7.466211</ele>
|
|
<time>2026-07-11T13:03:03.000Z</time>
|
|
</trkpt>
|
|
<trkpt lat="55.558826" lon="8.078096">
|
|
<ele>7.463314</ele>
|
|
<time>2026-07-11T13:03:04.000Z</time>
|
|
</trkpt>
|
|
<trkpt lat="55.558826" lon="8.078116">
|
|
<ele>7.460266</ele>
|
|
<time>2026-07-11T13:03:05.000Z</time>
|
|
</trkpt>
|
|
<trkpt lat="55.558826" lon="8.078136">
|
|
<ele>7.457217</ele>
|
|
<time>2026-07-11T13:03:06.000Z</time>
|
|
</trkpt>
|
|
<trkpt lat="55.558826" lon="8.078156">
|
|
<ele>7.454168</ele>
|
|
<time>2026-07-11T13:03:07.000Z</time>
|
|
</trkpt>
|
|
<trkpt lat="55.558826" lon="8.078177">
|
|
<ele>7.450967</ele>
|
|
<time>2026-07-11T13:03:08.000Z</time>
|
|
</trkpt>
|
|
<trkpt lat="55.558828" lon="8.078199">
|
|
<ele>7.447570</ele>
|
|
<time>2026-07-11T13:03:09.000Z</time>
|
|
</trkpt>
|
|
<trkpt lat="55.558830" lon="8.078220">
|
|
<ele>7.444324</ele>
|
|
<time>2026-07-11T13:03:10.000Z</time>
|
|
</trkpt>
|
|
<trkpt lat="55.558830" lon="8.078237">
|
|
<ele>7.441732</ele>
|
|
<time>2026-07-11T13:03:11.000Z</time>
|
|
</trkpt>
|
|
<trkpt lat="55.558829" lon="8.078254">
|
|
<ele>7.439127</ele>
|
|
<time>2026-07-11T13:03:12.000Z</time>
|
|
</trkpt>
|
|
<trkpt lat="55.558826" lon="8.078272">
|
|
<ele>7.436266</ele>
|
|
<time>2026-07-11T13:03:13.000Z</time>
|
|
</trkpt>
|
|
<trkpt lat="55.558825" lon="8.078289">
|
|
<ele>7.433661</ele>
|
|
<time>2026-07-11T13:03:14.000Z</time>
|
|
</trkpt>
|
|
<trkpt lat="55.558821" lon="8.078307">
|
|
<ele>7.430713</ele>
|
|
<time>2026-07-11T13:03:15.000Z</time>
|
|
</trkpt>
|
|
<trkpt lat="55.558817" lon="8.078322">
|
|
<ele>7.428185</ele>
|
|
<time>2026-07-11T13:03:16.000Z</time>
|
|
</trkpt>
|
|
<trkpt lat="55.558812" lon="8.078330">
|
|
<ele>7.426367</ele>
|
|
<time>2026-07-11T13:03:17.000Z</time>
|
|
</trkpt>
|
|
<trkpt lat="55.558801" lon="8.078328">
|
|
<ele>7.423387</ele>
|
|
<time>2026-07-11T13:03:18.000Z</time>
|
|
</trkpt>
|
|
<trkpt lat="55.558787" lon="8.078324">
|
|
<ele>7.419564</ele>
|
|
<time>2026-07-11T13:03:19.000Z</time>
|
|
</trkpt>
|
|
<trkpt lat="55.558779" lon="8.078318">
|
|
<ele>7.417222</ele>
|
|
<time>2026-07-11T13:03:20.000Z</time>
|
|
</trkpt>
|
|
<trkpt lat="55.558777" lon="8.078310">
|
|
<ele>7.415889</ele>
|
|
<time>2026-07-11T13:03:21.000Z</time>
|
|
</trkpt>
|
|
<trkpt lat="55.558770" lon="8.078296">
|
|
<ele>7.413040</ele>
|
|
<time>2026-07-11T13:03:22.000Z</time>
|
|
</trkpt>
|
|
<trkpt lat="55.558764" lon="8.078289">
|
|
<ele>7.411103</ele>
|
|
<time>2026-07-11T13:03:23.000Z</time>
|
|
</trkpt>
|
|
<trkpt lat="55.558760" lon="8.078285">
|
|
<ele>7.409864</ele>
|
|
<time>2026-07-11T13:03:24.000Z</time>
|
|
</trkpt>
|
|
<trkpt lat="55.558758" lon="8.078283">
|
|
<ele>7.409245</ele>
|
|
<time>2026-07-11T13:03:25.000Z</time>
|
|
</trkpt>
|
|
<trkpt lat="55.558751" lon="8.078280">
|
|
<ele>7.407303</ele>
|
|
<time>2026-07-11T13:03:26.000Z</time>
|
|
</trkpt>
|
|
<trkpt lat="55.558745" lon="8.078279">
|
|
<ele>7.405679</ele>
|
|
<time>2026-07-11T13:03:27.000Z</time>
|
|
</trkpt>
|
|
<trkpt lat="55.558739" lon="8.078280">
|
|
<ele>7.404055</ele>
|
|
<time>2026-07-11T13:03:28.000Z</time>
|
|
</trkpt>
|
|
<trkpt lat="55.558733" lon="8.078279">
|
|
<ele>7.402430</ele>
|
|
<time>2026-07-11T13:03:29.000Z</time>
|
|
</trkpt>
|
|
<trkpt lat="55.558723" lon="8.078147">
|
|
<ele>7.382129</ele>
|
|
<time>2026-07-11T13:03:42.000Z</time>
|
|
</trkpt>
|
|
<trkpt lat="55.558723" lon="8.078126">
|
|
<ele>7.378927</ele>
|
|
<time>2026-07-11T13:03:43.000Z</time>
|
|
</trkpt>
|
|
<trkpt lat="55.558723" lon="8.078112">
|
|
<ele>7.376793</ele>
|
|
<time>2026-07-11T13:03:44.000Z</time>
|
|
</trkpt>
|
|
<trkpt lat="55.558723" lon="8.078099">
|
|
<ele>7.374811</ele>
|
|
<time>2026-07-11T13:03:45.000Z</time>
|
|
</trkpt>
|
|
<trkpt lat="55.558723" lon="8.078090">
|
|
<ele>7.373440</ele>
|
|
<time>2026-07-11T13:03:46.000Z</time>
|
|
</trkpt>
|
|
<trkpt lat="55.558723" lon="8.078070">
|
|
<ele>7.370391</ele>
|
|
<time>2026-07-11T13:03:47.000Z</time>
|
|
</trkpt>
|
|
<trkpt lat="55.558722" lon="8.078055">
|
|
<ele>7.368088</ele>
|
|
<time>2026-07-11T13:03:48.000Z</time>
|
|
</trkpt>
|
|
<trkpt lat="55.558721" lon="8.078042">
|
|
<ele>7.366088</ele>
|
|
<time>2026-07-11T13:03:49.000Z</time>
|
|
</trkpt>
|
|
<trkpt lat="55.558723" lon="8.078032">
|
|
<ele>7.364471</ele>
|
|
<time>2026-07-11T13:03:50.000Z</time>
|
|
</trkpt>
|
|
<trkpt lat="55.558723" lon="8.078000">
|
|
<ele>7.359593</ele>
|
|
<time>2026-07-11T13:03:51.000Z</time>
|
|
</trkpt>
|
|
<trkpt lat="55.558723" lon="8.077981">
|
|
<ele>7.356697</ele>
|
|
<time>2026-07-11T13:03:52.000Z</time>
|
|
</trkpt>
|
|
<trkpt lat="55.558723" lon="8.077969">
|
|
<ele>7.354868</ele>
|
|
<time>2026-07-11T13:03:53.000Z</time>
|
|
</trkpt>
|
|
<trkpt lat="55.558723" lon="8.077941">
|
|
<ele>7.350600</ele>
|
|
<time>2026-07-11T13:03:54.000Z</time>
|
|
</trkpt>
|
|
<trkpt lat="55.558723" lon="8.077926">
|
|
<ele>7.348313</ele>
|
|
<time>2026-07-11T13:03:55.000Z</time>
|
|
</trkpt>
|
|
<trkpt lat="55.558723" lon="8.077913">
|
|
<ele>7.346331</ele>
|
|
<time>2026-07-11T13:03:56.000Z</time>
|
|
</trkpt>
|
|
<trkpt lat="55.558723" lon="8.077897">
|
|
<ele>7.343892</ele>
|
|
<time>2026-07-11T13:03:57.000Z</time>
|
|
</trkpt>
|
|
<trkpt lat="55.558723" lon="8.077882">
|
|
<ele>7.341606</ele>
|
|
<time>2026-07-11T13:03:58.000Z</time>
|
|
</trkpt>
|
|
<trkpt lat="55.558723" lon="8.077869">
|
|
<ele>7.339624</ele>
|
|
<time>2026-07-11T13:03:59.000Z</time>
|
|
</trkpt>
|
|
<trkpt lat="55.558723" lon="8.077860">
|
|
<ele>7.338252</ele>
|
|
<time>2026-07-11T13:04:00.000Z</time>
|
|
</trkpt>
|
|
<trkpt lat="55.558723" lon="8.077842">
|
|
<ele>7.335508</ele>
|
|
<time>2026-07-11T13:04:01.000Z</time>
|
|
</trkpt>
|
|
<trkpt lat="55.558723" lon="8.077830">
|
|
<ele>7.333679</ele>
|
|
<time>2026-07-11T13:04:02.000Z</time>
|
|
</trkpt>
|
|
<trkpt lat="55.558722" lon="8.077819">
|
|
<ele>7.331980</ele>
|
|
<time>2026-07-11T13:04:03.000Z</time>
|
|
</trkpt>
|
|
<trkpt lat="55.558720" lon="8.077814">
|
|
<ele>7.331047</ele>
|
|
<time>2026-07-11T13:04:04.000Z</time>
|
|
</trkpt>
|
|
<trkpt lat="55.558716" lon="8.077796">
|
|
<ele>7.328099</ele>
|
|
<time>2026-07-11T13:04:05.000Z</time>
|
|
</trkpt>
|
|
<trkpt lat="55.558712" lon="8.077782">
|
|
<ele>7.325708</ele>
|
|
<time>2026-07-11T13:04:06.000Z</time>
|
|
</trkpt>
|
|
<trkpt lat="55.558707" lon="8.077770">
|
|
<ele>7.323436</ele>
|
|
<time>2026-07-11T13:04:07.000Z</time>
|
|
</trkpt>
|
|
<trkpt lat="55.558705" lon="8.077763">
|
|
<ele>7.322240</ele>
|
|
<time>2026-07-11T13:04:08.000Z</time>
|
|
</trkpt>
|
|
<trkpt lat="55.558697" lon="8.077749">
|
|
<ele>7.319206</ele>
|
|
<time>2026-07-11T13:04:09.000Z</time>
|
|
</trkpt>
|
|
<trkpt lat="55.558697" lon="8.077735">
|
|
<ele>7.317072</ele>
|
|
<time>2026-07-11T13:04:10.000Z</time>
|
|
</trkpt>
|
|
<trkpt lat="55.558694" lon="8.077722">
|
|
<ele>7.314932</ele>
|
|
<time>2026-07-11T13:04:11.000Z</time>
|
|
</trkpt>
|
|
<trkpt lat="55.558689" lon="8.077710">
|
|
<ele>7.312660</ele>
|
|
<time>2026-07-11T13:04:12.000Z</time>
|
|
</trkpt>
|
|
<trkpt lat="55.558684" lon="8.077687">
|
|
<ele>7.308904</ele>
|
|
<time>2026-07-11T13:04:13.000Z</time>
|
|
</trkpt>
|
|
<trkpt lat="55.558678" lon="8.077672">
|
|
<ele>7.306103</ele>
|
|
<time>2026-07-11T13:04:14.000Z</time>
|
|
</trkpt>
|
|
<trkpt lat="55.558669" lon="8.077657">
|
|
<ele>7.302769</ele>
|
|
<time>2026-07-11T13:04:15.000Z</time>
|
|
</trkpt>
|
|
<trkpt lat="55.558661" lon="8.077635">
|
|
<ele>7.298782</ele>
|
|
<time>2026-07-11T13:04:16.000Z</time>
|
|
</trkpt>
|
|
<trkpt lat="55.558658" lon="8.077622">
|
|
<ele>7.296642</ele>
|
|
<time>2026-07-11T13:04:17.000Z</time>
|
|
</trkpt>
|
|
<trkpt lat="55.558655" lon="8.077602">
|
|
<ele>7.293488</ele>
|
|
<time>2026-07-11T13:04:18.000Z</time>
|
|
</trkpt>
|
|
<trkpt lat="55.558654" lon="8.077588">
|
|
<ele>7.291337</ele>
|
|
<time>2026-07-11T13:04:19.000Z</time>
|
|
</trkpt>
|
|
<trkpt lat="55.558651" lon="8.077574">
|
|
<ele>7.289054</ele>
|
|
<time>2026-07-11T13:04:20.000Z</time>
|
|
</trkpt>
|
|
<trkpt lat="55.558651" lon="8.077555">
|
|
<ele>7.286158</ele>
|
|
<time>2026-07-11T13:04:21.000Z</time>
|
|
</trkpt>
|
|
<trkpt lat="55.558649" lon="8.077541">
|
|
<ele>7.283957</ele>
|
|
<time>2026-07-11T13:04:22.000Z</time>
|
|
</trkpt>
|
|
<trkpt lat="55.558647" lon="8.077528">
|
|
<ele>7.281903</ele>
|
|
<time>2026-07-11T13:04:23.000Z</time>
|
|
</trkpt>
|
|
<trkpt lat="55.558647" lon="8.077517">
|
|
<ele>7.280226</ele>
|
|
<time>2026-07-11T13:04:24.000Z</time>
|
|
</trkpt>
|
|
<trkpt lat="55.558645" lon="8.077494">
|
|
<ele>7.276679</ele>
|
|
<time>2026-07-11T13:04:25.000Z</time>
|
|
</trkpt>
|
|
<trkpt lat="55.558643" lon="8.077478">
|
|
<ele>7.274181</ele>
|
|
<time>2026-07-11T13:04:26.000Z</time>
|
|
</trkpt>
|
|
<trkpt lat="55.558643" lon="8.077462">
|
|
<ele>7.271742</ele>
|
|
<time>2026-07-11T13:04:27.000Z</time>
|
|
</trkpt>
|
|
<trkpt lat="55.558647" lon="8.077439">
|
|
<ele>7.268074</ele>
|
|
<time>2026-07-11T13:04:28.000Z</time>
|
|
</trkpt>
|
|
<trkpt lat="55.558651" lon="8.077421">
|
|
<ele>7.265126</ele>
|
|
<time>2026-07-11T13:04:29.000Z</time>
|
|
</trkpt>
|
|
<trkpt lat="55.558651" lon="8.077408">
|
|
<ele>7.259113</ele>
|
|
<time>2026-07-11T13:04:30.000Z</time>
|
|
</trkpt>
|
|
<trkpt lat="55.558656" lon="8.077381">
|
|
<ele>7.235422</ele>
|
|
<time>2026-07-11T13:04:31.000Z</time>
|
|
</trkpt>
|
|
<trkpt lat="55.558660" lon="8.077367">
|
|
<ele>7.222342</ele>
|
|
<time>2026-07-11T13:04:32.000Z</time>
|
|
</trkpt>
|
|
<trkpt lat="55.558663" lon="8.077354">
|
|
<ele>7.210634</ele>
|
|
<time>2026-07-11T13:04:33.000Z</time>
|
|
</trkpt>
|
|
<trkpt lat="55.558665" lon="8.077327">
|
|
<ele>7.187927</ele>
|
|
<time>2026-07-11T13:04:34.000Z</time>
|
|
</trkpt>
|
|
<trkpt lat="55.558661" lon="8.077311">
|
|
<ele>7.173339</ele>
|
|
<time>2026-07-11T13:04:35.000Z</time>
|
|
</trkpt>
|
|
<trkpt lat="55.558659" lon="8.077301">
|
|
<ele>7.164494</ele>
|
|
<time>2026-07-11T13:04:36.000Z</time>
|
|
</trkpt>
|
|
<trkpt lat="55.558657" lon="8.077273">
|
|
<ele>7.140960</ele>
|
|
<time>2026-07-11T13:04:37.000Z</time>
|
|
</trkpt>
|
|
<trkpt lat="55.558655" lon="8.077261">
|
|
<ele>7.130528</ele>
|
|
<time>2026-07-11T13:04:38.000Z</time>
|
|
</trkpt>
|
|
<trkpt lat="55.558655" lon="8.077252">
|
|
<ele>7.123023</ele>
|
|
<time>2026-07-11T13:04:39.000Z</time>
|
|
</trkpt>
|
|
<trkpt lat="55.558651" lon="8.077232">
|
|
<ele>7.105333</ele>
|
|
<time>2026-07-11T13:04:40.000Z</time>
|
|
</trkpt>
|
|
<trkpt lat="55.558649" lon="8.077219">
|
|
<ele>7.094099</ele>
|
|
<time>2026-07-11T13:04:41.000Z</time>
|
|
</trkpt>
|
|
<trkpt lat="55.558647" lon="8.077207">
|
|
<ele>7.083667</ele>
|
|
<time>2026-07-11T13:04:42.000Z</time>
|
|
</trkpt>
|
|
<trkpt lat="55.558647" lon="8.077198">
|
|
<ele>7.076162</ele>
|
|
<time>2026-07-11T13:04:43.000Z</time>
|
|
</trkpt>
|
|
<trkpt lat="55.558645" lon="8.077182">
|
|
<ele>7.062497</ele>
|
|
<time>2026-07-11T13:04:44.000Z</time>
|
|
</trkpt>
|
|
<trkpt lat="55.558640" lon="8.077169">
|
|
<ele>7.049388</ele>
|
|
<time>2026-07-11T13:04:45.000Z</time>
|
|
</trkpt>
|
|
<trkpt lat="55.558635" lon="8.077158">
|
|
<ele>7.037620</ele>
|
|
<time>2026-07-11T13:04:46.000Z</time>
|
|
</trkpt>
|
|
<trkpt lat="55.558632" lon="8.077149">
|
|
<ele>7.028908</ele>
|
|
<time>2026-07-11T13:04:47.000Z</time>
|
|
</trkpt>
|
|
<trkpt lat="55.558623" lon="8.077132">
|
|
<ele>7.009490</ele>
|
|
<time>2026-07-11T13:04:48.000Z</time>
|
|
</trkpt>
|
|
<trkpt lat="55.558617" lon="8.077120">
|
|
<ele>6.996134</ele>
|
|
<time>2026-07-11T13:04:49.000Z</time>
|
|
</trkpt>
|
|
<trkpt lat="55.558612" lon="8.077110">
|
|
<ele>6.985003</ele>
|
|
<time>2026-07-11T13:04:50.000Z</time>
|
|
</trkpt>
|
|
<trkpt lat="55.558609" lon="8.077103">
|
|
<ele>6.977680</ele>
|
|
<time>2026-07-11T13:04:51.000Z</time>
|
|
</trkpt>
|
|
<trkpt lat="55.558600" lon="8.077084">
|
|
<ele>6.957013</ele>
|
|
<time>2026-07-11T13:04:52.000Z</time>
|
|
</trkpt>
|
|
<trkpt lat="55.558595" lon="8.077071">
|
|
<ele>6.943903</ele>
|
|
<time>2026-07-11T13:04:53.000Z</time>
|
|
</trkpt>
|
|
<trkpt lat="55.558589" lon="8.077060">
|
|
<ele>6.931159</ele>
|
|
<time>2026-07-11T13:04:54.000Z</time>
|
|
</trkpt>
|
|
<trkpt lat="55.558584" lon="8.077037">
|
|
<ele>6.910612</ele>
|
|
<time>2026-07-11T13:04:55.000Z</time>
|
|
</trkpt>
|
|
<trkpt lat="55.558582" lon="8.077021">
|
|
<ele>6.896948</ele>
|
|
<time>2026-07-11T13:04:56.000Z</time>
|
|
</trkpt>
|
|
<trkpt lat="55.558582" lon="8.077010">
|
|
<ele>6.887775</ele>
|
|
<time>2026-07-11T13:04:57.000Z</time>
|
|
</trkpt>
|
|
<trkpt lat="55.558577" lon="8.076983">
|
|
<ele>6.864084</ele>
|
|
<time>2026-07-11T13:04:58.000Z</time>
|
|
</trkpt>
|
|
<trkpt lat="55.558573" lon="8.076968">
|
|
<ele>6.850255</ele>
|
|
<time>2026-07-11T13:04:59.000Z</time>
|
|
</trkpt>
|
|
<trkpt lat="55.558571" lon="8.076956">
|
|
<ele>6.839822</ele>
|
|
<time>2026-07-11T13:05:00.000Z</time>
|
|
</trkpt>
|
|
<trkpt lat="55.558564" lon="8.076930">
|
|
<ele>6.815810</ele>
|
|
<time>2026-07-11T13:05:01.000Z</time>
|
|
</trkpt>
|
|
<trkpt lat="55.558558" lon="8.076912">
|
|
<ele>6.798387</ele>
|
|
<time>2026-07-11T13:05:02.000Z</time>
|
|
</trkpt>
|
|
<trkpt lat="55.558555" lon="8.076896">
|
|
<ele>6.784331</ele>
|
|
<time>2026-07-11T13:05:03.000Z</time>
|
|
</trkpt>
|
|
<trkpt lat="55.558550" lon="8.076870">
|
|
<ele>6.761431</ele>
|
|
<time>2026-07-11T13:05:04.000Z</time>
|
|
</trkpt>
|
|
<trkpt lat="55.558547" lon="8.076851">
|
|
<ele>6.744981</ele>
|
|
<time>2026-07-11T13:05:05.000Z</time>
|
|
</trkpt>
|
|
<trkpt lat="55.558544" lon="8.076835">
|
|
<ele>6.730925</ele>
|
|
<time>2026-07-11T13:05:06.000Z</time>
|
|
</trkpt>
|
|
<trkpt lat="55.558536" lon="8.076805">
|
|
<ele>6.703266</ele>
|
|
<time>2026-07-11T13:05:07.000Z</time>
|
|
</trkpt>
|
|
<trkpt lat="55.558534" lon="8.076788">
|
|
<ele>6.688787</ele>
|
|
<time>2026-07-11T13:05:08.000Z</time>
|
|
</trkpt>
|
|
<trkpt lat="55.558529" lon="8.076775">
|
|
<ele>6.675677</ele>
|
|
<time>2026-07-11T13:05:09.000Z</time>
|
|
</trkpt>
|
|
<trkpt lat="55.558525" lon="8.076745">
|
|
<ele>6.649975</ele>
|
|
<time>2026-07-11T13:05:10.000Z</time>
|
|
</trkpt>
|
|
<trkpt lat="55.558525" lon="8.076729">
|
|
<ele>6.636632</ele>
|
|
<time>2026-07-11T13:05:11.000Z</time>
|
|
</trkpt>
|
|
<trkpt lat="55.558525" lon="8.076718">
|
|
<ele>6.627460</ele>
|
|
<time>2026-07-11T13:05:12.000Z</time>
|
|
</trkpt>
|
|
<trkpt lat="55.558518" lon="8.076686">
|
|
<ele>6.598849</ele>
|
|
<time>2026-07-11T13:05:13.000Z</time>
|
|
</trkpt>
|
|
<trkpt lat="55.558512" lon="8.076670">
|
|
<ele>6.582840</ele>
|
|
<time>2026-07-11T13:05:14.000Z</time>
|
|
</trkpt>
|
|
<trkpt lat="55.558510" lon="8.076655">
|
|
<ele>6.569989</ele>
|
|
<time>2026-07-11T13:05:15.000Z</time>
|
|
</trkpt>
|
|
<trkpt lat="55.558507" lon="8.076635">
|
|
<ele>6.552735</ele>
|
|
<time>2026-07-11T13:05:16.000Z</time>
|
|
</trkpt>
|
|
<trkpt lat="55.558501" lon="8.076620">
|
|
<ele>6.537414</ele>
|
|
<time>2026-07-11T13:05:17.000Z</time>
|
|
</trkpt>
|
|
<trkpt lat="55.558499" lon="8.076608">
|
|
<ele>6.526982</ele>
|
|
<time>2026-07-11T13:05:18.000Z</time>
|
|
</trkpt>
|
|
<trkpt lat="55.558497" lon="8.076580">
|
|
<ele>6.503447</ele>
|
|
<time>2026-07-11T13:05:19.000Z</time>
|
|
</trkpt>
|
|
<trkpt lat="55.558493" lon="8.076564">
|
|
<ele>6.488860</ele>
|
|
<time>2026-07-11T13:05:20.000Z</time>
|
|
</trkpt>
|
|
<trkpt lat="55.558491" lon="8.076549">
|
|
<ele>6.476009</ele>
|
|
<time>2026-07-11T13:05:21.000Z</time>
|
|
</trkpt>
|
|
<trkpt lat="55.558489" lon="8.076528">
|
|
<ele>6.458250</ele>
|
|
<time>2026-07-11T13:05:22.000Z</time>
|
|
</trkpt>
|
|
<trkpt lat="55.558486" lon="8.076512">
|
|
<ele>6.444194</ele>
|
|
<time>2026-07-11T13:05:23.000Z</time>
|
|
</trkpt>
|
|
<trkpt lat="55.558483" lon="8.076499">
|
|
<ele>6.432486</ele>
|
|
<time>2026-07-11T13:05:24.000Z</time>
|
|
</trkpt>
|
|
<trkpt lat="55.558476" lon="8.076476">
|
|
<ele>6.410706</ele>
|
|
<time>2026-07-11T13:05:25.000Z</time>
|
|
</trkpt>
|
|
<trkpt lat="55.558472" lon="8.076462">
|
|
<ele>6.397626</ele>
|
|
<time>2026-07-11T13:05:26.000Z</time>
|
|
</trkpt>
|
|
<trkpt lat="55.558471" lon="8.076450">
|
|
<ele>6.387511</ele>
|
|
<time>2026-07-11T13:05:27.000Z</time>
|
|
</trkpt>
|
|
<trkpt lat="55.558462" lon="8.076426">
|
|
<ele>6.363498</ele>
|
|
<time>2026-07-11T13:05:28.000Z</time>
|
|
</trkpt>
|
|
<trkpt lat="55.558459" lon="8.076410">
|
|
<ele>6.349442</ele>
|
|
<time>2026-07-11T13:05:29.000Z</time>
|
|
</trkpt>
|
|
<trkpt lat="55.558457" lon="8.076399">
|
|
<ele>6.339807</ele>
|
|
<time>2026-07-11T13:05:30.000Z</time>
|
|
</trkpt>
|
|
<trkpt lat="55.558451" lon="8.076371">
|
|
<ele>6.314838</ele>
|
|
<time>2026-07-11T13:05:31.000Z</time>
|
|
</trkpt>
|
|
<trkpt lat="55.558449" lon="8.076355">
|
|
<ele>6.301174</ele>
|
|
<time>2026-07-11T13:05:32.000Z</time>
|
|
</trkpt>
|
|
<trkpt lat="55.558449" lon="8.076340">
|
|
<ele>6.288665</ele>
|
|
<time>2026-07-11T13:05:33.000Z</time>
|
|
</trkpt>
|
|
<trkpt lat="55.558447" lon="8.076313">
|
|
<ele>6.265958</ele>
|
|
<time>2026-07-11T13:05:34.000Z</time>
|
|
</trkpt>
|
|
<trkpt lat="55.558445" lon="8.076297">
|
|
<ele>6.252294</ele>
|
|
<time>2026-07-11T13:05:35.000Z</time>
|
|
</trkpt>
|
|
<trkpt lat="55.558445" lon="8.076287">
|
|
<ele>6.243955</ele>
|
|
<time>2026-07-11T13:05:36.000Z</time>
|
|
</trkpt>
|
|
<trkpt lat="55.558440" lon="8.076252">
|
|
<ele>6.213852</ele>
|
|
<time>2026-07-11T13:05:37.000Z</time>
|
|
</trkpt>
|
|
<trkpt lat="55.558436" lon="8.076237">
|
|
<ele>6.200023</ele>
|
|
<time>2026-07-11T13:05:38.000Z</time>
|
|
</trkpt>
|
|
<trkpt lat="55.558433" lon="8.076224">
|
|
<ele>6.188315</ele>
|
|
<time>2026-07-11T13:05:39.000Z</time>
|
|
</trkpt>
|
|
<trkpt lat="55.558426" lon="8.076199">
|
|
<ele>6.165053</ele>
|
|
<time>2026-07-11T13:05:40.000Z</time>
|
|
</trkpt>
|
|
<trkpt lat="55.558425" lon="8.076186">
|
|
<ele>6.154112</ele>
|
|
<time>2026-07-11T13:05:41.000Z</time>
|
|
</trkpt>
|
|
<trkpt lat="55.558422" lon="8.076176">
|
|
<ele>6.144673</ele>
|
|
<time>2026-07-11T13:05:42.000Z</time>
|
|
</trkpt>
|
|
<trkpt lat="55.558420" lon="8.076149">
|
|
<ele>6.121965</ele>
|
|
<time>2026-07-11T13:05:43.000Z</time>
|
|
</trkpt>
|
|
<trkpt lat="55.558418" lon="8.076134">
|
|
<ele>6.109114</ele>
|
|
<time>2026-07-11T13:05:44.000Z</time>
|
|
</trkpt>
|
|
<trkpt lat="55.558418" lon="8.076122">
|
|
<ele>6.099107</ele>
|
|
<time>2026-07-11T13:05:45.000Z</time>
|
|
</trkpt>
|
|
<trkpt lat="55.558413" lon="8.076093">
|
|
<ele>6.073826</ele>
|
|
<time>2026-07-11T13:05:46.000Z</time>
|
|
</trkpt>
|
|
<trkpt lat="55.558411" lon="8.076074">
|
|
<ele>6.057710</ele>
|
|
<time>2026-07-11T13:05:47.000Z</time>
|
|
</trkpt>
|
|
<trkpt lat="55.558411" lon="8.076061">
|
|
<ele>6.046869</ele>
|
|
<time>2026-07-11T13:05:48.000Z</time>
|
|
</trkpt>
|
|
<trkpt lat="55.558408" lon="8.076028">
|
|
<ele>6.018998</ele>
|
|
<time>2026-07-11T13:05:49.000Z</time>
|
|
</trkpt>
|
|
<trkpt lat="55.558411" lon="8.076010">
|
|
<ele>6.003349</ele>
|
|
<time>2026-07-11T13:05:50.000Z</time>
|
|
</trkpt>
|
|
<trkpt lat="55.558410" lon="8.075994">
|
|
<ele>5.989926</ele>
|
|
<time>2026-07-11T13:05:51.000Z</time>
|
|
</trkpt>
|
|
<trkpt lat="55.558403" lon="8.075976">
|
|
<ele>5.971710</ele>
|
|
<time>2026-07-11T13:05:52.000Z</time>
|
|
</trkpt>
|
|
<trkpt lat="55.558398" lon="8.075965">
|
|
<ele>5.959942</ele>
|
|
<time>2026-07-11T13:05:53.000Z</time>
|
|
</trkpt>
|
|
<trkpt lat="55.558396" lon="8.075956">
|
|
<ele>5.951878</ele>
|
|
<time>2026-07-11T13:05:54.000Z</time>
|
|
</trkpt>
|
|
<trkpt lat="55.558388" lon="8.075929">
|
|
<ele>5.926460</ele>
|
|
<time>2026-07-11T13:05:55.000Z</time>
|
|
</trkpt>
|
|
<trkpt lat="55.558383" lon="8.075915">
|
|
<ele>5.912653</ele>
|
|
<time>2026-07-11T13:05:56.000Z</time>
|
|
</trkpt>
|
|
<trkpt lat="55.558380" lon="8.075902">
|
|
<ele>5.900945</ele>
|
|
<time>2026-07-11T13:05:57.000Z</time>
|
|
</trkpt>
|
|
<trkpt lat="55.558378" lon="8.075875">
|
|
<ele>5.878237</ele>
|
|
<time>2026-07-11T13:05:58.000Z</time>
|
|
</trkpt>
|
|
<trkpt lat="55.558375" lon="8.075860">
|
|
<ele>5.864970</ele>
|
|
<time>2026-07-11T13:05:59.000Z</time>
|
|
</trkpt>
|
|
<trkpt lat="55.558373" lon="8.075849">
|
|
<ele>5.855335</ele>
|
|
<time>2026-07-11T13:06:00.000Z</time>
|
|
</trkpt>
|
|
<trkpt lat="55.558367" lon="8.075823">
|
|
<ele>5.831918</ele>
|
|
<time>2026-07-11T13:06:01.000Z</time>
|
|
</trkpt>
|
|
<trkpt lat="55.558365" lon="8.075808">
|
|
<ele>5.819067</ele>
|
|
<time>2026-07-11T13:06:02.000Z</time>
|
|
</trkpt>
|
|
<trkpt lat="55.558365" lon="8.075797">
|
|
<ele>5.809894</ele>
|
|
<time>2026-07-11T13:06:03.000Z</time>
|
|
</trkpt>
|
|
<trkpt lat="55.558359" lon="8.075769">
|
|
<ele>5.784925</ele>
|
|
<time>2026-07-11T13:06:04.000Z</time>
|
|
</trkpt>
|
|
<trkpt lat="55.558355" lon="8.075755">
|
|
<ele>5.771846</ele>
|
|
<time>2026-07-11T13:06:05.000Z</time>
|
|
</trkpt>
|
|
<trkpt lat="55.558350" lon="8.075745">
|
|
<ele>5.760715</ele>
|
|
<time>2026-07-11T13:06:06.000Z</time>
|
|
</trkpt>
|
|
<trkpt lat="55.558348" lon="8.075718">
|
|
<ele>5.738008</ele>
|
|
<time>2026-07-11T13:06:07.000Z</time>
|
|
</trkpt>
|
|
<trkpt lat="55.558345" lon="8.075703">
|
|
<ele>5.724740</ele>
|
|
<time>2026-07-11T13:06:08.000Z</time>
|
|
</trkpt>
|
|
<trkpt lat="55.558342" lon="8.075692">
|
|
<ele>5.714557</ele>
|
|
<time>2026-07-11T13:06:09.000Z</time>
|
|
</trkpt>
|
|
<trkpt lat="55.558335" lon="8.075669">
|
|
<ele>5.692777</ele>
|
|
<time>2026-07-11T13:06:10.000Z</time>
|
|
</trkpt>
|
|
<trkpt lat="55.558330" lon="8.075654">
|
|
<ele>5.678257</ele>
|
|
<time>2026-07-11T13:06:11.000Z</time>
|
|
</trkpt>
|
|
<trkpt lat="55.558327" lon="8.075642">
|
|
<ele>5.667317</ele>
|
|
<time>2026-07-11T13:06:12.000Z</time>
|
|
</trkpt>
|
|
<trkpt lat="55.558325" lon="8.075616">
|
|
<ele>5.645436</ele>
|
|
<time>2026-07-11T13:06:13.000Z</time>
|
|
</trkpt>
|
|
<trkpt lat="55.558323" lon="8.075602">
|
|
<ele>5.633395</ele>
|
|
<time>2026-07-11T13:06:14.000Z</time>
|
|
</trkpt>
|
|
<trkpt lat="55.558323" lon="8.075592">
|
|
<ele>5.625056</ele>
|
|
<time>2026-07-11T13:06:15.000Z</time>
|
|
</trkpt>
|
|
<trkpt lat="55.558332" lon="8.075567">
|
|
<ele>5.600343</ele>
|
|
<time>2026-07-11T13:06:16.000Z</time>
|
|
</trkpt>
|
|
<trkpt lat="55.558335" lon="8.075555">
|
|
<ele>5.589403</ele>
|
|
<time>2026-07-11T13:06:17.000Z</time>
|
|
</trkpt>
|
|
<trkpt lat="55.558337" lon="8.075547">
|
|
<ele>5.582109</ele>
|
|
<time>2026-07-11T13:06:18.000Z</time>
|
|
</trkpt>
|
|
<trkpt lat="55.558342" lon="8.075522">
|
|
<ele>5.559996</ele>
|
|
<time>2026-07-11T13:06:19.000Z</time>
|
|
</trkpt>
|
|
<trkpt lat="55.558344" lon="8.075505">
|
|
<ele>5.545517</ele>
|
|
<time>2026-07-11T13:06:20.000Z</time>
|
|
</trkpt>
|
|
<trkpt lat="55.558349" lon="8.075493">
|
|
<ele>5.533087</ele>
|
|
<time>2026-07-11T13:06:21.000Z</time>
|
|
</trkpt>
|
|
<trkpt lat="55.558353" lon="8.075464">
|
|
<ele>5.508196</ele>
|
|
<time>2026-07-11T13:06:22.000Z</time>
|
|
</trkpt>
|
|
<trkpt lat="55.558354" lon="8.075450">
|
|
<ele>5.496429</ele>
|
|
<time>2026-07-11T13:06:23.000Z</time>
|
|
</trkpt>
|
|
<trkpt lat="55.558356" lon="8.075439">
|
|
<ele>5.486793</ele>
|
|
<time>2026-07-11T13:06:24.000Z</time>
|
|
</trkpt>
|
|
<trkpt lat="55.558361" lon="8.075414">
|
|
<ele>5.464681</ele>
|
|
<time>2026-07-11T13:06:25.000Z</time>
|
|
</trkpt>
|
|
<trkpt lat="55.558367" lon="8.075383">
|
|
<ele>5.437359</ele>
|
|
<time>2026-07-11T13:06:26.000Z</time>
|
|
</trkpt>
|
|
<trkpt lat="55.558372" lon="8.075362">
|
|
<ele>5.418358</ele>
|
|
<time>2026-07-11T13:06:27.000Z</time>
|
|
</trkpt>
|
|
<trkpt lat="55.558378" lon="8.075343">
|
|
<ele>5.400212</ele>
|
|
<time>2026-07-11T13:06:28.000Z</time>
|
|
</trkpt>
|
|
<trkpt lat="55.558380" lon="8.075327">
|
|
<ele>5.386548</ele>
|
|
<time>2026-07-11T13:06:29.000Z</time>
|
|
</trkpt>
|
|
<trkpt lat="55.558380" lon="8.075315">
|
|
<ele>5.376541</ele>
|
|
<time>2026-07-11T13:06:30.000Z</time>
|
|
</trkpt>
|
|
<trkpt lat="55.558390" lon="8.075286">
|
|
<ele>5.348218</ele>
|
|
<time>2026-07-11T13:06:31.000Z</time>
|
|
</trkpt>
|
|
<trkpt lat="55.558396" lon="8.075270">
|
|
<ele>5.332209</ele>
|
|
<time>2026-07-11T13:06:32.000Z</time>
|
|
</trkpt>
|
|
<trkpt lat="55.558401" lon="8.075253">
|
|
<ele>5.316230</ele>
|
|
<time>2026-07-11T13:06:33.000Z</time>
|
|
</trkpt>
|
|
<trkpt lat="55.558405" lon="8.075238">
|
|
<ele>5.302401</ele>
|
|
<time>2026-07-11T13:06:34.000Z</time>
|
|
</trkpt>
|
|
<trkpt lat="55.558410" lon="8.075223">
|
|
<ele>5.287882</ele>
|
|
<time>2026-07-11T13:06:35.000Z</time>
|
|
</trkpt>
|
|
<trkpt lat="55.558416" lon="8.075209">
|
|
<ele>5.273234</ele>
|
|
<time>2026-07-11T13:06:36.000Z</time>
|
|
</trkpt>
|
|
<trkpt lat="55.558421" lon="8.075197">
|
|
<ele>5.260805</ele>
|
|
<time>2026-07-11T13:06:37.000Z</time>
|
|
</trkpt>
|
|
<trkpt lat="55.558428" lon="8.075173">
|
|
<ele>5.238287</ele>
|
|
<time>2026-07-11T13:06:38.000Z</time>
|
|
</trkpt>
|
|
<trkpt lat="55.558437" lon="8.075149">
|
|
<ele>5.214274</ele>
|
|
<time>2026-07-11T13:06:39.000Z</time>
|
|
</trkpt>
|
|
<trkpt lat="55.558444" lon="8.075131">
|
|
<ele>5.196058</ele>
|
|
<time>2026-07-11T13:06:40.000Z</time>
|
|
</trkpt>
|
|
<trkpt lat="55.558452" lon="8.075111">
|
|
<ele>5.175631</ele>
|
|
<time>2026-07-11T13:06:41.000Z</time>
|
|
</trkpt>
|
|
<trkpt lat="55.558460" lon="8.075095">
|
|
<ele>5.157822</ele>
|
|
<time>2026-07-11T13:06:42.000Z</time>
|
|
</trkpt>
|
|
<trkpt lat="55.558467" lon="8.075080">
|
|
<ele>5.141605</ele>
|
|
<time>2026-07-11T13:06:43.000Z</time>
|
|
</trkpt>
|
|
<trkpt lat="55.558473" lon="8.075064">
|
|
<ele>5.125597</ele>
|
|
<time>2026-07-11T13:06:44.000Z</time>
|
|
</trkpt>
|
|
<trkpt lat="55.558477" lon="8.075047">
|
|
<ele>5.110243</ele>
|
|
<time>2026-07-11T13:06:45.000Z</time>
|
|
</trkpt>
|
|
<trkpt lat="55.558481" lon="8.075031">
|
|
<ele>5.095655</ele>
|
|
<time>2026-07-11T13:06:46.000Z</time>
|
|
</trkpt>
|
|
<trkpt lat="55.558486" lon="8.075016">
|
|
<ele>5.081136</ele>
|
|
<time>2026-07-11T13:06:47.000Z</time>
|
|
</trkpt>
|
|
<trkpt lat="55.558492" lon="8.075003">
|
|
<ele>5.067144</ele>
|
|
<time>2026-07-11T13:06:48.000Z</time>
|
|
</trkpt>
|
|
<trkpt lat="55.558496" lon="8.074992">
|
|
<ele>5.056238</ele>
|
|
<time>2026-07-11T13:06:49.000Z</time>
|
|
</trkpt>
|
|
<trkpt lat="55.558502" lon="8.074977">
|
|
<ele>5.040918</ele>
|
|
<time>2026-07-11T13:06:50.000Z</time>
|
|
</trkpt>
|
|
<trkpt lat="55.558508" lon="8.074960">
|
|
<ele>5.024208</ele>
|
|
<time>2026-07-11T13:06:51.000Z</time>
|
|
</trkpt>
|
|
<trkpt lat="55.558513" lon="8.074942">
|
|
<ele>5.007485</ele>
|
|
<time>2026-07-11T13:06:52.000Z</time>
|
|
</trkpt>
|
|
<trkpt lat="55.558519" lon="8.074923">
|
|
<ele>4.989339</ele>
|
|
<time>2026-07-11T13:06:53.000Z</time>
|
|
</trkpt>
|
|
<trkpt lat="55.558523" lon="8.074904">
|
|
<ele>4.972433</ele>
|
|
<time>2026-07-11T13:06:54.000Z</time>
|
|
</trkpt>
|
|
<trkpt lat="55.558525" lon="8.074882">
|
|
<ele>4.953852</ele>
|
|
<time>2026-07-11T13:06:55.000Z</time>
|
|
</trkpt>
|
|
<trkpt lat="55.558527" lon="8.074861">
|
|
<ele>4.936093</ele>
|
|
<time>2026-07-11T13:06:56.000Z</time>
|
|
</trkpt>
|
|
<trkpt lat="55.558532" lon="8.074842">
|
|
<ele>4.918618</ele>
|
|
<time>2026-07-11T13:06:57.000Z</time>
|
|
</trkpt>
|
|
<trkpt lat="55.558538" lon="8.074823">
|
|
<ele>4.900472</ele>
|
|
<time>2026-07-11T13:06:58.000Z</time>
|
|
</trkpt>
|
|
<trkpt lat="55.558544" lon="8.074806">
|
|
<ele>4.883762</ele>
|
|
<time>2026-07-11T13:06:59.000Z</time>
|
|
</trkpt>
|
|
<trkpt lat="55.558550" lon="8.074790">
|
|
<ele>4.867753</ele>
|
|
<time>2026-07-11T13:07:00.000Z</time>
|
|
</trkpt>
|
|
<trkpt lat="55.558554" lon="8.074772">
|
|
<ele>4.851626</ele>
|
|
<time>2026-07-11T13:07:01.000Z</time>
|
|
</trkpt>
|
|
<trkpt lat="55.558557" lon="8.074755">
|
|
<ele>4.836776</ele>
|
|
<time>2026-07-11T13:07:02.000Z</time>
|
|
</trkpt>
|
|
<trkpt lat="55.558561" lon="8.074739">
|
|
<ele>4.822188</ele>
|
|
<time>2026-07-11T13:07:03.000Z</time>
|
|
</trkpt>
|
|
<trkpt lat="55.558565" lon="8.074721">
|
|
<ele>4.806061</ele>
|
|
<time>2026-07-11T13:07:04.000Z</time>
|
|
</trkpt>
|
|
<trkpt lat="55.558570" lon="8.074703">
|
|
<ele>4.789339</ele>
|
|
<time>2026-07-11T13:07:05.000Z</time>
|
|
</trkpt>
|
|
<trkpt lat="55.558576" lon="8.074685">
|
|
<ele>4.771916</ele>
|
|
<time>2026-07-11T13:07:06.000Z</time>
|
|
</trkpt>
|
|
<trkpt lat="55.558582" lon="8.074665">
|
|
<ele>4.753037</ele>
|
|
<time>2026-07-11T13:07:07.000Z</time>
|
|
</trkpt>
|
|
<trkpt lat="55.558589" lon="8.074644">
|
|
<ele>4.732710</ele>
|
|
<time>2026-07-11T13:07:08.000Z</time>
|
|
</trkpt>
|
|
<trkpt lat="55.558595" lon="8.074626">
|
|
<ele>4.715287</ele>
|
|
<time>2026-07-11T13:07:09.000Z</time>
|
|
</trkpt>
|
|
<trkpt lat="55.558599" lon="8.074608">
|
|
<ele>4.699160</ele>
|
|
<time>2026-07-11T13:07:10.000Z</time>
|
|
</trkpt>
|
|
<trkpt lat="55.558603" lon="8.074592">
|
|
<ele>4.684572</ele>
|
|
<time>2026-07-11T13:07:11.000Z</time>
|
|
</trkpt>
|
|
<trkpt lat="55.558610" lon="8.074577">
|
|
<ele>4.668356</ele>
|
|
<time>2026-07-11T13:07:12.000Z</time>
|
|
</trkpt>
|
|
<trkpt lat="55.558619" lon="8.074563">
|
|
<ele>4.650681</ele>
|
|
<time>2026-07-11T13:07:13.000Z</time>
|
|
</trkpt>
|
|
<trkpt lat="55.558625" lon="8.074549">
|
|
<ele>4.636034</ele>
|
|
<time>2026-07-11T13:07:14.000Z</time>
|
|
</trkpt>
|
|
<trkpt lat="55.558630" lon="8.074536">
|
|
<ele>4.622924</ele>
|
|
<time>2026-07-11T13:07:15.000Z</time>
|
|
</trkpt>
|
|
<trkpt lat="55.558635" lon="8.074523">
|
|
<ele>4.611127</ele>
|
|
<time>2026-07-11T13:07:16.000Z</time>
|
|
</trkpt>
|
|
<trkpt lat="55.558641" lon="8.074508">
|
|
<ele>4.604759</ele>
|
|
<time>2026-07-11T13:07:17.000Z</time>
|
|
</trkpt>
|
|
<trkpt lat="55.558643" lon="8.074494">
|
|
<ele>4.599754</ele>
|
|
<time>2026-07-11T13:07:18.000Z</time>
|
|
</trkpt>
|
|
<trkpt lat="55.558647" lon="8.074478">
|
|
<ele>4.593691</ele>
|
|
<time>2026-07-11T13:07:19.000Z</time>
|
|
</trkpt>
|
|
<trkpt lat="55.558652" lon="8.074462">
|
|
<ele>4.587355</ele>
|
|
<time>2026-07-11T13:07:20.000Z</time>
|
|
</trkpt>
|
|
<trkpt lat="55.558654" lon="8.074445">
|
|
<ele>4.581337</ele>
|
|
<time>2026-07-11T13:07:21.000Z</time>
|
|
</trkpt>
|
|
<trkpt lat="55.558656" lon="8.074429">
|
|
<ele>4.575657</ele>
|
|
<time>2026-07-11T13:07:22.000Z</time>
|
|
</trkpt>
|
|
<trkpt lat="55.558660" lon="8.074412">
|
|
<ele>4.569276</ele>
|
|
<time>2026-07-11T13:07:23.000Z</time>
|
|
</trkpt>
|
|
<trkpt lat="55.558666" lon="8.074392">
|
|
<ele>4.561429</ele>
|
|
<time>2026-07-11T13:07:24.000Z</time>
|
|
</trkpt>
|
|
<trkpt lat="55.558672" lon="8.074372">
|
|
<ele>4.553582</ele>
|
|
<time>2026-07-11T13:07:25.000Z</time>
|
|
</trkpt>
|
|
<trkpt lat="55.558677" lon="8.074354">
|
|
<ele>4.546632</ele>
|
|
<time>2026-07-11T13:07:26.000Z</time>
|
|
</trkpt>
|
|
<trkpt lat="55.558685" lon="8.074337">
|
|
<ele>4.538966</ele>
|
|
<time>2026-07-11T13:07:27.000Z</time>
|
|
</trkpt>
|
|
<trkpt lat="55.558692" lon="8.074321">
|
|
<ele>4.531955</ele>
|
|
<time>2026-07-11T13:07:28.000Z</time>
|
|
</trkpt>
|
|
<trkpt lat="55.558700" lon="8.074305">
|
|
<ele>4.524553</ele>
|
|
<time>2026-07-11T13:07:29.000Z</time>
|
|
</trkpt>
|
|
<trkpt lat="55.558706" lon="8.074289">
|
|
<ele>4.517900</ele>
|
|
<time>2026-07-11T13:07:30.000Z</time>
|
|
</trkpt>
|
|
<trkpt lat="55.558712" lon="8.074273">
|
|
<ele>4.511246</ele>
|
|
<time>2026-07-11T13:07:31.000Z</time>
|
|
</trkpt>
|
|
<trkpt lat="55.558717" lon="8.074258">
|
|
<ele>4.505211</ele>
|
|
<time>2026-07-11T13:07:32.000Z</time>
|
|
</trkpt>
|
|
<trkpt lat="55.558722" lon="8.074245">
|
|
<ele>4.499762</ele>
|
|
<time>2026-07-11T13:07:33.000Z</time>
|
|
</trkpt>
|
|
<trkpt lat="55.558728" lon="8.074232">
|
|
<ele>4.493946</ele>
|
|
<time>2026-07-11T13:07:34.000Z</time>
|
|
</trkpt>
|
|
<trkpt lat="55.558734" lon="8.074218">
|
|
<ele>4.487858</ele>
|
|
<time>2026-07-11T13:07:35.000Z</time>
|
|
</trkpt>
|
|
<trkpt lat="55.558740" lon="8.074205">
|
|
<ele>4.482042</ele>
|
|
<time>2026-07-11T13:07:36.000Z</time>
|
|
</trkpt>
|
|
<trkpt lat="55.558746" lon="8.074191">
|
|
<ele>4.475954</ele>
|
|
<time>2026-07-11T13:07:37.000Z</time>
|
|
</trkpt>
|
|
<trkpt lat="55.558753" lon="8.074178">
|
|
<ele>4.469733</ele>
|
|
<time>2026-07-11T13:07:38.000Z</time>
|
|
</trkpt>
|
|
<trkpt lat="55.558763" lon="8.074172">
|
|
<ele>4.463261</ele>
|
|
<time>2026-07-11T13:07:39.000Z</time>
|
|
</trkpt>
|
|
<trkpt lat="55.558771" lon="8.074168">
|
|
<ele>4.458167</ele>
|
|
<time>2026-07-11T13:07:40.000Z</time>
|
|
</trkpt>
|
|
<trkpt lat="55.558775" lon="8.074162">
|
|
<ele>4.454952</ele>
|
|
<time>2026-07-11T13:07:41.000Z</time>
|
|
</trkpt>
|
|
<trkpt lat="55.558780" lon="8.074152">
|
|
<ele>4.450326</ele>
|
|
<time>2026-07-11T13:07:42.000Z</time>
|
|
</trkpt>
|
|
<trkpt lat="55.558786" lon="8.074140">
|
|
<ele>4.444774</ele>
|
|
<time>2026-07-11T13:07:43.000Z</time>
|
|
</trkpt>
|
|
<trkpt lat="55.558788" lon="8.074126">
|
|
<ele>4.439769</ele>
|
|
<time>2026-07-11T13:07:44.000Z</time>
|
|
</trkpt>
|
|
<trkpt lat="55.558790" lon="8.074114">
|
|
<ele>4.435433</ele>
|
|
<time>2026-07-11T13:07:45.000Z</time>
|
|
</trkpt>
|
|
<trkpt lat="55.558794" lon="8.074099">
|
|
<ele>4.429686</ele>
|
|
<time>2026-07-11T13:07:46.000Z</time>
|
|
</trkpt>
|
|
<trkpt lat="55.558798" lon="8.074084">
|
|
<ele>4.423938</ele>
|
|
<time>2026-07-11T13:07:47.000Z</time>
|
|
</trkpt>
|
|
<trkpt lat="55.558801" lon="8.074070">
|
|
<ele>4.418749</ele>
|
|
<time>2026-07-11T13:07:48.000Z</time>
|
|
</trkpt>
|
|
<trkpt lat="55.558804" lon="8.074053">
|
|
<ele>4.412576</ele>
|
|
<time>2026-07-11T13:07:49.000Z</time>
|
|
</trkpt>
|
|
<trkpt lat="55.558805" lon="8.074037">
|
|
<ele>4.406997</ele>
|
|
<time>2026-07-11T13:07:50.000Z</time>
|
|
</trkpt>
|
|
<trkpt lat="55.558811" lon="8.074022">
|
|
<ele>4.400629</ele>
|
|
<time>2026-07-11T13:07:51.000Z</time>
|
|
</trkpt>
|
|
<trkpt lat="55.558815" lon="8.074004">
|
|
<ele>4.393926</ele>
|
|
<time>2026-07-11T13:07:52.000Z</time>
|
|
</trkpt>
|
|
<trkpt lat="55.558815" lon="8.073989">
|
|
<ele>4.388727</ele>
|
|
<time>2026-07-11T13:07:53.000Z</time>
|
|
</trkpt>
|
|
<trkpt lat="55.558817" lon="8.073977">
|
|
<ele>4.384391</ele>
|
|
<time>2026-07-11T13:07:54.000Z</time>
|
|
</trkpt>
|
|
<trkpt lat="55.558820" lon="8.073966">
|
|
<ele>4.380159</ele>
|
|
<time>2026-07-11T13:07:55.000Z</time>
|
|
</trkpt>
|
|
<trkpt lat="55.558823" lon="8.073952">
|
|
<ele>4.374970</ele>
|
|
<time>2026-07-11T13:07:56.000Z</time>
|
|
</trkpt>
|
|
<trkpt lat="55.558824" lon="8.073940">
|
|
<ele>4.370766</ele>
|
|
<time>2026-07-11T13:07:57.000Z</time>
|
|
</trkpt>
|
|
<trkpt lat="55.558832" lon="8.073880">
|
|
<ele>4.349400</ele>
|
|
<time>2026-07-11T13:09:05.000Z</time>
|
|
</trkpt>
|
|
<trkpt lat="55.558836" lon="8.073863">
|
|
<ele>4.343018</ele>
|
|
<time>2026-07-11T13:09:06.000Z</time>
|
|
</trkpt>
|
|
<trkpt lat="55.558840" lon="8.073846">
|
|
<ele>4.336637</ele>
|
|
<time>2026-07-11T13:09:07.000Z</time>
|
|
</trkpt>
|
|
<trkpt lat="55.558843" lon="8.073829">
|
|
<ele>4.330464</ele>
|
|
<time>2026-07-11T13:09:08.000Z</time>
|
|
</trkpt>
|
|
<trkpt lat="55.558847" lon="8.073812">
|
|
<ele>4.324083</ele>
|
|
<time>2026-07-11T13:09:09.000Z</time>
|
|
</trkpt>
|
|
<trkpt lat="55.558851" lon="8.073793">
|
|
<ele>4.317056</ele>
|
|
<time>2026-07-11T13:09:10.000Z</time>
|
|
</trkpt>
|
|
<trkpt lat="55.558855" lon="8.073772">
|
|
<ele>4.309376</ele>
|
|
<time>2026-07-11T13:09:11.000Z</time>
|
|
</trkpt>
|
|
<trkpt lat="55.558857" lon="8.073754">
|
|
<ele>4.303018</ele>
|
|
<time>2026-07-11T13:09:12.000Z</time>
|
|
</trkpt>
|
|
<trkpt lat="55.558857" lon="8.073735">
|
|
<ele>4.296432</ele>
|
|
<time>2026-07-11T13:09:13.000Z</time>
|
|
</trkpt>
|
|
<trkpt lat="55.558857" lon="8.073717">
|
|
<ele>4.290194</ele>
|
|
<time>2026-07-11T13:09:14.000Z</time>
|
|
</trkpt>
|
|
<trkpt lat="55.558857" lon="8.073698">
|
|
<ele>4.283608</ele>
|
|
<time>2026-07-11T13:09:15.000Z</time>
|
|
</trkpt>
|
|
<trkpt lat="55.558855" lon="8.073680">
|
|
<ele>4.277250</ele>
|
|
<time>2026-07-11T13:09:16.000Z</time>
|
|
</trkpt>
|
|
<trkpt lat="55.558853" lon="8.073662">
|
|
<ele>4.270892</ele>
|
|
<time>2026-07-11T13:09:17.000Z</time>
|
|
</trkpt>
|
|
<trkpt lat="55.558853" lon="8.073644">
|
|
<ele>4.264654</ele>
|
|
<time>2026-07-11T13:09:18.000Z</time>
|
|
</trkpt>
|
|
<trkpt lat="55.558851" lon="8.073627">
|
|
<ele>4.258635</ele>
|
|
<time>2026-07-11T13:09:19.000Z</time>
|
|
</trkpt>
|
|
<trkpt lat="55.558848" lon="8.073610">
|
|
<ele>4.252463</ele>
|
|
<time>2026-07-11T13:09:20.000Z</time>
|
|
</trkpt>
|
|
<trkpt lat="55.558844" lon="8.073593">
|
|
<ele>4.246081</ele>
|
|
<time>2026-07-11T13:09:21.000Z</time>
|
|
</trkpt>
|
|
<trkpt lat="55.558842" lon="8.073575">
|
|
<ele>4.239724</ele>
|
|
<time>2026-07-11T13:09:22.000Z</time>
|
|
</trkpt>
|
|
<trkpt lat="55.558842" lon="8.073557">
|
|
<ele>4.233485</ele>
|
|
<time>2026-07-11T13:09:23.000Z</time>
|
|
</trkpt>
|
|
<trkpt lat="55.558840" lon="8.073538">
|
|
<ele>4.226786</ele>
|
|
<time>2026-07-11T13:09:24.000Z</time>
|
|
</trkpt>
|
|
<trkpt lat="55.558838" lon="8.073516">
|
|
<ele>4.219063</ele>
|
|
<time>2026-07-11T13:09:25.000Z</time>
|
|
</trkpt>
|
|
<trkpt lat="55.558838" lon="8.073496">
|
|
<ele>4.212132</ele>
|
|
<time>2026-07-11T13:09:26.000Z</time>
|
|
</trkpt>
|
|
<trkpt lat="55.558836" lon="8.073478">
|
|
<ele>4.205774</ele>
|
|
<time>2026-07-11T13:09:27.000Z</time>
|
|
</trkpt>
|
|
<trkpt lat="55.558832" lon="8.073460">
|
|
<ele>4.199071</ele>
|
|
<time>2026-07-11T13:09:28.000Z</time>
|
|
</trkpt>
|
|
<trkpt lat="55.558830" lon="8.073439">
|
|
<ele>4.191690</ele>
|
|
<time>2026-07-11T13:09:29.000Z</time>
|
|
</trkpt>
|
|
<trkpt lat="55.558829" lon="8.073417">
|
|
<ele>4.184040</ele>
|
|
<time>2026-07-11T13:09:30.000Z</time>
|
|
</trkpt>
|
|
<trkpt lat="55.558826" lon="8.073398">
|
|
<ele>4.177203</ele>
|
|
<time>2026-07-11T13:09:31.000Z</time>
|
|
</trkpt>
|
|
<trkpt lat="55.558826" lon="8.073378">
|
|
<ele>4.170271</ele>
|
|
<time>2026-07-11T13:09:32.000Z</time>
|
|
</trkpt>
|
|
<trkpt lat="55.558825" lon="8.073356">
|
|
<ele>4.162621</ele>
|
|
<time>2026-07-11T13:09:33.000Z</time>
|
|
</trkpt>
|
|
<trkpt lat="55.558821" lon="8.073336">
|
|
<ele>4.155269</ele>
|
|
<time>2026-07-11T13:09:34.000Z</time>
|
|
</trkpt>
|
|
<trkpt lat="55.558817" lon="8.073317">
|
|
<ele>4.148242</ele>
|
|
<time>2026-07-11T13:09:35.000Z</time>
|
|
</trkpt>
|
|
<trkpt lat="55.558815" lon="8.073300">
|
|
<ele>4.142224</ele>
|
|
<time>2026-07-11T13:09:36.000Z</time>
|
|
</trkpt>
|
|
<trkpt lat="55.558812" lon="8.073286">
|
|
<ele>4.137035</ele>
|
|
<time>2026-07-11T13:09:37.000Z</time>
|
|
</trkpt>
|
|
<trkpt lat="55.558806" lon="8.073270">
|
|
<ele>4.130381</ele>
|
|
<time>2026-07-11T13:09:38.000Z</time>
|
|
</trkpt>
|
|
<trkpt lat="55.558802" lon="8.073251">
|
|
<ele>4.123354</ele>
|
|
<time>2026-07-11T13:09:39.000Z</time>
|
|
</trkpt>
|
|
<trkpt lat="55.558798" lon="8.073234">
|
|
<ele>4.116972</ele>
|
|
<time>2026-07-11T13:09:40.000Z</time>
|
|
</trkpt>
|
|
<trkpt lat="55.558794" lon="8.073217">
|
|
<ele>4.110591</ele>
|
|
<time>2026-07-11T13:09:41.000Z</time>
|
|
</trkpt>
|
|
<trkpt lat="55.558791" lon="8.073200">
|
|
<ele>4.104418</ele>
|
|
<time>2026-07-11T13:09:42.000Z</time>
|
|
</trkpt>
|
|
<trkpt lat="55.558787" lon="8.073183">
|
|
<ele>4.098037</ele>
|
|
<time>2026-07-11T13:09:43.000Z</time>
|
|
</trkpt>
|
|
<trkpt lat="55.558783" lon="8.073167">
|
|
<ele>4.091974</ele>
|
|
<time>2026-07-11T13:09:44.000Z</time>
|
|
</trkpt>
|
|
<trkpt lat="55.558779" lon="8.073148">
|
|
<ele>4.084947</ele>
|
|
<time>2026-07-11T13:09:45.000Z</time>
|
|
</trkpt>
|
|
<trkpt lat="55.558777" lon="8.073128">
|
|
<ele>4.077907</ele>
|
|
<time>2026-07-11T13:09:46.000Z</time>
|
|
</trkpt>
|
|
<trkpt lat="55.558775" lon="8.073107">
|
|
<ele>4.070526</ele>
|
|
<time>2026-07-11T13:09:47.000Z</time>
|
|
</trkpt>
|
|
<trkpt lat="55.558771" lon="8.073088">
|
|
<ele>4.063500</ele>
|
|
<time>2026-07-11T13:09:48.000Z</time>
|
|
</trkpt>
|
|
<trkpt lat="55.558768" lon="8.073071">
|
|
<ele>4.057327</ele>
|
|
<time>2026-07-11T13:09:49.000Z</time>
|
|
</trkpt>
|
|
<trkpt lat="55.558764" lon="8.073056">
|
|
<ele>4.051579</ele>
|
|
<time>2026-07-11T13:09:50.000Z</time>
|
|
</trkpt>
|
|
<trkpt lat="55.558760" lon="8.073042">
|
|
<ele>4.046143</ele>
|
|
<time>2026-07-11T13:09:51.000Z</time>
|
|
</trkpt>
|
|
<trkpt lat="55.558755" lon="8.073028">
|
|
<ele>4.040404</ele>
|
|
<time>2026-07-11T13:09:52.000Z</time>
|
|
</trkpt>
|
|
<trkpt lat="55.558747" lon="8.073013">
|
|
<ele>4.033258</ele>
|
|
<time>2026-07-11T13:09:53.000Z</time>
|
|
</trkpt>
|
|
<trkpt lat="55.558741" lon="8.072997">
|
|
<ele>4.026604</ele>
|
|
<time>2026-07-11T13:09:54.000Z</time>
|
|
</trkpt>
|
|
<trkpt lat="55.558737" lon="8.072979">
|
|
<ele>4.019901</ele>
|
|
<time>2026-07-11T13:09:55.000Z</time>
|
|
</trkpt>
|
|
<trkpt lat="55.558735" lon="8.072960">
|
|
<ele>4.013203</ele>
|
|
<time>2026-07-11T13:09:56.000Z</time>
|
|
</trkpt>
|
|
<trkpt lat="55.558733" lon="8.072941">
|
|
<ele>4.006504</ele>
|
|
<time>2026-07-11T13:09:57.000Z</time>
|
|
</trkpt>
|
|
<trkpt lat="55.558730" lon="8.072924">
|
|
<ele>4.000332</ele>
|
|
<time>2026-07-11T13:09:58.000Z</time>
|
|
</trkpt>
|
|
<trkpt lat="55.558726" lon="8.072909">
|
|
<ele>3.994584</ele>
|
|
<time>2026-07-11T13:09:59.000Z</time>
|
|
</trkpt>
|
|
<trkpt lat="55.558723" lon="8.072892">
|
|
<ele>3.988412</ele>
|
|
<time>2026-07-11T13:10:00.000Z</time>
|
|
</trkpt>
|
|
<trkpt lat="55.558722" lon="8.072877">
|
|
<ele>3.983177</ele>
|
|
<time>2026-07-11T13:10:01.000Z</time>
|
|
</trkpt>
|
|
<trkpt lat="55.558716" lon="8.072868">
|
|
<ele>3.978355</ele>
|
|
<time>2026-07-11T13:10:02.000Z</time>
|
|
</trkpt>
|
|
<trkpt lat="55.558709" lon="8.072860">
|
|
<ele>3.973247</ele>
|
|
<time>2026-07-11T13:10:03.000Z</time>
|
|
</trkpt>
|
|
<trkpt lat="55.558701" lon="8.072849">
|
|
<ele>3.967037</ele>
|
|
<time>2026-07-11T13:10:04.000Z</time>
|
|
</trkpt>
|
|
<trkpt lat="55.558694" lon="8.072841">
|
|
<ele>3.961929</ele>
|
|
<time>2026-07-11T13:10:05.000Z</time>
|
|
</trkpt>
|
|
<trkpt lat="55.558686" lon="8.072832">
|
|
<ele>3.956118</ele>
|
|
<time>2026-07-11T13:10:06.000Z</time>
|
|
</trkpt>
|
|
<trkpt lat="55.558678" lon="8.072823">
|
|
<ele>3.950307</ele>
|
|
<time>2026-07-11T13:10:07.000Z</time>
|
|
</trkpt>
|
|
<trkpt lat="55.558671" lon="8.072816">
|
|
<ele>3.945378</ele>
|
|
<time>2026-07-11T13:10:08.000Z</time>
|
|
</trkpt>
|
|
<trkpt lat="55.558661" lon="8.072812">
|
|
<ele>3.939095</ele>
|
|
<time>2026-07-11T13:10:09.000Z</time>
|
|
</trkpt>
|
|
<trkpt lat="55.558650" lon="8.072813">
|
|
<ele>3.932345</ele>
|
|
<time>2026-07-11T13:10:10.000Z</time>
|
|
</trkpt>
|
|
<trkpt lat="55.558640" lon="8.072813">
|
|
<ele>3.926217</ele>
|
|
<time>2026-07-11T13:10:11.000Z</time>
|
|
</trkpt>
|
|
<trkpt lat="55.558632" lon="8.072810">
|
|
<ele>3.921205</ele>
|
|
<time>2026-07-11T13:10:12.000Z</time>
|
|
</trkpt>
|
|
<trkpt lat="55.558628" lon="8.072803">
|
|
<ele>3.917756</ele>
|
|
<time>2026-07-11T13:10:13.000Z</time>
|
|
</trkpt>
|
|
<trkpt lat="55.558627" lon="8.072794">
|
|
<ele>3.914577</ele>
|
|
<time>2026-07-11T13:10:14.000Z</time>
|
|
</trkpt>
|
|
<trkpt lat="55.558621" lon="8.072782">
|
|
<ele>3.909026</ele>
|
|
<time>2026-07-11T13:10:15.000Z</time>
|
|
</trkpt>
|
|
<trkpt lat="55.558617" lon="8.072769">
|
|
<ele>3.903896</ele>
|
|
<time>2026-07-11T13:10:16.000Z</time>
|
|
</trkpt>
|
|
<trkpt lat="55.558615" lon="8.072759">
|
|
<ele>3.900220</ele>
|
|
<time>2026-07-11T13:10:17.000Z</time>
|
|
</trkpt>
|
|
<trkpt lat="55.558611" lon="8.072749">
|
|
<ele>3.895975</ele>
|
|
<time>2026-07-11T13:10:18.000Z</time>
|
|
</trkpt>
|
|
<trkpt lat="55.558609" lon="8.072793">
|
|
<ele>3.880675</ele>
|
|
<time>2026-07-11T13:11:24.000Z</time>
|
|
</trkpt>
|
|
<trkpt lat="55.558609" lon="8.072812">
|
|
<ele>3.874090</ele>
|
|
<time>2026-07-11T13:11:25.000Z</time>
|
|
</trkpt>
|
|
<trkpt lat="55.558607" lon="8.072829">
|
|
<ele>3.868072</ele>
|
|
<time>2026-07-11T13:11:26.000Z</time>
|
|
</trkpt>
|
|
<trkpt lat="55.558604" lon="8.072847">
|
|
<ele>3.861568</ele>
|
|
<time>2026-07-11T13:11:27.000Z</time>
|
|
</trkpt>
|
|
<trkpt lat="55.558601" lon="8.072866">
|
|
<ele>3.854730</ele>
|
|
<time>2026-07-11T13:11:28.000Z</time>
|
|
</trkpt>
|
|
<trkpt lat="55.558600" lon="8.072885">
|
|
<ele>3.848117</ele>
|
|
<time>2026-07-11T13:11:29.000Z</time>
|
|
</trkpt>
|
|
<trkpt lat="55.558596" lon="8.072904">
|
|
<ele>3.841090</ele>
|
|
<time>2026-07-11T13:11:30.000Z</time>
|
|
</trkpt>
|
|
<trkpt lat="55.558592" lon="8.072922">
|
|
<ele>3.834387</ele>
|
|
<time>2026-07-11T13:11:31.000Z</time>
|
|
</trkpt>
|
|
<trkpt lat="55.558590" lon="8.072943">
|
|
<ele>3.827006</ele>
|
|
<time>2026-07-11T13:11:32.000Z</time>
|
|
</trkpt>
|
|
<trkpt lat="55.558592" lon="8.072967">
|
|
<ele>3.818598</ele>
|
|
<time>2026-07-11T13:11:33.000Z</time>
|
|
</trkpt>
|
|
<trkpt lat="55.558594" lon="8.072990">
|
|
<ele>3.810532</ele>
|
|
<time>2026-07-11T13:11:34.000Z</time>
|
|
</trkpt>
|
|
<trkpt lat="55.558597" lon="8.073008">
|
|
<ele>3.804028</ele>
|
|
<time>2026-07-11T13:11:35.000Z</time>
|
|
</trkpt>
|
|
<trkpt lat="55.558603" lon="8.073025">
|
|
<ele>3.797083</ele>
|
|
<time>2026-07-11T13:11:36.000Z</time>
|
|
</trkpt>
|
|
<trkpt lat="55.558605" lon="8.073041">
|
|
<ele>3.791403</ele>
|
|
<time>2026-07-11T13:11:37.000Z</time>
|
|
</trkpt>
|
|
<trkpt lat="55.558607" lon="8.073058">
|
|
<ele>3.785385</ele>
|
|
<time>2026-07-11T13:11:38.000Z</time>
|
|
</trkpt>
|
|
<trkpt lat="55.558611" lon="8.073076">
|
|
<ele>3.778682</ele>
|
|
<time>2026-07-11T13:11:39.000Z</time>
|
|
</trkpt>
|
|
<trkpt lat="55.558614" lon="8.073096">
|
|
<ele>3.771510</ele>
|
|
<time>2026-07-11T13:11:40.000Z</time>
|
|
</trkpt>
|
|
<trkpt lat="55.558617" lon="8.073117">
|
|
<ele>3.764003</ele>
|
|
<time>2026-07-11T13:11:41.000Z</time>
|
|
</trkpt>
|
|
<trkpt lat="55.558620" lon="8.073138">
|
|
<ele>3.756496</ele>
|
|
<time>2026-07-11T13:11:42.000Z</time>
|
|
</trkpt>
|
|
<trkpt lat="55.558626" lon="8.073158">
|
|
<ele>3.748649</ele>
|
|
<time>2026-07-11T13:11:43.000Z</time>
|
|
</trkpt>
|
|
<trkpt lat="55.558630" lon="8.073178">
|
|
<ele>3.741297</ele>
|
|
<time>2026-07-11T13:11:44.000Z</time>
|
|
</trkpt>
|
|
<trkpt lat="55.558635" lon="8.073198">
|
|
<ele>3.733718</ele>
|
|
<time>2026-07-11T13:11:45.000Z</time>
|
|
</trkpt>
|
|
<trkpt lat="55.558641" lon="8.073219">
|
|
<ele>3.725563</ele>
|
|
<time>2026-07-11T13:11:46.000Z</time>
|
|
</trkpt>
|
|
<trkpt lat="55.558645" lon="8.073238">
|
|
<ele>3.718536</ele>
|
|
<time>2026-07-11T13:11:47.000Z</time>
|
|
</trkpt>
|
|
<trkpt lat="55.558649" lon="8.073257">
|
|
<ele>3.711510</ele>
|
|
<time>2026-07-11T13:11:48.000Z</time>
|
|
</trkpt>
|
|
<trkpt lat="55.558653" lon="8.073275">
|
|
<ele>3.704807</ele>
|
|
<time>2026-07-11T13:11:49.000Z</time>
|
|
</trkpt>
|
|
<trkpt lat="55.558656" lon="8.073294">
|
|
<ele>3.697969</ele>
|
|
<time>2026-07-11T13:11:50.000Z</time>
|
|
</trkpt>
|
|
<trkpt lat="55.558659" lon="8.073315">
|
|
<ele>3.690462</ele>
|
|
<time>2026-07-11T13:11:51.000Z</time>
|
|
</trkpt>
|
|
<trkpt lat="55.558660" lon="8.073335">
|
|
<ele>3.683503</ele>
|
|
<time>2026-07-11T13:11:52.000Z</time>
|
|
</trkpt>
|
|
<trkpt lat="55.558664" lon="8.073355">
|
|
<ele>3.676151</ele>
|
|
<time>2026-07-11T13:11:53.000Z</time>
|
|
</trkpt>
|
|
<trkpt lat="55.558668" lon="8.073372">
|
|
<ele>3.669769</ele>
|
|
<time>2026-07-11T13:11:54.000Z</time>
|
|
</trkpt>
|
|
<trkpt lat="55.558672" lon="8.073389">
|
|
<ele>3.663387</ele>
|
|
<time>2026-07-11T13:11:55.000Z</time>
|
|
</trkpt>
|
|
<trkpt lat="55.558675" lon="8.073410">
|
|
<ele>3.655880</ele>
|
|
<time>2026-07-11T13:11:56.000Z</time>
|
|
</trkpt>
|
|
<trkpt lat="55.558679" lon="8.073432">
|
|
<ele>3.647871</ele>
|
|
<time>2026-07-11T13:11:57.000Z</time>
|
|
</trkpt>
|
|
<trkpt lat="55.558681" lon="8.073452">
|
|
<ele>3.640831</ele>
|
|
<time>2026-07-11T13:11:58.000Z</time>
|
|
</trkpt>
|
|
<trkpt lat="55.558681" lon="8.073471">
|
|
<ele>3.634246</ele>
|
|
<time>2026-07-11T13:11:59.000Z</time>
|
|
</trkpt>
|
|
<trkpt lat="55.558681" lon="8.073490">
|
|
<ele>3.627661</ele>
|
|
<time>2026-07-11T13:12:00.000Z</time>
|
|
</trkpt>
|
|
<trkpt lat="55.558680" lon="8.073510">
|
|
<ele>3.620702</ele>
|
|
<time>2026-07-11T13:12:01.000Z</time>
|
|
</trkpt>
|
|
<trkpt lat="55.558678" lon="8.073528">
|
|
<ele>3.614344</ele>
|
|
<time>2026-07-11T13:12:02.000Z</time>
|
|
</trkpt>
|
|
<trkpt lat="55.558676" lon="8.073543">
|
|
<ele>3.609002</ele>
|
|
<time>2026-07-11T13:12:03.000Z</time>
|
|
</trkpt>
|
|
<trkpt lat="55.558672" lon="8.073557">
|
|
<ele>3.603566</ele>
|
|
<time>2026-07-11T13:12:04.000Z</time>
|
|
</trkpt>
|
|
<trkpt lat="55.558667" lon="8.073576">
|
|
<ele>3.596302</ele>
|
|
<time>2026-07-11T13:12:05.000Z</time>
|
|
</trkpt>
|
|
<trkpt lat="55.558661" lon="8.073595">
|
|
<ele>3.588760</ele>
|
|
<time>2026-07-11T13:12:06.000Z</time>
|
|
</trkpt>
|
|
<trkpt lat="55.558657" lon="8.073610">
|
|
<ele>3.583012</ele>
|
|
<time>2026-07-11T13:12:07.000Z</time>
|
|
</trkpt>
|
|
<trkpt lat="55.558653" lon="8.073629">
|
|
<ele>3.575985</ele>
|
|
<time>2026-07-11T13:12:08.000Z</time>
|
|
</trkpt>
|
|
<trkpt lat="55.558648" lon="8.073647">
|
|
<ele>3.569035</ele>
|
|
<time>2026-07-11T13:12:09.000Z</time>
|
|
</trkpt>
|
|
<trkpt lat="55.558642" lon="8.073663">
|
|
<ele>3.562381</ele>
|
|
<time>2026-07-11T13:12:10.000Z</time>
|
|
</trkpt>
|
|
<trkpt lat="55.558638" lon="8.073678">
|
|
<ele>3.556633</ele>
|
|
<time>2026-07-11T13:12:11.000Z</time>
|
|
</trkpt>
|
|
<trkpt lat="55.558634" lon="8.073695">
|
|
<ele>3.550251</ele>
|
|
<time>2026-07-11T13:12:12.000Z</time>
|
|
</trkpt>
|
|
<trkpt lat="55.558629" lon="8.073709">
|
|
<ele>3.544512</ele>
|
|
<time>2026-07-11T13:12:13.000Z</time>
|
|
</trkpt>
|
|
<trkpt lat="55.558621" lon="8.073725">
|
|
<ele>3.537111</ele>
|
|
<time>2026-07-11T13:12:14.000Z</time>
|
|
</trkpt>
|
|
<trkpt lat="55.558613" lon="8.073744">
|
|
<ele>3.528901</ele>
|
|
<time>2026-07-11T13:12:15.000Z</time>
|
|
</trkpt>
|
|
<trkpt lat="55.558606" lon="8.073763">
|
|
<ele>3.521041</ele>
|
|
<time>2026-07-11T13:12:16.000Z</time>
|
|
</trkpt>
|
|
<trkpt lat="55.558598" lon="8.073778">
|
|
<ele>3.513895</ele>
|
|
<time>2026-07-11T13:12:17.000Z</time>
|
|
</trkpt>
|
|
<trkpt lat="55.558591" lon="8.073790">
|
|
<ele>3.510622</ele>
|
|
<time>2026-07-11T13:12:18.000Z</time>
|
|
</trkpt>
|
|
<trkpt lat="55.558581" lon="8.073805">
|
|
<ele>3.514209</ele>
|
|
<time>2026-07-11T13:12:19.000Z</time>
|
|
</trkpt>
|
|
<trkpt lat="55.558571" lon="8.073821">
|
|
<ele>3.517897</ele>
|
|
<time>2026-07-11T13:12:20.000Z</time>
|
|
</trkpt>
|
|
<trkpt lat="55.558563" lon="8.073832">
|
|
<ele>3.520669</ele>
|
|
<time>2026-07-11T13:12:21.000Z</time>
|
|
</trkpt>
|
|
<trkpt lat="55.558553" lon="8.073841">
|
|
<ele>3.523738</ele>
|
|
<time>2026-07-11T13:12:22.000Z</time>
|
|
</trkpt>
|
|
<trkpt lat="55.558543" lon="8.073850">
|
|
<ele>3.526807</ele>
|
|
<time>2026-07-11T13:12:23.000Z</time>
|
|
</trkpt>
|
|
<trkpt lat="55.558532" lon="8.073861">
|
|
<ele>3.530264</ele>
|
|
<time>2026-07-11T13:12:24.000Z</time>
|
|
</trkpt>
|
|
<trkpt lat="55.558522" lon="8.073874">
|
|
<ele>3.533658</ele>
|
|
<time>2026-07-11T13:12:25.000Z</time>
|
|
</trkpt>
|
|
<trkpt lat="55.558514" lon="8.073888">
|
|
<ele>3.536737</ele>
|
|
<time>2026-07-11T13:12:26.000Z</time>
|
|
</trkpt>
|
|
<trkpt lat="55.558505" lon="8.073902">
|
|
<ele>3.540016</ele>
|
|
<time>2026-07-11T13:12:27.000Z</time>
|
|
</trkpt>
|
|
<trkpt lat="55.558495" lon="8.073914">
|
|
<ele>3.543321</ele>
|
|
<time>2026-07-11T13:12:28.000Z</time>
|
|
</trkpt>
|
|
<trkpt lat="55.558486" lon="8.073926">
|
|
<ele>3.546404</ele>
|
|
<time>2026-07-11T13:12:29.000Z</time>
|
|
</trkpt>
|
|
<trkpt lat="55.558476" lon="8.073940">
|
|
<ele>3.549893</ele>
|
|
<time>2026-07-11T13:12:30.000Z</time>
|
|
</trkpt>
|
|
<trkpt lat="55.558467" lon="8.073957">
|
|
<ele>3.553495</ele>
|
|
<time>2026-07-11T13:12:31.000Z</time>
|
|
</trkpt>
|
|
<trkpt lat="55.558457" lon="8.073974">
|
|
<ele>3.557289</ele>
|
|
<time>2026-07-11T13:12:32.000Z</time>
|
|
</trkpt>
|
|
<trkpt lat="55.558449" lon="8.073989">
|
|
<ele>3.560478</ele>
|
|
<time>2026-07-11T13:12:33.000Z</time>
|
|
</trkpt>
|
|
<trkpt lat="55.558440" lon="8.074003">
|
|
<ele>3.563757</ele>
|
|
<time>2026-07-11T13:12:34.000Z</time>
|
|
</trkpt>
|
|
<trkpt lat="55.558431" lon="8.074016">
|
|
<ele>3.566935</ele>
|
|
<time>2026-07-11T13:12:35.000Z</time>
|
|
</trkpt>
|
|
<trkpt lat="55.558421" lon="8.074026">
|
|
<ele>3.570078</ele>
|
|
<time>2026-07-11T13:12:36.000Z</time>
|
|
</trkpt>
|
|
<trkpt lat="55.558411" lon="8.074040">
|
|
<ele>3.573566</ele>
|
|
<time>2026-07-11T13:12:37.000Z</time>
|
|
</trkpt>
|
|
<trkpt lat="55.558404" lon="8.074055">
|
|
<ele>3.576575</ele>
|
|
<time>2026-07-11T13:12:38.000Z</time>
|
|
</trkpt>
|
|
<trkpt lat="55.558395" lon="8.074071">
|
|
<ele>3.580065</ele>
|
|
<time>2026-07-11T13:12:39.000Z</time>
|
|
</trkpt>
|
|
<trkpt lat="55.558385" lon="8.074085">
|
|
<ele>3.583554</ele>
|
|
<time>2026-07-11T13:12:40.000Z</time>
|
|
</trkpt>
|
|
<trkpt lat="55.558377" lon="8.074100">
|
|
<ele>3.586743</ele>
|
|
<time>2026-07-11T13:12:41.000Z</time>
|
|
</trkpt>
|
|
<trkpt lat="55.558369" lon="8.074117">
|
|
<ele>3.590164</ele>
|
|
<time>2026-07-11T13:12:42.000Z</time>
|
|
</trkpt>
|
|
<trkpt lat="55.558360" lon="8.074131">
|
|
<ele>3.593443</ele>
|
|
<time>2026-07-11T13:12:43.000Z</time>
|
|
</trkpt>
|
|
<trkpt lat="55.558350" lon="8.074146">
|
|
<ele>3.597029</ele>
|
|
<time>2026-07-11T13:12:44.000Z</time>
|
|
</trkpt>
|
|
<trkpt lat="55.558342" lon="8.074163">
|
|
<ele>3.600450</ele>
|
|
<time>2026-07-11T13:12:45.000Z</time>
|
|
</trkpt>
|
|
<trkpt lat="55.558335" lon="8.074179">
|
|
<ele>3.603580</ele>
|
|
<time>2026-07-11T13:12:46.000Z</time>
|
|
</trkpt>
|
|
<trkpt lat="55.558329" lon="8.074196">
|
|
<ele>3.606679</ele>
|
|
<time>2026-07-11T13:12:47.000Z</time>
|
|
</trkpt>
|
|
<trkpt lat="55.558323" lon="8.074214">
|
|
<ele>3.609911</ele>
|
|
<time>2026-07-11T13:12:48.000Z</time>
|
|
</trkpt>
|
|
<trkpt lat="55.558316" lon="8.074230">
|
|
<ele>3.613040</ele>
|
|
<time>2026-07-11T13:12:49.000Z</time>
|
|
</trkpt>
|
|
<trkpt lat="55.558308" lon="8.074245">
|
|
<ele>3.616230</ele>
|
|
<time>2026-07-11T13:12:50.000Z</time>
|
|
</trkpt>
|
|
<trkpt lat="55.558299" lon="8.074257">
|
|
<ele>3.619313</ele>
|
|
<time>2026-07-11T13:12:51.000Z</time>
|
|
</trkpt>
|
|
<trkpt lat="55.558287" lon="8.074269">
|
|
<ele>3.623083</ele>
|
|
<time>2026-07-11T13:12:52.000Z</time>
|
|
</trkpt>
|
|
<trkpt lat="55.558278" lon="8.074281">
|
|
<ele>3.626166</ele>
|
|
<time>2026-07-11T13:12:53.000Z</time>
|
|
</trkpt>
|
|
<trkpt lat="55.558272" lon="8.074292">
|
|
<ele>3.628530</ele>
|
|
<time>2026-07-11T13:12:54.000Z</time>
|
|
</trkpt>
|
|
<trkpt lat="55.558266" lon="8.074306">
|
|
<ele>3.631248</ele>
|
|
<time>2026-07-11T13:12:55.000Z</time>
|
|
</trkpt>
|
|
<trkpt lat="55.558258" lon="8.074319">
|
|
<ele>3.634219</ele>
|
|
<time>2026-07-11T13:12:56.000Z</time>
|
|
</trkpt>
|
|
<trkpt lat="55.558251" lon="8.074332">
|
|
<ele>3.636996</ele>
|
|
<time>2026-07-11T13:12:57.000Z</time>
|
|
</trkpt>
|
|
<trkpt lat="55.558242" lon="8.074346">
|
|
<ele>3.640275</ele>
|
|
<time>2026-07-11T13:12:58.000Z</time>
|
|
</trkpt>
|
|
<trkpt lat="55.558232" lon="8.074360">
|
|
<ele>3.643763</ele>
|
|
<time>2026-07-11T13:12:59.000Z</time>
|
|
</trkpt>
|
|
<trkpt lat="55.558224" lon="8.074375">
|
|
<ele>3.646953</ele>
|
|
<time>2026-07-11T13:13:00.000Z</time>
|
|
</trkpt>
|
|
<trkpt lat="55.558217" lon="8.074390">
|
|
<ele>3.649961</ele>
|
|
<time>2026-07-11T13:13:01.000Z</time>
|
|
</trkpt>
|
|
<trkpt lat="55.558211" lon="8.074406">
|
|
<ele>3.652930</ele>
|
|
<time>2026-07-11T13:13:02.000Z</time>
|
|
</trkpt>
|
|
<trkpt lat="55.558207" lon="8.074422">
|
|
<ele>3.655636</ele>
|
|
<time>2026-07-11T13:13:03.000Z</time>
|
|
</trkpt>
|
|
<trkpt lat="55.558203" lon="8.074436">
|
|
<ele>3.658063</ele>
|
|
<time>2026-07-11T13:13:04.000Z</time>
|
|
</trkpt>
|
|
<trkpt lat="55.558198" lon="8.074448">
|
|
<ele>3.660368</ele>
|
|
<time>2026-07-11T13:13:05.000Z</time>
|
|
</trkpt>
|
|
<trkpt lat="55.558190" lon="8.074462">
|
|
<ele>3.663447</ele>
|
|
<time>2026-07-11T13:13:06.000Z</time>
|
|
</trkpt>
|
|
<trkpt lat="55.558184" lon="8.074476">
|
|
<ele>3.666164</ele>
|
|
<time>2026-07-11T13:13:07.000Z</time>
|
|
</trkpt>
|
|
<trkpt lat="55.558177" lon="8.074492">
|
|
<ele>3.669293</ele>
|
|
<time>2026-07-11T13:13:08.000Z</time>
|
|
</trkpt>
|
|
<trkpt lat="55.558169" lon="8.074509">
|
|
<ele>3.672714</ele>
|
|
<time>2026-07-11T13:13:09.000Z</time>
|
|
</trkpt>
|
|
<trkpt lat="55.558163" lon="8.074526">
|
|
<ele>3.675814</ele>
|
|
<time>2026-07-11T13:13:10.000Z</time>
|
|
</trkpt>
|
|
<trkpt lat="55.558157" lon="8.074542">
|
|
<ele>3.678784</ele>
|
|
<time>2026-07-11T13:13:11.000Z</time>
|
|
</trkpt>
|
|
<trkpt lat="55.558152" lon="8.074556">
|
|
<ele>3.681345</ele>
|
|
<time>2026-07-11T13:13:12.000Z</time>
|
|
</trkpt>
|
|
<trkpt lat="55.558146" lon="8.074569">
|
|
<ele>3.683940</ele>
|
|
<time>2026-07-11T13:13:13.000Z</time>
|
|
</trkpt>
|
|
<trkpt lat="55.558142" lon="8.074583">
|
|
<ele>3.686367</ele>
|
|
<time>2026-07-11T13:13:14.000Z</time>
|
|
</trkpt>
|
|
<trkpt lat="55.558136" lon="8.074602">
|
|
<ele>3.689733</ele>
|
|
<time>2026-07-11T13:13:15.000Z</time>
|
|
</trkpt>
|
|
<trkpt lat="55.558129" lon="8.074618">
|
|
<ele>3.692862</ele>
|
|
<time>2026-07-11T13:13:16.000Z</time>
|
|
</trkpt>
|
|
<trkpt lat="55.558121" lon="8.074636">
|
|
<ele>3.696403</ele>
|
|
<time>2026-07-11T13:13:17.000Z</time>
|
|
</trkpt>
|
|
<trkpt lat="55.558114" lon="8.074656">
|
|
<ele>3.700042</ele>
|
|
<time>2026-07-11T13:13:18.000Z</time>
|
|
</trkpt>
|
|
<trkpt lat="55.558106" lon="8.074676">
|
|
<ele>3.703831</ele>
|
|
<time>2026-07-11T13:13:19.000Z</time>
|
|
</trkpt>
|
|
<trkpt lat="55.558100" lon="8.074696">
|
|
<ele>3.707333</ele>
|
|
<time>2026-07-11T13:13:20.000Z</time>
|
|
</trkpt>
|
|
<trkpt lat="55.558096" lon="8.074713">
|
|
<ele>3.710181</ele>
|
|
<time>2026-07-11T13:13:21.000Z</time>
|
|
</trkpt>
|
|
<trkpt lat="55.558092" lon="8.074727">
|
|
<ele>3.712608</ele>
|
|
<time>2026-07-11T13:13:22.000Z</time>
|
|
</trkpt>
|
|
<trkpt lat="55.558087" lon="8.074741">
|
|
<ele>3.715169</ele>
|
|
<time>2026-07-11T13:13:23.000Z</time>
|
|
</trkpt>
|
|
<trkpt lat="55.558079" lon="8.074757">
|
|
<ele>3.718472</ele>
|
|
<time>2026-07-11T13:13:24.000Z</time>
|
|
</trkpt>
|
|
<trkpt lat="55.558072" lon="8.074773">
|
|
<ele>3.721601</ele>
|
|
<time>2026-07-11T13:13:25.000Z</time>
|
|
</trkpt>
|
|
<trkpt lat="55.558064" lon="8.074788">
|
|
<ele>3.724791</ele>
|
|
<time>2026-07-11T13:13:26.000Z</time>
|
|
</trkpt>
|
|
<trkpt lat="55.558056" lon="8.074805">
|
|
<ele>3.728212</ele>
|
|
<time>2026-07-11T13:13:27.000Z</time>
|
|
</trkpt>
|
|
<trkpt lat="55.558049" lon="8.074824">
|
|
<ele>3.731719</ele>
|
|
<time>2026-07-11T13:13:28.000Z</time>
|
|
</trkpt>
|
|
<trkpt lat="55.558043" lon="8.074838">
|
|
<ele>3.734437</ele>
|
|
<time>2026-07-11T13:13:29.000Z</time>
|
|
</trkpt>
|
|
<trkpt lat="55.558037" lon="8.074850">
|
|
<ele>3.736914</ele>
|
|
<time>2026-07-11T13:13:30.000Z</time>
|
|
</trkpt>
|
|
<trkpt lat="55.558030" lon="8.074862">
|
|
<ele>3.739581</ele>
|
|
<time>2026-07-11T13:13:31.000Z</time>
|
|
</trkpt>
|
|
<trkpt lat="55.558024" lon="8.074874">
|
|
<ele>3.742059</ele>
|
|
<time>2026-07-11T13:13:32.000Z</time>
|
|
</trkpt>
|
|
<trkpt lat="55.558018" lon="8.074887">
|
|
<ele>3.744654</ele>
|
|
<time>2026-07-11T13:13:33.000Z</time>
|
|
</trkpt>
|
|
<trkpt lat="55.558011" lon="8.074904">
|
|
<ele>3.747907</ele>
|
|
<time>2026-07-11T13:13:34.000Z</time>
|
|
</trkpt>
|
|
<trkpt lat="55.558003" lon="8.074922">
|
|
<ele>3.751448</ele>
|
|
<time>2026-07-11T13:13:35.000Z</time>
|
|
</trkpt>
|
|
<trkpt lat="55.557997" lon="8.074935">
|
|
<ele>3.754044</ele>
|
|
<time>2026-07-11T13:13:36.000Z</time>
|
|
</trkpt>
|
|
<trkpt lat="55.557992" lon="8.074947">
|
|
<ele>3.756350</ele>
|
|
<time>2026-07-11T13:13:37.000Z</time>
|
|
</trkpt>
|
|
<trkpt lat="55.557986" lon="8.074961">
|
|
<ele>3.759067</ele>
|
|
<time>2026-07-11T13:13:38.000Z</time>
|
|
</trkpt>
|
|
<trkpt lat="55.557980" lon="8.074972">
|
|
<ele>3.761431</ele>
|
|
<time>2026-07-11T13:13:39.000Z</time>
|
|
</trkpt>
|
|
<trkpt lat="55.557972" lon="8.074981">
|
|
<ele>3.764024</ele>
|
|
<time>2026-07-11T13:13:40.000Z</time>
|
|
</trkpt>
|
|
<trkpt lat="55.557965" lon="8.074990">
|
|
<ele>3.766391</ele>
|
|
<time>2026-07-11T13:13:41.000Z</time>
|
|
</trkpt>
|
|
<trkpt lat="55.557957" lon="8.074999">
|
|
<ele>3.768985</ele>
|
|
<time>2026-07-11T13:13:42.000Z</time>
|
|
</trkpt>
|
|
<trkpt lat="55.557950" lon="8.075008">
|
|
<ele>3.771352</ele>
|
|
<time>2026-07-11T13:13:43.000Z</time>
|
|
</trkpt>
|
|
<trkpt lat="55.557942" lon="8.075018">
|
|
<ele>3.774032</ele>
|
|
<time>2026-07-11T13:13:44.000Z</time>
|
|
</trkpt>
|
|
<trkpt lat="55.557934" lon="8.075028">
|
|
<ele>3.776711</ele>
|
|
<time>2026-07-11T13:13:45.000Z</time>
|
|
</trkpt>
|
|
<trkpt lat="55.557927" lon="8.075040">
|
|
<ele>3.779378</ele>
|
|
<time>2026-07-11T13:13:46.000Z</time>
|
|
</trkpt>
|
|
<trkpt lat="55.557921" lon="8.075054">
|
|
<ele>3.782095</ele>
|
|
<time>2026-07-11T13:13:47.000Z</time>
|
|
</trkpt>
|
|
<trkpt lat="55.557913" lon="8.075065">
|
|
<ele>3.784867</ele>
|
|
<time>2026-07-11T13:13:48.000Z</time>
|
|
</trkpt>
|
|
<trkpt lat="55.557904" lon="8.075077">
|
|
<ele>3.787950</ele>
|
|
<time>2026-07-11T13:13:49.000Z</time>
|
|
</trkpt>
|
|
<trkpt lat="55.557896" lon="8.075089">
|
|
<ele>3.790820</ele>
|
|
<time>2026-07-11T13:13:50.000Z</time>
|
|
</trkpt>
|
|
<trkpt lat="55.557887" lon="8.075102">
|
|
<ele>3.793998</ele>
|
|
<time>2026-07-11T13:13:51.000Z</time>
|
|
</trkpt>
|
|
<trkpt lat="55.557877" lon="8.075113">
|
|
<ele>3.797219</ele>
|
|
<time>2026-07-11T13:13:52.000Z</time>
|
|
</trkpt>
|
|
<trkpt lat="55.557869" lon="8.075124">
|
|
<ele>3.799991</ele>
|
|
<time>2026-07-11T13:13:53.000Z</time>
|
|
</trkpt>
|
|
<trkpt lat="55.557862" lon="8.075137">
|
|
<ele>3.802768</ele>
|
|
<time>2026-07-11T13:13:54.000Z</time>
|
|
</trkpt>
|
|
<trkpt lat="55.557854" lon="8.075150">
|
|
<ele>3.805740</ele>
|
|
<time>2026-07-11T13:13:55.000Z</time>
|
|
</trkpt>
|
|
<trkpt lat="55.557848" lon="8.075163">
|
|
<ele>3.808335</ele>
|
|
<time>2026-07-11T13:13:56.000Z</time>
|
|
</trkpt>
|
|
<trkpt lat="55.557843" lon="8.075177">
|
|
<ele>3.810896</ele>
|
|
<time>2026-07-11T13:13:57.000Z</time>
|
|
</trkpt>
|
|
<trkpt lat="55.557837" lon="8.075190">
|
|
<ele>3.813492</ele>
|
|
<time>2026-07-11T13:13:58.000Z</time>
|
|
</trkpt>
|
|
<trkpt lat="55.557831" lon="8.075203">
|
|
<ele>3.816088</ele>
|
|
<time>2026-07-11T13:13:59.000Z</time>
|
|
</trkpt>
|
|
<trkpt lat="55.557825" lon="8.075220">
|
|
<ele>3.819187</ele>
|
|
<time>2026-07-11T13:14:00.000Z</time>
|
|
</trkpt>
|
|
<trkpt lat="55.557820" lon="8.075239">
|
|
<ele>3.822429</ele>
|
|
<time>2026-07-11T13:14:01.000Z</time>
|
|
</trkpt>
|
|
<trkpt lat="55.557814" lon="8.075257">
|
|
<ele>3.825661</ele>
|
|
<time>2026-07-11T13:14:02.000Z</time>
|
|
</trkpt>
|
|
<trkpt lat="55.557807" lon="8.075277">
|
|
<ele>3.829299</ele>
|
|
<time>2026-07-11T13:14:03.000Z</time>
|
|
</trkpt>
|
|
<trkpt lat="55.557799" lon="8.075298">
|
|
<ele>3.833216</ele>
|
|
<time>2026-07-11T13:14:04.000Z</time>
|
|
</trkpt>
|
|
<trkpt lat="55.557793" lon="8.075315">
|
|
<ele>3.836316</ele>
|
|
<time>2026-07-11T13:14:05.000Z</time>
|
|
</trkpt>
|
|
<trkpt lat="55.557787" lon="8.075330">
|
|
<ele>3.839158</ele>
|
|
<time>2026-07-11T13:14:06.000Z</time>
|
|
</trkpt>
|
|
<trkpt lat="55.557782" lon="8.075346">
|
|
<ele>3.841986</ele>
|
|
<time>2026-07-11T13:14:07.000Z</time>
|
|
</trkpt>
|
|
<trkpt lat="55.557774" lon="8.075364">
|
|
<ele>3.845527</ele>
|
|
<time>2026-07-11T13:14:08.000Z</time>
|
|
</trkpt>
|
|
<trkpt lat="55.557766" lon="8.075380">
|
|
<ele>3.848830</ele>
|
|
<time>2026-07-11T13:14:09.000Z</time>
|
|
</trkpt>
|
|
<trkpt lat="55.557759" lon="8.075395">
|
|
<ele>3.851839</ele>
|
|
<time>2026-07-11T13:14:10.000Z</time>
|
|
</trkpt>
|
|
<trkpt lat="55.557749" lon="8.075411">
|
|
<ele>3.855527</ele>
|
|
<time>2026-07-11T13:14:11.000Z</time>
|
|
</trkpt>
|
|
<trkpt lat="55.557740" lon="8.075427">
|
|
<ele>3.859018</ele>
|
|
<time>2026-07-11T13:14:12.000Z</time>
|
|
</trkpt>
|
|
<trkpt lat="55.557730" lon="8.075440">
|
|
<ele>3.862413</ele>
|
|
<time>2026-07-11T13:14:13.000Z</time>
|
|
</trkpt>
|
|
<trkpt lat="55.557721" lon="8.075454">
|
|
<ele>3.865692</ele>
|
|
<time>2026-07-11T13:14:14.000Z</time>
|
|
</trkpt>
|
|
<trkpt lat="55.557711" lon="8.075467">
|
|
<ele>3.869086</ele>
|
|
<time>2026-07-11T13:14:15.000Z</time>
|
|
</trkpt>
|
|
<trkpt lat="55.557702" lon="8.075480">
|
|
<ele>3.872265</ele>
|
|
<time>2026-07-11T13:14:16.000Z</time>
|
|
</trkpt>
|
|
<trkpt lat="55.557694" lon="8.075493">
|
|
<ele>3.875237</ele>
|
|
<time>2026-07-11T13:14:17.000Z</time>
|
|
</trkpt>
|
|
<trkpt lat="55.557685" lon="8.075507">
|
|
<ele>3.878515</ele>
|
|
<time>2026-07-11T13:14:18.000Z</time>
|
|
</trkpt>
|
|
<trkpt lat="55.557675" lon="8.075519">
|
|
<ele>3.881821</ele>
|
|
<time>2026-07-11T13:14:19.000Z</time>
|
|
</trkpt>
|
|
<trkpt lat="55.557667" lon="8.075530">
|
|
<ele>3.884593</ele>
|
|
<time>2026-07-11T13:14:20.000Z</time>
|
|
</trkpt>
|
|
<trkpt lat="55.557660" lon="8.075542">
|
|
<ele>3.887260</ele>
|
|
<time>2026-07-11T13:14:21.000Z</time>
|
|
</trkpt>
|
|
<trkpt lat="55.557654" lon="8.075558">
|
|
<ele>3.890229</ele>
|
|
<time>2026-07-11T13:14:22.000Z</time>
|
|
</trkpt>
|
|
<trkpt lat="55.557650" lon="8.075576">
|
|
<ele>3.893221</ele>
|
|
<time>2026-07-11T13:14:23.000Z</time>
|
|
</trkpt>
|
|
<trkpt lat="55.557646" lon="8.075592">
|
|
<ele>3.895927</ele>
|
|
<time>2026-07-11T13:14:24.000Z</time>
|
|
</trkpt>
|
|
<trkpt lat="55.557642" lon="8.075605">
|
|
<ele>3.898216</ele>
|
|
<time>2026-07-11T13:14:25.000Z</time>
|
|
</trkpt>
|
|
<trkpt lat="55.557639" lon="8.075620">
|
|
<ele>3.900677</ele>
|
|
<time>2026-07-11T13:14:26.000Z</time>
|
|
</trkpt>
|
|
<trkpt lat="55.557633" lon="8.075638">
|
|
<ele>3.903909</ele>
|
|
<time>2026-07-11T13:14:27.000Z</time>
|
|
</trkpt>
|
|
<trkpt lat="55.557627" lon="8.075656">
|
|
<ele>3.907142</ele>
|
|
<time>2026-07-11T13:14:28.000Z</time>
|
|
</trkpt>
|
|
<trkpt lat="55.557622" lon="8.075674">
|
|
<ele>3.910244</ele>
|
|
<time>2026-07-11T13:14:29.000Z</time>
|
|
</trkpt>
|
|
<trkpt lat="55.557615" lon="8.075693">
|
|
<ele>3.913751</ele>
|
|
<time>2026-07-11T13:14:30.000Z</time>
|
|
</trkpt>
|
|
<trkpt lat="55.557610" lon="8.075711">
|
|
<ele>3.916854</ele>
|
|
<time>2026-07-11T13:14:31.000Z</time>
|
|
</trkpt>
|
|
<trkpt lat="55.557604" lon="8.075727">
|
|
<ele>3.919823</ele>
|
|
<time>2026-07-11T13:14:32.000Z</time>
|
|
</trkpt>
|
|
<trkpt lat="55.557600" lon="8.075745">
|
|
<ele>3.922815</ele>
|
|
<time>2026-07-11T13:14:33.000Z</time>
|
|
</trkpt>
|
|
<trkpt lat="55.557596" lon="8.075762">
|
|
<ele>3.925663</ele>
|
|
<time>2026-07-11T13:14:34.000Z</time>
|
|
</trkpt>
|
|
<trkpt lat="55.557591" lon="8.075778">
|
|
<ele>3.928491</ele>
|
|
<time>2026-07-11T13:14:35.000Z</time>
|
|
</trkpt>
|
|
<trkpt lat="55.557583" lon="8.075794">
|
|
<ele>3.931794</ele>
|
|
<time>2026-07-11T13:14:36.000Z</time>
|
|
</trkpt>
|
|
<trkpt lat="55.557577" lon="8.075812">
|
|
<ele>3.935026</ele>
|
|
<time>2026-07-11T13:14:37.000Z</time>
|
|
</trkpt>
|
|
<trkpt lat="55.557572" lon="8.075829">
|
|
<ele>3.937991</ele>
|
|
<time>2026-07-11T13:14:38.000Z</time>
|
|
</trkpt>
|
|
<trkpt lat="55.557564" lon="8.075844">
|
|
<ele>3.941180</ele>
|
|
<time>2026-07-11T13:14:39.000Z</time>
|
|
</trkpt>
|
|
<trkpt lat="55.557558" lon="8.075858">
|
|
<ele>3.943897</ele>
|
|
<time>2026-07-11T13:14:40.000Z</time>
|
|
</trkpt>
|
|
<trkpt lat="55.557553" lon="8.075874">
|
|
<ele>3.946725</ele>
|
|
<time>2026-07-11T13:14:41.000Z</time>
|
|
</trkpt>
|
|
<trkpt lat="55.557545" lon="8.075893">
|
|
<ele>3.950389</ele>
|
|
<time>2026-07-11T13:14:42.000Z</time>
|
|
</trkpt>
|
|
<trkpt lat="55.557538" lon="8.075911">
|
|
<ele>3.953768</ele>
|
|
<time>2026-07-11T13:14:43.000Z</time>
|
|
</trkpt>
|
|
<trkpt lat="55.557530" lon="8.075925">
|
|
<ele>3.956847</ele>
|
|
<time>2026-07-11T13:14:44.000Z</time>
|
|
</trkpt>
|
|
<trkpt lat="55.557524" lon="8.075938">
|
|
<ele>3.959442</ele>
|
|
<time>2026-07-11T13:14:45.000Z</time>
|
|
</trkpt>
|
|
<trkpt lat="55.557520" lon="8.075953">
|
|
<ele>3.962008</ele>
|
|
<time>2026-07-11T13:14:46.000Z</time>
|
|
</trkpt>
|
|
<trkpt lat="55.557516" lon="8.075967">
|
|
<ele>3.964434</ele>
|
|
<time>2026-07-11T13:14:47.000Z</time>
|
|
</trkpt>
|
|
<trkpt lat="55.557511" lon="8.075984">
|
|
<ele>3.967398</ele>
|
|
<time>2026-07-11T13:14:48.000Z</time>
|
|
</trkpt>
|
|
<trkpt lat="55.557505" lon="8.076002">
|
|
<ele>3.970630</ele>
|
|
<time>2026-07-11T13:14:49.000Z</time>
|
|
</trkpt>
|
|
<trkpt lat="55.557501" lon="8.076020">
|
|
<ele>3.973622</ele>
|
|
<time>2026-07-11T13:14:50.000Z</time>
|
|
</trkpt>
|
|
<trkpt lat="55.557497" lon="8.076037">
|
|
<ele>3.976470</ele>
|
|
<time>2026-07-11T13:14:51.000Z</time>
|
|
</trkpt>
|
|
<trkpt lat="55.557492" lon="8.076054">
|
|
<ele>3.979434</ele>
|
|
<time>2026-07-11T13:14:52.000Z</time>
|
|
</trkpt>
|
|
<trkpt lat="55.557486" lon="8.076073">
|
|
<ele>3.982800</ele>
|
|
<time>2026-07-11T13:14:53.000Z</time>
|
|
</trkpt>
|
|
<trkpt lat="55.557482" lon="8.076096">
|
|
<ele>3.986523</ele>
|
|
<time>2026-07-11T13:14:54.000Z</time>
|
|
</trkpt>
|
|
<trkpt lat="55.557477" lon="8.076113">
|
|
<ele>3.989487</ele>
|
|
<time>2026-07-11T13:14:55.000Z</time>
|
|
</trkpt>
|
|
<trkpt lat="55.557469" lon="8.076131">
|
|
<ele>3.993028</ele>
|
|
<time>2026-07-11T13:14:56.000Z</time>
|
|
</trkpt>
|
|
<trkpt lat="55.557461" lon="8.076147">
|
|
<ele>3.996332</ele>
|
|
<time>2026-07-11T13:14:57.000Z</time>
|
|
</trkpt>
|
|
<trkpt lat="55.557455" lon="8.076161">
|
|
<ele>3.999049</ele>
|
|
<time>2026-07-11T13:14:58.000Z</time>
|
|
</trkpt>
|
|
<trkpt lat="55.557451" lon="8.076178">
|
|
<ele>4.001706</ele>
|
|
<time>2026-07-11T13:14:59.000Z</time>
|
|
</trkpt>
|
|
<trkpt lat="55.557444" lon="8.076199">
|
|
<ele>4.001042</ele>
|
|
<time>2026-07-11T13:15:00.000Z</time>
|
|
</trkpt>
|
|
<trkpt lat="55.557438" lon="8.076219">
|
|
<ele>4.000427</ele>
|
|
<time>2026-07-11T13:15:01.000Z</time>
|
|
</trkpt>
|
|
<trkpt lat="55.557432" lon="8.076238">
|
|
<ele>3.999834</ele>
|
|
<time>2026-07-11T13:15:02.000Z</time>
|
|
</trkpt>
|
|
<trkpt lat="55.557427" lon="8.076257">
|
|
<ele>3.999264</ele>
|
|
<time>2026-07-11T13:15:03.000Z</time>
|
|
</trkpt>
|
|
<trkpt lat="55.557420" lon="8.076276">
|
|
<ele>3.998647</ele>
|
|
<time>2026-07-11T13:15:04.000Z</time>
|
|
</trkpt>
|
|
<trkpt lat="55.557414" lon="8.076294">
|
|
<ele>3.998079</ele>
|
|
<time>2026-07-11T13:15:05.000Z</time>
|
|
</trkpt>
|
|
<trkpt lat="55.557408" lon="8.076316">
|
|
<ele>3.997415</ele>
|
|
<time>2026-07-11T13:15:06.000Z</time>
|
|
</trkpt>
|
|
<trkpt lat="55.557400" lon="8.076337">
|
|
<ele>3.996726</ele>
|
|
<time>2026-07-11T13:15:07.000Z</time>
|
|
</trkpt>
|
|
<trkpt lat="55.557393" lon="8.076356">
|
|
<ele>3.996109</ele>
|
|
<time>2026-07-11T13:15:08.000Z</time>
|
|
</trkpt>
|
|
<trkpt lat="55.557385" lon="8.076374">
|
|
<ele>3.995486</ele>
|
|
<time>2026-07-11T13:15:09.000Z</time>
|
|
</trkpt>
|
|
<trkpt lat="55.557379" lon="8.076391">
|
|
<ele>3.994941</ele>
|
|
<time>2026-07-11T13:15:10.000Z</time>
|
|
</trkpt>
|
|
<trkpt lat="55.557375" lon="8.076409">
|
|
<ele>3.994415</ele>
|
|
<time>2026-07-11T13:15:11.000Z</time>
|
|
</trkpt>
|
|
<trkpt lat="55.557371" lon="8.076430">
|
|
<ele>3.993812</ele>
|
|
<time>2026-07-11T13:15:12.000Z</time>
|
|
</trkpt>
|
|
<trkpt lat="55.557368" lon="8.076451">
|
|
<ele>3.993223</ele>
|
|
<time>2026-07-11T13:15:13.000Z</time>
|
|
</trkpt>
|
|
<trkpt lat="55.557364" lon="8.076473">
|
|
<ele>3.992594</ele>
|
|
<time>2026-07-11T13:15:14.000Z</time>
|
|
</trkpt>
|
|
<trkpt lat="55.557358" lon="8.076496">
|
|
<ele>3.991905</ele>
|
|
<time>2026-07-11T13:15:15.000Z</time>
|
|
</trkpt>
|
|
<trkpt lat="55.557352" lon="8.076516">
|
|
<ele>3.991289</ele>
|
|
<time>2026-07-11T13:15:16.000Z</time>
|
|
</trkpt>
|
|
<trkpt lat="55.557348" lon="8.076537">
|
|
<ele>3.990686</ele>
|
|
<time>2026-07-11T13:15:17.000Z</time>
|
|
</trkpt>
|
|
<trkpt lat="55.557343" lon="8.076555">
|
|
<ele>3.990140</ele>
|
|
<time>2026-07-11T13:15:18.000Z</time>
|
|
</trkpt>
|
|
<trkpt lat="55.557337" lon="8.076575">
|
|
<ele>3.989524</ele>
|
|
<time>2026-07-11T13:15:19.000Z</time>
|
|
</trkpt>
|
|
<trkpt lat="55.557333" lon="8.076597">
|
|
<ele>3.988896</ele>
|
|
<time>2026-07-11T13:15:20.000Z</time>
|
|
</trkpt>
|
|
<trkpt lat="55.557328" lon="8.076617">
|
|
<ele>3.988301</ele>
|
|
<time>2026-07-11T13:15:21.000Z</time>
|
|
</trkpt>
|
|
<trkpt lat="55.557322" lon="8.076636">
|
|
<ele>3.987709</ele>
|
|
<time>2026-07-11T13:15:22.000Z</time>
|
|
</trkpt>
|
|
<trkpt lat="55.557318" lon="8.076654">
|
|
<ele>3.987183</ele>
|
|
<time>2026-07-11T13:15:23.000Z</time>
|
|
</trkpt>
|
|
<trkpt lat="55.557313" lon="8.076671">
|
|
<ele>3.986661</ele>
|
|
<time>2026-07-11T13:15:24.000Z</time>
|
|
</trkpt>
|
|
<trkpt lat="55.557307" lon="8.076688">
|
|
<ele>3.986116</ele>
|
|
<time>2026-07-11T13:15:25.000Z</time>
|
|
</trkpt>
|
|
<trkpt lat="55.557303" lon="8.076704">
|
|
<ele>3.985640</ele>
|
|
<time>2026-07-11T13:15:26.000Z</time>
|
|
</trkpt>
|
|
<trkpt lat="55.557297" lon="8.076721">
|
|
<ele>3.985095</ele>
|
|
<time>2026-07-11T13:15:27.000Z</time>
|
|
</trkpt>
|
|
<trkpt lat="55.557291" lon="8.076738">
|
|
<ele>3.984550</ele>
|
|
<time>2026-07-11T13:15:28.000Z</time>
|
|
</trkpt>
|
|
<trkpt lat="55.557286" lon="8.076756">
|
|
<ele>3.984004</ele>
|
|
<time>2026-07-11T13:15:29.000Z</time>
|
|
</trkpt>
|
|
<trkpt lat="55.557280" lon="8.076774">
|
|
<ele>3.983436</ele>
|
|
<time>2026-07-11T13:15:30.000Z</time>
|
|
</trkpt>
|
|
<trkpt lat="55.557274" lon="8.076791">
|
|
<ele>3.982891</ele>
|
|
<time>2026-07-11T13:15:31.000Z</time>
|
|
</trkpt>
|
|
<trkpt lat="55.557270" lon="8.076809">
|
|
<ele>3.982365</ele>
|
|
<time>2026-07-11T13:15:32.000Z</time>
|
|
</trkpt>
|
|
<trkpt lat="55.557267" lon="8.076827">
|
|
<ele>3.981854</ele>
|
|
<time>2026-07-11T13:15:33.000Z</time>
|
|
</trkpt>
|
|
<trkpt lat="55.557262" lon="8.076844">
|
|
<ele>3.981333</ele>
|
|
<time>2026-07-11T13:15:34.000Z</time>
|
|
</trkpt>
|
|
<trkpt lat="55.557257" lon="8.076867">
|
|
<ele>3.980662</ele>
|
|
<time>2026-07-11T13:15:35.000Z</time>
|
|
</trkpt>
|
|
<trkpt lat="55.557251" lon="8.076883">
|
|
<ele>3.980140</ele>
|
|
<time>2026-07-11T13:15:36.000Z</time>
|
|
</trkpt>
|
|
<trkpt lat="55.557244" lon="8.076899">
|
|
<ele>3.979590</ele>
|
|
<time>2026-07-11T13:15:37.000Z</time>
|
|
</trkpt>
|
|
<trkpt lat="55.557236" lon="8.076916">
|
|
<ele>3.978988</ele>
|
|
<time>2026-07-11T13:15:38.000Z</time>
|
|
</trkpt>
|
|
<trkpt lat="55.557230" lon="8.076931">
|
|
<ele>3.978488</ele>
|
|
<time>2026-07-11T13:15:39.000Z</time>
|
|
</trkpt>
|
|
<trkpt lat="55.557225" lon="8.076947">
|
|
<ele>3.977991</ele>
|
|
<time>2026-07-11T13:15:40.000Z</time>
|
|
</trkpt>
|
|
<trkpt lat="55.557219" lon="8.076966">
|
|
<ele>3.977399</ele>
|
|
<time>2026-07-11T13:15:41.000Z</time>
|
|
</trkpt>
|
|
<trkpt lat="55.557215" lon="8.076982">
|
|
<ele>3.976923</ele>
|
|
<time>2026-07-11T13:15:42.000Z</time>
|
|
</trkpt>
|
|
<trkpt lat="55.557211" lon="8.077000">
|
|
<ele>3.976397</ele>
|
|
<time>2026-07-11T13:15:43.000Z</time>
|
|
</trkpt>
|
|
<trkpt lat="55.557207" lon="8.077019">
|
|
<ele>3.975845</ele>
|
|
<time>2026-07-11T13:15:44.000Z</time>
|
|
</trkpt>
|
|
<trkpt lat="55.557205" lon="8.077036">
|
|
<ele>3.975373</ele>
|
|
<time>2026-07-11T13:15:45.000Z</time>
|
|
</trkpt>
|
|
<trkpt lat="55.557204" lon="8.077053">
|
|
<ele>3.974908</ele>
|
|
<time>2026-07-11T13:15:46.000Z</time>
|
|
</trkpt>
|
|
<trkpt lat="55.557198" lon="8.077074">
|
|
<ele>3.974268</ele>
|
|
<time>2026-07-11T13:15:47.000Z</time>
|
|
</trkpt>
|
|
<trkpt lat="55.557192" lon="8.077091">
|
|
<ele>3.973723</ele>
|
|
<time>2026-07-11T13:15:48.000Z</time>
|
|
</trkpt>
|
|
<trkpt lat="55.557187" lon="8.077108">
|
|
<ele>3.973201</ele>
|
|
<time>2026-07-11T13:15:49.000Z</time>
|
|
</trkpt>
|
|
<trkpt lat="55.557181" lon="8.077127">
|
|
<ele>3.972609</ele>
|
|
<time>2026-07-11T13:15:50.000Z</time>
|
|
</trkpt>
|
|
<trkpt lat="55.557177" lon="8.077146">
|
|
<ele>3.972058</ele>
|
|
<time>2026-07-11T13:15:51.000Z</time>
|
|
</trkpt>
|
|
<trkpt lat="55.557171" lon="8.077164">
|
|
<ele>3.971489</ele>
|
|
<time>2026-07-11T13:15:52.000Z</time>
|
|
</trkpt>
|
|
<trkpt lat="55.557164" lon="8.077182">
|
|
<ele>3.970895</ele>
|
|
<time>2026-07-11T13:15:53.000Z</time>
|
|
</trkpt>
|
|
<trkpt lat="55.557157" lon="8.077199">
|
|
<ele>3.970323</ele>
|
|
<time>2026-07-11T13:15:54.000Z</time>
|
|
</trkpt>
|
|
<trkpt lat="55.557151" lon="8.077212">
|
|
<ele>3.969866</ele>
|
|
<time>2026-07-11T13:15:55.000Z</time>
|
|
</trkpt>
|
|
<trkpt lat="55.557145" lon="8.077234">
|
|
<ele>3.969202</ele>
|
|
<time>2026-07-11T13:15:56.000Z</time>
|
|
</trkpt>
|
|
<trkpt lat="55.557137" lon="8.077252">
|
|
<ele>3.968579</ele>
|
|
<time>2026-07-11T13:15:57.000Z</time>
|
|
</trkpt>
|
|
<trkpt lat="55.557129" lon="8.077266">
|
|
<ele>3.968038</ele>
|
|
<time>2026-07-11T13:15:58.000Z</time>
|
|
</trkpt>
|
|
<trkpt lat="55.557122" lon="8.077277">
|
|
<ele>3.967587</ele>
|
|
<time>2026-07-11T13:15:59.000Z</time>
|
|
</trkpt>
|
|
<trkpt lat="55.557114" lon="8.077289">
|
|
<ele>3.967082</ele>
|
|
<time>2026-07-11T13:16:00.000Z</time>
|
|
</trkpt>
|
|
<trkpt lat="55.557107" lon="8.077303">
|
|
<ele>3.966574</ele>
|
|
<time>2026-07-11T13:16:01.000Z</time>
|
|
</trkpt>
|
|
<trkpt lat="55.557101" lon="8.077316">
|
|
<ele>3.966117</ele>
|
|
<time>2026-07-11T13:16:02.000Z</time>
|
|
</trkpt>
|
|
<trkpt lat="55.557097" lon="8.077329">
|
|
<ele>3.965715</ele>
|
|
<time>2026-07-11T13:16:03.000Z</time>
|
|
</trkpt>
|
|
<trkpt lat="55.557092" lon="8.077338">
|
|
<ele>3.965372</ele>
|
|
<time>2026-07-11T13:16:04.000Z</time>
|
|
</trkpt>
|
|
<trkpt lat="55.557084" lon="8.077351">
|
|
<ele>3.964849</ele>
|
|
<time>2026-07-11T13:16:05.000Z</time>
|
|
</trkpt>
|
|
<trkpt lat="55.557076" lon="8.077365">
|
|
<ele>3.964308</ele>
|
|
<time>2026-07-11T13:16:06.000Z</time>
|
|
</trkpt>
|
|
<trkpt lat="55.557068" lon="8.077378">
|
|
<ele>3.963785</ele>
|
|
<time>2026-07-11T13:16:07.000Z</time>
|
|
</trkpt>
|
|
<trkpt lat="55.557061" lon="8.077391">
|
|
<ele>3.963297</ele>
|
|
<time>2026-07-11T13:16:08.000Z</time>
|
|
</trkpt>
|
|
<trkpt lat="55.557053" lon="8.077403">
|
|
<ele>3.962792</ele>
|
|
<time>2026-07-11T13:16:09.000Z</time>
|
|
</trkpt>
|
|
<trkpt lat="55.557045" lon="8.077417">
|
|
<ele>3.962250</ele>
|
|
<time>2026-07-11T13:16:10.000Z</time>
|
|
</trkpt>
|
|
<trkpt lat="55.557038" lon="8.077434">
|
|
<ele>3.961678</ele>
|
|
<time>2026-07-11T13:16:11.000Z</time>
|
|
</trkpt>
|
|
<trkpt lat="55.557032" lon="8.077450">
|
|
<ele>3.961156</ele>
|
|
<time>2026-07-11T13:16:12.000Z</time>
|
|
</trkpt>
|
|
<trkpt lat="55.557027" lon="8.077466">
|
|
<ele>3.960659</ele>
|
|
<time>2026-07-11T13:16:13.000Z</time>
|
|
</trkpt>
|
|
<trkpt lat="55.557019" lon="8.077486">
|
|
<ele>3.959992</ele>
|
|
<time>2026-07-11T13:16:14.000Z</time>
|
|
</trkpt>
|
|
<trkpt lat="55.557011" lon="8.077506">
|
|
<ele>3.959326</ele>
|
|
<time>2026-07-11T13:16:15.000Z</time>
|
|
</trkpt>
|
|
<trkpt lat="55.557005" lon="8.077529">
|
|
<ele>3.958637</ele>
|
|
<time>2026-07-11T13:16:16.000Z</time>
|
|
</trkpt>
|
|
<trkpt lat="55.557002" lon="8.077548">
|
|
<ele>3.958100</ele>
|
|
<time>2026-07-11T13:16:17.000Z</time>
|
|
</trkpt>
|
|
<trkpt lat="55.556999" lon="8.077566">
|
|
<ele>3.957589</ele>
|
|
<time>2026-07-11T13:16:18.000Z</time>
|
|
</trkpt>
|
|
<trkpt lat="55.556994" lon="8.077593">
|
|
<ele>3.956817</ele>
|
|
<time>2026-07-11T13:16:19.000Z</time>
|
|
</trkpt>
|
|
<trkpt lat="55.556990" lon="8.077614">
|
|
<ele>3.956214</ele>
|
|
<time>2026-07-11T13:16:20.000Z</time>
|
|
</trkpt>
|
|
<trkpt lat="55.556988" lon="8.077632">
|
|
<ele>3.955715</ele>
|
|
<time>2026-07-11T13:16:21.000Z</time>
|
|
</trkpt>
|
|
<trkpt lat="55.556988" lon="8.077649">
|
|
<ele>3.955252</ele>
|
|
<time>2026-07-11T13:16:22.000Z</time>
|
|
</trkpt>
|
|
<trkpt lat="55.556984" lon="8.077669">
|
|
<ele>3.954675</ele>
|
|
<time>2026-07-11T13:16:23.000Z</time>
|
|
</trkpt>
|
|
<trkpt lat="55.556978" lon="8.077688">
|
|
<ele>3.954083</ele>
|
|
<time>2026-07-11T13:16:24.000Z</time>
|
|
</trkpt>
|
|
<trkpt lat="55.556975" lon="8.077705">
|
|
<ele>3.953598</ele>
|
|
<time>2026-07-11T13:16:25.000Z</time>
|
|
</trkpt>
|
|
<trkpt lat="55.556971" lon="8.077720">
|
|
<ele>3.953147</ele>
|
|
<time>2026-07-11T13:16:26.000Z</time>
|
|
</trkpt>
|
|
<trkpt lat="55.556969" lon="8.077731">
|
|
<ele>3.952833</ele>
|
|
<time>2026-07-11T13:16:27.000Z</time>
|
|
</trkpt>
|
|
<trkpt lat="55.556962" lon="8.077756">
|
|
<ele>3.952074</ele>
|
|
<time>2026-07-11T13:16:28.000Z</time>
|
|
</trkpt>
|
|
<trkpt lat="55.556954" lon="8.077770">
|
|
<ele>3.951532</ele>
|
|
<time>2026-07-11T13:16:29.000Z</time>
|
|
</trkpt>
|
|
<trkpt lat="55.556948" lon="8.077782">
|
|
<ele>3.951097</ele>
|
|
<time>2026-07-11T13:16:30.000Z</time>
|
|
</trkpt>
|
|
<trkpt lat="55.556942" lon="8.077796">
|
|
<ele>3.950619</ele>
|
|
<time>2026-07-11T13:16:31.000Z</time>
|
|
</trkpt>
|
|
<trkpt lat="55.556937" lon="8.077811">
|
|
<ele>3.950145</ele>
|
|
<time>2026-07-11T13:16:32.000Z</time>
|
|
</trkpt>
|
|
<trkpt lat="55.556934" lon="8.077825">
|
|
<ele>3.949738</ele>
|
|
<time>2026-07-11T13:16:33.000Z</time>
|
|
</trkpt>
|
|
<trkpt lat="55.556929" lon="8.077848">
|
|
<ele>3.949067</ele>
|
|
<time>2026-07-11T13:16:34.000Z</time>
|
|
</trkpt>
|
|
<trkpt lat="55.556925" lon="8.077863">
|
|
<ele>3.948616</ele>
|
|
<time>2026-07-11T13:16:35.000Z</time>
|
|
</trkpt>
|
|
<trkpt lat="55.556922" lon="8.077876">
|
|
<ele>3.948234</ele>
|
|
<time>2026-07-11T13:16:36.000Z</time>
|
|
</trkpt>
|
|
<trkpt lat="55.556917" lon="8.077899">
|
|
<ele>3.947564</ele>
|
|
<time>2026-07-11T13:16:37.000Z</time>
|
|
</trkpt>
|
|
<trkpt lat="55.556912" lon="8.077915">
|
|
<ele>3.947067</ele>
|
|
<time>2026-07-11T13:16:38.000Z</time>
|
|
</trkpt>
|
|
<trkpt lat="55.556905" lon="8.077928">
|
|
<ele>3.946578</ele>
|
|
<time>2026-07-11T13:16:39.000Z</time>
|
|
</trkpt>
|
|
<trkpt lat="55.556898" lon="8.077948">
|
|
<ele>3.945938</ele>
|
|
<time>2026-07-11T13:16:40.000Z</time>
|
|
</trkpt>
|
|
<trkpt lat="55.556894" lon="8.077963">
|
|
<ele>3.945487</ele>
|
|
<time>2026-07-11T13:16:41.000Z</time>
|
|
</trkpt>
|
|
<trkpt lat="55.556889" lon="8.077975">
|
|
<ele>3.945082</ele>
|
|
<time>2026-07-11T13:16:42.000Z</time>
|
|
</trkpt>
|
|
<trkpt lat="55.556878" lon="8.077995">
|
|
<ele>3.944323</ele>
|
|
<time>2026-07-11T13:16:43.000Z</time>
|
|
</trkpt>
|
|
<trkpt lat="55.556872" lon="8.078007">
|
|
<ele>3.943887</ele>
|
|
<time>2026-07-11T13:16:44.000Z</time>
|
|
</trkpt>
|
|
<trkpt lat="55.556867" lon="8.078021">
|
|
<ele>3.943436</ele>
|
|
<time>2026-07-11T13:16:45.000Z</time>
|
|
</trkpt>
|
|
<trkpt lat="55.556859" lon="8.078038">
|
|
<ele>3.942835</ele>
|
|
<time>2026-07-11T13:16:46.000Z</time>
|
|
</trkpt>
|
|
<trkpt lat="55.556852" lon="8.078052">
|
|
<ele>3.942326</ele>
|
|
<time>2026-07-11T13:16:47.000Z</time>
|
|
</trkpt>
|
|
<trkpt lat="55.556846" lon="8.078065">
|
|
<ele>3.941870</ele>
|
|
<time>2026-07-11T13:16:48.000Z</time>
|
|
</trkpt>
|
|
<trkpt lat="55.556839" lon="8.078086">
|
|
<ele>3.941207</ele>
|
|
<time>2026-07-11T13:16:49.000Z</time>
|
|
</trkpt>
|
|
<trkpt lat="55.556834" lon="8.078103">
|
|
<ele>3.940685</ele>
|
|
<time>2026-07-11T13:16:50.000Z</time>
|
|
</trkpt>
|
|
<trkpt lat="55.556830" lon="8.078119">
|
|
<ele>3.940209</ele>
|
|
<time>2026-07-11T13:16:51.000Z</time>
|
|
</trkpt>
|
|
<trkpt lat="55.556826" lon="8.078144">
|
|
<ele>3.939503</ele>
|
|
<time>2026-07-11T13:16:52.000Z</time>
|
|
</trkpt>
|
|
<trkpt lat="55.556822" lon="8.078163">
|
|
<ele>3.938951</ele>
|
|
<time>2026-07-11T13:16:53.000Z</time>
|
|
</trkpt>
|
|
<trkpt lat="55.556819" lon="8.078180">
|
|
<ele>3.938467</ele>
|
|
<time>2026-07-11T13:16:54.000Z</time>
|
|
</trkpt>
|
|
<trkpt lat="55.556813" lon="8.078205">
|
|
<ele>3.937728</ele>
|
|
<time>2026-07-11T13:16:55.000Z</time>
|
|
</trkpt>
|
|
<trkpt lat="55.556806" lon="8.078222">
|
|
<ele>3.937156</ele>
|
|
<time>2026-07-11T13:16:56.000Z</time>
|
|
</trkpt>
|
|
<trkpt lat="55.556800" lon="8.078238">
|
|
<ele>3.936633</ele>
|
|
<time>2026-07-11T13:16:57.000Z</time>
|
|
</trkpt>
|
|
<trkpt lat="55.556794" lon="8.078256">
|
|
<ele>3.936065</ele>
|
|
<time>2026-07-11T13:16:58.000Z</time>
|
|
</trkpt>
|
|
<trkpt lat="55.556787" lon="8.078271">
|
|
<ele>3.935536</ele>
|
|
<time>2026-07-11T13:16:59.000Z</time>
|
|
</trkpt>
|
|
<trkpt lat="55.556782" lon="8.078285">
|
|
<ele>3.935085</ele>
|
|
<time>2026-07-11T13:17:00.000Z</time>
|
|
</trkpt>
|
|
<trkpt lat="55.556772" lon="8.078310">
|
|
<ele>3.934252</ele>
|
|
<time>2026-07-11T13:17:01.000Z</time>
|
|
</trkpt>
|
|
<trkpt lat="55.556768" lon="8.078325">
|
|
<ele>3.933801</ele>
|
|
<time>2026-07-11T13:17:02.000Z</time>
|
|
</trkpt>
|
|
<trkpt lat="55.556762" lon="8.078338">
|
|
<ele>3.933345</ele>
|
|
<time>2026-07-11T13:17:03.000Z</time>
|
|
</trkpt>
|
|
<trkpt lat="55.556757" lon="8.078356">
|
|
<ele>3.932799</ele>
|
|
<time>2026-07-11T13:17:04.000Z</time>
|
|
</trkpt>
|
|
<trkpt lat="55.556754" lon="8.078372">
|
|
<ele>3.932340</ele>
|
|
<time>2026-07-11T13:17:05.000Z</time>
|
|
</trkpt>
|
|
<trkpt lat="55.556750" lon="8.078390">
|
|
<ele>3.931814</ele>
|
|
<time>2026-07-11T13:17:06.000Z</time>
|
|
</trkpt>
|
|
<trkpt lat="55.556746" lon="8.078414">
|
|
<ele>3.931133</ele>
|
|
<time>2026-07-11T13:17:07.000Z</time>
|
|
</trkpt>
|
|
<trkpt lat="55.556742" lon="8.078432">
|
|
<ele>3.930607</ele>
|
|
<time>2026-07-11T13:17:08.000Z</time>
|
|
</trkpt>
|
|
<trkpt lat="55.556738" lon="8.078450">
|
|
<ele>3.930081</ele>
|
|
<time>2026-07-11T13:17:09.000Z</time>
|
|
</trkpt>
|
|
<trkpt lat="55.556730" lon="8.078479">
|
|
<ele>3.929203</ele>
|
|
<time>2026-07-11T13:17:10.000Z</time>
|
|
</trkpt>
|
|
<trkpt lat="55.556727" lon="8.078499">
|
|
<ele>3.928640</ele>
|
|
<time>2026-07-11T13:17:11.000Z</time>
|
|
</trkpt>
|
|
<trkpt lat="55.556722" lon="8.078518">
|
|
<ele>3.928070</ele>
|
|
<time>2026-07-11T13:17:12.000Z</time>
|
|
</trkpt>
|
|
<trkpt lat="55.556715" lon="8.078538">
|
|
<ele>3.927430</ele>
|
|
<time>2026-07-11T13:17:13.000Z</time>
|
|
</trkpt>
|
|
<trkpt lat="55.556712" lon="8.078553">
|
|
<ele>3.926997</ele>
|
|
<time>2026-07-11T13:17:14.000Z</time>
|
|
</trkpt>
|
|
<trkpt lat="55.556709" lon="8.078569">
|
|
<ele>3.926539</ele>
|
|
<time>2026-07-11T13:17:15.000Z</time>
|
|
</trkpt>
|
|
<trkpt lat="55.556704" lon="8.078595">
|
|
<ele>3.925792</ele>
|
|
<time>2026-07-11T13:17:16.000Z</time>
|
|
</trkpt>
|
|
<trkpt lat="55.556700" lon="8.078613">
|
|
<ele>3.925266</ele>
|
|
<time>2026-07-11T13:17:17.000Z</time>
|
|
</trkpt>
|
|
<trkpt lat="55.556696" lon="8.078632">
|
|
<ele>3.924714</ele>
|
|
<time>2026-07-11T13:17:18.000Z</time>
|
|
</trkpt>
|
|
<trkpt lat="55.556689" lon="8.078654">
|
|
<ele>3.924027</ele>
|
|
<time>2026-07-11T13:17:19.000Z</time>
|
|
</trkpt>
|
|
<trkpt lat="55.556685" lon="8.078671">
|
|
<ele>3.923526</ele>
|
|
<time>2026-07-11T13:17:20.000Z</time>
|
|
</trkpt>
|
|
<trkpt lat="55.556682" lon="8.078686">
|
|
<ele>3.923093</ele>
|
|
<time>2026-07-11T13:17:21.000Z</time>
|
|
</trkpt>
|
|
<trkpt lat="55.556673" lon="8.078709">
|
|
<ele>3.922333</ele>
|
|
<time>2026-07-11T13:17:22.000Z</time>
|
|
</trkpt>
|
|
<trkpt lat="55.556670" lon="8.078725">
|
|
<ele>3.921874</ele>
|
|
<time>2026-07-11T13:17:23.000Z</time>
|
|
</trkpt>
|
|
<trkpt lat="55.556666" lon="8.078742">
|
|
<ele>3.921373</ele>
|
|
<time>2026-07-11T13:17:24.000Z</time>
|
|
</trkpt>
|
|
<trkpt lat="55.556662" lon="8.078764">
|
|
<ele>3.920744</ele>
|
|
<time>2026-07-11T13:17:25.000Z</time>
|
|
</trkpt>
|
|
<trkpt lat="55.556657" lon="8.078780">
|
|
<ele>3.920247</ele>
|
|
<time>2026-07-11T13:17:26.000Z</time>
|
|
</trkpt>
|
|
<trkpt lat="55.556652" lon="8.078794">
|
|
<ele>3.919796</ele>
|
|
<time>2026-07-11T13:17:27.000Z</time>
|
|
</trkpt>
|
|
<trkpt lat="55.556647" lon="8.078822">
|
|
<ele>3.918998</ele>
|
|
<time>2026-07-11T13:17:28.000Z</time>
|
|
</trkpt>
|
|
<trkpt lat="55.556643" lon="8.078839">
|
|
<ele>3.918497</ele>
|
|
<time>2026-07-11T13:17:29.000Z</time>
|
|
</trkpt>
|
|
<trkpt lat="55.556641" lon="8.078851">
|
|
<ele>3.918156</ele>
|
|
<time>2026-07-11T13:17:30.000Z</time>
|
|
</trkpt>
|
|
<trkpt lat="55.556635" lon="8.078875">
|
|
<ele>3.917442</ele>
|
|
<time>2026-07-11T13:17:31.000Z</time>
|
|
</trkpt>
|
|
<trkpt lat="55.556631" lon="8.078890">
|
|
<ele>3.916991</ele>
|
|
<time>2026-07-11T13:17:32.000Z</time>
|
|
</trkpt>
|
|
<trkpt lat="55.556625" lon="8.078903">
|
|
<ele>3.916535</ele>
|
|
<time>2026-07-11T13:17:33.000Z</time>
|
|
</trkpt>
|
|
<trkpt lat="55.556618" lon="8.078927">
|
|
<ele>3.915800</ele>
|
|
<time>2026-07-11T13:17:34.000Z</time>
|
|
</trkpt>
|
|
<trkpt lat="55.556613" lon="8.078944">
|
|
<ele>3.915279</ele>
|
|
<time>2026-07-11T13:17:35.000Z</time>
|
|
</trkpt>
|
|
<trkpt lat="55.556610" lon="8.078958">
|
|
<ele>3.935294</ele>
|
|
<time>2026-07-11T13:17:36.000Z</time>
|
|
</trkpt>
|
|
<trkpt lat="55.556599" lon="8.078981">
|
|
<ele>3.983295</ele>
|
|
<time>2026-07-11T13:17:37.000Z</time>
|
|
</trkpt>
|
|
<trkpt lat="55.556594" lon="8.078995">
|
|
<ele>4.009681</ele>
|
|
<time>2026-07-11T13:17:38.000Z</time>
|
|
</trkpt>
|
|
<trkpt lat="55.556590" lon="8.079007">
|
|
<ele>4.031878</ele>
|
|
<time>2026-07-11T13:17:39.000Z</time>
|
|
</trkpt>
|
|
<trkpt lat="55.556582" lon="8.079025">
|
|
<ele>4.068360</ele>
|
|
<time>2026-07-11T13:17:40.000Z</time>
|
|
</trkpt>
|
|
<trkpt lat="55.556578" lon="8.079034">
|
|
<ele>4.086601</ele>
|
|
<time>2026-07-11T13:17:41.000Z</time>
|
|
</trkpt>
|
|
<trkpt lat="55.556573" lon="8.079041">
|
|
<ele>4.104571</ele>
|
|
<time>2026-07-11T13:17:42.000Z</time>
|
|
</trkpt>
|
|
<trkpt lat="55.556568" lon="8.079057">
|
|
<ele>4.133701</ele>
|
|
<time>2026-07-11T13:17:43.000Z</time>
|
|
</trkpt>
|
|
<trkpt lat="55.556565" lon="8.079073">
|
|
<ele>4.160564</ele>
|
|
<time>2026-07-11T13:17:44.000Z</time>
|
|
</trkpt>
|
|
<trkpt lat="55.556561" lon="8.079087">
|
|
<ele>4.185559</ele>
|
|
<time>2026-07-11T13:17:45.000Z</time>
|
|
</trkpt>
|
|
<trkpt lat="55.556560" lon="8.079100">
|
|
<ele>4.206467</ele>
|
|
<time>2026-07-11T13:17:46.000Z</time>
|
|
</trkpt>
|
|
<trkpt lat="55.556553" lon="8.079121">
|
|
<ele>4.245313</ele>
|
|
<time>2026-07-11T13:17:47.000Z</time>
|
|
</trkpt>
|
|
<trkpt lat="55.556548" lon="8.079135">
|
|
<ele>4.271699</ele>
|
|
<time>2026-07-11T13:17:48.000Z</time>
|
|
</trkpt>
|
|
<trkpt lat="55.556545" lon="8.079148">
|
|
<ele>4.294074</ele>
|
|
<time>2026-07-11T13:17:49.000Z</time>
|
|
</trkpt>
|
|
<trkpt lat="55.556540" lon="8.079173">
|
|
<ele>4.336332</ele>
|
|
<time>2026-07-11T13:17:50.000Z</time>
|
|
</trkpt>
|
|
<trkpt lat="55.556538" lon="8.079190">
|
|
<ele>4.364003</ele>
|
|
<time>2026-07-11T13:17:51.000Z</time>
|
|
</trkpt>
|
|
<trkpt lat="55.556536" lon="8.079205">
|
|
<ele>4.388562</ele>
|
|
<time>2026-07-11T13:17:52.000Z</time>
|
|
</trkpt>
|
|
<trkpt lat="55.556532" lon="8.079224">
|
|
<ele>4.420870</ele>
|
|
<time>2026-07-11T13:17:53.000Z</time>
|
|
</trkpt>
|
|
<trkpt lat="55.556530" lon="8.079242">
|
|
<ele>4.450104</ele>
|
|
<time>2026-07-11T13:17:54.000Z</time>
|
|
</trkpt>
|
|
<trkpt lat="55.556530" lon="8.079258">
|
|
<ele>4.475601</ele>
|
|
<time>2026-07-11T13:17:55.000Z</time>
|
|
</trkpt>
|
|
<trkpt lat="55.556521" lon="8.079286">
|
|
<ele>4.526925</ele>
|
|
<time>2026-07-11T13:17:56.000Z</time>
|
|
</trkpt>
|
|
<trkpt lat="55.556516" lon="8.079303">
|
|
<ele>4.557460</ele>
|
|
<time>2026-07-11T13:17:57.000Z</time>
|
|
</trkpt>
|
|
<trkpt lat="55.556510" lon="8.079319">
|
|
<ele>4.588053</ele>
|
|
<time>2026-07-11T13:17:58.000Z</time>
|
|
</trkpt>
|
|
<trkpt lat="55.556505" lon="8.079341">
|
|
<ele>4.625837</ele>
|
|
<time>2026-07-11T13:17:59.000Z</time>
|
|
</trkpt>
|
|
<trkpt lat="55.556502" lon="8.079356">
|
|
<ele>4.651192</ele>
|
|
<time>2026-07-11T13:18:00.000Z</time>
|
|
</trkpt>
|
|
<trkpt lat="55.556499" lon="8.079369">
|
|
<ele>4.673567</ele>
|
|
<time>2026-07-11T13:18:01.000Z</time>
|
|
</trkpt>
|
|
<trkpt lat="55.556494" lon="8.079391">
|
|
<ele>4.711351</ele>
|
|
<time>2026-07-11T13:18:02.000Z</time>
|
|
</trkpt>
|
|
<trkpt lat="55.556491" lon="8.079405">
|
|
<ele>4.735209</ele>
|
|
<time>2026-07-11T13:18:03.000Z</time>
|
|
</trkpt>
|
|
<trkpt lat="55.556488" lon="8.079417">
|
|
<ele>4.756118</ele>
|
|
<time>2026-07-11T13:18:04.000Z</time>
|
|
</trkpt>
|
|
<trkpt lat="55.556484" lon="8.079440">
|
|
<ele>4.794464</ele>
|
|
<time>2026-07-11T13:18:05.000Z</time>
|
|
</trkpt>
|
|
<trkpt lat="55.556483" lon="8.079456">
|
|
<ele>4.820117</ele>
|
|
<time>2026-07-11T13:18:06.000Z</time>
|
|
</trkpt>
|
|
<trkpt lat="55.556480" lon="8.079472">
|
|
<ele>4.846980</ele>
|
|
<time>2026-07-11T13:18:07.000Z</time>
|
|
</trkpt>
|
|
<trkpt lat="55.556480" lon="8.079496">
|
|
<ele>4.885226</ele>
|
|
<time>2026-07-11T13:18:08.000Z</time>
|
|
</trkpt>
|
|
<trkpt lat="55.556479" lon="8.079516">
|
|
<ele>4.917223</ele>
|
|
<time>2026-07-11T13:18:09.000Z</time>
|
|
</trkpt>
|
|
<trkpt lat="55.556477" lon="8.079534">
|
|
<ele>4.946456</ele>
|
|
<time>2026-07-11T13:18:10.000Z</time>
|
|
</trkpt>
|
|
<trkpt lat="55.556478" lon="8.079552">
|
|
<ele>4.975279</ele>
|
|
<time>2026-07-11T13:18:11.000Z</time>
|
|
</trkpt>
|
|
<trkpt lat="55.556482" lon="8.079566">
|
|
<ele>5.000275</ele>
|
|
<time>2026-07-11T13:18:12.000Z</time>
|
|
</trkpt>
|
|
<trkpt lat="55.556484" lon="8.079580">
|
|
<ele>5.023286</ele>
|
|
<time>2026-07-11T13:18:13.000Z</time>
|
|
</trkpt>
|
|
<trkpt lat="55.556488" lon="8.079606">
|
|
<ele>5.066226</ele>
|
|
<time>2026-07-11T13:18:14.000Z</time>
|
|
</trkpt>
|
|
<trkpt lat="55.556488" lon="8.079622">
|
|
<ele>5.091724</ele>
|
|
<time>2026-07-11T13:18:15.000Z</time>
|
|
</trkpt>
|
|
<trkpt lat="55.556488" lon="8.079641">
|
|
<ele>5.122002</ele>
|
|
<time>2026-07-11T13:18:16.000Z</time>
|
|
</trkpt>
|
|
<trkpt lat="55.556486" lon="8.079662">
|
|
<ele>5.155939</ele>
|
|
<time>2026-07-11T13:18:17.000Z</time>
|
|
</trkpt>
|
|
<trkpt lat="55.556483" lon="8.079677">
|
|
<ele>5.181294</ele>
|
|
<time>2026-07-11T13:18:18.000Z</time>
|
|
</trkpt>
|
|
<trkpt lat="55.556481" lon="8.079689">
|
|
<ele>5.201230</ele>
|
|
<time>2026-07-11T13:18:19.000Z</time>
|
|
</trkpt>
|
|
<trkpt lat="55.556480" lon="8.079721">
|
|
<ele>5.252304</ele>
|
|
<time>2026-07-11T13:18:20.000Z</time>
|
|
</trkpt>
|
|
<trkpt lat="55.556482" lon="8.079740">
|
|
<ele>5.283102</ele>
|
|
<time>2026-07-11T13:18:21.000Z</time>
|
|
</trkpt>
|
|
<trkpt lat="55.556485" lon="8.079756">
|
|
<ele>5.309965</ele>
|
|
<time>2026-07-11T13:18:22.000Z</time>
|
|
</trkpt>
|
|
<trkpt lat="55.556488" lon="8.079777">
|
|
<ele>5.344482</ele>
|
|
<time>2026-07-11T13:18:23.000Z</time>
|
|
</trkpt>
|
|
<trkpt lat="55.556489" lon="8.079794">
|
|
<ele>5.371719</ele>
|
|
<time>2026-07-11T13:18:24.000Z</time>
|
|
</trkpt>
|
|
<trkpt lat="55.556492" lon="8.079809">
|
|
<ele>5.397074</ele>
|
|
<time>2026-07-11T13:18:25.000Z</time>
|
|
</trkpt>
|
|
<trkpt lat="55.556492" lon="8.079832">
|
|
<ele>5.433727</ele>
|
|
<time>2026-07-11T13:18:26.000Z</time>
|
|
</trkpt>
|
|
<trkpt lat="55.556492" lon="8.079851">
|
|
<ele>5.464006</ele>
|
|
<time>2026-07-11T13:18:27.000Z</time>
|
|
</trkpt>
|
|
<trkpt lat="55.556492" lon="8.079863">
|
|
<ele>5.483129</ele>
|
|
<time>2026-07-11T13:18:28.000Z</time>
|
|
</trkpt>
|
|
<trkpt lat="55.556492" lon="8.079884">
|
|
<ele>5.516595</ele>
|
|
<time>2026-07-11T13:18:29.000Z</time>
|
|
</trkpt>
|
|
<trkpt lat="55.556492" lon="8.079893">
|
|
<ele>5.530937</ele>
|
|
<time>2026-07-11T13:18:30.000Z</time>
|
|
</trkpt>
|
|
<trkpt lat="55.556492" lon="8.079904">
|
|
<ele>5.548467</ele>
|
|
<time>2026-07-11T13:18:31.000Z</time>
|
|
</trkpt>
|
|
<trkpt lat="55.556492" lon="8.079913">
|
|
<ele>5.562810</ele>
|
|
<time>2026-07-11T13:18:32.000Z</time>
|
|
</trkpt>
|
|
<trkpt lat="55.556492" lon="8.079941">
|
|
<ele>5.607431</ele>
|
|
<time>2026-07-11T13:18:33.000Z</time>
|
|
</trkpt>
|
|
<trkpt lat="55.556493" lon="8.079957">
|
|
<ele>5.633084</ele>
|
|
<time>2026-07-11T13:18:34.000Z</time>
|
|
</trkpt>
|
|
<trkpt lat="55.556497" lon="8.079972">
|
|
<ele>5.659512</ele>
|
|
<time>2026-07-11T13:18:35.000Z</time>
|
|
</trkpt>
|
|
<trkpt lat="55.556501" lon="8.079990">
|
|
<ele>5.690331</ele>
|
|
<time>2026-07-11T13:18:36.000Z</time>
|
|
</trkpt>
|
|
<trkpt lat="55.556505" lon="8.080003">
|
|
<ele>5.713916</ele>
|
|
<time>2026-07-11T13:18:37.000Z</time>
|
|
</trkpt>
|
|
<trkpt lat="55.556510" lon="8.080014">
|
|
<ele>5.736405</ele>
|
|
<time>2026-07-11T13:18:38.000Z</time>
|
|
</trkpt>
|
|
<trkpt lat="55.556513" lon="8.080044">
|
|
<ele>5.784955</ele>
|
|
<time>2026-07-11T13:18:39.000Z</time>
|
|
</trkpt>
|
|
<trkpt lat="55.556516" lon="8.080064">
|
|
<ele>5.817929</ele>
|
|
<time>2026-07-11T13:18:40.000Z</time>
|
|
</trkpt>
|
|
<trkpt lat="55.556520" lon="8.080082">
|
|
<ele>5.848748</ele>
|
|
<time>2026-07-11T13:18:41.000Z</time>
|
|
</trkpt>
|
|
<trkpt lat="55.556528" lon="8.080106">
|
|
<ele>5.893143</ele>
|
|
<time>2026-07-11T13:18:42.000Z</time>
|
|
</trkpt>
|
|
<trkpt lat="55.556531" lon="8.080118">
|
|
<ele>5.914051</ele>
|
|
<time>2026-07-11T13:18:43.000Z</time>
|
|
</trkpt>
|
|
<trkpt lat="55.556535" lon="8.080129">
|
|
<ele>5.934891</ele>
|
|
<time>2026-07-11T13:18:44.000Z</time>
|
|
</trkpt>
|
|
<trkpt lat="55.556541" lon="8.080150">
|
|
<ele>5.972385</ele>
|
|
<time>2026-07-11T13:18:45.000Z</time>
|
|
</trkpt>
|
|
<trkpt lat="55.556543" lon="8.080165">
|
|
<ele>5.996944</ele>
|
|
<time>2026-07-11T13:18:46.000Z</time>
|
|
</trkpt>
|
|
<trkpt lat="55.556545" lon="8.080176">
|
|
<ele>6.015358</ele>
|
|
<time>2026-07-11T13:18:47.000Z</time>
|
|
</trkpt>
|
|
<trkpt lat="55.556549" lon="8.080199">
|
|
<ele>6.053704</ele>
|
|
<time>2026-07-11T13:18:48.000Z</time>
|
|
</trkpt>
|
|
<trkpt lat="55.556549" lon="8.080214">
|
|
<ele>6.077608</ele>
|
|
<time>2026-07-11T13:18:49.000Z</time>
|
|
</trkpt>
|
|
<trkpt lat="55.556551" lon="8.080230">
|
|
<ele>6.103721</ele>
|
|
<time>2026-07-11T13:18:50.000Z</time>
|
|
</trkpt>
|
|
<trkpt lat="55.556557" lon="8.080255">
|
|
<ele>6.147000</ele>
|
|
<time>2026-07-11T13:18:51.000Z</time>
|
|
</trkpt>
|
|
<trkpt lat="55.556558" lon="8.080271">
|
|
<ele>6.172653</ele>
|
|
<time>2026-07-11T13:18:52.000Z</time>
|
|
</trkpt>
|
|
<trkpt lat="55.556561" lon="8.080286">
|
|
<ele>6.198008</ele>
|
|
<time>2026-07-11T13:18:53.000Z</time>
|
|
</trkpt>
|
|
<trkpt lat="55.556562" lon="8.080304">
|
|
<ele>6.226831</ele>
|
|
<time>2026-07-11T13:18:54.000Z</time>
|
|
</trkpt>
|
|
<trkpt lat="55.556566" lon="8.080317">
|
|
<ele>6.250415</ele>
|
|
<time>2026-07-11T13:18:55.000Z</time>
|
|
</trkpt>
|
|
<trkpt lat="55.556570" lon="8.080332">
|
|
<ele>6.276843</ele>
|
|
<time>2026-07-11T13:18:56.000Z</time>
|
|
</trkpt>
|
|
<trkpt lat="55.556581" lon="8.080354">
|
|
<ele>6.323638</ele>
|
|
<time>2026-07-11T13:18:57.000Z</time>
|
|
</trkpt>
|
|
<trkpt lat="55.556586" lon="8.080368">
|
|
<ele>6.350024</ele>
|
|
<time>2026-07-11T13:18:58.000Z</time>
|
|
</trkpt>
|
|
<trkpt lat="55.556592" lon="8.080384">
|
|
<ele>6.380617</ele>
|
|
<time>2026-07-11T13:18:59.000Z</time>
|
|
</trkpt>
|
|
<trkpt lat="55.556598" lon="8.080406">
|
|
<ele>6.419539</ele>
|
|
<time>2026-07-11T13:19:00.000Z</time>
|
|
</trkpt>
|
|
<trkpt lat="55.556605" lon="8.080421">
|
|
<ele>6.450530</ele>
|
|
<time>2026-07-11T13:19:01.000Z</time>
|
|
</trkpt>
|
|
<trkpt lat="55.556610" lon="8.080437">
|
|
<ele>6.479661</ele>
|
|
<time>2026-07-11T13:19:02.000Z</time>
|
|
</trkpt>
|
|
<trkpt lat="55.556612" lon="8.080456">
|
|
<ele>6.510459</ele>
|
|
<time>2026-07-11T13:19:03.000Z</time>
|
|
</trkpt>
|
|
<trkpt lat="55.556615" lon="8.080472">
|
|
<ele>6.537321</ele>
|
|
<time>2026-07-11T13:19:04.000Z</time>
|
|
</trkpt>
|
|
<trkpt lat="55.556618" lon="8.080488">
|
|
<ele>6.564184</ele>
|
|
<time>2026-07-11T13:19:05.000Z</time>
|
|
</trkpt>
|
|
<trkpt lat="55.556625" lon="8.080511">
|
|
<ele>6.605806</ele>
|
|
<time>2026-07-11T13:19:06.000Z</time>
|
|
</trkpt>
|
|
<trkpt lat="55.556631" lon="8.080523">
|
|
<ele>6.631331</ele>
|
|
<time>2026-07-11T13:19:07.000Z</time>
|
|
</trkpt>
|
|
<trkpt lat="55.556636" lon="8.080532">
|
|
<ele>6.651435</ele>
|
|
<time>2026-07-11T13:19:08.000Z</time>
|
|
</trkpt>
|
|
<trkpt lat="55.556646" lon="8.080556">
|
|
<ele>6.698940</ele>
|
|
<time>2026-07-11T13:19:09.000Z</time>
|
|
</trkpt>
|
|
<trkpt lat="55.556649" lon="8.080572">
|
|
<ele>6.725802</ele>
|
|
<time>2026-07-11T13:19:10.000Z</time>
|
|
</trkpt>
|
|
<trkpt lat="55.556653" lon="8.080587">
|
|
<ele>6.752230</ele>
|
|
<time>2026-07-11T13:19:11.000Z</time>
|
|
</trkpt>
|
|
<trkpt lat="55.556661" lon="8.080608">
|
|
<ele>6.792579</ele>
|
|
<time>2026-07-11T13:19:12.000Z</time>
|
|
</trkpt>
|
|
<trkpt lat="55.556665" lon="8.080621">
|
|
<ele>6.816163</ele>
|
|
<time>2026-07-11T13:19:13.000Z</time>
|
|
</trkpt>
|
|
<trkpt lat="55.556668" lon="8.080631">
|
|
<ele>6.834202</ele>
|
|
<time>2026-07-11T13:19:14.000Z</time>
|
|
</trkpt>
|
|
<trkpt lat="55.556675" lon="8.080651">
|
|
<ele>6.871683</ele>
|
|
<time>2026-07-11T13:19:15.000Z</time>
|
|
</trkpt>
|
|
<trkpt lat="55.556676" lon="8.080667">
|
|
<ele>6.897336</ele>
|
|
<time>2026-07-11T13:19:16.000Z</time>
|
|
</trkpt>
|
|
<trkpt lat="55.556681" lon="8.080682">
|
|
<ele>6.925083</ele>
|
|
<time>2026-07-11T13:19:17.000Z</time>
|
|
</trkpt>
|
|
<trkpt lat="55.556688" lon="8.080695">
|
|
<ele>6.953687</ele>
|
|
<time>2026-07-11T13:19:18.000Z</time>
|
|
</trkpt>
|
|
<trkpt lat="55.556690" lon="8.080706">
|
|
<ele>6.972100</ele>
|
|
<time>2026-07-11T13:19:19.000Z</time>
|
|
</trkpt>
|
|
<trkpt lat="55.556691" lon="8.080715">
|
|
<ele>6.986716</ele>
|
|
<time>2026-07-11T13:19:20.000Z</time>
|
|
</trkpt>
|
|
<trkpt lat="55.556695" lon="8.080726">
|
|
<ele>7.007556</ele>
|
|
<time>2026-07-11T13:19:21.000Z</time>
|
|
</trkpt>
|
|
<trkpt lat="55.556702" lon="8.080744">
|
|
<ele>7.042368</ele>
|
|
<time>2026-07-11T13:19:22.000Z</time>
|
|
</trkpt>
|
|
<trkpt lat="55.556705" lon="8.080754">
|
|
<ele>7.060407</ele>
|
|
<time>2026-07-11T13:19:23.000Z</time>
|
|
</trkpt>
|
|
<trkpt lat="55.556710" lon="8.080766">
|
|
<ele>7.084159</ele>
|
|
<time>2026-07-11T13:19:24.000Z</time>
|
|
</trkpt>
|
|
<trkpt lat="55.556713" lon="8.080776">
|
|
<ele>7.102198</ele>
|
|
<time>2026-07-11T13:19:25.000Z</time>
|
|
</trkpt>
|
|
<trkpt lat="55.556717" lon="8.080789">
|
|
<ele>7.125782</ele>
|
|
<time>2026-07-11T13:19:26.000Z</time>
|
|
</trkpt>
|
|
<trkpt lat="55.556719" lon="8.080800">
|
|
<ele>7.144195</ele>
|
|
<time>2026-07-11T13:19:27.000Z</time>
|
|
</trkpt>
|
|
<trkpt lat="55.556723" lon="8.080811">
|
|
<ele>7.165035</ele>
|
|
<time>2026-07-11T13:19:28.000Z</time>
|
|
</trkpt>
|
|
<trkpt lat="55.556728" lon="8.080821">
|
|
<ele>7.186306</ele>
|
|
<time>2026-07-11T13:19:29.000Z</time>
|
|
</trkpt>
|
|
<trkpt lat="55.556732" lon="8.080838">
|
|
<ele>7.215648</ele>
|
|
<time>2026-07-11T13:19:30.000Z</time>
|
|
</trkpt>
|
|
<trkpt lat="55.556737" lon="8.080851">
|
|
<ele>7.240701</ele>
|
|
<time>2026-07-11T13:19:31.000Z</time>
|
|
</trkpt>
|
|
<trkpt lat="55.556741" lon="8.080863">
|
|
<ele>7.262898</ele>
|
|
<time>2026-07-11T13:19:32.000Z</time>
|
|
</trkpt>
|
|
<trkpt lat="55.556747" lon="8.080876">
|
|
<ele>7.289638</ele>
|
|
<time>2026-07-11T13:19:33.000Z</time>
|
|
</trkpt>
|
|
<trkpt lat="55.556755" lon="8.080888">
|
|
<ele>7.319197</ele>
|
|
<time>2026-07-11T13:19:34.000Z</time>
|
|
</trkpt>
|
|
<trkpt lat="55.556760" lon="8.080900">
|
|
<ele>7.342950</ele>
|
|
<time>2026-07-11T13:19:35.000Z</time>
|
|
</trkpt>
|
|
<trkpt lat="55.556763" lon="8.080909">
|
|
<ele>7.359598</ele>
|
|
<time>2026-07-11T13:19:36.000Z</time>
|
|
</trkpt>
|
|
<trkpt lat="55.556770" lon="8.080922">
|
|
<ele>7.388202</ele>
|
|
<time>2026-07-11T13:19:37.000Z</time>
|
|
</trkpt>
|
|
<trkpt lat="55.556776" lon="8.080937">
|
|
<ele>7.417480</ele>
|
|
<time>2026-07-11T13:19:38.000Z</time>
|
|
</trkpt>
|
|
<trkpt lat="55.556779" lon="8.080950">
|
|
<ele>7.439854</ele>
|
|
<time>2026-07-11T13:19:39.000Z</time>
|
|
</trkpt>
|
|
<trkpt lat="55.556782" lon="8.080961">
|
|
<ele>7.459316</ele>
|
|
<time>2026-07-11T13:19:40.000Z</time>
|
|
</trkpt>
|
|
<trkpt lat="55.556782" lon="8.080983">
|
|
<ele>7.494375</ele>
|
|
<time>2026-07-11T13:19:41.000Z</time>
|
|
</trkpt>
|
|
<trkpt lat="55.556783" lon="8.080999">
|
|
<ele>7.520028</ele>
|
|
<time>2026-07-11T13:19:42.000Z</time>
|
|
</trkpt>
|
|
<trkpt lat="55.556787" lon="8.081012">
|
|
<ele>7.543612</ele>
|
|
<time>2026-07-11T13:19:43.000Z</time>
|
|
</trkpt>
|
|
<trkpt lat="55.556789" lon="8.081020">
|
|
<ele>7.557550</ele>
|
|
<time>2026-07-11T13:19:44.000Z</time>
|
|
</trkpt>
|
|
<trkpt lat="55.556793" lon="8.081042">
|
|
<ele>7.594377</ele>
|
|
<time>2026-07-11T13:19:45.000Z</time>
|
|
</trkpt>
|
|
<trkpt lat="55.556795" lon="8.081053">
|
|
<ele>7.612790</ele>
|
|
<time>2026-07-11T13:19:46.000Z</time>
|
|
</trkpt>
|
|
<trkpt lat="55.556797" lon="8.081061">
|
|
<ele>7.626729</ele>
|
|
<time>2026-07-11T13:19:47.000Z</time>
|
|
</trkpt>
|
|
<trkpt lat="55.556797" lon="8.081068">
|
|
<ele>7.637884</ele>
|
|
<time>2026-07-11T13:19:48.000Z</time>
|
|
</trkpt>
|
|
<trkpt lat="55.556806" lon="8.081085">
|
|
<ele>7.674991</ele>
|
|
<time>2026-07-11T13:19:49.000Z</time>
|
|
</trkpt>
|
|
<trkpt lat="55.556810" lon="8.081093">
|
|
<ele>7.692008</ele>
|
|
<time>2026-07-11T13:19:50.000Z</time>
|
|
</trkpt>
|
|
<trkpt lat="55.556814" lon="8.081101">
|
|
<ele>7.709024</ele>
|
|
<time>2026-07-11T13:19:51.000Z</time>
|
|
</trkpt>
|
|
<trkpt lat="55.556817" lon="8.081110">
|
|
<ele>7.725672</ele>
|
|
<time>2026-07-11T13:19:52.000Z</time>
|
|
</trkpt>
|
|
<trkpt lat="55.556820" lon="8.081116">
|
|
<ele>7.738434</ele>
|
|
<time>2026-07-11T13:19:53.000Z</time>
|
|
</trkpt>
|
|
<trkpt lat="55.556822" lon="8.081128">
|
|
<ele>7.758370</ele>
|
|
<time>2026-07-11T13:19:54.000Z</time>
|
|
</trkpt>
|
|
<trkpt lat="55.556827" lon="8.081138">
|
|
<ele>7.779641</ele>
|
|
<time>2026-07-11T13:19:55.000Z</time>
|
|
</trkpt>
|
|
<trkpt lat="55.556833" lon="8.081148">
|
|
<ele>7.802873</ele>
|
|
<time>2026-07-11T13:19:56.000Z</time>
|
|
</trkpt>
|
|
<trkpt lat="55.556838" lon="8.081156">
|
|
<ele>7.821873</ele>
|
|
<time>2026-07-11T13:19:57.000Z</time>
|
|
</trkpt>
|
|
<trkpt lat="55.556948" lon="8.081407">
|
|
<ele>8.327891</ele>
|
|
<time>2026-07-11T13:20:24.000Z</time>
|
|
</trkpt>
|
|
<trkpt lat="55.556953" lon="8.081413">
|
|
<ele>8.344918</ele>
|
|
<time>2026-07-11T13:20:25.000Z</time>
|
|
</trkpt>
|
|
<trkpt lat="55.556955" lon="8.081425">
|
|
<ele>8.364854</ele>
|
|
<time>2026-07-11T13:20:26.000Z</time>
|
|
</trkpt>
|
|
<trkpt lat="55.556959" lon="8.081436">
|
|
<ele>8.385694</ele>
|
|
<time>2026-07-11T13:20:27.000Z</time>
|
|
</trkpt>
|
|
<trkpt lat="55.556963" lon="8.081446">
|
|
<ele>8.405212</ele>
|
|
<time>2026-07-11T13:20:28.000Z</time>
|
|
</trkpt>
|
|
<trkpt lat="55.556966" lon="8.081454">
|
|
<ele>8.420509</ele>
|
|
<time>2026-07-11T13:20:29.000Z</time>
|
|
</trkpt>
|
|
<trkpt lat="55.556969" lon="8.081461">
|
|
<ele>8.434505</ele>
|
|
<time>2026-07-11T13:20:30.000Z</time>
|
|
</trkpt>
|
|
<trkpt lat="55.556974" lon="8.081476">
|
|
<ele>8.462251</ele>
|
|
<time>2026-07-11T13:20:31.000Z</time>
|
|
</trkpt>
|
|
<trkpt lat="55.556978" lon="8.081486">
|
|
<ele>8.481770</ele>
|
|
<time>2026-07-11T13:20:32.000Z</time>
|
|
</trkpt>
|
|
<trkpt lat="55.556982" lon="8.081497">
|
|
<ele>8.502610</ele>
|
|
<time>2026-07-11T13:20:33.000Z</time>
|
|
</trkpt>
|
|
<trkpt lat="55.556986" lon="8.081508">
|
|
<ele>8.523450</ele>
|
|
<time>2026-07-11T13:20:34.000Z</time>
|
|
</trkpt>
|
|
<trkpt lat="55.556992" lon="8.081516">
|
|
<ele>8.544624</ele>
|
|
<time>2026-07-11T13:20:35.000Z</time>
|
|
</trkpt>
|
|
<trkpt lat="55.557001" lon="8.081525">
|
|
<ele>8.573757</ele>
|
|
<time>2026-07-11T13:20:36.000Z</time>
|
|
</trkpt>
|
|
<trkpt lat="55.557005" lon="8.081533">
|
|
<ele>8.590773</ele>
|
|
<time>2026-07-11T13:20:37.000Z</time>
|
|
</trkpt>
|
|
<trkpt lat="55.557009" lon="8.081541">
|
|
<ele>8.607789</ele>
|
|
<time>2026-07-11T13:20:38.000Z</time>
|
|
</trkpt>
|
|
<trkpt lat="55.557014" lon="8.081548">
|
|
<ele>8.625759</ele>
|
|
<time>2026-07-11T13:20:39.000Z</time>
|
|
</trkpt>
|
|
<trkpt lat="55.557020" lon="8.081563">
|
|
<ele>8.655037</ele>
|
|
<time>2026-07-11T13:20:40.000Z</time>
|
|
</trkpt>
|
|
<trkpt lat="55.557025" lon="8.081574">
|
|
<ele>8.677526</ele>
|
|
<time>2026-07-11T13:20:41.000Z</time>
|
|
</trkpt>
|
|
<trkpt lat="55.557032" lon="8.081583">
|
|
<ele>8.701912</ele>
|
|
<time>2026-07-11T13:20:42.000Z</time>
|
|
</trkpt>
|
|
<trkpt lat="55.557037" lon="8.081589">
|
|
<ele>8.718939</ele>
|
|
<time>2026-07-11T13:20:43.000Z</time>
|
|
</trkpt>
|
|
<trkpt lat="55.557043" lon="8.081611">
|
|
<ele>8.757861</ele>
|
|
<time>2026-07-11T13:20:44.000Z</time>
|
|
</trkpt>
|
|
<trkpt lat="55.557047" lon="8.081623">
|
|
<ele>8.780058</ele>
|
|
<time>2026-07-11T13:20:45.000Z</time>
|
|
</trkpt>
|
|
<trkpt lat="55.557051" lon="8.081631">
|
|
<ele>8.797074</ele>
|
|
<time>2026-07-11T13:20:46.000Z</time>
|
|
</trkpt>
|
|
<trkpt lat="55.557056" lon="8.081636">
|
|
<ele>8.813259</ele>
|
|
<time>2026-07-11T13:20:47.000Z</time>
|
|
</trkpt>
|
|
<trkpt lat="55.557064" lon="8.081644">
|
|
<ele>8.839156</ele>
|
|
<time>2026-07-11T13:20:48.000Z</time>
|
|
</trkpt>
|
|
<trkpt lat="55.557070" lon="8.081650">
|
|
<ele>8.858578</ele>
|
|
<time>2026-07-11T13:20:49.000Z</time>
|
|
</trkpt>
|
|
<trkpt lat="55.557072" lon="8.081657">
|
|
<ele>8.871076</ele>
|
|
<time>2026-07-11T13:20:50.000Z</time>
|
|
</trkpt>
|
|
<trkpt lat="55.557072" lon="8.081664">
|
|
<ele>8.882231</ele>
|
|
<time>2026-07-11T13:20:51.000Z</time>
|
|
</trkpt>
|
|
<trkpt lat="55.557072" lon="8.081670">
|
|
<ele>8.891792</ele>
|
|
<time>2026-07-11T13:20:52.000Z</time>
|
|
</trkpt>
|
|
<trkpt lat="55.557070" lon="8.081686">
|
|
<ele>8.917905</ele>
|
|
<time>2026-07-11T13:20:53.000Z</time>
|
|
</trkpt>
|
|
<trkpt lat="55.557065" lon="8.081698">
|
|
<ele>8.941657</ele>
|
|
<time>2026-07-11T13:20:54.000Z</time>
|
|
</trkpt>
|
|
<trkpt lat="55.557059" lon="8.081712">
|
|
<ele>8.969649</ele>
|
|
<time>2026-07-11T13:20:55.000Z</time>
|
|
</trkpt>
|
|
<trkpt lat="55.557055" lon="8.081726">
|
|
<ele>8.991885</ele>
|
|
<time>2026-07-11T13:20:56.000Z</time>
|
|
</trkpt>
|
|
<trkpt lat="55.557053" lon="8.081736">
|
|
<ele>9.004760</ele>
|
|
<time>2026-07-11T13:20:57.000Z</time>
|
|
</trkpt>
|
|
<trkpt lat="55.557049" lon="8.081765">
|
|
<ele>9.040995</ele>
|
|
<time>2026-07-11T13:20:58.000Z</time>
|
|
</trkpt>
|
|
<trkpt lat="55.557048" lon="8.081782">
|
|
<ele>9.061742</ele>
|
|
<time>2026-07-11T13:20:59.000Z</time>
|
|
</trkpt>
|
|
<trkpt lat="55.557045" lon="8.081794">
|
|
<ele>9.077669</ele>
|
|
<time>2026-07-11T13:21:00.000Z</time>
|
|
</trkpt>
|
|
<trkpt lat="55.557043" lon="8.081816">
|
|
<ele>9.104717</ele>
|
|
<time>2026-07-11T13:21:01.000Z</time>
|
|
</trkpt>
|
|
<trkpt lat="55.557040" lon="8.081830">
|
|
<ele>9.122890</ele>
|
|
<time>2026-07-11T13:21:02.000Z</time>
|
|
</trkpt>
|
|
<trkpt lat="55.557037" lon="8.081845">
|
|
<ele>9.142204</ele>
|
|
<time>2026-07-11T13:21:03.000Z</time>
|
|
</trkpt>
|
|
<trkpt lat="55.557034" lon="8.081867">
|
|
<ele>9.169675</ele>
|
|
<time>2026-07-11T13:21:04.000Z</time>
|
|
</trkpt>
|
|
<trkpt lat="55.557032" lon="8.081882">
|
|
<ele>9.188382</ele>
|
|
<time>2026-07-11T13:21:05.000Z</time>
|
|
</trkpt>
|
|
<trkpt lat="55.557030" lon="8.081894">
|
|
<ele>9.203568</ele>
|
|
<time>2026-07-11T13:21:06.000Z</time>
|
|
</trkpt>
|
|
<trkpt lat="55.557031" lon="8.081917">
|
|
<ele>9.231570</ele>
|
|
<time>2026-07-11T13:21:07.000Z</time>
|
|
</trkpt>
|
|
<trkpt lat="55.557034" lon="8.081931">
|
|
<ele>9.249743</ele>
|
|
<time>2026-07-11T13:21:08.000Z</time>
|
|
</trkpt>
|
|
<trkpt lat="55.557034" lon="8.081943">
|
|
<ele>9.264310</ele>
|
|
<time>2026-07-11T13:21:09.000Z</time>
|
|
</trkpt>
|
|
<trkpt lat="55.557034" lon="8.081959">
|
|
<ele>9.283732</ele>
|
|
<time>2026-07-11T13:21:10.000Z</time>
|
|
</trkpt>
|
|
<trkpt lat="55.557032" lon="8.081971">
|
|
<ele>9.298918</ele>
|
|
<time>2026-07-11T13:21:11.000Z</time>
|
|
</trkpt>
|
|
<trkpt lat="55.557029" lon="8.081979">
|
|
<ele>9.310570</ele>
|
|
<time>2026-07-11T13:21:12.000Z</time>
|
|
</trkpt>
|
|
<trkpt lat="55.557026" lon="8.081985">
|
|
<ele>9.320291</ele>
|
|
<time>2026-07-11T13:21:13.000Z</time>
|
|
</trkpt>
|
|
<trkpt lat="55.557015" lon="8.081993">
|
|
<ele>9.345820</ele>
|
|
<time>2026-07-11T13:21:14.000Z</time>
|
|
</trkpt>
|
|
<trkpt lat="55.557009" lon="8.082001">
|
|
<ele>9.361948</ele>
|
|
<time>2026-07-11T13:21:15.000Z</time>
|
|
</trkpt>
|
|
<trkpt lat="55.557005" lon="8.082009">
|
|
<ele>9.374910</ele>
|
|
<time>2026-07-11T13:21:16.000Z</time>
|
|
</trkpt>
|
|
<trkpt lat="55.557000" lon="8.082016">
|
|
<ele>9.388598</ele>
|
|
<time>2026-07-11T13:21:17.000Z</time>
|
|
</trkpt>
|
|
<trkpt lat="55.556990" lon="8.082033">
|
|
<ele>9.418372</ele>
|
|
<time>2026-07-11T13:21:18.000Z</time>
|
|
</trkpt>
|
|
<trkpt lat="55.556984" lon="8.082044">
|
|
<ele>9.436923</ele>
|
|
<time>2026-07-11T13:21:19.000Z</time>
|
|
</trkpt>
|
|
<trkpt lat="55.556979" lon="8.082056">
|
|
<ele>9.455016</ele>
|
|
<time>2026-07-11T13:21:20.000Z</time>
|
|
</trkpt>
|
|
<trkpt lat="55.556976" lon="8.082065">
|
|
<ele>9.467697</ele>
|
|
<time>2026-07-11T13:21:21.000Z</time>
|
|
</trkpt>
|
|
<trkpt lat="55.556969" lon="8.082084">
|
|
<ele>9.495223</ele>
|
|
<time>2026-07-11T13:21:22.000Z</time>
|
|
</trkpt>
|
|
<trkpt lat="55.556963" lon="8.082095">
|
|
<ele>9.513774</ele>
|
|
<time>2026-07-11T13:21:23.000Z</time>
|
|
</trkpt>
|
|
<trkpt lat="55.556960" lon="8.082106">
|
|
<ele>9.528598</ele>
|
|
<time>2026-07-11T13:21:24.000Z</time>
|
|
</trkpt>
|
|
<trkpt lat="55.556958" lon="8.082115">
|
|
<ele>9.540336</ele>
|
|
<time>2026-07-11T13:21:25.000Z</time>
|
|
</trkpt>
|
|
<trkpt lat="55.556953" lon="8.082142">
|
|
<ele>9.574823</ele>
|
|
<time>2026-07-11T13:21:26.000Z</time>
|
|
</trkpt>
|
|
<trkpt lat="55.556951" lon="8.082153">
|
|
<ele>9.588849</ele>
|
|
<time>2026-07-11T13:21:27.000Z</time>
|
|
</trkpt>
|
|
<trkpt lat="55.556946" lon="8.082160">
|
|
<ele>9.602537</ele>
|
|
<time>2026-07-11T13:21:28.000Z</time>
|
|
</trkpt>
|
|
<trkpt lat="55.556940" lon="8.082165">
|
|
<ele>9.616773</ele>
|
|
<time>2026-07-11T13:21:29.000Z</time>
|
|
</trkpt>
|
|
<trkpt lat="55.556935" lon="8.082168">
|
|
<ele>9.628106</ele>
|
|
<time>2026-07-11T13:21:30.000Z</time>
|
|
</trkpt>
|
|
<trkpt lat="55.556929" lon="8.082170">
|
|
<ele>9.641210</ele>
|
|
<time>2026-07-11T13:21:31.000Z</time>
|
|
</trkpt>
|
|
<trkpt lat="55.556927" lon="8.082171">
|
|
<ele>9.645671</ele>
|
|
<time>2026-07-11T13:21:32.000Z</time>
|
|
</trkpt>
|
|
<trkpt lat="55.556926" lon="8.082171">
|
|
<ele>9.647817</ele>
|
|
<time>2026-07-11T13:21:33.000Z</time>
|
|
</trkpt>
|
|
<trkpt lat="55.556923" lon="8.082170">
|
|
<ele>9.654369</ele>
|
|
<time>2026-07-11T13:21:34.000Z</time>
|
|
</trkpt>
|
|
<trkpt lat="55.556807" lon="8.082328">
|
|
<ele>9.968646</ele>
|
|
<time>2026-07-11T13:23:06.000Z</time>
|
|
</trkpt>
|
|
<trkpt lat="55.556801" lon="8.082343">
|
|
<ele>9.990948</ele>
|
|
<time>2026-07-11T13:23:07.000Z</time>
|
|
</trkpt>
|
|
<trkpt lat="55.556796" lon="8.082355">
|
|
<ele>10.009041</ele>
|
|
<time>2026-07-11T13:23:08.000Z</time>
|
|
</trkpt>
|
|
<trkpt lat="55.556793" lon="8.082363">
|
|
<ele>10.020692</ele>
|
|
<time>2026-07-11T13:23:09.000Z</time>
|
|
</trkpt>
|
|
<trkpt lat="55.556784" lon="8.082380">
|
|
<ele>10.048959</ele>
|
|
<time>2026-07-11T13:23:10.000Z</time>
|
|
</trkpt>
|
|
<trkpt lat="55.556782" lon="8.082393">
|
|
<ele>10.065313</ele>
|
|
<time>2026-07-11T13:23:11.000Z</time>
|
|
</trkpt>
|
|
<trkpt lat="55.556782" lon="8.082406">
|
|
<ele>10.081093</ele>
|
|
<time>2026-07-11T13:23:12.000Z</time>
|
|
</trkpt>
|
|
<trkpt lat="55.556782" lon="8.082417">
|
|
<ele>10.094446</ele>
|
|
<time>2026-07-11T13:23:13.000Z</time>
|
|
</trkpt>
|
|
<trkpt lat="55.556776" lon="8.082424">
|
|
<ele>10.109875</ele>
|
|
<time>2026-07-11T13:23:14.000Z</time>
|
|
</trkpt>
|
|
<trkpt lat="55.556776" lon="8.082430">
|
|
<ele>10.117158</ele>
|
|
<time>2026-07-11T13:23:15.000Z</time>
|
|
</trkpt>
|
|
<trkpt lat="55.556775" lon="8.082439">
|
|
<ele>10.128292</ele>
|
|
<time>2026-07-11T13:23:16.000Z</time>
|
|
</trkpt>
|
|
<trkpt lat="55.556770" lon="8.082450">
|
|
<ele>10.145423</ele>
|
|
<time>2026-07-11T13:23:17.000Z</time>
|
|
</trkpt>
|
|
<trkpt lat="55.556770" lon="8.082456">
|
|
<ele>10.152706</ele>
|
|
<time>2026-07-11T13:23:18.000Z</time>
|
|
</trkpt>
|
|
<trkpt lat="55.556766" lon="8.082480">
|
|
<ele>10.183078</ele>
|
|
<time>2026-07-11T13:23:19.000Z</time>
|
|
</trkpt>
|
|
<trkpt lat="55.556766" lon="8.082493">
|
|
<ele>10.198859</ele>
|
|
<time>2026-07-11T13:23:20.000Z</time>
|
|
</trkpt>
|
|
<trkpt lat="55.556765" lon="8.082504">
|
|
<ele>10.212383</ele>
|
|
<time>2026-07-11T13:23:21.000Z</time>
|
|
</trkpt>
|
|
<trkpt lat="55.556763" lon="8.082511">
|
|
<ele>10.221903</ele>
|
|
<time>2026-07-11T13:23:22.000Z</time>
|
|
</trkpt>
|
|
<trkpt lat="55.556763" lon="8.082527">
|
|
<ele>10.241326</ele>
|
|
<time>2026-07-11T13:23:23.000Z</time>
|
|
</trkpt>
|
|
<trkpt lat="55.556763" lon="8.082540">
|
|
<ele>10.257106</ele>
|
|
<time>2026-07-11T13:23:24.000Z</time>
|
|
</trkpt>
|
|
<trkpt lat="55.556763" lon="8.082554">
|
|
<ele>10.274101</ele>
|
|
<time>2026-07-11T13:23:25.000Z</time>
|
|
</trkpt>
|
|
<trkpt lat="55.556763" lon="8.082564">
|
|
<ele>10.286240</ele>
|
|
<time>2026-07-11T13:23:26.000Z</time>
|
|
</trkpt>
|
|
<trkpt lat="55.556763" lon="8.082579">
|
|
<ele>10.304449</ele>
|
|
<time>2026-07-11T13:23:27.000Z</time>
|
|
</trkpt>
|
|
<trkpt lat="55.556763" lon="8.082592">
|
|
<ele>10.320229</ele>
|
|
<time>2026-07-11T13:23:28.000Z</time>
|
|
</trkpt>
|
|
<trkpt lat="55.556763" lon="8.082605">
|
|
<ele>10.336010</ele>
|
|
<time>2026-07-11T13:23:29.000Z</time>
|
|
</trkpt>
|
|
<trkpt lat="55.556763" lon="8.082617">
|
|
<ele>10.350577</ele>
|
|
<time>2026-07-11T13:23:30.000Z</time>
|
|
</trkpt>
|
|
<trkpt lat="55.556759" lon="8.082644">
|
|
<ele>10.384458</ele>
|
|
<time>2026-07-11T13:23:31.000Z</time>
|
|
</trkpt>
|
|
<trkpt lat="55.556755" lon="8.082656">
|
|
<ele>10.401366</ele>
|
|
<time>2026-07-11T13:23:32.000Z</time>
|
|
</trkpt>
|
|
<trkpt lat="55.556755" lon="8.082667">
|
|
<ele>10.414719</ele>
|
|
<time>2026-07-11T13:23:33.000Z</time>
|
|
</trkpt>
|
|
<trkpt lat="55.556750" lon="8.082686">
|
|
<ele>10.440158</ele>
|
|
<time>2026-07-11T13:23:34.000Z</time>
|
|
</trkpt>
|
|
<trkpt lat="55.556746" lon="8.082701">
|
|
<ele>10.460289</ele>
|
|
<time>2026-07-11T13:23:35.000Z</time>
|
|
</trkpt>
|
|
<trkpt lat="55.556744" lon="8.082714">
|
|
<ele>10.476643</ele>
|
|
<time>2026-07-11T13:23:36.000Z</time>
|
|
</trkpt>
|
|
<trkpt lat="55.556744" lon="8.082725">
|
|
<ele>10.489996</ele>
|
|
<time>2026-07-11T13:23:37.000Z</time>
|
|
</trkpt>
|
|
<trkpt lat="55.556744" lon="8.082735">
|
|
<ele>10.502135</ele>
|
|
<time>2026-07-11T13:23:38.000Z</time>
|
|
</trkpt>
|
|
<trkpt lat="55.556744" lon="8.082740">
|
|
<ele>10.508204</ele>
|
|
<time>2026-07-11T13:23:39.000Z</time>
|
|
</trkpt>
|
|
<trkpt lat="55.556744" lon="8.082745">
|
|
<ele>10.514274</ele>
|
|
<time>2026-07-11T13:23:40.000Z</time>
|
|
</trkpt>
|
|
<trkpt lat="55.556744" lon="8.082747">
|
|
<ele>10.516701</ele>
|
|
<time>2026-07-11T13:23:41.000Z</time>
|
|
</trkpt>
|
|
<trkpt lat="55.556742" lon="8.082750">
|
|
<ele>10.522331</ele>
|
|
<time>2026-07-11T13:23:42.000Z</time>
|
|
</trkpt>
|
|
<trkpt lat="55.556734" lon="8.082815">
|
|
<ele>10.603081</ele>
|
|
<time>2026-07-11T13:23:48.000Z</time>
|
|
</trkpt>
|
|
<trkpt lat="55.556731" lon="8.082825">
|
|
<ele>10.616822</ele>
|
|
<time>2026-07-11T13:23:49.000Z</time>
|
|
</trkpt>
|
|
<trkpt lat="55.556728" lon="8.082835">
|
|
<ele>10.630563</ele>
|
|
<time>2026-07-11T13:23:50.000Z</time>
|
|
</trkpt>
|
|
<trkpt lat="55.556727" lon="8.082849">
|
|
<ele>10.647692</ele>
|
|
<time>2026-07-11T13:23:51.000Z</time>
|
|
</trkpt>
|
|
<trkpt lat="55.556721" lon="8.082859">
|
|
<ele>10.665389</ele>
|
|
<time>2026-07-11T13:23:52.000Z</time>
|
|
</trkpt>
|
|
<trkpt lat="55.556714" lon="8.082868">
|
|
<ele>10.683965</ele>
|
|
<time>2026-07-11T13:23:53.000Z</time>
|
|
</trkpt>
|
|
<trkpt lat="55.556707" lon="8.082874">
|
|
<ele>10.700662</ele>
|
|
<time>2026-07-11T13:23:54.000Z</time>
|
|
</trkpt>
|
|
<trkpt lat="55.556700" lon="8.082891">
|
|
<ele>10.726188</ele>
|
|
<time>2026-07-11T13:23:55.000Z</time>
|
|
</trkpt>
|
|
<trkpt lat="55.556694" lon="8.082897">
|
|
<ele>10.740982</ele>
|
|
<time>2026-07-11T13:23:56.000Z</time>
|
|
</trkpt>
|
|
<trkpt lat="55.556688" lon="8.082901">
|
|
<ele>10.754745</ele>
|
|
<time>2026-07-11T13:23:57.000Z</time>
|
|
</trkpt>
|
|
<trkpt lat="55.556684" lon="8.082902">
|
|
<ele>10.763415</ele>
|
|
<time>2026-07-11T13:23:58.000Z</time>
|
|
</trkpt>
|
|
<trkpt lat="55.556675" lon="8.082905">
|
|
<ele>10.783072</ele>
|
|
<time>2026-07-11T13:23:59.000Z</time>
|
|
</trkpt>
|
|
<trkpt lat="55.556670" lon="8.082904">
|
|
<ele>10.793872</ele>
|
|
<time>2026-07-11T13:24:00.000Z</time>
|
|
</trkpt>
|
|
<trkpt lat="55.556667" lon="8.082901">
|
|
<ele>10.801269</ele>
|
|
<time>2026-07-11T13:24:01.000Z</time>
|
|
</trkpt>
|
|
<trkpt lat="55.556666" lon="8.082897">
|
|
<ele>10.806578</ele>
|
|
<time>2026-07-11T13:24:02.000Z</time>
|
|
</trkpt>
|
|
<trkpt lat="55.556660" lon="8.082894">
|
|
<ele>10.819960</ele>
|
|
<time>2026-07-11T13:24:03.000Z</time>
|
|
</trkpt>
|
|
<trkpt lat="55.556655" lon="8.082890">
|
|
<ele>10.831739</ele>
|
|
<time>2026-07-11T13:24:04.000Z</time>
|
|
</trkpt>
|
|
<trkpt lat="55.556623" lon="8.082892">
|
|
<ele>10.900462</ele>
|
|
<time>2026-07-11T13:24:09.000Z</time>
|
|
</trkpt>
|
|
<trkpt lat="55.556613" lon="8.082906">
|
|
<ele>10.927838</ele>
|
|
<time>2026-07-11T13:24:10.000Z</time>
|
|
</trkpt>
|
|
<trkpt lat="55.556607" lon="8.082916">
|
|
<ele>10.945535</ele>
|
|
<time>2026-07-11T13:24:11.000Z</time>
|
|
</trkpt>
|
|
<trkpt lat="55.556600" lon="8.082924">
|
|
<ele>10.963425</ele>
|
|
<time>2026-07-11T13:24:12.000Z</time>
|
|
</trkpt>
|
|
<trkpt lat="55.556596" lon="8.082929">
|
|
<ele>10.973939</ele>
|
|
<time>2026-07-11T13:24:13.000Z</time>
|
|
</trkpt>
|
|
<trkpt lat="55.556586" lon="8.082945">
|
|
<ele>11.002885</ele>
|
|
<time>2026-07-11T13:24:14.000Z</time>
|
|
</trkpt>
|
|
<trkpt lat="55.556582" lon="8.082957">
|
|
<ele>11.019793</ele>
|
|
<time>2026-07-11T13:24:15.000Z</time>
|
|
</trkpt>
|
|
<trkpt lat="55.556578" lon="8.082969">
|
|
<ele>11.036702</ele>
|
|
<time>2026-07-11T13:24:16.000Z</time>
|
|
</trkpt>
|
|
<trkpt lat="55.556576" lon="8.082979">
|
|
<ele>11.049577</ele>
|
|
<time>2026-07-11T13:24:17.000Z</time>
|
|
</trkpt>
|
|
<trkpt lat="55.556574" lon="8.082986">
|
|
<ele>11.059097</ele>
|
|
<time>2026-07-11T13:24:18.000Z</time>
|
|
</trkpt>
|
|
<trkpt lat="55.556569" lon="8.082985">
|
|
<ele>11.069897</ele>
|
|
<time>2026-07-11T13:24:19.000Z</time>
|
|
</trkpt>
|
|
<trkpt lat="55.556563" lon="8.082990">
|
|
<ele>11.084133</ele>
|
|
<time>2026-07-11T13:24:20.000Z</time>
|
|
</trkpt>
|
|
<trkpt lat="55.556559" lon="8.082999">
|
|
<ele>11.098028</ele>
|
|
<time>2026-07-11T13:24:21.000Z</time>
|
|
</trkpt>
|
|
<trkpt lat="55.556557" lon="8.083005">
|
|
<ele>11.106482</ele>
|
|
<time>2026-07-11T13:24:22.000Z</time>
|
|
</trkpt>
|
|
<trkpt lat="55.556561" lon="8.083009">
|
|
<ele>11.116345</ele>
|
|
<time>2026-07-11T13:24:24.000Z</time>
|
|
</trkpt>
|
|
<trkpt lat="55.556561" lon="8.083012">
|
|
<ele>11.119987</ele>
|
|
<time>2026-07-11T13:24:25.000Z</time>
|
|
</trkpt>
|
|
<trkpt lat="55.556561" lon="8.083014">
|
|
<ele>11.122415</ele>
|
|
<time>2026-07-11T13:24:26.000Z</time>
|
|
</trkpt>
|
|
<trkpt lat="55.556523" lon="8.083212">
|
|
<ele>11.376229</ele>
|
|
<time>2026-07-11T13:25:04.000Z</time>
|
|
</trkpt>
|
|
<trkpt lat="55.556521" lon="8.083226">
|
|
<ele>11.393757</ele>
|
|
<time>2026-07-11T13:25:05.000Z</time>
|
|
</trkpt>
|
|
<trkpt lat="55.556519" lon="8.083239">
|
|
<ele>11.410111</ele>
|
|
<time>2026-07-11T13:25:06.000Z</time>
|
|
</trkpt>
|
|
<trkpt lat="55.556518" lon="8.083250">
|
|
<ele>11.423636</ele>
|
|
<time>2026-07-11T13:25:07.000Z</time>
|
|
</trkpt>
|
|
<trkpt lat="55.556515" lon="8.083260">
|
|
<ele>11.437377</ele>
|
|
<time>2026-07-11T13:25:08.000Z</time>
|
|
</trkpt>
|
|
<trkpt lat="55.556513" lon="8.083280">
|
|
<ele>11.462032</ele>
|
|
<time>2026-07-11T13:25:09.000Z</time>
|
|
</trkpt>
|
|
<trkpt lat="55.556508" lon="8.083292">
|
|
<ele>11.480124</ele>
|
|
<time>2026-07-11T13:25:10.000Z</time>
|
|
</trkpt>
|
|
<trkpt lat="55.556503" lon="8.083304">
|
|
<ele>11.498217</ele>
|
|
<time>2026-07-11T13:25:11.000Z</time>
|
|
</trkpt>
|
|
<trkpt lat="55.556503" lon="8.083315">
|
|
<ele>11.511570</ele>
|
|
<time>2026-07-11T13:25:12.000Z</time>
|
|
</trkpt>
|
|
<trkpt lat="55.556503" lon="8.083334">
|
|
<ele>11.534635</ele>
|
|
<time>2026-07-11T13:25:13.000Z</time>
|
|
</trkpt>
|
|
<trkpt lat="55.556505" lon="8.083343">
|
|
<ele>11.546373</ele>
|
|
<time>2026-07-11T13:25:14.000Z</time>
|
|
</trkpt>
|
|
<trkpt lat="55.556508" lon="8.083347">
|
|
<ele>11.554437</ele>
|
|
<time>2026-07-11T13:25:15.000Z</time>
|
|
</trkpt>
|
|
<trkpt lat="55.556511" lon="8.083350">
|
|
<ele>11.561835</ele>
|
|
<time>2026-07-11T13:25:16.000Z</time>
|
|
</trkpt>
|
|
<trkpt lat="55.556520" lon="8.083356">
|
|
<ele>11.582479</ele>
|
|
<time>2026-07-11T13:25:17.000Z</time>
|
|
</trkpt>
|
|
<trkpt lat="55.556524" lon="8.083357">
|
|
<ele>11.591149</ele>
|
|
<time>2026-07-11T13:25:18.000Z</time>
|
|
</trkpt>
|
|
<trkpt lat="55.556571" lon="8.083371">
|
|
<ele>11.693445</ele>
|
|
<time>2026-07-11T13:25:48.000Z</time>
|
|
</trkpt>
|
|
<trkpt lat="55.556581" lon="8.083369">
|
|
<ele>11.715044</ele>
|
|
<time>2026-07-11T13:25:49.000Z</time>
|
|
</trkpt>
|
|
<trkpt lat="55.556588" lon="8.083366">
|
|
<ele>11.730503</ele>
|
|
<time>2026-07-11T13:25:50.000Z</time>
|
|
</trkpt>
|
|
<trkpt lat="55.556597" lon="8.083363">
|
|
<ele>11.750160</ele>
|
|
<time>2026-07-11T13:25:51.000Z</time>
|
|
</trkpt>
|
|
<trkpt lat="55.556602" lon="8.083362">
|
|
<ele>11.760959</ele>
|
|
<time>2026-07-11T13:25:52.000Z</time>
|
|
</trkpt>
|
|
<trkpt lat="55.556615" lon="8.083358">
|
|
<ele>11.789280</ele>
|
|
<time>2026-07-11T13:25:53.000Z</time>
|
|
</trkpt>
|
|
<trkpt lat="55.556625" lon="8.083356">
|
|
<ele>11.810879</ele>
|
|
<time>2026-07-11T13:25:54.000Z</time>
|
|
</trkpt>
|
|
<trkpt lat="55.556631" lon="8.083355">
|
|
<ele>11.823814</ele>
|
|
<time>2026-07-11T13:25:55.000Z</time>
|
|
</trkpt>
|
|
<trkpt lat="55.556636" lon="8.083353">
|
|
<ele>11.834817</ele>
|
|
<time>2026-07-11T13:25:56.000Z</time>
|
|
</trkpt>
|
|
<trkpt lat="55.556646" lon="8.083360">
|
|
<ele>11.857900</ele>
|
|
<time>2026-07-11T13:25:57.000Z</time>
|
|
</trkpt>
|
|
<trkpt lat="55.556651" lon="8.083365">
|
|
<ele>11.870229</ele>
|
|
<time>2026-07-11T13:25:58.000Z</time>
|
|
</trkpt>
|
|
<trkpt lat="55.556657" lon="8.083367">
|
|
<ele>11.883333</ele>
|
|
<time>2026-07-11T13:25:59.000Z</time>
|
|
</trkpt>
|
|
<trkpt lat="55.556659" lon="8.083370">
|
|
<ele>11.888962</ele>
|
|
<time>2026-07-11T13:26:00.000Z</time>
|
|
</trkpt>
|
|
<trkpt lat="55.556667" lon="8.083373">
|
|
<ele>11.906514</ele>
|
|
<time>2026-07-11T13:26:01.000Z</time>
|
|
</trkpt>
|
|
<trkpt lat="55.556673" lon="8.083379">
|
|
<ele>11.921309</ele>
|
|
<time>2026-07-11T13:26:02.000Z</time>
|
|
</trkpt>
|
|
<trkpt lat="55.556677" lon="8.083386">
|
|
<ele>11.933388</ele>
|
|
<time>2026-07-11T13:26:03.000Z</time>
|
|
</trkpt>
|
|
<trkpt lat="55.556680" lon="8.083390">
|
|
<ele>11.941453</ele>
|
|
<time>2026-07-11T13:26:04.000Z</time>
|
|
</trkpt>
|
|
<trkpt lat="55.556685" lon="8.083393">
|
|
<ele>11.952785</ele>
|
|
<time>2026-07-11T13:26:05.000Z</time>
|
|
</trkpt>
|
|
<trkpt lat="55.556784" lon="8.083548">
|
|
<ele>12.236598</ele>
|
|
<time>2026-07-11T13:26:26.000Z</time>
|
|
</trkpt>
|
|
<trkpt lat="55.556793" lon="8.083554">
|
|
<ele>12.257242</ele>
|
|
<time>2026-07-11T13:26:27.000Z</time>
|
|
</trkpt>
|
|
<trkpt lat="55.556800" lon="8.083556">
|
|
<ele>12.272461</ele>
|
|
<time>2026-07-11T13:26:28.000Z</time>
|
|
</trkpt>
|
|
<trkpt lat="55.556810" lon="8.083557">
|
|
<ele>12.293957</ele>
|
|
<time>2026-07-11T13:26:29.000Z</time>
|
|
</trkpt>
|
|
<trkpt lat="55.556819" lon="8.083558">
|
|
<ele>12.313312</ele>
|
|
<time>2026-07-11T13:26:30.000Z</time>
|
|
</trkpt>
|
|
<trkpt lat="55.556827" lon="8.083559">
|
|
<ele>12.330525</ele>
|
|
<time>2026-07-11T13:26:31.000Z</time>
|
|
</trkpt>
|
|
<trkpt lat="55.556834" lon="8.083561">
|
|
<ele>12.345743</ele>
|
|
<time>2026-07-11T13:26:32.000Z</time>
|
|
</trkpt>
|
|
<trkpt lat="55.556842" lon="8.083563">
|
|
<ele>12.363084</ele>
|
|
<time>2026-07-11T13:26:33.000Z</time>
|
|
</trkpt>
|
|
<trkpt lat="55.556850" lon="8.083566">
|
|
<ele>12.380636</ele>
|
|
<time>2026-07-11T13:26:34.000Z</time>
|
|
</trkpt>
|
|
<trkpt lat="55.556858" lon="8.083574">
|
|
<ele>12.400362</ele>
|
|
<time>2026-07-11T13:26:35.000Z</time>
|
|
</trkpt>
|
|
<trkpt lat="55.556865" lon="8.083585">
|
|
<ele>12.420462</ele>
|
|
<time>2026-07-11T13:26:36.000Z</time>
|
|
</trkpt>
|
|
<trkpt lat="55.556873" lon="8.083595">
|
|
<ele>12.441490</ele>
|
|
<time>2026-07-11T13:26:37.000Z</time>
|
|
</trkpt>
|
|
<trkpt lat="55.556881" lon="8.083602">
|
|
<ele>12.460648</ele>
|
|
<time>2026-07-11T13:26:38.000Z</time>
|
|
</trkpt>
|
|
<trkpt lat="55.556888" lon="8.083608">
|
|
<ele>12.477344</ele>
|
|
<time>2026-07-11T13:26:39.000Z</time>
|
|
</trkpt>
|
|
<trkpt lat="55.556896" lon="8.083615">
|
|
<ele>12.496502</ele>
|
|
<time>2026-07-11T13:26:40.000Z</time>
|
|
</trkpt>
|
|
<trkpt lat="55.556903" lon="8.083623">
|
|
<ele>12.514391</ele>
|
|
<time>2026-07-11T13:26:41.000Z</time>
|
|
</trkpt>
|
|
<trkpt lat="55.556911" lon="8.083631">
|
|
<ele>12.534117</ele>
|
|
<time>2026-07-11T13:26:42.000Z</time>
|
|
</trkpt>
|
|
<trkpt lat="55.556919" lon="8.083635">
|
|
<ele>12.551960</ele>
|
|
<time>2026-07-11T13:26:43.000Z</time>
|
|
</trkpt>
|
|
<trkpt lat="55.556925" lon="8.083634">
|
|
<ele>12.564895</ele>
|
|
<time>2026-07-11T13:26:44.000Z</time>
|
|
</trkpt>
|
|
<trkpt lat="55.556932" lon="8.083635">
|
|
<ele>12.579968</ele>
|
|
<time>2026-07-11T13:26:45.000Z</time>
|
|
</trkpt>
|
|
<trkpt lat="55.556941" lon="8.083641">
|
|
<ele>12.600612</ele>
|
|
<time>2026-07-11T13:26:46.000Z</time>
|
|
</trkpt>
|
|
<trkpt lat="55.556946" lon="8.083650">
|
|
<ele>12.615925</ele>
|
|
<time>2026-07-11T13:26:47.000Z</time>
|
|
</trkpt>
|
|
<trkpt lat="55.556951" lon="8.083662">
|
|
<ele>12.634018</ele>
|
|
<time>2026-07-11T13:26:48.000Z</time>
|
|
</trkpt>
|
|
<trkpt lat="55.556955" lon="8.083678">
|
|
<ele>12.655253</ele>
|
|
<time>2026-07-11T13:26:49.000Z</time>
|
|
</trkpt>
|
|
<trkpt lat="55.556961" lon="8.083693">
|
|
<ele>12.677555</ele>
|
|
<time>2026-07-11T13:26:50.000Z</time>
|
|
</trkpt>
|
|
<trkpt lat="55.556967" lon="8.083704">
|
|
<ele>12.696106</ele>
|
|
<time>2026-07-11T13:26:51.000Z</time>
|
|
</trkpt>
|
|
<trkpt lat="55.556971" lon="8.083720">
|
|
<ele>12.717341</ele>
|
|
<time>2026-07-11T13:26:52.000Z</time>
|
|
</trkpt>
|
|
<trkpt lat="55.556977" lon="8.083738">
|
|
<ele>12.742704</ele>
|
|
<time>2026-07-11T13:26:53.000Z</time>
|
|
</trkpt>
|
|
<trkpt lat="55.556980" lon="8.083755">
|
|
<ele>12.764321</ele>
|
|
<time>2026-07-11T13:26:54.000Z</time>
|
|
</trkpt>
|
|
<trkpt lat="55.556982" lon="8.083772">
|
|
<ele>12.785399</ele>
|
|
<time>2026-07-11T13:26:55.000Z</time>
|
|
</trkpt>
|
|
<trkpt lat="55.556986" lon="8.083789">
|
|
<ele>12.807750</ele>
|
|
<time>2026-07-11T13:26:56.000Z</time>
|
|
</trkpt>
|
|
<trkpt lat="55.556989" lon="8.083805">
|
|
<ele>12.828212</ele>
|
|
<time>2026-07-11T13:26:57.000Z</time>
|
|
</trkpt>
|
|
<trkpt lat="55.556993" lon="8.083821">
|
|
<ele>12.833473</ele>
|
|
<time>2026-07-11T13:26:58.000Z</time>
|
|
</trkpt>
|
|
<trkpt lat="55.556999" lon="8.083838">
|
|
<ele>12.793382</ele>
|
|
<time>2026-07-11T13:26:59.000Z</time>
|
|
</trkpt>
|
|
<trkpt lat="55.557003" lon="8.083854">
|
|
<ele>12.758383</ele>
|
|
<time>2026-07-11T13:27:00.000Z</time>
|
|
</trkpt>
|
|
<trkpt lat="55.557005" lon="8.083869">
|
|
<ele>12.727550</ele>
|
|
<time>2026-07-11T13:27:01.000Z</time>
|
|
</trkpt>
|
|
<trkpt lat="55.557006" lon="8.083886">
|
|
<ele>12.693355</ele>
|
|
<time>2026-07-11T13:27:02.000Z</time>
|
|
</trkpt>
|
|
<trkpt lat="55.557004" lon="8.083904">
|
|
<ele>12.656654</ele>
|
|
<time>2026-07-11T13:27:03.000Z</time>
|
|
</trkpt>
|
|
<trkpt lat="55.557005" lon="8.083922">
|
|
<ele>12.620469</ele>
|
|
<time>2026-07-11T13:27:04.000Z</time>
|
|
</trkpt>
|
|
<trkpt lat="55.557007" lon="8.083941">
|
|
<ele>12.581803</ele>
|
|
<time>2026-07-11T13:27:05.000Z</time>
|
|
</trkpt>
|
|
<trkpt lat="55.557007" lon="8.083961">
|
|
<ele>12.541789</ele>
|
|
<time>2026-07-11T13:27:06.000Z</time>
|
|
</trkpt>
|
|
<trkpt lat="55.557007" lon="8.083981">
|
|
<ele>12.501775</ele>
|
|
<time>2026-07-11T13:27:07.000Z</time>
|
|
</trkpt>
|
|
<trkpt lat="55.557007" lon="8.083997">
|
|
<ele>12.469764</ele>
|
|
<time>2026-07-11T13:27:08.000Z</time>
|
|
</trkpt>
|
|
<trkpt lat="55.557009" lon="8.084010">
|
|
<ele>12.442810</ele>
|
|
<time>2026-07-11T13:27:09.000Z</time>
|
|
</trkpt>
|
|
<trkpt lat="55.557012" lon="8.084025">
|
|
<ele>12.410979</ele>
|
|
<time>2026-07-11T13:27:10.000Z</time>
|
|
</trkpt>
|
|
<trkpt lat="55.557016" lon="8.084039">
|
|
<ele>12.379598</ele>
|
|
<time>2026-07-11T13:27:11.000Z</time>
|
|
</trkpt>
|
|
<trkpt lat="55.557020" lon="8.084052">
|
|
<ele>12.349989</ele>
|
|
<time>2026-07-11T13:27:12.000Z</time>
|
|
</trkpt>
|
|
<trkpt lat="55.557022" lon="8.084067">
|
|
<ele>12.319156</ele>
|
|
<time>2026-07-11T13:27:13.000Z</time>
|
|
</trkpt>
|
|
<trkpt lat="55.557022" lon="8.084082">
|
|
<ele>12.289146</ele>
|
|
<time>2026-07-11T13:27:14.000Z</time>
|
|
</trkpt>
|
|
<trkpt lat="55.557022" lon="8.084095">
|
|
<ele>12.263137</ele>
|
|
<time>2026-07-11T13:27:15.000Z</time>
|
|
</trkpt>
|
|
<trkpt lat="55.557022" lon="8.084110">
|
|
<ele>12.233127</ele>
|
|
<time>2026-07-11T13:27:16.000Z</time>
|
|
</trkpt>
|
|
<trkpt lat="55.557020" lon="8.084125">
|
|
<ele>12.202294</ele>
|
|
<time>2026-07-11T13:27:17.000Z</time>
|
|
</trkpt>
|
|
<trkpt lat="55.557018" lon="8.084141">
|
|
<ele>12.169510</ele>
|
|
<time>2026-07-11T13:27:18.000Z</time>
|
|
</trkpt>
|
|
<trkpt lat="55.557016" lon="8.084153">
|
|
<ele>12.144481</ele>
|
|
<time>2026-07-11T13:27:19.000Z</time>
|
|
</trkpt>
|
|
<trkpt lat="55.557010" lon="8.084165">
|
|
<ele>12.112436</ele>
|
|
<time>2026-07-11T13:27:20.000Z</time>
|
|
</trkpt>
|
|
<trkpt lat="55.557004" lon="8.084176">
|
|
<ele>12.081862</ele>
|
|
<time>2026-07-11T13:27:21.000Z</time>
|
|
</trkpt>
|
|
<trkpt lat="55.556998" lon="8.084183">
|
|
<ele>12.056433</ele>
|
|
<time>2026-07-11T13:27:22.000Z</time>
|
|
</trkpt>
|
|
<trkpt lat="55.556994" lon="8.084184">
|
|
<ele>12.042143</ele>
|
|
<time>2026-07-11T13:27:23.000Z</time>
|
|
</trkpt>
|
|
<trkpt lat="55.556992" lon="8.084187">
|
|
<ele>12.032865</ele>
|
|
<time>2026-07-11T13:27:24.000Z</time>
|
|
</trkpt>
|
|
<trkpt lat="55.556992" lon="8.084190">
|
|
<ele>12.026863</ele>
|
|
<time>2026-07-11T13:27:25.000Z</time>
|
|
</trkpt>
|
|
<trkpt lat="55.557100" lon="8.084150">
|
|
<ele>11.636535</ele>
|
|
<time>2026-07-11T13:42:05.000Z</time>
|
|
</trkpt>
|
|
<trkpt lat="55.557104" lon="8.084161">
|
|
<ele>11.610371</ele>
|
|
<time>2026-07-11T13:42:06.000Z</time>
|
|
</trkpt>
|
|
<trkpt lat="55.557108" lon="8.084171">
|
|
<ele>11.585866</ele>
|
|
<time>2026-07-11T13:42:07.000Z</time>
|
|
</trkpt>
|
|
<trkpt lat="55.557111" lon="8.084181">
|
|
<ele>11.563219</ele>
|
|
<time>2026-07-11T13:42:08.000Z</time>
|
|
</trkpt>
|
|
<trkpt lat="55.557117" lon="8.084191">
|
|
<ele>11.534052</ele>
|
|
<time>2026-07-11T13:42:09.000Z</time>
|
|
</trkpt>
|
|
<trkpt lat="55.557123" lon="8.084203">
|
|
<ele>11.502007</ele>
|
|
<time>2026-07-11T13:42:10.000Z</time>
|
|
</trkpt>
|
|
<trkpt lat="55.557127" lon="8.084217">
|
|
<ele>11.470626</ele>
|
|
<time>2026-07-11T13:42:11.000Z</time>
|
|
</trkpt>
|
|
<trkpt lat="55.557131" lon="8.084227">
|
|
<ele>11.446121</ele>
|
|
<time>2026-07-11T13:42:12.000Z</time>
|
|
</trkpt>
|
|
<trkpt lat="55.557134" lon="8.084236">
|
|
<ele>11.425221</ele>
|
|
<time>2026-07-11T13:42:13.000Z</time>
|
|
</trkpt>
|
|
<trkpt lat="55.557138" lon="8.084247">
|
|
<ele>11.399057</ele>
|
|
<time>2026-07-11T13:42:14.000Z</time>
|
|
</trkpt>
|
|
<trkpt lat="55.557144" lon="8.084260">
|
|
<ele>11.365487</ele>
|
|
<time>2026-07-11T13:42:15.000Z</time>
|
|
</trkpt>
|
|
<trkpt lat="55.557151" lon="8.084273">
|
|
<ele>11.329576</ele>
|
|
<time>2026-07-11T13:42:16.000Z</time>
|
|
</trkpt>
|
|
<trkpt lat="55.557159" lon="8.084284">
|
|
<ele>11.293727</ele>
|
|
<time>2026-07-11T13:42:17.000Z</time>
|
|
</trkpt>
|
|
<trkpt lat="55.557168" lon="8.084293">
|
|
<ele>11.257151</ele>
|
|
<time>2026-07-11T13:42:18.000Z</time>
|
|
</trkpt>
|
|
<trkpt lat="55.557178" lon="8.084302">
|
|
<ele>11.217459</ele>
|
|
<time>2026-07-11T13:42:19.000Z</time>
|
|
</trkpt>
|
|
<trkpt lat="55.557185" lon="8.084310">
|
|
<ele>11.187974</ele>
|
|
<time>2026-07-11T13:42:20.000Z</time>
|
|
</trkpt>
|
|
<trkpt lat="55.557193" lon="8.084320">
|
|
<ele>11.153317</ele>
|
|
<time>2026-07-11T13:42:21.000Z</time>
|
|
</trkpt>
|
|
<trkpt lat="55.557199" lon="8.084330">
|
|
<ele>11.124150</ele>
|
|
<time>2026-07-11T13:42:22.000Z</time>
|
|
</trkpt>
|
|
<trkpt lat="55.557203" lon="8.084336">
|
|
<ele>11.105594</ele>
|
|
<time>2026-07-11T13:42:23.000Z</time>
|
|
</trkpt>
|
|
<trkpt lat="55.557205" lon="8.084339">
|
|
<ele>11.096317</ele>
|
|
<time>2026-07-11T13:42:24.000Z</time>
|
|
</trkpt>
|
|
<trkpt lat="55.557205" lon="8.084340">
|
|
<ele>11.094316</ele>
|
|
<time>2026-07-11T13:42:25.000Z</time>
|
|
</trkpt>
|
|
<trkpt lat="55.557207" lon="8.084351">
|
|
<ele>11.071199</ele>
|
|
<time>2026-07-11T13:42:32.000Z</time>
|
|
</trkpt>
|
|
<trkpt lat="55.557212" lon="8.084375">
|
|
<ele>11.020029</ele>
|
|
<time>2026-07-11T13:42:33.000Z</time>
|
|
</trkpt>
|
|
<trkpt lat="55.557218" lon="8.084395">
|
|
<ele>10.974735</ele>
|
|
<time>2026-07-11T13:42:34.000Z</time>
|
|
</trkpt>
|
|
<trkpt lat="55.557222" lon="8.084421">
|
|
<ele>10.920827</ele>
|
|
<time>2026-07-11T13:42:35.000Z</time>
|
|
</trkpt>
|
|
<trkpt lat="55.557226" lon="8.084453">
|
|
<ele>10.855261</ele>
|
|
<time>2026-07-11T13:42:36.000Z</time>
|
|
</trkpt>
|
|
<trkpt lat="55.557228" lon="8.084494">
|
|
<ele>10.772928</ele>
|
|
<time>2026-07-11T13:42:37.000Z</time>
|
|
</trkpt>
|
|
<trkpt lat="55.557228" lon="8.084543">
|
|
<ele>10.674895</ele>
|
|
<time>2026-07-11T13:42:38.000Z</time>
|
|
</trkpt>
|
|
<trkpt lat="55.557227" lon="8.084596">
|
|
<ele>10.568800</ele>
|
|
<time>2026-07-11T13:42:39.000Z</time>
|
|
</trkpt>
|
|
<trkpt lat="55.557224" lon="8.084659">
|
|
<ele>10.442311</ele>
|
|
<time>2026-07-11T13:42:40.000Z</time>
|
|
</trkpt>
|
|
<trkpt lat="55.557221" lon="8.084728">
|
|
<ele>10.303857</ele>
|
|
<time>2026-07-11T13:42:41.000Z</time>
|
|
</trkpt>
|
|
<trkpt lat="55.557215" lon="8.084803">
|
|
<ele>10.152312</ele>
|
|
<time>2026-07-11T13:42:42.000Z</time>
|
|
</trkpt>
|
|
<trkpt lat="55.557210" lon="8.084888">
|
|
<ele>9.981337</ele>
|
|
<time>2026-07-11T13:42:43.000Z</time>
|
|
</trkpt>
|
|
<trkpt lat="55.557205" lon="8.084981">
|
|
<ele>9.794435</ele>
|
|
<time>2026-07-11T13:42:44.000Z</time>
|
|
</trkpt>
|
|
<trkpt lat="55.557205" lon="8.085080">
|
|
<ele>9.596368</ele>
|
|
<time>2026-07-11T13:42:45.000Z</time>
|
|
</trkpt>
|
|
<trkpt lat="55.557205" lon="8.085180">
|
|
<ele>9.396300</ele>
|
|
<time>2026-07-11T13:42:46.000Z</time>
|
|
</trkpt>
|
|
<trkpt lat="55.557208" lon="8.085286">
|
|
<ele>9.183962</ele>
|
|
<time>2026-07-11T13:42:47.000Z</time>
|
|
</trkpt>
|
|
<trkpt lat="55.557214" lon="8.085399">
|
|
<ele>8.956891</ele>
|
|
<time>2026-07-11T13:42:48.000Z</time>
|
|
</trkpt>
|
|
<trkpt lat="55.557221" lon="8.085514">
|
|
<ele>8.725484</ele>
|
|
<time>2026-07-11T13:42:49.000Z</time>
|
|
</trkpt>
|
|
<trkpt lat="55.557231" lon="8.085625">
|
|
<ele>8.500609</ele>
|
|
<time>2026-07-11T13:42:50.000Z</time>
|
|
</trkpt>
|
|
<trkpt lat="55.557240" lon="8.085744">
|
|
<ele>8.260409</ele>
|
|
<time>2026-07-11T13:42:51.000Z</time>
|
|
</trkpt>
|
|
<trkpt lat="55.557254" lon="8.085868">
|
|
<ele>8.007430</ele>
|
|
<time>2026-07-11T13:42:52.000Z</time>
|
|
</trkpt>
|
|
<trkpt lat="55.557270" lon="8.085989">
|
|
<ele>7.758820</ele>
|
|
<time>2026-07-11T13:42:53.000Z</time>
|
|
</trkpt>
|
|
<trkpt lat="55.557289" lon="8.086109">
|
|
<ele>7.509509</ele>
|
|
<time>2026-07-11T13:42:54.000Z</time>
|
|
</trkpt>
|
|
<trkpt lat="55.557308" lon="8.086232">
|
|
<ele>7.254413</ele>
|
|
<time>2026-07-11T13:42:55.000Z</time>
|
|
</trkpt>
|
|
<trkpt lat="55.557326" lon="8.086355">
|
|
<ele>7.000225</ele>
|
|
<time>2026-07-11T13:42:56.000Z</time>
|
|
</trkpt>
|
|
<trkpt lat="55.557341" lon="8.086477">
|
|
<ele>6.750442</ele>
|
|
<time>2026-07-11T13:42:57.000Z</time>
|
|
</trkpt>
|
|
<trkpt lat="55.557355" lon="8.086602">
|
|
<ele>6.495502</ele>
|
|
<time>2026-07-11T13:42:58.000Z</time>
|
|
</trkpt>
|
|
<trkpt lat="55.557363" lon="8.086722">
|
|
<ele>6.449414</ele>
|
|
<time>2026-07-11T13:42:59.000Z</time>
|
|
</trkpt>
|
|
<trkpt lat="55.557368" lon="8.086839">
|
|
<ele>6.416842</ele>
|
|
<time>2026-07-11T13:43:00.000Z</time>
|
|
</trkpt>
|
|
<trkpt lat="55.557375" lon="8.086954">
|
|
<ele>6.384733</ele>
|
|
<time>2026-07-11T13:43:01.000Z</time>
|
|
</trkpt>
|
|
<trkpt lat="55.557374" lon="8.087065">
|
|
<ele>6.353916</ele>
|
|
<time>2026-07-11T13:43:02.000Z</time>
|
|
</trkpt>
|
|
<trkpt lat="55.557366" lon="8.087171">
|
|
<ele>6.324229</ele>
|
|
<time>2026-07-11T13:43:03.000Z</time>
|
|
</trkpt>
|
|
<trkpt lat="55.557355" lon="8.087273">
|
|
<ele>6.295403</ele>
|
|
<time>2026-07-11T13:43:04.000Z</time>
|
|
</trkpt>
|
|
<trkpt lat="55.557340" lon="8.087372">
|
|
<ele>6.266952</ele>
|
|
<time>2026-07-11T13:43:05.000Z</time>
|
|
</trkpt>
|
|
<trkpt lat="55.557322" lon="8.087469">
|
|
<ele>6.238612</ele>
|
|
<time>2026-07-11T13:43:06.000Z</time>
|
|
</trkpt>
|
|
<trkpt lat="55.557296" lon="8.087562">
|
|
<ele>6.209813</ele>
|
|
<time>2026-07-11T13:43:07.000Z</time>
|
|
</trkpt>
|
|
<trkpt lat="55.557265" lon="8.087649">
|
|
<ele>6.181268</ele>
|
|
<time>2026-07-11T13:43:08.000Z</time>
|
|
</trkpt>
|
|
<trkpt lat="55.557235" lon="8.087733">
|
|
<ele>6.153689</ele>
|
|
<time>2026-07-11T13:43:09.000Z</time>
|
|
</trkpt>
|
|
<trkpt lat="55.557206" lon="8.087821">
|
|
<ele>6.125416</ele>
|
|
<time>2026-07-11T13:43:10.000Z</time>
|
|
</trkpt>
|
|
<trkpt lat="55.557177" lon="8.087911">
|
|
<ele>6.096661</ele>
|
|
<time>2026-07-11T13:43:11.000Z</time>
|
|
</trkpt>
|
|
<trkpt lat="55.557147" lon="8.088004">
|
|
<ele>6.066940</ele>
|
|
<time>2026-07-11T13:43:12.000Z</time>
|
|
</trkpt>
|
|
<trkpt lat="55.557117" lon="8.088100">
|
|
<ele>6.036493</ele>
|
|
<time>2026-07-11T13:43:13.000Z</time>
|
|
</trkpt>
|
|
<trkpt lat="55.557089" lon="8.088201">
|
|
<ele>6.005268</ele>
|
|
<time>2026-07-11T13:43:14.000Z</time>
|
|
</trkpt>
|
|
<trkpt lat="55.557064" lon="8.088300">
|
|
<ele>5.975170</ele>
|
|
<time>2026-07-11T13:43:15.000Z</time>
|
|
</trkpt>
|
|
<trkpt lat="55.557039" lon="8.088398">
|
|
<ele>5.945325</ele>
|
|
<time>2026-07-11T13:43:16.000Z</time>
|
|
</trkpt>
|
|
<trkpt lat="55.557015" lon="8.088495">
|
|
<ele>5.915934</ele>
|
|
<time>2026-07-11T13:43:17.000Z</time>
|
|
</trkpt>
|
|
<trkpt lat="55.556990" lon="8.088589">
|
|
<ele>5.887098</ele>
|
|
<time>2026-07-11T13:43:18.000Z</time>
|
|
</trkpt>
|
|
<trkpt lat="55.556967" lon="8.088681">
|
|
<ele>5.859175</ele>
|
|
<time>2026-07-11T13:43:19.000Z</time>
|
|
</trkpt>
|
|
<trkpt lat="55.556944" lon="8.088773">
|
|
<ele>5.831251</ele>
|
|
<time>2026-07-11T13:43:20.000Z</time>
|
|
</trkpt>
|
|
<trkpt lat="55.556923" lon="8.088866">
|
|
<ele>5.803452</ele>
|
|
<time>2026-07-11T13:43:21.000Z</time>
|
|
</trkpt>
|
|
<trkpt lat="55.556902" lon="8.088957">
|
|
<ele>5.776168</ele>
|
|
<time>2026-07-11T13:43:22.000Z</time>
|
|
</trkpt>
|
|
<trkpt lat="55.556880" lon="8.089046">
|
|
<ele>5.749205</ele>
|
|
<time>2026-07-11T13:43:23.000Z</time>
|
|
</trkpt>
|
|
<trkpt lat="55.556858" lon="8.089138">
|
|
<ele>5.721476</ele>
|
|
<time>2026-07-11T13:43:24.000Z</time>
|
|
</trkpt>
|
|
<trkpt lat="55.556837" lon="8.089235">
|
|
<ele>5.692643</ele>
|
|
<time>2026-07-11T13:43:25.000Z</time>
|
|
</trkpt>
|
|
<trkpt lat="55.556814" lon="8.089330">
|
|
<ele>5.663956</ele>
|
|
<time>2026-07-11T13:43:26.000Z</time>
|
|
</trkpt>
|
|
<trkpt lat="55.556790" lon="8.089422">
|
|
<ele>5.635830</ele>
|
|
<time>2026-07-11T13:43:27.000Z</time>
|
|
</trkpt>
|
|
<trkpt lat="55.556761" lon="8.089509">
|
|
<ele>5.607796</ele>
|
|
<time>2026-07-11T13:43:28.000Z</time>
|
|
</trkpt>
|
|
<trkpt lat="55.556731" lon="8.089595">
|
|
<ele>5.614133</ele>
|
|
<time>2026-07-11T13:43:29.000Z</time>
|
|
</trkpt>
|
|
<trkpt lat="55.556702" lon="8.089678">
|
|
<ele>5.637757</ele>
|
|
<time>2026-07-11T13:43:30.000Z</time>
|
|
</trkpt>
|
|
<trkpt lat="55.556672" lon="8.089763">
|
|
<ele>5.662018</ele>
|
|
<time>2026-07-11T13:43:31.000Z</time>
|
|
</trkpt>
|
|
<trkpt lat="55.556639" lon="8.089851">
|
|
<ele>5.687585</ele>
|
|
<time>2026-07-11T13:43:32.000Z</time>
|
|
</trkpt>
|
|
<trkpt lat="55.556607" lon="8.089938">
|
|
<ele>5.712714</ele>
|
|
<time>2026-07-11T13:43:33.000Z</time>
|
|
</trkpt>
|
|
<trkpt lat="55.556575" lon="8.090023">
|
|
<ele>5.737439</ele>
|
|
<time>2026-07-11T13:43:34.000Z</time>
|
|
</trkpt>
|
|
<trkpt lat="55.556544" lon="8.090109">
|
|
<ele>5.762133</ele>
|
|
<time>2026-07-11T13:43:35.000Z</time>
|
|
</trkpt>
|
|
<trkpt lat="55.556512" lon="8.090192">
|
|
<ele>5.786457</ele>
|
|
<time>2026-07-11T13:43:36.000Z</time>
|
|
</trkpt>
|
|
<trkpt lat="55.556478" lon="8.090271">
|
|
<ele>5.810495</ele>
|
|
<time>2026-07-11T13:43:37.000Z</time>
|
|
</trkpt>
|
|
<trkpt lat="55.556444" lon="8.090346">
|
|
<ele>5.833769</ele>
|
|
<time>2026-07-11T13:43:38.000Z</time>
|
|
</trkpt>
|
|
<trkpt lat="55.556407" lon="8.090415">
|
|
<ele>5.856793</ele>
|
|
<time>2026-07-11T13:43:39.000Z</time>
|
|
</trkpt>
|
|
<trkpt lat="55.556368" lon="8.090480">
|
|
<ele>5.879739</ele>
|
|
<time>2026-07-11T13:43:40.000Z</time>
|
|
</trkpt>
|
|
<trkpt lat="55.556324" lon="8.090541">
|
|
<ele>5.903677</ele>
|
|
<time>2026-07-11T13:43:41.000Z</time>
|
|
</trkpt>
|
|
<trkpt lat="55.556278" lon="8.090593">
|
|
<ele>5.927052</ele>
|
|
<time>2026-07-11T13:43:42.000Z</time>
|
|
</trkpt>
|
|
<trkpt lat="55.556231" lon="8.090633">
|
|
<ele>5.949384</ele>
|
|
<time>2026-07-11T13:43:43.000Z</time>
|
|
</trkpt>
|
|
<trkpt lat="55.556181" lon="8.090670">
|
|
<ele>5.972590</ele>
|
|
<time>2026-07-11T13:43:44.000Z</time>
|
|
</trkpt>
|
|
<trkpt lat="55.556131" lon="8.090706">
|
|
<ele>5.995703</ele>
|
|
<time>2026-07-11T13:43:45.000Z</time>
|
|
</trkpt>
|
|
<trkpt lat="55.556083" lon="8.090739">
|
|
<ele>6.017752</ele>
|
|
<time>2026-07-11T13:43:46.000Z</time>
|
|
</trkpt>
|
|
<trkpt lat="55.556032" lon="8.090773">
|
|
<ele>6.041087</ele>
|
|
<time>2026-07-11T13:43:47.000Z</time>
|
|
</trkpt>
|
|
<trkpt lat="55.555978" lon="8.090806">
|
|
<ele>6.065548</ele>
|
|
<time>2026-07-11T13:43:48.000Z</time>
|
|
</trkpt>
|
|
<trkpt lat="55.555925" lon="8.090836">
|
|
<ele>6.089373</ele>
|
|
<time>2026-07-11T13:43:49.000Z</time>
|
|
</trkpt>
|
|
<trkpt lat="55.555870" lon="8.090866">
|
|
<ele>6.114015</ele>
|
|
<time>2026-07-11T13:43:50.000Z</time>
|
|
</trkpt>
|
|
<trkpt lat="55.555818" lon="8.090894">
|
|
<ele>6.137287</ele>
|
|
<time>2026-07-11T13:43:51.000Z</time>
|
|
</trkpt>
|
|
<trkpt lat="55.555767" lon="8.090926">
|
|
<ele>6.160456</ele>
|
|
<time>2026-07-11T13:43:52.000Z</time>
|
|
</trkpt>
|
|
<trkpt lat="55.555717" lon="8.090962">
|
|
<ele>6.183569</ele>
|
|
<time>2026-07-11T13:43:53.000Z</time>
|
|
</trkpt>
|
|
<trkpt lat="55.555673" lon="8.090999">
|
|
<ele>6.204429</ele>
|
|
<time>2026-07-11T13:43:54.000Z</time>
|
|
</trkpt>
|
|
<trkpt lat="55.555636" lon="8.091034">
|
|
<ele>6.222395</ele>
|
|
<time>2026-07-11T13:43:55.000Z</time>
|
|
</trkpt>
|
|
<trkpt lat="55.555604" lon="8.091069">
|
|
<ele>6.238504</ele>
|
|
<time>2026-07-11T13:43:56.000Z</time>
|
|
</trkpt>
|
|
<trkpt lat="55.555570" lon="8.091100">
|
|
<ele>6.254882</ele>
|
|
<time>2026-07-11T13:43:57.000Z</time>
|
|
</trkpt>
|
|
<trkpt lat="55.555537" lon="8.091130">
|
|
<ele>6.270769</ele>
|
|
<time>2026-07-11T13:43:58.000Z</time>
|
|
</trkpt>
|
|
<trkpt lat="55.555504" lon="8.091159">
|
|
<ele>6.286546</ele>
|
|
<time>2026-07-11T13:43:59.000Z</time>
|
|
</trkpt>
|
|
<trkpt lat="55.555472" lon="8.091186">
|
|
<ele>6.301726</ele>
|
|
<time>2026-07-11T13:44:00.000Z</time>
|
|
</trkpt>
|
|
<trkpt lat="55.555442" lon="8.091212">
|
|
<ele>6.316030</ele>
|
|
<time>2026-07-11T13:44:01.000Z</time>
|
|
</trkpt>
|
|
<trkpt lat="55.555411" lon="8.091237">
|
|
<ele>6.330617</ele>
|
|
<time>2026-07-11T13:44:02.000Z</time>
|
|
</trkpt>
|
|
<trkpt lat="55.555382" lon="8.091261">
|
|
<ele>6.344326</ele>
|
|
<time>2026-07-11T13:44:03.000Z</time>
|
|
</trkpt>
|
|
<trkpt lat="55.555352" lon="8.091284">
|
|
<ele>6.358325</ele>
|
|
<time>2026-07-11T13:44:04.000Z</time>
|
|
</trkpt>
|
|
<trkpt lat="55.555318" lon="8.091304">
|
|
<ele>6.360105</ele>
|
|
<time>2026-07-11T13:44:05.000Z</time>
|
|
</trkpt>
|
|
<trkpt lat="55.555285" lon="8.091325">
|
|
<ele>6.338138</ele>
|
|
<time>2026-07-11T13:44:06.000Z</time>
|
|
</trkpt>
|
|
<trkpt lat="55.555248" lon="8.091343">
|
|
<ele>6.314102</ele>
|
|
<time>2026-07-11T13:44:07.000Z</time>
|
|
</trkpt>
|
|
<trkpt lat="55.555210" lon="8.091354">
|
|
<ele>6.289985</ele>
|
|
<time>2026-07-11T13:44:08.000Z</time>
|
|
</trkpt>
|
|
<trkpt lat="55.555166" lon="8.091360">
|
|
<ele>6.262344</ele>
|
|
<time>2026-07-11T13:44:09.000Z</time>
|
|
</trkpt>
|
|
<trkpt lat="55.555126" lon="8.091365">
|
|
<ele>6.237229</ele>
|
|
<time>2026-07-11T13:44:10.000Z</time>
|
|
</trkpt>
|
|
<trkpt lat="55.555089" lon="8.091371">
|
|
<ele>6.213957</ele>
|
|
<time>2026-07-11T13:44:11.000Z</time>
|
|
</trkpt>
|
|
<trkpt lat="55.555049" lon="8.091377">
|
|
<ele>6.188814</ele>
|
|
<time>2026-07-11T13:44:12.000Z</time>
|
|
</trkpt>
|
|
<trkpt lat="55.555009" lon="8.091387">
|
|
<ele>6.163511</ele>
|
|
<time>2026-07-11T13:44:13.000Z</time>
|
|
</trkpt>
|
|
<trkpt lat="55.554975" lon="8.091400">
|
|
<ele>6.141724</ele>
|
|
<time>2026-07-11T13:44:14.000Z</time>
|
|
</trkpt>
|
|
<trkpt lat="55.554941" lon="8.091420">
|
|
<ele>6.119281</ele>
|
|
<time>2026-07-11T13:44:15.000Z</time>
|
|
</trkpt>
|
|
<trkpt lat="55.554908" lon="8.091451">
|
|
<ele>6.095876</ele>
|
|
<time>2026-07-11T13:44:16.000Z</time>
|
|
</trkpt>
|
|
<trkpt lat="55.554870" lon="8.091495">
|
|
<ele>6.067425</ele>
|
|
<time>2026-07-11T13:44:17.000Z</time>
|
|
</trkpt>
|
|
<trkpt lat="55.554833" lon="8.091545">
|
|
<ele>6.038257</ele>
|
|
<time>2026-07-11T13:44:18.000Z</time>
|
|
</trkpt>
|
|
<trkpt lat="55.554794" lon="8.091613">
|
|
<ele>6.003949</ele>
|
|
<time>2026-07-11T13:44:19.000Z</time>
|
|
</trkpt>
|
|
<trkpt lat="55.554751" lon="8.091691">
|
|
<ele>5.965363</ele>
|
|
<time>2026-07-11T13:44:20.000Z</time>
|
|
</trkpt>
|
|
<trkpt lat="55.554711" lon="8.091769">
|
|
<ele>5.928064</ele>
|
|
<time>2026-07-11T13:44:21.000Z</time>
|
|
</trkpt>
|
|
<trkpt lat="55.554675" lon="8.091846">
|
|
<ele>5.892673</ele>
|
|
<time>2026-07-11T13:44:22.000Z</time>
|
|
</trkpt>
|
|
<trkpt lat="55.554638" lon="8.091925">
|
|
<ele>5.856337</ele>
|
|
<time>2026-07-11T13:44:23.000Z</time>
|
|
</trkpt>
|
|
<trkpt lat="55.554600" lon="8.092003">
|
|
<ele>5.819867</ele>
|
|
<time>2026-07-11T13:44:24.000Z</time>
|
|
</trkpt>
|
|
<trkpt lat="55.554562" lon="8.092081">
|
|
<ele>5.783398</ele>
|
|
<time>2026-07-11T13:44:25.000Z</time>
|
|
</trkpt>
|
|
<trkpt lat="55.554525" lon="8.092163">
|
|
<ele>5.746237</ele>
|
|
<time>2026-07-11T13:44:26.000Z</time>
|
|
</trkpt>
|
|
<trkpt lat="55.554487" lon="8.092255">
|
|
<ele>5.705879</ele>
|
|
<time>2026-07-11T13:44:27.000Z</time>
|
|
</trkpt>
|
|
<trkpt lat="55.554451" lon="8.092348">
|
|
<ele>5.665956</ele>
|
|
<time>2026-07-11T13:44:28.000Z</time>
|
|
</trkpt>
|
|
<trkpt lat="55.554415" lon="8.092440">
|
|
<ele>5.626324</ele>
|
|
<time>2026-07-11T13:44:29.000Z</time>
|
|
</trkpt>
|
|
<trkpt lat="55.554382" lon="8.092533">
|
|
<ele>5.587431</ele>
|
|
<time>2026-07-11T13:44:30.000Z</time>
|
|
</trkpt>
|
|
<trkpt lat="55.554351" lon="8.092628">
|
|
<ele>5.548576</ele>
|
|
<time>2026-07-11T13:44:31.000Z</time>
|
|
</trkpt>
|
|
<trkpt lat="55.554320" lon="8.092723">
|
|
<ele>5.509722</ele>
|
|
<time>2026-07-11T13:44:32.000Z</time>
|
|
</trkpt>
|
|
<trkpt lat="55.554290" lon="8.092817">
|
|
<ele>5.471485</ele>
|
|
<time>2026-07-11T13:44:33.000Z</time>
|
|
</trkpt>
|
|
<trkpt lat="55.554265" lon="8.092909">
|
|
<ele>5.435326</ele>
|
|
<time>2026-07-11T13:44:34.000Z</time>
|
|
</trkpt>
|
|
<trkpt lat="55.554241" lon="8.092997">
|
|
<ele>5.400716</ele>
|
|
<time>2026-07-11T13:44:35.000Z</time>
|
|
</trkpt>
|
|
<trkpt lat="55.554216" lon="8.093088">
|
|
<ele>5.364876</ele>
|
|
<time>2026-07-11T13:44:36.000Z</time>
|
|
</trkpt>
|
|
<trkpt lat="55.554189" lon="8.093180">
|
|
<ele>5.328157</ele>
|
|
<time>2026-07-11T13:44:37.000Z</time>
|
|
</trkpt>
|
|
<trkpt lat="55.554162" lon="8.093273">
|
|
<ele>5.291124</ele>
|
|
<time>2026-07-11T13:44:38.000Z</time>
|
|
</trkpt>
|
|
<trkpt lat="55.554135" lon="8.093368">
|
|
<ele>5.253458</ele>
|
|
<time>2026-07-11T13:44:39.000Z</time>
|
|
</trkpt>
|
|
<trkpt lat="55.554109" lon="8.093461">
|
|
<ele>5.238399</ele>
|
|
<time>2026-07-11T13:44:40.000Z</time>
|
|
</trkpt>
|
|
<trkpt lat="55.554082" lon="8.093558">
|
|
<ele>5.233451</ele>
|
|
<time>2026-07-11T13:44:41.000Z</time>
|
|
</trkpt>
|
|
<trkpt lat="55.554055" lon="8.093661">
|
|
<ele>5.228257</ele>
|
|
<time>2026-07-11T13:44:42.000Z</time>
|
|
</trkpt>
|
|
<trkpt lat="55.554029" lon="8.093759">
|
|
<ele>5.223303</ele>
|
|
<time>2026-07-11T13:44:43.000Z</time>
|
|
</trkpt>
|
|
<trkpt lat="55.554002" lon="8.093858">
|
|
<ele>5.218274</ele>
|
|
<time>2026-07-11T13:44:44.000Z</time>
|
|
</trkpt>
|
|
<trkpt lat="55.553975" lon="8.093962">
|
|
<ele>5.213037</ele>
|
|
<time>2026-07-11T13:44:45.000Z</time>
|
|
</trkpt>
|
|
<trkpt lat="55.553948" lon="8.094063">
|
|
<ele>5.207925</ele>
|
|
<time>2026-07-11T13:44:46.000Z</time>
|
|
</trkpt>
|
|
<trkpt lat="55.553922" lon="8.094159">
|
|
<ele>5.203054</ele>
|
|
<time>2026-07-11T13:44:47.000Z</time>
|
|
</trkpt>
|
|
<trkpt lat="55.553893" lon="8.094260">
|
|
<ele>5.197871</ele>
|
|
<time>2026-07-11T13:44:48.000Z</time>
|
|
</trkpt>
|
|
<trkpt lat="55.553863" lon="8.094364">
|
|
<ele>5.192529</ele>
|
|
<time>2026-07-11T13:44:49.000Z</time>
|
|
</trkpt>
|
|
<trkpt lat="55.553838" lon="8.094460">
|
|
<ele>5.187693</ele>
|
|
<time>2026-07-11T13:44:50.000Z</time>
|
|
</trkpt>
|
|
<trkpt lat="55.553812" lon="8.094557">
|
|
<ele>5.182781</ele>
|
|
<time>2026-07-11T13:44:51.000Z</time>
|
|
</trkpt>
|
|
<trkpt lat="55.553785" lon="8.094661">
|
|
<ele>5.177544</ele>
|
|
<time>2026-07-11T13:44:52.000Z</time>
|
|
</trkpt>
|
|
<trkpt lat="55.553760" lon="8.094757">
|
|
<ele>5.172708</ele>
|
|
<time>2026-07-11T13:44:53.000Z</time>
|
|
</trkpt>
|
|
<trkpt lat="55.553733" lon="8.094853">
|
|
<ele>5.167802</ele>
|
|
<time>2026-07-11T13:44:54.000Z</time>
|
|
</trkpt>
|
|
<trkpt lat="55.553705" lon="8.094949">
|
|
<ele>5.162859</ele>
|
|
<time>2026-07-11T13:44:55.000Z</time>
|
|
</trkpt>
|
|
<trkpt lat="55.553677" lon="8.095044">
|
|
<ele>5.157957</ele>
|
|
<time>2026-07-11T13:44:56.000Z</time>
|
|
</trkpt>
|
|
<trkpt lat="55.553652" lon="8.095136">
|
|
<ele>5.153286</ele>
|
|
<time>2026-07-11T13:44:57.000Z</time>
|
|
</trkpt>
|
|
<trkpt lat="55.553624" lon="8.095235">
|
|
<ele>5.148221</ele>
|
|
<time>2026-07-11T13:44:58.000Z</time>
|
|
</trkpt>
|
|
<trkpt lat="55.553591" lon="8.095341">
|
|
<ele>5.142684</ele>
|
|
<time>2026-07-11T13:44:59.000Z</time>
|
|
</trkpt>
|
|
<trkpt lat="55.553562" lon="8.095441">
|
|
<ele>5.137541</ele>
|
|
<time>2026-07-11T13:45:00.000Z</time>
|
|
</trkpt>
|
|
<trkpt lat="55.553534" lon="8.095539">
|
|
<ele>5.132517</ele>
|
|
<time>2026-07-11T13:45:01.000Z</time>
|
|
</trkpt>
|
|
<trkpt lat="55.553505" lon="8.095637">
|
|
<ele>5.127456</ele>
|
|
<time>2026-07-11T13:45:02.000Z</time>
|
|
</trkpt>
|
|
<trkpt lat="55.553476" lon="8.095742">
|
|
<ele>5.122109</ele>
|
|
<time>2026-07-11T13:45:03.000Z</time>
|
|
</trkpt>
|
|
<trkpt lat="55.553447" lon="8.095844">
|
|
<ele>5.116885</ele>
|
|
<time>2026-07-11T13:45:04.000Z</time>
|
|
</trkpt>
|
|
<trkpt lat="55.553421" lon="8.095944">
|
|
<ele>5.111848</ele>
|
|
<time>2026-07-11T13:45:05.000Z</time>
|
|
</trkpt>
|
|
<trkpt lat="55.553394" lon="8.096045">
|
|
<ele>5.106736</ele>
|
|
<time>2026-07-11T13:45:06.000Z</time>
|
|
</trkpt>
|
|
<trkpt lat="55.553369" lon="8.096147">
|
|
<ele>5.101649</ele>
|
|
<time>2026-07-11T13:45:07.000Z</time>
|
|
</trkpt>
|
|
<trkpt lat="55.553346" lon="8.096249">
|
|
<ele>5.096624</ele>
|
|
<time>2026-07-11T13:45:08.000Z</time>
|
|
</trkpt>
|
|
<trkpt lat="55.553325" lon="8.096353">
|
|
<ele>5.106651</ele>
|
|
<time>2026-07-11T13:45:09.000Z</time>
|
|
</trkpt>
|
|
<trkpt lat="55.553306" lon="8.096457">
|
|
<ele>5.118298</ele>
|
|
<time>2026-07-11T13:45:10.000Z</time>
|
|
</trkpt>
|
|
<trkpt lat="55.553287" lon="8.096562">
|
|
<ele>5.130047</ele>
|
|
<time>2026-07-11T13:45:11.000Z</time>
|
|
</trkpt>
|
|
<trkpt lat="55.553268" lon="8.096673">
|
|
<ele>5.142406</ele>
|
|
<time>2026-07-11T13:45:12.000Z</time>
|
|
</trkpt>
|
|
<trkpt lat="55.553250" lon="8.096784">
|
|
<ele>5.154712</ele>
|
|
<time>2026-07-11T13:45:13.000Z</time>
|
|
</trkpt>
|
|
<trkpt lat="55.553235" lon="8.096893">
|
|
<ele>5.166667</ele>
|
|
<time>2026-07-11T13:45:14.000Z</time>
|
|
</trkpt>
|
|
<trkpt lat="55.553220" lon="8.097002">
|
|
<ele>5.178622</ele>
|
|
<time>2026-07-11T13:45:15.000Z</time>
|
|
</trkpt>
|
|
<trkpt lat="55.553206" lon="8.097111">
|
|
<ele>5.190533</ele>
|
|
<time>2026-07-11T13:45:16.000Z</time>
|
|
</trkpt>
|
|
<trkpt lat="55.553195" lon="8.097221">
|
|
<ele>5.202438</ele>
|
|
<time>2026-07-11T13:45:17.000Z</time>
|
|
</trkpt>
|
|
<trkpt lat="55.553185" lon="8.097332">
|
|
<ele>5.214416</ele>
|
|
<time>2026-07-11T13:45:18.000Z</time>
|
|
</trkpt>
|
|
<trkpt lat="55.553177" lon="8.097443">
|
|
<ele>5.226341</ele>
|
|
<time>2026-07-11T13:45:19.000Z</time>
|
|
</trkpt>
|
|
<trkpt lat="55.553170" lon="8.097551">
|
|
<ele>5.237926</ele>
|
|
<time>2026-07-11T13:45:20.000Z</time>
|
|
</trkpt>
|
|
<trkpt lat="55.553162" lon="8.097661">
|
|
<ele>5.249745</ele>
|
|
<time>2026-07-11T13:45:21.000Z</time>
|
|
</trkpt>
|
|
<trkpt lat="55.553154" lon="8.097772">
|
|
<ele>5.261670</ele>
|
|
<time>2026-07-11T13:45:22.000Z</time>
|
|
</trkpt>
|
|
<trkpt lat="55.553147" lon="8.097884">
|
|
<ele>5.273679</ele>
|
|
<time>2026-07-11T13:45:23.000Z</time>
|
|
</trkpt>
|
|
<trkpt lat="55.553139" lon="8.097998">
|
|
<ele>5.285921</ele>
|
|
<time>2026-07-11T13:45:24.000Z</time>
|
|
</trkpt>
|
|
<trkpt lat="55.553133" lon="8.098113">
|
|
<ele>5.298229</ele>
|
|
<time>2026-07-11T13:45:25.000Z</time>
|
|
</trkpt>
|
|
<trkpt lat="55.553128" lon="8.098228">
|
|
<ele>5.310520</ele>
|
|
<time>2026-07-11T13:45:26.000Z</time>
|
|
</trkpt>
|
|
<trkpt lat="55.553120" lon="8.098341">
|
|
<ele>5.322657</ele>
|
|
<time>2026-07-11T13:45:27.000Z</time>
|
|
</trkpt>
|
|
<trkpt lat="55.553112" lon="8.098454">
|
|
<ele>5.334793</ele>
|
|
<time>2026-07-11T13:45:28.000Z</time>
|
|
</trkpt>
|
|
<trkpt lat="55.553105" lon="8.098564">
|
|
<ele>5.346590</ele>
|
|
<time>2026-07-11T13:45:29.000Z</time>
|
|
</trkpt>
|
|
<trkpt lat="55.553099" lon="8.098674">
|
|
<ele>5.358367</ele>
|
|
<time>2026-07-11T13:45:30.000Z</time>
|
|
</trkpt>
|
|
<trkpt lat="55.553093" lon="8.098785">
|
|
<ele>5.370250</ele>
|
|
<time>2026-07-11T13:45:31.000Z</time>
|
|
</trkpt>
|
|
<trkpt lat="55.553086" lon="8.098891">
|
|
<ele>5.381623</ele>
|
|
<time>2026-07-11T13:45:32.000Z</time>
|
|
</trkpt>
|
|
<trkpt lat="55.553080" lon="8.098995">
|
|
<ele>5.392764</ele>
|
|
<time>2026-07-11T13:45:33.000Z</time>
|
|
</trkpt>
|
|
<trkpt lat="55.553074" lon="8.099094">
|
|
<ele>5.403375</ele>
|
|
<time>2026-07-11T13:45:34.000Z</time>
|
|
</trkpt>
|
|
<trkpt lat="55.553067" lon="8.099183">
|
|
<ele>5.412951</ele>
|
|
<time>2026-07-11T13:45:35.000Z</time>
|
|
</trkpt>
|
|
<trkpt lat="55.553057" lon="8.099263">
|
|
<ele>5.421682</ele>
|
|
<time>2026-07-11T13:45:36.000Z</time>
|
|
</trkpt>
|
|
<trkpt lat="55.553046" lon="8.099335">
|
|
<ele>5.429630</ele>
|
|
<time>2026-07-11T13:45:37.000Z</time>
|
|
</trkpt>
|
|
<trkpt lat="55.553035" lon="8.099403">
|
|
<ele>5.430439</ele>
|
|
<time>2026-07-11T13:45:38.000Z</time>
|
|
</trkpt>
|
|
<trkpt lat="55.553023" lon="8.099472">
|
|
<ele>5.414511</ele>
|
|
<time>2026-07-11T13:45:39.000Z</time>
|
|
</trkpt>
|
|
<trkpt lat="55.553010" lon="8.099546">
|
|
<ele>5.397414</ele>
|
|
<time>2026-07-11T13:45:40.000Z</time>
|
|
</trkpt>
|
|
<trkpt lat="55.552996" lon="8.099625">
|
|
<ele>5.379148</ele>
|
|
<time>2026-07-11T13:45:41.000Z</time>
|
|
</trkpt>
|
|
<trkpt lat="55.552987" lon="8.099708">
|
|
<ele>5.360501</ele>
|
|
<time>2026-07-11T13:45:42.000Z</time>
|
|
</trkpt>
|
|
<trkpt lat="55.552981" lon="8.099796">
|
|
<ele>5.340944</ele>
|
|
<time>2026-07-11T13:45:43.000Z</time>
|
|
</trkpt>
|
|
<trkpt lat="55.552975" lon="8.099888">
|
|
<ele>5.320510</ele>
|
|
<time>2026-07-11T13:45:44.000Z</time>
|
|
</trkpt>
|
|
<trkpt lat="55.552969" lon="8.099982">
|
|
<ele>5.299638</ele>
|
|
<time>2026-07-11T13:45:45.000Z</time>
|
|
</trkpt>
|
|
<trkpt lat="55.552964" lon="8.100077">
|
|
<ele>5.278587</ele>
|
|
<time>2026-07-11T13:45:46.000Z</time>
|
|
</trkpt>
|
|
<trkpt lat="55.552956" lon="8.100175">
|
|
<ele>5.256740</ele>
|
|
<time>2026-07-11T13:45:47.000Z</time>
|
|
</trkpt>
|
|
<trkpt lat="55.552948" lon="8.100276">
|
|
<ele>5.234237</ele>
|
|
<time>2026-07-11T13:45:48.000Z</time>
|
|
</trkpt>
|
|
<trkpt lat="55.552939" lon="8.100382">
|
|
<ele>5.210587</ele>
|
|
<time>2026-07-11T13:45:49.000Z</time>
|
|
</trkpt>
|
|
<trkpt lat="55.552929" lon="8.100490">
|
|
<ele>5.186440</ele>
|
|
<time>2026-07-11T13:45:50.000Z</time>
|
|
</trkpt>
|
|
<trkpt lat="55.552918" lon="8.100597">
|
|
<ele>5.162445</ele>
|
|
<time>2026-07-11T13:45:51.000Z</time>
|
|
</trkpt>
|
|
<trkpt lat="55.552905" lon="8.100704">
|
|
<ele>5.138298</ele>
|
|
<time>2026-07-11T13:45:52.000Z</time>
|
|
</trkpt>
|
|
<trkpt lat="55.552892" lon="8.100810">
|
|
<ele>5.114366</ele>
|
|
<time>2026-07-11T13:45:53.000Z</time>
|
|
</trkpt>
|
|
<trkpt lat="55.552876" lon="8.100918">
|
|
<ele>5.089733</ele>
|
|
<time>2026-07-11T13:45:54.000Z</time>
|
|
</trkpt>
|
|
<trkpt lat="55.552861" lon="8.101024">
|
|
<ele>5.065624</ele>
|
|
<time>2026-07-11T13:45:55.000Z</time>
|
|
</trkpt>
|
|
<trkpt lat="55.552848" lon="8.101131">
|
|
<ele>5.041476</ele>
|
|
<time>2026-07-11T13:45:56.000Z</time>
|
|
</trkpt>
|
|
<trkpt lat="55.552833" lon="8.101239">
|
|
<ele>5.016939</ele>
|
|
<time>2026-07-11T13:45:57.000Z</time>
|
|
</trkpt>
|
|
<trkpt lat="55.552814" lon="8.101348">
|
|
<ele>4.991773</ele>
|
|
<time>2026-07-11T13:45:58.000Z</time>
|
|
</trkpt>
|
|
<trkpt lat="55.552793" lon="8.101457">
|
|
<ele>4.966366</ele>
|
|
<time>2026-07-11T13:45:59.000Z</time>
|
|
</trkpt>
|
|
<trkpt lat="55.552770" lon="8.101567">
|
|
<ele>4.940490</ele>
|
|
<time>2026-07-11T13:46:00.000Z</time>
|
|
</trkpt>
|
|
<trkpt lat="55.552748" lon="8.101678">
|
|
<ele>4.914538</ele>
|
|
<time>2026-07-11T13:46:01.000Z</time>
|
|
</trkpt>
|
|
<trkpt lat="55.552726" lon="8.101790">
|
|
<ele>4.888378</ele>
|
|
<time>2026-07-11T13:46:02.000Z</time>
|
|
</trkpt>
|
|
<trkpt lat="55.552705" lon="8.101901">
|
|
<ele>4.862553</ele>
|
|
<time>2026-07-11T13:46:03.000Z</time>
|
|
</trkpt>
|
|
<trkpt lat="55.552684" lon="8.102013">
|
|
<ele>4.836519</ele>
|
|
<time>2026-07-11T13:46:04.000Z</time>
|
|
</trkpt>
|
|
<trkpt lat="55.552665" lon="8.102126">
|
|
<ele>4.810508</ele>
|
|
<time>2026-07-11T13:46:05.000Z</time>
|
|
</trkpt>
|
|
<trkpt lat="55.552648" lon="8.102235">
|
|
<ele>4.785560</ele>
|
|
<time>2026-07-11T13:46:06.000Z</time>
|
|
</trkpt>
|
|
<trkpt lat="55.552631" lon="8.102341">
|
|
<ele>4.761250</ele>
|
|
<time>2026-07-11T13:46:07.000Z</time>
|
|
</trkpt>
|
|
<trkpt lat="55.552613" lon="8.102448">
|
|
<ele>4.736619</ele>
|
|
<time>2026-07-11T13:46:08.000Z</time>
|
|
</trkpt>
|
|
<trkpt lat="55.552596" lon="8.102557">
|
|
<ele>4.726658</ele>
|
|
<time>2026-07-11T13:46:09.000Z</time>
|
|
</trkpt>
|
|
<trkpt lat="55.552577" lon="8.102666">
|
|
<ele>4.718871</ele>
|
|
<time>2026-07-11T13:46:10.000Z</time>
|
|
</trkpt>
|
|
<trkpt lat="55.552558" lon="8.102774">
|
|
<ele>4.711150</ele>
|
|
<time>2026-07-11T13:46:11.000Z</time>
|
|
</trkpt>
|
|
<trkpt lat="55.552541" lon="8.102880">
|
|
<ele>4.703628</ele>
|
|
<time>2026-07-11T13:46:12.000Z</time>
|
|
</trkpt>
|
|
<trkpt lat="55.552525" lon="8.102990">
|
|
<ele>4.695875</ele>
|
|
<time>2026-07-11T13:46:13.000Z</time>
|
|
</trkpt>
|
|
<trkpt lat="55.552510" lon="8.103102">
|
|
<ele>4.688017</ele>
|
|
<time>2026-07-11T13:46:14.000Z</time>
|
|
</trkpt>
|
|
<trkpt lat="55.552497" lon="8.103213">
|
|
<ele>4.680279</ele>
|
|
<time>2026-07-11T13:46:15.000Z</time>
|
|
</trkpt>
|
|
<trkpt lat="55.552484" lon="8.103327">
|
|
<ele>4.672340</ele>
|
|
<time>2026-07-11T13:46:16.000Z</time>
|
|
</trkpt>
|
|
<trkpt lat="55.552468" lon="8.103442">
|
|
<ele>4.664255</ele>
|
|
<time>2026-07-11T13:46:17.000Z</time>
|
|
</trkpt>
|
|
<trkpt lat="55.552455" lon="8.103555">
|
|
<ele>4.656383</ele>
|
|
<time>2026-07-11T13:46:18.000Z</time>
|
|
</trkpt>
|
|
<trkpt lat="55.552443" lon="8.103667">
|
|
<ele>4.648601</ele>
|
|
<time>2026-07-11T13:46:19.000Z</time>
|
|
</trkpt>
|
|
<trkpt lat="55.552435" lon="8.103782">
|
|
<ele>4.640691</ele>
|
|
<time>2026-07-11T13:46:20.000Z</time>
|
|
</trkpt>
|
|
<trkpt lat="55.552428" lon="8.103898">
|
|
<ele>4.632727</ele>
|
|
<time>2026-07-11T13:46:21.000Z</time>
|
|
</trkpt>
|
|
<trkpt lat="55.552418" lon="8.104014">
|
|
<ele>4.624717</ele>
|
|
<time>2026-07-11T13:46:22.000Z</time>
|
|
</trkpt>
|
|
<trkpt lat="55.552411" lon="8.104129">
|
|
<ele>4.616820</ele>
|
|
<time>2026-07-11T13:46:23.000Z</time>
|
|
</trkpt>
|
|
<trkpt lat="55.552401" lon="8.104242">
|
|
<ele>4.609012</ele>
|
|
<time>2026-07-11T13:46:24.000Z</time>
|
|
</trkpt>
|
|
<trkpt lat="55.552391" lon="8.104356">
|
|
<ele>4.601137</ele>
|
|
<time>2026-07-11T13:46:25.000Z</time>
|
|
</trkpt>
|
|
<trkpt lat="55.552386" lon="8.104470">
|
|
<ele>4.593331</ele>
|
|
<time>2026-07-11T13:46:26.000Z</time>
|
|
</trkpt>
|
|
<trkpt lat="55.552378" lon="8.104584">
|
|
<ele>4.585489</ele>
|
|
<time>2026-07-11T13:46:27.000Z</time>
|
|
</trkpt>
|
|
<trkpt lat="55.552370" lon="8.104699">
|
|
<ele>4.577579</ele>
|
|
<time>2026-07-11T13:46:28.000Z</time>
|
|
</trkpt>
|
|
<trkpt lat="55.552363" lon="8.104812">
|
|
<ele>4.569818</ele>
|
|
<time>2026-07-11T13:46:29.000Z</time>
|
|
</trkpt>
|
|
<trkpt lat="55.552353" lon="8.104923">
|
|
<ele>4.562145</ele>
|
|
<time>2026-07-11T13:46:30.000Z</time>
|
|
</trkpt>
|
|
<trkpt lat="55.552346" lon="8.105034">
|
|
<ele>4.554520</ele>
|
|
<time>2026-07-11T13:46:31.000Z</time>
|
|
</trkpt>
|
|
<trkpt lat="55.552341" lon="8.105144">
|
|
<ele>4.546987</ele>
|
|
<time>2026-07-11T13:46:32.000Z</time>
|
|
</trkpt>
|
|
<trkpt lat="55.552338" lon="8.105253">
|
|
<ele>4.539537</ele>
|
|
<time>2026-07-11T13:46:33.000Z</time>
|
|
</trkpt>
|
|
<trkpt lat="55.552332" lon="8.105362">
|
|
<ele>4.532060</ele>
|
|
<time>2026-07-11T13:46:34.000Z</time>
|
|
</trkpt>
|
|
<trkpt lat="55.552328" lon="8.105474">
|
|
<ele>4.524399</ele>
|
|
<time>2026-07-11T13:46:35.000Z</time>
|
|
</trkpt>
|
|
<trkpt lat="55.552323" lon="8.105588">
|
|
<ele>4.516593</ele>
|
|
<time>2026-07-11T13:46:36.000Z</time>
|
|
</trkpt>
|
|
<trkpt lat="55.552319" lon="8.105701">
|
|
<ele>4.516274</ele>
|
|
<time>2026-07-11T13:46:37.000Z</time>
|
|
</trkpt>
|
|
<trkpt lat="55.552317" lon="8.105810">
|
|
<ele>4.516252</ele>
|
|
<time>2026-07-11T13:46:38.000Z</time>
|
|
</trkpt>
|
|
<trkpt lat="55.552313" lon="8.105918">
|
|
<ele>4.516231</ele>
|
|
<time>2026-07-11T13:46:39.000Z</time>
|
|
</trkpt>
|
|
<trkpt lat="55.552308" lon="8.106030">
|
|
<ele>4.516208</ele>
|
|
<time>2026-07-11T13:46:40.000Z</time>
|
|
</trkpt>
|
|
<trkpt lat="55.552303" lon="8.106144">
|
|
<ele>4.516185</ele>
|
|
<time>2026-07-11T13:46:41.000Z</time>
|
|
</trkpt>
|
|
<trkpt lat="55.552300" lon="8.106258">
|
|
<ele>4.516162</ele>
|
|
<time>2026-07-11T13:46:42.000Z</time>
|
|
</trkpt>
|
|
<trkpt lat="55.552294" lon="8.106374">
|
|
<ele>4.516139</ele>
|
|
<time>2026-07-11T13:46:43.000Z</time>
|
|
</trkpt>
|
|
<trkpt lat="55.552290" lon="8.106488">
|
|
<ele>4.516116</ele>
|
|
<time>2026-07-11T13:46:44.000Z</time>
|
|
</trkpt>
|
|
<trkpt lat="55.552286" lon="8.106600">
|
|
<ele>4.516093</ele>
|
|
<time>2026-07-11T13:46:45.000Z</time>
|
|
</trkpt>
|
|
<trkpt lat="55.552283" lon="8.106713">
|
|
<ele>4.516070</ele>
|
|
<time>2026-07-11T13:46:46.000Z</time>
|
|
</trkpt>
|
|
<trkpt lat="55.552279" lon="8.106827">
|
|
<ele>4.516047</ele>
|
|
<time>2026-07-11T13:46:47.000Z</time>
|
|
</trkpt>
|
|
<trkpt lat="55.552277" lon="8.106942">
|
|
<ele>4.516024</ele>
|
|
<time>2026-07-11T13:46:48.000Z</time>
|
|
</trkpt>
|
|
<trkpt lat="55.552277" lon="8.107056">
|
|
<ele>4.516001</ele>
|
|
<time>2026-07-11T13:46:49.000Z</time>
|
|
</trkpt>
|
|
<trkpt lat="55.552277" lon="8.107168">
|
|
<ele>4.515979</ele>
|
|
<time>2026-07-11T13:46:50.000Z</time>
|
|
</trkpt>
|
|
<trkpt lat="55.552277" lon="8.107280">
|
|
<ele>4.515956</ele>
|
|
<time>2026-07-11T13:46:51.000Z</time>
|
|
</trkpt>
|
|
<trkpt lat="55.552277" lon="8.107394">
|
|
<ele>4.515933</ele>
|
|
<time>2026-07-11T13:46:52.000Z</time>
|
|
</trkpt>
|
|
<trkpt lat="55.552278" lon="8.107507">
|
|
<ele>4.515911</ele>
|
|
<time>2026-07-11T13:46:53.000Z</time>
|
|
</trkpt>
|
|
<trkpt lat="55.552280" lon="8.107618">
|
|
<ele>4.515888</ele>
|
|
<time>2026-07-11T13:46:54.000Z</time>
|
|
</trkpt>
|
|
<trkpt lat="55.552279" lon="8.107731">
|
|
<ele>4.515866</ele>
|
|
<time>2026-07-11T13:46:55.000Z</time>
|
|
</trkpt>
|
|
<trkpt lat="55.552277" lon="8.107845">
|
|
<ele>4.515843</ele>
|
|
<time>2026-07-11T13:46:56.000Z</time>
|
|
</trkpt>
|
|
<trkpt lat="55.552273" lon="8.107960">
|
|
<ele>4.515819</ele>
|
|
<time>2026-07-11T13:46:57.000Z</time>
|
|
</trkpt>
|
|
<trkpt lat="55.552267" lon="8.108074">
|
|
<ele>4.515796</ele>
|
|
<time>2026-07-11T13:46:58.000Z</time>
|
|
</trkpt>
|
|
<trkpt lat="55.552265" lon="8.108190">
|
|
<ele>4.515773</ele>
|
|
<time>2026-07-11T13:46:59.000Z</time>
|
|
</trkpt>
|
|
<trkpt lat="55.552267" lon="8.108306">
|
|
<ele>4.515750</ele>
|
|
<time>2026-07-11T13:47:00.000Z</time>
|
|
</trkpt>
|
|
<trkpt lat="55.552269" lon="8.108418">
|
|
<ele>4.515727</ele>
|
|
<time>2026-07-11T13:47:01.000Z</time>
|
|
</trkpt>
|
|
<trkpt lat="55.552269" lon="8.108527">
|
|
<ele>4.515705</ele>
|
|
<time>2026-07-11T13:47:02.000Z</time>
|
|
</trkpt>
|
|
<trkpt lat="55.552267" lon="8.108634">
|
|
<ele>4.515684</ele>
|
|
<time>2026-07-11T13:47:03.000Z</time>
|
|
</trkpt>
|
|
<trkpt lat="55.552265" lon="8.108744">
|
|
<ele>4.515662</ele>
|
|
<time>2026-07-11T13:47:04.000Z</time>
|
|
</trkpt>
|
|
<trkpt lat="55.552265" lon="8.108853">
|
|
<ele>4.526627</ele>
|
|
<time>2026-07-11T13:47:05.000Z</time>
|
|
</trkpt>
|
|
<trkpt lat="55.552265" lon="8.108961">
|
|
<ele>4.540621</ele>
|
|
<time>2026-07-11T13:47:06.000Z</time>
|
|
</trkpt>
|
|
<trkpt lat="55.552267" lon="8.109070">
|
|
<ele>4.554752</ele>
|
|
<time>2026-07-11T13:47:07.000Z</time>
|
|
</trkpt>
|
|
<trkpt lat="55.552271" lon="8.109180">
|
|
<ele>4.569035</ele>
|
|
<time>2026-07-11T13:47:08.000Z</time>
|
|
</trkpt>
|
|
<trkpt lat="55.552275" lon="8.109291">
|
|
<ele>4.583446</ele>
|
|
<time>2026-07-11T13:47:09.000Z</time>
|
|
</trkpt>
|
|
<trkpt lat="55.552277" lon="8.109403">
|
|
<ele>4.597966</ele>
|
|
<time>2026-07-11T13:47:10.000Z</time>
|
|
</trkpt>
|
|
<trkpt lat="55.552277" lon="8.109514">
|
|
<ele>4.612349</ele>
|
|
<time>2026-07-11T13:47:11.000Z</time>
|
|
</trkpt>
|
|
<trkpt lat="55.552277" lon="8.109625">
|
|
<ele>4.626731</ele>
|
|
<time>2026-07-11T13:47:12.000Z</time>
|
|
</trkpt>
|
|
<trkpt lat="55.552275" lon="8.109736">
|
|
<ele>4.641121</ele>
|
|
<time>2026-07-11T13:47:13.000Z</time>
|
|
</trkpt>
|
|
<trkpt lat="55.552274" lon="8.109847">
|
|
<ele>4.655506</ele>
|
|
<time>2026-07-11T13:47:14.000Z</time>
|
|
</trkpt>
|
|
<trkpt lat="55.552277" lon="8.109962">
|
|
<ele>4.670423</ele>
|
|
<time>2026-07-11T13:47:15.000Z</time>
|
|
</trkpt>
|
|
<trkpt lat="55.552278" lon="8.110080">
|
|
<ele>4.685714</ele>
|
|
<time>2026-07-11T13:47:16.000Z</time>
|
|
</trkpt>
|
|
<trkpt lat="55.552280" lon="8.110194">
|
|
<ele>4.700493</ele>
|
|
<time>2026-07-11T13:47:17.000Z</time>
|
|
</trkpt>
|
|
<trkpt lat="55.552282" lon="8.110306">
|
|
<ele>4.715012</ele>
|
|
<time>2026-07-11T13:47:18.000Z</time>
|
|
</trkpt>
|
|
<trkpt lat="55.552284" lon="8.110418">
|
|
<ele>4.729532</ele>
|
|
<time>2026-07-11T13:47:19.000Z</time>
|
|
</trkpt>
|
|
<trkpt lat="55.552284" lon="8.110530">
|
|
<ele>4.744044</ele>
|
|
<time>2026-07-11T13:47:20.000Z</time>
|
|
</trkpt>
|
|
<trkpt lat="55.552286" lon="8.110643">
|
|
<ele>4.758693</ele>
|
|
<time>2026-07-11T13:47:21.000Z</time>
|
|
</trkpt>
|
|
<trkpt lat="55.552290" lon="8.110755">
|
|
<ele>4.773234</ele>
|
|
<time>2026-07-11T13:47:22.000Z</time>
|
|
</trkpt>
|
|
<trkpt lat="55.552292" lon="8.110868">
|
|
<ele>4.787883</ele>
|
|
<time>2026-07-11T13:47:23.000Z</time>
|
|
</trkpt>
|
|
<trkpt lat="55.552292" lon="8.110980">
|
|
<ele>4.802395</ele>
|
|
<time>2026-07-11T13:47:24.000Z</time>
|
|
</trkpt>
|
|
<trkpt lat="55.552294" lon="8.111092">
|
|
<ele>4.816915</ele>
|
|
<time>2026-07-11T13:47:25.000Z</time>
|
|
</trkpt>
|
|
<trkpt lat="55.552296" lon="8.111204">
|
|
<ele>4.831434</ele>
|
|
<time>2026-07-11T13:47:26.000Z</time>
|
|
</trkpt>
|
|
<trkpt lat="55.552297" lon="8.111316">
|
|
<ele>4.845948</ele>
|
|
<time>2026-07-11T13:47:27.000Z</time>
|
|
</trkpt>
|
|
<trkpt lat="55.552301" lon="8.111429">
|
|
<ele>4.860619</ele>
|
|
<time>2026-07-11T13:47:28.000Z</time>
|
|
</trkpt>
|
|
<trkpt lat="55.552303" lon="8.111542">
|
|
<ele>4.875268</ele>
|
|
<time>2026-07-11T13:47:29.000Z</time>
|
|
</trkpt>
|
|
<trkpt lat="55.552303" lon="8.111654">
|
|
<ele>4.889780</ele>
|
|
<time>2026-07-11T13:47:30.000Z</time>
|
|
</trkpt>
|
|
<trkpt lat="55.552305" lon="8.111764">
|
|
<ele>4.904040</ele>
|
|
<time>2026-07-11T13:47:31.000Z</time>
|
|
</trkpt>
|
|
<trkpt lat="55.552307" lon="8.111874">
|
|
<ele>4.918301</ele>
|
|
<time>2026-07-11T13:47:32.000Z</time>
|
|
</trkpt>
|
|
<trkpt lat="55.552309" lon="8.111984">
|
|
<ele>4.927201</ele>
|
|
<time>2026-07-11T13:47:33.000Z</time>
|
|
</trkpt>
|
|
<trkpt lat="55.552311" lon="8.112095">
|
|
<ele>4.925821</ele>
|
|
<time>2026-07-11T13:47:34.000Z</time>
|
|
</trkpt>
|
|
<trkpt lat="55.552311" lon="8.112205">
|
|
<ele>4.924454</ele>
|
|
<time>2026-07-11T13:47:35.000Z</time>
|
|
</trkpt>
|
|
<trkpt lat="55.552313" lon="8.112316">
|
|
<ele>4.923074</ele>
|
|
<time>2026-07-11T13:47:36.000Z</time>
|
|
</trkpt>
|
|
<trkpt lat="55.552316" lon="8.112427">
|
|
<ele>4.921693</ele>
|
|
<time>2026-07-11T13:47:37.000Z</time>
|
|
</trkpt>
|
|
<trkpt lat="55.552324" lon="8.112538">
|
|
<ele>4.920302</ele>
|
|
<time>2026-07-11T13:47:38.000Z</time>
|
|
</trkpt>
|
|
<trkpt lat="55.552332" lon="8.112647">
|
|
<ele>4.918936</ele>
|
|
<time>2026-07-11T13:47:39.000Z</time>
|
|
</trkpt>
|
|
<trkpt lat="55.552332" lon="8.112752">
|
|
<ele>4.917632</ele>
|
|
<time>2026-07-11T13:47:40.000Z</time>
|
|
</trkpt>
|
|
<trkpt lat="55.552332" lon="8.112855">
|
|
<ele>4.916352</ele>
|
|
<time>2026-07-11T13:47:41.000Z</time>
|
|
</trkpt>
|
|
<trkpt lat="55.552336" lon="8.112956">
|
|
<ele>4.915094</ele>
|
|
<time>2026-07-11T13:47:42.000Z</time>
|
|
</trkpt>
|
|
<trkpt lat="55.552339" lon="8.113060">
|
|
<ele>4.913800</ele>
|
|
<time>2026-07-11T13:47:43.000Z</time>
|
|
</trkpt>
|
|
<trkpt lat="55.552341" lon="8.113168">
|
|
<ele>4.912457</ele>
|
|
<time>2026-07-11T13:47:44.000Z</time>
|
|
</trkpt>
|
|
<trkpt lat="55.552341" lon="8.113275">
|
|
<ele>4.911127</ele>
|
|
<time>2026-07-11T13:47:45.000Z</time>
|
|
</trkpt>
|
|
<trkpt lat="55.552343" lon="8.113380">
|
|
<ele>4.909822</ele>
|
|
<time>2026-07-11T13:47:46.000Z</time>
|
|
</trkpt>
|
|
<trkpt lat="55.552347" lon="8.113481">
|
|
<ele>4.908563</ele>
|
|
<time>2026-07-11T13:47:47.000Z</time>
|
|
</trkpt>
|
|
<trkpt lat="55.552351" lon="8.113582">
|
|
<ele>4.907305</ele>
|
|
<time>2026-07-11T13:47:48.000Z</time>
|
|
</trkpt>
|
|
<trkpt lat="55.552355" lon="8.113684">
|
|
<ele>4.906035</ele>
|
|
<time>2026-07-11T13:47:49.000Z</time>
|
|
</trkpt>
|
|
<trkpt lat="55.552357" lon="8.113790">
|
|
<ele>4.904717</ele>
|
|
<time>2026-07-11T13:47:50.000Z</time>
|
|
</trkpt>
|
|
<trkpt lat="55.552357" lon="8.113900">
|
|
<ele>4.903350</ele>
|
|
<time>2026-07-11T13:47:51.000Z</time>
|
|
</trkpt>
|
|
<trkpt lat="55.552357" lon="8.114008">
|
|
<ele>4.902008</ele>
|
|
<time>2026-07-11T13:47:52.000Z</time>
|
|
</trkpt>
|
|
<trkpt lat="55.552358" lon="8.114115">
|
|
<ele>4.900678</ele>
|
|
<time>2026-07-11T13:47:53.000Z</time>
|
|
</trkpt>
|
|
<trkpt lat="55.552361" lon="8.114220">
|
|
<ele>4.899371</ele>
|
|
<time>2026-07-11T13:47:54.000Z</time>
|
|
</trkpt>
|
|
<trkpt lat="55.552362" lon="8.114329">
|
|
<ele>4.898017</ele>
|
|
<time>2026-07-11T13:47:55.000Z</time>
|
|
</trkpt>
|
|
<trkpt lat="55.552364" lon="8.114438">
|
|
<ele>4.896662</ele>
|
|
<time>2026-07-11T13:47:56.000Z</time>
|
|
</trkpt>
|
|
<trkpt lat="55.552366" lon="8.114545">
|
|
<ele>4.895331</ele>
|
|
<time>2026-07-11T13:47:57.000Z</time>
|
|
</trkpt>
|
|
<trkpt lat="55.552371" lon="8.114651">
|
|
<ele>4.894009</ele>
|
|
<time>2026-07-11T13:47:58.000Z</time>
|
|
</trkpt>
|
|
<trkpt lat="55.552379" lon="8.114760">
|
|
<ele>4.892644</ele>
|
|
<time>2026-07-11T13:47:59.000Z</time>
|
|
</trkpt>
|
|
<trkpt lat="55.552385" lon="8.114874">
|
|
<ele>4.891221</ele>
|
|
<time>2026-07-11T13:48:00.000Z</time>
|
|
</trkpt>
|
|
<trkpt lat="55.552391" lon="8.114984">
|
|
<ele>4.889848</ele>
|
|
<time>2026-07-11T13:48:01.000Z</time>
|
|
</trkpt>
|
|
<trkpt lat="55.552398" lon="8.115094">
|
|
<ele>4.888472</ele>
|
|
<time>2026-07-11T13:48:02.000Z</time>
|
|
</trkpt>
|
|
<trkpt lat="55.552406" lon="8.115206">
|
|
<ele>4.884343</ele>
|
|
<time>2026-07-11T13:48:03.000Z</time>
|
|
</trkpt>
|
|
<trkpt lat="55.552414" lon="8.115318">
|
|
<ele>4.879422</ele>
|
|
<time>2026-07-11T13:48:04.000Z</time>
|
|
</trkpt>
|
|
<trkpt lat="55.552419" lon="8.115430">
|
|
<ele>4.874525</ele>
|
|
<time>2026-07-11T13:48:05.000Z</time>
|
|
</trkpt>
|
|
<trkpt lat="55.552423" lon="8.115540">
|
|
<ele>4.869720</ele>
|
|
<time>2026-07-11T13:48:06.000Z</time>
|
|
</trkpt>
|
|
<trkpt lat="55.552429" lon="8.115650">
|
|
<ele>4.864902</ele>
|
|
<time>2026-07-11T13:48:07.000Z</time>
|
|
</trkpt>
|
|
<trkpt lat="55.552435" lon="8.115758">
|
|
<ele>4.860172</ele>
|
|
<time>2026-07-11T13:48:08.000Z</time>
|
|
</trkpt>
|
|
<trkpt lat="55.552438" lon="8.115865">
|
|
<ele>4.855502</ele>
|
|
<time>2026-07-11T13:48:09.000Z</time>
|
|
</trkpt>
|
|
<trkpt lat="55.552444" lon="8.115973">
|
|
<ele>4.850771</ele>
|
|
<time>2026-07-11T13:48:10.000Z</time>
|
|
</trkpt>
|
|
<trkpt lat="55.552450" lon="8.116085">
|
|
<ele>4.845867</ele>
|
|
<time>2026-07-11T13:48:11.000Z</time>
|
|
</trkpt>
|
|
<trkpt lat="55.552455" lon="8.116197">
|
|
<ele>4.840970</ele>
|
|
<time>2026-07-11T13:48:12.000Z</time>
|
|
</trkpt>
|
|
<trkpt lat="55.552461" lon="8.116306">
|
|
<ele>4.836196</ele>
|
|
<time>2026-07-11T13:48:13.000Z</time>
|
|
</trkpt>
|
|
<trkpt lat="55.552467" lon="8.116411">
|
|
<ele>4.831596</ele>
|
|
<time>2026-07-11T13:48:14.000Z</time>
|
|
</trkpt>
|
|
<trkpt lat="55.552473" lon="8.116516">
|
|
<ele>4.826995</ele>
|
|
<time>2026-07-11T13:48:15.000Z</time>
|
|
</trkpt>
|
|
<trkpt lat="55.552477" lon="8.116626">
|
|
<ele>4.822190</ele>
|
|
<time>2026-07-11T13:48:16.000Z</time>
|
|
</trkpt>
|
|
<trkpt lat="55.552482" lon="8.116740">
|
|
<ele>4.817206</ele>
|
|
<time>2026-07-11T13:48:17.000Z</time>
|
|
</trkpt>
|
|
<trkpt lat="55.552488" lon="8.116850">
|
|
<ele>4.812389</ele>
|
|
<time>2026-07-11T13:48:18.000Z</time>
|
|
</trkpt>
|
|
<trkpt lat="55.552492" lon="8.116959">
|
|
<ele>4.807627</ele>
|
|
<time>2026-07-11T13:48:19.000Z</time>
|
|
</trkpt>
|
|
<trkpt lat="55.552497" lon="8.117067">
|
|
<ele>4.802904</ele>
|
|
<time>2026-07-11T13:48:20.000Z</time>
|
|
</trkpt>
|
|
<trkpt lat="55.552503" lon="8.117176">
|
|
<ele>4.798130</ele>
|
|
<time>2026-07-11T13:48:21.000Z</time>
|
|
</trkpt>
|
|
<trkpt lat="55.552509" lon="8.117287">
|
|
<ele>4.793269</ele>
|
|
<time>2026-07-11T13:48:22.000Z</time>
|
|
</trkpt>
|
|
<trkpt lat="55.552515" lon="8.117399">
|
|
<ele>4.788365</ele>
|
|
<time>2026-07-11T13:48:23.000Z</time>
|
|
</trkpt>
|
|
<trkpt lat="55.552520" lon="8.117509">
|
|
<ele>4.783555</ele>
|
|
<time>2026-07-11T13:48:24.000Z</time>
|
|
</trkpt>
|
|
<trkpt lat="55.552526" lon="8.117618">
|
|
<ele>4.778781</ele>
|
|
<time>2026-07-11T13:48:25.000Z</time>
|
|
</trkpt>
|
|
<trkpt lat="55.552530" lon="8.117727">
|
|
<ele>4.774019</ele>
|
|
<time>2026-07-11T13:48:26.000Z</time>
|
|
</trkpt>
|
|
<trkpt lat="55.552534" lon="8.117835">
|
|
<ele>4.769301</ele>
|
|
<time>2026-07-11T13:48:27.000Z</time>
|
|
</trkpt>
|
|
<trkpt lat="55.552538" lon="8.117944">
|
|
<ele>4.764540</ele>
|
|
<time>2026-07-11T13:48:28.000Z</time>
|
|
</trkpt>
|
|
<trkpt lat="55.552542" lon="8.118051">
|
|
<ele>4.759865</ele>
|
|
<time>2026-07-11T13:48:29.000Z</time>
|
|
</trkpt>
|
|
<trkpt lat="55.552547" lon="8.118160">
|
|
<ele>4.755098</ele>
|
|
<time>2026-07-11T13:48:30.000Z</time>
|
|
</trkpt>
|
|
<trkpt lat="55.552555" lon="8.118268">
|
|
<ele>4.750350</ele>
|
|
<time>2026-07-11T13:48:31.000Z</time>
|
|
</trkpt>
|
|
<trkpt lat="55.552562" lon="8.118376">
|
|
<ele>4.755243</ele>
|
|
<time>2026-07-11T13:48:32.000Z</time>
|
|
</trkpt>
|
|
<trkpt lat="55.552568" lon="8.118486">
|
|
<ele>4.762218</ele>
|
|
<time>2026-07-11T13:48:33.000Z</time>
|
|
</trkpt>
|
|
<trkpt lat="55.552574" lon="8.118597">
|
|
<ele>4.769255</ele>
|
|
<time>2026-07-11T13:48:34.000Z</time>
|
|
</trkpt>
|
|
<trkpt lat="55.552580" lon="8.118707">
|
|
<ele>4.776230</ele>
|
|
<time>2026-07-11T13:48:35.000Z</time>
|
|
</trkpt>
|
|
<trkpt lat="55.552585" lon="8.118818">
|
|
<ele>4.783258</ele>
|
|
<time>2026-07-11T13:48:36.000Z</time>
|
|
</trkpt>
|
|
<trkpt lat="55.552591" lon="8.118930">
|
|
<ele>4.790359</ele>
|
|
<time>2026-07-11T13:48:37.000Z</time>
|
|
</trkpt>
|
|
<trkpt lat="55.552597" lon="8.119042">
|
|
<ele>4.797460</ele>
|
|
<time>2026-07-11T13:48:38.000Z</time>
|
|
</trkpt>
|
|
<trkpt lat="55.552603" lon="8.119153">
|
|
<ele>4.804498</ele>
|
|
<time>2026-07-11T13:48:39.000Z</time>
|
|
</trkpt>
|
|
<trkpt lat="55.552610" lon="8.119265">
|
|
<ele>4.811610</ele>
|
|
<time>2026-07-11T13:48:40.000Z</time>
|
|
</trkpt>
|
|
<trkpt lat="55.552619" lon="8.119377">
|
|
<ele>4.818750</ele>
|
|
<time>2026-07-11T13:48:41.000Z</time>
|
|
</trkpt>
|
|
<trkpt lat="55.552629" lon="8.119486">
|
|
<ele>4.825719</ele>
|
|
<time>2026-07-11T13:48:42.000Z</time>
|
|
</trkpt>
|
|
<trkpt lat="55.552640" lon="8.119592">
|
|
<ele>4.832521</ele>
|
|
<time>2026-07-11T13:48:43.000Z</time>
|
|
</trkpt>
|
|
<trkpt lat="55.552651" lon="8.119701">
|
|
<ele>4.839509</ele>
|
|
<time>2026-07-11T13:48:44.000Z</time>
|
|
</trkpt>
|
|
<trkpt lat="55.552663" lon="8.119813">
|
|
<ele>4.846704</ele>
|
|
<time>2026-07-11T13:48:45.000Z</time>
|
|
</trkpt>
|
|
<trkpt lat="55.552676" lon="8.119920">
|
|
<ele>4.853612</ele>
|
|
<time>2026-07-11T13:48:46.000Z</time>
|
|
</trkpt>
|
|
<trkpt lat="55.552691" lon="8.120026">
|
|
<ele>4.860508</ele>
|
|
<time>2026-07-11T13:48:47.000Z</time>
|
|
</trkpt>
|
|
<trkpt lat="55.552707" lon="8.120131">
|
|
<ele>4.867372</ele>
|
|
<time>2026-07-11T13:48:48.000Z</time>
|
|
</trkpt>
|
|
<trkpt lat="55.552722" lon="8.120236">
|
|
<ele>4.874207</ele>
|
|
<time>2026-07-11T13:48:49.000Z</time>
|
|
</trkpt>
|
|
<trkpt lat="55.552739" lon="8.120341">
|
|
<ele>4.881100</ele>
|
|
<time>2026-07-11T13:48:50.000Z</time>
|
|
</trkpt>
|
|
<trkpt lat="55.552758" lon="8.120445">
|
|
<ele>4.887998</ele>
|
|
<time>2026-07-11T13:48:51.000Z</time>
|
|
</trkpt>
|
|
<trkpt lat="55.552779" lon="8.120546">
|
|
<ele>4.894790</ele>
|
|
<time>2026-07-11T13:48:52.000Z</time>
|
|
</trkpt>
|
|
<trkpt lat="55.552804" lon="8.120649">
|
|
<ele>4.901864</ele>
|
|
<time>2026-07-11T13:48:53.000Z</time>
|
|
</trkpt>
|
|
<trkpt lat="55.552830" lon="8.120749">
|
|
<ele>4.908810</ele>
|
|
<time>2026-07-11T13:48:54.000Z</time>
|
|
</trkpt>
|
|
<trkpt lat="55.552855" lon="8.120849">
|
|
<ele>4.915711</ele>
|
|
<time>2026-07-11T13:48:55.000Z</time>
|
|
</trkpt>
|
|
<trkpt lat="55.552880" lon="8.120949">
|
|
<ele>4.922611</ele>
|
|
<time>2026-07-11T13:48:56.000Z</time>
|
|
</trkpt>
|
|
<trkpt lat="55.552908" lon="8.121049">
|
|
<ele>4.929654</ele>
|
|
<time>2026-07-11T13:48:57.000Z</time>
|
|
</trkpt>
|
|
<trkpt lat="55.552939" lon="8.121151">
|
|
<ele>4.936962</ele>
|
|
<time>2026-07-11T13:48:58.000Z</time>
|
|
</trkpt>
|
|
<trkpt lat="55.552969" lon="8.121253">
|
|
<ele>4.944218</ele>
|
|
<time>2026-07-11T13:48:59.000Z</time>
|
|
</trkpt>
|
|
<trkpt lat="55.553000" lon="8.121353">
|
|
<ele>4.951339</ele>
|
|
<time>2026-07-11T13:49:00.000Z</time>
|
|
</trkpt>
|
|
<trkpt lat="55.553032" lon="8.121451">
|
|
<ele>4.958014</ele>
|
|
<time>2026-07-11T13:49:01.000Z</time>
|
|
</trkpt>
|
|
<trkpt lat="55.553064" lon="8.121547">
|
|
<ele>4.964587</ele>
|
|
<time>2026-07-11T13:49:02.000Z</time>
|
|
</trkpt>
|
|
<trkpt lat="55.553098" lon="8.121642">
|
|
<ele>4.971219</ele>
|
|
<time>2026-07-11T13:49:03.000Z</time>
|
|
</trkpt>
|
|
<trkpt lat="55.553133" lon="8.121735">
|
|
<ele>4.977808</ele>
|
|
<time>2026-07-11T13:49:04.000Z</time>
|
|
</trkpt>
|
|
<trkpt lat="55.553164" lon="8.121827">
|
|
<ele>4.984125</ele>
|
|
<time>2026-07-11T13:49:05.000Z</time>
|
|
</trkpt>
|
|
<trkpt lat="55.553192" lon="8.121918">
|
|
<ele>4.990236</ele>
|
|
<time>2026-07-11T13:49:06.000Z</time>
|
|
</trkpt>
|
|
<trkpt lat="55.553219" lon="8.122006">
|
|
<ele>4.996142</ele>
|
|
<time>2026-07-11T13:49:07.000Z</time>
|
|
</trkpt>
|
|
<trkpt lat="55.553246" lon="8.122096">
|
|
<ele>5.002151</ele>
|
|
<time>2026-07-11T13:49:08.000Z</time>
|
|
</trkpt>
|
|
<trkpt lat="55.553271" lon="8.122187">
|
|
<ele>5.008119</ele>
|
|
<time>2026-07-11T13:49:09.000Z</time>
|
|
</trkpt>
|
|
<trkpt lat="55.553297" lon="8.122280">
|
|
<ele>5.014239</ele>
|
|
<time>2026-07-11T13:49:10.000Z</time>
|
|
</trkpt>
|
|
<trkpt lat="55.553329" lon="8.122376">
|
|
<ele>5.020812</ele>
|
|
<time>2026-07-11T13:49:11.000Z</time>
|
|
</trkpt>
|
|
<trkpt lat="55.553362" lon="8.122473">
|
|
<ele>5.027489</ele>
|
|
<time>2026-07-11T13:49:12.000Z</time>
|
|
</trkpt>
|
|
<trkpt lat="55.553394" lon="8.122569">
|
|
<ele>5.034062</ele>
|
|
<time>2026-07-11T13:49:13.000Z</time>
|
|
</trkpt>
|
|
<trkpt lat="55.553427" lon="8.122662">
|
|
<ele>5.040538</ele>
|
|
<time>2026-07-11T13:49:14.000Z</time>
|
|
</trkpt>
|
|
<trkpt lat="55.553459" lon="8.122753">
|
|
<ele>5.046859</ele>
|
|
<time>2026-07-11T13:49:15.000Z</time>
|
|
</trkpt>
|
|
<trkpt lat="55.553490" lon="8.122846">
|
|
<ele>5.053227</ele>
|
|
<time>2026-07-11T13:49:16.000Z</time>
|
|
</trkpt>
|
|
<trkpt lat="55.553517" lon="8.122939">
|
|
<ele>5.059393</ele>
|
|
<time>2026-07-11T13:49:17.000Z</time>
|
|
</trkpt>
|
|
<trkpt lat="55.553545" lon="8.123031">
|
|
<ele>5.065556</ele>
|
|
<time>2026-07-11T13:49:18.000Z</time>
|
|
</trkpt>
|
|
<trkpt lat="55.553574" lon="8.123123">
|
|
<ele>5.071769</ele>
|
|
<time>2026-07-11T13:49:19.000Z</time>
|
|
</trkpt>
|
|
<trkpt lat="55.553604" lon="8.123218">
|
|
<ele>5.078187</ele>
|
|
<time>2026-07-11T13:49:20.000Z</time>
|
|
</trkpt>
|
|
<trkpt lat="55.553637" lon="8.123315">
|
|
<ele>5.084864</ele>
|
|
<time>2026-07-11T13:49:21.000Z</time>
|
|
</trkpt>
|
|
<trkpt lat="55.553667" lon="8.123413">
|
|
<ele>5.091438</ele>
|
|
<time>2026-07-11T13:49:22.000Z</time>
|
|
</trkpt>
|
|
<trkpt lat="55.553698" lon="8.123509">
|
|
<ele>5.097958</ele>
|
|
<time>2026-07-11T13:49:23.000Z</time>
|
|
</trkpt>
|
|
<trkpt lat="55.553727" lon="8.123605">
|
|
<ele>5.104378</ele>
|
|
<time>2026-07-11T13:49:24.000Z</time>
|
|
</trkpt>
|
|
<trkpt lat="55.553755" lon="8.123698">
|
|
<ele>5.110593</ele>
|
|
<time>2026-07-11T13:49:25.000Z</time>
|
|
</trkpt>
|
|
<trkpt lat="55.553785" lon="8.123789">
|
|
<ele>5.116806</ele>
|
|
<time>2026-07-11T13:49:26.000Z</time>
|
|
</trkpt>
|
|
<trkpt lat="55.553816" lon="8.123879">
|
|
<ele>5.123022</ele>
|
|
<time>2026-07-11T13:49:27.000Z</time>
|
|
</trkpt>
|
|
<trkpt lat="55.553845" lon="8.123966">
|
|
<ele>5.128979</ele>
|
|
<time>2026-07-11T13:49:28.000Z</time>
|
|
</trkpt>
|
|
<trkpt lat="55.553871" lon="8.124053">
|
|
<ele>5.134783</ele>
|
|
<time>2026-07-11T13:49:29.000Z</time>
|
|
</trkpt>
|
|
<trkpt lat="55.553898" lon="8.124139">
|
|
<ele>5.149421</ele>
|
|
<time>2026-07-11T13:49:30.000Z</time>
|
|
</trkpt>
|
|
<trkpt lat="55.553923" lon="8.124224">
|
|
<ele>5.173128</ele>
|
|
<time>2026-07-11T13:49:31.000Z</time>
|
|
</trkpt>
|
|
<trkpt lat="55.553948" lon="8.124306">
|
|
<ele>5.196178</ele>
|
|
<time>2026-07-11T13:49:32.000Z</time>
|
|
</trkpt>
|
|
<trkpt lat="55.553974" lon="8.124383">
|
|
<ele>5.218368</ele>
|
|
<time>2026-07-11T13:49:33.000Z</time>
|
|
</trkpt>
|
|
<trkpt lat="55.554001" lon="8.124462">
|
|
<ele>5.241208</ele>
|
|
<time>2026-07-11T13:49:34.000Z</time>
|
|
</trkpt>
|
|
<trkpt lat="55.554026" lon="8.124538">
|
|
<ele>5.262963</ele>
|
|
<time>2026-07-11T13:49:35.000Z</time>
|
|
</trkpt>
|
|
<trkpt lat="55.554047" lon="8.124606">
|
|
<ele>5.282134</ele>
|
|
<time>2026-07-11T13:49:36.000Z</time>
|
|
</trkpt>
|
|
<trkpt lat="55.554066" lon="8.124667">
|
|
<ele>5.299365</ele>
|
|
<time>2026-07-11T13:49:37.000Z</time>
|
|
</trkpt>
|
|
<trkpt lat="55.554089" lon="8.124715">
|
|
<ele>5.314932</ele>
|
|
<time>2026-07-11T13:49:38.000Z</time>
|
|
</trkpt>
|
|
<trkpt lat="55.554114" lon="8.124754">
|
|
<ele>5.329517</ele>
|
|
<time>2026-07-11T13:49:39.000Z</time>
|
|
</trkpt>
|
|
<trkpt lat="55.554138" lon="8.124791">
|
|
<ele>5.343448</ele>
|
|
<time>2026-07-11T13:49:40.000Z</time>
|
|
</trkpt>
|
|
<trkpt lat="55.554165" lon="8.124833">
|
|
<ele>5.359181</ele>
|
|
<time>2026-07-11T13:49:41.000Z</time>
|
|
</trkpt>
|
|
<trkpt lat="55.554190" lon="8.124877">
|
|
<ele>5.374613</ele>
|
|
<time>2026-07-11T13:49:42.000Z</time>
|
|
</trkpt>
|
|
<trkpt lat="55.554211" lon="8.124922">
|
|
<ele>5.389049</ele>
|
|
<time>2026-07-11T13:49:43.000Z</time>
|
|
</trkpt>
|
|
<trkpt lat="55.554230" lon="8.124972">
|
|
<ele>5.403954</ele>
|
|
<time>2026-07-11T13:49:44.000Z</time>
|
|
</trkpt>
|
|
<trkpt lat="55.554248" lon="8.125022">
|
|
<ele>5.418619</ele>
|
|
<time>2026-07-11T13:49:45.000Z</time>
|
|
</trkpt>
|
|
<trkpt lat="55.554263" lon="8.125072">
|
|
<ele>5.432624</ele>
|
|
<time>2026-07-11T13:49:46.000Z</time>
|
|
</trkpt>
|
|
<trkpt lat="55.554278" lon="8.125126">
|
|
<ele>5.447510</ele>
|
|
<time>2026-07-11T13:49:47.000Z</time>
|
|
</trkpt>
|
|
<trkpt lat="55.554292" lon="8.125176">
|
|
<ele>5.461315</ele>
|
|
<time>2026-07-11T13:49:48.000Z</time>
|
|
</trkpt>
|
|
<trkpt lat="55.554305" lon="8.125222">
|
|
<ele>5.474039</ele>
|
|
<time>2026-07-11T13:49:49.000Z</time>
|
|
</trkpt>
|
|
<trkpt lat="55.554319" lon="8.125264">
|
|
<ele>5.486103</ele>
|
|
<time>2026-07-11T13:49:50.000Z</time>
|
|
</trkpt>
|
|
<trkpt lat="55.554332" lon="8.125301">
|
|
<ele>5.496881</ele>
|
|
<time>2026-07-11T13:49:51.000Z</time>
|
|
</trkpt>
|
|
<trkpt lat="55.554345" lon="8.125337">
|
|
<ele>5.507449</ele>
|
|
<time>2026-07-11T13:49:52.000Z</time>
|
|
</trkpt>
|
|
<trkpt lat="55.554357" lon="8.125372">
|
|
<ele>5.517577</ele>
|
|
<time>2026-07-11T13:49:53.000Z</time>
|
|
</trkpt>
|
|
<trkpt lat="55.554368" lon="8.125405">
|
|
<ele>5.527055</ele>
|
|
<time>2026-07-11T13:49:54.000Z</time>
|
|
</trkpt>
|
|
<trkpt lat="55.554378" lon="8.125429">
|
|
<ele>5.534431</ele>
|
|
<time>2026-07-11T13:49:55.000Z</time>
|
|
</trkpt>
|
|
<trkpt lat="55.554385" lon="8.125440">
|
|
<ele>5.538528</ele>
|
|
<time>2026-07-11T13:49:56.000Z</time>
|
|
</trkpt>
|
|
<trkpt lat="55.554467" lon="8.125584">
|
|
<ele>5.589089</ele>
|
|
<time>2026-07-11T14:22:08.000Z</time>
|
|
</trkpt>
|
|
<trkpt lat="55.554475" lon="8.125619">
|
|
<ele>5.598430</ele>
|
|
<time>2026-07-11T14:22:09.000Z</time>
|
|
</trkpt>
|
|
<trkpt lat="55.554479" lon="8.125662">
|
|
<ele>5.609213</ele>
|
|
<time>2026-07-11T14:22:10.000Z</time>
|
|
</trkpt>
|
|
<trkpt lat="55.554483" lon="8.125703">
|
|
<ele>5.619508</ele>
|
|
<time>2026-07-11T14:22:11.000Z</time>
|
|
</trkpt>
|
|
<trkpt lat="55.554489" lon="8.125746">
|
|
<ele>5.630467</ele>
|
|
<time>2026-07-11T14:22:12.000Z</time>
|
|
</trkpt>
|
|
<trkpt lat="55.554500" lon="8.125793">
|
|
<ele>5.643053</ele>
|
|
<time>2026-07-11T14:22:13.000Z</time>
|
|
</trkpt>
|
|
<trkpt lat="55.554513" lon="8.125842">
|
|
<ele>5.656446</ele>
|
|
<time>2026-07-11T14:22:14.000Z</time>
|
|
</trkpt>
|
|
<trkpt lat="55.554524" lon="8.125894">
|
|
<ele>5.670183</ele>
|
|
<time>2026-07-11T14:22:15.000Z</time>
|
|
</trkpt>
|
|
<trkpt lat="55.554536" lon="8.125948">
|
|
<ele>5.684539</ele>
|
|
<time>2026-07-11T14:22:16.000Z</time>
|
|
</trkpt>
|
|
<trkpt lat="55.554549" lon="8.126002">
|
|
<ele>5.699061</ele>
|
|
<time>2026-07-11T14:22:17.000Z</time>
|
|
</trkpt>
|
|
<trkpt lat="55.554564" lon="8.126073">
|
|
<ele>5.717815</ele>
|
|
<time>2026-07-11T14:22:18.000Z</time>
|
|
</trkpt>
|
|
<trkpt lat="55.554577" lon="8.126130">
|
|
<ele>5.733023</ele>
|
|
<time>2026-07-11T14:22:19.000Z</time>
|
|
</trkpt>
|
|
<trkpt lat="55.554589" lon="8.126186">
|
|
<ele>5.747840</ele>
|
|
<time>2026-07-11T14:22:20.000Z</time>
|
|
</trkpt>
|
|
<trkpt lat="55.554601" lon="8.126245">
|
|
<ele>5.763355</ele>
|
|
<time>2026-07-11T14:22:21.000Z</time>
|
|
</trkpt>
|
|
<trkpt lat="55.554612" lon="8.126299">
|
|
<ele>5.777557</ele>
|
|
<time>2026-07-11T14:22:22.000Z</time>
|
|
</trkpt>
|
|
<trkpt lat="55.554625" lon="8.126356">
|
|
<ele>5.792764</ele>
|
|
<time>2026-07-11T14:22:23.000Z</time>
|
|
</trkpt>
|
|
<trkpt lat="55.554640" lon="8.126415">
|
|
<ele>5.808770</ele>
|
|
<time>2026-07-11T14:22:24.000Z</time>
|
|
</trkpt>
|
|
<trkpt lat="55.554657" lon="8.126474">
|
|
<ele>5.825155</ele>
|
|
<time>2026-07-11T14:22:25.000Z</time>
|
|
</trkpt>
|
|
<trkpt lat="55.554673" lon="8.126536">
|
|
<ele>5.842017</ele>
|
|
<time>2026-07-11T14:22:26.000Z</time>
|
|
</trkpt>
|
|
<trkpt lat="55.554687" lon="8.126599">
|
|
<ele>5.858766</ele>
|
|
<time>2026-07-11T14:22:27.000Z</time>
|
|
</trkpt>
|
|
<trkpt lat="55.554705" lon="8.126666">
|
|
<ele>5.877120</ele>
|
|
<time>2026-07-11T14:22:28.000Z</time>
|
|
</trkpt>
|
|
<trkpt lat="55.554719" lon="8.126733">
|
|
<ele>5.894793</ele>
|
|
<time>2026-07-11T14:22:29.000Z</time>
|
|
</trkpt>
|
|
<trkpt lat="55.554732" lon="8.126798">
|
|
<ele>5.911853</ele>
|
|
<time>2026-07-11T14:22:30.000Z</time>
|
|
</trkpt>
|
|
<trkpt lat="55.554747" lon="8.126859">
|
|
<ele>5.927131</ele>
|
|
<time>2026-07-11T14:22:31.000Z</time>
|
|
</trkpt>
|
|
<trkpt lat="55.554763" lon="8.126921">
|
|
<ele>5.938521</ele>
|
|
<time>2026-07-11T14:22:32.000Z</time>
|
|
</trkpt>
|
|
<trkpt lat="55.554778" lon="8.126981">
|
|
<ele>5.949485</ele>
|
|
<time>2026-07-11T14:22:33.000Z</time>
|
|
</trkpt>
|
|
<trkpt lat="55.554792" lon="8.127041">
|
|
<ele>5.960333</ele>
|
|
<time>2026-07-11T14:22:34.000Z</time>
|
|
</trkpt>
|
|
<trkpt lat="55.554803" lon="8.127104">
|
|
<ele>5.971353</ele>
|
|
<time>2026-07-11T14:22:35.000Z</time>
|
|
</trkpt>
|
|
<trkpt lat="55.554816" lon="8.127170">
|
|
<ele>5.983034</ele>
|
|
<time>2026-07-11T14:22:36.000Z</time>
|
|
</trkpt>
|
|
<trkpt lat="55.554831" lon="8.127236">
|
|
<ele>5.994922</ele>
|
|
<time>2026-07-11T14:22:37.000Z</time>
|
|
</trkpt>
|
|
<trkpt lat="55.554845" lon="8.127306">
|
|
<ele>6.007332</ele>
|
|
<time>2026-07-11T14:22:38.000Z</time>
|
|
</trkpt>
|
|
<trkpt lat="55.554858" lon="8.127377">
|
|
<ele>6.019805</ele>
|
|
<time>2026-07-11T14:22:39.000Z</time>
|
|
</trkpt>
|
|
<trkpt lat="55.554872" lon="8.127450">
|
|
<ele>6.032688</ele>
|
|
<time>2026-07-11T14:22:40.000Z</time>
|
|
</trkpt>
|
|
<trkpt lat="55.554885" lon="8.127525">
|
|
<ele>6.045799</ele>
|
|
<time>2026-07-11T14:22:41.000Z</time>
|
|
</trkpt>
|
|
<trkpt lat="55.554900" lon="8.127602">
|
|
<ele>6.059411</ele>
|
|
<time>2026-07-11T14:22:42.000Z</time>
|
|
</trkpt>
|
|
<trkpt lat="55.554914" lon="8.127677">
|
|
<ele>6.072611</ele>
|
|
<time>2026-07-11T14:22:43.000Z</time>
|
|
</trkpt>
|
|
<trkpt lat="55.554925" lon="8.127750">
|
|
<ele>6.085237</ele>
|
|
<time>2026-07-11T14:22:44.000Z</time>
|
|
</trkpt>
|
|
<trkpt lat="55.554935" lon="8.127825">
|
|
<ele>6.098116</ele>
|
|
<time>2026-07-11T14:22:45.000Z</time>
|
|
</trkpt>
|
|
<trkpt lat="55.554942" lon="8.127901">
|
|
<ele>6.110986</ele>
|
|
<time>2026-07-11T14:22:46.000Z</time>
|
|
</trkpt>
|
|
<trkpt lat="55.554950" lon="8.127976">
|
|
<ele>6.123742</ele>
|
|
<time>2026-07-11T14:22:47.000Z</time>
|
|
</trkpt>
|
|
<trkpt lat="55.554958" lon="8.128051">
|
|
<ele>6.136499</ele>
|
|
<time>2026-07-11T14:22:48.000Z</time>
|
|
</trkpt>
|
|
<trkpt lat="55.554967" lon="8.128124">
|
|
<ele>6.148986</ele>
|
|
<time>2026-07-11T14:22:49.000Z</time>
|
|
</trkpt>
|
|
<trkpt lat="55.554978" lon="8.128195">
|
|
<ele>6.161290</ele>
|
|
<time>2026-07-11T14:22:50.000Z</time>
|
|
</trkpt>
|
|
<trkpt lat="55.554990" lon="8.128269">
|
|
<ele>6.174156</ele>
|
|
<time>2026-07-11T14:22:51.000Z</time>
|
|
</trkpt>
|
|
<trkpt lat="55.555001" lon="8.128345">
|
|
<ele>6.187268</ele>
|
|
<time>2026-07-11T14:22:52.000Z</time>
|
|
</trkpt>
|
|
<trkpt lat="55.555013" lon="8.128423">
|
|
<ele>6.200779</ele>
|
|
<time>2026-07-11T14:22:53.000Z</time>
|
|
</trkpt>
|
|
<trkpt lat="55.555023" lon="8.128503">
|
|
<ele>6.214472</ele>
|
|
<time>2026-07-11T14:22:54.000Z</time>
|
|
</trkpt>
|
|
<trkpt lat="55.555032" lon="8.128581">
|
|
<ele>6.227777</ele>
|
|
<time>2026-07-11T14:22:55.000Z</time>
|
|
</trkpt>
|
|
<trkpt lat="55.555041" lon="8.128659">
|
|
<ele>6.241083</ele>
|
|
<time>2026-07-11T14:22:56.000Z</time>
|
|
</trkpt>
|
|
<trkpt lat="55.555051" lon="8.128743">
|
|
<ele>6.255430</ele>
|
|
<time>2026-07-11T14:22:57.000Z</time>
|
|
</trkpt>
|
|
<trkpt lat="55.555061" lon="8.128825">
|
|
<ele>6.269450</ele>
|
|
<time>2026-07-11T14:22:58.000Z</time>
|
|
</trkpt>
|
|
<trkpt lat="55.555070" lon="8.128908">
|
|
<ele>6.283575</ele>
|
|
<time>2026-07-11T14:22:59.000Z</time>
|
|
</trkpt>
|
|
<trkpt lat="55.555081" lon="8.128991">
|
|
<ele>6.297823</ele>
|
|
<time>2026-07-11T14:23:00.000Z</time>
|
|
</trkpt>
|
|
<trkpt lat="55.555091" lon="8.129077">
|
|
<ele>6.312497</ele>
|
|
<time>2026-07-11T14:23:01.000Z</time>
|
|
</trkpt>
|
|
<trkpt lat="55.555101" lon="8.129164">
|
|
<ele>6.327335</ele>
|
|
<time>2026-07-11T14:23:02.000Z</time>
|
|
</trkpt>
|
|
<trkpt lat="55.555112" lon="8.129252">
|
|
<ele>6.342398</ele>
|
|
<time>2026-07-11T14:23:03.000Z</time>
|
|
</trkpt>
|
|
<trkpt lat="55.555123" lon="8.129343">
|
|
<ele>6.357951</ele>
|
|
<time>2026-07-11T14:23:04.000Z</time>
|
|
</trkpt>
|
|
<trkpt lat="55.555133" lon="8.129433">
|
|
<ele>6.373281</ele>
|
|
<time>2026-07-11T14:23:05.000Z</time>
|
|
</trkpt>
|
|
<trkpt lat="55.555142" lon="8.129522">
|
|
<ele>6.388392</ele>
|
|
<time>2026-07-11T14:23:06.000Z</time>
|
|
</trkpt>
|
|
<trkpt lat="55.555153" lon="8.129601">
|
|
<ele>6.401990</ele>
|
|
<time>2026-07-11T14:23:07.000Z</time>
|
|
</trkpt>
|
|
<trkpt lat="55.555163" lon="8.129676">
|
|
<ele>6.414869</ele>
|
|
<time>2026-07-11T14:23:08.000Z</time>
|
|
</trkpt>
|
|
<trkpt lat="55.555175" lon="8.129783">
|
|
<ele>6.433101</ele>
|
|
<time>2026-07-11T14:23:09.000Z</time>
|
|
</trkpt>
|
|
<trkpt lat="55.555183" lon="8.129868">
|
|
<ele>6.447503</ele>
|
|
<time>2026-07-11T14:23:10.000Z</time>
|
|
</trkpt>
|
|
<trkpt lat="55.555192" lon="8.129960">
|
|
<ele>6.451455</ele>
|
|
<time>2026-07-11T14:23:11.000Z</time>
|
|
</trkpt>
|
|
<trkpt lat="55.555204" lon="8.130048">
|
|
<ele>6.441187</ele>
|
|
<time>2026-07-11T14:23:12.000Z</time>
|
|
</trkpt>
|
|
<trkpt lat="55.555215" lon="8.130134">
|
|
<ele>6.431185</ele>
|
|
<time>2026-07-11T14:23:13.000Z</time>
|
|
</trkpt>
|
|
<trkpt lat="55.555226" lon="8.130224">
|
|
<ele>6.420740</ele>
|
|
<time>2026-07-11T14:23:14.000Z</time>
|
|
</trkpt>
|
|
<trkpt lat="55.555236" lon="8.130319">
|
|
<ele>6.409779</ele>
|
|
<time>2026-07-11T14:23:15.000Z</time>
|
|
</trkpt>
|
|
<trkpt lat="55.555244" lon="8.130410">
|
|
<ele>6.399333</ele>
|
|
<time>2026-07-11T14:23:16.000Z</time>
|
|
</trkpt>
|
|
<trkpt lat="55.555253" lon="8.130501">
|
|
<ele>6.388854</ele>
|
|
<time>2026-07-11T14:23:17.000Z</time>
|
|
</trkpt>
|
|
<trkpt lat="55.555263" lon="8.130591">
|
|
<ele>6.378450</ele>
|
|
<time>2026-07-11T14:23:18.000Z</time>
|
|
</trkpt>
|
|
<trkpt lat="55.555272" lon="8.130679">
|
|
<ele>6.368306</ele>
|
|
<time>2026-07-11T14:23:19.000Z</time>
|
|
</trkpt>
|
|
<trkpt lat="55.555282" lon="8.130772">
|
|
<ele>6.357568</ele>
|
|
<time>2026-07-11T14:23:20.000Z</time>
|
|
</trkpt>
|
|
<trkpt lat="55.555291" lon="8.130864">
|
|
<ele>6.346977</ele>
|
|
<time>2026-07-11T14:23:21.000Z</time>
|
|
</trkpt>
|
|
<trkpt lat="55.555301" lon="8.130953">
|
|
<ele>6.336684</ele>
|
|
<time>2026-07-11T14:23:22.000Z</time>
|
|
</trkpt>
|
|
<trkpt lat="55.555310" lon="8.131042">
|
|
<ele>6.326428</ele>
|
|
<time>2026-07-11T14:23:23.000Z</time>
|
|
</trkpt>
|
|
<trkpt lat="55.555322" lon="8.131128">
|
|
<ele>6.316381</ele>
|
|
<time>2026-07-11T14:23:24.000Z</time>
|
|
</trkpt>
|
|
<trkpt lat="55.555333" lon="8.131217">
|
|
<ele>6.306047</ele>
|
|
<time>2026-07-11T14:23:25.000Z</time>
|
|
</trkpt>
|
|
<trkpt lat="55.555343" lon="8.131308">
|
|
<ele>6.295531</ele>
|
|
<time>2026-07-11T14:23:26.000Z</time>
|
|
</trkpt>
|
|
<trkpt lat="55.555351" lon="8.131399">
|
|
<ele>6.285085</ele>
|
|
<time>2026-07-11T14:23:27.000Z</time>
|
|
</trkpt>
|
|
<trkpt lat="55.555360" lon="8.131488">
|
|
<ele>6.274830</ele>
|
|
<time>2026-07-11T14:23:28.000Z</time>
|
|
</trkpt>
|
|
<trkpt lat="55.555371" lon="8.131573">
|
|
<ele>6.264939</ele>
|
|
<time>2026-07-11T14:23:29.000Z</time>
|
|
</trkpt>
|
|
<trkpt lat="55.555379" lon="8.131661">
|
|
<ele>6.254828</ele>
|
|
<time>2026-07-11T14:23:30.000Z</time>
|
|
</trkpt>
|
|
<trkpt lat="55.555387" lon="8.131753">
|
|
<ele>6.244270</ele>
|
|
<time>2026-07-11T14:23:31.000Z</time>
|
|
</trkpt>
|
|
<trkpt lat="55.555396" lon="8.131844">
|
|
<ele>6.233791</ele>
|
|
<time>2026-07-11T14:23:32.000Z</time>
|
|
</trkpt>
|
|
<trkpt lat="55.555406" lon="8.131935">
|
|
<ele>6.223276</ele>
|
|
<time>2026-07-11T14:23:33.000Z</time>
|
|
</trkpt>
|
|
<trkpt lat="55.555417" lon="8.132027">
|
|
<ele>6.212609</ele>
|
|
<time>2026-07-11T14:23:34.000Z</time>
|
|
</trkpt>
|
|
<trkpt lat="55.555428" lon="8.132119">
|
|
<ele>6.201943</ele>
|
|
<time>2026-07-11T14:23:35.000Z</time>
|
|
</trkpt>
|
|
<trkpt lat="55.555440" lon="8.132208">
|
|
<ele>6.191564</ele>
|
|
<time>2026-07-11T14:23:36.000Z</time>
|
|
</trkpt>
|
|
<trkpt lat="55.555451" lon="8.132296">
|
|
<ele>6.181342</ele>
|
|
<time>2026-07-11T14:23:37.000Z</time>
|
|
</trkpt>
|
|
<trkpt lat="55.555460" lon="8.132383">
|
|
<ele>6.171309</ele>
|
|
<time>2026-07-11T14:23:38.000Z</time>
|
|
</trkpt>
|
|
<trkpt lat="55.555469" lon="8.132470">
|
|
<ele>6.161277</ele>
|
|
<time>2026-07-11T14:23:39.000Z</time>
|
|
</trkpt>
|
|
<trkpt lat="55.555478" lon="8.132560">
|
|
<ele>6.150910</ele>
|
|
<time>2026-07-11T14:23:40.000Z</time>
|
|
</trkpt>
|
|
<trkpt lat="55.555488" lon="8.132651">
|
|
<ele>6.140394</ele>
|
|
<time>2026-07-11T14:23:41.000Z</time>
|
|
</trkpt>
|
|
<trkpt lat="55.555497" lon="8.132741">
|
|
<ele>6.130027</ele>
|
|
<time>2026-07-11T14:23:42.000Z</time>
|
|
</trkpt>
|
|
<trkpt lat="55.555507" lon="8.132833">
|
|
<ele>6.119400</ele>
|
|
<time>2026-07-11T14:23:43.000Z</time>
|
|
</trkpt>
|
|
<trkpt lat="55.555517" lon="8.132926">
|
|
<ele>6.108662</ele>
|
|
<time>2026-07-11T14:23:44.000Z</time>
|
|
</trkpt>
|
|
<trkpt lat="55.555530" lon="8.133022">
|
|
<ele>6.097465</ele>
|
|
<time>2026-07-11T14:23:45.000Z</time>
|
|
</trkpt>
|
|
<trkpt lat="55.555543" lon="8.133117">
|
|
<ele>6.110346</ele>
|
|
<time>2026-07-11T14:23:46.000Z</time>
|
|
</trkpt>
|
|
<trkpt lat="55.555556" lon="8.133210">
|
|
<ele>6.128193</ele>
|
|
<time>2026-07-11T14:23:47.000Z</time>
|
|
</trkpt>
|
|
<trkpt lat="55.555570" lon="8.133302">
|
|
<ele>6.145941</ele>
|
|
<time>2026-07-11T14:23:48.000Z</time>
|
|
</trkpt>
|
|
<trkpt lat="55.555583" lon="8.133392">
|
|
<ele>6.163245</ele>
|
|
<time>2026-07-11T14:23:49.000Z</time>
|
|
</trkpt>
|
|
<trkpt lat="55.555598" lon="8.133484">
|
|
<ele>6.181082</ele>
|
|
<time>2026-07-11T14:23:50.000Z</time>
|
|
</trkpt>
|
|
<trkpt lat="55.555612" lon="8.133581">
|
|
<ele>6.199732</ele>
|
|
<time>2026-07-11T14:23:51.000Z</time>
|
|
</trkpt>
|
|
<trkpt lat="55.555623" lon="8.133676">
|
|
<ele>6.217796</ele>
|
|
<time>2026-07-11T14:23:52.000Z</time>
|
|
</trkpt>
|
|
<trkpt lat="55.555631" lon="8.133772">
|
|
<ele>6.235874</ele>
|
|
<time>2026-07-11T14:23:53.000Z</time>
|
|
</trkpt>
|
|
<trkpt lat="55.555635" lon="8.133872">
|
|
<ele>6.254549</ele>
|
|
<time>2026-07-11T14:23:54.000Z</time>
|
|
</trkpt>
|
|
<trkpt lat="55.555639" lon="8.133973">
|
|
<ele>6.273411</ele>
|
|
<time>2026-07-11T14:23:55.000Z</time>
|
|
</trkpt>
|
|
<trkpt lat="55.555643" lon="8.134074">
|
|
<ele>6.292272</ele>
|
|
<time>2026-07-11T14:23:56.000Z</time>
|
|
</trkpt>
|
|
<trkpt lat="55.555650" lon="8.134173">
|
|
<ele>6.310859</ele>
|
|
<time>2026-07-11T14:23:57.000Z</time>
|
|
</trkpt>
|
|
<trkpt lat="55.555661" lon="8.134268">
|
|
<ele>6.328924</ele>
|
|
<time>2026-07-11T14:23:58.000Z</time>
|
|
</trkpt>
|
|
<trkpt lat="55.555674" lon="8.134363">
|
|
<ele>6.347132</ele>
|
|
<time>2026-07-11T14:23:59.000Z</time>
|
|
</trkpt>
|
|
<trkpt lat="55.555686" lon="8.134454">
|
|
<ele>6.364539</ele>
|
|
<time>2026-07-11T14:24:00.000Z</time>
|
|
</trkpt>
|
|
<trkpt lat="55.555697" lon="8.134540">
|
|
<ele>6.380965</ele>
|
|
<time>2026-07-11T14:24:01.000Z</time>
|
|
</trkpt>
|
|
<trkpt lat="55.555713" lon="8.134613">
|
|
<ele>6.395549</ele>
|
|
<time>2026-07-11T14:24:02.000Z</time>
|
|
</trkpt>
|
|
<trkpt lat="55.555726" lon="8.134671">
|
|
<ele>6.407172</ele>
|
|
<time>2026-07-11T14:24:03.000Z</time>
|
|
</trkpt>
|
|
<trkpt lat="55.555738" lon="8.134716">
|
|
<ele>6.416440</ele>
|
|
<time>2026-07-11T14:24:04.000Z</time>
|
|
</trkpt>
|
|
<trkpt lat="55.555746" lon="8.134750">
|
|
<ele>6.423300</ele>
|
|
<time>2026-07-11T14:24:05.000Z</time>
|
|
</trkpt>
|
|
<trkpt lat="55.555748" lon="8.134778">
|
|
<ele>6.428558</ele>
|
|
<time>2026-07-11T14:24:06.000Z</time>
|
|
</trkpt>
|
|
<trkpt lat="55.555746" lon="8.134808">
|
|
<ele>6.434185</ele>
|
|
<time>2026-07-11T14:24:07.000Z</time>
|
|
</trkpt>
|
|
<trkpt lat="55.555746" lon="8.134845">
|
|
<ele>6.441078</ele>
|
|
<time>2026-07-11T14:24:08.000Z</time>
|
|
</trkpt>
|
|
<trkpt lat="55.555750" lon="8.134887">
|
|
<ele>6.449012</ele>
|
|
<time>2026-07-11T14:24:09.000Z</time>
|
|
</trkpt>
|
|
<trkpt lat="55.555753" lon="8.134932">
|
|
<ele>6.457453</ele>
|
|
<time>2026-07-11T14:24:10.000Z</time>
|
|
</trkpt>
|
|
<trkpt lat="55.555759" lon="8.134981">
|
|
<ele>6.466793</ele>
|
|
<time>2026-07-11T14:24:11.000Z</time>
|
|
</trkpt>
|
|
<trkpt lat="55.555763" lon="8.135036">
|
|
<ele>6.477124</ele>
|
|
<time>2026-07-11T14:24:12.000Z</time>
|
|
</trkpt>
|
|
<trkpt lat="55.555763" lon="8.135095">
|
|
<ele>6.488115</ele>
|
|
<time>2026-07-11T14:24:13.000Z</time>
|
|
</trkpt>
|
|
<trkpt lat="55.555763" lon="8.135162">
|
|
<ele>6.500596</ele>
|
|
<time>2026-07-11T14:24:14.000Z</time>
|
|
</trkpt>
|
|
<trkpt lat="55.555763" lon="8.135234">
|
|
<ele>6.514009</ele>
|
|
<time>2026-07-11T14:24:15.000Z</time>
|
|
</trkpt>
|
|
<trkpt lat="55.555762" lon="8.135306">
|
|
<ele>6.527426</ele>
|
|
<time>2026-07-11T14:24:16.000Z</time>
|
|
</trkpt>
|
|
<trkpt lat="55.555759" lon="8.135378">
|
|
<ele>6.540876</ele>
|
|
<time>2026-07-11T14:24:17.000Z</time>
|
|
</trkpt>
|
|
<trkpt lat="55.555758" lon="8.135452">
|
|
<ele>6.554665</ele>
|
|
<time>2026-07-11T14:24:18.000Z</time>
|
|
</trkpt>
|
|
<trkpt lat="55.555756" lon="8.135521">
|
|
<ele>6.567536</ele>
|
|
<time>2026-07-11T14:24:19.000Z</time>
|
|
</trkpt>
|
|
<trkpt lat="55.555752" lon="8.135590">
|
|
<ele>6.580458</ele>
|
|
<time>2026-07-11T14:24:20.000Z</time>
|
|
</trkpt>
|
|
<trkpt lat="55.555745" lon="8.135658">
|
|
<ele>6.593334</ele>
|
|
<time>2026-07-11T14:24:21.000Z</time>
|
|
</trkpt>
|
|
<trkpt lat="55.555740" lon="8.135730">
|
|
<ele>6.606847</ele>
|
|
<time>2026-07-11T14:24:22.000Z</time>
|
|
</trkpt>
|
|
<trkpt lat="55.555742" lon="8.135801">
|
|
<ele>6.620090</ele>
|
|
<time>2026-07-11T14:24:23.000Z</time>
|
|
</trkpt>
|
|
<trkpt lat="55.555747" lon="8.135873">
|
|
<ele>6.633604</ele>
|
|
<time>2026-07-11T14:24:24.000Z</time>
|
|
</trkpt>
|
|
<trkpt lat="55.555755" lon="8.135946">
|
|
<ele>6.647456</ele>
|
|
<time>2026-07-11T14:24:25.000Z</time>
|
|
</trkpt>
|
|
<trkpt lat="55.555761" lon="8.136018">
|
|
<ele>6.661014</ele>
|
|
<time>2026-07-11T14:24:26.000Z</time>
|
|
</trkpt>
|
|
<trkpt lat="55.555763" lon="8.136092">
|
|
<ele>6.674815</ele>
|
|
<time>2026-07-11T14:24:27.000Z</time>
|
|
</trkpt>
|
|
<trkpt lat="55.555763" lon="8.136166">
|
|
<ele>6.687226</ele>
|
|
<time>2026-07-11T14:24:28.000Z</time>
|
|
</trkpt>
|
|
<trkpt lat="55.555765" lon="8.136240">
|
|
<ele>6.675311</ele>
|
|
<time>2026-07-11T14:24:29.000Z</time>
|
|
</trkpt>
|
|
<trkpt lat="55.555767" lon="8.136314">
|
|
<ele>6.663397</ele>
|
|
<time>2026-07-11T14:24:30.000Z</time>
|
|
</trkpt>
|
|
<trkpt lat="55.555769" lon="8.136387">
|
|
<ele>6.651642</ele>
|
|
<time>2026-07-11T14:24:31.000Z</time>
|
|
</trkpt>
|
|
<trkpt lat="55.555772" lon="8.136459">
|
|
<ele>6.640031</ele>
|
|
<time>2026-07-11T14:24:32.000Z</time>
|
|
</trkpt>
|
|
<trkpt lat="55.555776" lon="8.136532">
|
|
<ele>6.628236</ele>
|
|
<time>2026-07-11T14:24:33.000Z</time>
|
|
</trkpt>
|
|
<trkpt lat="55.555779" lon="8.136605">
|
|
<ele>6.616465</ele>
|
|
<time>2026-07-11T14:24:34.000Z</time>
|
|
</trkpt>
|
|
<trkpt lat="55.555782" lon="8.136677">
|
|
<ele>6.604854</ele>
|
|
<time>2026-07-11T14:24:35.000Z</time>
|
|
</trkpt>
|
|
<trkpt lat="55.555788" lon="8.136750">
|
|
<ele>6.592990</ele>
|
|
<time>2026-07-11T14:24:36.000Z</time>
|
|
</trkpt>
|
|
<trkpt lat="55.555795" lon="8.136822">
|
|
<ele>6.581240</ele>
|
|
<time>2026-07-11T14:24:37.000Z</time>
|
|
</trkpt>
|
|
<trkpt lat="55.555805" lon="8.136896">
|
|
<ele>6.569004</ele>
|
|
<time>2026-07-11T14:24:38.000Z</time>
|
|
</trkpt>
|
|
<trkpt lat="55.555812" lon="8.136972">
|
|
<ele>6.556620</ele>
|
|
<time>2026-07-11T14:24:39.000Z</time>
|
|
</trkpt>
|
|
<trkpt lat="55.555822" lon="8.137046">
|
|
<ele>6.544384</ele>
|
|
<time>2026-07-11T14:24:40.000Z</time>
|
|
</trkpt>
|
|
<trkpt lat="55.555833" lon="8.137120">
|
|
<ele>6.532079</ele>
|
|
<time>2026-07-11T14:24:41.000Z</time>
|
|
</trkpt>
|
|
<trkpt lat="55.555846" lon="8.137193">
|
|
<ele>6.519770</ele>
|
|
<time>2026-07-11T14:24:42.000Z</time>
|
|
</trkpt>
|
|
<trkpt lat="55.555860" lon="8.137267">
|
|
<ele>6.507221</ele>
|
|
<time>2026-07-11T14:24:43.000Z</time>
|
|
</trkpt>
|
|
<trkpt lat="55.555873" lon="8.137342">
|
|
<ele>6.494605</ele>
|
|
<time>2026-07-11T14:24:44.000Z</time>
|
|
</trkpt>
|
|
<trkpt lat="55.555886" lon="8.137415">
|
|
<ele>6.482296</ele>
|
|
<time>2026-07-11T14:24:45.000Z</time>
|
|
</trkpt>
|
|
<trkpt lat="55.555899" lon="8.137484">
|
|
<ele>6.470600</ele>
|
|
<time>2026-07-11T14:24:46.000Z</time>
|
|
</trkpt>
|
|
<trkpt lat="55.555915" lon="8.137546">
|
|
<ele>6.459640</ele>
|
|
<time>2026-07-11T14:24:47.000Z</time>
|
|
</trkpt>
|
|
<trkpt lat="55.555931" lon="8.137603">
|
|
<ele>6.449406</ele>
|
|
<time>2026-07-11T14:24:48.000Z</time>
|
|
</trkpt>
|
|
<trkpt lat="55.555949" lon="8.137657">
|
|
<ele>6.439325</ele>
|
|
<time>2026-07-11T14:24:49.000Z</time>
|
|
</trkpt>
|
|
<trkpt lat="55.555964" lon="8.137715">
|
|
<ele>6.429068</ele>
|
|
<time>2026-07-11T14:24:50.000Z</time>
|
|
</trkpt>
|
|
<trkpt lat="55.555980" lon="8.137774">
|
|
<ele>6.418545</ele>
|
|
<time>2026-07-11T14:24:51.000Z</time>
|
|
</trkpt>
|
|
<trkpt lat="55.555994" lon="8.137831">
|
|
<ele>6.408551</ele>
|
|
<time>2026-07-11T14:24:52.000Z</time>
|
|
</trkpt>
|
|
<trkpt lat="55.556011" lon="8.137893">
|
|
<ele>6.397470</ele>
|
|
<time>2026-07-11T14:24:53.000Z</time>
|
|
</trkpt>
|
|
<trkpt lat="55.556031" lon="8.137963">
|
|
<ele>6.384857</ele>
|
|
<time>2026-07-11T14:24:54.000Z</time>
|
|
</trkpt>
|
|
<trkpt lat="55.556048" lon="8.138033">
|
|
<ele>6.372605</ele>
|
|
<time>2026-07-11T14:24:55.000Z</time>
|
|
</trkpt>
|
|
<trkpt lat="55.556064" lon="8.138108">
|
|
<ele>6.359714</ele>
|
|
<time>2026-07-11T14:24:56.000Z</time>
|
|
</trkpt>
|
|
<trkpt lat="55.556080" lon="8.138182">
|
|
<ele>6.346973</ele>
|
|
<time>2026-07-11T14:24:57.000Z</time>
|
|
</trkpt>
|
|
<trkpt lat="55.556101" lon="8.138256">
|
|
<ele>6.333657</ele>
|
|
<time>2026-07-11T14:24:58.000Z</time>
|
|
</trkpt>
|
|
<trkpt lat="55.556122" lon="8.138330">
|
|
<ele>6.320342</ele>
|
|
<time>2026-07-11T14:24:59.000Z</time>
|
|
</trkpt>
|
|
<trkpt lat="55.556141" lon="8.138405">
|
|
<ele>6.307126</ele>
|
|
<time>2026-07-11T14:25:00.000Z</time>
|
|
</trkpt>
|
|
<trkpt lat="55.556161" lon="8.138483">
|
|
<ele>6.293352</ele>
|
|
<time>2026-07-11T14:25:01.000Z</time>
|
|
</trkpt>
|
|
<trkpt lat="55.556178" lon="8.138559">
|
|
<ele>6.280208</ele>
|
|
<time>2026-07-11T14:25:02.000Z</time>
|
|
</trkpt>
|
|
<trkpt lat="55.556192" lon="8.138636">
|
|
<ele>6.267201</ele>
|
|
<time>2026-07-11T14:25:03.000Z</time>
|
|
</trkpt>
|
|
<trkpt lat="55.556196" lon="8.138715">
|
|
<ele>6.254445</ele>
|
|
<time>2026-07-11T14:25:04.000Z</time>
|
|
</trkpt>
|
|
<trkpt lat="55.556191" lon="8.138797">
|
|
<ele>6.241180</ele>
|
|
<time>2026-07-11T14:25:05.000Z</time>
|
|
</trkpt>
|
|
<trkpt lat="55.556182" lon="8.138875">
|
|
<ele>6.228378</ele>
|
|
<time>2026-07-11T14:25:06.000Z</time>
|
|
</trkpt>
|
|
<trkpt lat="55.556174" lon="8.138949">
|
|
<ele>6.216261</ele>
|
|
<time>2026-07-11T14:25:07.000Z</time>
|
|
</trkpt>
|
|
<trkpt lat="55.556171" lon="8.139019">
|
|
<ele>6.204971</ele>
|
|
<time>2026-07-11T14:25:08.000Z</time>
|
|
</trkpt>
|
|
<trkpt lat="55.556173" lon="8.139081">
|
|
<ele>6.194983</ele>
|
|
<time>2026-07-11T14:25:09.000Z</time>
|
|
</trkpt>
|
|
<trkpt lat="55.556184" lon="8.139130">
|
|
<ele>6.186505</ele>
|
|
<time>2026-07-11T14:25:10.000Z</time>
|
|
</trkpt>
|
|
<trkpt lat="55.556204" lon="8.139164">
|
|
<ele>6.178616</ele>
|
|
<time>2026-07-11T14:25:11.000Z</time>
|
|
</trkpt>
|
|
<trkpt lat="55.556230" lon="8.139190">
|
|
<ele>6.176227</ele>
|
|
<time>2026-07-11T14:25:12.000Z</time>
|
|
</trkpt>
|
|
<trkpt lat="55.556260" lon="8.139218">
|
|
<ele>6.175926</ele>
|
|
<time>2026-07-11T14:25:13.000Z</time>
|
|
</trkpt>
|
|
<trkpt lat="55.556291" lon="8.139253">
|
|
<ele>6.175600</ele>
|
|
<time>2026-07-11T14:25:14.000Z</time>
|
|
</trkpt>
|
|
<trkpt lat="55.556320" lon="8.139297">
|
|
<ele>6.175261</ele>
|
|
<time>2026-07-11T14:25:15.000Z</time>
|
|
</trkpt>
|
|
<trkpt lat="55.556345" lon="8.139356">
|
|
<ele>6.174891</ele>
|
|
<time>2026-07-11T14:25:16.000Z</time>
|
|
</trkpt>
|
|
<trkpt lat="55.556365" lon="8.139422">
|
|
<ele>6.174515</ele>
|
|
<time>2026-07-11T14:25:17.000Z</time>
|
|
</trkpt>
|
|
<trkpt lat="55.556379" lon="8.139492">
|
|
<ele>6.174142</ele>
|
|
<time>2026-07-11T14:25:18.000Z</time>
|
|
</trkpt>
|
|
<trkpt lat="55.556390" lon="8.139560">
|
|
<ele>6.173787</ele>
|
|
<time>2026-07-11T14:25:19.000Z</time>
|
|
</trkpt>
|
|
<trkpt lat="55.556402" lon="8.139629">
|
|
<ele>6.173425</ele>
|
|
<time>2026-07-11T14:25:20.000Z</time>
|
|
</trkpt>
|
|
<trkpt lat="55.556411" lon="8.139701">
|
|
<ele>6.173055</ele>
|
|
<time>2026-07-11T14:25:21.000Z</time>
|
|
</trkpt>
|
|
<trkpt lat="55.556419" lon="8.139775">
|
|
<ele>6.172677</ele>
|
|
<time>2026-07-11T14:25:22.000Z</time>
|
|
</trkpt>
|
|
<trkpt lat="55.556426" lon="8.139856">
|
|
<ele>6.172265</ele>
|
|
<time>2026-07-11T14:25:23.000Z</time>
|
|
</trkpt>
|
|
<trkpt lat="55.556434" lon="8.139940">
|
|
<ele>6.171838</ele>
|
|
<time>2026-07-11T14:25:24.000Z</time>
|
|
</trkpt>
|
|
<trkpt lat="55.556443" lon="8.140024">
|
|
<ele>6.171409</ele>
|
|
<time>2026-07-11T14:25:25.000Z</time>
|
|
</trkpt>
|
|
<trkpt lat="55.556453" lon="8.140111">
|
|
<ele>6.170963</ele>
|
|
<time>2026-07-11T14:25:26.000Z</time>
|
|
</trkpt>
|
|
<trkpt lat="55.556461" lon="8.140196">
|
|
<ele>6.170530</ele>
|
|
<time>2026-07-11T14:25:27.000Z</time>
|
|
</trkpt>
|
|
<trkpt lat="55.556467" lon="8.140281">
|
|
<ele>6.170100</ele>
|
|
<time>2026-07-11T14:25:28.000Z</time>
|
|
</trkpt>
|
|
<trkpt lat="55.556472" lon="8.140369">
|
|
<ele>6.169656</ele>
|
|
<time>2026-07-11T14:25:29.000Z</time>
|
|
</trkpt>
|
|
<trkpt lat="55.556482" lon="8.140457">
|
|
<ele>6.169206</ele>
|
|
<time>2026-07-11T14:25:30.000Z</time>
|
|
</trkpt>
|
|
<trkpt lat="55.556493" lon="8.140546">
|
|
<ele>6.168749</ele>
|
|
<time>2026-07-11T14:25:31.000Z</time>
|
|
</trkpt>
|
|
<trkpt lat="55.556503" lon="8.140637">
|
|
<ele>6.168283</ele>
|
|
<time>2026-07-11T14:25:32.000Z</time>
|
|
</trkpt>
|
|
<trkpt lat="55.556510" lon="8.140730">
|
|
<ele>6.167812</ele>
|
|
<time>2026-07-11T14:25:33.000Z</time>
|
|
</trkpt>
|
|
<trkpt lat="55.556518" lon="8.140822">
|
|
<ele>6.167345</ele>
|
|
<time>2026-07-11T14:25:34.000Z</time>
|
|
</trkpt>
|
|
<trkpt lat="55.556526" lon="8.140916">
|
|
<ele>6.166868</ele>
|
|
<time>2026-07-11T14:25:35.000Z</time>
|
|
</trkpt>
|
|
<trkpt lat="55.556535" lon="8.141007">
|
|
<ele>6.166404</ele>
|
|
<time>2026-07-11T14:25:36.000Z</time>
|
|
</trkpt>
|
|
<trkpt lat="55.556545" lon="8.141098">
|
|
<ele>6.165939</ele>
|
|
<time>2026-07-11T14:25:37.000Z</time>
|
|
</trkpt>
|
|
<trkpt lat="55.556554" lon="8.141191">
|
|
<ele>6.165465</ele>
|
|
<time>2026-07-11T14:25:38.000Z</time>
|
|
</trkpt>
|
|
<trkpt lat="55.556563" lon="8.141285">
|
|
<ele>6.164987</ele>
|
|
<time>2026-07-11T14:25:39.000Z</time>
|
|
</trkpt>
|
|
<trkpt lat="55.556570" lon="8.141381">
|
|
<ele>6.164501</ele>
|
|
<time>2026-07-11T14:25:40.000Z</time>
|
|
</trkpt>
|
|
<trkpt lat="55.556577" lon="8.141474">
|
|
<ele>6.164030</ele>
|
|
<time>2026-07-11T14:25:41.000Z</time>
|
|
</trkpt>
|
|
<trkpt lat="55.556587" lon="8.141568">
|
|
<ele>6.163550</ele>
|
|
<time>2026-07-11T14:25:42.000Z</time>
|
|
</trkpt>
|
|
<trkpt lat="55.556594" lon="8.141656">
|
|
<ele>6.163104</ele>
|
|
<time>2026-07-11T14:25:43.000Z</time>
|
|
</trkpt>
|
|
<trkpt lat="55.556602" lon="8.141741">
|
|
<ele>6.162671</ele>
|
|
<time>2026-07-11T14:25:44.000Z</time>
|
|
</trkpt>
|
|
<trkpt lat="55.556613" lon="8.141840">
|
|
<ele>6.162165</ele>
|
|
<time>2026-07-11T14:25:45.000Z</time>
|
|
</trkpt>
|
|
<trkpt lat="55.556623" lon="8.141926">
|
|
<ele>6.161724</ele>
|
|
<time>2026-07-11T14:25:46.000Z</time>
|
|
</trkpt>
|
|
<trkpt lat="55.556633" lon="8.142003">
|
|
<ele>6.161328</ele>
|
|
<time>2026-07-11T14:25:47.000Z</time>
|
|
</trkpt>
|
|
<trkpt lat="55.556638" lon="8.142068">
|
|
<ele>6.160999</ele>
|
|
<time>2026-07-11T14:25:48.000Z</time>
|
|
</trkpt>
|
|
<trkpt lat="55.556644" lon="8.142118">
|
|
<ele>6.160742</ele>
|
|
<time>2026-07-11T14:25:49.000Z</time>
|
|
</trkpt>
|
|
<trkpt lat="55.556648" lon="8.142153">
|
|
<ele>6.160563</ele>
|
|
<time>2026-07-11T14:25:50.000Z</time>
|
|
</trkpt>
|
|
<trkpt lat="55.556656" lon="8.142188">
|
|
<ele>6.163492</ele>
|
|
<time>2026-07-11T14:26:07.000Z</time>
|
|
</trkpt>
|
|
<trkpt lat="55.556658" lon="8.142206">
|
|
<ele>6.166648</ele>
|
|
<time>2026-07-11T14:26:08.000Z</time>
|
|
</trkpt>
|
|
<trkpt lat="55.556661" lon="8.142248">
|
|
<ele>6.173931</ele>
|
|
<time>2026-07-11T14:26:09.000Z</time>
|
|
</trkpt>
|
|
<trkpt lat="55.556664" lon="8.142299">
|
|
<ele>6.182752</ele>
|
|
<time>2026-07-11T14:26:10.000Z</time>
|
|
</trkpt>
|
|
<trkpt lat="55.556665" lon="8.142361">
|
|
<ele>6.193423</ele>
|
|
<time>2026-07-11T14:26:11.000Z</time>
|
|
</trkpt>
|
|
<trkpt lat="55.556669" lon="8.142429">
|
|
<ele>6.205185</ele>
|
|
<time>2026-07-11T14:26:12.000Z</time>
|
|
</trkpt>
|
|
<trkpt lat="55.556673" lon="8.142501">
|
|
<ele>6.217632</ele>
|
|
<time>2026-07-11T14:26:13.000Z</time>
|
|
</trkpt>
|
|
<trkpt lat="55.556681" lon="8.142572">
|
|
<ele>6.230086</ele>
|
|
<time>2026-07-11T14:26:14.000Z</time>
|
|
</trkpt>
|
|
<trkpt lat="55.556695" lon="8.142647">
|
|
<ele>6.243674</ele>
|
|
<time>2026-07-11T14:26:15.000Z</time>
|
|
</trkpt>
|
|
<trkpt lat="55.556707" lon="8.142728">
|
|
<ele>6.258079</ele>
|
|
<time>2026-07-11T14:26:16.000Z</time>
|
|
</trkpt>
|
|
<trkpt lat="55.556716" lon="8.142808">
|
|
<ele>6.272112</ele>
|
|
<time>2026-07-11T14:26:17.000Z</time>
|
|
</trkpt>
|
|
<trkpt lat="55.556724" lon="8.142891">
|
|
<ele>6.286597</ele>
|
|
<time>2026-07-11T14:26:18.000Z</time>
|
|
</trkpt>
|
|
<trkpt lat="55.556730" lon="8.142977">
|
|
<ele>6.301505</ele>
|
|
<time>2026-07-11T14:26:19.000Z</time>
|
|
</trkpt>
|
|
<trkpt lat="55.556734" lon="8.143066">
|
|
<ele>6.316865</ele>
|
|
<time>2026-07-11T14:26:20.000Z</time>
|
|
</trkpt>
|
|
<trkpt lat="55.556739" lon="8.143155">
|
|
<ele>6.332252</ele>
|
|
<time>2026-07-11T14:26:21.000Z</time>
|
|
</trkpt>
|
|
<trkpt lat="55.556749" lon="8.143243">
|
|
<ele>6.347694</ele>
|
|
<time>2026-07-11T14:26:22.000Z</time>
|
|
</trkpt>
|
|
<trkpt lat="55.556757" lon="8.143334">
|
|
<ele>6.363537</ele>
|
|
<time>2026-07-11T14:26:23.000Z</time>
|
|
</trkpt>
|
|
<trkpt lat="55.556762" lon="8.143426">
|
|
<ele>6.379438</ele>
|
|
<time>2026-07-11T14:26:24.000Z</time>
|
|
</trkpt>
|
|
<trkpt lat="55.556770" lon="8.143518">
|
|
<ele>6.395451</ele>
|
|
<time>2026-07-11T14:26:25.000Z</time>
|
|
</trkpt>
|
|
<trkpt lat="55.556776" lon="8.143610">
|
|
<ele>6.411384</ele>
|
|
<time>2026-07-11T14:26:26.000Z</time>
|
|
</trkpt>
|
|
<trkpt lat="55.556780" lon="8.143703">
|
|
<ele>6.427430</ele>
|
|
<time>2026-07-11T14:26:27.000Z</time>
|
|
</trkpt>
|
|
<trkpt lat="55.556785" lon="8.143798">
|
|
<ele>6.443844</ele>
|
|
<time>2026-07-11T14:26:28.000Z</time>
|
|
</trkpt>
|
|
<trkpt lat="55.556791" lon="8.143894">
|
|
<ele>6.460461</ele>
|
|
<time>2026-07-11T14:26:29.000Z</time>
|
|
</trkpt>
|
|
<trkpt lat="55.556796" lon="8.143988">
|
|
<ele>6.476704</ele>
|
|
<time>2026-07-11T14:26:30.000Z</time>
|
|
</trkpt>
|
|
<trkpt lat="55.556804" lon="8.144084">
|
|
<ele>6.493398</ele>
|
|
<time>2026-07-11T14:26:31.000Z</time>
|
|
</trkpt>
|
|
<trkpt lat="55.556808" lon="8.144182">
|
|
<ele>6.510301</ele>
|
|
<time>2026-07-11T14:26:32.000Z</time>
|
|
</trkpt>
|
|
<trkpt lat="55.556810" lon="8.144278">
|
|
<ele>6.526828</ele>
|
|
<time>2026-07-11T14:26:33.000Z</time>
|
|
</trkpt>
|
|
<trkpt lat="55.556816" lon="8.144376">
|
|
<ele>6.543787</ele>
|
|
<time>2026-07-11T14:26:34.000Z</time>
|
|
</trkpt>
|
|
<trkpt lat="55.556821" lon="8.144474">
|
|
<ele>6.560715</ele>
|
|
<time>2026-07-11T14:26:35.000Z</time>
|
|
</trkpt>
|
|
<trkpt lat="55.556825" lon="8.144571">
|
|
<ele>6.577447</ele>
|
|
<time>2026-07-11T14:26:36.000Z</time>
|
|
</trkpt>
|
|
<trkpt lat="55.556829" lon="8.144666">
|
|
<ele>6.593836</ele>
|
|
<time>2026-07-11T14:26:37.000Z</time>
|
|
</trkpt>
|
|
<trkpt lat="55.556833" lon="8.144762">
|
|
<ele>6.610397</ele>
|
|
<time>2026-07-11T14:26:38.000Z</time>
|
|
</trkpt>
|
|
<trkpt lat="55.556835" lon="8.144857">
|
|
<ele>6.626752</ele>
|
|
<time>2026-07-11T14:26:39.000Z</time>
|
|
</trkpt>
|
|
<trkpt lat="55.556837" lon="8.144950">
|
|
<ele>6.642763</ele>
|
|
<time>2026-07-11T14:26:40.000Z</time>
|
|
</trkpt>
|
|
<trkpt lat="55.556841" lon="8.145045">
|
|
<ele>6.659152</ele>
|
|
<time>2026-07-11T14:26:41.000Z</time>
|
|
</trkpt>
|
|
<trkpt lat="55.556844" lon="8.145142">
|
|
<ele>6.675865</ele>
|
|
<time>2026-07-11T14:26:42.000Z</time>
|
|
</trkpt>
|
|
<trkpt lat="55.556847" lon="8.145239">
|
|
<ele>6.692577</ele>
|
|
<time>2026-07-11T14:26:43.000Z</time>
|
|
</trkpt>
|
|
<trkpt lat="55.556848" lon="8.145334">
|
|
<ele>6.708410</ele>
|
|
<time>2026-07-11T14:26:44.000Z</time>
|
|
</trkpt>
|
|
<trkpt lat="55.556852" lon="8.145429">
|
|
<ele>6.718580</ele>
|
|
<time>2026-07-11T14:26:45.000Z</time>
|
|
</trkpt>
|
|
<trkpt lat="55.556856" lon="8.145522">
|
|
<ele>6.728537</ele>
|
|
<time>2026-07-11T14:26:46.000Z</time>
|
|
</trkpt>
|
|
<trkpt lat="55.556860" lon="8.145613">
|
|
<ele>6.738282</ele>
|
|
<time>2026-07-11T14:26:47.000Z</time>
|
|
</trkpt>
|
|
<trkpt lat="55.556862" lon="8.145705">
|
|
<ele>6.748111</ele>
|
|
<time>2026-07-11T14:26:48.000Z</time>
|
|
</trkpt>
|
|
<trkpt lat="55.556862" lon="8.145798">
|
|
<ele>6.758040</ele>
|
|
<time>2026-07-11T14:26:49.000Z</time>
|
|
</trkpt>
|
|
<trkpt lat="55.556864" lon="8.145890">
|
|
<ele>6.767869</ele>
|
|
<time>2026-07-11T14:26:50.000Z</time>
|
|
</trkpt>
|
|
<trkpt lat="55.556866" lon="8.145983">
|
|
<ele>6.777805</ele>
|
|
<time>2026-07-11T14:26:51.000Z</time>
|
|
</trkpt>
|
|
<trkpt lat="55.556867" lon="8.146078">
|
|
<ele>6.787949</ele>
|
|
<time>2026-07-11T14:26:52.000Z</time>
|
|
</trkpt>
|
|
<trkpt lat="55.556871" lon="8.146169">
|
|
<ele>6.797694</ele>
|
|
<time>2026-07-11T14:26:53.000Z</time>
|
|
</trkpt>
|
|
<trkpt lat="55.556876" lon="8.146260">
|
|
<ele>6.807454</ele>
|
|
<time>2026-07-11T14:26:54.000Z</time>
|
|
</trkpt>
|
|
<trkpt lat="55.556884" lon="8.146354">
|
|
<ele>6.817603</ele>
|
|
<time>2026-07-11T14:26:55.000Z</time>
|
|
</trkpt>
|
|
<trkpt lat="55.556892" lon="8.146451">
|
|
<ele>6.828068</ele>
|
|
<time>2026-07-11T14:26:56.000Z</time>
|
|
</trkpt>
|
|
<trkpt lat="55.556900" lon="8.146550">
|
|
<ele>6.838745</ele>
|
|
<time>2026-07-11T14:26:57.000Z</time>
|
|
</trkpt>
|
|
<trkpt lat="55.556908" lon="8.146644">
|
|
<ele>6.848893</ele>
|
|
<time>2026-07-11T14:26:58.000Z</time>
|
|
</trkpt>
|
|
<trkpt lat="55.556920" lon="8.146736">
|
|
<ele>6.858973</ele>
|
|
<time>2026-07-11T14:26:59.000Z</time>
|
|
</trkpt>
|
|
<trkpt lat="55.556933" lon="8.146830">
|
|
<ele>6.869304</ele>
|
|
<time>2026-07-11T14:27:00.000Z</time>
|
|
</trkpt>
|
|
<trkpt lat="55.556950" lon="8.146916">
|
|
<ele>6.879030</ele>
|
|
<time>2026-07-11T14:27:01.000Z</time>
|
|
</trkpt>
|
|
<trkpt lat="55.556968" lon="8.146998">
|
|
<ele>6.888421</ele>
|
|
<time>2026-07-11T14:27:02.000Z</time>
|
|
</trkpt>
|
|
<trkpt lat="55.556984" lon="8.147078">
|
|
<ele>6.897480</ele>
|
|
<time>2026-07-11T14:27:03.000Z</time>
|
|
</trkpt>
|
|
<trkpt lat="55.557003" lon="8.147159">
|
|
<ele>6.906842</ele>
|
|
<time>2026-07-11T14:27:04.000Z</time>
|
|
</trkpt>
|
|
<trkpt lat="55.557024" lon="8.147242">
|
|
<ele>6.916549</ele>
|
|
<time>2026-07-11T14:27:05.000Z</time>
|
|
</trkpt>
|
|
<trkpt lat="55.557047" lon="8.147324">
|
|
<ele>6.926321</ele>
|
|
<time>2026-07-11T14:27:06.000Z</time>
|
|
</trkpt>
|
|
<trkpt lat="55.557070" lon="8.147404">
|
|
<ele>6.935901</ele>
|
|
<time>2026-07-11T14:27:07.000Z</time>
|
|
</trkpt>
|
|
<trkpt lat="55.557094" lon="8.147483">
|
|
<ele>6.945475</ele>
|
|
<time>2026-07-11T14:27:08.000Z</time>
|
|
</trkpt>
|
|
<trkpt lat="55.557119" lon="8.147561">
|
|
<ele>6.955047</ele>
|
|
<time>2026-07-11T14:27:09.000Z</time>
|
|
</trkpt>
|
|
<trkpt lat="55.557143" lon="8.147643">
|
|
<ele>6.964904</ele>
|
|
<time>2026-07-11T14:27:10.000Z</time>
|
|
</trkpt>
|
|
<trkpt lat="55.557165" lon="8.147726">
|
|
<ele>6.974690</ele>
|
|
<time>2026-07-11T14:27:11.000Z</time>
|
|
</trkpt>
|
|
<trkpt lat="55.557188" lon="8.147810">
|
|
<ele>6.984653</ele>
|
|
<time>2026-07-11T14:27:12.000Z</time>
|
|
</trkpt>
|
|
<trkpt lat="55.557211" lon="8.147892">
|
|
<ele>6.994425</ele>
|
|
<time>2026-07-11T14:27:13.000Z</time>
|
|
</trkpt>
|
|
<trkpt lat="55.557235" lon="8.147969">
|
|
<ele>7.003811</ele>
|
|
<time>2026-07-11T14:27:14.000Z</time>
|
|
</trkpt>
|
|
<trkpt lat="55.557261" lon="8.148045">
|
|
<ele>7.013293</ele>
|
|
<time>2026-07-11T14:27:15.000Z</time>
|
|
</trkpt>
|
|
<trkpt lat="55.557284" lon="8.148120">
|
|
<ele>7.022402</ele>
|
|
<time>2026-07-11T14:27:16.000Z</time>
|
|
</trkpt>
|
|
<trkpt lat="55.557307" lon="8.148196">
|
|
<ele>7.031604</ele>
|
|
<time>2026-07-11T14:27:17.000Z</time>
|
|
</trkpt>
|
|
<trkpt lat="55.557329" lon="8.148272">
|
|
<ele>7.040718</ele>
|
|
<time>2026-07-11T14:27:18.000Z</time>
|
|
</trkpt>
|
|
<trkpt lat="55.557351" lon="8.148346">
|
|
<ele>7.045537</ele>
|
|
<time>2026-07-11T14:27:19.000Z</time>
|
|
</trkpt>
|
|
<trkpt lat="55.557373" lon="8.148422">
|
|
<ele>7.040045</ele>
|
|
<time>2026-07-11T14:27:20.000Z</time>
|
|
</trkpt>
|
|
<trkpt lat="55.557398" lon="8.148499">
|
|
<ele>7.034334</ele>
|
|
<time>2026-07-11T14:27:21.000Z</time>
|
|
</trkpt>
|
|
<trkpt lat="55.557419" lon="8.148578">
|
|
<ele>7.028719</ele>
|
|
<time>2026-07-11T14:27:22.000Z</time>
|
|
</trkpt>
|
|
<trkpt lat="55.557435" lon="8.148665">
|
|
<ele>7.022835</ele>
|
|
<time>2026-07-11T14:27:23.000Z</time>
|
|
</trkpt>
|
|
<trkpt lat="55.557446" lon="8.148755">
|
|
<ele>7.016912</ele>
|
|
<time>2026-07-11T14:27:24.000Z</time>
|
|
</trkpt>
|
|
<trkpt lat="55.557459" lon="8.148844">
|
|
<ele>7.010999</ele>
|
|
<time>2026-07-11T14:27:25.000Z</time>
|
|
</trkpt>
|
|
<trkpt lat="55.557477" lon="8.148935">
|
|
<ele>7.004798</ele>
|
|
<time>2026-07-11T14:27:26.000Z</time>
|
|
</trkpt>
|
|
<trkpt lat="55.557496" lon="8.149028">
|
|
<ele>6.998438</ele>
|
|
<time>2026-07-11T14:27:27.000Z</time>
|
|
</trkpt>
|
|
<trkpt lat="55.557517" lon="8.149122">
|
|
<ele>6.991937</ele>
|
|
<time>2026-07-11T14:27:28.000Z</time>
|
|
</trkpt>
|
|
<trkpt lat="55.557538" lon="8.149209">
|
|
<ele>6.985852</ele>
|
|
<time>2026-07-11T14:27:29.000Z</time>
|
|
</trkpt>
|
|
<trkpt lat="55.557558" lon="8.149298">
|
|
<ele>6.979692</ele>
|
|
<time>2026-07-11T14:27:30.000Z</time>
|
|
</trkpt>
|
|
<trkpt lat="55.557578" lon="8.149407">
|
|
<ele>6.972321</ele>
|
|
<time>2026-07-11T14:27:31.000Z</time>
|
|
</trkpt>
|
|
<trkpt lat="55.557592" lon="8.149501">
|
|
<ele>6.966069</ele>
|
|
<time>2026-07-11T14:27:32.000Z</time>
|
|
</trkpt>
|
|
<trkpt lat="55.557605" lon="8.149592">
|
|
<ele>6.960031</ele>
|
|
<time>2026-07-11T14:27:33.000Z</time>
|
|
</trkpt>
|
|
<trkpt lat="55.557621" lon="8.149682">
|
|
<ele>6.953963</ele>
|
|
<time>2026-07-11T14:27:34.000Z</time>
|
|
</trkpt>
|
|
<trkpt lat="55.557639" lon="8.149774">
|
|
<ele>6.947701</ele>
|
|
<time>2026-07-11T14:27:35.000Z</time>
|
|
</trkpt>
|
|
<trkpt lat="55.557654" lon="8.149865">
|
|
<ele>6.941604</ele>
|
|
<time>2026-07-11T14:27:36.000Z</time>
|
|
</trkpt>
|
|
<trkpt lat="55.557670" lon="8.149957">
|
|
<ele>6.935413</ele>
|
|
<time>2026-07-11T14:27:37.000Z</time>
|
|
</trkpt>
|
|
<trkpt lat="55.557685" lon="8.150050">
|
|
<ele>6.929192</ele>
|
|
<time>2026-07-11T14:27:38.000Z</time>
|
|
</trkpt>
|
|
<trkpt lat="55.557700" lon="8.150146">
|
|
<ele>6.922786</ele>
|
|
<time>2026-07-11T14:27:39.000Z</time>
|
|
</trkpt>
|
|
<trkpt lat="55.557715" lon="8.150245">
|
|
<ele>6.916193</ele>
|
|
<time>2026-07-11T14:27:40.000Z</time>
|
|
</trkpt>
|
|
<trkpt lat="55.557733" lon="8.150348">
|
|
<ele>6.909259</ele>
|
|
<time>2026-07-11T14:27:41.000Z</time>
|
|
</trkpt>
|
|
<trkpt lat="55.557754" lon="8.150449">
|
|
<ele>6.902337</ele>
|
|
<time>2026-07-11T14:27:42.000Z</time>
|
|
</trkpt>
|
|
<trkpt lat="55.557772" lon="8.150548">
|
|
<ele>6.895648</ele>
|
|
<time>2026-07-11T14:27:43.000Z</time>
|
|
</trkpt>
|
|
<trkpt lat="55.557795" lon="8.150666">
|
|
<ele>6.887620</ele>
|
|
<time>2026-07-11T14:27:44.000Z</time>
|
|
</trkpt>
|
|
<trkpt lat="55.557820" lon="8.150770">
|
|
<ele>6.880351</ele>
|
|
<time>2026-07-11T14:27:45.000Z</time>
|
|
</trkpt>
|
|
<trkpt lat="55.557846" lon="8.150874">
|
|
<ele>6.873037</ele>
|
|
<time>2026-07-11T14:27:46.000Z</time>
|
|
</trkpt>
|
|
<trkpt lat="55.557873" lon="8.150983">
|
|
<ele>6.865383</ele>
|
|
<time>2026-07-11T14:27:47.000Z</time>
|
|
</trkpt>
|
|
<trkpt lat="55.557898" lon="8.151096">
|
|
<ele>6.857578</ele>
|
|
<time>2026-07-11T14:27:48.000Z</time>
|
|
</trkpt>
|
|
<trkpt lat="55.557920" lon="8.151212">
|
|
<ele>6.849709</ele>
|
|
<time>2026-07-11T14:27:49.000Z</time>
|
|
</trkpt>
|
|
<trkpt lat="55.557943" lon="8.151331">
|
|
<ele>6.843451</ele>
|
|
<time>2026-07-11T14:27:50.000Z</time>
|
|
</trkpt>
|
|
<trkpt lat="55.557968" lon="8.151450">
|
|
<ele>6.851885</ele>
|
|
<time>2026-07-11T14:27:51.000Z</time>
|
|
</trkpt>
|
|
<trkpt lat="55.557994" lon="8.151568">
|
|
<ele>6.860299</ele>
|
|
<time>2026-07-11T14:27:52.000Z</time>
|
|
</trkpt>
|
|
<trkpt lat="55.558022" lon="8.151685">
|
|
<ele>6.868741</ele>
|
|
<time>2026-07-11T14:27:53.000Z</time>
|
|
</trkpt>
|
|
<trkpt lat="55.558048" lon="8.151799">
|
|
<ele>6.876908</ele>
|
|
<time>2026-07-11T14:27:54.000Z</time>
|
|
</trkpt>
|
|
<trkpt lat="55.558076" lon="8.151909">
|
|
<ele>6.884923</ele>
|
|
<time>2026-07-11T14:27:55.000Z</time>
|
|
</trkpt>
|
|
<trkpt lat="55.558105" lon="8.152015">
|
|
<ele>6.892746</ele>
|
|
<time>2026-07-11T14:27:56.000Z</time>
|
|
</trkpt>
|
|
<trkpt lat="55.558130" lon="8.152121">
|
|
<ele>6.900377</ele>
|
|
<time>2026-07-11T14:27:57.000Z</time>
|
|
</trkpt>
|
|
<trkpt lat="55.558153" lon="8.152228">
|
|
<ele>6.907982</ele>
|
|
<time>2026-07-11T14:27:58.000Z</time>
|
|
</trkpt>
|
|
<trkpt lat="55.558178" lon="8.152336">
|
|
<ele>6.915736</ele>
|
|
<time>2026-07-11T14:27:59.000Z</time>
|
|
</trkpt>
|
|
<trkpt lat="55.558204" lon="8.152444">
|
|
<ele>6.923535</ele>
|
|
<time>2026-07-11T14:28:00.000Z</time>
|
|
</trkpt>
|
|
<trkpt lat="55.558231" lon="8.152553">
|
|
<ele>6.931441</ele>
|
|
<time>2026-07-11T14:28:01.000Z</time>
|
|
</trkpt>
|
|
<trkpt lat="55.558258" lon="8.152660">
|
|
<ele>6.939226</ele>
|
|
<time>2026-07-11T14:28:02.000Z</time>
|
|
</trkpt>
|
|
<trkpt lat="55.558285" lon="8.152765">
|
|
<ele>6.946890</ele>
|
|
<time>2026-07-11T14:28:03.000Z</time>
|
|
</trkpt>
|
|
<trkpt lat="55.558310" lon="8.152868">
|
|
<ele>6.954337</ele>
|
|
<time>2026-07-11T14:28:04.000Z</time>
|
|
</trkpt>
|
|
<trkpt lat="55.558334" lon="8.152967">
|
|
<ele>6.961493</ele>
|
|
<time>2026-07-11T14:28:05.000Z</time>
|
|
</trkpt>
|
|
<trkpt lat="55.558360" lon="8.153068">
|
|
<ele>6.968867</ele>
|
|
<time>2026-07-11T14:28:06.000Z</time>
|
|
</trkpt>
|
|
<trkpt lat="55.558383" lon="8.153171">
|
|
<ele>6.976224</ele>
|
|
<time>2026-07-11T14:28:07.000Z</time>
|
|
</trkpt>
|
|
<trkpt lat="55.558407" lon="8.153274">
|
|
<ele>6.983626</ele>
|
|
<time>2026-07-11T14:28:08.000Z</time>
|
|
</trkpt>
|
|
<trkpt lat="55.558434" lon="8.153377">
|
|
<ele>6.991169</ele>
|
|
<time>2026-07-11T14:28:09.000Z</time>
|
|
</trkpt>
|
|
<trkpt lat="55.558459" lon="8.153478">
|
|
<ele>6.998494</ele>
|
|
<time>2026-07-11T14:28:10.000Z</time>
|
|
</trkpt>
|
|
<trkpt lat="55.558483" lon="8.153581">
|
|
<ele>7.005895</ele>
|
|
<time>2026-07-11T14:28:11.000Z</time>
|
|
</trkpt>
|
|
<trkpt lat="55.558506" lon="8.153689">
|
|
<ele>7.013563</ele>
|
|
<time>2026-07-11T14:28:12.000Z</time>
|
|
</trkpt>
|
|
<trkpt lat="55.558527" lon="8.153799">
|
|
<ele>7.021277</ele>
|
|
<time>2026-07-11T14:28:13.000Z</time>
|
|
</trkpt>
|
|
<trkpt lat="55.558550" lon="8.153904">
|
|
<ele>7.028758</ele>
|
|
<time>2026-07-11T14:28:14.000Z</time>
|
|
</trkpt>
|
|
<trkpt lat="55.558575" lon="8.154007">
|
|
<ele>7.036205</ele>
|
|
<time>2026-07-11T14:28:15.000Z</time>
|
|
</trkpt>
|
|
<trkpt lat="55.558600" lon="8.154108">
|
|
<ele>7.043530</ele>
|
|
<time>2026-07-11T14:28:16.000Z</time>
|
|
</trkpt>
|
|
<trkpt lat="55.558622" lon="8.154210">
|
|
<ele>7.050784</ele>
|
|
<time>2026-07-11T14:28:17.000Z</time>
|
|
</trkpt>
|
|
<trkpt lat="55.558645" lon="8.154315">
|
|
<ele>7.052226</ele>
|
|
<time>2026-07-11T14:28:18.000Z</time>
|
|
</trkpt>
|
|
<trkpt lat="55.558668" lon="8.154424">
|
|
<ele>7.049446</ele>
|
|
<time>2026-07-11T14:28:19.000Z</time>
|
|
</trkpt>
|
|
<trkpt lat="55.558690" lon="8.154533">
|
|
<ele>7.046680</ele>
|
|
<time>2026-07-11T14:28:20.000Z</time>
|
|
</trkpt>
|
|
<trkpt lat="55.558710" lon="8.154641">
|
|
<ele>7.043965</ele>
|
|
<time>2026-07-11T14:28:21.000Z</time>
|
|
</trkpt>
|
|
<trkpt lat="55.558735" lon="8.154748">
|
|
<ele>7.041199</ele>
|
|
<time>2026-07-11T14:28:22.000Z</time>
|
|
</trkpt>
|
|
<trkpt lat="55.558757" lon="8.154850">
|
|
<ele>7.038591</ele>
|
|
<time>2026-07-11T14:28:23.000Z</time>
|
|
</trkpt>
|
|
<trkpt lat="55.558775" lon="8.154951">
|
|
<ele>7.036060</ele>
|
|
<time>2026-07-11T14:28:24.000Z</time>
|
|
</trkpt>
|
|
<trkpt lat="55.558797" lon="8.155054">
|
|
<ele>7.033430</ele>
|
|
<time>2026-07-11T14:28:25.000Z</time>
|
|
</trkpt>
|
|
<trkpt lat="55.558814" lon="8.155160">
|
|
<ele>7.030797</ele>
|
|
<time>2026-07-11T14:28:26.000Z</time>
|
|
</trkpt>
|
|
<trkpt lat="55.558831" lon="8.155267">
|
|
<ele>7.028141</ele>
|
|
<time>2026-07-11T14:28:27.000Z</time>
|
|
</trkpt>
|
|
<trkpt lat="55.558851" lon="8.155376">
|
|
<ele>7.025403</ele>
|
|
<time>2026-07-11T14:28:28.000Z</time>
|
|
</trkpt>
|
|
<trkpt lat="55.558873" lon="8.155487">
|
|
<ele>7.022593</ele>
|
|
<time>2026-07-11T14:28:29.000Z</time>
|
|
</trkpt>
|
|
<trkpt lat="55.558894" lon="8.155598">
|
|
<ele>7.019796</ele>
|
|
<time>2026-07-11T14:28:30.000Z</time>
|
|
</trkpt>
|
|
<trkpt lat="55.558915" lon="8.155705">
|
|
<ele>7.017090</ele>
|
|
<time>2026-07-11T14:28:31.000Z</time>
|
|
</trkpt>
|
|
<trkpt lat="55.558934" lon="8.155813">
|
|
<ele>7.014388</ele>
|
|
<time>2026-07-11T14:28:32.000Z</time>
|
|
</trkpt>
|
|
<trkpt lat="55.558955" lon="8.155920">
|
|
<ele>7.011682</ele>
|
|
<time>2026-07-11T14:28:33.000Z</time>
|
|
</trkpt>
|
|
<trkpt lat="55.558976" lon="8.156018">
|
|
<ele>7.009178</ele>
|
|
<time>2026-07-11T14:28:34.000Z</time>
|
|
</trkpt>
|
|
<trkpt lat="55.558998" lon="8.156115">
|
|
<ele>7.006680</ele>
|
|
<time>2026-07-11T14:28:35.000Z</time>
|
|
</trkpt>
|
|
<trkpt lat="55.559021" lon="8.156228">
|
|
<ele>7.003811</ele>
|
|
<time>2026-07-11T14:28:36.000Z</time>
|
|
</trkpt>
|
|
<trkpt lat="55.559042" lon="8.156330">
|
|
<ele>7.001217</ele>
|
|
<time>2026-07-11T14:28:37.000Z</time>
|
|
</trkpt>
|
|
<trkpt lat="55.559065" lon="8.156430">
|
|
<ele>6.998638</ele>
|
|
<time>2026-07-11T14:28:38.000Z</time>
|
|
</trkpt>
|
|
<trkpt lat="55.559090" lon="8.156531">
|
|
<ele>6.996004</ele>
|
|
<time>2026-07-11T14:28:39.000Z</time>
|
|
</trkpt>
|
|
<trkpt lat="55.559114" lon="8.156630">
|
|
<ele>6.993430</ele>
|
|
<time>2026-07-11T14:28:40.000Z</time>
|
|
</trkpt>
|
|
<trkpt lat="55.559137" lon="8.156731">
|
|
<ele>6.990829</ele>
|
|
<time>2026-07-11T14:28:41.000Z</time>
|
|
</trkpt>
|
|
<trkpt lat="55.559159" lon="8.156840">
|
|
<ele>6.988063</ele>
|
|
<time>2026-07-11T14:28:42.000Z</time>
|
|
</trkpt>
|
|
<trkpt lat="55.559176" lon="8.156949">
|
|
<ele>6.985362</ele>
|
|
<time>2026-07-11T14:28:43.000Z</time>
|
|
</trkpt>
|
|
<trkpt lat="55.559193" lon="8.157058">
|
|
<ele>6.982660</ele>
|
|
<time>2026-07-11T14:28:44.000Z</time>
|
|
</trkpt>
|
|
<trkpt lat="55.559212" lon="8.157171">
|
|
<ele>6.979843</ele>
|
|
<time>2026-07-11T14:28:45.000Z</time>
|
|
</trkpt>
|
|
<trkpt lat="55.559233" lon="8.157285">
|
|
<ele>6.978564</ele>
|
|
<time>2026-07-11T14:28:46.000Z</time>
|
|
</trkpt>
|
|
<trkpt lat="55.559254" lon="8.157395">
|
|
<ele>6.980929</ele>
|
|
<time>2026-07-11T14:28:47.000Z</time>
|
|
</trkpt>
|
|
<trkpt lat="55.559275" lon="8.157503">
|
|
<ele>6.983255</ele>
|
|
<time>2026-07-11T14:28:48.000Z</time>
|
|
</trkpt>
|
|
<trkpt lat="55.559296" lon="8.157608">
|
|
<ele>6.985524</ele>
|
|
<time>2026-07-11T14:28:49.000Z</time>
|
|
</trkpt>
|
|
<trkpt lat="55.559317" lon="8.157717">
|
|
<ele>6.987870</ele>
|
|
<time>2026-07-11T14:28:50.000Z</time>
|
|
</trkpt>
|
|
<trkpt lat="55.559338" lon="8.157828">
|
|
<ele>6.990254</ele>
|
|
<time>2026-07-11T14:28:51.000Z</time>
|
|
</trkpt>
|
|
<trkpt lat="55.559359" lon="8.157941">
|
|
<ele>6.992677</ele>
|
|
<time>2026-07-11T14:28:52.000Z</time>
|
|
</trkpt>
|
|
<trkpt lat="55.559382" lon="8.158056">
|
|
<ele>6.995162</ele>
|
|
<time>2026-07-11T14:28:53.000Z</time>
|
|
</trkpt>
|
|
<trkpt lat="55.559403" lon="8.158165">
|
|
<ele>6.997508</ele>
|
|
<time>2026-07-11T14:28:54.000Z</time>
|
|
</trkpt>
|
|
<trkpt lat="55.559423" lon="8.158276">
|
|
<ele>6.999881</ele>
|
|
<time>2026-07-11T14:28:55.000Z</time>
|
|
</trkpt>
|
|
<trkpt lat="55.559445" lon="8.158388">
|
|
<ele>7.002297</ele>
|
|
<time>2026-07-11T14:28:56.000Z</time>
|
|
</trkpt>
|
|
<trkpt lat="55.559464" lon="8.158496">
|
|
<ele>7.004601</ele>
|
|
<time>2026-07-11T14:28:57.000Z</time>
|
|
</trkpt>
|
|
<trkpt lat="55.559483" lon="8.158602">
|
|
<ele>7.006866</ele>
|
|
<time>2026-07-11T14:28:58.000Z</time>
|
|
</trkpt>
|
|
<trkpt lat="55.559506" lon="8.158706">
|
|
<ele>7.009141</ele>
|
|
<time>2026-07-11T14:28:59.000Z</time>
|
|
</trkpt>
|
|
<trkpt lat="55.559529" lon="8.158811">
|
|
<ele>7.011435</ele>
|
|
<time>2026-07-11T14:29:00.000Z</time>
|
|
</trkpt>
|
|
<trkpt lat="55.559548" lon="8.158916">
|
|
<ele>7.013681</ele>
|
|
<time>2026-07-11T14:29:01.000Z</time>
|
|
</trkpt>
|
|
<trkpt lat="55.559567" lon="8.159018">
|
|
<ele>7.015868</ele>
|
|
<time>2026-07-11T14:29:02.000Z</time>
|
|
</trkpt>
|
|
<trkpt lat="55.559584" lon="8.159118">
|
|
<ele>7.017995</ele>
|
|
<time>2026-07-11T14:29:03.000Z</time>
|
|
</trkpt>
|
|
<trkpt lat="55.559601" lon="8.159218">
|
|
<ele>7.020123</ele>
|
|
<time>2026-07-11T14:29:04.000Z</time>
|
|
</trkpt>
|
|
<trkpt lat="55.559620" lon="8.159320">
|
|
<ele>7.022310</ele>
|
|
<time>2026-07-11T14:29:05.000Z</time>
|
|
</trkpt>
|
|
<trkpt lat="55.559637" lon="8.159421">
|
|
<ele>7.024457</ele>
|
|
<time>2026-07-11T14:29:06.000Z</time>
|
|
</trkpt>
|
|
<trkpt lat="55.559656" lon="8.159523">
|
|
<ele>7.026645</ele>
|
|
<time>2026-07-11T14:29:07.000Z</time>
|
|
</trkpt>
|
|
<trkpt lat="55.559679" lon="8.159626">
|
|
<ele>7.028901</ele>
|
|
<time>2026-07-11T14:29:08.000Z</time>
|
|
</trkpt>
|
|
<trkpt lat="55.559700" lon="8.159730">
|
|
<ele>7.031150</ele>
|
|
<time>2026-07-11T14:29:09.000Z</time>
|
|
</trkpt>
|
|
<trkpt lat="55.559721" lon="8.159836">
|
|
<ele>7.033438</ele>
|
|
<time>2026-07-11T14:29:10.000Z</time>
|
|
</trkpt>
|
|
<trkpt lat="55.559743" lon="8.159940">
|
|
<ele>7.035700</ele>
|
|
<time>2026-07-11T14:29:11.000Z</time>
|
|
</trkpt>
|
|
<trkpt lat="55.559766" lon="8.160043">
|
|
<ele>7.037956</ele>
|
|
<time>2026-07-11T14:29:12.000Z</time>
|
|
</trkpt>
|
|
<trkpt lat="55.559791" lon="8.160148">
|
|
<ele>7.040277</ele>
|
|
<time>2026-07-11T14:29:13.000Z</time>
|
|
</trkpt>
|
|
<trkpt lat="55.559815" lon="8.160254">
|
|
<ele>7.042603</ele>
|
|
<time>2026-07-11T14:29:14.000Z</time>
|
|
</trkpt>
|
|
<trkpt lat="55.559835" lon="8.160358">
|
|
<ele>7.042545</ele>
|
|
<time>2026-07-11T14:29:15.000Z</time>
|
|
</trkpt>
|
|
<trkpt lat="55.559857" lon="8.160460">
|
|
<ele>7.042467</ele>
|
|
<time>2026-07-11T14:29:16.000Z</time>
|
|
</trkpt>
|
|
<trkpt lat="55.559877" lon="8.160563">
|
|
<ele>7.042389</ele>
|
|
<time>2026-07-11T14:29:17.000Z</time>
|
|
</trkpt>
|
|
<trkpt lat="55.559899" lon="8.160666">
|
|
<ele>7.042311</ele>
|
|
<time>2026-07-11T14:29:18.000Z</time>
|
|
</trkpt>
|
|
<trkpt lat="55.559918" lon="8.160768">
|
|
<ele>7.042234</ele>
|
|
<time>2026-07-11T14:29:19.000Z</time>
|
|
</trkpt>
|
|
<trkpt lat="55.559937" lon="8.160865">
|
|
<ele>7.042161</ele>
|
|
<time>2026-07-11T14:29:20.000Z</time>
|
|
</trkpt>
|
|
<trkpt lat="55.559956" lon="8.160965">
|
|
<ele>7.042086</ele>
|
|
<time>2026-07-11T14:29:21.000Z</time>
|
|
</trkpt>
|
|
<trkpt lat="55.559975" lon="8.161071">
|
|
<ele>7.042007</ele>
|
|
<time>2026-07-11T14:29:22.000Z</time>
|
|
</trkpt>
|
|
<trkpt lat="55.559994" lon="8.161177">
|
|
<ele>7.041927</ele>
|
|
<time>2026-07-11T14:29:23.000Z</time>
|
|
</trkpt>
|
|
<trkpt lat="55.560016" lon="8.161282">
|
|
<ele>7.041848</ele>
|
|
<time>2026-07-11T14:29:24.000Z</time>
|
|
</trkpt>
|
|
<trkpt lat="55.560042" lon="8.161388">
|
|
<ele>7.041765</ele>
|
|
<time>2026-07-11T14:29:25.000Z</time>
|
|
</trkpt>
|
|
<trkpt lat="55.560066" lon="8.161490">
|
|
<ele>7.041686</ele>
|
|
<time>2026-07-11T14:29:26.000Z</time>
|
|
</trkpt>
|
|
<trkpt lat="55.560096" lon="8.161589">
|
|
<ele>7.041606</ele>
|
|
<time>2026-07-11T14:29:27.000Z</time>
|
|
</trkpt>
|
|
<trkpt lat="55.560129" lon="8.161671">
|
|
<ele>7.041535</ele>
|
|
<time>2026-07-11T14:29:28.000Z</time>
|
|
</trkpt>
|
|
<trkpt lat="55.560161" lon="8.161745">
|
|
<ele>7.041468</ele>
|
|
<time>2026-07-11T14:29:29.000Z</time>
|
|
</trkpt>
|
|
<trkpt lat="55.560192" lon="8.161821">
|
|
<ele>7.041401</ele>
|
|
<time>2026-07-11T14:29:30.000Z</time>
|
|
</trkpt>
|
|
<trkpt lat="55.560214" lon="8.161897">
|
|
<ele>7.041341</ele>
|
|
<time>2026-07-11T14:29:31.000Z</time>
|
|
</trkpt>
|
|
<trkpt lat="55.560229" lon="8.161981">
|
|
<ele>7.041278</ele>
|
|
<time>2026-07-11T14:29:32.000Z</time>
|
|
</trkpt>
|
|
<trkpt lat="55.560244" lon="8.162074">
|
|
<ele>7.041209</ele>
|
|
<time>2026-07-11T14:29:33.000Z</time>
|
|
</trkpt>
|
|
<trkpt lat="55.560260" lon="8.162171">
|
|
<ele>7.041137</ele>
|
|
<time>2026-07-11T14:29:34.000Z</time>
|
|
</trkpt>
|
|
<trkpt lat="55.560275" lon="8.162270">
|
|
<ele>7.041064</ele>
|
|
<time>2026-07-11T14:29:35.000Z</time>
|
|
</trkpt>
|
|
<trkpt lat="55.560290" lon="8.162369">
|
|
<ele>7.040991</ele>
|
|
<time>2026-07-11T14:29:36.000Z</time>
|
|
</trkpt>
|
|
<trkpt lat="55.560305" lon="8.162467">
|
|
<ele>7.040918</ele>
|
|
<time>2026-07-11T14:29:37.000Z</time>
|
|
</trkpt>
|
|
<trkpt lat="55.560319" lon="8.162556">
|
|
<ele>7.040853</ele>
|
|
<time>2026-07-11T14:29:38.000Z</time>
|
|
</trkpt>
|
|
<trkpt lat="55.560334" lon="8.162645">
|
|
<ele>7.040786</ele>
|
|
<time>2026-07-11T14:29:39.000Z</time>
|
|
</trkpt>
|
|
<trkpt lat="55.560351" lon="8.162740">
|
|
<ele>7.040715</ele>
|
|
<time>2026-07-11T14:29:40.000Z</time>
|
|
</trkpt>
|
|
<trkpt lat="55.560369" lon="8.162840">
|
|
<ele>7.040640</ele>
|
|
<time>2026-07-11T14:29:41.000Z</time>
|
|
</trkpt>
|
|
<trkpt lat="55.560391" lon="8.162944">
|
|
<ele>7.040561</ele>
|
|
<time>2026-07-11T14:29:42.000Z</time>
|
|
</trkpt>
|
|
<trkpt lat="55.560410" lon="8.163045">
|
|
<ele>7.040485</ele>
|
|
<time>2026-07-11T14:29:43.000Z</time>
|
|
</trkpt>
|
|
<trkpt lat="55.560429" lon="8.163146">
|
|
<ele>7.040410</ele>
|
|
<time>2026-07-11T14:29:44.000Z</time>
|
|
</trkpt>
|
|
<trkpt lat="55.560446" lon="8.163250">
|
|
<ele>7.037707</ele>
|
|
<time>2026-07-11T14:29:45.000Z</time>
|
|
</trkpt>
|
|
<trkpt lat="55.560460" lon="8.163359">
|
|
<ele>7.028497</ele>
|
|
<time>2026-07-11T14:29:46.000Z</time>
|
|
</trkpt>
|
|
<trkpt lat="55.560468" lon="8.163472">
|
|
<ele>7.019113</ele>
|
|
<time>2026-07-11T14:29:47.000Z</time>
|
|
</trkpt>
|
|
<trkpt lat="55.560475" lon="8.163578">
|
|
<ele>7.010319</ele>
|
|
<time>2026-07-11T14:29:48.000Z</time>
|
|
</trkpt>
|
|
<trkpt lat="55.560490" lon="8.163682">
|
|
<ele>7.001475</ele>
|
|
<time>2026-07-11T14:29:49.000Z</time>
|
|
</trkpt>
|
|
<trkpt lat="55.560511" lon="8.163788">
|
|
<ele>6.992220</ele>
|
|
<time>2026-07-11T14:29:50.000Z</time>
|
|
</trkpt>
|
|
<trkpt lat="55.560534" lon="8.163893">
|
|
<ele>6.982942</ele>
|
|
<time>2026-07-11T14:29:51.000Z</time>
|
|
</trkpt>
|
|
<trkpt lat="55.560558" lon="8.163997">
|
|
<ele>6.973686</ele>
|
|
<time>2026-07-11T14:29:52.000Z</time>
|
|
</trkpt>
|
|
<trkpt lat="55.560583" lon="8.164105">
|
|
<ele>6.964070</ele>
|
|
<time>2026-07-11T14:29:53.000Z</time>
|
|
</trkpt>
|
|
<trkpt lat="55.560606" lon="8.164214">
|
|
<ele>6.954483</ele>
|
|
<time>2026-07-11T14:29:54.000Z</time>
|
|
</trkpt>
|
|
<trkpt lat="55.560627" lon="8.164320">
|
|
<ele>6.945228</ele>
|
|
<time>2026-07-11T14:29:55.000Z</time>
|
|
</trkpt>
|
|
<trkpt lat="55.560648" lon="8.164422">
|
|
<ele>6.936284</ele>
|
|
<time>2026-07-11T14:29:56.000Z</time>
|
|
</trkpt>
|
|
<trkpt lat="55.560671" lon="8.164525">
|
|
<ele>6.927159</ele>
|
|
<time>2026-07-11T14:29:57.000Z</time>
|
|
</trkpt>
|
|
<trkpt lat="55.560694" lon="8.164630">
|
|
<ele>6.917880</ele>
|
|
<time>2026-07-11T14:29:58.000Z</time>
|
|
</trkpt>
|
|
<trkpt lat="55.560718" lon="8.164733">
|
|
<ele>6.908701</ele>
|
|
<time>2026-07-11T14:29:59.000Z</time>
|
|
</trkpt>
|
|
<trkpt lat="55.560744" lon="8.164838">
|
|
<ele>6.899256</ele>
|
|
<time>2026-07-11T14:30:00.000Z</time>
|
|
</trkpt>
|
|
<trkpt lat="55.560771" lon="8.164946">
|
|
<ele>6.889526</ele>
|
|
<time>2026-07-11T14:30:01.000Z</time>
|
|
</trkpt>
|
|
<trkpt lat="55.560798" lon="8.165054">
|
|
<ele>6.879796</ele>
|
|
<time>2026-07-11T14:30:02.000Z</time>
|
|
</trkpt>
|
|
<trkpt lat="55.560825" lon="8.165164">
|
|
<ele>6.869915</ele>
|
|
<time>2026-07-11T14:30:03.000Z</time>
|
|
</trkpt>
|
|
<trkpt lat="55.560852" lon="8.165274">
|
|
<ele>6.860034</ele>
|
|
<time>2026-07-11T14:30:04.000Z</time>
|
|
</trkpt>
|
|
<trkpt lat="55.560878" lon="8.165384">
|
|
<ele>6.850210</ele>
|
|
<time>2026-07-11T14:30:05.000Z</time>
|
|
</trkpt>
|
|
<trkpt lat="55.560905" lon="8.165491">
|
|
<ele>6.840555</ele>
|
|
<time>2026-07-11T14:30:06.000Z</time>
|
|
</trkpt>
|
|
<trkpt lat="55.560932" lon="8.165596">
|
|
<ele>6.831051</ele>
|
|
<time>2026-07-11T14:30:07.000Z</time>
|
|
</trkpt>
|
|
<trkpt lat="55.560959" lon="8.165700">
|
|
<ele>6.821621</ele>
|
|
<time>2026-07-11T14:30:08.000Z</time>
|
|
</trkpt>
|
|
<trkpt lat="55.560987" lon="8.165802">
|
|
<ele>6.812279</ele>
|
|
<time>2026-07-11T14:30:09.000Z</time>
|
|
</trkpt>
|
|
<trkpt lat="55.561017" lon="8.165904">
|
|
<ele>6.802805</ele>
|
|
<time>2026-07-11T14:30:10.000Z</time>
|
|
</trkpt>
|
|
<trkpt lat="55.561050" lon="8.166004">
|
|
<ele>6.793265</ele>
|
|
<time>2026-07-11T14:30:11.000Z</time>
|
|
</trkpt>
|
|
<trkpt lat="55.561084" lon="8.166101">
|
|
<ele>6.783861</ele>
|
|
<time>2026-07-11T14:30:12.000Z</time>
|
|
</trkpt>
|
|
<trkpt lat="55.561118" lon="8.166195">
|
|
<ele>6.772550</ele>
|
|
<time>2026-07-11T14:30:13.000Z</time>
|
|
</trkpt>
|
|
<trkpt lat="55.561152" lon="8.166292">
|
|
<ele>6.757643</ele>
|
|
<time>2026-07-11T14:30:14.000Z</time>
|
|
</trkpt>
|
|
<trkpt lat="55.561188" lon="8.166391">
|
|
<ele>6.742269</ele>
|
|
<time>2026-07-11T14:30:15.000Z</time>
|
|
</trkpt>
|
|
<trkpt lat="55.561224" lon="8.166493">
|
|
<ele>6.726564</ele>
|
|
<time>2026-07-11T14:30:16.000Z</time>
|
|
</trkpt>
|
|
<trkpt lat="55.561261" lon="8.166595">
|
|
<ele>6.710735</ele>
|
|
<time>2026-07-11T14:30:17.000Z</time>
|
|
</trkpt>
|
|
<trkpt lat="55.561297" lon="8.166696">
|
|
<ele>6.695141</ele>
|
|
<time>2026-07-11T14:30:18.000Z</time>
|
|
</trkpt>
|
|
<trkpt lat="55.561335" lon="8.166796">
|
|
<ele>6.679404</ele>
|
|
<time>2026-07-11T14:30:19.000Z</time>
|
|
</trkpt>
|
|
<trkpt lat="55.561376" lon="8.166895">
|
|
<ele>6.663376</ele>
|
|
<time>2026-07-11T14:30:20.000Z</time>
|
|
</trkpt>
|
|
<trkpt lat="55.561414" lon="8.166993">
|
|
<ele>6.647855</ele>
|
|
<time>2026-07-11T14:30:21.000Z</time>
|
|
</trkpt>
|
|
<trkpt lat="55.561452" lon="8.167089">
|
|
<ele>6.632549</ele>
|
|
<time>2026-07-11T14:30:22.000Z</time>
|
|
</trkpt>
|
|
<trkpt lat="55.561488" lon="8.167180">
|
|
<ele>6.618042</ele>
|
|
<time>2026-07-11T14:30:23.000Z</time>
|
|
</trkpt>
|
|
<trkpt lat="55.561525" lon="8.167268">
|
|
<ele>6.603719</ele>
|
|
<time>2026-07-11T14:30:24.000Z</time>
|
|
</trkpt>
|
|
<trkpt lat="55.561564" lon="8.167356">
|
|
<ele>6.589115</ele>
|
|
<time>2026-07-11T14:30:25.000Z</time>
|
|
</trkpt>
|
|
<trkpt lat="55.561602" lon="8.167445">
|
|
<ele>6.574549</ele>
|
|
<time>2026-07-11T14:30:26.000Z</time>
|
|
</trkpt>
|
|
<trkpt lat="55.561644" lon="8.167535">
|
|
<ele>6.559307</ele>
|
|
<time>2026-07-11T14:30:27.000Z</time>
|
|
</trkpt>
|
|
<trkpt lat="55.561685" lon="8.167627">
|
|
<ele>6.544007</ele>
|
|
<time>2026-07-11T14:30:28.000Z</time>
|
|
</trkpt>
|
|
<trkpt lat="55.561724" lon="8.167717">
|
|
<ele>6.529197</ele>
|
|
<time>2026-07-11T14:30:29.000Z</time>
|
|
</trkpt>
|
|
<trkpt lat="55.561764" lon="8.167809">
|
|
<ele>6.514039</ele>
|
|
<time>2026-07-11T14:30:30.000Z</time>
|
|
</trkpt>
|
|
<trkpt lat="55.561803" lon="8.167900">
|
|
<ele>6.499125</ele>
|
|
<time>2026-07-11T14:30:31.000Z</time>
|
|
</trkpt>
|
|
<trkpt lat="55.561846" lon="8.167994">
|
|
<ele>6.483333</ele>
|
|
<time>2026-07-11T14:30:32.000Z</time>
|
|
</trkpt>
|
|
<trkpt lat="55.561889" lon="8.168087">
|
|
<ele>6.467642</ele>
|
|
<time>2026-07-11T14:30:33.000Z</time>
|
|
</trkpt>
|
|
<trkpt lat="55.561933" lon="8.168179">
|
|
<ele>6.451903</ele>
|
|
<time>2026-07-11T14:30:34.000Z</time>
|
|
</trkpt>
|
|
<trkpt lat="55.561978" lon="8.168273">
|
|
<ele>6.435817</ele>
|
|
<time>2026-07-11T14:30:35.000Z</time>
|
|
</trkpt>
|
|
<trkpt lat="55.562023" lon="8.168365">
|
|
<ele>6.419928</ele>
|
|
<time>2026-07-11T14:30:36.000Z</time>
|
|
</trkpt>
|
|
<trkpt lat="55.562068" lon="8.168459">
|
|
<ele>6.403841</ele>
|
|
<time>2026-07-11T14:30:37.000Z</time>
|
|
</trkpt>
|
|
<trkpt lat="55.562110" lon="8.168551">
|
|
<ele>6.388398</ele>
|
|
<time>2026-07-11T14:30:38.000Z</time>
|
|
</trkpt>
|
|
<trkpt lat="55.562152" lon="8.168640">
|
|
<ele>6.373257</ele>
|
|
<time>2026-07-11T14:30:39.000Z</time>
|
|
</trkpt>
|
|
<trkpt lat="55.562195" lon="8.168723">
|
|
<ele>6.367720</ele>
|
|
<time>2026-07-11T14:30:40.000Z</time>
|
|
</trkpt>
|
|
<trkpt lat="55.562238" lon="8.168805">
|
|
<ele>6.384314</ele>
|
|
<time>2026-07-11T14:30:41.000Z</time>
|
|
</trkpt>
|
|
<trkpt lat="55.562279" lon="8.168893">
|
|
<ele>6.401234</ele>
|
|
<time>2026-07-11T14:30:42.000Z</time>
|
|
</trkpt>
|
|
<trkpt lat="55.562318" lon="8.168980">
|
|
<ele>6.417708</ele>
|
|
<time>2026-07-11T14:30:43.000Z</time>
|
|
</trkpt>
|
|
<trkpt lat="55.562358" lon="8.169065">
|
|
<ele>6.434117</ele>
|
|
<time>2026-07-11T14:30:44.000Z</time>
|
|
</trkpt>
|
|
<trkpt lat="55.562400" lon="8.169152">
|
|
<ele>6.451091</ele>
|
|
<time>2026-07-11T14:30:45.000Z</time>
|
|
</trkpt>
|
|
<trkpt lat="55.562441" lon="8.169240">
|
|
<ele>6.468010</ele>
|
|
<time>2026-07-11T14:30:46.000Z</time>
|
|
</trkpt>
|
|
<trkpt lat="55.562485" lon="8.169330">
|
|
<ele>6.485664</ele>
|
|
<time>2026-07-11T14:30:47.000Z</time>
|
|
</trkpt>
|
|
<trkpt lat="55.562528" lon="8.169417">
|
|
<ele>6.502810</ele>
|
|
<time>2026-07-11T14:30:48.000Z</time>
|
|
</trkpt>
|
|
<trkpt lat="55.562568" lon="8.169499">
|
|
<ele>6.518879</ele>
|
|
<time>2026-07-11T14:30:49.000Z</time>
|
|
</trkpt>
|
|
<trkpt lat="55.562609" lon="8.169583">
|
|
<ele>6.535345</ele>
|
|
<time>2026-07-11T14:30:50.000Z</time>
|
|
</trkpt>
|
|
<trkpt lat="55.562649" lon="8.169667">
|
|
<ele>6.551640</ele>
|
|
<time>2026-07-11T14:30:51.000Z</time>
|
|
</trkpt>
|
|
<trkpt lat="55.562687" lon="8.169751">
|
|
<ele>6.567602</ele>
|
|
<time>2026-07-11T14:30:52.000Z</time>
|
|
</trkpt>
|
|
<trkpt lat="55.562727" lon="8.169833">
|
|
<ele>6.583672</ele>
|
|
<time>2026-07-11T14:30:53.000Z</time>
|
|
</trkpt>
|
|
<trkpt lat="55.562768" lon="8.169913">
|
|
<ele>6.599693</ele>
|
|
<time>2026-07-11T14:30:54.000Z</time>
|
|
</trkpt>
|
|
<trkpt lat="55.562806" lon="8.169996">
|
|
<ele>6.615539</ele>
|
|
<time>2026-07-11T14:30:55.000Z</time>
|
|
</trkpt>
|
|
<trkpt lat="55.562844" lon="8.170082">
|
|
<ele>6.631734</ele>
|
|
<time>2026-07-11T14:30:56.000Z</time>
|
|
</trkpt>
|
|
<trkpt lat="55.562884" lon="8.170171">
|
|
<ele>6.648604</ele>
|
|
<time>2026-07-11T14:30:57.000Z</time>
|
|
</trkpt>
|
|
<trkpt lat="55.562924" lon="8.170261">
|
|
<ele>6.665590</ele>
|
|
<time>2026-07-11T14:30:58.000Z</time>
|
|
</trkpt>
|
|
<trkpt lat="55.562964" lon="8.170352">
|
|
<ele>6.682692</ele>
|
|
<time>2026-07-11T14:30:59.000Z</time>
|
|
</trkpt>
|
|
<trkpt lat="55.563005" lon="8.170442">
|
|
<ele>6.699842</ele>
|
|
<time>2026-07-11T14:31:00.000Z</time>
|
|
</trkpt>
|
|
<trkpt lat="55.563043" lon="8.170530">
|
|
<ele>6.716271</ele>
|
|
<time>2026-07-11T14:31:01.000Z</time>
|
|
</trkpt>
|
|
<trkpt lat="55.563083" lon="8.170621">
|
|
<ele>6.733374</ele>
|
|
<time>2026-07-11T14:31:02.000Z</time>
|
|
</trkpt>
|
|
<trkpt lat="55.563122" lon="8.170718">
|
|
<ele>6.751035</ele>
|
|
<time>2026-07-11T14:31:03.000Z</time>
|
|
</trkpt>
|
|
<trkpt lat="55.563161" lon="8.170815">
|
|
<ele>6.768696</ele>
|
|
<time>2026-07-11T14:31:04.000Z</time>
|
|
</trkpt>
|
|
<trkpt lat="55.563196" lon="8.170909">
|
|
<ele>6.785396</ele>
|
|
<time>2026-07-11T14:31:05.000Z</time>
|
|
</trkpt>
|
|
<trkpt lat="55.563229" lon="8.171002">
|
|
<ele>6.801688</ele>
|
|
<time>2026-07-11T14:31:06.000Z</time>
|
|
</trkpt>
|
|
<trkpt lat="55.563265" lon="8.171099">
|
|
<ele>6.818904</ele>
|
|
<time>2026-07-11T14:31:07.000Z</time>
|
|
</trkpt>
|
|
<trkpt lat="55.563300" lon="8.171199">
|
|
<ele>6.835227</ele>
|
|
<time>2026-07-11T14:31:08.000Z</time>
|
|
</trkpt>
|
|
<trkpt lat="55.563334" lon="8.171302">
|
|
<ele>6.840005</ele>
|
|
<time>2026-07-11T14:31:09.000Z</time>
|
|
</trkpt>
|
|
<trkpt lat="55.563367" lon="8.171404">
|
|
<ele>6.844713</ele>
|
|
<time>2026-07-11T14:31:10.000Z</time>
|
|
</trkpt>
|
|
<trkpt lat="55.563401" lon="8.171504">
|
|
<ele>6.849387</ele>
|
|
<time>2026-07-11T14:31:11.000Z</time>
|
|
</trkpt>
|
|
<trkpt lat="55.563435" lon="8.171603">
|
|
<ele>6.854028</ele>
|
|
<time>2026-07-11T14:31:12.000Z</time>
|
|
</trkpt>
|
|
<trkpt lat="55.563467" lon="8.171704">
|
|
<ele>6.858666</ele>
|
|
<time>2026-07-11T14:31:13.000Z</time>
|
|
</trkpt>
|
|
<trkpt lat="55.563501" lon="8.171807">
|
|
<ele>6.863444</ele>
|
|
<time>2026-07-11T14:31:14.000Z</time>
|
|
</trkpt>
|
|
<trkpt lat="55.563533" lon="8.171909">
|
|
<ele>6.868116</ele>
|
|
<time>2026-07-11T14:31:15.000Z</time>
|
|
</trkpt>
|
|
<trkpt lat="55.563564" lon="8.172012">
|
|
<ele>6.872791</ele>
|
|
<time>2026-07-11T14:31:16.000Z</time>
|
|
</trkpt>
|
|
<trkpt lat="55.563592" lon="8.172116">
|
|
<ele>6.877405</ele>
|
|
<time>2026-07-11T14:31:17.000Z</time>
|
|
</trkpt>
|
|
<trkpt lat="55.563621" lon="8.172224">
|
|
<ele>6.882195</ele>
|
|
<time>2026-07-11T14:31:18.000Z</time>
|
|
</trkpt>
|
|
<trkpt lat="55.563647" lon="8.172334">
|
|
<ele>6.886971</ele>
|
|
<time>2026-07-11T14:31:19.000Z</time>
|
|
</trkpt>
|
|
<trkpt lat="55.563678" lon="8.172444">
|
|
<ele>6.891895</ele>
|
|
<time>2026-07-11T14:31:20.000Z</time>
|
|
</trkpt>
|
|
<trkpt lat="55.563711" lon="8.172550">
|
|
<ele>6.896742</ele>
|
|
<time>2026-07-11T14:31:21.000Z</time>
|
|
</trkpt>
|
|
<trkpt lat="55.563741" lon="8.172656">
|
|
<ele>6.901491</ele>
|
|
<time>2026-07-11T14:31:22.000Z</time>
|
|
</trkpt>
|
|
<trkpt lat="55.563772" lon="8.172761">
|
|
<ele>6.906236</ele>
|
|
<time>2026-07-11T14:31:23.000Z</time>
|
|
</trkpt>
|
|
<trkpt lat="55.563802" lon="8.172864">
|
|
<ele>6.910877</ele>
|
|
<time>2026-07-11T14:31:24.000Z</time>
|
|
</trkpt>
|
|
<trkpt lat="55.563833" lon="8.172967">
|
|
<ele>6.915552</ele>
|
|
<time>2026-07-11T14:31:25.000Z</time>
|
|
</trkpt>
|
|
<trkpt lat="55.563865" lon="8.173067">
|
|
<ele>6.920155</ele>
|
|
<time>2026-07-11T14:31:26.000Z</time>
|
|
</trkpt>
|
|
<trkpt lat="55.563892" lon="8.173159">
|
|
<ele>6.924307</ele>
|
|
<time>2026-07-11T14:31:27.000Z</time>
|
|
</trkpt>
|
|
<trkpt lat="55.563919" lon="8.173248">
|
|
<ele>6.928353</ele>
|
|
<time>2026-07-11T14:31:28.000Z</time>
|
|
</trkpt>
|
|
<trkpt lat="55.563945" lon="8.173336">
|
|
<ele>6.932331</ele>
|
|
<time>2026-07-11T14:31:29.000Z</time>
|
|
</trkpt>
|
|
<trkpt lat="55.563974" lon="8.173421">
|
|
<ele>6.936308</ele>
|
|
<time>2026-07-11T14:31:30.000Z</time>
|
|
</trkpt>
|
|
<trkpt lat="55.564003" lon="8.173509">
|
|
<ele>6.940388</ele>
|
|
<time>2026-07-11T14:31:31.000Z</time>
|
|
</trkpt>
|
|
<trkpt lat="55.564029" lon="8.173597">
|
|
<ele>6.944365</ele>
|
|
<time>2026-07-11T14:31:32.000Z</time>
|
|
</trkpt>
|
|
<trkpt lat="55.564057" lon="8.173683">
|
|
<ele>6.948341</ele>
|
|
<time>2026-07-11T14:31:33.000Z</time>
|
|
</trkpt>
|
|
<trkpt lat="55.564086" lon="8.173774">
|
|
<ele>6.952525</ele>
|
|
<time>2026-07-11T14:31:34.000Z</time>
|
|
</trkpt>
|
|
<trkpt lat="55.564116" lon="8.173870">
|
|
<ele>6.956919</ele>
|
|
<time>2026-07-11T14:31:35.000Z</time>
|
|
</trkpt>
|
|
<trkpt lat="55.564149" lon="8.173965">
|
|
<ele>6.961386</ele>
|
|
<time>2026-07-11T14:31:36.000Z</time>
|
|
</trkpt>
|
|
<trkpt lat="55.564181" lon="8.174060">
|
|
<ele>6.981772</ele>
|
|
<time>2026-07-11T14:31:37.000Z</time>
|
|
</trkpt>
|
|
<trkpt lat="55.564215" lon="8.174149">
|
|
<ele>7.005230</ele>
|
|
<time>2026-07-11T14:31:38.000Z</time>
|
|
</trkpt>
|
|
<trkpt lat="55.564252" lon="8.174242">
|
|
<ele>7.030066</ele>
|
|
<time>2026-07-11T14:31:39.000Z</time>
|
|
</trkpt>
|
|
<trkpt lat="55.564288" lon="8.174337">
|
|
<ele>7.055043</ele>
|
|
<time>2026-07-11T14:31:40.000Z</time>
|
|
</trkpt>
|
|
<trkpt lat="55.564324" lon="8.174432">
|
|
<ele>7.080020</ele>
|
|
<time>2026-07-11T14:31:41.000Z</time>
|
|
</trkpt>
|
|
<trkpt lat="55.564361" lon="8.174522">
|
|
<ele>7.104323</ele>
|
|
<time>2026-07-11T14:31:42.000Z</time>
|
|
</trkpt>
|
|
<trkpt lat="55.564397" lon="8.174610">
|
|
<ele>7.128045</ele>
|
|
<time>2026-07-11T14:31:43.000Z</time>
|
|
</trkpt>
|
|
<trkpt lat="55.564437" lon="8.174697">
|
|
<ele>7.152535</ele>
|
|
<time>2026-07-11T14:31:44.000Z</time>
|
|
</trkpt>
|
|
<trkpt lat="55.564475" lon="8.174792">
|
|
<ele>7.177950</ele>
|
|
<time>2026-07-11T14:31:45.000Z</time>
|
|
</trkpt>
|
|
<trkpt lat="55.564510" lon="8.174893">
|
|
<ele>7.203822</ele>
|
|
<time>2026-07-11T14:31:46.000Z</time>
|
|
</trkpt>
|
|
<trkpt lat="55.564547" lon="8.174998">
|
|
<ele>7.230843</ele>
|
|
<time>2026-07-11T14:31:47.000Z</time>
|
|
</trkpt>
|
|
<trkpt lat="55.564580" lon="8.175103">
|
|
<ele>7.257080</ele>
|
|
<time>2026-07-11T14:31:48.000Z</time>
|
|
</trkpt>
|
|
<trkpt lat="55.564611" lon="8.175203">
|
|
<ele>7.281988</ele>
|
|
<time>2026-07-11T14:31:49.000Z</time>
|
|
</trkpt>
|
|
<trkpt lat="55.564642" lon="8.175294">
|
|
<ele>7.305191</ele>
|
|
<time>2026-07-11T14:31:50.000Z</time>
|
|
</trkpt>
|
|
<trkpt lat="55.564677" lon="8.175384">
|
|
<ele>7.329047</ele>
|
|
<time>2026-07-11T14:31:51.000Z</time>
|
|
</trkpt>
|
|
<trkpt lat="55.564711" lon="8.175477">
|
|
<ele>7.353235</ele>
|
|
<time>2026-07-11T14:31:52.000Z</time>
|
|
</trkpt>
|
|
<trkpt lat="55.564748" lon="8.175575">
|
|
<ele>7.378971</ele>
|
|
<time>2026-07-11T14:31:53.000Z</time>
|
|
</trkpt>
|
|
<trkpt lat="55.564782" lon="8.175671">
|
|
<ele>7.403711</ele>
|
|
<time>2026-07-11T14:31:54.000Z</time>
|
|
</trkpt>
|
|
<trkpt lat="55.564814" lon="8.175767">
|
|
<ele>7.428050</ele>
|
|
<time>2026-07-11T14:31:55.000Z</time>
|
|
</trkpt>
|
|
<trkpt lat="55.564849" lon="8.175863">
|
|
<ele>7.452997</ele>
|
|
<time>2026-07-11T14:31:56.000Z</time>
|
|
</trkpt>
|
|
<trkpt lat="55.564883" lon="8.175957">
|
|
<ele>7.477368</ele>
|
|
<time>2026-07-11T14:31:57.000Z</time>
|
|
</trkpt>
|
|
<trkpt lat="55.564916" lon="8.176048">
|
|
<ele>7.500979</ele>
|
|
<time>2026-07-11T14:31:58.000Z</time>
|
|
</trkpt>
|
|
<trkpt lat="55.564946" lon="8.176141">
|
|
<ele>7.524363</ele>
|
|
<time>2026-07-11T14:31:59.000Z</time>
|
|
</trkpt>
|
|
<trkpt lat="55.564977" lon="8.176235">
|
|
<ele>7.548130</ele>
|
|
<time>2026-07-11T14:32:00.000Z</time>
|
|
</trkpt>
|
|
<trkpt lat="55.565011" lon="8.176328">
|
|
<ele>7.572317</ele>
|
|
<time>2026-07-11T14:32:01.000Z</time>
|
|
</trkpt>
|
|
<trkpt lat="55.565049" lon="8.176416">
|
|
<ele>7.596500</ele>
|
|
<time>2026-07-11T14:32:02.000Z</time>
|
|
</trkpt>
|
|
<trkpt lat="55.565089" lon="8.176503">
|
|
<ele>7.620990</ele>
|
|
<time>2026-07-11T14:32:03.000Z</time>
|
|
</trkpt>
|
|
<trkpt lat="55.565131" lon="8.176586">
|
|
<ele>7.645316</ele>
|
|
<time>2026-07-11T14:32:04.000Z</time>
|
|
</trkpt>
|
|
<trkpt lat="55.565171" lon="8.176670">
|
|
<ele>7.667787</ele>
|
|
<time>2026-07-11T14:32:05.000Z</time>
|
|
</trkpt>
|
|
<trkpt lat="55.565209" lon="8.176755">
|
|
<ele>7.688555</ele>
|
|
<time>2026-07-11T14:32:06.000Z</time>
|
|
</trkpt>
|
|
<trkpt lat="55.565249" lon="8.176842">
|
|
<ele>7.710046</ele>
|
|
<time>2026-07-11T14:32:07.000Z</time>
|
|
</trkpt>
|
|
<trkpt lat="55.565289" lon="8.176935">
|
|
<ele>7.732442</ele>
|
|
<time>2026-07-11T14:32:08.000Z</time>
|
|
</trkpt>
|
|
<trkpt lat="55.565326" lon="8.177023">
|
|
<ele>7.753460</ele>
|
|
<time>2026-07-11T14:32:09.000Z</time>
|
|
</trkpt>
|
|
<trkpt lat="55.565359" lon="8.177109">
|
|
<ele>7.773380</ele>
|
|
<time>2026-07-11T14:32:10.000Z</time>
|
|
</trkpt>
|
|
<trkpt lat="55.565389" lon="8.177192">
|
|
<ele>7.792260</ele>
|
|
<time>2026-07-11T14:32:11.000Z</time>
|
|
</trkpt>
|
|
<trkpt lat="55.565422" lon="8.177277">
|
|
<ele>7.812022</ele>
|
|
<time>2026-07-11T14:32:12.000Z</time>
|
|
</trkpt>
|
|
<trkpt lat="55.565455" lon="8.177360">
|
|
<ele>7.831469</ele>
|
|
<time>2026-07-11T14:32:13.000Z</time>
|
|
</trkpt>
|
|
<trkpt lat="55.565489" lon="8.177444">
|
|
<ele>7.851268</ele>
|
|
<time>2026-07-11T14:32:14.000Z</time>
|
|
</trkpt>
|
|
<trkpt lat="55.565524" lon="8.177530">
|
|
<ele>7.871577</ele>
|
|
<time>2026-07-11T14:32:15.000Z</time>
|
|
</trkpt>
|
|
<trkpt lat="55.565559" lon="8.177612">
|
|
<ele>7.891268</ele>
|
|
<time>2026-07-11T14:32:16.000Z</time>
|
|
</trkpt>
|
|
<trkpt lat="55.565597" lon="8.177699">
|
|
<ele>7.912338</ele>
|
|
<time>2026-07-11T14:32:17.000Z</time>
|
|
</trkpt>
|
|
<trkpt lat="55.565629" lon="8.177784">
|
|
<ele>7.931910</ele>
|
|
<time>2026-07-11T14:32:18.000Z</time>
|
|
</trkpt>
|
|
<trkpt lat="55.565661" lon="8.177869">
|
|
<ele>7.951482</ele>
|
|
<time>2026-07-11T14:32:19.000Z</time>
|
|
</trkpt>
|
|
<trkpt lat="55.565696" lon="8.177951">
|
|
<ele>7.971173</ele>
|
|
<time>2026-07-11T14:32:20.000Z</time>
|
|
</trkpt>
|
|
<trkpt lat="55.565729" lon="8.178034">
|
|
<ele>7.990620</ele>
|
|
<time>2026-07-11T14:32:21.000Z</time>
|
|
</trkpt>
|
|
<trkpt lat="55.565759" lon="8.178120">
|
|
<ele>8.009987</ele>
|
|
<time>2026-07-11T14:32:22.000Z</time>
|
|
</trkpt>
|
|
<trkpt lat="55.565791" lon="8.178206">
|
|
<ele>8.029719</ele>
|
|
<time>2026-07-11T14:32:23.000Z</time>
|
|
</trkpt>
|
|
<trkpt lat="55.565824" lon="8.178290">
|
|
<ele>8.049323</ele>
|
|
<time>2026-07-11T14:32:24.000Z</time>
|
|
</trkpt>
|
|
<trkpt lat="55.565856" lon="8.178374">
|
|
<ele>8.068735</ele>
|
|
<time>2026-07-11T14:32:25.000Z</time>
|
|
</trkpt>
|
|
<trkpt lat="55.565891" lon="8.178462">
|
|
<ele>8.089356</ele>
|
|
<time>2026-07-11T14:32:26.000Z</time>
|
|
</trkpt>
|
|
<trkpt lat="55.565925" lon="8.178546">
|
|
<ele>8.109155</ele>
|
|
<time>2026-07-11T14:32:27.000Z</time>
|
|
</trkpt>
|
|
<trkpt lat="55.565959" lon="8.178630">
|
|
<ele>8.128954</ele>
|
|
<time>2026-07-11T14:32:28.000Z</time>
|
|
</trkpt>
|
|
<trkpt lat="55.565994" lon="8.178715">
|
|
<ele>8.149107</ele>
|
|
<time>2026-07-11T14:32:29.000Z</time>
|
|
</trkpt>
|
|
<trkpt lat="55.566030" lon="8.178798">
|
|
<ele>8.169156</ele>
|
|
<time>2026-07-11T14:32:30.000Z</time>
|
|
</trkpt>
|
|
<trkpt lat="55.566067" lon="8.178881">
|
|
<ele>8.189413</ele>
|
|
<time>2026-07-11T14:32:31.000Z</time>
|
|
</trkpt>
|
|
<trkpt lat="55.566101" lon="8.178962">
|
|
<ele>8.208748</ele>
|
|
<time>2026-07-11T14:32:32.000Z</time>
|
|
</trkpt>
|
|
<trkpt lat="55.566133" lon="8.179045">
|
|
<ele>8.228002</ele>
|
|
<time>2026-07-11T14:32:33.000Z</time>
|
|
</trkpt>
|
|
<trkpt lat="55.566163" lon="8.179128">
|
|
<ele>8.246882</ele>
|
|
<time>2026-07-11T14:32:34.000Z</time>
|
|
</trkpt>
|
|
<trkpt lat="55.566192" lon="8.179215">
|
|
<ele>8.266238</ele>
|
|
<time>2026-07-11T14:32:35.000Z</time>
|
|
</trkpt>
|
|
<trkpt lat="55.566224" lon="8.179315">
|
|
<ele>8.267951</ele>
|
|
<time>2026-07-11T14:32:36.000Z</time>
|
|
</trkpt>
|
|
<trkpt lat="55.566255" lon="8.179412">
|
|
<ele>8.269293</ele>
|
|
<time>2026-07-11T14:32:37.000Z</time>
|
|
</trkpt>
|
|
<trkpt lat="55.566285" lon="8.179507">
|
|
<ele>8.270605</ele>
|
|
<time>2026-07-11T14:32:38.000Z</time>
|
|
</trkpt>
|
|
<trkpt lat="55.566316" lon="8.179605">
|
|
<ele>8.271958</ele>
|
|
<time>2026-07-11T14:32:39.000Z</time>
|
|
</trkpt>
|
|
<trkpt lat="55.566348" lon="8.179703">
|
|
<ele>8.273321</ele>
|
|
<time>2026-07-11T14:32:40.000Z</time>
|
|
</trkpt>
|
|
<trkpt lat="55.566380" lon="8.179801">
|
|
<ele>8.274685</ele>
|
|
<time>2026-07-11T14:32:41.000Z</time>
|
|
</trkpt>
|
|
<trkpt lat="55.566408" lon="8.179899">
|
|
<ele>8.276008</ele>
|
|
<time>2026-07-11T14:32:42.000Z</time>
|
|
</trkpt>
|
|
<trkpt lat="55.566438" lon="8.179995">
|
|
<ele>8.277329</ele>
|
|
<time>2026-07-11T14:32:43.000Z</time>
|
|
</trkpt>
|
|
<trkpt lat="55.566468" lon="8.180088">
|
|
<ele>8.278619</ele>
|
|
<time>2026-07-11T14:32:44.000Z</time>
|
|
</trkpt>
|
|
<trkpt lat="55.566497" lon="8.180184">
|
|
<ele>8.279931</ele>
|
|
<time>2026-07-11T14:32:45.000Z</time>
|
|
</trkpt>
|
|
<trkpt lat="55.566525" lon="8.180284">
|
|
<ele>8.281275</ele>
|
|
<time>2026-07-11T14:32:46.000Z</time>
|
|
</trkpt>
|
|
<trkpt lat="55.566551" lon="8.180381">
|
|
<ele>8.282569</ele>
|
|
<time>2026-07-11T14:32:47.000Z</time>
|
|
</trkpt>
|
|
<trkpt lat="55.566579" lon="8.180475">
|
|
<ele>8.283849</ele>
|
|
<time>2026-07-11T14:32:48.000Z</time>
|
|
</trkpt>
|
|
<trkpt lat="55.566610" lon="8.180572">
|
|
<ele>8.285192</ele>
|
|
<time>2026-07-11T14:32:49.000Z</time>
|
|
</trkpt>
|
|
<trkpt lat="55.566641" lon="8.180666">
|
|
<ele>8.286503</ele>
|
|
<time>2026-07-11T14:32:50.000Z</time>
|
|
</trkpt>
|
|
<trkpt lat="55.566670" lon="8.180759">
|
|
<ele>8.287782</ele>
|
|
<time>2026-07-11T14:32:51.000Z</time>
|
|
</trkpt>
|
|
<trkpt lat="55.566696" lon="8.180850">
|
|
<ele>8.289011</ele>
|
|
<time>2026-07-11T14:32:52.000Z</time>
|
|
</trkpt>
|
|
<trkpt lat="55.566724" lon="8.180943">
|
|
<ele>8.290280</ele>
|
|
<time>2026-07-11T14:32:53.000Z</time>
|
|
</trkpt>
|
|
<trkpt lat="55.566753" lon="8.181039">
|
|
<ele>8.291592</ele>
|
|
<time>2026-07-11T14:32:54.000Z</time>
|
|
</trkpt>
|
|
<trkpt lat="55.566782" lon="8.181135">
|
|
<ele>8.292903</ele>
|
|
<time>2026-07-11T14:32:55.000Z</time>
|
|
</trkpt>
|
|
<trkpt lat="55.566812" lon="8.181232">
|
|
<ele>8.294236</ele>
|
|
<time>2026-07-11T14:32:56.000Z</time>
|
|
</trkpt>
|
|
<trkpt lat="55.566841" lon="8.181331">
|
|
<ele>8.295579</ele>
|
|
<time>2026-07-11T14:32:57.000Z</time>
|
|
</trkpt>
|
|
<trkpt lat="55.566870" lon="8.181430">
|
|
<ele>8.296922</ele>
|
|
<time>2026-07-11T14:32:58.000Z</time>
|
|
</trkpt>
|
|
<trkpt lat="55.566899" lon="8.181526">
|
|
<ele>8.298234</ele>
|
|
<time>2026-07-11T14:32:59.000Z</time>
|
|
</trkpt>
|
|
<trkpt lat="55.566926" lon="8.181618">
|
|
<ele>8.299483</ele>
|
|
<time>2026-07-11T14:33:00.000Z</time>
|
|
</trkpt>
|
|
<trkpt lat="55.566956" lon="8.181712">
|
|
<ele>8.300783</ele>
|
|
<time>2026-07-11T14:33:01.000Z</time>
|
|
</trkpt>
|
|
<trkpt lat="55.566987" lon="8.181811">
|
|
<ele>8.302147</ele>
|
|
<time>2026-07-11T14:33:02.000Z</time>
|
|
</trkpt>
|
|
<trkpt lat="55.567016" lon="8.181909">
|
|
<ele>8.303480</ele>
|
|
<time>2026-07-11T14:33:03.000Z</time>
|
|
</trkpt>
|
|
<trkpt lat="55.567045" lon="8.182006">
|
|
<ele>8.304802</ele>
|
|
<time>2026-07-11T14:33:04.000Z</time>
|
|
</trkpt>
|
|
<trkpt lat="55.567075" lon="8.182101">
|
|
<ele>8.323563</ele>
|
|
<time>2026-07-11T14:33:05.000Z</time>
|
|
</trkpt>
|
|
<trkpt lat="55.567104" lon="8.182198">
|
|
<ele>8.344161</ele>
|
|
<time>2026-07-11T14:33:06.000Z</time>
|
|
</trkpt>
|
|
<trkpt lat="55.567133" lon="8.182297">
|
|
<ele>8.365092</ele>
|
|
<time>2026-07-11T14:33:07.000Z</time>
|
|
</trkpt>
|
|
<trkpt lat="55.567162" lon="8.182395">
|
|
<ele>8.385856</ele>
|
|
<time>2026-07-11T14:33:08.000Z</time>
|
|
</trkpt>
|
|
<trkpt lat="55.567190" lon="8.182491">
|
|
<ele>8.406134</ele>
|
|
<time>2026-07-11T14:33:09.000Z</time>
|
|
</trkpt>
|
|
<trkpt lat="55.567218" lon="8.182586">
|
|
<ele>8.426245</ele>
|
|
<time>2026-07-11T14:33:10.000Z</time>
|
|
</trkpt>
|
|
<trkpt lat="55.567247" lon="8.182682">
|
|
<ele>8.446677</ele>
|
|
<time>2026-07-11T14:33:11.000Z</time>
|
|
</trkpt>
|
|
<trkpt lat="55.567277" lon="8.182778">
|
|
<ele>8.467268</ele>
|
|
<time>2026-07-11T14:33:12.000Z</time>
|
|
</trkpt>
|
|
<trkpt lat="55.567307" lon="8.182874">
|
|
<ele>8.487859</ele>
|
|
<time>2026-07-11T14:33:13.000Z</time>
|
|
</trkpt>
|
|
<trkpt lat="55.567333" lon="8.182969">
|
|
<ele>8.507672</ele>
|
|
<time>2026-07-11T14:33:14.000Z</time>
|
|
</trkpt>
|
|
<trkpt lat="55.567360" lon="8.183064">
|
|
<ele>8.527632</ele>
|
|
<time>2026-07-11T14:33:15.000Z</time>
|
|
</trkpt>
|
|
<trkpt lat="55.567388" lon="8.183159">
|
|
<ele>8.547743</ele>
|
|
<time>2026-07-11T14:33:16.000Z</time>
|
|
</trkpt>
|
|
<trkpt lat="55.567417" lon="8.183253">
|
|
<ele>8.567845</ele>
|
|
<time>2026-07-11T14:33:17.000Z</time>
|
|
</trkpt>
|
|
<trkpt lat="55.567445" lon="8.183348">
|
|
<ele>8.587956</ele>
|
|
<time>2026-07-11T14:33:18.000Z</time>
|
|
</trkpt>
|
|
<trkpt lat="55.567474" lon="8.183445">
|
|
<ele>8.608554</ele>
|
|
<time>2026-07-11T14:33:19.000Z</time>
|
|
</trkpt>
|
|
<trkpt lat="55.567501" lon="8.183541">
|
|
<ele>8.628682</ele>
|
|
<time>2026-07-11T14:33:20.000Z</time>
|
|
</trkpt>
|
|
<trkpt lat="55.567526" lon="8.183637">
|
|
<ele>8.648523</ele>
|
|
<time>2026-07-11T14:33:21.000Z</time>
|
|
</trkpt>
|
|
<trkpt lat="55.567548" lon="8.183730">
|
|
<ele>8.667447</ele>
|
|
<time>2026-07-11T14:33:22.000Z</time>
|
|
</trkpt>
|
|
<trkpt lat="55.567570" lon="8.183822">
|
|
<ele>8.686199</ele>
|
|
<time>2026-07-11T14:33:23.000Z</time>
|
|
</trkpt>
|
|
<trkpt lat="55.567594" lon="8.183927">
|
|
<ele>8.707459</ele>
|
|
<time>2026-07-11T14:33:24.000Z</time>
|
|
</trkpt>
|
|
<trkpt lat="55.567616" lon="8.184026">
|
|
<ele>8.727428</ele>
|
|
<time>2026-07-11T14:33:25.000Z</time>
|
|
</trkpt>
|
|
<trkpt lat="55.567635" lon="8.184129">
|
|
<ele>8.747766</ele>
|
|
<time>2026-07-11T14:33:26.000Z</time>
|
|
</trkpt>
|
|
<trkpt lat="55.567654" lon="8.184232">
|
|
<ele>8.768104</ele>
|
|
<time>2026-07-11T14:33:27.000Z</time>
|
|
</trkpt>
|
|
<trkpt lat="55.567671" lon="8.184337">
|
|
<ele>8.788607</ele>
|
|
<time>2026-07-11T14:33:28.000Z</time>
|
|
</trkpt>
|
|
<trkpt lat="55.567685" lon="8.184442">
|
|
<ele>8.808859</ele>
|
|
<time>2026-07-11T14:33:29.000Z</time>
|
|
</trkpt>
|
|
<trkpt lat="55.567698" lon="8.184550">
|
|
<ele>8.829587</ele>
|
|
<time>2026-07-11T14:33:30.000Z</time>
|
|
</trkpt>
|
|
<trkpt lat="55.567714" lon="8.184663">
|
|
<ele>8.851455</ele>
|
|
<time>2026-07-11T14:33:31.000Z</time>
|
|
</trkpt>
|
|
<trkpt lat="55.567729" lon="8.184773">
|
|
<ele>8.872697</ele>
|
|
<time>2026-07-11T14:33:32.000Z</time>
|
|
</trkpt>
|
|
<trkpt lat="55.567744" lon="8.184883">
|
|
<ele>8.893938</ele>
|
|
<time>2026-07-11T14:33:33.000Z</time>
|
|
</trkpt>
|
|
<trkpt lat="55.567760" lon="8.184992">
|
|
<ele>8.891297</ele>
|
|
<time>2026-07-11T14:33:34.000Z</time>
|
|
</trkpt>
|
|
<trkpt lat="55.567775" lon="8.185103">
|
|
<ele>8.873574</ele>
|
|
<time>2026-07-11T14:33:35.000Z</time>
|
|
</trkpt>
|
|
<trkpt lat="55.567792" lon="8.185217">
|
|
<ele>8.855266</ele>
|
|
<time>2026-07-11T14:33:36.000Z</time>
|
|
</trkpt>
|
|
<trkpt lat="55.567809" lon="8.185332">
|
|
<ele>8.836807</ele>
|
|
<time>2026-07-11T14:33:37.000Z</time>
|
|
</trkpt>
|
|
<trkpt lat="55.567822" lon="8.185446">
|
|
<ele>8.818748</ele>
|
|
<time>2026-07-11T14:33:38.000Z</time>
|
|
</trkpt>
|
|
<trkpt lat="55.567835" lon="8.185561">
|
|
<ele>8.800536</ele>
|
|
<time>2026-07-11T14:33:39.000Z</time>
|
|
</trkpt>
|
|
<trkpt lat="55.567851" lon="8.185676">
|
|
<ele>8.782145</ele>
|
|
<time>2026-07-11T14:33:40.000Z</time>
|
|
</trkpt>
|
|
<trkpt lat="55.567866" lon="8.185789">
|
|
<ele>8.764120</ele>
|
|
<time>2026-07-11T14:33:41.000Z</time>
|
|
</trkpt>
|
|
<trkpt lat="55.567881" lon="8.185902">
|
|
<ele>8.746095</ele>
|
|
<time>2026-07-11T14:33:42.000Z</time>
|
|
</trkpt>
|
|
<trkpt lat="55.567897" lon="8.186014">
|
|
<ele>8.728156</ele>
|
|
<time>2026-07-11T14:33:43.000Z</time>
|
|
</trkpt>
|
|
<trkpt lat="55.567912" lon="8.186123">
|
|
<ele>8.710735</ele>
|
|
<time>2026-07-11T14:33:44.000Z</time>
|
|
</trkpt>
|
|
<trkpt lat="55.567927" lon="8.186231">
|
|
<ele>8.693465</ele>
|
|
<time>2026-07-11T14:33:45.000Z</time>
|
|
</trkpt>
|
|
<trkpt lat="55.567942" lon="8.186341">
|
|
<ele>8.675894</ele>
|
|
<time>2026-07-11T14:33:46.000Z</time>
|
|
</trkpt>
|
|
<trkpt lat="55.567958" lon="8.186454">
|
|
<ele>8.657804</ele>
|
|
<time>2026-07-11T14:33:47.000Z</time>
|
|
</trkpt>
|
|
<trkpt lat="55.567973" lon="8.186570">
|
|
<ele>8.639325</ele>
|
|
<time>2026-07-11T14:33:48.000Z</time>
|
|
</trkpt>
|
|
<trkpt lat="55.567988" lon="8.186688">
|
|
<ele>8.620544</ele>
|
|
<time>2026-07-11T14:33:49.000Z</time>
|
|
</trkpt>
|
|
<trkpt lat="55.568004" lon="8.186805">
|
|
<ele>8.601851</ele>
|
|
<time>2026-07-11T14:33:50.000Z</time>
|
|
</trkpt>
|
|
<trkpt lat="55.568020" lon="8.186919">
|
|
<ele>8.583611</ele>
|
|
<time>2026-07-11T14:33:51.000Z</time>
|
|
</trkpt>
|
|
<trkpt lat="55.568038" lon="8.187034">
|
|
<ele>8.565081</ele>
|
|
<time>2026-07-11T14:33:52.000Z</time>
|
|
</trkpt>
|
|
<trkpt lat="55.568055" lon="8.187148">
|
|
<ele>8.546772</ele>
|
|
<time>2026-07-11T14:33:53.000Z</time>
|
|
</trkpt>
|
|
<trkpt lat="55.568074" lon="8.187259">
|
|
<ele>8.528763</ele>
|
|
<time>2026-07-11T14:33:54.000Z</time>
|
|
</trkpt>
|
|
<trkpt lat="55.568090" lon="8.187372">
|
|
<ele>8.510673</ele>
|
|
<time>2026-07-11T14:33:55.000Z</time>
|
|
</trkpt>
|
|
<trkpt lat="55.568103" lon="8.187491">
|
|
<ele>8.491852</ele>
|
|
<time>2026-07-11T14:33:56.000Z</time>
|
|
</trkpt>
|
|
<trkpt lat="55.568116" lon="8.187611">
|
|
<ele>8.472878</ele>
|
|
<time>2026-07-11T14:33:57.000Z</time>
|
|
</trkpt>
|
|
<trkpt lat="55.568128" lon="8.187730">
|
|
<ele>8.454107</ele>
|
|
<time>2026-07-11T14:33:58.000Z</time>
|
|
</trkpt>
|
|
<trkpt lat="55.568141" lon="8.187851">
|
|
<ele>8.434981</ele>
|
|
<time>2026-07-11T14:33:59.000Z</time>
|
|
</trkpt>
|
|
<trkpt lat="55.568155" lon="8.187968">
|
|
<ele>8.416410</ele>
|
|
<time>2026-07-11T14:34:00.000Z</time>
|
|
</trkpt>
|
|
<trkpt lat="55.568166" lon="8.188085">
|
|
<ele>8.408724</ele>
|
|
<time>2026-07-11T14:34:01.000Z</time>
|
|
</trkpt>
|
|
<trkpt lat="55.568179" lon="8.188202">
|
|
<ele>8.409905</ele>
|
|
<time>2026-07-11T14:34:02.000Z</time>
|
|
</trkpt>
|
|
<trkpt lat="55.568193" lon="8.188318">
|
|
<ele>8.411078</ele>
|
|
<time>2026-07-11T14:34:03.000Z</time>
|
|
</trkpt>
|
|
<trkpt lat="55.568204" lon="8.188436">
|
|
<ele>8.412262</ele>
|
|
<time>2026-07-11T14:34:04.000Z</time>
|
|
</trkpt>
|
|
<trkpt lat="55.568217" lon="8.188552">
|
|
<ele>8.413432</ele>
|
|
<time>2026-07-11T14:34:05.000Z</time>
|
|
</trkpt>
|
|
<trkpt lat="55.568230" lon="8.188666">
|
|
<ele>8.414583</ele>
|
|
<time>2026-07-11T14:34:06.000Z</time>
|
|
</trkpt>
|
|
<trkpt lat="55.568243" lon="8.188780">
|
|
<ele>8.415734</ele>
|
|
<time>2026-07-11T14:34:07.000Z</time>
|
|
</trkpt>
|
|
<trkpt lat="55.568259" lon="8.188898">
|
|
<ele>8.416935</ele>
|
|
<time>2026-07-11T14:34:08.000Z</time>
|
|
</trkpt>
|
|
<trkpt lat="55.568273" lon="8.189006">
|
|
<ele>8.418032</ele>
|
|
<time>2026-07-11T14:34:09.000Z</time>
|
|
</trkpt>
|
|
<trkpt lat="55.568284" lon="8.189116">
|
|
<ele>8.419137</ele>
|
|
<time>2026-07-11T14:34:10.000Z</time>
|
|
</trkpt>
|
|
<trkpt lat="55.568296" lon="8.189229">
|
|
<ele>8.420275</ele>
|
|
<time>2026-07-11T14:34:11.000Z</time>
|
|
</trkpt>
|
|
<trkpt lat="55.568307" lon="8.189342">
|
|
<ele>8.421410</ele>
|
|
<time>2026-07-11T14:34:12.000Z</time>
|
|
</trkpt>
|
|
<trkpt lat="55.568318" lon="8.189454">
|
|
<ele>8.422535</ele>
|
|
<time>2026-07-11T14:34:13.000Z</time>
|
|
</trkpt>
|
|
<trkpt lat="55.568330" lon="8.189571">
|
|
<ele>8.423712</ele>
|
|
<time>2026-07-11T14:34:14.000Z</time>
|
|
</trkpt>
|
|
<trkpt lat="55.568343" lon="8.189686">
|
|
<ele>8.424872</ele>
|
|
<time>2026-07-11T14:34:15.000Z</time>
|
|
</trkpt>
|
|
<trkpt lat="55.568357" lon="8.189802">
|
|
<ele>8.426046</ele>
|
|
<time>2026-07-11T14:34:16.000Z</time>
|
|
</trkpt>
|
|
<trkpt lat="55.568370" lon="8.189915">
|
|
<ele>8.427188</ele>
|
|
<time>2026-07-11T14:34:17.000Z</time>
|
|
</trkpt>
|
|
<trkpt lat="55.568383" lon="8.190028">
|
|
<ele>8.428329</ele>
|
|
<time>2026-07-11T14:34:18.000Z</time>
|
|
</trkpt>
|
|
<trkpt lat="55.568395" lon="8.190146">
|
|
<ele>8.429515</ele>
|
|
<time>2026-07-11T14:34:19.000Z</time>
|
|
</trkpt>
|
|
<trkpt lat="55.568406" lon="8.190267">
|
|
<ele>8.430728</ele>
|
|
<time>2026-07-11T14:34:20.000Z</time>
|
|
</trkpt>
|
|
<trkpt lat="55.568416" lon="8.190389">
|
|
<ele>8.431948</ele>
|
|
<time>2026-07-11T14:34:21.000Z</time>
|
|
</trkpt>
|
|
<trkpt lat="55.568425" lon="8.190511">
|
|
<ele>8.433166</ele>
|
|
<time>2026-07-11T14:34:22.000Z</time>
|
|
</trkpt>
|
|
<trkpt lat="55.568435" lon="8.190627">
|
|
<ele>8.434327</ele>
|
|
<time>2026-07-11T14:34:23.000Z</time>
|
|
</trkpt>
|
|
<trkpt lat="55.568444" lon="8.190741">
|
|
<ele>8.435466</ele>
|
|
<time>2026-07-11T14:34:24.000Z</time>
|
|
</trkpt>
|
|
<trkpt lat="55.568454" lon="8.190859">
|
|
<ele>8.436647</ele>
|
|
<time>2026-07-11T14:34:25.000Z</time>
|
|
</trkpt>
|
|
<trkpt lat="55.568463" lon="8.190978">
|
|
<ele>8.437835</ele>
|
|
<time>2026-07-11T14:34:26.000Z</time>
|
|
</trkpt>
|
|
<trkpt lat="55.568472" lon="8.191099">
|
|
<ele>8.439043</ele>
|
|
<time>2026-07-11T14:34:27.000Z</time>
|
|
</trkpt>
|
|
<trkpt lat="55.568477" lon="8.191219">
|
|
<ele>8.432900</ele>
|
|
<time>2026-07-11T14:34:28.000Z</time>
|
|
</trkpt>
|
|
<trkpt lat="55.568485" lon="8.191338">
|
|
<ele>8.421113</ele>
|
|
<time>2026-07-11T14:34:29.000Z</time>
|
|
</trkpt>
|
|
<trkpt lat="55.568491" lon="8.191457">
|
|
<ele>8.409363</ele>
|
|
<time>2026-07-11T14:34:30.000Z</time>
|
|
</trkpt>
|
|
<trkpt lat="55.568496" lon="8.191573">
|
|
<ele>8.397921</ele>
|
|
<time>2026-07-11T14:34:31.000Z</time>
|
|
</trkpt>
|
|
<trkpt lat="55.568502" lon="8.191691">
|
|
<ele>8.386268</ele>
|
|
<time>2026-07-11T14:34:32.000Z</time>
|
|
</trkpt>
|
|
<trkpt lat="55.568504" lon="8.191812">
|
|
<ele>8.374363</ele>
|
|
<time>2026-07-11T14:34:33.000Z</time>
|
|
</trkpt>
|
|
<trkpt lat="55.568504" lon="8.191932">
|
|
<ele>8.362560</ele>
|
|
<time>2026-07-11T14:34:34.000Z</time>
|
|
</trkpt>
|
|
<trkpt lat="55.568506" lon="8.192053">
|
|
<ele>8.350655</ele>
|
|
<time>2026-07-11T14:34:35.000Z</time>
|
|
</trkpt>
|
|
<trkpt lat="55.568508" lon="8.192168">
|
|
<ele>8.339339</ele>
|
|
<time>2026-07-11T14:34:36.000Z</time>
|
|
</trkpt>
|
|
<trkpt lat="55.568510" lon="8.192282">
|
|
<ele>8.328121</ele>
|
|
<time>2026-07-11T14:34:37.000Z</time>
|
|
</trkpt>
|
|
<trkpt lat="55.568512" lon="8.192394">
|
|
<ele>8.317100</ele>
|
|
<time>2026-07-11T14:34:38.000Z</time>
|
|
</trkpt>
|
|
<trkpt lat="55.568512" lon="8.192507">
|
|
<ele>8.305986</ele>
|
|
<time>2026-07-11T14:34:39.000Z</time>
|
|
</trkpt>
|
|
<trkpt lat="55.568512" lon="8.192626">
|
|
<ele>8.294282</ele>
|
|
<time>2026-07-11T14:34:40.000Z</time>
|
|
</trkpt>
|
|
<trkpt lat="55.568512" lon="8.192746">
|
|
<ele>8.282480</ele>
|
|
<time>2026-07-11T14:34:41.000Z</time>
|
|
</trkpt>
|
|
<trkpt lat="55.568512" lon="8.192864">
|
|
<ele>8.270875</ele>
|
|
<time>2026-07-11T14:34:42.000Z</time>
|
|
</trkpt>
|
|
<trkpt lat="55.568512" lon="8.192980">
|
|
<ele>8.259466</ele>
|
|
<time>2026-07-11T14:34:43.000Z</time>
|
|
</trkpt>
|
|
<trkpt lat="55.568510" lon="8.193096">
|
|
<ele>8.248052</ele>
|
|
<time>2026-07-11T14:34:44.000Z</time>
|
|
</trkpt>
|
|
<trkpt lat="55.568508" lon="8.193213">
|
|
<ele>8.236539</ele>
|
|
<time>2026-07-11T14:34:45.000Z</time>
|
|
</trkpt>
|
|
<trkpt lat="55.568507" lon="8.193338">
|
|
<ele>8.224244</ele>
|
|
<time>2026-07-11T14:34:46.000Z</time>
|
|
</trkpt>
|
|
<trkpt lat="55.568506" lon="8.193465">
|
|
<ele>8.211752</ele>
|
|
<time>2026-07-11T14:34:47.000Z</time>
|
|
</trkpt>
|
|
<trkpt lat="55.568508" lon="8.193589">
|
|
<ele>8.199551</ele>
|
|
<time>2026-07-11T14:34:48.000Z</time>
|
|
</trkpt>
|
|
<trkpt lat="55.568508" lon="8.193710">
|
|
<ele>8.187650</ele>
|
|
<time>2026-07-11T14:34:49.000Z</time>
|
|
</trkpt>
|
|
<trkpt lat="55.568508" lon="8.193836">
|
|
<ele>8.175258</ele>
|
|
<time>2026-07-11T14:34:50.000Z</time>
|
|
</trkpt>
|
|
<trkpt lat="55.568508" lon="8.193964">
|
|
<ele>8.162669</ele>
|
|
<time>2026-07-11T14:34:51.000Z</time>
|
|
</trkpt>
|
|
<trkpt lat="55.568508" lon="8.194090">
|
|
<ele>8.150277</ele>
|
|
<time>2026-07-11T14:34:52.000Z</time>
|
|
</trkpt>
|
|
<trkpt lat="55.568510" lon="8.194212">
|
|
<ele>8.138272</ele>
|
|
<time>2026-07-11T14:34:53.000Z</time>
|
|
</trkpt>
|
|
<trkpt lat="55.568512" lon="8.194328">
|
|
<ele>8.126858</ele>
|
|
<time>2026-07-11T14:34:54.000Z</time>
|
|
</trkpt>
|
|
<trkpt lat="55.568512" lon="8.194444">
|
|
<ele>8.108702</ele>
|
|
<time>2026-07-11T14:34:55.000Z</time>
|
|
</trkpt>
|
|
<trkpt lat="55.568514" lon="8.194563">
|
|
<ele>8.089968</ele>
|
|
<time>2026-07-11T14:34:56.000Z</time>
|
|
</trkpt>
|
|
<trkpt lat="55.568516" lon="8.194680">
|
|
<ele>8.071549</ele>
|
|
<time>2026-07-11T14:34:57.000Z</time>
|
|
</trkpt>
|
|
<trkpt lat="55.568517" lon="8.194798">
|
|
<ele>8.052980</ele>
|
|
<time>2026-07-11T14:34:58.000Z</time>
|
|
</trkpt>
|
|
<trkpt lat="55.568521" lon="8.194915">
|
|
<ele>8.034535</ele>
|
|
<time>2026-07-11T14:34:59.000Z</time>
|
|
</trkpt>
|
|
<trkpt lat="55.568523" lon="8.195030">
|
|
<ele>8.016431</ele>
|
|
<time>2026-07-11T14:35:00.000Z</time>
|
|
</trkpt>
|
|
<trkpt lat="55.568525" lon="8.195145">
|
|
<ele>7.998327</ele>
|
|
<time>2026-07-11T14:35:01.000Z</time>
|
|
</trkpt>
|
|
<trkpt lat="55.568527" lon="8.195261">
|
|
<ele>7.980065</ele>
|
|
<time>2026-07-11T14:35:02.000Z</time>
|
|
</trkpt>
|
|
<trkpt lat="55.568527" lon="8.195379">
|
|
<ele>7.961497</ele>
|
|
<time>2026-07-11T14:35:03.000Z</time>
|
|
</trkpt>
|
|
<trkpt lat="55.568527" lon="8.195495">
|
|
<ele>7.943244</ele>
|
|
<time>2026-07-11T14:35:04.000Z</time>
|
|
</trkpt>
|
|
<trkpt lat="55.568529" lon="8.195613">
|
|
<ele>7.924668</ele>
|
|
<time>2026-07-11T14:35:05.000Z</time>
|
|
</trkpt>
|
|
<trkpt lat="55.568531" lon="8.195724">
|
|
<ele>7.907193</ele>
|
|
<time>2026-07-11T14:35:06.000Z</time>
|
|
</trkpt>
|
|
<trkpt lat="55.568531" lon="8.195836">
|
|
<ele>7.889569</ele>
|
|
<time>2026-07-11T14:35:07.000Z</time>
|
|
</trkpt>
|
|
<trkpt lat="55.568531" lon="8.195971">
|
|
<ele>7.868326</ele>
|
|
<time>2026-07-11T14:35:08.000Z</time>
|
|
</trkpt>
|
|
<trkpt lat="55.568533" lon="8.196091">
|
|
<ele>7.849436</ele>
|
|
<time>2026-07-11T14:35:09.000Z</time>
|
|
</trkpt>
|
|
<trkpt lat="55.568535" lon="8.196212">
|
|
<ele>7.830388</ele>
|
|
<time>2026-07-11T14:35:10.000Z</time>
|
|
</trkpt>
|
|
<trkpt lat="55.568535" lon="8.196329">
|
|
<ele>7.811977</ele>
|
|
<time>2026-07-11T14:35:11.000Z</time>
|
|
</trkpt>
|
|
<trkpt lat="55.568536" lon="8.196440">
|
|
<ele>7.794509</ele>
|
|
<time>2026-07-11T14:35:12.000Z</time>
|
|
</trkpt>
|
|
<trkpt lat="55.568540" lon="8.196551">
|
|
<ele>7.777007</ele>
|
|
<time>2026-07-11T14:35:13.000Z</time>
|
|
</trkpt>
|
|
<trkpt lat="55.568544" lon="8.196663">
|
|
<ele>7.759348</ele>
|
|
<time>2026-07-11T14:35:14.000Z</time>
|
|
</trkpt>
|
|
<trkpt lat="55.568548" lon="8.196775">
|
|
<ele>7.741689</ele>
|
|
<time>2026-07-11T14:35:15.000Z</time>
|
|
</trkpt>
|
|
<trkpt lat="55.568553" lon="8.196887">
|
|
<ele>7.724011</ele>
|
|
<time>2026-07-11T14:35:16.000Z</time>
|
|
</trkpt>
|
|
<trkpt lat="55.568559" lon="8.197002">
|
|
<ele>7.705838</ele>
|
|
<time>2026-07-11T14:35:17.000Z</time>
|
|
</trkpt>
|
|
<trkpt lat="55.568563" lon="8.197114">
|
|
<ele>7.688179</ele>
|
|
<time>2026-07-11T14:35:18.000Z</time>
|
|
</trkpt>
|
|
<trkpt lat="55.568567" lon="8.197227">
|
|
<ele>7.670364</ele>
|
|
<time>2026-07-11T14:35:19.000Z</time>
|
|
</trkpt>
|
|
<trkpt lat="55.568571" lon="8.197341">
|
|
<ele>7.652391</ele>
|
|
<time>2026-07-11T14:35:20.000Z</time>
|
|
</trkpt>
|
|
<trkpt lat="55.568575" lon="8.197460">
|
|
<ele>7.633632</ele>
|
|
<time>2026-07-11T14:35:21.000Z</time>
|
|
</trkpt>
|
|
<trkpt lat="55.568577" lon="8.197580">
|
|
<ele>7.623023</ele>
|
|
<time>2026-07-11T14:35:22.000Z</time>
|
|
</trkpt>
|
|
<trkpt lat="55.568578" lon="8.197698">
|
|
<ele>7.617944</ele>
|
|
<time>2026-07-11T14:35:23.000Z</time>
|
|
</trkpt>
|
|
<trkpt lat="55.568581" lon="8.197814">
|
|
<ele>7.612946</ele>
|
|
<time>2026-07-11T14:35:24.000Z</time>
|
|
</trkpt>
|
|
<trkpt lat="55.568582" lon="8.197928">
|
|
<ele>7.608038</ele>
|
|
<time>2026-07-11T14:35:25.000Z</time>
|
|
</trkpt>
|
|
<trkpt lat="55.568586" lon="8.198038">
|
|
<ele>7.603294</ele>
|
|
<time>2026-07-11T14:35:26.000Z</time>
|
|
</trkpt>
|
|
<trkpt lat="55.568590" lon="8.198153">
|
|
<ele>7.598335</ele>
|
|
<time>2026-07-11T14:35:27.000Z</time>
|
|
</trkpt>
|
|
<trkpt lat="55.568594" lon="8.198275">
|
|
<ele>7.593075</ele>
|
|
<time>2026-07-11T14:35:28.000Z</time>
|
|
</trkpt>
|
|
<trkpt lat="55.568597" lon="8.198394">
|
|
<ele>7.587948</ele>
|
|
<time>2026-07-11T14:35:29.000Z</time>
|
|
</trkpt>
|
|
<trkpt lat="55.568601" lon="8.198511">
|
|
<ele>7.582903</ele>
|
|
<time>2026-07-11T14:35:30.000Z</time>
|
|
</trkpt>
|
|
<trkpt lat="55.568605" lon="8.198627">
|
|
<ele>7.577901</ele>
|
|
<time>2026-07-11T14:35:31.000Z</time>
|
|
</trkpt>
|
|
<trkpt lat="55.568607" lon="8.198744">
|
|
<ele>7.572863</ele>
|
|
<time>2026-07-11T14:35:32.000Z</time>
|
|
</trkpt>
|
|
<trkpt lat="55.568609" lon="8.198860">
|
|
<ele>7.567868</ele>
|
|
<time>2026-07-11T14:35:33.000Z</time>
|
|
</trkpt>
|
|
<trkpt lat="55.568613" lon="8.198971">
|
|
<ele>7.563081</ele>
|
|
<time>2026-07-11T14:35:34.000Z</time>
|
|
</trkpt>
|
|
<trkpt lat="55.568616" lon="8.199080">
|
|
<ele>7.558384</ele>
|
|
<time>2026-07-11T14:35:35.000Z</time>
|
|
</trkpt>
|
|
<trkpt lat="55.568624" lon="8.199192">
|
|
<ele>7.553525</ele>
|
|
<time>2026-07-11T14:35:36.000Z</time>
|
|
</trkpt>
|
|
<trkpt lat="55.568635" lon="8.199308">
|
|
<ele>7.548462</ele>
|
|
<time>2026-07-11T14:35:37.000Z</time>
|
|
</trkpt>
|
|
<trkpt lat="55.568645" lon="8.199427">
|
|
<ele>7.543284</ele>
|
|
<time>2026-07-11T14:35:38.000Z</time>
|
|
</trkpt>
|
|
<trkpt lat="55.568654" lon="8.199548">
|
|
<ele>7.538031</ele>
|
|
<time>2026-07-11T14:35:39.000Z</time>
|
|
</trkpt>
|
|
<trkpt lat="55.568666" lon="8.199665">
|
|
<ele>7.532913</ele>
|
|
<time>2026-07-11T14:35:40.000Z</time>
|
|
</trkpt>
|
|
<trkpt lat="55.568679" lon="8.199780">
|
|
<ele>7.527866</ele>
|
|
<time>2026-07-11T14:35:41.000Z</time>
|
|
</trkpt>
|
|
<trkpt lat="55.568692" lon="8.199894">
|
|
<ele>7.522860</ele>
|
|
<time>2026-07-11T14:35:42.000Z</time>
|
|
</trkpt>
|
|
<trkpt lat="55.568705" lon="8.200007">
|
|
<ele>7.517897</ele>
|
|
<time>2026-07-11T14:35:43.000Z</time>
|
|
</trkpt>
|
|
<trkpt lat="55.568721" lon="8.200122">
|
|
<ele>7.512799</ele>
|
|
<time>2026-07-11T14:35:44.000Z</time>
|
|
</trkpt>
|
|
<trkpt lat="55.568736" lon="8.200236">
|
|
<ele>7.507762</ele>
|
|
<time>2026-07-11T14:35:45.000Z</time>
|
|
</trkpt>
|
|
<trkpt lat="55.568750" lon="8.200355">
|
|
<ele>7.502530</ele>
|
|
<time>2026-07-11T14:35:46.000Z</time>
|
|
</trkpt>
|
|
<trkpt lat="55.568763" lon="8.200475">
|
|
<ele>7.497271</ele>
|
|
<time>2026-07-11T14:35:47.000Z</time>
|
|
</trkpt>
|
|
<trkpt lat="55.568776" lon="8.200592">
|
|
<ele>7.492139</ele>
|
|
<time>2026-07-11T14:35:48.000Z</time>
|
|
</trkpt>
|
|
<trkpt lat="55.568789" lon="8.200706">
|
|
<ele>7.491886</ele>
|
|
<time>2026-07-11T14:35:49.000Z</time>
|
|
</trkpt>
|
|
<trkpt lat="55.568805" lon="8.200821">
|
|
<ele>7.498377</ele>
|
|
<time>2026-07-11T14:35:50.000Z</time>
|
|
</trkpt>
|
|
<trkpt lat="55.568818" lon="8.200936">
|
|
<ele>7.504806</ele>
|
|
<time>2026-07-11T14:35:51.000Z</time>
|
|
</trkpt>
|
|
<trkpt lat="55.568831" lon="8.201049">
|
|
<ele>7.511126</ele>
|
|
<time>2026-07-11T14:35:52.000Z</time>
|
|
</trkpt>
|
|
<trkpt lat="55.568845" lon="8.201162">
|
|
<ele>7.517467</ele>
|
|
<time>2026-07-11T14:35:53.000Z</time>
|
|
</trkpt>
|
|
<trkpt lat="55.568857" lon="8.201270">
|
|
<ele>7.523500</ele>
|
|
<time>2026-07-11T14:35:54.000Z</time>
|
|
</trkpt>
|
|
<trkpt lat="55.568869" lon="8.201374">
|
|
<ele>7.529318</ele>
|
|
<time>2026-07-11T14:35:55.000Z</time>
|
|
</trkpt>
|
|
<trkpt lat="55.568884" lon="8.201482">
|
|
<ele>7.535414</ele>
|
|
<time>2026-07-11T14:35:56.000Z</time>
|
|
</trkpt>
|
|
<trkpt lat="55.568900" lon="8.201599">
|
|
<ele>7.542011</ele>
|
|
<time>2026-07-11T14:35:57.000Z</time>
|
|
</trkpt>
|
|
<trkpt lat="55.568917" lon="8.201716">
|
|
<ele>7.548633</ele>
|
|
<time>2026-07-11T14:35:58.000Z</time>
|
|
</trkpt>
|
|
<trkpt lat="55.568936" lon="8.201828">
|
|
<ele>7.555042</ele>
|
|
<time>2026-07-11T14:35:59.000Z</time>
|
|
</trkpt>
|
|
<trkpt lat="55.568955" lon="8.201937">
|
|
<ele>7.561294</ele>
|
|
<time>2026-07-11T14:36:00.000Z</time>
|
|
</trkpt>
|
|
<trkpt lat="55.568973" lon="8.202048">
|
|
<ele>7.567623</ele>
|
|
<time>2026-07-11T14:36:01.000Z</time>
|
|
</trkpt>
|
|
<trkpt lat="55.568993" lon="8.202163">
|
|
<ele>7.574218</ele>
|
|
<time>2026-07-11T14:36:02.000Z</time>
|
|
</trkpt>
|
|
<trkpt lat="55.569014" lon="8.202272">
|
|
<ele>7.580530</ele>
|
|
<time>2026-07-11T14:36:03.000Z</time>
|
|
</trkpt>
|
|
<trkpt lat="55.569036" lon="8.202380">
|
|
<ele>7.586822</ele>
|
|
<time>2026-07-11T14:36:04.000Z</time>
|
|
</trkpt>
|
|
<trkpt lat="55.569057" lon="8.202489">
|
|
<ele>7.593134</ele>
|
|
<time>2026-07-11T14:36:05.000Z</time>
|
|
</trkpt>
|
|
<trkpt lat="55.569078" lon="8.202598">
|
|
<ele>7.599446</ele>
|
|
<time>2026-07-11T14:36:06.000Z</time>
|
|
</trkpt>
|
|
<trkpt lat="55.569100" lon="8.202709">
|
|
<ele>7.605893</ele>
|
|
<time>2026-07-11T14:36:07.000Z</time>
|
|
</trkpt>
|
|
<trkpt lat="55.569119" lon="8.202816">
|
|
<ele>7.612040</ele>
|
|
<time>2026-07-11T14:36:08.000Z</time>
|
|
</trkpt>
|
|
<trkpt lat="55.569140" lon="8.202921">
|
|
<ele>7.618145</ele>
|
|
<time>2026-07-11T14:36:09.000Z</time>
|
|
</trkpt>
|
|
<trkpt lat="55.569163" lon="8.203027">
|
|
<ele>7.624368</ele>
|
|
<time>2026-07-11T14:36:10.000Z</time>
|
|
</trkpt>
|
|
<trkpt lat="55.569185" lon="8.203133">
|
|
<ele>7.630557</ele>
|
|
<time>2026-07-11T14:36:11.000Z</time>
|
|
</trkpt>
|
|
<trkpt lat="55.569208" lon="8.203241">
|
|
<ele>7.636883</ele>
|
|
<time>2026-07-11T14:36:12.000Z</time>
|
|
</trkpt>
|
|
<trkpt lat="55.569231" lon="8.203355">
|
|
<ele>7.643517</ele>
|
|
<time>2026-07-11T14:36:13.000Z</time>
|
|
</trkpt>
|
|
<trkpt lat="55.569254" lon="8.203470">
|
|
<ele>7.650203</ele>
|
|
<time>2026-07-11T14:36:14.000Z</time>
|
|
</trkpt>
|
|
<trkpt lat="55.569277" lon="8.203586">
|
|
<ele>7.656941</ele>
|
|
<time>2026-07-11T14:36:15.000Z</time>
|
|
</trkpt>
|
|
<trkpt lat="55.569300" lon="8.203699">
|
|
<ele>7.663524</ele>
|
|
<time>2026-07-11T14:36:16.000Z</time>
|
|
</trkpt>
|
|
<trkpt lat="55.569323" lon="8.203808">
|
|
<ele>7.664014</ele>
|
|
<time>2026-07-11T14:36:17.000Z</time>
|
|
</trkpt>
|
|
<trkpt lat="55.569346" lon="8.203915">
|
|
<ele>7.664439</ele>
|
|
<time>2026-07-11T14:36:18.000Z</time>
|
|
</trkpt>
|
|
<trkpt lat="55.569368" lon="8.204022">
|
|
<ele>7.664862</ele>
|
|
<time>2026-07-11T14:36:19.000Z</time>
|
|
</trkpt>
|
|
<trkpt lat="55.569393" lon="8.204131">
|
|
<ele>7.665298</ele>
|
|
<time>2026-07-11T14:36:20.000Z</time>
|
|
</trkpt>
|
|
<trkpt lat="55.569417" lon="8.204238">
|
|
<ele>7.665725</ele>
|
|
<time>2026-07-11T14:36:21.000Z</time>
|
|
</trkpt>
|
|
<trkpt lat="55.569436" lon="8.204344">
|
|
<ele>7.666138</ele>
|
|
<time>2026-07-11T14:36:22.000Z</time>
|
|
</trkpt>
|
|
<trkpt lat="55.569455" lon="8.204448">
|
|
<ele>7.666544</ele>
|
|
<time>2026-07-11T14:36:23.000Z</time>
|
|
</trkpt>
|
|
<trkpt lat="55.569475" lon="8.204550">
|
|
<ele>7.666944</ele>
|
|
<time>2026-07-11T14:36:24.000Z</time>
|
|
</trkpt>
|
|
<trkpt lat="55.569498" lon="8.204655">
|
|
<ele>7.667362</ele>
|
|
<time>2026-07-11T14:36:25.000Z</time>
|
|
</trkpt>
|
|
<trkpt lat="55.569519" lon="8.204757">
|
|
<ele>7.667765</ele>
|
|
<time>2026-07-11T14:36:26.000Z</time>
|
|
</trkpt>
|
|
<trkpt lat="55.569539" lon="8.204859">
|
|
<ele>7.668166</ele>
|
|
<time>2026-07-11T14:36:27.000Z</time>
|
|
</trkpt>
|
|
<trkpt lat="55.569563" lon="8.204969">
|
|
<ele>7.668603</ele>
|
|
<time>2026-07-11T14:36:28.000Z</time>
|
|
</trkpt>
|
|
<trkpt lat="55.569584" lon="8.205065">
|
|
<ele>7.668985</ele>
|
|
<time>2026-07-11T14:36:29.000Z</time>
|
|
</trkpt>
|
|
<trkpt lat="55.569604" lon="8.205159">
|
|
<ele>7.669358</ele>
|
|
<time>2026-07-11T14:36:30.000Z</time>
|
|
</trkpt>
|
|
<trkpt lat="55.569632" lon="8.205290">
|
|
<ele>7.669878</ele>
|
|
<time>2026-07-11T14:36:31.000Z</time>
|
|
</trkpt>
|
|
<trkpt lat="55.569657" lon="8.205396">
|
|
<ele>7.670304</ele>
|
|
<time>2026-07-11T14:36:32.000Z</time>
|
|
</trkpt>
|
|
<trkpt lat="55.569683" lon="8.205500">
|
|
<ele>7.670726</ele>
|
|
<time>2026-07-11T14:36:33.000Z</time>
|
|
</trkpt>
|
|
<trkpt lat="55.569710" lon="8.205605">
|
|
<ele>7.671154</ele>
|
|
<time>2026-07-11T14:36:34.000Z</time>
|
|
</trkpt>
|
|
<trkpt lat="55.569739" lon="8.205711">
|
|
<ele>7.671591</ele>
|
|
<time>2026-07-11T14:36:35.000Z</time>
|
|
</trkpt>
|
|
<trkpt lat="55.569772" lon="8.205817">
|
|
<ele>7.672040</ele>
|
|
<time>2026-07-11T14:36:36.000Z</time>
|
|
</trkpt>
|
|
<trkpt lat="55.569804" lon="8.205929">
|
|
<ele>7.672506</ele>
|
|
<time>2026-07-11T14:36:37.000Z</time>
|
|
</trkpt>
|
|
<trkpt lat="55.569838" lon="8.206043">
|
|
<ele>7.672985</ele>
|
|
<time>2026-07-11T14:36:38.000Z</time>
|
|
</trkpt>
|
|
<trkpt lat="55.569873" lon="8.206159">
|
|
<ele>7.673473</ele>
|
|
<time>2026-07-11T14:36:39.000Z</time>
|
|
</trkpt>
|
|
<trkpt lat="55.569907" lon="8.206273">
|
|
<ele>7.673951</ele>
|
|
<time>2026-07-11T14:36:40.000Z</time>
|
|
</trkpt>
|
|
<trkpt lat="55.569944" lon="8.206385">
|
|
<ele>7.674432</ele>
|
|
<time>2026-07-11T14:36:41.000Z</time>
|
|
</trkpt>
|
|
<trkpt lat="55.569984" lon="8.206494">
|
|
<ele>7.674915</ele>
|
|
<time>2026-07-11T14:36:42.000Z</time>
|
|
</trkpt>
|
|
<trkpt lat="55.570026" lon="8.206594">
|
|
<ele>7.675377</ele>
|
|
<time>2026-07-11T14:36:43.000Z</time>
|
|
</trkpt>
|
|
<trkpt lat="55.570073" lon="8.206691">
|
|
<ele>7.656418</ele>
|
|
<time>2026-07-11T14:36:44.000Z</time>
|
|
</trkpt>
|
|
<trkpt lat="55.570121" lon="8.206792">
|
|
<ele>7.636129</ele>
|
|
<time>2026-07-11T14:36:45.000Z</time>
|
|
</trkpt>
|
|
<trkpt lat="55.570161" lon="8.206886">
|
|
<ele>7.618037</ele>
|
|
<time>2026-07-11T14:36:46.000Z</time>
|
|
</trkpt>
|
|
<trkpt lat="55.570197" lon="8.206983">
|
|
<ele>7.600195</ele>
|
|
<time>2026-07-11T14:36:47.000Z</time>
|
|
</trkpt>
|
|
<trkpt lat="55.570233" lon="8.207084">
|
|
<ele>7.581835</ele>
|
|
<time>2026-07-11T14:36:48.000Z</time>
|
|
</trkpt>
|
|
<trkpt lat="55.570274" lon="8.207182">
|
|
<ele>7.563088</ele>
|
|
<time>2026-07-11T14:36:49.000Z</time>
|
|
</trkpt>
|
|
<trkpt lat="55.570317" lon="8.207277">
|
|
<ele>7.544375</ele>
|
|
<time>2026-07-11T14:36:50.000Z</time>
|
|
</trkpt>
|
|
<trkpt lat="55.570361" lon="8.207369">
|
|
<ele>7.525845</ele>
|
|
<time>2026-07-11T14:36:51.000Z</time>
|
|
</trkpt>
|
|
<trkpt lat="55.570402" lon="8.207456">
|
|
<ele>7.508429</ele>
|
|
<time>2026-07-11T14:36:52.000Z</time>
|
|
</trkpt>
|
|
<trkpt lat="55.570445" lon="8.207541">
|
|
<ele>7.490890</ele>
|
|
<time>2026-07-11T14:36:53.000Z</time>
|
|
</trkpt>
|
|
<trkpt lat="55.570492" lon="8.207627">
|
|
<ele>7.472497</ele>
|
|
<time>2026-07-11T14:36:54.000Z</time>
|
|
</trkpt>
|
|
<trkpt lat="55.570536" lon="8.207707">
|
|
<ele>7.455335</ele>
|
|
<time>2026-07-11T14:36:55.000Z</time>
|
|
</trkpt>
|
|
<trkpt lat="55.570580" lon="8.207784">
|
|
<ele>7.438500</ele>
|
|
<time>2026-07-11T14:36:56.000Z</time>
|
|
</trkpt>
|
|
<trkpt lat="55.570625" lon="8.207860">
|
|
<ele>7.421578</ele>
|
|
<time>2026-07-11T14:36:57.000Z</time>
|
|
</trkpt>
|
|
<trkpt lat="55.570669" lon="8.207936">
|
|
<ele>7.404851</ele>
|
|
<time>2026-07-11T14:36:58.000Z</time>
|
|
</trkpt>
|
|
<trkpt lat="55.570720" lon="8.208010">
|
|
<ele>7.386910</ele>
|
|
<time>2026-07-11T14:36:59.000Z</time>
|
|
</trkpt>
|
|
<trkpt lat="55.570772" lon="8.208083">
|
|
<ele>7.368854</ele>
|
|
<time>2026-07-11T14:37:00.000Z</time>
|
|
</trkpt>
|
|
<trkpt lat="55.570824" lon="8.208155">
|
|
<ele>7.350893</ele>
|
|
<time>2026-07-11T14:37:01.000Z</time>
|
|
</trkpt>
|
|
<trkpt lat="55.570879" lon="8.208229">
|
|
<ele>7.332098</ele>
|
|
<time>2026-07-11T14:37:02.000Z</time>
|
|
</trkpt>
|
|
<trkpt lat="55.570937" lon="8.208303">
|
|
<ele>7.312647</ele>
|
|
<time>2026-07-11T14:37:03.000Z</time>
|
|
</trkpt>
|
|
<trkpt lat="55.570992" lon="8.208377">
|
|
<ele>7.293852</ele>
|
|
<time>2026-07-11T14:37:04.000Z</time>
|
|
</trkpt>
|
|
<trkpt lat="55.571048" lon="8.208446">
|
|
<ele>7.275290</ele>
|
|
<time>2026-07-11T14:37:05.000Z</time>
|
|
</trkpt>
|
|
<trkpt lat="55.571106" lon="8.208516">
|
|
<ele>7.256193</ele>
|
|
<time>2026-07-11T14:37:06.000Z</time>
|
|
</trkpt>
|
|
<trkpt lat="55.571160" lon="8.208590">
|
|
<ele>7.237614</ele>
|
|
<time>2026-07-11T14:37:07.000Z</time>
|
|
</trkpt>
|
|
<trkpt lat="55.571213" lon="8.208661">
|
|
<ele>7.219531</ele>
|
|
<time>2026-07-11T14:37:08.000Z</time>
|
|
</trkpt>
|
|
<trkpt lat="55.571266" lon="8.208734">
|
|
<ele>7.201261</ele>
|
|
<time>2026-07-11T14:37:09.000Z</time>
|
|
</trkpt>
|
|
<trkpt lat="55.571327" lon="8.208808">
|
|
<ele>7.197892</ele>
|
|
<time>2026-07-11T14:37:10.000Z</time>
|
|
</trkpt>
|
|
<trkpt lat="55.571397" lon="8.208881">
|
|
<ele>7.248929</ele>
|
|
<time>2026-07-11T14:37:11.000Z</time>
|
|
</trkpt>
|
|
<trkpt lat="55.571466" lon="8.208953">
|
|
<ele>7.299246</ele>
|
|
<time>2026-07-11T14:37:12.000Z</time>
|
|
</trkpt>
|
|
<trkpt lat="55.571533" lon="8.209027">
|
|
<ele>7.348857</ele>
|
|
<time>2026-07-11T14:37:13.000Z</time>
|
|
</trkpt>
|
|
<trkpt lat="55.571576" lon="8.209113">
|
|
<ele>7.389624</ele>
|
|
<time>2026-07-11T14:37:14.000Z</time>
|
|
</trkpt>
|
|
<trkpt lat="55.571627" lon="8.209186">
|
|
<ele>7.430830</ele>
|
|
<time>2026-07-11T14:37:15.000Z</time>
|
|
</trkpt>
|
|
<trkpt lat="55.571679" lon="8.209263">
|
|
<ele>7.473424</ele>
|
|
<time>2026-07-11T14:37:16.000Z</time>
|
|
</trkpt>
|
|
<trkpt lat="55.571735" lon="8.209347">
|
|
<ele>7.519540</ele>
|
|
<time>2026-07-11T14:37:17.000Z</time>
|
|
</trkpt>
|
|
<trkpt lat="55.571792" lon="8.209434">
|
|
<ele>7.566827</ele>
|
|
<time>2026-07-11T14:37:18.000Z</time>
|
|
</trkpt>
|
|
<trkpt lat="55.571847" lon="8.209522">
|
|
<ele>7.613407</ele>
|
|
<time>2026-07-11T14:37:19.000Z</time>
|
|
</trkpt>
|
|
<trkpt lat="55.571898" lon="8.209604">
|
|
<ele>7.656695</ele>
|
|
<time>2026-07-11T14:37:20.000Z</time>
|
|
</trkpt>
|
|
<trkpt lat="55.571948" lon="8.209683">
|
|
<ele>7.698803</ele>
|
|
<time>2026-07-11T14:37:21.000Z</time>
|
|
</trkpt>
|
|
<trkpt lat="55.571995" lon="8.209764">
|
|
<ele>7.740018</ele>
|
|
<time>2026-07-11T14:37:22.000Z</time>
|
|
</trkpt>
|
|
<trkpt lat="55.572042" lon="8.209839">
|
|
<ele>7.779775</ele>
|
|
<time>2026-07-11T14:37:23.000Z</time>
|
|
</trkpt>
|
|
<trkpt lat="55.572092" lon="8.209904">
|
|
<ele>7.818748</ele>
|
|
<time>2026-07-11T14:37:24.000Z</time>
|
|
</trkpt>
|
|
<trkpt lat="55.572142" lon="8.209962">
|
|
<ele>7.856303</ele>
|
|
<time>2026-07-11T14:37:25.000Z</time>
|
|
</trkpt>
|
|
<trkpt lat="55.572195" lon="8.210015">
|
|
<ele>7.894542</ele>
|
|
<time>2026-07-11T14:37:26.000Z</time>
|
|
</trkpt>
|
|
<trkpt lat="55.572241" lon="8.210074">
|
|
<ele>7.930229</ele>
|
|
<time>2026-07-11T14:37:27.000Z</time>
|
|
</trkpt>
|
|
<trkpt lat="55.572281" lon="8.210145">
|
|
<ele>7.965821</ele>
|
|
<time>2026-07-11T14:37:28.000Z</time>
|
|
</trkpt>
|
|
<trkpt lat="55.572318" lon="8.210226">
|
|
<ele>8.002798</ele>
|
|
<time>2026-07-11T14:37:29.000Z</time>
|
|
</trkpt>
|
|
<trkpt lat="55.572353" lon="8.210311">
|
|
<ele>8.040137</ele>
|
|
<time>2026-07-11T14:37:30.000Z</time>
|
|
</trkpt>
|
|
<trkpt lat="55.572387" lon="8.210396">
|
|
<ele>8.077110</ele>
|
|
<time>2026-07-11T14:37:31.000Z</time>
|
|
</trkpt>
|
|
<trkpt lat="55.572423" lon="8.210483">
|
|
<ele>8.115393</ele>
|
|
<time>2026-07-11T14:37:32.000Z</time>
|
|
</trkpt>
|
|
<trkpt lat="55.572458" lon="8.210569">
|
|
<ele>8.153019</ele>
|
|
<time>2026-07-11T14:37:33.000Z</time>
|
|
</trkpt>
|
|
<trkpt lat="55.572491" lon="8.210657">
|
|
<ele>8.190516</ele>
|
|
<time>2026-07-11T14:37:34.000Z</time>
|
|
</trkpt>
|
|
<trkpt lat="55.572523" lon="8.210746">
|
|
<ele>8.227968</ele>
|
|
<time>2026-07-11T14:37:35.000Z</time>
|
|
</trkpt>
|
|
<trkpt lat="55.572554" lon="8.210836">
|
|
<ele>8.265389</ele>
|
|
<time>2026-07-11T14:37:36.000Z</time>
|
|
</trkpt>
|
|
<trkpt lat="55.572584" lon="8.210929">
|
|
<ele>8.303410</ele>
|
|
<time>2026-07-11T14:37:37.000Z</time>
|
|
</trkpt>
|
|
<trkpt lat="55.572616" lon="8.211021">
|
|
<ele>8.316577</ele>
|
|
<time>2026-07-11T14:37:38.000Z</time>
|
|
</trkpt>
|
|
<trkpt lat="55.572651" lon="8.211111">
|
|
<ele>8.317631</ele>
|
|
<time>2026-07-11T14:37:39.000Z</time>
|
|
</trkpt>
|
|
<trkpt lat="55.572683" lon="8.211201">
|
|
<ele>8.318657</ele>
|
|
<time>2026-07-11T14:37:40.000Z</time>
|
|
</trkpt>
|
|
<trkpt lat="55.572715" lon="8.211295">
|
|
<ele>8.319716</ele>
|
|
<time>2026-07-11T14:37:41.000Z</time>
|
|
</trkpt>
|
|
<trkpt lat="55.572748" lon="8.211392">
|
|
<ele>8.320809</ele>
|
|
<time>2026-07-11T14:37:42.000Z</time>
|
|
</trkpt>
|
|
<trkpt lat="55.572780" lon="8.211486">
|
|
<ele>8.321868</ele>
|
|
<time>2026-07-11T14:37:43.000Z</time>
|
|
</trkpt>
|
|
<trkpt lat="55.572813" lon="8.211578">
|
|
<ele>8.322919</ele>
|
|
<time>2026-07-11T14:37:44.000Z</time>
|
|
</trkpt>
|
|
<trkpt lat="55.572845" lon="8.211672">
|
|
<ele>8.323978</ele>
|
|
<time>2026-07-11T14:37:45.000Z</time>
|
|
</trkpt>
|
|
<trkpt lat="55.572878" lon="8.211767">
|
|
<ele>8.325054</ele>
|
|
<time>2026-07-11T14:37:46.000Z</time>
|
|
</trkpt>
|
|
<trkpt lat="55.572912" lon="8.211861">
|
|
<ele>8.326131</ele>
|
|
<time>2026-07-11T14:37:47.000Z</time>
|
|
</trkpt>
|
|
<trkpt lat="55.572946" lon="8.211953">
|
|
<ele>8.327192</ele>
|
|
<time>2026-07-11T14:37:48.000Z</time>
|
|
</trkpt>
|
|
<trkpt lat="55.572978" lon="8.212045">
|
|
<ele>8.328234</ele>
|
|
<time>2026-07-11T14:37:49.000Z</time>
|
|
</trkpt>
|
|
<trkpt lat="55.573011" lon="8.212138">
|
|
<ele>8.329294</ele>
|
|
<time>2026-07-11T14:37:50.000Z</time>
|
|
</trkpt>
|
|
<trkpt lat="55.573044" lon="8.212229">
|
|
<ele>8.330337</ele>
|
|
<time>2026-07-11T14:37:51.000Z</time>
|
|
</trkpt>
|
|
<trkpt lat="55.573078" lon="8.212319">
|
|
<ele>8.331382</ele>
|
|
<time>2026-07-11T14:37:52.000Z</time>
|
|
</trkpt>
|
|
<trkpt lat="55.573112" lon="8.212406">
|
|
<ele>8.332402</ele>
|
|
<time>2026-07-11T14:37:53.000Z</time>
|
|
</trkpt>
|
|
<trkpt lat="55.573147" lon="8.212495">
|
|
<ele>8.333449</ele>
|
|
<time>2026-07-11T14:37:54.000Z</time>
|
|
</trkpt>
|
|
<trkpt lat="55.573181" lon="8.212584">
|
|
<ele>8.334485</ele>
|
|
<time>2026-07-11T14:37:55.000Z</time>
|
|
</trkpt>
|
|
<trkpt lat="55.573215" lon="8.212673">
|
|
<ele>8.335522</ele>
|
|
<time>2026-07-11T14:37:56.000Z</time>
|
|
</trkpt>
|
|
<trkpt lat="55.573249" lon="8.212761">
|
|
<ele>8.336550</ele>
|
|
<time>2026-07-11T14:37:57.000Z</time>
|
|
</trkpt>
|
|
<trkpt lat="55.573284" lon="8.212849">
|
|
<ele>8.337589</ele>
|
|
<time>2026-07-11T14:37:58.000Z</time>
|
|
</trkpt>
|
|
<trkpt lat="55.573319" lon="8.212936">
|
|
<ele>8.338619</ele>
|
|
<time>2026-07-11T14:37:59.000Z</time>
|
|
</trkpt>
|
|
<trkpt lat="55.573356" lon="8.213020">
|
|
<ele>8.339647</ele>
|
|
<time>2026-07-11T14:38:00.000Z</time>
|
|
</trkpt>
|
|
<trkpt lat="55.573393" lon="8.213106">
|
|
<ele>8.340690</ele>
|
|
<time>2026-07-11T14:38:01.000Z</time>
|
|
</trkpt>
|
|
<trkpt lat="55.573429" lon="8.213194">
|
|
<ele>8.341738</ele>
|
|
<time>2026-07-11T14:38:02.000Z</time>
|
|
</trkpt>
|
|
<trkpt lat="55.573463" lon="8.213280">
|
|
<ele>8.342751</ele>
|
|
<time>2026-07-11T14:38:03.000Z</time>
|
|
</trkpt>
|
|
<trkpt lat="55.573495" lon="8.213362">
|
|
<ele>8.343712</ele>
|
|
<time>2026-07-11T14:38:04.000Z</time>
|
|
</trkpt>
|
|
<trkpt lat="55.573528" lon="8.213443">
|
|
<ele>8.344676</ele>
|
|
<time>2026-07-11T14:38:05.000Z</time>
|
|
</trkpt>
|
|
<trkpt lat="55.573567" lon="8.213536">
|
|
<ele>8.345793</ele>
|
|
<time>2026-07-11T14:38:06.000Z</time>
|
|
</trkpt>
|
|
<trkpt lat="55.573607" lon="8.213635">
|
|
<ele>8.342582</ele>
|
|
<time>2026-07-11T14:38:07.000Z</time>
|
|
</trkpt>
|
|
<trkpt lat="55.573642" lon="8.213723">
|
|
<ele>8.331995</ele>
|
|
<time>2026-07-11T14:38:08.000Z</time>
|
|
</trkpt>
|
|
<trkpt lat="55.573674" lon="8.213806">
|
|
<ele>8.322109</ele>
|
|
<time>2026-07-11T14:38:09.000Z</time>
|
|
</trkpt>
|
|
<trkpt lat="55.573706" lon="8.213889">
|
|
<ele>8.312223</ele>
|
|
<time>2026-07-11T14:38:10.000Z</time>
|
|
</trkpt>
|
|
<trkpt lat="55.573740" lon="8.213976">
|
|
<ele>8.301816</ele>
|
|
<time>2026-07-11T14:38:11.000Z</time>
|
|
</trkpt>
|
|
<trkpt lat="55.573774" lon="8.214060">
|
|
<ele>8.291650</ele>
|
|
<time>2026-07-11T14:38:12.000Z</time>
|
|
</trkpt>
|
|
<trkpt lat="55.573805" lon="8.214145">
|
|
<ele>8.281697</ele>
|
|
<time>2026-07-11T14:38:13.000Z</time>
|
|
</trkpt>
|
|
<trkpt lat="55.573832" lon="8.214238">
|
|
<ele>8.271410</ele>
|
|
<time>2026-07-11T14:38:14.000Z</time>
|
|
</trkpt>
|
|
<trkpt lat="55.573853" lon="8.214336">
|
|
<ele>8.261097</ele>
|
|
<time>2026-07-11T14:38:15.000Z</time>
|
|
</trkpt>
|
|
<trkpt lat="55.573877" lon="8.214440">
|
|
<ele>8.250043</ele>
|
|
<time>2026-07-11T14:38:16.000Z</time>
|
|
</trkpt>
|
|
<trkpt lat="55.573911" lon="8.214538">
|
|
<ele>8.238729</ele>
|
|
<time>2026-07-11T14:38:17.000Z</time>
|
|
</trkpt>
|
|
<trkpt lat="55.573951" lon="8.214629">
|
|
<ele>8.227387</ele>
|
|
<time>2026-07-11T14:38:18.000Z</time>
|
|
</trkpt>
|
|
<trkpt lat="55.573992" lon="8.214718">
|
|
<ele>8.216090</ele>
|
|
<time>2026-07-11T14:38:19.000Z</time>
|
|
</trkpt>
|
|
<trkpt lat="55.574032" lon="8.214810">
|
|
<ele>8.204669</ele>
|
|
<time>2026-07-11T14:38:20.000Z</time>
|
|
</trkpt>
|
|
<trkpt lat="55.574071" lon="8.214910">
|
|
<ele>8.192715</ele>
|
|
<time>2026-07-11T14:38:21.000Z</time>
|
|
</trkpt>
|
|
<trkpt lat="55.574108" lon="8.215011">
|
|
<ele>8.180872</ele>
|
|
<time>2026-07-11T14:38:22.000Z</time>
|
|
</trkpt>
|
|
<trkpt lat="55.574142" lon="8.215106">
|
|
<ele>8.169809</ele>
|
|
<time>2026-07-11T14:38:23.000Z</time>
|
|
</trkpt>
|
|
<trkpt lat="55.574178" lon="8.215197">
|
|
<ele>8.158880</ele>
|
|
<time>2026-07-11T14:38:24.000Z</time>
|
|
</trkpt>
|
|
<trkpt lat="55.574215" lon="8.215291">
|
|
<ele>8.147609</ele>
|
|
<time>2026-07-11T14:38:25.000Z</time>
|
|
</trkpt>
|
|
<trkpt lat="55.574249" lon="8.215387">
|
|
<ele>8.136462</ele>
|
|
<time>2026-07-11T14:38:26.000Z</time>
|
|
</trkpt>
|
|
<trkpt lat="55.574283" lon="8.215479">
|
|
<ele>8.125647</ele>
|
|
<time>2026-07-11T14:38:27.000Z</time>
|
|
</trkpt>
|
|
<trkpt lat="55.574317" lon="8.215570">
|
|
<ele>8.114913</ele>
|
|
<time>2026-07-11T14:38:28.000Z</time>
|
|
</trkpt>
|
|
<trkpt lat="55.574353" lon="8.215662">
|
|
<ele>8.103904</ele>
|
|
<time>2026-07-11T14:38:29.000Z</time>
|
|
</trkpt>
|
|
<trkpt lat="55.574388" lon="8.215754">
|
|
<ele>8.092992</ele>
|
|
<time>2026-07-11T14:38:30.000Z</time>
|
|
</trkpt>
|
|
<trkpt lat="55.574422" lon="8.215843">
|
|
<ele>8.082423</ele>
|
|
<time>2026-07-11T14:38:31.000Z</time>
|
|
</trkpt>
|
|
<trkpt lat="55.574459" lon="8.215937">
|
|
<ele>8.071152</ele>
|
|
<time>2026-07-11T14:38:32.000Z</time>
|
|
</trkpt>
|
|
<trkpt lat="55.574495" lon="8.216030">
|
|
<ele>8.060061</ele>
|
|
<time>2026-07-11T14:38:33.000Z</time>
|
|
</trkpt>
|
|
<trkpt lat="55.574531" lon="8.216125">
|
|
<ele>8.048807</ele>
|
|
<time>2026-07-11T14:38:34.000Z</time>
|
|
</trkpt>
|
|
<trkpt lat="55.574564" lon="8.216215">
|
|
<ele>8.038252</ele>
|
|
<time>2026-07-11T14:38:35.000Z</time>
|
|
</trkpt>
|
|
<trkpt lat="55.574599" lon="8.216303">
|
|
<ele>8.034649</ele>
|
|
<time>2026-07-11T14:38:36.000Z</time>
|
|
</trkpt>
|
|
<trkpt lat="55.574641" lon="8.216397">
|
|
<ele>8.036938</ele>
|
|
<time>2026-07-11T14:38:37.000Z</time>
|
|
</trkpt>
|
|
<trkpt lat="55.574680" lon="8.216485">
|
|
<ele>8.039073</ele>
|
|
<time>2026-07-11T14:38:38.000Z</time>
|
|
</trkpt>
|
|
<trkpt lat="55.574716" lon="8.216573">
|
|
<ele>8.041148</ele>
|
|
<time>2026-07-11T14:38:39.000Z</time>
|
|
</trkpt>
|
|
<trkpt lat="55.574754" lon="8.216661">
|
|
<ele>8.043263</ele>
|
|
<time>2026-07-11T14:38:40.000Z</time>
|
|
</trkpt>
|
|
<trkpt lat="55.574792" lon="8.216750">
|
|
<ele>8.045394</ele>
|
|
<time>2026-07-11T14:38:41.000Z</time>
|
|
</trkpt>
|
|
<trkpt lat="55.574832" lon="8.216840">
|
|
<ele>8.047580</ele>
|
|
<time>2026-07-11T14:38:42.000Z</time>
|
|
</trkpt>
|
|
<trkpt lat="55.574873" lon="8.216933">
|
|
<ele>8.049833</ele>
|
|
<time>2026-07-11T14:38:43.000Z</time>
|
|
</trkpt>
|
|
<trkpt lat="55.574910" lon="8.217027">
|
|
<ele>8.052021</ele>
|
|
<time>2026-07-11T14:38:44.000Z</time>
|
|
</trkpt>
|
|
<trkpt lat="55.574947" lon="8.217121">
|
|
<ele>8.054208</ele>
|
|
<time>2026-07-11T14:38:45.000Z</time>
|
|
</trkpt>
|
|
<trkpt lat="55.574983" lon="8.217212">
|
|
<ele>8.056330</ele>
|
|
<time>2026-07-11T14:38:46.000Z</time>
|
|
</trkpt>
|
|
<trkpt lat="55.575019" lon="8.217301">
|
|
<ele>8.058420</ele>
|
|
<time>2026-07-11T14:38:47.000Z</time>
|
|
</trkpt>
|
|
<trkpt lat="55.575056" lon="8.217394">
|
|
<ele>8.060592</ele>
|
|
<time>2026-07-11T14:38:48.000Z</time>
|
|
</trkpt>
|
|
<trkpt lat="55.575094" lon="8.217486">
|
|
<ele>8.062768</ele>
|
|
<time>2026-07-11T14:38:49.000Z</time>
|
|
</trkpt>
|
|
<trkpt lat="55.575130" lon="8.217579">
|
|
<ele>8.064921</ele>
|
|
<time>2026-07-11T14:38:50.000Z</time>
|
|
</trkpt>
|
|
<trkpt lat="55.575166" lon="8.217675">
|
|
<ele>8.067122</ele>
|
|
<time>2026-07-11T14:38:51.000Z</time>
|
|
</trkpt>
|
|
<trkpt lat="55.575202" lon="8.217770">
|
|
<ele>8.069306</ele>
|
|
<time>2026-07-11T14:38:52.000Z</time>
|
|
</trkpt>
|
|
<trkpt lat="55.575237" lon="8.217867">
|
|
<ele>8.071504</ele>
|
|
<time>2026-07-11T14:38:53.000Z</time>
|
|
</trkpt>
|
|
<trkpt lat="55.575277" lon="8.217971">
|
|
<ele>8.073907</ele>
|
|
<time>2026-07-11T14:38:54.000Z</time>
|
|
</trkpt>
|
|
<trkpt lat="55.575313" lon="8.218068">
|
|
<ele>8.076123</ele>
|
|
<time>2026-07-11T14:38:55.000Z</time>
|
|
</trkpt>
|
|
<trkpt lat="55.575347" lon="8.218167">
|
|
<ele>8.078336</ele>
|
|
<time>2026-07-11T14:38:56.000Z</time>
|
|
</trkpt>
|
|
<trkpt lat="55.575379" lon="8.218261">
|
|
<ele>8.080431</ele>
|
|
<time>2026-07-11T14:38:57.000Z</time>
|
|
</trkpt>
|
|
<trkpt lat="55.575411" lon="8.218351">
|
|
<ele>8.082462</ele>
|
|
<time>2026-07-11T14:38:58.000Z</time>
|
|
</trkpt>
|
|
<trkpt lat="55.575444" lon="8.218448">
|
|
<ele>8.084624</ele>
|
|
<time>2026-07-11T14:38:59.000Z</time>
|
|
</trkpt>
|
|
<trkpt lat="55.575472" lon="8.218542">
|
|
<ele>8.086654</ele>
|
|
<time>2026-07-11T14:39:00.000Z</time>
|
|
</trkpt>
|
|
<trkpt lat="55.575502" lon="8.218641">
|
|
<ele>8.088799</ele>
|
|
<time>2026-07-11T14:39:01.000Z</time>
|
|
</trkpt>
|
|
<trkpt lat="55.575532" lon="8.218741">
|
|
<ele>8.090962</ele>
|
|
<time>2026-07-11T14:39:02.000Z</time>
|
|
</trkpt>
|
|
<trkpt lat="55.575561" lon="8.218844">
|
|
<ele>8.093159</ele>
|
|
<time>2026-07-11T14:39:03.000Z</time>
|
|
</trkpt>
|
|
<trkpt lat="55.575589" lon="8.218954">
|
|
<ele>8.087647</ele>
|
|
<time>2026-07-11T14:39:04.000Z</time>
|
|
</trkpt>
|
|
<trkpt lat="55.575617" lon="8.219064">
|
|
<ele>8.074689</ele>
|
|
<time>2026-07-11T14:39:05.000Z</time>
|
|
</trkpt>
|
|
<trkpt lat="55.575647" lon="8.219175">
|
|
<ele>8.061474</ele>
|
|
<time>2026-07-11T14:39:06.000Z</time>
|
|
</trkpt>
|
|
<trkpt lat="55.575678" lon="8.219285">
|
|
<ele>8.048271</ele>
|
|
<time>2026-07-11T14:39:07.000Z</time>
|
|
</trkpt>
|
|
<trkpt lat="55.575709" lon="8.219393">
|
|
<ele>8.035261</ele>
|
|
<time>2026-07-11T14:39:08.000Z</time>
|
|
</trkpt>
|
|
<trkpt lat="55.575737" lon="8.219500">
|
|
<ele>8.022596</ele>
|
|
<time>2026-07-11T14:39:09.000Z</time>
|
|
</trkpt>
|
|
<trkpt lat="55.575766" lon="8.219607">
|
|
<ele>8.009850</ele>
|
|
<time>2026-07-11T14:39:10.000Z</time>
|
|
</trkpt>
|
|
<trkpt lat="55.575798" lon="8.219715">
|
|
<ele>7.996753</ele>
|
|
<time>2026-07-11T14:39:11.000Z</time>
|
|
</trkpt>
|
|
<trkpt lat="55.575832" lon="8.219820">
|
|
<ele>7.983755</ele>
|
|
<time>2026-07-11T14:39:12.000Z</time>
|
|
</trkpt>
|
|
<trkpt lat="55.575863" lon="8.219924">
|
|
<ele>7.971126</ele>
|
|
<time>2026-07-11T14:39:13.000Z</time>
|
|
</trkpt>
|
|
<trkpt lat="55.575891" lon="8.220033">
|
|
<ele>7.958266</ele>
|
|
<time>2026-07-11T14:39:14.000Z</time>
|
|
</trkpt>
|
|
<trkpt lat="55.575923" lon="8.220140">
|
|
<ele>7.945264</ele>
|
|
<time>2026-07-11T14:39:15.000Z</time>
|
|
</trkpt>
|
|
<trkpt lat="55.575955" lon="8.220245">
|
|
<ele>7.932451</ele>
|
|
<time>2026-07-11T14:39:16.000Z</time>
|
|
</trkpt>
|
|
<trkpt lat="55.575987" lon="8.220355">
|
|
<ele>7.919163</ele>
|
|
<time>2026-07-11T14:39:17.000Z</time>
|
|
</trkpt>
|
|
<trkpt lat="55.576017" lon="8.220463">
|
|
<ele>7.906237</ele>
|
|
<time>2026-07-11T14:39:18.000Z</time>
|
|
</trkpt>
|
|
<trkpt lat="55.576049" lon="8.220569">
|
|
<ele>7.893330</ele>
|
|
<time>2026-07-11T14:39:19.000Z</time>
|
|
</trkpt>
|
|
<trkpt lat="55.576082" lon="8.220678">
|
|
<ele>7.880048</ele>
|
|
<time>2026-07-11T14:39:20.000Z</time>
|
|
</trkpt>
|
|
<trkpt lat="55.576112" lon="8.220788">
|
|
<ele>7.866930</ele>
|
|
<time>2026-07-11T14:39:21.000Z</time>
|
|
</trkpt>
|
|
<trkpt lat="55.576145" lon="8.220898">
|
|
<ele>7.853554</ele>
|
|
<time>2026-07-11T14:39:22.000Z</time>
|
|
</trkpt>
|
|
<trkpt lat="55.576177" lon="8.221004">
|
|
<ele>7.840646</ele>
|
|
<time>2026-07-11T14:39:23.000Z</time>
|
|
</trkpt>
|
|
<trkpt lat="55.576207" lon="8.221105">
|
|
<ele>7.828391</ele>
|
|
<time>2026-07-11T14:39:24.000Z</time>
|
|
</trkpt>
|
|
<trkpt lat="55.576236" lon="8.221200">
|
|
<ele>7.816794</ele>
|
|
<time>2026-07-11T14:39:25.000Z</time>
|
|
</trkpt>
|
|
<trkpt lat="55.576265" lon="8.221295">
|
|
<ele>7.805198</ele>
|
|
<time>2026-07-11T14:39:26.000Z</time>
|
|
</trkpt>
|
|
<trkpt lat="55.576297" lon="8.221405">
|
|
<ele>7.791910</ele>
|
|
<time>2026-07-11T14:39:27.000Z</time>
|
|
</trkpt>
|
|
<trkpt lat="55.576329" lon="8.221522">
|
|
<ele>7.777949</ele>
|
|
<time>2026-07-11T14:39:28.000Z</time>
|
|
</trkpt>
|
|
<trkpt lat="55.576357" lon="8.221632">
|
|
<ele>7.764991</ele>
|
|
<time>2026-07-11T14:39:29.000Z</time>
|
|
</trkpt>
|
|
<trkpt lat="55.576386" lon="8.221744">
|
|
<ele>7.752855</ele>
|
|
<time>2026-07-11T14:39:30.000Z</time>
|
|
</trkpt>
|
|
<trkpt lat="55.576412" lon="8.221855">
|
|
<ele>7.758308</ele>
|
|
<time>2026-07-11T14:39:31.000Z</time>
|
|
</trkpt>
|
|
<trkpt lat="55.576441" lon="8.221963">
|
|
<ele>7.763733</ele>
|
|
<time>2026-07-11T14:39:32.000Z</time>
|
|
</trkpt>
|
|
<trkpt lat="55.576471" lon="8.222070">
|
|
<ele>7.769153</ele>
|
|
<time>2026-07-11T14:39:33.000Z</time>
|
|
</trkpt>
|
|
<trkpt lat="55.576502" lon="8.222171">
|
|
<ele>7.774368</ele>
|
|
<time>2026-07-11T14:39:34.000Z</time>
|
|
</trkpt>
|
|
<trkpt lat="55.576534" lon="8.222272">
|
|
<ele>7.779622</ele>
|
|
<time>2026-07-11T14:39:35.000Z</time>
|
|
</trkpt>
|
|
<trkpt lat="55.576568" lon="8.222374">
|
|
<ele>7.784996</ele>
|
|
<time>2026-07-11T14:39:36.000Z</time>
|
|
</trkpt>
|
|
<trkpt lat="55.576604" lon="8.222469">
|
|
<ele>7.790186</ele>
|
|
<time>2026-07-11T14:39:37.000Z</time>
|
|
</trkpt>
|
|
<trkpt lat="55.576640" lon="8.222560">
|
|
<ele>7.795226</ele>
|
|
<time>2026-07-11T14:39:38.000Z</time>
|
|
</trkpt>
|
|
<trkpt lat="55.576677" lon="8.222656">
|
|
<ele>7.800498</ele>
|
|
<time>2026-07-11T14:39:39.000Z</time>
|
|
</trkpt>
|
|
<trkpt lat="55.576715" lon="8.222754">
|
|
<ele>7.805891</ele>
|
|
<time>2026-07-11T14:39:40.000Z</time>
|
|
</trkpt>
|
|
<trkpt lat="55.576755" lon="8.222857">
|
|
<ele>7.811561</ele>
|
|
<time>2026-07-11T14:39:41.000Z</time>
|
|
</trkpt>
|
|
<trkpt lat="55.576795" lon="8.222961">
|
|
<ele>7.817269</ele>
|
|
<time>2026-07-11T14:39:42.000Z</time>
|
|
</trkpt>
|
|
<trkpt lat="55.576837" lon="8.223064">
|
|
<ele>7.823032</ele>
|
|
<time>2026-07-11T14:39:43.000Z</time>
|
|
</trkpt>
|
|
<trkpt lat="55.576883" lon="8.223167">
|
|
<ele>7.828989</ele>
|
|
<time>2026-07-11T14:39:44.000Z</time>
|
|
</trkpt>
|
|
<trkpt lat="55.576927" lon="8.223266">
|
|
<ele>7.834704</ele>
|
|
<time>2026-07-11T14:39:45.000Z</time>
|
|
</trkpt>
|
|
<trkpt lat="55.576970" lon="8.223360">
|
|
<ele>7.840191</ele>
|
|
<time>2026-07-11T14:39:46.000Z</time>
|
|
</trkpt>
|
|
<trkpt lat="55.577016" lon="8.223452">
|
|
<ele>7.845764</ele>
|
|
<time>2026-07-11T14:39:47.000Z</time>
|
|
</trkpt>
|
|
<trkpt lat="55.577058" lon="8.223543">
|
|
<ele>7.851095</ele>
|
|
<time>2026-07-11T14:39:48.000Z</time>
|
|
</trkpt>
|
|
<trkpt lat="55.577099" lon="8.223635">
|
|
<ele>7.856411</ele>
|
|
<time>2026-07-11T14:39:49.000Z</time>
|
|
</trkpt>
|
|
<trkpt lat="55.577142" lon="8.223727">
|
|
<ele>7.861828</ele>
|
|
<time>2026-07-11T14:39:50.000Z</time>
|
|
</trkpt>
|
|
<trkpt lat="55.577180" lon="8.223821">
|
|
<ele>7.867072</ele>
|
|
<time>2026-07-11T14:39:51.000Z</time>
|
|
</trkpt>
|
|
<trkpt lat="55.577218" lon="8.223919">
|
|
<ele>7.872465</ele>
|
|
<time>2026-07-11T14:39:52.000Z</time>
|
|
</trkpt>
|
|
<trkpt lat="55.577256" lon="8.224022">
|
|
<ele>7.878046</ele>
|
|
<time>2026-07-11T14:39:53.000Z</time>
|
|
</trkpt>
|
|
<trkpt lat="55.577292" lon="8.224125">
|
|
<ele>7.883541</ele>
|
|
<time>2026-07-11T14:39:54.000Z</time>
|
|
</trkpt>
|
|
<trkpt lat="55.577327" lon="8.224235">
|
|
<ele>7.889269</ele>
|
|
<time>2026-07-11T14:39:55.000Z</time>
|
|
</trkpt>
|
|
<trkpt lat="55.577362" lon="8.224344">
|
|
<ele>7.894957</ele>
|
|
<time>2026-07-11T14:39:56.000Z</time>
|
|
</trkpt>
|
|
<trkpt lat="55.577393" lon="8.224453">
|
|
<ele>7.898794</ele>
|
|
<time>2026-07-11T14:39:57.000Z</time>
|
|
</trkpt>
|
|
<trkpt lat="55.577421" lon="8.224566">
|
|
<ele>7.901735</ele>
|
|
<time>2026-07-11T14:39:58.000Z</time>
|
|
</trkpt>
|
|
<trkpt lat="55.577450" lon="8.224677">
|
|
<ele>7.904650</ele>
|
|
<time>2026-07-11T14:39:59.000Z</time>
|
|
</trkpt>
|
|
<trkpt lat="55.577477" lon="8.224789">
|
|
<ele>7.907553</ele>
|
|
<time>2026-07-11T14:40:00.000Z</time>
|
|
</trkpt>
|
|
<trkpt lat="55.577503" lon="8.224903">
|
|
<ele>7.910484</ele>
|
|
<time>2026-07-11T14:40:01.000Z</time>
|
|
</trkpt>
|
|
<trkpt lat="55.577530" lon="8.225017">
|
|
<ele>7.913431</ele>
|
|
<time>2026-07-11T14:40:02.000Z</time>
|
|
</trkpt>
|
|
<trkpt lat="55.577555" lon="8.225127">
|
|
<ele>7.916257</ele>
|
|
<time>2026-07-11T14:40:03.000Z</time>
|
|
</trkpt>
|
|
<trkpt lat="55.577579" lon="8.225241">
|
|
<ele>7.919158</ele>
|
|
<time>2026-07-11T14:40:04.000Z</time>
|
|
</trkpt>
|
|
<trkpt lat="55.577606" lon="8.225352">
|
|
<ele>7.922039</ele>
|
|
<time>2026-07-11T14:40:05.000Z</time>
|
|
</trkpt>
|
|
<trkpt lat="55.577632" lon="8.225460">
|
|
<ele>7.924837</ele>
|
|
<time>2026-07-11T14:40:06.000Z</time>
|
|
</trkpt>
|
|
<trkpt lat="55.577660" lon="8.225571">
|
|
<ele>7.927735</ele>
|
|
<time>2026-07-11T14:40:07.000Z</time>
|
|
</trkpt>
|
|
<trkpt lat="55.577685" lon="8.225680">
|
|
<ele>7.930540</ele>
|
|
<time>2026-07-11T14:40:08.000Z</time>
|
|
</trkpt>
|
|
<trkpt lat="55.577711" lon="8.225789">
|
|
<ele>7.933360</ele>
|
|
<time>2026-07-11T14:40:09.000Z</time>
|
|
</trkpt>
|
|
<trkpt lat="55.577742" lon="8.225899">
|
|
<ele>7.936290</ele>
|
|
<time>2026-07-11T14:40:10.000Z</time>
|
|
</trkpt>
|
|
<trkpt lat="55.577772" lon="8.226007">
|
|
<ele>7.939159</ele>
|
|
<time>2026-07-11T14:40:11.000Z</time>
|
|
</trkpt>
|
|
<trkpt lat="55.577801" lon="8.226117">
|
|
<ele>7.942053</ele>
|
|
<time>2026-07-11T14:40:12.000Z</time>
|
|
</trkpt>
|
|
<trkpt lat="55.577827" lon="8.226225">
|
|
<ele>7.944852</ele>
|
|
<time>2026-07-11T14:40:13.000Z</time>
|
|
</trkpt>
|
|
<trkpt lat="55.577851" lon="8.226330">
|
|
<ele>7.947552</ele>
|
|
<time>2026-07-11T14:40:14.000Z</time>
|
|
</trkpt>
|
|
<trkpt lat="55.577878" lon="8.226437">
|
|
<ele>7.950345</ele>
|
|
<time>2026-07-11T14:40:15.000Z</time>
|
|
</trkpt>
|
|
<trkpt lat="55.577909" lon="8.226540">
|
|
<ele>7.953127</ele>
|
|
<time>2026-07-11T14:40:16.000Z</time>
|
|
</trkpt>
|
|
<trkpt lat="55.577932" lon="8.226632">
|
|
<ele>7.955526</ele>
|
|
<time>2026-07-11T14:40:17.000Z</time>
|
|
</trkpt>
|
|
<trkpt lat="55.577966" lon="8.226753">
|
|
<ele>7.958747</ele>
|
|
<time>2026-07-11T14:40:18.000Z</time>
|
|
</trkpt>
|
|
<trkpt lat="55.577995" lon="8.226858">
|
|
<ele>7.961533</ele>
|
|
<time>2026-07-11T14:40:19.000Z</time>
|
|
</trkpt>
|
|
<trkpt lat="55.578020" lon="8.226956">
|
|
<ele>7.964097</ele>
|
|
<time>2026-07-11T14:40:20.000Z</time>
|
|
</trkpt>
|
|
<trkpt lat="55.578040" lon="8.227056">
|
|
<ele>7.966625</ele>
|
|
<time>2026-07-11T14:40:21.000Z</time>
|
|
</trkpt>
|
|
<trkpt lat="55.578055" lon="8.227158">
|
|
<ele>7.969138</ele>
|
|
<time>2026-07-11T14:40:22.000Z</time>
|
|
</trkpt>
|
|
<trkpt lat="55.578067" lon="8.227256">
|
|
<ele>7.971529</ele>
|
|
<time>2026-07-11T14:40:23.000Z</time>
|
|
</trkpt>
|
|
<trkpt lat="55.578076" lon="8.227350">
|
|
<ele>7.981294</ele>
|
|
<time>2026-07-11T14:40:24.000Z</time>
|
|
</trkpt>
|
|
<trkpt lat="55.578085" lon="8.227441">
|
|
<ele>7.999473</ele>
|
|
<time>2026-07-11T14:40:25.000Z</time>
|
|
</trkpt>
|
|
<trkpt lat="55.578090" lon="8.227531">
|
|
<ele>8.017268</ele>
|
|
<time>2026-07-11T14:40:26.000Z</time>
|
|
</trkpt>
|
|
<trkpt lat="55.578096" lon="8.227619">
|
|
<ele>8.034710</ele>
|
|
<time>2026-07-11T14:40:27.000Z</time>
|
|
</trkpt>
|
|
<trkpt lat="55.578097" lon="8.227709">
|
|
<ele>8.052424</ele>
|
|
<time>2026-07-11T14:40:28.000Z</time>
|
|
</trkpt>
|
|
<trkpt lat="55.578093" lon="8.227794">
|
|
<ele>8.069207</ele>
|
|
<time>2026-07-11T14:40:29.000Z</time>
|
|
</trkpt>
|
|
<trkpt lat="55.578089" lon="8.227873">
|
|
<ele>8.084815</ele>
|
|
<time>2026-07-11T14:40:30.000Z</time>
|
|
</trkpt>
|
|
<trkpt lat="55.578084" lon="8.227948">
|
|
<ele>8.099676</ele>
|
|
<time>2026-07-11T14:40:31.000Z</time>
|
|
</trkpt>
|
|
<trkpt lat="55.578076" lon="8.228019">
|
|
<ele>8.113922</ele>
|
|
<time>2026-07-11T14:40:32.000Z</time>
|
|
</trkpt>
|
|
<trkpt lat="55.578068" lon="8.228079">
|
|
<ele>8.126052</ele>
|
|
<time>2026-07-11T14:40:33.000Z</time>
|
|
</trkpt>
|
|
<trkpt lat="55.578062" lon="8.228128">
|
|
<ele>8.135918</ele>
|
|
<time>2026-07-11T14:40:34.000Z</time>
|
|
</trkpt>
|
|
<trkpt lat="55.578059" lon="8.228166">
|
|
<ele>8.143468</ele>
|
|
<time>2026-07-11T14:40:35.000Z</time>
|
|
</trkpt>
|
|
<trkpt lat="55.578033" lon="8.228360">
|
|
<ele>8.182701</ele>
|
|
<time>2026-07-11T14:40:45.000Z</time>
|
|
</trkpt>
|
|
<trkpt lat="55.578033" lon="8.228412">
|
|
<ele>8.192934</ele>
|
|
<time>2026-07-11T14:40:46.000Z</time>
|
|
</trkpt>
|
|
<trkpt lat="55.578037" lon="8.228467">
|
|
<ele>8.203846</ele>
|
|
<time>2026-07-11T14:40:47.000Z</time>
|
|
</trkpt>
|
|
<trkpt lat="55.578049" lon="8.228511">
|
|
<ele>8.213459</ele>
|
|
<time>2026-07-11T14:40:48.000Z</time>
|
|
</trkpt>
|
|
<trkpt lat="55.578069" lon="8.228541">
|
|
<ele>8.222587</ele>
|
|
<time>2026-07-11T14:40:49.000Z</time>
|
|
</trkpt>
|
|
<trkpt lat="55.578095" lon="8.228556">
|
|
<ele>8.232107</ele>
|
|
<time>2026-07-11T14:40:50.000Z</time>
|
|
</trkpt>
|
|
<trkpt lat="55.578127" lon="8.228569">
|
|
<ele>8.243536</ele>
|
|
<time>2026-07-11T14:40:51.000Z</time>
|
|
</trkpt>
|
|
<trkpt lat="55.578162" lon="8.228586">
|
|
<ele>8.256171</ele>
|
|
<time>2026-07-11T14:40:52.000Z</time>
|
|
</trkpt>
|
|
<trkpt lat="55.578202" lon="8.228604">
|
|
<ele>8.270538</ele>
|
|
<time>2026-07-11T14:40:53.000Z</time>
|
|
</trkpt>
|
|
<trkpt lat="55.578239" lon="8.228621">
|
|
<ele>8.283846</ele>
|
|
<time>2026-07-11T14:40:54.000Z</time>
|
|
</trkpt>
|
|
<trkpt lat="55.578276" lon="8.228639">
|
|
<ele>8.297204</ele>
|
|
<time>2026-07-11T14:40:55.000Z</time>
|
|
</trkpt>
|
|
<trkpt lat="55.578315" lon="8.228660">
|
|
<ele>8.311395</ele>
|
|
<time>2026-07-11T14:40:56.000Z</time>
|
|
</trkpt>
|
|
<trkpt lat="55.578352" lon="8.228680">
|
|
<ele>8.324862</ele>
|
|
<time>2026-07-11T14:40:57.000Z</time>
|
|
</trkpt>
|
|
<trkpt lat="55.578387" lon="8.228699">
|
|
<ele>8.337607</ele>
|
|
<time>2026-07-11T14:40:58.000Z</time>
|
|
</trkpt>
|
|
<trkpt lat="55.578424" lon="8.228718">
|
|
<ele>8.351018</ele>
|
|
<time>2026-07-11T14:40:59.000Z</time>
|
|
</trkpt>
|
|
<trkpt lat="55.578462" lon="8.228738">
|
|
<ele>8.364819</ele>
|
|
<time>2026-07-11T14:41:00.000Z</time>
|
|
</trkpt>
|
|
<trkpt lat="55.578503" lon="8.228759">
|
|
<ele>8.379678</ele>
|
|
<time>2026-07-11T14:41:01.000Z</time>
|
|
</trkpt>
|
|
<trkpt lat="55.578549" lon="8.228780">
|
|
<ele>8.396215</ele>
|
|
<time>2026-07-11T14:41:02.000Z</time>
|
|
</trkpt>
|
|
<trkpt lat="55.578593" lon="8.228803">
|
|
<ele>8.412186</ele>
|
|
<time>2026-07-11T14:41:03.000Z</time>
|
|
</trkpt>
|
|
<trkpt lat="55.578634" lon="8.228825">
|
|
<ele>8.427101</ele>
|
|
<time>2026-07-11T14:41:04.000Z</time>
|
|
</trkpt>
|
|
<trkpt lat="55.578677" lon="8.228845">
|
|
<ele>8.442578</ele>
|
|
<time>2026-07-11T14:41:05.000Z</time>
|
|
</trkpt>
|
|
<trkpt lat="55.578723" lon="8.228867">
|
|
<ele>8.459166</ele>
|
|
<time>2026-07-11T14:41:06.000Z</time>
|
|
</trkpt>
|
|
<trkpt lat="55.578773" lon="8.228893">
|
|
<ele>8.477307</ele>
|
|
<time>2026-07-11T14:41:07.000Z</time>
|
|
</trkpt>
|
|
<trkpt lat="55.578828" lon="8.228921">
|
|
<ele>8.497230</ele>
|
|
<time>2026-07-11T14:41:08.000Z</time>
|
|
</trkpt>
|
|
<trkpt lat="55.578881" lon="8.228948">
|
|
<ele>8.516429</ele>
|
|
<time>2026-07-11T14:41:09.000Z</time>
|
|
</trkpt>
|
|
<trkpt lat="55.578938" lon="8.228975">
|
|
<ele>8.536970</ele>
|
|
<time>2026-07-11T14:41:10.000Z</time>
|
|
</trkpt>
|
|
<trkpt lat="55.578985" lon="8.228996">
|
|
<ele>8.553845</ele>
|
|
<time>2026-07-11T14:41:11.000Z</time>
|
|
</trkpt>
|
|
<trkpt lat="55.579033" lon="8.229017">
|
|
<ele>8.571057</ele>
|
|
<time>2026-07-11T14:41:12.000Z</time>
|
|
</trkpt>
|
|
<trkpt lat="55.579090" lon="8.229044">
|
|
<ele>8.591598</ele>
|
|
<time>2026-07-11T14:41:13.000Z</time>
|
|
</trkpt>
|
|
<trkpt lat="55.579151" lon="8.229073">
|
|
<ele>8.602402</ele>
|
|
<time>2026-07-11T14:41:14.000Z</time>
|
|
</trkpt>
|
|
<trkpt lat="55.579216" lon="8.229101">
|
|
<ele>8.607974</ele>
|
|
<time>2026-07-11T14:41:15.000Z</time>
|
|
</trkpt>
|
|
<trkpt lat="55.579280" lon="8.229123">
|
|
<ele>8.613404</ele>
|
|
<time>2026-07-11T14:41:16.000Z</time>
|
|
</trkpt>
|
|
<trkpt lat="55.579341" lon="8.229144">
|
|
<ele>8.618580</ele>
|
|
<time>2026-07-11T14:41:17.000Z</time>
|
|
</trkpt>
|
|
<trkpt lat="55.579401" lon="8.229165">
|
|
<ele>8.623674</ele>
|
|
<time>2026-07-11T14:41:18.000Z</time>
|
|
</trkpt>
|
|
<trkpt lat="55.579458" lon="8.229189">
|
|
<ele>8.628554</ele>
|
|
<time>2026-07-11T14:41:19.000Z</time>
|
|
</trkpt>
|
|
<trkpt lat="55.579514" lon="8.229215">
|
|
<ele>8.633376</ele>
|
|
<time>2026-07-11T14:41:20.000Z</time>
|
|
</trkpt>
|
|
<trkpt lat="55.579570" lon="8.229240">
|
|
<ele>8.638187</ele>
|
|
<time>2026-07-11T14:41:21.000Z</time>
|
|
</trkpt>
|
|
<trkpt lat="55.579628" lon="8.229268">
|
|
<ele>8.643194</ele>
|
|
<time>2026-07-11T14:41:22.000Z</time>
|
|
</trkpt>
|
|
<trkpt lat="55.579687" lon="8.229302">
|
|
<ele>8.648362</ele>
|
|
<time>2026-07-11T14:41:23.000Z</time>
|
|
</trkpt>
|
|
<trkpt lat="55.579751" lon="8.229336">
|
|
<ele>8.653928</ele>
|
|
<time>2026-07-11T14:41:24.000Z</time>
|
|
</trkpt>
|
|
<trkpt lat="55.579821" lon="8.229370">
|
|
<ele>8.659973</ele>
|
|
<time>2026-07-11T14:41:25.000Z</time>
|
|
</trkpt>
|
|
<trkpt lat="55.579890" lon="8.229403">
|
|
<ele>8.665927</ele>
|
|
<time>2026-07-11T14:41:26.000Z</time>
|
|
</trkpt>
|
|
<trkpt lat="55.579957" lon="8.229433">
|
|
<ele>8.671683</ele>
|
|
<time>2026-07-11T14:41:27.000Z</time>
|
|
</trkpt>
|
|
<trkpt lat="55.580022" lon="8.229458">
|
|
<ele>8.677223</ele>
|
|
<time>2026-07-11T14:41:28.000Z</time>
|
|
</trkpt>
|
|
<trkpt lat="55.580085" lon="8.229480">
|
|
<ele>8.682571</ele>
|
|
<time>2026-07-11T14:41:29.000Z</time>
|
|
</trkpt>
|
|
<trkpt lat="55.580145" lon="8.229501">
|
|
<ele>8.687665</ele>
|
|
<time>2026-07-11T14:41:30.000Z</time>
|
|
</trkpt>
|
|
<trkpt lat="55.580209" lon="8.229521">
|
|
<ele>8.693078</ele>
|
|
<time>2026-07-11T14:41:31.000Z</time>
|
|
</trkpt>
|
|
<trkpt lat="55.580277" lon="8.229540">
|
|
<ele>8.698812</ele>
|
|
<time>2026-07-11T14:41:32.000Z</time>
|
|
</trkpt>
|
|
<trkpt lat="55.580340" lon="8.229556">
|
|
<ele>8.704113</ele>
|
|
<time>2026-07-11T14:41:33.000Z</time>
|
|
</trkpt>
|
|
<trkpt lat="55.580400" lon="8.229572">
|
|
<ele>8.709167</ele>
|
|
<time>2026-07-11T14:41:34.000Z</time>
|
|
</trkpt>
|
|
<trkpt lat="55.580464" lon="8.229593">
|
|
<ele>8.714588</ele>
|
|
<time>2026-07-11T14:41:35.000Z</time>
|
|
</trkpt>
|
|
<trkpt lat="55.580538" lon="8.229618">
|
|
<ele>8.720863</ele>
|
|
<time>2026-07-11T14:41:36.000Z</time>
|
|
</trkpt>
|
|
<trkpt lat="55.580596" lon="8.229639">
|
|
<ele>8.725793</ele>
|
|
<time>2026-07-11T14:41:37.000Z</time>
|
|
</trkpt>
|
|
<trkpt lat="55.580653" lon="8.229660">
|
|
<ele>8.730643</ele>
|
|
<time>2026-07-11T14:41:38.000Z</time>
|
|
</trkpt>
|
|
<trkpt lat="55.580709" lon="8.229679">
|
|
<ele>8.735392</ele>
|
|
<time>2026-07-11T14:41:39.000Z</time>
|
|
</trkpt>
|
|
<trkpt lat="55.580765" lon="8.229697">
|
|
<ele>8.740132</ele>
|
|
<time>2026-07-11T14:41:40.000Z</time>
|
|
</trkpt>
|
|
<trkpt lat="55.580822" lon="8.229713">
|
|
<ele>8.744939</ele>
|
|
<time>2026-07-11T14:41:41.000Z</time>
|
|
</trkpt>
|
|
<trkpt lat="55.580880" lon="8.229727">
|
|
<ele>8.742634</ele>
|
|
<time>2026-07-11T14:41:42.000Z</time>
|
|
</trkpt>
|
|
<trkpt lat="55.580940" lon="8.229741">
|
|
<ele>8.715502</ele>
|
|
<time>2026-07-11T14:41:43.000Z</time>
|
|
</trkpt>
|
|
<trkpt lat="55.581006" lon="8.229753">
|
|
<ele>8.685758</ele>
|
|
<time>2026-07-11T14:41:44.000Z</time>
|
|
</trkpt>
|
|
<trkpt lat="55.581076" lon="8.229763">
|
|
<ele>8.654275</ele>
|
|
<time>2026-07-11T14:41:45.000Z</time>
|
|
</trkpt>
|
|
<trkpt lat="55.581141" lon="8.229770">
|
|
<ele>8.625081</ele>
|
|
<time>2026-07-11T14:41:46.000Z</time>
|
|
</trkpt>
|
|
<trkpt lat="55.581204" lon="8.229777">
|
|
<ele>8.596782</ele>
|
|
<time>2026-07-11T14:41:47.000Z</time>
|
|
</trkpt>
|
|
<trkpt lat="55.581269" lon="8.229788">
|
|
<ele>8.567509</ele>
|
|
<time>2026-07-11T14:41:48.000Z</time>
|
|
</trkpt>
|
|
<trkpt lat="55.581333" lon="8.229799">
|
|
<ele>8.538682</ele>
|
|
<time>2026-07-11T14:41:49.000Z</time>
|
|
</trkpt>
|
|
<trkpt lat="55.581399" lon="8.229810">
|
|
<ele>8.508963</ele>
|
|
<time>2026-07-11T14:41:50.000Z</time>
|
|
</trkpt>
|
|
<trkpt lat="55.581466" lon="8.229822">
|
|
<ele>8.478773</ele>
|
|
<time>2026-07-11T14:41:51.000Z</time>
|
|
</trkpt>
|
|
<trkpt lat="55.581532" lon="8.229834">
|
|
<ele>8.449029</ele>
|
|
<time>2026-07-11T14:41:52.000Z</time>
|
|
</trkpt>
|
|
<trkpt lat="55.581601" lon="8.229847">
|
|
<ele>8.417921</ele>
|
|
<time>2026-07-11T14:41:53.000Z</time>
|
|
</trkpt>
|
|
<trkpt lat="55.581666" lon="8.229862">
|
|
<ele>8.388534</ele>
|
|
<time>2026-07-11T14:41:54.000Z</time>
|
|
</trkpt>
|
|
<trkpt lat="55.581727" lon="8.229875">
|
|
<ele>8.360990</ele>
|
|
<time>2026-07-11T14:41:55.000Z</time>
|
|
</trkpt>
|
|
<trkpt lat="55.581790" lon="8.229890">
|
|
<ele>8.332492</ele>
|
|
<time>2026-07-11T14:41:56.000Z</time>
|
|
</trkpt>
|
|
<trkpt lat="55.581853" lon="8.229904">
|
|
<ele>8.304027</ele>
|
|
<time>2026-07-11T14:41:57.000Z</time>
|
|
</trkpt>
|
|
<trkpt lat="55.581914" lon="8.229917">
|
|
<ele>8.276482</ele>
|
|
<time>2026-07-11T14:41:58.000Z</time>
|
|
</trkpt>
|
|
<trkpt lat="55.581972" lon="8.229932">
|
|
<ele>8.250204</ele>
|
|
<time>2026-07-11T14:41:59.000Z</time>
|
|
</trkpt>
|
|
<trkpt lat="55.582035" lon="8.229948">
|
|
<ele>8.221671</ele>
|
|
<time>2026-07-11T14:42:00.000Z</time>
|
|
</trkpt>
|
|
<trkpt lat="55.582105" lon="8.229962">
|
|
<ele>8.190090</ele>
|
|
<time>2026-07-11T14:42:01.000Z</time>
|
|
</trkpt>
|
|
<trkpt lat="55.582172" lon="8.229973">
|
|
<ele>8.159925</ele>
|
|
<time>2026-07-11T14:42:02.000Z</time>
|
|
</trkpt>
|
|
<trkpt lat="55.582234" lon="8.229980">
|
|
<ele>8.132073</ele>
|
|
<time>2026-07-11T14:42:03.000Z</time>
|
|
</trkpt>
|
|
<trkpt lat="55.582298" lon="8.229985">
|
|
<ele>8.103354</ele>
|
|
<time>2026-07-11T14:42:04.000Z</time>
|
|
</trkpt>
|
|
<trkpt lat="55.582365" lon="8.229991">
|
|
<ele>8.073279</ele>
|
|
<time>2026-07-11T14:42:05.000Z</time>
|
|
</trkpt>
|
|
<trkpt lat="55.582432" lon="8.229998">
|
|
<ele>8.043190</ele>
|
|
<time>2026-07-11T14:42:06.000Z</time>
|
|
</trkpt>
|
|
<trkpt lat="55.582498" lon="8.230005">
|
|
<ele>8.013548</ele>
|
|
<time>2026-07-11T14:42:07.000Z</time>
|
|
</trkpt>
|
|
<trkpt lat="55.582565" lon="8.230012">
|
|
<ele>7.983459</ele>
|
|
<time>2026-07-11T14:42:08.000Z</time>
|
|
</trkpt>
|
|
<trkpt lat="55.582628" lon="8.230017">
|
|
<ele>7.955188</ele>
|
|
<time>2026-07-11T14:42:09.000Z</time>
|
|
</trkpt>
|
|
<trkpt lat="55.582690" lon="8.230022">
|
|
<ele>7.935799</ele>
|
|
<time>2026-07-11T14:42:10.000Z</time>
|
|
</trkpt>
|
|
<trkpt lat="55.582753" lon="8.230029">
|
|
<ele>7.923432</ele>
|
|
<time>2026-07-11T14:42:11.000Z</time>
|
|
</trkpt>
|
|
<trkpt lat="55.582815" lon="8.230036">
|
|
<ele>7.911261</ele>
|
|
<time>2026-07-11T14:42:12.000Z</time>
|
|
</trkpt>
|
|
<trkpt lat="55.582876" lon="8.230042">
|
|
<ele>7.899292</ele>
|
|
<time>2026-07-11T14:42:13.000Z</time>
|
|
</trkpt>
|
|
<trkpt lat="55.582936" lon="8.230046">
|
|
<ele>7.887529</ele>
|
|
<time>2026-07-11T14:42:14.000Z</time>
|
|
</trkpt>
|
|
<trkpt lat="55.582997" lon="8.230050">
|
|
<ele>7.875570</ele>
|
|
<time>2026-07-11T14:42:15.000Z</time>
|
|
</trkpt>
|
|
<trkpt lat="55.583063" lon="8.230052">
|
|
<ele>7.862638</ele>
|
|
<time>2026-07-11T14:42:16.000Z</time>
|
|
</trkpt>
|
|
<trkpt lat="55.583123" lon="8.230049">
|
|
<ele>7.850879</ele>
|
|
<time>2026-07-11T14:42:17.000Z</time>
|
|
</trkpt>
|
|
<trkpt lat="55.583181" lon="8.230042">
|
|
<ele>7.839490</ele>
|
|
<time>2026-07-11T14:42:18.000Z</time>
|
|
</trkpt>
|
|
<trkpt lat="55.583241" lon="8.230033">
|
|
<ele>7.827693</ele>
|
|
<time>2026-07-11T14:42:19.000Z</time>
|
|
</trkpt>
|
|
<trkpt lat="55.583297" lon="8.230023">
|
|
<ele>7.816666</ele>
|
|
<time>2026-07-11T14:42:20.000Z</time>
|
|
</trkpt>
|
|
<trkpt lat="55.583348" lon="8.230009">
|
|
<ele>7.806555</ele>
|
|
<time>2026-07-11T14:42:21.000Z</time>
|
|
</trkpt>
|
|
<trkpt lat="55.583399" lon="8.229999">
|
|
<ele>7.796503</ele>
|
|
<time>2026-07-11T14:42:22.000Z</time>
|
|
</trkpt>
|
|
<trkpt lat="55.583455" lon="8.229997">
|
|
<ele>7.785530</ele>
|
|
<time>2026-07-11T14:42:23.000Z</time>
|
|
</trkpt>
|
|
<trkpt lat="55.583513" lon="8.229994">
|
|
<ele>7.774162</ele>
|
|
<time>2026-07-11T14:42:24.000Z</time>
|
|
</trkpt>
|
|
<trkpt lat="55.583572" lon="8.229993">
|
|
<ele>7.762603</ele>
|
|
<time>2026-07-11T14:42:25.000Z</time>
|
|
</trkpt>
|
|
<trkpt lat="55.583631" lon="8.229994">
|
|
<ele>7.751044</ele>
|
|
<time>2026-07-11T14:42:26.000Z</time>
|
|
</trkpt>
|
|
<trkpt lat="55.583687" lon="8.229998">
|
|
<ele>7.740064</ele>
|
|
<time>2026-07-11T14:42:27.000Z</time>
|
|
</trkpt>
|
|
<trkpt lat="55.583743" lon="8.230000">
|
|
<ele>7.729090</ele>
|
|
<time>2026-07-11T14:42:28.000Z</time>
|
|
</trkpt>
|
|
<trkpt lat="55.583811" lon="8.230000">
|
|
<ele>7.715769</ele>
|
|
<time>2026-07-11T14:42:29.000Z</time>
|
|
</trkpt>
|
|
<trkpt lat="55.583871" lon="8.229997">
|
|
<ele>7.704009</ele>
|
|
<time>2026-07-11T14:42:30.000Z</time>
|
|
</trkpt>
|
|
<trkpt lat="55.583929" lon="8.229995">
|
|
<ele>7.692644</ele>
|
|
<time>2026-07-11T14:42:31.000Z</time>
|
|
</trkpt>
|
|
<trkpt lat="55.583985" lon="8.229994">
|
|
<ele>7.681673</ele>
|
|
<time>2026-07-11T14:42:32.000Z</time>
|
|
</trkpt>
|
|
<trkpt lat="55.584044" lon="8.229994">
|
|
<ele>7.670114</ele>
|
|
<time>2026-07-11T14:42:33.000Z</time>
|
|
</trkpt>
|
|
<trkpt lat="55.584103" lon="8.229995">
|
|
<ele>7.658555</ele>
|
|
<time>2026-07-11T14:42:34.000Z</time>
|
|
</trkpt>
|
|
<trkpt lat="55.584162" lon="8.229993">
|
|
<ele>7.646994</ele>
|
|
<time>2026-07-11T14:42:35.000Z</time>
|
|
</trkpt>
|
|
<trkpt lat="55.584221" lon="8.229988">
|
|
<ele>7.635422</ele>
|
|
<time>2026-07-11T14:42:36.000Z</time>
|
|
</trkpt>
|
|
<trkpt lat="55.584279" lon="8.229983">
|
|
<ele>7.624046</ele>
|
|
<time>2026-07-11T14:42:37.000Z</time>
|
|
</trkpt>
|
|
<trkpt lat="55.584337" lon="8.229976">
|
|
<ele>7.612657</ele>
|
|
<time>2026-07-11T14:42:38.000Z</time>
|
|
</trkpt>
|
|
<trkpt lat="55.584395" lon="8.229969">
|
|
<ele>7.601267</ele>
|
|
<time>2026-07-11T14:42:39.000Z</time>
|
|
</trkpt>
|
|
<trkpt lat="55.584451" lon="8.229962">
|
|
<ele>7.590269</ele>
|
|
<time>2026-07-11T14:42:40.000Z</time>
|
|
</trkpt>
|
|
<trkpt lat="55.584505" lon="8.229956">
|
|
<ele>7.595884</ele>
|
|
<time>2026-07-11T14:42:41.000Z</time>
|
|
</trkpt>
|
|
<trkpt lat="55.584560" lon="8.229950">
|
|
<ele>7.602076</ele>
|
|
<time>2026-07-11T14:42:42.000Z</time>
|
|
</trkpt>
|
|
<trkpt lat="55.584617" lon="8.229946">
|
|
<ele>7.608486</ele>
|
|
<time>2026-07-11T14:42:43.000Z</time>
|
|
</trkpt>
|
|
<trkpt lat="55.584672" lon="8.229941">
|
|
<ele>7.614675</ele>
|
|
<time>2026-07-11T14:42:44.000Z</time>
|
|
</trkpt>
|
|
<trkpt lat="55.584727" lon="8.229934">
|
|
<ele>7.620871</ele>
|
|
<time>2026-07-11T14:42:45.000Z</time>
|
|
</trkpt>
|
|
<trkpt lat="55.584782" lon="8.229926">
|
|
<ele>7.627073</ele>
|
|
<time>2026-07-11T14:42:46.000Z</time>
|
|
</trkpt>
|
|
<trkpt lat="55.584839" lon="8.229916">
|
|
<ele>7.633509</ele>
|
|
<time>2026-07-11T14:42:47.000Z</time>
|
|
</trkpt>
|
|
<trkpt lat="55.584895" lon="8.229903">
|
|
<ele>7.639856</ele>
|
|
<time>2026-07-11T14:42:48.000Z</time>
|
|
</trkpt>
|
|
<trkpt lat="55.584949" lon="8.229891">
|
|
<ele>7.645972</ele>
|
|
<time>2026-07-11T14:42:49.000Z</time>
|
|
</trkpt>
|
|
<trkpt lat="55.585006" lon="8.229880">
|
|
<ele>7.652415</ele>
|
|
<time>2026-07-11T14:42:50.000Z</time>
|
|
</trkpt>
|
|
<trkpt lat="55.585064" lon="8.229869">
|
|
<ele>7.658970</ele>
|
|
<time>2026-07-11T14:42:51.000Z</time>
|
|
</trkpt>
|
|
<trkpt lat="55.585123" lon="8.229856">
|
|
<ele>7.665651</ele>
|
|
<time>2026-07-11T14:42:52.000Z</time>
|
|
</trkpt>
|
|
<trkpt lat="55.585182" lon="8.229838">
|
|
<ele>7.672379</ele>
|
|
<time>2026-07-11T14:42:53.000Z</time>
|
|
</trkpt>
|
|
<trkpt lat="55.585237" lon="8.229816">
|
|
<ele>7.678715</ele>
|
|
<time>2026-07-11T14:42:54.000Z</time>
|
|
</trkpt>
|
|
<trkpt lat="55.585291" lon="8.229791">
|
|
<ele>7.684988</ele>
|
|
<time>2026-07-11T14:42:55.000Z</time>
|
|
</trkpt>
|
|
<trkpt lat="55.585360" lon="8.229754">
|
|
<ele>7.693090</ele>
|
|
<time>2026-07-11T14:42:56.000Z</time>
|
|
</trkpt>
|
|
<trkpt lat="55.585420" lon="8.229725">
|
|
<ele>7.700079</ele>
|
|
<time>2026-07-11T14:42:57.000Z</time>
|
|
</trkpt>
|
|
<trkpt lat="55.585476" lon="8.229698">
|
|
<ele>7.706601</ele>
|
|
<time>2026-07-11T14:42:58.000Z</time>
|
|
</trkpt>
|
|
<trkpt lat="55.585529" lon="8.229669">
|
|
<ele>7.712835</ele>
|
|
<time>2026-07-11T14:42:59.000Z</time>
|
|
</trkpt>
|
|
<trkpt lat="55.585583" lon="8.229638">
|
|
<ele>7.719215</ele>
|
|
<time>2026-07-11T14:43:00.000Z</time>
|
|
</trkpt>
|
|
<trkpt lat="55.585636" lon="8.229609">
|
|
<ele>7.725449</ele>
|
|
<time>2026-07-11T14:43:01.000Z</time>
|
|
</trkpt>
|
|
<trkpt lat="55.585690" lon="8.229578">
|
|
<ele>7.731828</ele>
|
|
<time>2026-07-11T14:43:02.000Z</time>
|
|
</trkpt>
|
|
<trkpt lat="55.585746" lon="8.229546">
|
|
<ele>7.738441</ele>
|
|
<time>2026-07-11T14:43:03.000Z</time>
|
|
</trkpt>
|
|
<trkpt lat="55.585799" lon="8.229512">
|
|
<ele>7.744776</ele>
|
|
<time>2026-07-11T14:43:04.000Z</time>
|
|
</trkpt>
|
|
<trkpt lat="55.585853" lon="8.229476">
|
|
<ele>7.751261</ele>
|
|
<time>2026-07-11T14:43:05.000Z</time>
|
|
</trkpt>
|
|
<trkpt lat="55.585906" lon="8.229437">
|
|
<ele>7.757711</ele>
|
|
<time>2026-07-11T14:43:06.000Z</time>
|
|
</trkpt>
|
|
<trkpt lat="55.585959" lon="8.229395">
|
|
<ele>7.764237</ele>
|
|
<time>2026-07-11T14:43:07.000Z</time>
|
|
</trkpt>
|
|
<trkpt lat="55.586014" lon="8.229352">
|
|
<ele>7.770994</ele>
|
|
<time>2026-07-11T14:43:08.000Z</time>
|
|
</trkpt>
|
|
<trkpt lat="55.586069" lon="8.229308">
|
|
<ele>7.777776</ele>
|
|
<time>2026-07-11T14:43:09.000Z</time>
|
|
</trkpt>
|
|
<trkpt lat="55.586121" lon="8.229262">
|
|
<ele>7.784309</ele>
|
|
<time>2026-07-11T14:43:10.000Z</time>
|
|
</trkpt>
|
|
<trkpt lat="55.586171" lon="8.229217">
|
|
<ele>7.790613</ele>
|
|
<time>2026-07-11T14:43:11.000Z</time>
|
|
</trkpt>
|
|
<trkpt lat="55.586223" lon="8.229173">
|
|
<ele>7.796501</ele>
|
|
<time>2026-07-11T14:43:12.000Z</time>
|
|
</trkpt>
|
|
<trkpt lat="55.586277" lon="8.229131">
|
|
<ele>7.802349</ele>
|
|
<time>2026-07-11T14:43:13.000Z</time>
|
|
</trkpt>
|
|
<trkpt lat="55.586333" lon="8.229087">
|
|
<ele>7.808423</ele>
|
|
<time>2026-07-11T14:43:14.000Z</time>
|
|
</trkpt>
|
|
<trkpt lat="55.586384" lon="8.229043">
|
|
<ele>7.814048</ele>
|
|
<time>2026-07-11T14:43:15.000Z</time>
|
|
</trkpt>
|
|
<trkpt lat="55.586436" lon="8.229003">
|
|
<ele>7.819669</ele>
|
|
<time>2026-07-11T14:43:16.000Z</time>
|
|
</trkpt>
|
|
<trkpt lat="55.586489" lon="8.228965">
|
|
<ele>7.825338</ele>
|
|
<time>2026-07-11T14:43:17.000Z</time>
|
|
</trkpt>
|
|
<trkpt lat="55.586546" lon="8.228927">
|
|
<ele>7.831376</ele>
|
|
<time>2026-07-11T14:43:18.000Z</time>
|
|
</trkpt>
|
|
<trkpt lat="55.586606" lon="8.228888">
|
|
<ele>7.837713</ele>
|
|
<time>2026-07-11T14:43:19.000Z</time>
|
|
</trkpt>
|
|
<trkpt lat="55.586663" lon="8.228848">
|
|
<ele>7.843792</ele>
|
|
<time>2026-07-11T14:43:20.000Z</time>
|
|
</trkpt>
|
|
<trkpt lat="55.586718" lon="8.228804">
|
|
<ele>7.849775</ele>
|
|
<time>2026-07-11T14:43:21.000Z</time>
|
|
</trkpt>
|
|
<trkpt lat="55.586771" lon="8.228762">
|
|
<ele>7.855532</ele>
|
|
<time>2026-07-11T14:43:22.000Z</time>
|
|
</trkpt>
|
|
<trkpt lat="55.586820" lon="8.228722">
|
|
<ele>7.860882</ele>
|
|
<time>2026-07-11T14:43:23.000Z</time>
|
|
</trkpt>
|
|
<trkpt lat="55.586868" lon="8.228683">
|
|
<ele>7.866118</ele>
|
|
<time>2026-07-11T14:43:24.000Z</time>
|
|
</trkpt>
|
|
<trkpt lat="55.586917" lon="8.228647">
|
|
<ele>7.871378</ele>
|
|
<time>2026-07-11T14:43:25.000Z</time>
|
|
</trkpt>
|
|
<trkpt lat="55.586970" lon="8.228610">
|
|
<ele>7.877026</ele>
|
|
<time>2026-07-11T14:43:26.000Z</time>
|
|
</trkpt>
|
|
<trkpt lat="55.587023" lon="8.228572">
|
|
<ele>7.882695</ele>
|
|
<time>2026-07-11T14:43:27.000Z</time>
|
|
</trkpt>
|
|
<trkpt lat="55.587075" lon="8.228535">
|
|
<ele>7.888251</ele>
|
|
<time>2026-07-11T14:43:28.000Z</time>
|
|
</trkpt>
|
|
<trkpt lat="55.587123" lon="8.228498">
|
|
<ele>7.893441</ele>
|
|
<time>2026-07-11T14:43:29.000Z</time>
|
|
</trkpt>
|
|
<trkpt lat="55.587170" lon="8.228461">
|
|
<ele>7.898541</ele>
|
|
<time>2026-07-11T14:43:30.000Z</time>
|
|
</trkpt>
|
|
<trkpt lat="55.587221" lon="8.228422">
|
|
<ele>7.904049</ele>
|
|
<time>2026-07-11T14:43:31.000Z</time>
|
|
</trkpt>
|
|
<trkpt lat="55.587277" lon="8.228380">
|
|
<ele>7.910078</ele>
|
|
<time>2026-07-11T14:43:32.000Z</time>
|
|
</trkpt>
|
|
<trkpt lat="55.587334" lon="8.228339">
|
|
<ele>7.916178</ele>
|
|
<time>2026-07-11T14:43:33.000Z</time>
|
|
</trkpt>
|
|
<trkpt lat="55.587394" lon="8.228300">
|
|
<ele>7.922515</ele>
|
|
<time>2026-07-11T14:43:34.000Z</time>
|
|
</trkpt>
|
|
<trkpt lat="55.587453" lon="8.228259">
|
|
<ele>7.928799</ele>
|
|
<time>2026-07-11T14:43:35.000Z</time>
|
|
</trkpt>
|
|
<trkpt lat="55.587501" lon="8.228216">
|
|
<ele>7.934132</ele>
|
|
<time>2026-07-11T14:43:36.000Z</time>
|
|
</trkpt>
|
|
<trkpt lat="55.587553" lon="8.228174">
|
|
<ele>7.939799</ele>
|
|
<time>2026-07-11T14:43:37.000Z</time>
|
|
</trkpt>
|
|
<trkpt lat="55.587609" lon="8.228131">
|
|
<ele>7.945850</ele>
|
|
<time>2026-07-11T14:43:38.000Z</time>
|
|
</trkpt>
|
|
<trkpt lat="55.587660" lon="8.228088">
|
|
<ele>7.951451</ele>
|
|
<time>2026-07-11T14:43:39.000Z</time>
|
|
</trkpt>
|
|
<trkpt lat="55.587714" lon="8.228044">
|
|
<ele>7.957344</ele>
|
|
<time>2026-07-11T14:43:40.000Z</time>
|
|
</trkpt>
|
|
<trkpt lat="55.587769" lon="8.228000">
|
|
<ele>7.963328</ele>
|
|
<time>2026-07-11T14:43:41.000Z</time>
|
|
</trkpt>
|
|
<trkpt lat="55.587829" lon="8.227955">
|
|
<ele>7.969788</ele>
|
|
<time>2026-07-11T14:43:42.000Z</time>
|
|
</trkpt>
|
|
<trkpt lat="55.587887" lon="8.227907">
|
|
<ele>7.982475</ele>
|
|
<time>2026-07-11T14:43:43.000Z</time>
|
|
</trkpt>
|
|
<trkpt lat="55.587943" lon="8.227859">
|
|
<ele>7.995457</ele>
|
|
<time>2026-07-11T14:43:44.000Z</time>
|
|
</trkpt>
|
|
<trkpt lat="55.588001" lon="8.227813">
|
|
<ele>8.008718</ele>
|
|
<time>2026-07-11T14:43:45.000Z</time>
|
|
</trkpt>
|
|
<trkpt lat="55.588056" lon="8.227768">
|
|
<ele>8.021360</ele>
|
|
<time>2026-07-11T14:43:46.000Z</time>
|
|
</trkpt>
|
|
<trkpt lat="55.588112" lon="8.227723">
|
|
<ele>8.034191</ele>
|
|
<time>2026-07-11T14:43:47.000Z</time>
|
|
</trkpt>
|
|
<trkpt lat="55.588166" lon="8.227673">
|
|
<ele>8.046907</ele>
|
|
<time>2026-07-11T14:43:48.000Z</time>
|
|
</trkpt>
|
|
<trkpt lat="55.588219" lon="8.227621">
|
|
<ele>8.059550</ele>
|
|
<time>2026-07-11T14:43:49.000Z</time>
|
|
</trkpt>
|
|
<trkpt lat="55.588273" lon="8.227575">
|
|
<ele>8.072054</ele>
|
|
<time>2026-07-11T14:43:50.000Z</time>
|
|
</trkpt>
|
|
<trkpt lat="55.588328" lon="8.227530">
|
|
<ele>8.084696</ele>
|
|
<time>2026-07-11T14:43:51.000Z</time>
|
|
</trkpt>
|
|
<trkpt lat="55.588382" lon="8.227483">
|
|
<ele>8.097251</ele>
|
|
<time>2026-07-11T14:43:52.000Z</time>
|
|
</trkpt>
|
|
<trkpt lat="55.588433" lon="8.227438">
|
|
<ele>8.109141</ele>
|
|
<time>2026-07-11T14:43:53.000Z</time>
|
|
</trkpt>
|
|
<trkpt lat="55.588486" lon="8.227393">
|
|
<ele>8.121405</ele>
|
|
<time>2026-07-11T14:43:54.000Z</time>
|
|
</trkpt>
|
|
<trkpt lat="55.588542" lon="8.227348">
|
|
<ele>8.134237</ele>
|
|
<time>2026-07-11T14:43:55.000Z</time>
|
|
</trkpt>
|
|
<trkpt lat="55.588596" lon="8.227304">
|
|
<ele>8.146640</ele>
|
|
<time>2026-07-11T14:43:56.000Z</time>
|
|
</trkpt>
|
|
<trkpt lat="55.588648" lon="8.227262">
|
|
<ele>8.158566</ele>
|
|
<time>2026-07-11T14:43:57.000Z</time>
|
|
</trkpt>
|
|
<trkpt lat="55.588697" lon="8.227223">
|
|
<ele>8.169775</ele>
|
|
<time>2026-07-11T14:43:58.000Z</time>
|
|
</trkpt>
|
|
<trkpt lat="55.588751" lon="8.227185">
|
|
<ele>8.181900</ele>
|
|
<time>2026-07-11T14:43:59.000Z</time>
|
|
</trkpt>
|
|
<trkpt lat="55.588803" lon="8.227150">
|
|
<ele>8.193507</ele>
|
|
<time>2026-07-11T14:44:00.000Z</time>
|
|
</trkpt>
|
|
<trkpt lat="55.588854" lon="8.227116">
|
|
<ele>8.204877</ele>
|
|
<time>2026-07-11T14:44:01.000Z</time>
|
|
</trkpt>
|
|
<trkpt lat="55.588910" lon="8.227081">
|
|
<ele>8.217268</ele>
|
|
<time>2026-07-11T14:44:02.000Z</time>
|
|
</trkpt>
|
|
<trkpt lat="55.588966" lon="8.227048">
|
|
<ele>8.229582</ele>
|
|
<time>2026-07-11T14:44:03.000Z</time>
|
|
</trkpt>
|
|
<trkpt lat="55.589017" lon="8.227016">
|
|
<ele>8.240871</ele>
|
|
<time>2026-07-11T14:44:04.000Z</time>
|
|
</trkpt>
|
|
<trkpt lat="55.589070" lon="8.226984">
|
|
<ele>8.252555</ele>
|
|
<time>2026-07-11T14:44:05.000Z</time>
|
|
</trkpt>
|
|
<trkpt lat="55.589128" lon="8.226956">
|
|
<ele>8.265098</ele>
|
|
<time>2026-07-11T14:44:06.000Z</time>
|
|
</trkpt>
|
|
<trkpt lat="55.589186" lon="8.226928">
|
|
<ele>8.277641</ele>
|
|
<time>2026-07-11T14:44:07.000Z</time>
|
|
</trkpt>
|
|
<trkpt lat="55.589240" lon="8.226898">
|
|
<ele>8.289449</ele>
|
|
<time>2026-07-11T14:44:08.000Z</time>
|
|
</trkpt>
|
|
<trkpt lat="55.589295" lon="8.226870">
|
|
<ele>8.301389</ele>
|
|
<time>2026-07-11T14:44:09.000Z</time>
|
|
</trkpt>
|
|
<trkpt lat="55.589350" lon="8.226848">
|
|
<ele>8.313153</ele>
|
|
<time>2026-07-11T14:44:10.000Z</time>
|
|
</trkpt>
|
|
<trkpt lat="55.589406" lon="8.226827">
|
|
<ele>8.325096</ele>
|
|
<time>2026-07-11T14:44:11.000Z</time>
|
|
</trkpt>
|
|
<trkpt lat="55.589462" lon="8.226808">
|
|
<ele>8.336993</ele>
|
|
<time>2026-07-11T14:44:12.000Z</time>
|
|
</trkpt>
|
|
<trkpt lat="55.589512" lon="8.226791">
|
|
<ele>8.342858</ele>
|
|
<time>2026-07-11T14:44:13.000Z</time>
|
|
</trkpt>
|
|
<trkpt lat="55.589562" lon="8.226774">
|
|
<ele>8.327749</ele>
|
|
<time>2026-07-11T14:44:14.000Z</time>
|
|
</trkpt>
|
|
<trkpt lat="55.589613" lon="8.226759">
|
|
<ele>8.312407</ele>
|
|
<time>2026-07-11T14:44:15.000Z</time>
|
|
</trkpt>
|
|
<trkpt lat="55.589665" lon="8.226744">
|
|
<ele>8.296773</ele>
|
|
<time>2026-07-11T14:44:16.000Z</time>
|
|
</trkpt>
|
|
<trkpt lat="55.589725" lon="8.226732">
|
|
<ele>8.278854</ele>
|
|
<time>2026-07-11T14:44:17.000Z</time>
|
|
</trkpt>
|
|
<trkpt lat="55.589799" lon="8.226723">
|
|
<ele>8.256843</ele>
|
|
<time>2026-07-11T14:44:18.000Z</time>
|
|
</trkpt>
|
|
<trkpt lat="55.589865" lon="8.226714">
|
|
<ele>8.237200</ele>
|
|
<time>2026-07-11T14:44:19.000Z</time>
|
|
</trkpt>
|
|
<trkpt lat="55.589927" lon="8.226706">
|
|
<ele>8.218752</ele>
|
|
<time>2026-07-11T14:44:20.000Z</time>
|
|
</trkpt>
|
|
<trkpt lat="55.589999" lon="8.226704">
|
|
<ele>8.197384</ele>
|
|
<time>2026-07-11T14:44:21.000Z</time>
|
|
</trkpt>
|
|
<trkpt lat="55.590072" lon="8.226705">
|
|
<ele>8.175720</ele>
|
|
<time>2026-07-11T14:44:22.000Z</time>
|
|
</trkpt>
|
|
<trkpt lat="55.590133" lon="8.226707">
|
|
<ele>8.157616</ele>
|
|
<time>2026-07-11T14:44:23.000Z</time>
|
|
</trkpt>
|
|
<trkpt lat="55.590187" lon="8.226706">
|
|
<ele>8.141590</ele>
|
|
<time>2026-07-11T14:44:24.000Z</time>
|
|
</trkpt>
|
|
<trkpt lat="55.590249" lon="8.226701">
|
|
<ele>8.123173</ele>
|
|
<time>2026-07-11T14:44:25.000Z</time>
|
|
</trkpt>
|
|
<trkpt lat="55.590313" lon="8.226696">
|
|
<ele>8.104162</ele>
|
|
<time>2026-07-11T14:44:26.000Z</time>
|
|
</trkpt>
|
|
<trkpt lat="55.590386" lon="8.226695">
|
|
<ele>8.082499</ele>
|
|
<time>2026-07-11T14:44:27.000Z</time>
|
|
</trkpt>
|
|
<trkpt lat="55.590458" lon="8.226696">
|
|
<ele>8.061132</ele>
|
|
<time>2026-07-11T14:44:28.000Z</time>
|
|
</trkpt>
|
|
<trkpt lat="55.590527" lon="8.226700">
|
|
<ele>8.040646</ele>
|
|
<time>2026-07-11T14:44:29.000Z</time>
|
|
</trkpt>
|
|
<trkpt lat="55.590601" lon="8.226707">
|
|
<ele>8.018655</ele>
|
|
<time>2026-07-11T14:44:30.000Z</time>
|
|
</trkpt>
|
|
<trkpt lat="55.590673" lon="8.226714">
|
|
<ele>7.997257</ele>
|
|
<time>2026-07-11T14:44:31.000Z</time>
|
|
</trkpt>
|
|
<trkpt lat="55.590747" lon="8.226722">
|
|
<ele>7.975256</ele>
|
|
<time>2026-07-11T14:44:32.000Z</time>
|
|
</trkpt>
|
|
<trkpt lat="55.590819" lon="8.226734">
|
|
<ele>7.953796</ele>
|
|
<time>2026-07-11T14:44:33.000Z</time>
|
|
</trkpt>
|
|
<trkpt lat="55.590885" lon="8.226749">
|
|
<ele>7.934050</ele>
|
|
<time>2026-07-11T14:44:34.000Z</time>
|
|
</trkpt>
|
|
<trkpt lat="55.590949" lon="8.226766">
|
|
<ele>7.914845</ele>
|
|
<time>2026-07-11T14:44:35.000Z</time>
|
|
</trkpt>
|
|
<trkpt lat="55.591016" lon="8.226784">
|
|
<ele>7.894735</ele>
|
|
<time>2026-07-11T14:44:36.000Z</time>
|
|
</trkpt>
|
|
<trkpt lat="55.591083" lon="8.226798">
|
|
<ele>7.874715</ele>
|
|
<time>2026-07-11T14:44:37.000Z</time>
|
|
</trkpt>
|
|
<trkpt lat="55.591147" lon="8.226811">
|
|
<ele>7.855598</ele>
|
|
<time>2026-07-11T14:44:38.000Z</time>
|
|
</trkpt>
|
|
<trkpt lat="55.591213" lon="8.226826">
|
|
<ele>7.835852</ele>
|
|
<time>2026-07-11T14:44:39.000Z</time>
|
|
</trkpt>
|
|
<trkpt lat="55.591285" lon="8.226844">
|
|
<ele>7.814273</ele>
|
|
<time>2026-07-11T14:44:40.000Z</time>
|
|
</trkpt>
|
|
<trkpt lat="55.591359" lon="8.226866">
|
|
<ele>7.800450</ele>
|
|
<time>2026-07-11T14:44:41.000Z</time>
|
|
</trkpt>
|
|
<trkpt lat="55.591430" lon="8.226890">
|
|
<ele>7.788101</ele>
|
|
<time>2026-07-11T14:44:42.000Z</time>
|
|
</trkpt>
|
|
<trkpt lat="55.591500" lon="8.226911">
|
|
<ele>7.775972</ele>
|
|
<time>2026-07-11T14:44:43.000Z</time>
|
|
</trkpt>
|
|
<trkpt lat="55.591573" lon="8.226931">
|
|
<ele>7.763352</ele>
|
|
<time>2026-07-11T14:44:44.000Z</time>
|
|
</trkpt>
|
|
<trkpt lat="55.591643" lon="8.226948">
|
|
<ele>7.751281</ele>
|
|
<time>2026-07-11T14:44:45.000Z</time>
|
|
</trkpt>
|
|
<trkpt lat="55.591712" lon="8.226967">
|
|
<ele>7.739351</ele>
|
|
<time>2026-07-11T14:44:46.000Z</time>
|
|
</trkpt>
|
|
<trkpt lat="55.591784" lon="8.226989">
|
|
<ele>7.726869</ele>
|
|
<time>2026-07-11T14:44:47.000Z</time>
|
|
</trkpt>
|
|
<trkpt lat="55.591851" lon="8.227009">
|
|
<ele>7.715261</ele>
|
|
<time>2026-07-11T14:44:48.000Z</time>
|
|
</trkpt>
|
|
<trkpt lat="55.591914" lon="8.227027">
|
|
<ele>7.704359</ele>
|
|
<time>2026-07-11T14:44:49.000Z</time>
|
|
</trkpt>
|
|
<trkpt lat="55.591982" lon="8.227042">
|
|
<ele>7.692652</ele>
|
|
<time>2026-07-11T14:44:50.000Z</time>
|
|
</trkpt>
|
|
<trkpt lat="55.592052" lon="8.227055">
|
|
<ele>7.680628</ele>
|
|
<time>2026-07-11T14:44:51.000Z</time>
|
|
</trkpt>
|
|
<trkpt lat="55.592120" lon="8.227065">
|
|
<ele>7.668971</ele>
|
|
<time>2026-07-11T14:44:52.000Z</time>
|
|
</trkpt>
|
|
<trkpt lat="55.592189" lon="8.227076">
|
|
<ele>7.657136</ele>
|
|
<time>2026-07-11T14:44:53.000Z</time>
|
|
</trkpt>
|
|
<trkpt lat="55.592256" lon="8.227082">
|
|
<ele>7.645675</ele>
|
|
<time>2026-07-11T14:44:54.000Z</time>
|
|
</trkpt>
|
|
<trkpt lat="55.592323" lon="8.227087">
|
|
<ele>7.634218</ele>
|
|
<time>2026-07-11T14:44:55.000Z</time>
|
|
</trkpt>
|
|
<trkpt lat="55.592388" lon="8.227093">
|
|
<ele>7.623099</ele>
|
|
<time>2026-07-11T14:44:56.000Z</time>
|
|
</trkpt>
|
|
<trkpt lat="55.592450" lon="8.227098">
|
|
<ele>7.612496</ele>
|
|
<time>2026-07-11T14:44:57.000Z</time>
|
|
</trkpt>
|
|
<trkpt lat="55.592512" lon="8.227100">
|
|
<ele>7.601902</ele>
|
|
<time>2026-07-11T14:44:58.000Z</time>
|
|
</trkpt>
|
|
<trkpt lat="55.592571" lon="8.227098">
|
|
<ele>7.591821</ele>
|
|
<time>2026-07-11T14:44:59.000Z</time>
|
|
</trkpt>
|
|
<trkpt lat="55.592630" lon="8.227092">
|
|
<ele>7.581725</ele>
|
|
<time>2026-07-11T14:45:00.000Z</time>
|
|
</trkpt>
|
|
<trkpt lat="55.592687" lon="8.227085">
|
|
<ele>7.571964</ele>
|
|
<time>2026-07-11T14:45:01.000Z</time>
|
|
</trkpt>
|
|
<trkpt lat="55.592744" lon="8.227079">
|
|
<ele>7.562209</ele>
|
|
<time>2026-07-11T14:45:02.000Z</time>
|
|
</trkpt>
|
|
<trkpt lat="55.592802" lon="8.227075">
|
|
<ele>7.552293</ele>
|
|
<time>2026-07-11T14:45:03.000Z</time>
|
|
</trkpt>
|
|
<trkpt lat="55.592862" lon="8.227072">
|
|
<ele>7.542038</ele>
|
|
<time>2026-07-11T14:45:04.000Z</time>
|
|
</trkpt>
|
|
<trkpt lat="55.592921" lon="8.227069">
|
|
<ele>7.531955</ele>
|
|
<time>2026-07-11T14:45:05.000Z</time>
|
|
</trkpt>
|
|
<trkpt lat="55.592982" lon="8.227064">
|
|
<ele>7.521523</ele>
|
|
<time>2026-07-11T14:45:06.000Z</time>
|
|
</trkpt>
|
|
<trkpt lat="55.593039" lon="8.227054">
|
|
<ele>7.511737</ele>
|
|
<time>2026-07-11T14:45:07.000Z</time>
|
|
</trkpt>
|
|
<trkpt lat="55.593096" lon="8.227040">
|
|
<ele>7.503365</ele>
|
|
<time>2026-07-11T14:45:08.000Z</time>
|
|
</trkpt>
|
|
<trkpt lat="55.593151" lon="8.227025">
|
|
<ele>7.498952</ele>
|
|
<time>2026-07-11T14:45:09.000Z</time>
|
|
</trkpt>
|
|
<trkpt lat="55.593205" lon="8.227010">
|
|
<ele>7.494617</ele>
|
|
<time>2026-07-11T14:45:10.000Z</time>
|
|
</trkpt>
|
|
<trkpt lat="55.593262" lon="8.226995">
|
|
<ele>7.490047</ele>
|
|
<time>2026-07-11T14:45:11.000Z</time>
|
|
</trkpt>
|
|
<trkpt lat="55.593318" lon="8.226977">
|
|
<ele>7.485534</ele>
|
|
<time>2026-07-11T14:45:12.000Z</time>
|
|
</trkpt>
|
|
<trkpt lat="55.593373" lon="8.226960">
|
|
<ele>7.481106</ele>
|
|
<time>2026-07-11T14:45:13.000Z</time>
|
|
</trkpt>
|
|
<trkpt lat="55.593431" lon="8.226942">
|
|
<ele>7.476436</ele>
|
|
<time>2026-07-11T14:45:14.000Z</time>
|
|
</trkpt>
|
|
<trkpt lat="55.593490" lon="8.226924">
|
|
<ele>7.471688</ele>
|
|
<time>2026-07-11T14:45:15.000Z</time>
|
|
</trkpt>
|
|
<trkpt lat="55.593548" lon="8.226906">
|
|
<ele>7.467019</ele>
|
|
<time>2026-07-11T14:45:16.000Z</time>
|
|
</trkpt>
|
|
<trkpt lat="55.593603" lon="8.226886">
|
|
<ele>7.462566</ele>
|
|
<time>2026-07-11T14:45:17.000Z</time>
|
|
</trkpt>
|
|
<trkpt lat="55.593662" lon="8.226869">
|
|
<ele>7.457825</ele>
|
|
<time>2026-07-11T14:45:18.000Z</time>
|
|
</trkpt>
|
|
<trkpt lat="55.593722" lon="8.226853">
|
|
<ele>7.453013</ele>
|
|
<time>2026-07-11T14:45:19.000Z</time>
|
|
</trkpt>
|
|
<trkpt lat="55.593780" lon="8.226836">
|
|
<ele>7.448351</ele>
|
|
<time>2026-07-11T14:45:20.000Z</time>
|
|
</trkpt>
|
|
<trkpt lat="55.593838" lon="8.226821">
|
|
<ele>7.443703</ele>
|
|
<time>2026-07-11T14:45:21.000Z</time>
|
|
</trkpt>
|
|
<trkpt lat="55.593898" lon="8.226803">
|
|
<ele>7.438877</ele>
|
|
<time>2026-07-11T14:45:22.000Z</time>
|
|
</trkpt>
|
|
<trkpt lat="55.593958" lon="8.226782">
|
|
<ele>7.434026</ele>
|
|
<time>2026-07-11T14:45:23.000Z</time>
|
|
</trkpt>
|
|
<trkpt lat="55.594017" lon="8.226761">
|
|
<ele>7.429254</ele>
|
|
<time>2026-07-11T14:45:24.000Z</time>
|
|
</trkpt>
|
|
<trkpt lat="55.594081" lon="8.226738">
|
|
<ele>7.424075</ele>
|
|
<time>2026-07-11T14:45:25.000Z</time>
|
|
</trkpt>
|
|
<trkpt lat="55.594144" lon="8.226715">
|
|
<ele>7.418973</ele>
|
|
<time>2026-07-11T14:45:26.000Z</time>
|
|
</trkpt>
|
|
<trkpt lat="55.594207" lon="8.226693">
|
|
<ele>7.413881</ele>
|
|
<time>2026-07-11T14:45:27.000Z</time>
|
|
</trkpt>
|
|
<trkpt lat="55.594269" lon="8.226672">
|
|
<ele>7.408875</ele>
|
|
<time>2026-07-11T14:45:28.000Z</time>
|
|
</trkpt>
|
|
<trkpt lat="55.594334" lon="8.226650">
|
|
<ele>7.403627</ele>
|
|
<time>2026-07-11T14:45:29.000Z</time>
|
|
</trkpt>
|
|
<trkpt lat="55.594406" lon="8.226627">
|
|
<ele>7.397825</ele>
|
|
<time>2026-07-11T14:45:30.000Z</time>
|
|
</trkpt>
|
|
<trkpt lat="55.594470" lon="8.226606">
|
|
<ele>7.392663</ele>
|
|
<time>2026-07-11T14:45:31.000Z</time>
|
|
</trkpt>
|
|
<trkpt lat="55.594533" lon="8.226587">
|
|
<ele>7.387595</ele>
|
|
<time>2026-07-11T14:45:32.000Z</time>
|
|
</trkpt>
|
|
<trkpt lat="55.594597" lon="8.226570">
|
|
<ele>7.382462</ele>
|
|
<time>2026-07-11T14:45:33.000Z</time>
|
|
</trkpt>
|
|
<trkpt lat="55.594658" lon="8.226554">
|
|
<ele>7.377572</ele>
|
|
<time>2026-07-11T14:45:34.000Z</time>
|
|
</trkpt>
|
|
<trkpt lat="55.594719" lon="8.226536">
|
|
<ele>7.372668</ele>
|
|
<time>2026-07-11T14:45:35.000Z</time>
|
|
</trkpt>
|
|
<trkpt lat="55.594781" lon="8.226518">
|
|
<ele>7.367685</ele>
|
|
<time>2026-07-11T14:45:36.000Z</time>
|
|
</trkpt>
|
|
<trkpt lat="55.594846" lon="8.226498">
|
|
<ele>7.362453</ele>
|
|
<time>2026-07-11T14:45:37.000Z</time>
|
|
</trkpt>
|
|
<trkpt lat="55.594909" lon="8.226481">
|
|
<ele>7.361587</ele>
|
|
<time>2026-07-11T14:45:38.000Z</time>
|
|
</trkpt>
|
|
<trkpt lat="55.594971" lon="8.226464">
|
|
<ele>7.361148</ele>
|
|
<time>2026-07-11T14:45:39.000Z</time>
|
|
</trkpt>
|
|
<trkpt lat="55.595029" lon="8.226448">
|
|
<ele>7.360738</ele>
|
|
<time>2026-07-11T14:45:40.000Z</time>
|
|
</trkpt>
|
|
<trkpt lat="55.595088" lon="8.226432">
|
|
<ele>7.360321</ele>
|
|
<time>2026-07-11T14:45:41.000Z</time>
|
|
</trkpt>
|
|
<trkpt lat="55.595154" lon="8.226413">
|
|
<ele>7.359854</ele>
|
|
<time>2026-07-11T14:45:42.000Z</time>
|
|
</trkpt>
|
|
<trkpt lat="55.595220" lon="8.226390">
|
|
<ele>7.359384</ele>
|
|
<time>2026-07-11T14:45:43.000Z</time>
|
|
</trkpt>
|
|
<trkpt lat="55.595285" lon="8.226367">
|
|
<ele>7.358921</ele>
|
|
<time>2026-07-11T14:45:44.000Z</time>
|
|
</trkpt>
|
|
<trkpt lat="55.595350" lon="8.226343">
|
|
<ele>7.358457</ele>
|
|
<time>2026-07-11T14:45:45.000Z</time>
|
|
</trkpt>
|
|
<trkpt lat="55.595417" lon="8.226323">
|
|
<ele>7.357982</ele>
|
|
<time>2026-07-11T14:45:46.000Z</time>
|
|
</trkpt>
|
|
<trkpt lat="55.595482" lon="8.226306">
|
|
<ele>7.357523</ele>
|
|
<time>2026-07-11T14:45:47.000Z</time>
|
|
</trkpt>
|
|
<trkpt lat="55.595545" lon="8.226288">
|
|
<ele>7.357077</ele>
|
|
<time>2026-07-11T14:45:48.000Z</time>
|
|
</trkpt>
|
|
<trkpt lat="55.595607" lon="8.226270">
|
|
<ele>7.356638</ele>
|
|
<time>2026-07-11T14:45:49.000Z</time>
|
|
</trkpt>
|
|
<trkpt lat="55.595665" lon="8.226251">
|
|
<ele>7.356226</ele>
|
|
<time>2026-07-11T14:45:50.000Z</time>
|
|
</trkpt>
|
|
<trkpt lat="55.595728" lon="8.226233">
|
|
<ele>7.355780</ele>
|
|
<time>2026-07-11T14:45:51.000Z</time>
|
|
</trkpt>
|
|
<trkpt lat="55.595794" lon="8.226211">
|
|
<ele>7.355311</ele>
|
|
<time>2026-07-11T14:45:52.000Z</time>
|
|
</trkpt>
|
|
<trkpt lat="55.595855" lon="8.226188">
|
|
<ele>7.354875</ele>
|
|
<time>2026-07-11T14:45:53.000Z</time>
|
|
</trkpt>
|
|
<trkpt lat="55.595915" lon="8.226167">
|
|
<ele>7.354448</ele>
|
|
<time>2026-07-11T14:45:54.000Z</time>
|
|
</trkpt>
|
|
<trkpt lat="55.595973" lon="8.226147">
|
|
<ele>7.354035</ele>
|
|
<time>2026-07-11T14:45:55.000Z</time>
|
|
</trkpt>
|
|
<trkpt lat="55.596032" lon="8.226130">
|
|
<ele>7.353617</ele>
|
|
<time>2026-07-11T14:45:56.000Z</time>
|
|
</trkpt>
|
|
<trkpt lat="55.596090" lon="8.226115">
|
|
<ele>7.353208</ele>
|
|
<time>2026-07-11T14:45:57.000Z</time>
|
|
</trkpt>
|
|
<trkpt lat="55.596149" lon="8.226100">
|
|
<ele>7.352791</ele>
|
|
<time>2026-07-11T14:45:58.000Z</time>
|
|
</trkpt>
|
|
<trkpt lat="55.596210" lon="8.226082">
|
|
<ele>7.352359</ele>
|
|
<time>2026-07-11T14:45:59.000Z</time>
|
|
</trkpt>
|
|
<trkpt lat="55.596271" lon="8.226063">
|
|
<ele>7.351927</ele>
|
|
<time>2026-07-11T14:46:00.000Z</time>
|
|
</trkpt>
|
|
<trkpt lat="55.596334" lon="8.226046">
|
|
<ele>7.351481</ele>
|
|
<time>2026-07-11T14:46:01.000Z</time>
|
|
</trkpt>
|
|
<trkpt lat="55.596395" lon="8.226027">
|
|
<ele>7.351049</ele>
|
|
<time>2026-07-11T14:46:02.000Z</time>
|
|
</trkpt>
|
|
<trkpt lat="55.596451" lon="8.226006">
|
|
<ele>7.350649</ele>
|
|
<time>2026-07-11T14:46:03.000Z</time>
|
|
</trkpt>
|
|
<trkpt lat="55.596506" lon="8.225986">
|
|
<ele>7.350256</ele>
|
|
<time>2026-07-11T14:46:04.000Z</time>
|
|
</trkpt>
|
|
<trkpt lat="55.596564" lon="8.225968">
|
|
<ele>7.349845</ele>
|
|
<time>2026-07-11T14:46:05.000Z</time>
|
|
</trkpt>
|
|
<trkpt lat="55.596621" lon="8.225946">
|
|
<ele>7.349437</ele>
|
|
<time>2026-07-11T14:46:06.000Z</time>
|
|
</trkpt>
|
|
<trkpt lat="55.596680" lon="8.225924">
|
|
<ele>7.343260</ele>
|
|
<time>2026-07-11T14:46:07.000Z</time>
|
|
</trkpt>
|
|
<trkpt lat="55.596741" lon="8.225904">
|
|
<ele>7.336717</ele>
|
|
<time>2026-07-11T14:46:08.000Z</time>
|
|
</trkpt>
|
|
<trkpt lat="55.596799" lon="8.225881">
|
|
<ele>7.330448</ele>
|
|
<time>2026-07-11T14:46:09.000Z</time>
|
|
</trkpt>
|
|
<trkpt lat="55.596857" lon="8.225855">
|
|
<ele>7.324137</ele>
|
|
<time>2026-07-11T14:46:10.000Z</time>
|
|
</trkpt>
|
|
<trkpt lat="55.596915" lon="8.225829">
|
|
<ele>7.317827</ele>
|
|
<time>2026-07-11T14:46:11.000Z</time>
|
|
</trkpt>
|
|
<trkpt lat="55.596975" lon="8.225805">
|
|
<ele>7.311339</ele>
|
|
<time>2026-07-11T14:46:12.000Z</time>
|
|
</trkpt>
|
|
<trkpt lat="55.597040" lon="8.225786">
|
|
<ele>7.304390</ele>
|
|
<time>2026-07-11T14:46:13.000Z</time>
|
|
</trkpt>
|
|
<trkpt lat="55.597100" lon="8.225771">
|
|
<ele>7.297999</ele>
|
|
<time>2026-07-11T14:46:14.000Z</time>
|
|
</trkpt>
|
|
<trkpt lat="55.597160" lon="8.225756">
|
|
<ele>7.291608</ele>
|
|
<time>2026-07-11T14:46:15.000Z</time>
|
|
</trkpt>
|
|
<trkpt lat="55.597225" lon="8.225736">
|
|
<ele>7.284650</ele>
|
|
<time>2026-07-11T14:46:16.000Z</time>
|
|
</trkpt>
|
|
<trkpt lat="55.597284" lon="8.225713">
|
|
<ele>7.278278</ele>
|
|
<time>2026-07-11T14:46:17.000Z</time>
|
|
</trkpt>
|
|
<trkpt lat="55.597343" lon="8.225691">
|
|
<ele>7.271919</ele>
|
|
<time>2026-07-11T14:46:18.000Z</time>
|
|
</trkpt>
|
|
<trkpt lat="55.597401" lon="8.225671">
|
|
<ele>7.265686</ele>
|
|
<time>2026-07-11T14:46:19.000Z</time>
|
|
</trkpt>
|
|
<trkpt lat="55.597455" lon="8.225653">
|
|
<ele>7.259891</ele>
|
|
<time>2026-07-11T14:46:20.000Z</time>
|
|
</trkpt>
|
|
<trkpt lat="55.597514" lon="8.225637">
|
|
<ele>7.253595</ele>
|
|
<time>2026-07-11T14:46:21.000Z</time>
|
|
</trkpt>
|
|
<trkpt lat="55.597579" lon="8.225624">
|
|
<ele>7.246696</ele>
|
|
<time>2026-07-11T14:46:22.000Z</time>
|
|
</trkpt>
|
|
<trkpt lat="55.597643" lon="8.225609">
|
|
<ele>7.239887</ele>
|
|
<time>2026-07-11T14:46:23.000Z</time>
|
|
</trkpt>
|
|
<trkpt lat="55.597706" lon="8.225594">
|
|
<ele>7.233182</ele>
|
|
<time>2026-07-11T14:46:24.000Z</time>
|
|
</trkpt>
|
|
<trkpt lat="55.597766" lon="8.225577">
|
|
<ele>7.226773</ele>
|
|
<time>2026-07-11T14:46:25.000Z</time>
|
|
</trkpt>
|
|
<trkpt lat="55.597827" lon="8.225558">
|
|
<ele>7.220241</ele>
|
|
<time>2026-07-11T14:46:26.000Z</time>
|
|
</trkpt>
|
|
<trkpt lat="55.597892" lon="8.225538">
|
|
<ele>7.213282</ele>
|
|
<time>2026-07-11T14:46:27.000Z</time>
|
|
</trkpt>
|
|
<trkpt lat="55.597955" lon="8.225520">
|
|
<ele>7.206552</ele>
|
|
<time>2026-07-11T14:46:28.000Z</time>
|
|
</trkpt>
|
|
<trkpt lat="55.598012" lon="8.225505">
|
|
<ele>7.200474</ele>
|
|
<time>2026-07-11T14:46:29.000Z</time>
|
|
</trkpt>
|
|
<trkpt lat="55.598071" lon="8.225487">
|
|
<ele>7.194159</ele>
|
|
<time>2026-07-11T14:46:30.000Z</time>
|
|
</trkpt>
|
|
<trkpt lat="55.598131" lon="8.225466">
|
|
<ele>7.187708</ele>
|
|
<time>2026-07-11T14:46:31.000Z</time>
|
|
</trkpt>
|
|
<trkpt lat="55.598192" lon="8.225444">
|
|
<ele>7.181142</ele>
|
|
<time>2026-07-11T14:46:32.000Z</time>
|
|
</trkpt>
|
|
<trkpt lat="55.598256" lon="8.225421">
|
|
<ele>7.174255</ele>
|
|
<time>2026-07-11T14:46:33.000Z</time>
|
|
</trkpt>
|
|
<trkpt lat="55.598319" lon="8.225397">
|
|
<ele>7.167458</ele>
|
|
<time>2026-07-11T14:46:34.000Z</time>
|
|
</trkpt>
|
|
<trkpt lat="55.598381" lon="8.225375">
|
|
<ele>7.160788</ele>
|
|
<time>2026-07-11T14:46:35.000Z</time>
|
|
</trkpt>
|
|
<trkpt lat="55.598449" lon="8.225352">
|
|
<ele>7.160834</ele>
|
|
<time>2026-07-11T14:46:36.000Z</time>
|
|
</trkpt>
|
|
<trkpt lat="55.598516" lon="8.225330">
|
|
<ele>7.162118</ele>
|
|
<time>2026-07-11T14:46:37.000Z</time>
|
|
</trkpt>
|
|
<trkpt lat="55.598580" lon="8.225307">
|
|
<ele>7.163349</ele>
|
|
<time>2026-07-11T14:46:38.000Z</time>
|
|
</trkpt>
|
|
<trkpt lat="55.598646" lon="8.225281">
|
|
<ele>7.164624</ele>
|
|
<time>2026-07-11T14:46:39.000Z</time>
|
|
</trkpt>
|
|
<trkpt lat="55.598712" lon="8.225256">
|
|
<ele>7.165896</ele>
|
|
<time>2026-07-11T14:46:40.000Z</time>
|
|
</trkpt>
|
|
<trkpt lat="55.598778" lon="8.225234">
|
|
<ele>7.167162</ele>
|
|
<time>2026-07-11T14:46:41.000Z</time>
|
|
</trkpt>
|
|
<trkpt lat="55.598849" lon="8.225219">
|
|
<ele>7.168510</ele>
|
|
<time>2026-07-11T14:46:42.000Z</time>
|
|
</trkpt>
|
|
<trkpt lat="55.598919" lon="8.225205">
|
|
<ele>7.169838</ele>
|
|
<time>2026-07-11T14:46:43.000Z</time>
|
|
</trkpt>
|
|
<trkpt lat="55.598990" lon="8.225188">
|
|
<ele>7.171189</ele>
|
|
<time>2026-07-11T14:46:44.000Z</time>
|
|
</trkpt>
|
|
<trkpt lat="55.599055" lon="8.225171">
|
|
<ele>7.172427</ele>
|
|
<time>2026-07-11T14:46:45.000Z</time>
|
|
</trkpt>
|
|
<trkpt lat="55.599120" lon="8.225151">
|
|
<ele>7.173671</ele>
|
|
<time>2026-07-11T14:46:46.000Z</time>
|
|
</trkpt>
|
|
<trkpt lat="55.599185" lon="8.225130">
|
|
<ele>7.174917</ele>
|
|
<time>2026-07-11T14:46:47.000Z</time>
|
|
</trkpt>
|
|
<trkpt lat="55.599246" lon="8.225114">
|
|
<ele>7.176079</ele>
|
|
<time>2026-07-11T14:46:48.000Z</time>
|
|
</trkpt>
|
|
<trkpt lat="55.599310" lon="8.225099">
|
|
<ele>7.177296</ele>
|
|
<time>2026-07-11T14:46:49.000Z</time>
|
|
</trkpt>
|
|
<trkpt lat="55.599376" lon="8.225082">
|
|
<ele>7.178553</ele>
|
|
<time>2026-07-11T14:46:50.000Z</time>
|
|
</trkpt>
|
|
<trkpt lat="55.599440" lon="8.225068">
|
|
<ele>7.179769</ele>
|
|
<time>2026-07-11T14:46:51.000Z</time>
|
|
</trkpt>
|
|
<trkpt lat="55.599498" lon="8.225065">
|
|
<ele>7.180863</ele>
|
|
<time>2026-07-11T14:46:52.000Z</time>
|
|
</trkpt>
|
|
<trkpt lat="55.599559" lon="8.225079">
|
|
<ele>7.182022</ele>
|
|
<time>2026-07-11T14:46:53.000Z</time>
|
|
</trkpt>
|
|
<trkpt lat="55.599619" lon="8.225105">
|
|
<ele>7.183187</ele>
|
|
<time>2026-07-11T14:46:54.000Z</time>
|
|
</trkpt>
|
|
<trkpt lat="55.599676" lon="8.225132">
|
|
<ele>7.184299</ele>
|
|
<time>2026-07-11T14:46:55.000Z</time>
|
|
</trkpt>
|
|
<trkpt lat="55.599732" lon="8.225152">
|
|
<ele>7.185376</ele>
|
|
<time>2026-07-11T14:46:56.000Z</time>
|
|
</trkpt>
|
|
<trkpt lat="55.599790" lon="8.225159">
|
|
<ele>7.186472</ele>
|
|
<time>2026-07-11T14:46:57.000Z</time>
|
|
</trkpt>
|
|
<trkpt lat="55.599846" lon="8.225156">
|
|
<ele>7.187528</ele>
|
|
<time>2026-07-11T14:46:58.000Z</time>
|
|
</trkpt>
|
|
<trkpt lat="55.599897" lon="8.225148">
|
|
<ele>7.188493</ele>
|
|
<time>2026-07-11T14:46:59.000Z</time>
|
|
</trkpt>
|
|
<trkpt lat="55.599950" lon="8.225139">
|
|
<ele>7.189497</ele>
|
|
<time>2026-07-11T14:47:00.000Z</time>
|
|
</trkpt>
|
|
<trkpt lat="55.600009" lon="8.225130">
|
|
<ele>7.190614</ele>
|
|
<time>2026-07-11T14:47:01.000Z</time>
|
|
</trkpt>
|
|
<trkpt lat="55.600065" lon="8.225122">
|
|
<ele>7.191673</ele>
|
|
<time>2026-07-11T14:47:02.000Z</time>
|
|
</trkpt>
|
|
<trkpt lat="55.600116" lon="8.225112">
|
|
<ele>7.192640</ele>
|
|
<time>2026-07-11T14:47:03.000Z</time>
|
|
</trkpt>
|
|
<trkpt lat="55.600170" lon="8.225103">
|
|
<ele>7.193141</ele>
|
|
<time>2026-07-11T14:47:04.000Z</time>
|
|
</trkpt>
|
|
<trkpt lat="55.600222" lon="8.225097">
|
|
<ele>7.180009</ele>
|
|
<time>2026-07-11T14:47:05.000Z</time>
|
|
</trkpt>
|
|
<trkpt lat="55.600271" lon="8.225090">
|
|
<ele>7.167620</ele>
|
|
<time>2026-07-11T14:47:06.000Z</time>
|
|
</trkpt>
|
|
<trkpt lat="55.600321" lon="8.225082">
|
|
<ele>7.154969</ele>
|
|
<time>2026-07-11T14:47:07.000Z</time>
|
|
</trkpt>
|
|
<trkpt lat="55.600382" lon="8.225074">
|
|
<ele>7.139554</ele>
|
|
<time>2026-07-11T14:47:08.000Z</time>
|
|
</trkpt>
|
|
<trkpt lat="55.600449" lon="8.225068">
|
|
<ele>7.122648</ele>
|
|
<time>2026-07-11T14:47:09.000Z</time>
|
|
</trkpt>
|
|
<trkpt lat="55.600509" lon="8.225063">
|
|
<ele>7.107511</ele>
|
|
<time>2026-07-11T14:47:10.000Z</time>
|
|
</trkpt>
|
|
<trkpt lat="55.600571" lon="8.225057">
|
|
<ele>7.091864</ele>
|
|
<time>2026-07-11T14:47:11.000Z</time>
|
|
</trkpt>
|
|
<trkpt lat="55.600638" lon="8.225047">
|
|
<ele>7.074920</ele>
|
|
<time>2026-07-11T14:47:12.000Z</time>
|
|
</trkpt>
|
|
<trkpt lat="55.600706" lon="8.225036">
|
|
<ele>7.057712</ele>
|
|
<time>2026-07-11T14:47:13.000Z</time>
|
|
</trkpt>
|
|
<trkpt lat="55.600771" lon="8.225027">
|
|
<ele>7.041282</ele>
|
|
<time>2026-07-11T14:47:14.000Z</time>
|
|
</trkpt>
|
|
<trkpt lat="55.600834" lon="8.225020">
|
|
<ele>7.025374</ele>
|
|
<time>2026-07-11T14:47:15.000Z</time>
|
|
</trkpt>
|
|
<trkpt lat="55.600902" lon="8.225018">
|
|
<ele>7.008236</ele>
|
|
<time>2026-07-11T14:47:16.000Z</time>
|
|
</trkpt>
|
|
<trkpt lat="55.600971" lon="8.225026">
|
|
<ele>6.990810</ele>
|
|
<time>2026-07-11T14:47:17.000Z</time>
|
|
</trkpt>
|
|
<trkpt lat="55.601036" lon="8.225033">
|
|
<ele>6.974399</ele>
|
|
<time>2026-07-11T14:47:18.000Z</time>
|
|
</trkpt>
|
|
<trkpt lat="55.601098" lon="8.225039">
|
|
<ele>6.958752</ele>
|
|
<time>2026-07-11T14:47:19.000Z</time>
|
|
</trkpt>
|
|
<trkpt lat="55.601157" lon="8.225042">
|
|
<ele>6.943877</ele>
|
|
<time>2026-07-11T14:47:20.000Z</time>
|
|
</trkpt>
|
|
<trkpt lat="55.601218" lon="8.225042">
|
|
<ele>6.928505</ele>
|
|
<time>2026-07-11T14:47:21.000Z</time>
|
|
</trkpt>
|
|
<trkpt lat="55.601284" lon="8.225043">
|
|
<ele>6.911872</ele>
|
|
<time>2026-07-11T14:47:22.000Z</time>
|
|
</trkpt>
|
|
<trkpt lat="55.601356" lon="8.225045">
|
|
<ele>6.893726</ele>
|
|
<time>2026-07-11T14:47:23.000Z</time>
|
|
</trkpt>
|
|
<trkpt lat="55.601424" lon="8.225048">
|
|
<ele>6.876584</ele>
|
|
<time>2026-07-11T14:47:24.000Z</time>
|
|
</trkpt>
|
|
<trkpt lat="55.601485" lon="8.225055">
|
|
<ele>6.861180</ele>
|
|
<time>2026-07-11T14:47:25.000Z</time>
|
|
</trkpt>
|
|
<trkpt lat="55.601545" lon="8.225061">
|
|
<ele>6.846035</ele>
|
|
<time>2026-07-11T14:47:26.000Z</time>
|
|
</trkpt>
|
|
<trkpt lat="55.601604" lon="8.225065">
|
|
<ele>6.831156</ele>
|
|
<time>2026-07-11T14:47:27.000Z</time>
|
|
</trkpt>
|
|
<trkpt lat="55.601663" lon="8.225072">
|
|
<ele>6.816255</ele>
|
|
<time>2026-07-11T14:47:28.000Z</time>
|
|
</trkpt>
|
|
<trkpt lat="55.601723" lon="8.225078">
|
|
<ele>6.801110</ele>
|
|
<time>2026-07-11T14:47:29.000Z</time>
|
|
</trkpt>
|
|
<trkpt lat="55.601788" lon="8.225084">
|
|
<ele>6.784708</ele>
|
|
<time>2026-07-11T14:47:30.000Z</time>
|
|
</trkpt>
|
|
<trkpt lat="55.601851" lon="8.225094">
|
|
<ele>6.768768</ele>
|
|
<time>2026-07-11T14:47:31.000Z</time>
|
|
</trkpt>
|
|
<trkpt lat="55.601916" lon="8.225100">
|
|
<ele>6.752365</ele>
|
|
<time>2026-07-11T14:47:32.000Z</time>
|
|
</trkpt>
|
|
<trkpt lat="55.601981" lon="8.225103">
|
|
<ele>6.743152</ele>
|
|
<time>2026-07-11T14:47:33.000Z</time>
|
|
</trkpt>
|
|
<trkpt lat="55.602042" lon="8.225107">
|
|
<ele>6.752953</ele>
|
|
<time>2026-07-11T14:47:34.000Z</time>
|
|
</trkpt>
|
|
<trkpt lat="55.602102" lon="8.225107">
|
|
<ele>6.762586</ele>
|
|
<time>2026-07-11T14:47:35.000Z</time>
|
|
</trkpt>
|
|
<trkpt lat="55.602159" lon="8.225108">
|
|
<ele>6.771738</ele>
|
|
<time>2026-07-11T14:47:36.000Z</time>
|
|
</trkpt>
|
|
<trkpt lat="55.602219" lon="8.225111">
|
|
<ele>6.781376</ele>
|
|
<time>2026-07-11T14:47:37.000Z</time>
|
|
</trkpt>
|
|
<trkpt lat="55.602286" lon="8.225116">
|
|
<ele>6.792142</ele>
|
|
<time>2026-07-11T14:47:38.000Z</time>
|
|
</trkpt>
|
|
<trkpt lat="55.602356" lon="8.225128">
|
|
<ele>6.803434</ele>
|
|
<time>2026-07-11T14:47:39.000Z</time>
|
|
</trkpt>
|
|
<trkpt lat="55.602426" lon="8.225146">
|
|
<ele>6.814791</ele>
|
|
<time>2026-07-11T14:47:40.000Z</time>
|
|
</trkpt>
|
|
<trkpt lat="55.602490" lon="8.225170">
|
|
<ele>6.825295</ele>
|
|
<time>2026-07-11T14:47:41.000Z</time>
|
|
</trkpt>
|
|
<trkpt lat="55.602554" lon="8.225197">
|
|
<ele>6.835858</ele>
|
|
<time>2026-07-11T14:47:42.000Z</time>
|
|
</trkpt>
|
|
<trkpt lat="55.602615" lon="8.225221">
|
|
<ele>6.845891</ele>
|
|
<time>2026-07-11T14:47:43.000Z</time>
|
|
</trkpt>
|
|
<trkpt lat="55.602670" lon="8.225240">
|
|
<ele>6.854888</ele>
|
|
<time>2026-07-11T14:47:44.000Z</time>
|
|
</trkpt>
|
|
<trkpt lat="55.602721" lon="8.225259">
|
|
<ele>6.863256</ele>
|
|
<time>2026-07-11T14:47:45.000Z</time>
|
|
</trkpt>
|
|
<trkpt lat="55.602775" lon="8.225281">
|
|
<ele>6.872153</ele>
|
|
<time>2026-07-11T14:47:46.000Z</time>
|
|
</trkpt>
|
|
<trkpt lat="55.602825" lon="8.225303">
|
|
<ele>6.880425</ele>
|
|
<time>2026-07-11T14:47:47.000Z</time>
|
|
</trkpt>
|
|
<trkpt lat="55.602871" lon="8.225328">
|
|
<ele>6.888151</ele>
|
|
<time>2026-07-11T14:47:48.000Z</time>
|
|
</trkpt>
|
|
<trkpt lat="55.602919" lon="8.225351">
|
|
<ele>6.896135</ele>
|
|
<time>2026-07-11T14:47:49.000Z</time>
|
|
</trkpt>
|
|
<trkpt lat="55.602968" lon="8.225372">
|
|
<ele>6.904230</ele>
|
|
<time>2026-07-11T14:47:50.000Z</time>
|
|
</trkpt>
|
|
<trkpt lat="55.603020" lon="8.225393">
|
|
<ele>6.912793</ele>
|
|
<time>2026-07-11T14:47:51.000Z</time>
|
|
</trkpt>
|
|
<trkpt lat="55.603073" lon="8.225414">
|
|
<ele>6.921513</ele>
|
|
<time>2026-07-11T14:47:52.000Z</time>
|
|
</trkpt>
|
|
<trkpt lat="55.603125" lon="8.225437">
|
|
<ele>6.930119</ele>
|
|
<time>2026-07-11T14:47:53.000Z</time>
|
|
</trkpt>
|
|
<trkpt lat="55.603175" lon="8.225462">
|
|
<ele>6.938461</ele>
|
|
<time>2026-07-11T14:47:54.000Z</time>
|
|
</trkpt>
|
|
<trkpt lat="55.603220" lon="8.225485">
|
|
<ele>6.945981</ele>
|
|
<time>2026-07-11T14:47:55.000Z</time>
|
|
</trkpt>
|
|
<trkpt lat="55.603262" lon="8.225510">
|
|
<ele>6.953095</ele>
|
|
<time>2026-07-11T14:47:56.000Z</time>
|
|
</trkpt>
|
|
<trkpt lat="55.603307" lon="8.225534">
|
|
<ele>6.960641</ele>
|
|
<time>2026-07-11T14:47:57.000Z</time>
|
|
</trkpt>
|
|
<trkpt lat="55.603352" lon="8.225553">
|
|
<ele>6.968069</ele>
|
|
<time>2026-07-11T14:47:58.000Z</time>
|
|
</trkpt>
|
|
<trkpt lat="55.603397" lon="8.225569">
|
|
<ele>6.975438</ele>
|
|
<time>2026-07-11T14:47:59.000Z</time>
|
|
</trkpt>
|
|
<trkpt lat="55.603440" lon="8.225588">
|
|
<ele>6.982554</ele>
|
|
<time>2026-07-11T14:48:00.000Z</time>
|
|
</trkpt>
|
|
<trkpt lat="55.603480" lon="8.225611">
|
|
<ele>6.989307</ele>
|
|
<time>2026-07-11T14:48:01.000Z</time>
|
|
</trkpt>
|
|
<trkpt lat="55.603519" lon="8.225633">
|
|
<ele>6.995879</ele>
|
|
<time>2026-07-11T14:48:02.000Z</time>
|
|
</trkpt>
|
|
<trkpt lat="55.603553" lon="8.225655">
|
|
<ele>7.001691</ele>
|
|
<time>2026-07-11T14:48:03.000Z</time>
|
|
</trkpt>
|
|
<trkpt lat="55.603585" lon="8.225680">
|
|
<ele>7.007307</ele>
|
|
<time>2026-07-11T14:48:04.000Z</time>
|
|
</trkpt>
|
|
<trkpt lat="55.603618" lon="8.225703">
|
|
<ele>7.013001</ele>
|
|
<time>2026-07-11T14:48:05.000Z</time>
|
|
</trkpt>
|
|
<trkpt lat="55.603651" lon="8.225723">
|
|
<ele>7.018601</ele>
|
|
<time>2026-07-11T14:48:06.000Z</time>
|
|
</trkpt>
|
|
<trkpt lat="55.603686" lon="8.225741">
|
|
<ele>7.024453</ele>
|
|
<time>2026-07-11T14:48:07.000Z</time>
|
|
</trkpt>
|
|
<trkpt lat="55.603726" lon="8.225759">
|
|
<ele>7.028068</ele>
|
|
<time>2026-07-11T14:48:08.000Z</time>
|
|
</trkpt>
|
|
<trkpt lat="55.603763" lon="8.225771">
|
|
<ele>7.024705</ele>
|
|
<time>2026-07-11T14:48:09.000Z</time>
|
|
</trkpt>
|
|
<trkpt lat="55.603807" lon="8.225782">
|
|
<ele>7.020731</ele>
|
|
<time>2026-07-11T14:48:10.000Z</time>
|
|
</trkpt>
|
|
<trkpt lat="55.603854" lon="8.225794">
|
|
<ele>7.016486</ele>
|
|
<time>2026-07-11T14:48:11.000Z</time>
|
|
</trkpt>
|
|
<trkpt lat="55.603903" lon="8.225809">
|
|
<ele>7.012039</ele>
|
|
<time>2026-07-11T14:48:12.000Z</time>
|
|
</trkpt>
|
|
<trkpt lat="55.603955" lon="8.225829">
|
|
<ele>7.007282</ele>
|
|
<time>2026-07-11T14:48:13.000Z</time>
|
|
</trkpt>
|
|
<trkpt lat="55.604008" lon="8.225849">
|
|
<ele>7.002436</ele>
|
|
<time>2026-07-11T14:48:14.000Z</time>
|
|
</trkpt>
|
|
<trkpt lat="55.604058" lon="8.225867">
|
|
<ele>6.997874</ele>
|
|
<time>2026-07-11T14:48:15.000Z</time>
|
|
</trkpt>
|
|
<trkpt lat="55.604106" lon="8.225885">
|
|
<ele>6.993487</ele>
|
|
<time>2026-07-11T14:48:16.000Z</time>
|
|
</trkpt>
|
|
<trkpt lat="55.604160" lon="8.225906">
|
|
<ele>6.988544</ele>
|
|
<time>2026-07-11T14:48:17.000Z</time>
|
|
</trkpt>
|
|
<trkpt lat="55.604212" lon="8.225928">
|
|
<ele>6.983764</ele>
|
|
<time>2026-07-11T14:48:18.000Z</time>
|
|
</trkpt>
|
|
<trkpt lat="55.604263" lon="8.225953">
|
|
<ele>6.979032</ele>
|
|
<time>2026-07-11T14:48:19.000Z</time>
|
|
</trkpt>
|
|
<trkpt lat="55.604321" lon="8.225978">
|
|
<ele>6.973695</ele>
|
|
<time>2026-07-11T14:48:20.000Z</time>
|
|
</trkpt>
|
|
<trkpt lat="55.604386" lon="8.226002">
|
|
<ele>6.967758</ele>
|
|
<time>2026-07-11T14:48:21.000Z</time>
|
|
</trkpt>
|
|
<trkpt lat="55.604449" lon="8.226031">
|
|
<ele>6.961937</ele>
|
|
<time>2026-07-11T14:48:22.000Z</time>
|
|
</trkpt>
|
|
<trkpt lat="55.604513" lon="8.226060">
|
|
<ele>6.956031</ele>
|
|
<time>2026-07-11T14:48:23.000Z</time>
|
|
</trkpt>
|
|
<trkpt lat="55.604579" lon="8.226088">
|
|
<ele>6.949962</ele>
|
|
<time>2026-07-11T14:48:24.000Z</time>
|
|
</trkpt>
|
|
<trkpt lat="55.604640" lon="8.226113">
|
|
<ele>6.944364</ele>
|
|
<time>2026-07-11T14:48:25.000Z</time>
|
|
</trkpt>
|
|
<trkpt lat="55.604703" lon="8.226133">
|
|
<ele>6.938641</ele>
|
|
<time>2026-07-11T14:48:26.000Z</time>
|
|
</trkpt>
|
|
<trkpt lat="55.604767" lon="8.226156">
|
|
<ele>6.932802</ele>
|
|
<time>2026-07-11T14:48:27.000Z</time>
|
|
</trkpt>
|
|
<trkpt lat="55.604826" lon="8.226181">
|
|
<ele>6.927378</ele>
|
|
<time>2026-07-11T14:48:28.000Z</time>
|
|
</trkpt>
|
|
<trkpt lat="55.604881" lon="8.226205">
|
|
<ele>6.922313</ele>
|
|
<time>2026-07-11T14:48:29.000Z</time>
|
|
</trkpt>
|
|
<trkpt lat="55.604934" lon="8.226226">
|
|
<ele>6.917457</ele>
|
|
<time>2026-07-11T14:48:30.000Z</time>
|
|
</trkpt>
|
|
<trkpt lat="55.604986" lon="8.226247">
|
|
<ele>6.912688</ele>
|
|
<time>2026-07-11T14:48:31.000Z</time>
|
|
</trkpt>
|
|
<trkpt lat="55.605041" lon="8.226277">
|
|
<ele>6.907542</ele>
|
|
<time>2026-07-11T14:48:32.000Z</time>
|
|
</trkpt>
|
|
<trkpt lat="55.605099" lon="8.226311">
|
|
<ele>6.902079</ele>
|
|
<time>2026-07-11T14:48:33.000Z</time>
|
|
</trkpt>
|
|
<trkpt lat="55.605151" lon="8.226342">
|
|
<ele>6.897174</ele>
|
|
<time>2026-07-11T14:48:34.000Z</time>
|
|
</trkpt>
|
|
<trkpt lat="55.605200" lon="8.226379">
|
|
<ele>6.892410</ele>
|
|
<time>2026-07-11T14:48:35.000Z</time>
|
|
</trkpt>
|
|
<trkpt lat="55.605248" lon="8.226421">
|
|
<ele>6.887623</ele>
|
|
<time>2026-07-11T14:48:36.000Z</time>
|
|
</trkpt>
|
|
<trkpt lat="55.605290" lon="8.226465">
|
|
<ele>6.883259</ele>
|
|
<time>2026-07-11T14:48:37.000Z</time>
|
|
</trkpt>
|
|
<trkpt lat="55.605328" lon="8.226512">
|
|
<ele>6.879115</ele>
|
|
<time>2026-07-11T14:48:38.000Z</time>
|
|
</trkpt>
|
|
<trkpt lat="55.605360" lon="8.226555">
|
|
<ele>6.875523</ele>
|
|
<time>2026-07-11T14:48:39.000Z</time>
|
|
</trkpt>
|
|
<trkpt lat="55.605383" lon="8.226591">
|
|
<ele>6.872778</ele>
|
|
<time>2026-07-11T14:48:40.000Z</time>
|
|
</trkpt>
|
|
<trkpt lat="55.605408" lon="8.226625">
|
|
<ele>6.869959</ele>
|
|
<time>2026-07-11T14:48:41.000Z</time>
|
|
</trkpt>
|
|
<trkpt lat="55.605436" lon="8.226662">
|
|
<ele>6.864059</ele>
|
|
<time>2026-07-11T14:48:42.000Z</time>
|
|
</trkpt>
|
|
<trkpt lat="55.605468" lon="8.226697">
|
|
<ele>6.854436</ele>
|
|
<time>2026-07-11T14:48:43.000Z</time>
|
|
</trkpt>
|
|
<trkpt lat="55.605505" lon="8.226719">
|
|
<ele>6.844450</ele>
|
|
<time>2026-07-11T14:48:44.000Z</time>
|
|
</trkpt>
|
|
<trkpt lat="55.605547" lon="8.226713">
|
|
<ele>6.833670</ele>
|
|
<time>2026-07-11T14:48:45.000Z</time>
|
|
</trkpt>
|
|
<trkpt lat="55.605588" lon="8.226678">
|
|
<ele>6.822024</ele>
|
|
<time>2026-07-11T14:48:46.000Z</time>
|
|
</trkpt>
|
|
<trkpt lat="55.605626" lon="8.226629">
|
|
<ele>6.809997</ele>
|
|
<time>2026-07-11T14:48:47.000Z</time>
|
|
</trkpt>
|
|
<trkpt lat="55.605664" lon="8.226574">
|
|
<ele>6.797439</ele>
|
|
<time>2026-07-11T14:48:48.000Z</time>
|
|
</trkpt>
|
|
<trkpt lat="55.605695" lon="8.226524">
|
|
<ele>6.786710</ele>
|
|
<time>2026-07-11T14:48:49.000Z</time>
|
|
</trkpt>
|
|
<trkpt lat="55.605726" lon="8.226479">
|
|
<ele>6.776453</ele>
|
|
<time>2026-07-11T14:48:50.000Z</time>
|
|
</trkpt>
|
|
<trkpt lat="55.605754" lon="8.226440">
|
|
<ele>6.767338</ele>
|
|
<time>2026-07-11T14:48:51.000Z</time>
|
|
</trkpt>
|
|
<trkpt lat="55.605779" lon="8.226403">
|
|
<ele>6.759002</ele>
|
|
<time>2026-07-11T14:48:52.000Z</time>
|
|
</trkpt>
|
|
<trkpt lat="55.605799" lon="8.226365">
|
|
<ele>6.751496</ele>
|
|
<time>2026-07-11T14:48:53.000Z</time>
|
|
</trkpt>
|
|
<trkpt lat="55.605812" lon="8.226333">
|
|
<ele>6.745799</ele>
|
|
<time>2026-07-11T14:48:54.000Z</time>
|
|
</trkpt>
|
|
<trkpt lat="55.605820" lon="8.226310">
|
|
<ele>6.741896</ele>
|
|
<time>2026-07-11T14:48:55.000Z</time>
|
|
</trkpt>
|
|
<trkpt lat="55.605825" lon="8.226294">
|
|
<ele>6.739253</ele>
|
|
<time>2026-07-11T14:48:56.000Z</time>
|
|
</trkpt>
|
|
<trkpt lat="55.605829" lon="8.226292">
|
|
<ele>6.738190</ele>
|
|
<time>2026-07-11T14:48:57.000Z</time>
|
|
</trkpt>
|
|
<trkpt lat="55.605831" lon="8.226292">
|
|
<ele>6.737678</ele>
|
|
<time>2026-07-11T14:48:58.000Z</time>
|
|
</trkpt>
|
|
<trkpt lat="55.605831" lon="8.226292">
|
|
<ele>6.737678</ele>
|
|
<time>2026-07-11T14:49:00.000Z</time>
|
|
</trkpt>
|
|
<trkpt lat="55.605836" lon="8.226261">
|
|
<ele>6.733019</ele>
|
|
<time>2026-07-11T14:49:31.000Z</time>
|
|
</trkpt>
|
|
<trkpt lat="55.605843" lon="8.226229">
|
|
<ele>6.728060</ele>
|
|
<time>2026-07-11T14:49:32.000Z</time>
|
|
</trkpt>
|
|
<trkpt lat="55.605852" lon="8.226185">
|
|
<ele>6.721297</ele>
|
|
<time>2026-07-11T14:49:33.000Z</time>
|
|
</trkpt>
|
|
<trkpt lat="55.605857" lon="8.226134">
|
|
<ele>6.713816</ele>
|
|
<time>2026-07-11T14:49:34.000Z</time>
|
|
</trkpt>
|
|
<trkpt lat="55.605862" lon="8.226074">
|
|
<ele>6.705051</ele>
|
|
<time>2026-07-11T14:49:35.000Z</time>
|
|
</trkpt>
|
|
<trkpt lat="55.605860" lon="8.226003">
|
|
<ele>6.694777</ele>
|
|
<time>2026-07-11T14:49:36.000Z</time>
|
|
</trkpt>
|
|
<trkpt lat="55.605856" lon="8.225930">
|
|
<ele>6.684178</ele>
|
|
<time>2026-07-11T14:49:37.000Z</time>
|
|
</trkpt>
|
|
<trkpt lat="55.605857" lon="8.225851">
|
|
<ele>6.672758</ele>
|
|
<time>2026-07-11T14:49:38.000Z</time>
|
|
</trkpt>
|
|
<trkpt lat="55.605866" lon="8.225771">
|
|
<ele>6.660969</ele>
|
|
<time>2026-07-11T14:49:39.000Z</time>
|
|
</trkpt>
|
|
<trkpt lat="55.605879" lon="8.225690">
|
|
<ele>6.648800</ele>
|
|
<time>2026-07-11T14:49:40.000Z</time>
|
|
</trkpt>
|
|
<trkpt lat="55.605895" lon="8.225606">
|
|
<ele>6.635989</ele>
|
|
<time>2026-07-11T14:49:41.000Z</time>
|
|
</trkpt>
|
|
<trkpt lat="55.605912" lon="8.225523">
|
|
<ele>6.623229</ele>
|
|
<time>2026-07-11T14:49:42.000Z</time>
|
|
</trkpt>
|
|
<trkpt lat="55.605930" lon="8.225441">
|
|
<ele>6.610516</ele>
|
|
<time>2026-07-11T14:49:43.000Z</time>
|
|
</trkpt>
|
|
<trkpt lat="55.605948" lon="8.225358">
|
|
<ele>6.597667</ele>
|
|
<time>2026-07-11T14:49:44.000Z</time>
|
|
</trkpt>
|
|
<trkpt lat="55.605966" lon="8.225274">
|
|
<ele>6.584683</ele>
|
|
<time>2026-07-11T14:49:45.000Z</time>
|
|
</trkpt>
|
|
<trkpt lat="55.605988" lon="8.225193">
|
|
<ele>6.571694</ele>
|
|
<time>2026-07-11T14:49:46.000Z</time>
|
|
</trkpt>
|
|
<trkpt lat="55.606008" lon="8.225114">
|
|
<ele>6.559183</ele>
|
|
<time>2026-07-11T14:49:47.000Z</time>
|
|
</trkpt>
|
|
<trkpt lat="55.606029" lon="8.225034">
|
|
<ele>6.546434</ele>
|
|
<time>2026-07-11T14:49:48.000Z</time>
|
|
</trkpt>
|
|
<trkpt lat="55.606049" lon="8.224950">
|
|
<ele>6.533260</ele>
|
|
<time>2026-07-11T14:49:49.000Z</time>
|
|
</trkpt>
|
|
<trkpt lat="55.606068" lon="8.224867">
|
|
<ele>6.520318</ele>
|
|
<time>2026-07-11T14:49:50.000Z</time>
|
|
</trkpt>
|
|
<trkpt lat="55.606085" lon="8.224784">
|
|
<ele>6.507558</ele>
|
|
<time>2026-07-11T14:49:51.000Z</time>
|
|
</trkpt>
|
|
<trkpt lat="55.606102" lon="8.224701">
|
|
<ele>6.494799</ele>
|
|
<time>2026-07-11T14:49:52.000Z</time>
|
|
</trkpt>
|
|
<trkpt lat="55.606121" lon="8.224618">
|
|
<ele>6.481857</ele>
|
|
<time>2026-07-11T14:49:53.000Z</time>
|
|
</trkpt>
|
|
<trkpt lat="55.606139" lon="8.224535">
|
|
<ele>6.469008</ele>
|
|
<time>2026-07-11T14:49:54.000Z</time>
|
|
</trkpt>
|
|
<trkpt lat="55.606156" lon="8.224450">
|
|
<ele>6.455977</ele>
|
|
<time>2026-07-11T14:49:55.000Z</time>
|
|
</trkpt>
|
|
<trkpt lat="55.606175" lon="8.224365">
|
|
<ele>6.442766</ele>
|
|
<time>2026-07-11T14:49:56.000Z</time>
|
|
</trkpt>
|
|
<trkpt lat="55.606195" lon="8.224281">
|
|
<ele>6.429592</ele>
|
|
<time>2026-07-11T14:49:57.000Z</time>
|
|
</trkpt>
|
|
<trkpt lat="55.606218" lon="8.224194">
|
|
<ele>6.415710</ele>
|
|
<time>2026-07-11T14:49:58.000Z</time>
|
|
</trkpt>
|
|
<trkpt lat="55.606240" lon="8.224108">
|
|
<ele>6.408583</ele>
|
|
<time>2026-07-11T14:49:59.000Z</time>
|
|
</trkpt>
|
|
<trkpt lat="55.606259" lon="8.224022">
|
|
<ele>6.409507</ele>
|
|
<time>2026-07-11T14:50:00.000Z</time>
|
|
</trkpt>
|
|
<trkpt lat="55.606279" lon="8.223936">
|
|
<ele>6.410438</ele>
|
|
<time>2026-07-11T14:50:01.000Z</time>
|
|
</trkpt>
|
|
<trkpt lat="55.606299" lon="8.223847">
|
|
<ele>6.411397</ele>
|
|
<time>2026-07-11T14:50:02.000Z</time>
|
|
</trkpt>
|
|
<trkpt lat="55.606314" lon="8.223759">
|
|
<ele>6.412317</ele>
|
|
<time>2026-07-11T14:50:03.000Z</time>
|
|
</trkpt>
|
|
<trkpt lat="55.606331" lon="8.223673">
|
|
<ele>6.413229</ele>
|
|
<time>2026-07-11T14:50:04.000Z</time>
|
|
</trkpt>
|
|
<trkpt lat="55.606351" lon="8.223588">
|
|
<ele>6.414150</ele>
|
|
<time>2026-07-11T14:50:05.000Z</time>
|
|
</trkpt>
|
|
<trkpt lat="55.606373" lon="8.223502">
|
|
<ele>6.415095</ele>
|
|
<time>2026-07-11T14:50:06.000Z</time>
|
|
</trkpt>
|
|
<trkpt lat="55.606392" lon="8.223418">
|
|
<ele>6.416001</ele>
|
|
<time>2026-07-11T14:50:07.000Z</time>
|
|
</trkpt>
|
|
<trkpt lat="55.606409" lon="8.223333">
|
|
<ele>6.416903</ele>
|
|
<time>2026-07-11T14:50:08.000Z</time>
|
|
</trkpt>
|
|
<trkpt lat="55.606426" lon="8.223245">
|
|
<ele>6.417834</ele>
|
|
<time>2026-07-11T14:50:09.000Z</time>
|
|
</trkpt>
|
|
<trkpt lat="55.606447" lon="8.223157">
|
|
<ele>6.418790</ele>
|
|
<time>2026-07-11T14:50:10.000Z</time>
|
|
</trkpt>
|
|
<trkpt lat="55.606468" lon="8.223070">
|
|
<ele>6.419737</ele>
|
|
<time>2026-07-11T14:50:11.000Z</time>
|
|
</trkpt>
|
|
<trkpt lat="55.606488" lon="8.222986">
|
|
<ele>6.420649</ele>
|
|
<time>2026-07-11T14:50:12.000Z</time>
|
|
</trkpt>
|
|
<trkpt lat="55.606510" lon="8.222897">
|
|
<ele>6.421621</ele>
|
|
<time>2026-07-11T14:50:13.000Z</time>
|
|
</trkpt>
|
|
<trkpt lat="55.606531" lon="8.222806">
|
|
<ele>6.422605</ele>
|
|
<time>2026-07-11T14:50:14.000Z</time>
|
|
</trkpt>
|
|
<trkpt lat="55.606552" lon="8.222719">
|
|
<ele>6.423552</ele>
|
|
<time>2026-07-11T14:50:15.000Z</time>
|
|
</trkpt>
|
|
<trkpt lat="55.606571" lon="8.222629">
|
|
<ele>6.424513</ele>
|
|
<time>2026-07-11T14:50:16.000Z</time>
|
|
</trkpt>
|
|
<trkpt lat="55.606590" lon="8.222540">
|
|
<ele>6.425466</ele>
|
|
<time>2026-07-11T14:50:17.000Z</time>
|
|
</trkpt>
|
|
<trkpt lat="55.606611" lon="8.222453">
|
|
<ele>6.426413</ele>
|
|
<time>2026-07-11T14:50:18.000Z</time>
|
|
</trkpt>
|
|
<trkpt lat="55.606632" lon="8.222363">
|
|
<ele>6.427387</ele>
|
|
<time>2026-07-11T14:50:19.000Z</time>
|
|
</trkpt>
|
|
<trkpt lat="55.606650" lon="8.222278">
|
|
<ele>6.428296</ele>
|
|
<time>2026-07-11T14:50:20.000Z</time>
|
|
</trkpt>
|
|
<trkpt lat="55.606668" lon="8.222194">
|
|
<ele>6.429195</ele>
|
|
<time>2026-07-11T14:50:21.000Z</time>
|
|
</trkpt>
|
|
<trkpt lat="55.606691" lon="8.222095">
|
|
<ele>6.430266</ele>
|
|
<time>2026-07-11T14:50:22.000Z</time>
|
|
</trkpt>
|
|
<trkpt lat="55.606712" lon="8.222007">
|
|
<ele>6.431222</ele>
|
|
<time>2026-07-11T14:50:23.000Z</time>
|
|
</trkpt>
|
|
<trkpt lat="55.606733" lon="8.221918">
|
|
<ele>6.432187</ele>
|
|
<time>2026-07-11T14:50:24.000Z</time>
|
|
</trkpt>
|
|
<trkpt lat="55.606755" lon="8.221826">
|
|
<ele>6.433187</ele>
|
|
<time>2026-07-11T14:50:25.000Z</time>
|
|
</trkpt>
|
|
<trkpt lat="55.606773" lon="8.221738">
|
|
<ele>6.434124</ele>
|
|
<time>2026-07-11T14:50:26.000Z</time>
|
|
</trkpt>
|
|
<trkpt lat="55.606794" lon="8.221650">
|
|
<ele>6.435080</ele>
|
|
<time>2026-07-11T14:50:27.000Z</time>
|
|
</trkpt>
|
|
<trkpt lat="55.606815" lon="8.221559">
|
|
<ele>6.436064</ele>
|
|
<time>2026-07-11T14:50:28.000Z</time>
|
|
</trkpt>
|
|
<trkpt lat="55.606836" lon="8.221470">
|
|
<ele>6.437029</ele>
|
|
<time>2026-07-11T14:50:29.000Z</time>
|
|
</trkpt>
|
|
<trkpt lat="55.606857" lon="8.221377">
|
|
<ele>6.438031</ele>
|
|
<time>2026-07-11T14:50:30.000Z</time>
|
|
</trkpt>
|
|
<trkpt lat="55.606877" lon="8.221285">
|
|
<ele>6.439018</ele>
|
|
<time>2026-07-11T14:50:31.000Z</time>
|
|
</trkpt>
|
|
<trkpt lat="55.606896" lon="8.221194">
|
|
<ele>6.439989</ele>
|
|
<time>2026-07-11T14:50:32.000Z</time>
|
|
</trkpt>
|
|
<trkpt lat="55.606916" lon="8.221102">
|
|
<ele>6.450877</ele>
|
|
<time>2026-07-11T14:50:33.000Z</time>
|
|
</trkpt>
|
|
<trkpt lat="55.606937" lon="8.221012">
|
|
<ele>6.462037</ele>
|
|
<time>2026-07-11T14:50:34.000Z</time>
|
|
</trkpt>
|
|
<trkpt lat="55.606958" lon="8.220921">
|
|
<ele>6.473304</ele>
|
|
<time>2026-07-11T14:50:35.000Z</time>
|
|
</trkpt>
|
|
<trkpt lat="55.606979" lon="8.220828">
|
|
<ele>6.484784</ele>
|
|
<time>2026-07-11T14:50:36.000Z</time>
|
|
</trkpt>
|
|
<trkpt lat="55.606998" lon="8.220736">
|
|
<ele>6.496011</ele>
|
|
<time>2026-07-11T14:50:37.000Z</time>
|
|
</trkpt>
|
|
<trkpt lat="55.607019" lon="8.220644">
|
|
<ele>6.507384</ele>
|
|
<time>2026-07-11T14:50:38.000Z</time>
|
|
</trkpt>
|
|
<trkpt lat="55.607041" lon="8.220553">
|
|
<ele>6.518730</ele>
|
|
<time>2026-07-11T14:50:39.000Z</time>
|
|
</trkpt>
|
|
<trkpt lat="55.607061" lon="8.220463">
|
|
<ele>6.529815</ele>
|
|
<time>2026-07-11T14:50:40.000Z</time>
|
|
</trkpt>
|
|
<trkpt lat="55.607082" lon="8.220373">
|
|
<ele>6.540976</ele>
|
|
<time>2026-07-11T14:50:41.000Z</time>
|
|
</trkpt>
|
|
<trkpt lat="55.607102" lon="8.220283">
|
|
<ele>6.552061</ele>
|
|
<time>2026-07-11T14:50:42.000Z</time>
|
|
</trkpt>
|
|
<trkpt lat="55.607124" lon="8.220190">
|
|
<ele>6.563617</ele>
|
|
<time>2026-07-11T14:50:43.000Z</time>
|
|
</trkpt>
|
|
<trkpt lat="55.607143" lon="8.220099">
|
|
<ele>6.574737</ele>
|
|
<time>2026-07-11T14:50:44.000Z</time>
|
|
</trkpt>
|
|
<trkpt lat="55.607164" lon="8.220011">
|
|
<ele>6.585686</ele>
|
|
<time>2026-07-11T14:50:45.000Z</time>
|
|
</trkpt>
|
|
<trkpt lat="55.607185" lon="8.219923">
|
|
<ele>6.596636</ele>
|
|
<time>2026-07-11T14:50:46.000Z</time>
|
|
</trkpt>
|
|
<trkpt lat="55.607206" lon="8.219831">
|
|
<ele>6.608009</ele>
|
|
<time>2026-07-11T14:50:47.000Z</time>
|
|
</trkpt>
|
|
<trkpt lat="55.607229" lon="8.219742">
|
|
<ele>6.619226</ele>
|
|
<time>2026-07-11T14:50:48.000Z</time>
|
|
</trkpt>
|
|
<trkpt lat="55.607250" lon="8.219651">
|
|
<ele>6.630493</ele>
|
|
<time>2026-07-11T14:50:49.000Z</time>
|
|
</trkpt>
|
|
<trkpt lat="55.607271" lon="8.219558">
|
|
<ele>6.641973</ele>
|
|
<time>2026-07-11T14:50:50.000Z</time>
|
|
</trkpt>
|
|
<trkpt lat="55.607292" lon="8.219466">
|
|
<ele>6.653346</ele>
|
|
<time>2026-07-11T14:50:51.000Z</time>
|
|
</trkpt>
|
|
<trkpt lat="55.607313" lon="8.219375">
|
|
<ele>6.664613</ele>
|
|
<time>2026-07-11T14:50:52.000Z</time>
|
|
</trkpt>
|
|
<trkpt lat="55.607334" lon="8.219286">
|
|
<ele>6.675668</ele>
|
|
<time>2026-07-11T14:50:53.000Z</time>
|
|
</trkpt>
|
|
<trkpt lat="55.607354" lon="8.219196">
|
|
<ele>6.686753</ele>
|
|
<time>2026-07-11T14:50:54.000Z</time>
|
|
</trkpt>
|
|
<trkpt lat="55.607376" lon="8.219103">
|
|
<ele>6.698309</ele>
|
|
<time>2026-07-11T14:50:55.000Z</time>
|
|
</trkpt>
|
|
<trkpt lat="55.607395" lon="8.219013">
|
|
<ele>6.709321</ele>
|
|
<time>2026-07-11T14:50:56.000Z</time>
|
|
</trkpt>
|
|
<trkpt lat="55.607416" lon="8.218922">
|
|
<ele>6.720588</ele>
|
|
<time>2026-07-11T14:50:57.000Z</time>
|
|
</trkpt>
|
|
<trkpt lat="55.607437" lon="8.218831">
|
|
<ele>6.731855</ele>
|
|
<time>2026-07-11T14:50:58.000Z</time>
|
|
</trkpt>
|
|
<trkpt lat="55.607458" lon="8.218743">
|
|
<ele>6.742804</ele>
|
|
<time>2026-07-11T14:50:59.000Z</time>
|
|
</trkpt>
|
|
<trkpt lat="55.607481" lon="8.218652">
|
|
<ele>6.754231</ele>
|
|
<time>2026-07-11T14:51:00.000Z</time>
|
|
</trkpt>
|
|
<trkpt lat="55.607502" lon="8.218562">
|
|
<ele>6.765391</ele>
|
|
<time>2026-07-11T14:51:01.000Z</time>
|
|
</trkpt>
|
|
<trkpt lat="55.607523" lon="8.218472">
|
|
<ele>6.776552</ele>
|
|
<time>2026-07-11T14:51:02.000Z</time>
|
|
</trkpt>
|
|
<trkpt lat="55.607544" lon="8.218382">
|
|
<ele>6.787713</ele>
|
|
<time>2026-07-11T14:51:03.000Z</time>
|
|
</trkpt>
|
|
<trkpt lat="55.607563" lon="8.218292">
|
|
<ele>6.798725</ele>
|
|
<time>2026-07-11T14:51:04.000Z</time>
|
|
</trkpt>
|
|
<trkpt lat="55.607582" lon="8.218203">
|
|
<ele>6.808155</ele>
|
|
<time>2026-07-11T14:51:05.000Z</time>
|
|
</trkpt>
|
|
<trkpt lat="55.607602" lon="8.218115">
|
|
<ele>6.815570</ele>
|
|
<time>2026-07-11T14:51:06.000Z</time>
|
|
</trkpt>
|
|
<trkpt lat="55.607624" lon="8.218024">
|
|
<ele>6.823309</ele>
|
|
<time>2026-07-11T14:51:07.000Z</time>
|
|
</trkpt>
|
|
<trkpt lat="55.607643" lon="8.217934">
|
|
<ele>6.830820</ele>
|
|
<time>2026-07-11T14:51:08.000Z</time>
|
|
</trkpt>
|
|
<trkpt lat="55.607662" lon="8.217843">
|
|
<ele>6.838404</ele>
|
|
<time>2026-07-11T14:51:09.000Z</time>
|
|
</trkpt>
|
|
<trkpt lat="55.607681" lon="8.217754">
|
|
<ele>6.845842</ele>
|
|
<time>2026-07-11T14:51:10.000Z</time>
|
|
</trkpt>
|
|
<trkpt lat="55.607700" lon="8.217665">
|
|
<ele>6.853280</ele>
|
|
<time>2026-07-11T14:51:11.000Z</time>
|
|
</trkpt>
|
|
<trkpt lat="55.607718" lon="8.217576">
|
|
<ele>6.860671</ele>
|
|
<time>2026-07-11T14:51:12.000Z</time>
|
|
</trkpt>
|
|
<trkpt lat="55.607736" lon="8.217487">
|
|
<ele>6.868061</ele>
|
|
<time>2026-07-11T14:51:13.000Z</time>
|
|
</trkpt>
|
|
<trkpt lat="55.607755" lon="8.217396">
|
|
<ele>6.875645</ele>
|
|
<time>2026-07-11T14:51:14.000Z</time>
|
|
</trkpt>
|
|
<trkpt lat="55.607768" lon="8.217303">
|
|
<ele>6.883135</ele>
|
|
<time>2026-07-11T14:51:15.000Z</time>
|
|
</trkpt>
|
|
<trkpt lat="55.607781" lon="8.217213">
|
|
<ele>6.890397</ele>
|
|
<time>2026-07-11T14:51:16.000Z</time>
|
|
</trkpt>
|
|
<trkpt lat="55.607792" lon="8.217121">
|
|
<ele>6.897749</ele>
|
|
<time>2026-07-11T14:51:17.000Z</time>
|
|
</trkpt>
|
|
<trkpt lat="55.607804" lon="8.217021">
|
|
<ele>6.905741</ele>
|
|
<time>2026-07-11T14:51:18.000Z</time>
|
|
</trkpt>
|
|
<trkpt lat="55.607816" lon="8.216924">
|
|
<ele>6.913504</ele>
|
|
<time>2026-07-11T14:51:19.000Z</time>
|
|
</trkpt>
|
|
<trkpt lat="55.607825" lon="8.216830">
|
|
<ele>6.920957</ele>
|
|
<time>2026-07-11T14:51:20.000Z</time>
|
|
</trkpt>
|
|
<trkpt lat="55.607833" lon="8.216734">
|
|
<ele>6.928543</ele>
|
|
<time>2026-07-11T14:51:21.000Z</time>
|
|
</trkpt>
|
|
<trkpt lat="55.607841" lon="8.216634">
|
|
<ele>6.936439</ele>
|
|
<time>2026-07-11T14:51:22.000Z</time>
|
|
</trkpt>
|
|
<trkpt lat="55.607848" lon="8.216534">
|
|
<ele>6.944316</ele>
|
|
<time>2026-07-11T14:51:23.000Z</time>
|
|
</trkpt>
|
|
<trkpt lat="55.607855" lon="8.216435">
|
|
<ele>6.952116</ele>
|
|
<time>2026-07-11T14:51:24.000Z</time>
|
|
</trkpt>
|
|
<trkpt lat="55.607858" lon="8.216337">
|
|
<ele>6.959788</ele>
|
|
<time>2026-07-11T14:51:25.000Z</time>
|
|
</trkpt>
|
|
<trkpt lat="55.607862" lon="8.216234">
|
|
<ele>6.967860</ele>
|
|
<time>2026-07-11T14:51:26.000Z</time>
|
|
</trkpt>
|
|
<trkpt lat="55.607866" lon="8.216135">
|
|
<ele>6.975619</ele>
|
|
<time>2026-07-11T14:51:27.000Z</time>
|
|
</trkpt>
|
|
<trkpt lat="55.607868" lon="8.216035">
|
|
<ele>6.983441</ele>
|
|
<time>2026-07-11T14:51:28.000Z</time>
|
|
</trkpt>
|
|
<trkpt lat="55.607871" lon="8.215942">
|
|
<ele>6.990723</ele>
|
|
<time>2026-07-11T14:51:29.000Z</time>
|
|
</trkpt>
|
|
<trkpt lat="55.607876" lon="8.215847">
|
|
<ele>6.998182</ele>
|
|
<time>2026-07-11T14:51:30.000Z</time>
|
|
</trkpt>
|
|
<trkpt lat="55.607877" lon="8.215734">
|
|
<ele>7.007017</ele>
|
|
<time>2026-07-11T14:51:31.000Z</time>
|
|
</trkpt>
|
|
<trkpt lat="55.607881" lon="8.215631">
|
|
<ele>7.015088</ele>
|
|
<time>2026-07-11T14:51:32.000Z</time>
|
|
</trkpt>
|
|
<trkpt lat="55.607883" lon="8.215529">
|
|
<ele>7.023067</ele>
|
|
<time>2026-07-11T14:51:33.000Z</time>
|
|
</trkpt>
|
|
<trkpt lat="55.607885" lon="8.215431">
|
|
<ele>7.030733</ele>
|
|
<time>2026-07-11T14:51:34.000Z</time>
|
|
</trkpt>
|
|
<trkpt lat="55.607889" lon="8.215332">
|
|
<ele>7.038493</ele>
|
|
<time>2026-07-11T14:51:35.000Z</time>
|
|
</trkpt>
|
|
<trkpt lat="55.607893" lon="8.215225">
|
|
<ele>7.046876</ele>
|
|
<time>2026-07-11T14:51:36.000Z</time>
|
|
</trkpt>
|
|
<trkpt lat="55.607897" lon="8.215124">
|
|
<ele>7.054648</ele>
|
|
<time>2026-07-11T14:51:37.000Z</time>
|
|
</trkpt>
|
|
<trkpt lat="55.607900" lon="8.215023">
|
|
<ele>7.061255</ele>
|
|
<time>2026-07-11T14:51:38.000Z</time>
|
|
</trkpt>
|
|
<trkpt lat="55.607904" lon="8.214922">
|
|
<ele>7.067869</ele>
|
|
<time>2026-07-11T14:51:39.000Z</time>
|
|
</trkpt>
|
|
<trkpt lat="55.607908" lon="8.214820">
|
|
<ele>7.074548</ele>
|
|
<time>2026-07-11T14:51:40.000Z</time>
|
|
</trkpt>
|
|
<trkpt lat="55.607910" lon="8.214719">
|
|
<ele>7.081150</ele>
|
|
<time>2026-07-11T14:51:41.000Z</time>
|
|
</trkpt>
|
|
<trkpt lat="55.607912" lon="8.214619">
|
|
<ele>7.087686</ele>
|
|
<time>2026-07-11T14:51:42.000Z</time>
|
|
</trkpt>
|
|
<trkpt lat="55.607916" lon="8.214517">
|
|
<ele>7.094365</ele>
|
|
<time>2026-07-11T14:51:43.000Z</time>
|
|
</trkpt>
|
|
<trkpt lat="55.607919" lon="8.214418">
|
|
<ele>7.100841</ele>
|
|
<time>2026-07-11T14:51:44.000Z</time>
|
|
</trkpt>
|
|
<trkpt lat="55.607923" lon="8.214319">
|
|
<ele>7.107325</ele>
|
|
<time>2026-07-11T14:51:45.000Z</time>
|
|
</trkpt>
|
|
<trkpt lat="55.607927" lon="8.214219">
|
|
<ele>7.113874</ele>
|
|
<time>2026-07-11T14:51:46.000Z</time>
|
|
</trkpt>
|
|
<trkpt lat="55.607931" lon="8.214118">
|
|
<ele>7.120488</ele>
|
|
<time>2026-07-11T14:51:47.000Z</time>
|
|
</trkpt>
|
|
<trkpt lat="55.607935" lon="8.214017">
|
|
<ele>7.127102</ele>
|
|
<time>2026-07-11T14:51:48.000Z</time>
|
|
</trkpt>
|
|
<trkpt lat="55.607937" lon="8.213915">
|
|
<ele>7.133769</ele>
|
|
<time>2026-07-11T14:51:49.000Z</time>
|
|
</trkpt>
|
|
<trkpt lat="55.607939" lon="8.213813">
|
|
<ele>7.140436</ele>
|
|
<time>2026-07-11T14:51:50.000Z</time>
|
|
</trkpt>
|
|
<trkpt lat="55.607942" lon="8.213711">
|
|
<ele>7.147108</ele>
|
|
<time>2026-07-11T14:51:51.000Z</time>
|
|
</trkpt>
|
|
<trkpt lat="55.607946" lon="8.213612">
|
|
<ele>7.153591</ele>
|
|
<time>2026-07-11T14:51:52.000Z</time>
|
|
</trkpt>
|
|
<trkpt lat="55.607950" lon="8.213512">
|
|
<ele>7.160140</ele>
|
|
<time>2026-07-11T14:51:53.000Z</time>
|
|
</trkpt>
|
|
<trkpt lat="55.607954" lon="8.213412">
|
|
<ele>7.166689</ele>
|
|
<time>2026-07-11T14:51:54.000Z</time>
|
|
</trkpt>
|
|
<trkpt lat="55.607958" lon="8.213314">
|
|
<ele>7.173107</ele>
|
|
<time>2026-07-11T14:51:55.000Z</time>
|
|
</trkpt>
|
|
<trkpt lat="55.607961" lon="8.213215">
|
|
<ele>7.179584</ele>
|
|
<time>2026-07-11T14:51:56.000Z</time>
|
|
</trkpt>
|
|
<trkpt lat="55.607967" lon="8.213117">
|
|
<ele>7.186023</ele>
|
|
<time>2026-07-11T14:51:57.000Z</time>
|
|
</trkpt>
|
|
<trkpt lat="55.607973" lon="8.213021">
|
|
<ele>7.192332</ele>
|
|
<time>2026-07-11T14:51:58.000Z</time>
|
|
</trkpt>
|
|
<trkpt lat="55.607978" lon="8.212922">
|
|
<ele>7.198825</ele>
|
|
<time>2026-07-11T14:51:59.000Z</time>
|
|
</trkpt>
|
|
<trkpt lat="55.607984" lon="8.212822">
|
|
<ele>7.205394</ele>
|
|
<time>2026-07-11T14:52:00.000Z</time>
|
|
</trkpt>
|
|
<trkpt lat="55.607991" lon="8.212723">
|
|
<ele>7.211912</ele>
|
|
<time>2026-07-11T14:52:01.000Z</time>
|
|
</trkpt>
|
|
<trkpt lat="55.608001" lon="8.212623">
|
|
<ele>7.218546</ele>
|
|
<time>2026-07-11T14:52:02.000Z</time>
|
|
</trkpt>
|
|
<trkpt lat="55.608009" lon="8.212525">
|
|
<ele>7.225014</ele>
|
|
<time>2026-07-11T14:52:03.000Z</time>
|
|
</trkpt>
|
|
<trkpt lat="55.608020" lon="8.212427">
|
|
<ele>7.231541</ele>
|
|
<time>2026-07-11T14:52:04.000Z</time>
|
|
</trkpt>
|
|
<trkpt lat="55.608033" lon="8.212330">
|
|
<ele>7.238053</ele>
|
|
<time>2026-07-11T14:52:05.000Z</time>
|
|
</trkpt>
|
|
<trkpt lat="55.608045" lon="8.212235">
|
|
<ele>7.244412</ele>
|
|
<time>2026-07-11T14:52:06.000Z</time>
|
|
</trkpt>
|
|
<trkpt lat="55.608058" lon="8.212140">
|
|
<ele>7.250797</ele>
|
|
<time>2026-07-11T14:52:07.000Z</time>
|
|
</trkpt>
|
|
<trkpt lat="55.608072" lon="8.212044">
|
|
<ele>7.257274</ele>
|
|
<time>2026-07-11T14:52:08.000Z</time>
|
|
</trkpt>
|
|
<trkpt lat="55.608085" lon="8.211950">
|
|
<ele>7.272773</ele>
|
|
<time>2026-07-11T14:52:09.000Z</time>
|
|
</trkpt>
|
|
<trkpt lat="55.608101" lon="8.211858">
|
|
<ele>7.313725</ele>
|
|
<time>2026-07-11T14:52:10.000Z</time>
|
|
</trkpt>
|
|
<trkpt lat="55.608119" lon="8.211768">
|
|
<ele>7.354341</ele>
|
|
<time>2026-07-11T14:52:11.000Z</time>
|
|
</trkpt>
|
|
<trkpt lat="55.608136" lon="8.211677">
|
|
<ele>7.395116</ele>
|
|
<time>2026-07-11T14:52:12.000Z</time>
|
|
</trkpt>
|
|
<trkpt lat="55.608155" lon="8.211588">
|
|
<ele>7.435592</ele>
|
|
<time>2026-07-11T14:52:13.000Z</time>
|
|
</trkpt>
|
|
<trkpt lat="55.608174" lon="8.211500">
|
|
<ele>7.475670</ele>
|
|
<time>2026-07-11T14:52:14.000Z</time>
|
|
</trkpt>
|
|
<trkpt lat="55.608193" lon="8.211411">
|
|
<ele>7.516146</ele>
|
|
<time>2026-07-11T14:52:15.000Z</time>
|
|
</trkpt>
|
|
<trkpt lat="55.608212" lon="8.211323">
|
|
<ele>7.556224</ele>
|
|
<time>2026-07-11T14:52:16.000Z</time>
|
|
</trkpt>
|
|
<trkpt lat="55.608231" lon="8.211235">
|
|
<ele>7.596302</ele>
|
|
<time>2026-07-11T14:52:17.000Z</time>
|
|
</trkpt>
|
|
<trkpt lat="55.608252" lon="8.211148">
|
|
<ele>7.636551</ele>
|
|
<time>2026-07-11T14:52:18.000Z</time>
|
|
</trkpt>
|
|
<trkpt lat="55.608275" lon="8.211062">
|
|
<ele>7.677031</ele>
|
|
<time>2026-07-11T14:52:19.000Z</time>
|
|
</trkpt>
|
|
<trkpt lat="55.608298" lon="8.210976">
|
|
<ele>7.717510</ele>
|
|
<time>2026-07-11T14:52:20.000Z</time>
|
|
</trkpt>
|
|
<trkpt lat="55.608319" lon="8.210890">
|
|
<ele>7.757368</ele>
|
|
<time>2026-07-11T14:52:21.000Z</time>
|
|
</trkpt>
|
|
<trkpt lat="55.608341" lon="8.210805">
|
|
<ele>7.797143</ele>
|
|
<time>2026-07-11T14:52:22.000Z</time>
|
|
</trkpt>
|
|
<trkpt lat="55.608366" lon="8.210719">
|
|
<ele>7.838289</ele>
|
|
<time>2026-07-11T14:52:23.000Z</time>
|
|
</trkpt>
|
|
<trkpt lat="55.608391" lon="8.210634">
|
|
<ele>7.879058</ele>
|
|
<time>2026-07-11T14:52:24.000Z</time>
|
|
</trkpt>
|
|
<trkpt lat="55.608418" lon="8.210551">
|
|
<ele>7.919804</ele>
|
|
<time>2026-07-11T14:52:25.000Z</time>
|
|
</trkpt>
|
|
<trkpt lat="55.608444" lon="8.210466">
|
|
<ele>7.960926</ele>
|
|
<time>2026-07-11T14:52:26.000Z</time>
|
|
</trkpt>
|
|
<trkpt lat="55.608473" lon="8.210382">
|
|
<ele>8.002807</ele>
|
|
<time>2026-07-11T14:52:27.000Z</time>
|
|
</trkpt>
|
|
<trkpt lat="55.608502" lon="8.210298">
|
|
<ele>8.044687</ele>
|
|
<time>2026-07-11T14:52:28.000Z</time>
|
|
</trkpt>
|
|
<trkpt lat="55.608528" lon="8.210214">
|
|
<ele>8.085435</ele>
|
|
<time>2026-07-11T14:52:29.000Z</time>
|
|
</trkpt>
|
|
<trkpt lat="55.608557" lon="8.210130">
|
|
<ele>8.127316</ele>
|
|
<time>2026-07-11T14:52:30.000Z</time>
|
|
</trkpt>
|
|
<trkpt lat="55.608587" lon="8.210046">
|
|
<ele>8.169594</ele>
|
|
<time>2026-07-11T14:52:31.000Z</time>
|
|
</trkpt>
|
|
<trkpt lat="55.608616" lon="8.209964">
|
|
<ele>8.210752</ele>
|
|
<time>2026-07-11T14:52:32.000Z</time>
|
|
</trkpt>
|
|
<trkpt lat="55.608645" lon="8.209884">
|
|
<ele>8.251190</ele>
|
|
<time>2026-07-11T14:52:33.000Z</time>
|
|
</trkpt>
|
|
<trkpt lat="55.608673" lon="8.209806">
|
|
<ele>8.290506</ele>
|
|
<time>2026-07-11T14:52:34.000Z</time>
|
|
</trkpt>
|
|
<trkpt lat="55.608700" lon="8.209729">
|
|
<ele>8.329061</ele>
|
|
<time>2026-07-11T14:52:35.000Z</time>
|
|
</trkpt>
|
|
<trkpt lat="55.608727" lon="8.209653">
|
|
<ele>8.367256</ele>
|
|
<time>2026-07-11T14:52:36.000Z</time>
|
|
</trkpt>
|
|
<trkpt lat="55.608755" lon="8.209577">
|
|
<ele>8.405856</ele>
|
|
<time>2026-07-11T14:52:37.000Z</time>
|
|
</trkpt>
|
|
<trkpt lat="55.608784" lon="8.209500">
|
|
<ele>8.445227</ele>
|
|
<time>2026-07-11T14:52:38.000Z</time>
|
|
</trkpt>
|
|
<trkpt lat="55.608811" lon="8.209422">
|
|
<ele>8.484144</ele>
|
|
<time>2026-07-11T14:52:39.000Z</time>
|
|
</trkpt>
|
|
<trkpt lat="55.608839" lon="8.209342">
|
|
<ele>8.524180</ele>
|
|
<time>2026-07-11T14:52:40.000Z</time>
|
|
</trkpt>
|
|
<trkpt lat="55.608868" lon="8.209262">
|
|
<ele>8.564619</ele>
|
|
<time>2026-07-11T14:52:41.000Z</time>
|
|
</trkpt>
|
|
<trkpt lat="55.608896" lon="8.209183">
|
|
<ele>8.604294</ele>
|
|
<time>2026-07-11T14:52:42.000Z</time>
|
|
</trkpt>
|
|
<trkpt lat="55.608925" lon="8.209101">
|
|
<ele>8.610212</ele>
|
|
<time>2026-07-11T14:52:43.000Z</time>
|
|
</trkpt>
|
|
<trkpt lat="55.608953" lon="8.209019">
|
|
<ele>8.601233</ele>
|
|
<time>2026-07-11T14:52:44.000Z</time>
|
|
</trkpt>
|
|
<trkpt lat="55.608984" lon="8.208938">
|
|
<ele>8.592064</ele>
|
|
<time>2026-07-11T14:52:45.000Z</time>
|
|
</trkpt>
|
|
<trkpt lat="55.609015" lon="8.208857">
|
|
<ele>8.582895</ele>
|
|
<time>2026-07-11T14:52:46.000Z</time>
|
|
</trkpt>
|
|
<trkpt lat="55.609045" lon="8.208777">
|
|
<ele>8.573896</ele>
|
|
<time>2026-07-11T14:52:47.000Z</time>
|
|
</trkpt>
|
|
<trkpt lat="55.609074" lon="8.208698">
|
|
<ele>8.565066</ele>
|
|
<time>2026-07-11T14:52:48.000Z</time>
|
|
</trkpt>
|
|
<trkpt lat="55.609101" lon="8.208620">
|
|
<ele>8.556493</ele>
|
|
<time>2026-07-11T14:52:49.000Z</time>
|
|
</trkpt>
|
|
<trkpt lat="55.609129" lon="8.208541">
|
|
<ele>8.547753</ele>
|
|
<time>2026-07-11T14:52:50.000Z</time>
|
|
</trkpt>
|
|
<trkpt lat="55.609158" lon="8.208461">
|
|
<ele>8.538845</ele>
|
|
<time>2026-07-11T14:52:51.000Z</time>
|
|
</trkpt>
|
|
<trkpt lat="55.609186" lon="8.208380">
|
|
<ele>8.529945</ele>
|
|
<time>2026-07-11T14:52:52.000Z</time>
|
|
</trkpt>
|
|
<trkpt lat="55.609217" lon="8.208299">
|
|
<ele>8.520776</ele>
|
|
<time>2026-07-11T14:52:53.000Z</time>
|
|
</trkpt>
|
|
<trkpt lat="55.609247" lon="8.208217">
|
|
<ele>8.511621</ele>
|
|
<time>2026-07-11T14:52:54.000Z</time>
|
|
</trkpt>
|
|
<trkpt lat="55.609278" lon="8.208135">
|
|
<ele>8.502374</ele>
|
|
<time>2026-07-11T14:52:55.000Z</time>
|
|
</trkpt>
|
|
<trkpt lat="55.609307" lon="8.208053">
|
|
<ele>8.493307</ele>
|
|
<time>2026-07-11T14:52:56.000Z</time>
|
|
</trkpt>
|
|
<trkpt lat="55.609335" lon="8.207973">
|
|
<ele>8.484488</ele>
|
|
<time>2026-07-11T14:52:57.000Z</time>
|
|
</trkpt>
|
|
<trkpt lat="55.609364" lon="8.207893">
|
|
<ele>8.475579</ele>
|
|
<time>2026-07-11T14:52:58.000Z</time>
|
|
</trkpt>
|
|
<trkpt lat="55.609391" lon="8.207812">
|
|
<ele>8.466766</ele>
|
|
<time>2026-07-11T14:52:59.000Z</time>
|
|
</trkpt>
|
|
<trkpt lat="55.609415" lon="8.207731">
|
|
<ele>8.458194</ele>
|
|
<time>2026-07-11T14:53:00.000Z</time>
|
|
</trkpt>
|
|
<trkpt lat="55.609438" lon="8.207648">
|
|
<ele>8.449530</ele>
|
|
<time>2026-07-11T14:53:01.000Z</time>
|
|
</trkpt>
|
|
<trkpt lat="55.609463" lon="8.207557">
|
|
<ele>8.440047</ele>
|
|
<time>2026-07-11T14:53:02.000Z</time>
|
|
</trkpt>
|
|
<trkpt lat="55.609484" lon="8.207469">
|
|
<ele>8.431095</ele>
|
|
<time>2026-07-11T14:53:03.000Z</time>
|
|
</trkpt>
|
|
<trkpt lat="55.609505" lon="8.207379">
|
|
<ele>8.421969</ele>
|
|
<time>2026-07-11T14:53:04.000Z</time>
|
|
</trkpt>
|
|
<trkpt lat="55.609523" lon="8.207288">
|
|
<ele>8.412933</ele>
|
|
<time>2026-07-11T14:53:05.000Z</time>
|
|
</trkpt>
|
|
<trkpt lat="55.609538" lon="8.207197">
|
|
<ele>8.404050</ele>
|
|
<time>2026-07-11T14:53:06.000Z</time>
|
|
</trkpt>
|
|
<trkpt lat="55.609553" lon="8.207108">
|
|
<ele>8.395346</ele>
|
|
<time>2026-07-11T14:53:07.000Z</time>
|
|
</trkpt>
|
|
<trkpt lat="55.609569" lon="8.207019">
|
|
<ele>8.386594</ele>
|
|
<time>2026-07-11T14:53:08.000Z</time>
|
|
</trkpt>
|
|
<trkpt lat="55.609585" lon="8.206928">
|
|
<ele>8.377662</ele>
|
|
<time>2026-07-11T14:53:09.000Z</time>
|
|
</trkpt>
|
|
<trkpt lat="55.609603" lon="8.206837">
|
|
<ele>8.368627</ele>
|
|
<time>2026-07-11T14:53:10.000Z</time>
|
|
</trkpt>
|
|
<trkpt lat="55.609620" lon="8.206743">
|
|
<ele>8.359377</ele>
|
|
<time>2026-07-11T14:53:11.000Z</time>
|
|
</trkpt>
|
|
<trkpt lat="55.609637" lon="8.206648">
|
|
<ele>8.350038</ele>
|
|
<time>2026-07-11T14:53:12.000Z</time>
|
|
</trkpt>
|
|
<trkpt lat="55.609653" lon="8.206554">
|
|
<ele>8.340838</ele>
|
|
<time>2026-07-11T14:53:13.000Z</time>
|
|
</trkpt>
|
|
<trkpt lat="55.609668" lon="8.206458">
|
|
<ele>8.331504</ele>
|
|
<time>2026-07-11T14:53:14.000Z</time>
|
|
</trkpt>
|
|
<trkpt lat="55.609683" lon="8.206364">
|
|
<ele>8.322350</ele>
|
|
<time>2026-07-11T14:53:15.000Z</time>
|
|
</trkpt>
|
|
<trkpt lat="55.609700" lon="8.206271">
|
|
<ele>8.312748</ele>
|
|
<time>2026-07-11T14:53:16.000Z</time>
|
|
</trkpt>
|
|
<trkpt lat="55.609719" lon="8.206178">
|
|
<ele>8.302655</ele>
|
|
<time>2026-07-11T14:53:17.000Z</time>
|
|
</trkpt>
|
|
<trkpt lat="55.609736" lon="8.206085">
|
|
<ele>8.292680</ele>
|
|
<time>2026-07-11T14:53:18.000Z</time>
|
|
</trkpt>
|
|
<trkpt lat="55.609752" lon="8.205990">
|
|
<ele>8.282563</ele>
|
|
<time>2026-07-11T14:53:19.000Z</time>
|
|
</trkpt>
|
|
<trkpt lat="55.609767" lon="8.205895">
|
|
<ele>8.272496</ele>
|
|
<time>2026-07-11T14:53:20.000Z</time>
|
|
</trkpt>
|
|
<trkpt lat="55.609782" lon="8.205800">
|
|
<ele>8.262430</ele>
|
|
<time>2026-07-11T14:53:21.000Z</time>
|
|
</trkpt>
|
|
<trkpt lat="55.609799" lon="8.205705">
|
|
<ele>8.252260</ele>
|
|
<time>2026-07-11T14:53:22.000Z</time>
|
|
</trkpt>
|
|
<trkpt lat="55.609817" lon="8.205611">
|
|
<ele>8.242131</ele>
|
|
<time>2026-07-11T14:53:23.000Z</time>
|
|
</trkpt>
|
|
<trkpt lat="55.609833" lon="8.205516">
|
|
<ele>8.232014</ele>
|
|
<time>2026-07-11T14:53:24.000Z</time>
|
|
</trkpt>
|
|
<trkpt lat="55.609851" lon="8.205419">
|
|
<ele>8.221595</ele>
|
|
<time>2026-07-11T14:53:25.000Z</time>
|
|
</trkpt>
|
|
<trkpt lat="55.609868" lon="8.205322">
|
|
<ele>8.211230</ele>
|
|
<time>2026-07-11T14:53:26.000Z</time>
|
|
</trkpt>
|
|
<trkpt lat="55.609885" lon="8.205224">
|
|
<ele>8.200768</ele>
|
|
<time>2026-07-11T14:53:27.000Z</time>
|
|
</trkpt>
|
|
<trkpt lat="55.609900" lon="8.205127">
|
|
<ele>8.190505</ele>
|
|
<time>2026-07-11T14:53:28.000Z</time>
|
|
</trkpt>
|
|
<trkpt lat="55.609917" lon="8.205028">
|
|
<ele>8.179945</ele>
|
|
<time>2026-07-11T14:53:29.000Z</time>
|
|
</trkpt>
|
|
<trkpt lat="55.609935" lon="8.204930">
|
|
<ele>8.169428</ele>
|
|
<time>2026-07-11T14:53:30.000Z</time>
|
|
</trkpt>
|
|
<trkpt lat="55.609950" lon="8.204832">
|
|
<ele>8.159067</ele>
|
|
<time>2026-07-11T14:53:31.000Z</time>
|
|
</trkpt>
|
|
<trkpt lat="55.609967" lon="8.204735">
|
|
<ele>8.148702</ele>
|
|
<time>2026-07-11T14:53:32.000Z</time>
|
|
</trkpt>
|
|
<trkpt lat="55.609984" lon="8.204637">
|
|
<ele>8.138240</ele>
|
|
<time>2026-07-11T14:53:33.000Z</time>
|
|
</trkpt>
|
|
<trkpt lat="55.610000" lon="8.204539">
|
|
<ele>8.127829</ele>
|
|
<time>2026-07-11T14:53:34.000Z</time>
|
|
</trkpt>
|
|
<trkpt lat="55.610015" lon="8.204441">
|
|
<ele>8.117468</ele>
|
|
<time>2026-07-11T14:53:35.000Z</time>
|
|
</trkpt>
|
|
<trkpt lat="55.610032" lon="8.204345">
|
|
<ele>8.107201</ele>
|
|
<time>2026-07-11T14:53:36.000Z</time>
|
|
</trkpt>
|
|
<trkpt lat="55.610049" lon="8.204249">
|
|
<ele>8.096933</ele>
|
|
<time>2026-07-11T14:53:37.000Z</time>
|
|
</trkpt>
|
|
<trkpt lat="55.610066" lon="8.204154">
|
|
<ele>8.086764</ele>
|
|
<time>2026-07-11T14:53:38.000Z</time>
|
|
</trkpt>
|
|
<trkpt lat="55.610084" lon="8.204059">
|
|
<ele>8.076538</ele>
|
|
<time>2026-07-11T14:53:39.000Z</time>
|
|
</trkpt>
|
|
<trkpt lat="55.610101" lon="8.203962">
|
|
<ele>8.066173</ele>
|
|
<time>2026-07-11T14:53:40.000Z</time>
|
|
</trkpt>
|
|
<trkpt lat="55.610118" lon="8.203866">
|
|
<ele>8.055906</ele>
|
|
<time>2026-07-11T14:53:41.000Z</time>
|
|
</trkpt>
|
|
<trkpt lat="55.610133" lon="8.203770">
|
|
<ele>8.045741</ele>
|
|
<time>2026-07-11T14:53:42.000Z</time>
|
|
</trkpt>
|
|
<trkpt lat="55.610150" lon="8.203674">
|
|
<ele>8.035474</ele>
|
|
<time>2026-07-11T14:53:43.000Z</time>
|
|
</trkpt>
|
|
<trkpt lat="55.610168" lon="8.203578">
|
|
<ele>8.025152</ele>
|
|
<time>2026-07-11T14:53:44.000Z</time>
|
|
</trkpt>
|
|
<trkpt lat="55.610183" lon="8.203482">
|
|
<ele>8.014987</ele>
|
|
<time>2026-07-11T14:53:45.000Z</time>
|
|
</trkpt>
|
|
<trkpt lat="55.610200" lon="8.203388">
|
|
<ele>8.004914</ele>
|
|
<time>2026-07-11T14:53:46.000Z</time>
|
|
</trkpt>
|
|
<trkpt lat="55.610217" lon="8.203294">
|
|
<ele>7.994842</ele>
|
|
<time>2026-07-11T14:53:47.000Z</time>
|
|
</trkpt>
|
|
<trkpt lat="55.610232" lon="8.203200">
|
|
<ele>7.985263</ele>
|
|
<time>2026-07-11T14:53:48.000Z</time>
|
|
</trkpt>
|
|
<trkpt lat="55.610249" lon="8.203106">
|
|
<ele>7.975662</ele>
|
|
<time>2026-07-11T14:53:49.000Z</time>
|
|
</trkpt>
|
|
<trkpt lat="55.610267" lon="8.203012">
|
|
<ele>7.966008</ele>
|
|
<time>2026-07-11T14:53:50.000Z</time>
|
|
</trkpt>
|
|
<trkpt lat="55.610282" lon="8.202918">
|
|
<ele>7.956507</ele>
|
|
<time>2026-07-11T14:53:51.000Z</time>
|
|
</trkpt>
|
|
<trkpt lat="55.610297" lon="8.202823">
|
|
<ele>7.946912</ele>
|
|
<time>2026-07-11T14:53:52.000Z</time>
|
|
</trkpt>
|
|
<trkpt lat="55.610314" lon="8.202729">
|
|
<ele>7.937312</ele>
|
|
<time>2026-07-11T14:53:53.000Z</time>
|
|
</trkpt>
|
|
<trkpt lat="55.610331" lon="8.202634">
|
|
<ele>7.927619</ele>
|
|
<time>2026-07-11T14:53:54.000Z</time>
|
|
</trkpt>
|
|
<trkpt lat="55.610347" lon="8.202538">
|
|
<ele>7.917883</ele>
|
|
<time>2026-07-11T14:53:55.000Z</time>
|
|
</trkpt>
|
|
<trkpt lat="55.610364" lon="8.202441">
|
|
<ele>7.908004</ele>
|
|
<time>2026-07-11T14:53:56.000Z</time>
|
|
</trkpt>
|
|
<trkpt lat="55.610381" lon="8.202345">
|
|
<ele>7.898218</ele>
|
|
<time>2026-07-11T14:53:57.000Z</time>
|
|
</trkpt>
|
|
<trkpt lat="55.610398" lon="8.202249">
|
|
<ele>7.888433</ele>
|
|
<time>2026-07-11T14:53:58.000Z</time>
|
|
</trkpt>
|
|
<trkpt lat="55.610415" lon="8.202153">
|
|
<ele>7.878647</ele>
|
|
<time>2026-07-11T14:53:59.000Z</time>
|
|
</trkpt>
|
|
<trkpt lat="55.610432" lon="8.202057">
|
|
<ele>7.868861</ele>
|
|
<time>2026-07-11T14:54:00.000Z</time>
|
|
</trkpt>
|
|
<trkpt lat="55.610450" lon="8.201959">
|
|
<ele>7.858837</ele>
|
|
<time>2026-07-11T14:54:01.000Z</time>
|
|
</trkpt>
|
|
<trkpt lat="55.610465" lon="8.201861">
|
|
<ele>7.848961</ele>
|
|
<time>2026-07-11T14:54:02.000Z</time>
|
|
</trkpt>
|
|
<trkpt lat="55.610482" lon="8.201765">
|
|
<ele>7.839176</ele>
|
|
<time>2026-07-11T14:54:03.000Z</time>
|
|
</trkpt>
|
|
<trkpt lat="55.610499" lon="8.201668">
|
|
<ele>7.829297</ele>
|
|
<time>2026-07-11T14:54:04.000Z</time>
|
|
</trkpt>
|
|
<trkpt lat="55.610515" lon="8.201570">
|
|
<ele>7.819374</ele>
|
|
<time>2026-07-11T14:54:05.000Z</time>
|
|
</trkpt>
|
|
<trkpt lat="55.610532" lon="8.201472">
|
|
<ele>7.809403</ele>
|
|
<time>2026-07-11T14:54:06.000Z</time>
|
|
</trkpt>
|
|
<trkpt lat="55.610551" lon="8.201375">
|
|
<ele>7.799417</ele>
|
|
<time>2026-07-11T14:54:07.000Z</time>
|
|
</trkpt>
|
|
<trkpt lat="55.610568" lon="8.201277">
|
|
<ele>7.789445</ele>
|
|
<time>2026-07-11T14:54:08.000Z</time>
|
|
</trkpt>
|
|
<trkpt lat="55.610583" lon="8.201179">
|
|
<ele>7.779569</ele>
|
|
<time>2026-07-11T14:54:09.000Z</time>
|
|
</trkpt>
|
|
<trkpt lat="55.610600" lon="8.201082">
|
|
<ele>7.769690</ele>
|
|
<time>2026-07-11T14:54:10.000Z</time>
|
|
</trkpt>
|
|
<trkpt lat="55.610619" lon="8.200985">
|
|
<ele>7.759704</ele>
|
|
<time>2026-07-11T14:54:11.000Z</time>
|
|
</trkpt>
|
|
<trkpt lat="55.610637" lon="8.200889">
|
|
<ele>7.749866</ele>
|
|
<time>2026-07-11T14:54:12.000Z</time>
|
|
</trkpt>
|
|
<trkpt lat="55.610652" lon="8.200793">
|
|
<ele>7.740177</ele>
|
|
<time>2026-07-11T14:54:13.000Z</time>
|
|
</trkpt>
|
|
<trkpt lat="55.610667" lon="8.200696">
|
|
<ele>7.730395</ele>
|
|
<time>2026-07-11T14:54:14.000Z</time>
|
|
</trkpt>
|
|
<trkpt lat="55.610684" lon="8.200600">
|
|
<ele>7.720609</ele>
|
|
<time>2026-07-11T14:54:15.000Z</time>
|
|
</trkpt>
|
|
<trkpt lat="55.610702" lon="8.200504">
|
|
<ele>7.710771</ele>
|
|
<time>2026-07-11T14:54:16.000Z</time>
|
|
</trkpt>
|
|
<trkpt lat="55.610718" lon="8.200409">
|
|
<ele>7.701128</ele>
|
|
<time>2026-07-11T14:54:17.000Z</time>
|
|
</trkpt>
|
|
<trkpt lat="55.610736" lon="8.200316">
|
|
<ele>7.691566</ele>
|
|
<time>2026-07-11T14:54:18.000Z</time>
|
|
</trkpt>
|
|
<trkpt lat="55.610753" lon="8.200220">
|
|
<ele>7.682134</ele>
|
|
<time>2026-07-11T14:54:19.000Z</time>
|
|
</trkpt>
|
|
<trkpt lat="55.610770" lon="8.200126">
|
|
<ele>7.674584</ele>
|
|
<time>2026-07-11T14:54:20.000Z</time>
|
|
</trkpt>
|
|
<trkpt lat="55.610786" lon="8.200031">
|
|
<ele>7.667001</ele>
|
|
<time>2026-07-11T14:54:21.000Z</time>
|
|
</trkpt>
|
|
<trkpt lat="55.610802" lon="8.199936">
|
|
<ele>7.659418</ele>
|
|
<time>2026-07-11T14:54:22.000Z</time>
|
|
</trkpt>
|
|
<trkpt lat="55.610820" lon="8.199842">
|
|
<ele>7.651825</ele>
|
|
<time>2026-07-11T14:54:23.000Z</time>
|
|
</trkpt>
|
|
<trkpt lat="55.610835" lon="8.199747">
|
|
<ele>7.644280</ele>
|
|
<time>2026-07-11T14:54:24.000Z</time>
|
|
</trkpt>
|
|
<trkpt lat="55.610852" lon="8.199652">
|
|
<ele>7.636657</ele>
|
|
<time>2026-07-11T14:54:25.000Z</time>
|
|
</trkpt>
|
|
<trkpt lat="55.610869" lon="8.199557">
|
|
<ele>7.629034</ele>
|
|
<time>2026-07-11T14:54:26.000Z</time>
|
|
</trkpt>
|
|
<trkpt lat="55.610885" lon="8.199464">
|
|
<ele>7.621598</ele>
|
|
<time>2026-07-11T14:54:27.000Z</time>
|
|
</trkpt>
|
|
<trkpt lat="55.610900" lon="8.199369">
|
|
<ele>7.614052</ele>
|
|
<time>2026-07-11T14:54:28.000Z</time>
|
|
</trkpt>
|
|
<trkpt lat="55.610917" lon="8.199275">
|
|
<ele>7.606502</ele>
|
|
<time>2026-07-11T14:54:29.000Z</time>
|
|
</trkpt>
|
|
<trkpt lat="55.610934" lon="8.199182">
|
|
<ele>7.599025</ele>
|
|
<time>2026-07-11T14:54:30.000Z</time>
|
|
</trkpt>
|
|
<trkpt lat="55.610950" lon="8.199087">
|
|
<ele>7.591442</ele>
|
|
<time>2026-07-11T14:54:31.000Z</time>
|
|
</trkpt>
|
|
<trkpt lat="55.610965" lon="8.198993">
|
|
<ele>7.583970</ele>
|
|
<time>2026-07-11T14:54:32.000Z</time>
|
|
</trkpt>
|
|
<trkpt lat="55.610980" lon="8.198900">
|
|
<ele>7.576572</ele>
|
|
<time>2026-07-11T14:54:33.000Z</time>
|
|
</trkpt>
|
|
<trkpt lat="55.610997" lon="8.198807">
|
|
<ele>7.569095</ele>
|
|
<time>2026-07-11T14:54:34.000Z</time>
|
|
</trkpt>
|
|
<trkpt lat="55.611014" lon="8.198713">
|
|
<ele>7.561545</ele>
|
|
<time>2026-07-11T14:54:35.000Z</time>
|
|
</trkpt>
|
|
<trkpt lat="55.611030" lon="8.198619">
|
|
<ele>7.554035</ele>
|
|
<time>2026-07-11T14:54:36.000Z</time>
|
|
</trkpt>
|
|
<trkpt lat="55.611045" lon="8.198526">
|
|
<ele>7.546637</ele>
|
|
<time>2026-07-11T14:54:37.000Z</time>
|
|
</trkpt>
|
|
<trkpt lat="55.611062" lon="8.198433">
|
|
<ele>7.539160</ele>
|
|
<time>2026-07-11T14:54:38.000Z</time>
|
|
</trkpt>
|
|
<trkpt lat="55.611079" lon="8.198340">
|
|
<ele>7.531683</ele>
|
|
<time>2026-07-11T14:54:39.000Z</time>
|
|
</trkpt>
|
|
<trkpt lat="55.611094" lon="8.198247">
|
|
<ele>7.524284</ele>
|
|
<time>2026-07-11T14:54:40.000Z</time>
|
|
</trkpt>
|
|
<trkpt lat="55.611110" lon="8.198155">
|
|
<ele>7.516921</ele>
|
|
<time>2026-07-11T14:54:41.000Z</time>
|
|
</trkpt>
|
|
<trkpt lat="55.611127" lon="8.198062">
|
|
<ele>7.509444</ele>
|
|
<time>2026-07-11T14:54:42.000Z</time>
|
|
</trkpt>
|
|
<trkpt lat="55.611144" lon="8.197970">
|
|
<ele>7.502039</ele>
|
|
<time>2026-07-11T14:54:43.000Z</time>
|
|
</trkpt>
|
|
<trkpt lat="55.611161" lon="8.197876">
|
|
<ele>7.494490</ele>
|
|
<time>2026-07-11T14:54:44.000Z</time>
|
|
</trkpt>
|
|
<trkpt lat="55.611178" lon="8.197782">
|
|
<ele>7.486940</ele>
|
|
<time>2026-07-11T14:54:45.000Z</time>
|
|
</trkpt>
|
|
<trkpt lat="55.611194" lon="8.197688">
|
|
<ele>7.479430</ele>
|
|
<time>2026-07-11T14:54:46.000Z</time>
|
|
</trkpt>
|
|
<trkpt lat="55.611209" lon="8.197594">
|
|
<ele>7.471958</ele>
|
|
<time>2026-07-11T14:54:47.000Z</time>
|
|
</trkpt>
|
|
<trkpt lat="55.611226" lon="8.197500">
|
|
<ele>7.464408</ele>
|
|
<time>2026-07-11T14:54:48.000Z</time>
|
|
</trkpt>
|
|
<trkpt lat="55.611243" lon="8.197407">
|
|
<ele>7.456931</ele>
|
|
<time>2026-07-11T14:54:49.000Z</time>
|
|
</trkpt>
|
|
<trkpt lat="55.611258" lon="8.197316">
|
|
<ele>7.449680</ele>
|
|
<time>2026-07-11T14:54:50.000Z</time>
|
|
</trkpt>
|
|
<trkpt lat="55.611274" lon="8.197223">
|
|
<ele>7.442243</ele>
|
|
<time>2026-07-11T14:54:51.000Z</time>
|
|
</trkpt>
|
|
<trkpt lat="55.611291" lon="8.197131">
|
|
<ele>7.422439</ele>
|
|
<time>2026-07-11T14:54:52.000Z</time>
|
|
</trkpt>
|
|
<trkpt lat="55.611308" lon="8.197039">
|
|
<ele>7.396685</ele>
|
|
<time>2026-07-11T14:54:53.000Z</time>
|
|
</trkpt>
|
|
<trkpt lat="55.611322" lon="8.196946">
|
|
<ele>7.371078</ele>
|
|
<time>2026-07-11T14:54:54.000Z</time>
|
|
</trkpt>
|
|
<trkpt lat="55.611335" lon="8.196853">
|
|
<ele>7.345588</ele>
|
|
<time>2026-07-11T14:54:55.000Z</time>
|
|
</trkpt>
|
|
<trkpt lat="55.611352" lon="8.196759">
|
|
<ele>7.319328</ele>
|
|
<time>2026-07-11T14:54:56.000Z</time>
|
|
</trkpt>
|
|
<trkpt lat="55.611369" lon="8.196666">
|
|
<ele>7.293321</ele>
|
|
<time>2026-07-11T14:54:57.000Z</time>
|
|
</trkpt>
|
|
<trkpt lat="55.611386" lon="8.196572">
|
|
<ele>7.267061</ele>
|
|
<time>2026-07-11T14:54:58.000Z</time>
|
|
</trkpt>
|
|
<trkpt lat="55.611403" lon="8.196478">
|
|
<ele>7.240801</ele>
|
|
<time>2026-07-11T14:54:59.000Z</time>
|
|
</trkpt>
|
|
<trkpt lat="55.611419" lon="8.196384">
|
|
<ele>7.214680</ele>
|
|
<time>2026-07-11T14:55:00.000Z</time>
|
|
</trkpt>
|
|
<trkpt lat="55.611436" lon="8.196290">
|
|
<ele>7.188420</ele>
|
|
<time>2026-07-11T14:55:01.000Z</time>
|
|
</trkpt>
|
|
<trkpt lat="55.611453" lon="8.196196">
|
|
<ele>7.162160</ele>
|
|
<time>2026-07-11T14:55:02.000Z</time>
|
|
</trkpt>
|
|
<trkpt lat="55.611468" lon="8.196102">
|
|
<ele>7.136172</ele>
|
|
<time>2026-07-11T14:55:03.000Z</time>
|
|
</trkpt>
|
|
<trkpt lat="55.611484" lon="8.196010">
|
|
<ele>7.110560</ele>
|
|
<time>2026-07-11T14:55:04.000Z</time>
|
|
</trkpt>
|
|
<trkpt lat="55.611499" lon="8.195917">
|
|
<ele>7.084828</ele>
|
|
<time>2026-07-11T14:55:05.000Z</time>
|
|
</trkpt>
|
|
<trkpt lat="55.611514" lon="8.195825">
|
|
<ele>7.059351</ele>
|
|
<time>2026-07-11T14:55:06.000Z</time>
|
|
</trkpt>
|
|
<trkpt lat="55.611531" lon="8.195735">
|
|
<ele>7.034103</ele>
|
|
<time>2026-07-11T14:55:07.000Z</time>
|
|
</trkpt>
|
|
<trkpt lat="55.611547" lon="8.195643">
|
|
<ele>7.008491</ele>
|
|
<time>2026-07-11T14:55:08.000Z</time>
|
|
</trkpt>
|
|
<trkpt lat="55.611560" lon="8.195552">
|
|
<ele>6.983518</ele>
|
|
<time>2026-07-11T14:55:09.000Z</time>
|
|
</trkpt>
|
|
<trkpt lat="55.611575" lon="8.195462">
|
|
<ele>6.958552</ele>
|
|
<time>2026-07-11T14:55:10.000Z</time>
|
|
</trkpt>
|
|
<trkpt lat="55.611592" lon="8.195372">
|
|
<ele>6.933303</ele>
|
|
<time>2026-07-11T14:55:11.000Z</time>
|
|
</trkpt>
|
|
<trkpt lat="55.611609" lon="8.195282">
|
|
<ele>6.908055</ele>
|
|
<time>2026-07-11T14:55:12.000Z</time>
|
|
</trkpt>
|
|
<trkpt lat="55.611625" lon="8.195192">
|
|
<ele>6.882952</ele>
|
|
<time>2026-07-11T14:55:13.000Z</time>
|
|
</trkpt>
|
|
<trkpt lat="55.611640" lon="8.195101">
|
|
<ele>6.857731</ele>
|
|
<time>2026-07-11T14:55:14.000Z</time>
|
|
</trkpt>
|
|
<trkpt lat="55.611655" lon="8.195011">
|
|
<ele>6.832765</ele>
|
|
<time>2026-07-11T14:55:15.000Z</time>
|
|
</trkpt>
|
|
<trkpt lat="55.611670" lon="8.194921">
|
|
<ele>6.807799</ele>
|
|
<time>2026-07-11T14:55:16.000Z</time>
|
|
</trkpt>
|
|
<trkpt lat="55.611687" lon="8.194831">
|
|
<ele>6.782551</ele>
|
|
<time>2026-07-11T14:55:17.000Z</time>
|
|
</trkpt>
|
|
<trkpt lat="55.611705" lon="8.194738">
|
|
<ele>6.756395</ele>
|
|
<time>2026-07-11T14:55:18.000Z</time>
|
|
</trkpt>
|
|
<trkpt lat="55.611720" lon="8.194645">
|
|
<ele>6.730663</ele>
|
|
<time>2026-07-11T14:55:19.000Z</time>
|
|
</trkpt>
|
|
<trkpt lat="55.611737" lon="8.194552">
|
|
<ele>6.704656</ele>
|
|
<time>2026-07-11T14:55:20.000Z</time>
|
|
</trkpt>
|
|
<trkpt lat="55.611754" lon="8.194460">
|
|
<ele>6.678902</ele>
|
|
<time>2026-07-11T14:55:21.000Z</time>
|
|
</trkpt>
|
|
<trkpt lat="55.611770" lon="8.194368">
|
|
<ele>6.653291</ele>
|
|
<time>2026-07-11T14:55:22.000Z</time>
|
|
</trkpt>
|
|
<trkpt lat="55.611785" lon="8.194277">
|
|
<ele>6.628070</ele>
|
|
<time>2026-07-11T14:55:23.000Z</time>
|
|
</trkpt>
|
|
<trkpt lat="55.611800" lon="8.194185">
|
|
<ele>6.602594</ele>
|
|
<time>2026-07-11T14:55:24.000Z</time>
|
|
</trkpt>
|
|
<trkpt lat="55.611815" lon="8.194095">
|
|
<ele>6.588382</ele>
|
|
<time>2026-07-11T14:55:25.000Z</time>
|
|
</trkpt>
|
|
<trkpt lat="55.611832" lon="8.194005">
|
|
<ele>6.581305</ele>
|
|
<time>2026-07-11T14:55:26.000Z</time>
|
|
</trkpt>
|
|
<trkpt lat="55.611850" lon="8.193913">
|
|
<ele>6.574043</ele>
|
|
<time>2026-07-11T14:55:27.000Z</time>
|
|
</trkpt>
|
|
<trkpt lat="55.611865" lon="8.193822">
|
|
<ele>6.566974</ele>
|
|
<time>2026-07-11T14:55:28.000Z</time>
|
|
</trkpt>
|
|
<trkpt lat="55.611880" lon="8.193730">
|
|
<ele>6.559833</ele>
|
|
<time>2026-07-11T14:55:29.000Z</time>
|
|
</trkpt>
|
|
<trkpt lat="55.611896" lon="8.193636">
|
|
<ele>6.552511</ele>
|
|
<time>2026-07-11T14:55:30.000Z</time>
|
|
</trkpt>
|
|
<trkpt lat="55.611911" lon="8.193541">
|
|
<ele>6.545154</ele>
|
|
<time>2026-07-11T14:55:31.000Z</time>
|
|
</trkpt>
|
|
<trkpt lat="55.611926" lon="8.193447">
|
|
<ele>6.537870</ele>
|
|
<time>2026-07-11T14:55:32.000Z</time>
|
|
</trkpt>
|
|
<trkpt lat="55.611941" lon="8.193352">
|
|
<ele>6.530513</ele>
|
|
<time>2026-07-11T14:55:33.000Z</time>
|
|
</trkpt>
|
|
<trkpt lat="55.611957" lon="8.193256">
|
|
<ele>6.523049</ele>
|
|
<time>2026-07-11T14:55:34.000Z</time>
|
|
</trkpt>
|
|
<trkpt lat="55.611972" lon="8.193163">
|
|
<ele>6.515836</ele>
|
|
<time>2026-07-11T14:55:35.000Z</time>
|
|
</trkpt>
|
|
<trkpt lat="55.611989" lon="8.193069">
|
|
<ele>6.508475</ele>
|
|
<time>2026-07-11T14:55:36.000Z</time>
|
|
</trkpt>
|
|
<trkpt lat="55.612006" lon="8.192974">
|
|
<ele>6.501043</ele>
|
|
<time>2026-07-11T14:55:37.000Z</time>
|
|
</trkpt>
|
|
<trkpt lat="55.612021" lon="8.192879">
|
|
<ele>6.493687</ele>
|
|
<time>2026-07-11T14:55:38.000Z</time>
|
|
</trkpt>
|
|
<trkpt lat="55.612037" lon="8.192786">
|
|
<ele>6.486436</ele>
|
|
<time>2026-07-11T14:55:39.000Z</time>
|
|
</trkpt>
|
|
<trkpt lat="55.612054" lon="8.192693">
|
|
<ele>6.479146</ele>
|
|
<time>2026-07-11T14:55:40.000Z</time>
|
|
</trkpt>
|
|
<trkpt lat="55.612071" lon="8.192599">
|
|
<ele>6.471786</ele>
|
|
<time>2026-07-11T14:55:41.000Z</time>
|
|
</trkpt>
|
|
<trkpt lat="55.612086" lon="8.192506">
|
|
<ele>6.464573</ele>
|
|
<time>2026-07-11T14:55:42.000Z</time>
|
|
</trkpt>
|
|
<trkpt lat="55.612103" lon="8.192413">
|
|
<ele>6.457283</ele>
|
|
<time>2026-07-11T14:55:43.000Z</time>
|
|
</trkpt>
|
|
<trkpt lat="55.612120" lon="8.192320">
|
|
<ele>6.449993</ele>
|
|
<time>2026-07-11T14:55:44.000Z</time>
|
|
</trkpt>
|
|
<trkpt lat="55.612137" lon="8.192228">
|
|
<ele>6.442774</ele>
|
|
<time>2026-07-11T14:55:45.000Z</time>
|
|
</trkpt>
|
|
<trkpt lat="55.612155" lon="8.192135">
|
|
<ele>6.435443</ele>
|
|
<time>2026-07-11T14:55:46.000Z</time>
|
|
</trkpt>
|
|
<trkpt lat="55.612170" lon="8.192042">
|
|
<ele>6.428230</ele>
|
|
<time>2026-07-11T14:55:47.000Z</time>
|
|
</trkpt>
|
|
<trkpt lat="55.612187" lon="8.191950">
|
|
<ele>6.421011</ele>
|
|
<time>2026-07-11T14:55:48.000Z</time>
|
|
</trkpt>
|
|
<trkpt lat="55.612203" lon="8.191866">
|
|
<ele>6.414400</ele>
|
|
<time>2026-07-11T14:55:49.000Z</time>
|
|
</trkpt>
|
|
<trkpt lat="55.612217" lon="8.191784">
|
|
<ele>6.408011</ele>
|
|
<time>2026-07-11T14:55:50.000Z</time>
|
|
</trkpt>
|
|
<trkpt lat="55.612234" lon="8.191679">
|
|
<ele>6.399865</ele>
|
|
<time>2026-07-11T14:55:51.000Z</time>
|
|
</trkpt>
|
|
<trkpt lat="55.612250" lon="8.191580">
|
|
<ele>6.392186</ele>
|
|
<time>2026-07-11T14:55:52.000Z</time>
|
|
</trkpt>
|
|
<trkpt lat="55.612267" lon="8.191489">
|
|
<ele>6.385038</ele>
|
|
<time>2026-07-11T14:55:53.000Z</time>
|
|
</trkpt>
|
|
<trkpt lat="55.612284" lon="8.191398">
|
|
<ele>6.377890</ele>
|
|
<time>2026-07-11T14:55:54.000Z</time>
|
|
</trkpt>
|
|
<trkpt lat="55.612298" lon="8.191303">
|
|
<ele>6.370568</ele>
|
|
<time>2026-07-11T14:55:55.000Z</time>
|
|
</trkpt>
|
|
<trkpt lat="55.612311" lon="8.191204">
|
|
<ele>6.362988</ele>
|
|
<time>2026-07-11T14:55:56.000Z</time>
|
|
</trkpt>
|
|
<trkpt lat="55.612328" lon="8.191109">
|
|
<ele>6.355556</ele>
|
|
<time>2026-07-11T14:55:57.000Z</time>
|
|
</trkpt>
|
|
<trkpt lat="55.612347" lon="8.191015">
|
|
<ele>6.366847</ele>
|
|
<time>2026-07-11T14:55:58.000Z</time>
|
|
</trkpt>
|
|
<trkpt lat="55.612365" lon="8.190922">
|
|
<ele>6.379245</ele>
|
|
<time>2026-07-11T14:55:59.000Z</time>
|
|
</trkpt>
|
|
<trkpt lat="55.612381" lon="8.190828">
|
|
<ele>6.391626</ele>
|
|
<time>2026-07-11T14:56:00.000Z</time>
|
|
</trkpt>
|
|
<trkpt lat="55.612399" lon="8.190733">
|
|
<ele>6.404262</ele>
|
|
<time>2026-07-11T14:56:01.000Z</time>
|
|
</trkpt>
|
|
<trkpt lat="55.612414" lon="8.190637">
|
|
<ele>6.416823</ele>
|
|
<time>2026-07-11T14:56:02.000Z</time>
|
|
</trkpt>
|
|
<trkpt lat="55.612429" lon="8.190543">
|
|
<ele>6.429142</ele>
|
|
<time>2026-07-11T14:56:03.000Z</time>
|
|
</trkpt>
|
|
<trkpt lat="55.612446" lon="8.190446">
|
|
<ele>6.441950</ele>
|
|
<time>2026-07-11T14:56:04.000Z</time>
|
|
</trkpt>
|
|
<trkpt lat="55.612464" lon="8.190351">
|
|
<ele>6.454586</ele>
|
|
<time>2026-07-11T14:56:05.000Z</time>
|
|
</trkpt>
|
|
<trkpt lat="55.612479" lon="8.190258">
|
|
<ele>6.466783</ele>
|
|
<time>2026-07-11T14:56:06.000Z</time>
|
|
</trkpt>
|
|
<trkpt lat="55.612496" lon="8.190163">
|
|
<ele>6.479351</ele>
|
|
<time>2026-07-11T14:56:07.000Z</time>
|
|
</trkpt>
|
|
<trkpt lat="55.612513" lon="8.190070">
|
|
<ele>6.491678</ele>
|
|
<time>2026-07-11T14:56:08.000Z</time>
|
|
</trkpt>
|
|
<trkpt lat="55.612529" lon="8.189977">
|
|
<ele>6.503938</ele>
|
|
<time>2026-07-11T14:56:09.000Z</time>
|
|
</trkpt>
|
|
<trkpt lat="55.612545" lon="8.189885">
|
|
<ele>6.516077</ele>
|
|
<time>2026-07-11T14:56:10.000Z</time>
|
|
</trkpt>
|
|
<trkpt lat="55.612563" lon="8.189792">
|
|
<ele>6.528475</ele>
|
|
<time>2026-07-11T14:56:11.000Z</time>
|
|
</trkpt>
|
|
<trkpt lat="55.612578" lon="8.189696">
|
|
<ele>6.541036</ele>
|
|
<time>2026-07-11T14:56:12.000Z</time>
|
|
</trkpt>
|
|
<trkpt lat="55.612594" lon="8.189603">
|
|
<ele>6.553296</ele>
|
|
<time>2026-07-11T14:56:13.000Z</time>
|
|
</trkpt>
|
|
<trkpt lat="55.612610" lon="8.189511">
|
|
<ele>6.565436</ele>
|
|
<time>2026-07-11T14:56:14.000Z</time>
|
|
</trkpt>
|
|
<trkpt lat="55.612628" lon="8.189418">
|
|
<ele>6.577834</ele>
|
|
<time>2026-07-11T14:56:15.000Z</time>
|
|
</trkpt>
|
|
<trkpt lat="55.612643" lon="8.189326">
|
|
<ele>6.589909</ele>
|
|
<time>2026-07-11T14:56:16.000Z</time>
|
|
</trkpt>
|
|
<trkpt lat="55.612658" lon="8.189233">
|
|
<ele>6.602106</ele>
|
|
<time>2026-07-11T14:56:17.000Z</time>
|
|
</trkpt>
|
|
<trkpt lat="55.612674" lon="8.189140">
|
|
<ele>6.614367</ele>
|
|
<time>2026-07-11T14:56:18.000Z</time>
|
|
</trkpt>
|
|
<trkpt lat="55.612690" lon="8.189049">
|
|
<ele>6.626386</ele>
|
|
<time>2026-07-11T14:56:19.000Z</time>
|
|
</trkpt>
|
|
<trkpt lat="55.612707" lon="8.188958">
|
|
<ele>6.638473</ele>
|
|
<time>2026-07-11T14:56:20.000Z</time>
|
|
</trkpt>
|
|
<trkpt lat="55.612723" lon="8.188861">
|
|
<ele>6.651216</ele>
|
|
<time>2026-07-11T14:56:21.000Z</time>
|
|
</trkpt>
|
|
<trkpt lat="55.612740" lon="8.188766">
|
|
<ele>6.663784</ele>
|
|
<time>2026-07-11T14:56:22.000Z</time>
|
|
</trkpt>
|
|
<trkpt lat="55.612757" lon="8.188674">
|
|
<ele>6.675991</ele>
|
|
<time>2026-07-11T14:56:23.000Z</time>
|
|
</trkpt>
|
|
<trkpt lat="55.612772" lon="8.188580">
|
|
<ele>6.688309</ele>
|
|
<time>2026-07-11T14:56:24.000Z</time>
|
|
</trkpt>
|
|
<trkpt lat="55.612788" lon="8.188483">
|
|
<ele>6.701052</ele>
|
|
<time>2026-07-11T14:56:25.000Z</time>
|
|
</trkpt>
|
|
<trkpt lat="55.612803" lon="8.188391">
|
|
<ele>6.713128</ele>
|
|
<time>2026-07-11T14:56:26.000Z</time>
|
|
</trkpt>
|
|
<trkpt lat="55.612820" lon="8.188299">
|
|
<ele>6.725335</ele>
|
|
<time>2026-07-11T14:56:27.000Z</time>
|
|
</trkpt>
|
|
<trkpt lat="55.612838" lon="8.188207">
|
|
<ele>6.737614</ele>
|
|
<time>2026-07-11T14:56:28.000Z</time>
|
|
</trkpt>
|
|
<trkpt lat="55.612853" lon="8.188114">
|
|
<ele>6.749811</ele>
|
|
<time>2026-07-11T14:56:29.000Z</time>
|
|
</trkpt>
|
|
<trkpt lat="55.612868" lon="8.188024">
|
|
<ele>6.752735</ele>
|
|
<time>2026-07-11T14:56:30.000Z</time>
|
|
</trkpt>
|
|
<trkpt lat="55.612884" lon="8.187934">
|
|
<ele>6.743260</ele>
|
|
<time>2026-07-11T14:56:31.000Z</time>
|
|
</trkpt>
|
|
<trkpt lat="55.612904" lon="8.187841">
|
|
<ele>6.733266</ele>
|
|
<time>2026-07-11T14:56:32.000Z</time>
|
|
</trkpt>
|
|
<trkpt lat="55.612923" lon="8.187748">
|
|
<ele>6.723335</ele>
|
|
<time>2026-07-11T14:56:33.000Z</time>
|
|
</trkpt>
|
|
<trkpt lat="55.612942" lon="8.187655">
|
|
<ele>6.713403</ele>
|
|
<time>2026-07-11T14:56:34.000Z</time>
|
|
</trkpt>
|
|
<trkpt lat="55.612961" lon="8.187562">
|
|
<ele>6.703471</ele>
|
|
<time>2026-07-11T14:56:35.000Z</time>
|
|
</trkpt>
|
|
<trkpt lat="55.612980" lon="8.187477">
|
|
<ele>6.694291</ele>
|
|
<time>2026-07-11T14:56:36.000Z</time>
|
|
</trkpt>
|
|
<trkpt lat="55.613002" lon="8.187393">
|
|
<ele>6.684993</ele>
|
|
<time>2026-07-11T14:56:37.000Z</time>
|
|
</trkpt>
|
|
<trkpt lat="55.613026" lon="8.187290">
|
|
<ele>6.673804</ele>
|
|
<time>2026-07-11T14:56:38.000Z</time>
|
|
</trkpt>
|
|
<trkpt lat="55.613047" lon="8.187202">
|
|
<ele>6.664210</ele>
|
|
<time>2026-07-11T14:56:39.000Z</time>
|
|
</trkpt>
|
|
<trkpt lat="55.613071" lon="8.187117">
|
|
<ele>6.654667</ele>
|
|
<time>2026-07-11T14:56:40.000Z</time>
|
|
</trkpt>
|
|
<trkpt lat="55.613098" lon="8.187031">
|
|
<ele>6.644786</ele>
|
|
<time>2026-07-11T14:56:41.000Z</time>
|
|
</trkpt>
|
|
<trkpt lat="55.613123" lon="8.186944">
|
|
<ele>6.634983</ele>
|
|
<time>2026-07-11T14:56:42.000Z</time>
|
|
</trkpt>
|
|
<trkpt lat="55.613148" lon="8.186860">
|
|
<ele>6.625448</ele>
|
|
<time>2026-07-11T14:56:43.000Z</time>
|
|
</trkpt>
|
|
<trkpt lat="55.613173" lon="8.186778">
|
|
<ele>6.616091</ele>
|
|
<time>2026-07-11T14:56:44.000Z</time>
|
|
</trkpt>
|
|
<trkpt lat="55.613197" lon="8.186694">
|
|
<ele>6.606637</ele>
|
|
<time>2026-07-11T14:56:45.000Z</time>
|
|
</trkpt>
|
|
<trkpt lat="55.613223" lon="8.186610">
|
|
<ele>6.597018</ele>
|
|
<time>2026-07-11T14:56:46.000Z</time>
|
|
</trkpt>
|
|
<trkpt lat="55.613247" lon="8.186528">
|
|
<ele>6.587743</ele>
|
|
<time>2026-07-11T14:56:47.000Z</time>
|
|
</trkpt>
|
|
<trkpt lat="55.613274" lon="8.186443">
|
|
<ele>6.577950</ele>
|
|
<time>2026-07-11T14:56:48.000Z</time>
|
|
</trkpt>
|
|
<trkpt lat="55.613299" lon="8.186357">
|
|
<ele>6.568237</ele>
|
|
<time>2026-07-11T14:56:49.000Z</time>
|
|
</trkpt>
|
|
<trkpt lat="55.613323" lon="8.186274">
|
|
<ele>6.558873</ele>
|
|
<time>2026-07-11T14:56:50.000Z</time>
|
|
</trkpt>
|
|
<trkpt lat="55.613350" lon="8.186189">
|
|
<ele>6.549080</ele>
|
|
<time>2026-07-11T14:56:51.000Z</time>
|
|
</trkpt>
|
|
<trkpt lat="55.613377" lon="8.186104">
|
|
<ele>6.539286</ele>
|
|
<time>2026-07-11T14:56:52.000Z</time>
|
|
</trkpt>
|
|
<trkpt lat="55.613402" lon="8.186020">
|
|
<ele>6.529752</ele>
|
|
<time>2026-07-11T14:56:53.000Z</time>
|
|
</trkpt>
|
|
<trkpt lat="55.613426" lon="8.185935">
|
|
<ele>6.520208</ele>
|
|
<time>2026-07-11T14:56:54.000Z</time>
|
|
</trkpt>
|
|
<trkpt lat="55.613453" lon="8.185852">
|
|
<ele>6.510590</ele>
|
|
<time>2026-07-11T14:56:55.000Z</time>
|
|
</trkpt>
|
|
<trkpt lat="55.613478" lon="8.185770">
|
|
<ele>6.501232</ele>
|
|
<time>2026-07-11T14:56:56.000Z</time>
|
|
</trkpt>
|
|
<trkpt lat="55.613503" lon="8.185687">
|
|
<ele>6.491786</ele>
|
|
<time>2026-07-11T14:56:57.000Z</time>
|
|
</trkpt>
|
|
<trkpt lat="55.613529" lon="8.185604">
|
|
<ele>6.482255</ele>
|
|
<time>2026-07-11T14:56:58.000Z</time>
|
|
</trkpt>
|
|
<trkpt lat="55.613554" lon="8.185519">
|
|
<ele>6.472631</ele>
|
|
<time>2026-07-11T14:56:59.000Z</time>
|
|
</trkpt>
|
|
<trkpt lat="55.613577" lon="8.185435">
|
|
<ele>6.463256</ele>
|
|
<time>2026-07-11T14:57:00.000Z</time>
|
|
</trkpt>
|
|
<trkpt lat="55.613602" lon="8.185352">
|
|
<ele>6.453810</ele>
|
|
<time>2026-07-11T14:57:01.000Z</time>
|
|
</trkpt>
|
|
<trkpt lat="55.613627" lon="8.185267">
|
|
<ele>6.444186</ele>
|
|
<time>2026-07-11T14:57:02.000Z</time>
|
|
</trkpt>
|
|
<trkpt lat="55.613652" lon="8.185184">
|
|
<ele>6.435154</ele>
|
|
<time>2026-07-11T14:57:03.000Z</time>
|
|
</trkpt>
|
|
<trkpt lat="55.613678" lon="8.185103">
|
|
<ele>6.427614</ele>
|
|
<time>2026-07-11T14:57:04.000Z</time>
|
|
</trkpt>
|
|
<trkpt lat="55.613703" lon="8.185022">
|
|
<ele>6.420143</ele>
|
|
<time>2026-07-11T14:57:05.000Z</time>
|
|
</trkpt>
|
|
<trkpt lat="55.613728" lon="8.184941">
|
|
<ele>6.412673</ele>
|
|
<time>2026-07-11T14:57:06.000Z</time>
|
|
</trkpt>
|
|
<trkpt lat="55.613753" lon="8.184861">
|
|
<ele>6.405274</ele>
|
|
<time>2026-07-11T14:57:07.000Z</time>
|
|
</trkpt>
|
|
<trkpt lat="55.613776" lon="8.184782">
|
|
<ele>6.398081</ele>
|
|
<time>2026-07-11T14:57:08.000Z</time>
|
|
</trkpt>
|
|
<trkpt lat="55.613800" lon="8.184702">
|
|
<ele>6.390750</ele>
|
|
<time>2026-07-11T14:57:09.000Z</time>
|
|
</trkpt>
|
|
<trkpt lat="55.613825" lon="8.184626">
|
|
<ele>6.383632</ele>
|
|
<time>2026-07-11T14:57:10.000Z</time>
|
|
</trkpt>
|
|
<trkpt lat="55.613849" lon="8.184548">
|
|
<ele>6.376444</ele>
|
|
<time>2026-07-11T14:57:11.000Z</time>
|
|
</trkpt>
|
|
<trkpt lat="55.613875" lon="8.184466">
|
|
<ele>6.368834</ele>
|
|
<time>2026-07-11T14:57:12.000Z</time>
|
|
</trkpt>
|
|
<trkpt lat="55.613898" lon="8.184387">
|
|
<ele>6.361641</ele>
|
|
<time>2026-07-11T14:57:13.000Z</time>
|
|
</trkpt>
|
|
<trkpt lat="55.613921" lon="8.184308">
|
|
<ele>6.354448</ele>
|
|
<time>2026-07-11T14:57:14.000Z</time>
|
|
</trkpt>
|
|
<trkpt lat="55.613945" lon="8.184229">
|
|
<ele>6.347188</ele>
|
|
<time>2026-07-11T14:57:15.000Z</time>
|
|
</trkpt>
|
|
<trkpt lat="55.613970" lon="8.184150">
|
|
<ele>6.339860</ele>
|
|
<time>2026-07-11T14:57:16.000Z</time>
|
|
</trkpt>
|
|
<trkpt lat="55.613995" lon="8.184069">
|
|
<ele>6.332390</ele>
|
|
<time>2026-07-11T14:57:17.000Z</time>
|
|
</trkpt>
|
|
<trkpt lat="55.614022" lon="8.183988">
|
|
<ele>6.324778</ele>
|
|
<time>2026-07-11T14:57:18.000Z</time>
|
|
</trkpt>
|
|
<trkpt lat="55.614047" lon="8.183906">
|
|
<ele>6.317237</ele>
|
|
<time>2026-07-11T14:57:19.000Z</time>
|
|
</trkpt>
|
|
<trkpt lat="55.614071" lon="8.183825">
|
|
<ele>6.309834</ele>
|
|
<time>2026-07-11T14:57:20.000Z</time>
|
|
</trkpt>
|
|
<trkpt lat="55.614096" lon="8.183744">
|
|
<ele>6.302364</ele>
|
|
<time>2026-07-11T14:57:21.000Z</time>
|
|
</trkpt>
|
|
<trkpt lat="55.614119" lon="8.183662">
|
|
<ele>6.294955</ele>
|
|
<time>2026-07-11T14:57:22.000Z</time>
|
|
</trkpt>
|
|
<trkpt lat="55.614142" lon="8.183583">
|
|
<ele>6.287762</ele>
|
|
<time>2026-07-11T14:57:23.000Z</time>
|
|
</trkpt>
|
|
<trkpt lat="55.614166" lon="8.183504">
|
|
<ele>6.280502</ele>
|
|
<time>2026-07-11T14:57:24.000Z</time>
|
|
</trkpt>
|
|
<trkpt lat="55.614191" lon="8.183425">
|
|
<ele>6.273174</ele>
|
|
<time>2026-07-11T14:57:25.000Z</time>
|
|
</trkpt>
|
|
<trkpt lat="55.614216" lon="8.183346">
|
|
<ele>6.265845</ele>
|
|
<time>2026-07-11T14:57:26.000Z</time>
|
|
</trkpt>
|
|
<trkpt lat="55.614241" lon="8.183267">
|
|
<ele>6.258517</ele>
|
|
<time>2026-07-11T14:57:27.000Z</time>
|
|
</trkpt>
|
|
<trkpt lat="55.614264" lon="8.183189">
|
|
<ele>6.251396</ele>
|
|
<time>2026-07-11T14:57:28.000Z</time>
|
|
</trkpt>
|
|
<trkpt lat="55.614287" lon="8.183110">
|
|
<ele>6.244203</ele>
|
|
<time>2026-07-11T14:57:29.000Z</time>
|
|
</trkpt>
|
|
<trkpt lat="55.614309" lon="8.183035">
|
|
<ele>6.237364</ele>
|
|
<time>2026-07-11T14:57:30.000Z</time>
|
|
</trkpt>
|
|
<trkpt lat="55.614331" lon="8.182958">
|
|
<ele>6.230380</ele>
|
|
<time>2026-07-11T14:57:31.000Z</time>
|
|
</trkpt>
|
|
<trkpt lat="55.614357" lon="8.182875">
|
|
<ele>6.222699</ele>
|
|
<time>2026-07-11T14:57:32.000Z</time>
|
|
</trkpt>
|
|
<trkpt lat="55.614382" lon="8.182796">
|
|
<ele>6.215371</ele>
|
|
<time>2026-07-11T14:57:33.000Z</time>
|
|
</trkpt>
|
|
<trkpt lat="55.614405" lon="8.182718">
|
|
<ele>6.208250</ele>
|
|
<time>2026-07-11T14:57:34.000Z</time>
|
|
</trkpt>
|
|
<trkpt lat="55.614430" lon="8.182639">
|
|
<ele>6.200922</ele>
|
|
<time>2026-07-11T14:57:35.000Z</time>
|
|
</trkpt>
|
|
<trkpt lat="55.614455" lon="8.182558">
|
|
<ele>6.193451</ele>
|
|
<time>2026-07-11T14:57:36.000Z</time>
|
|
</trkpt>
|
|
<trkpt lat="55.614477" lon="8.182476">
|
|
<ele>6.186105</ele>
|
|
<time>2026-07-11T14:57:37.000Z</time>
|
|
</trkpt>
|
|
<trkpt lat="55.614502" lon="8.182393">
|
|
<ele>6.179168</ele>
|
|
<time>2026-07-11T14:57:38.000Z</time>
|
|
</trkpt>
|
|
<trkpt lat="55.614527" lon="8.182310">
|
|
<ele>6.179548</ele>
|
|
<time>2026-07-11T14:57:39.000Z</time>
|
|
</trkpt>
|
|
<trkpt lat="55.614551" lon="8.182229">
|
|
<ele>6.179918</ele>
|
|
<time>2026-07-11T14:57:40.000Z</time>
|
|
</trkpt>
|
|
<trkpt lat="55.614578" lon="8.182148">
|
|
<ele>6.180299</ele>
|
|
<time>2026-07-11T14:57:41.000Z</time>
|
|
</trkpt>
|
|
<trkpt lat="55.614605" lon="8.182065">
|
|
<ele>6.180686</ele>
|
|
<time>2026-07-11T14:57:42.000Z</time>
|
|
</trkpt>
|
|
<trkpt lat="55.614630" lon="8.181983">
|
|
<ele>6.181063</ele>
|
|
<time>2026-07-11T14:57:43.000Z</time>
|
|
</trkpt>
|
|
<trkpt lat="55.614653" lon="8.181900">
|
|
<ele>6.181437</ele>
|
|
<time>2026-07-11T14:57:44.000Z</time>
|
|
</trkpt>
|
|
<trkpt lat="55.614676" lon="8.181817">
|
|
<ele>6.181811</ele>
|
|
<time>2026-07-11T14:57:45.000Z</time>
|
|
</trkpt>
|
|
<trkpt lat="55.614700" lon="8.181737">
|
|
<ele>6.182178</ele>
|
|
<time>2026-07-11T14:57:46.000Z</time>
|
|
</trkpt>
|
|
<trkpt lat="55.614725" lon="8.181659">
|
|
<ele>6.182541</ele>
|
|
<time>2026-07-11T14:57:47.000Z</time>
|
|
</trkpt>
|
|
<trkpt lat="55.614750" lon="8.181579">
|
|
<ele>6.182911</ele>
|
|
<time>2026-07-11T14:57:48.000Z</time>
|
|
</trkpt>
|
|
<trkpt lat="55.614777" lon="8.181500">
|
|
<ele>6.183284</ele>
|
|
<time>2026-07-11T14:57:49.000Z</time>
|
|
</trkpt>
|
|
<trkpt lat="55.614801" lon="8.181421">
|
|
<ele>6.183647</ele>
|
|
<time>2026-07-11T14:57:50.000Z</time>
|
|
</trkpt>
|
|
<trkpt lat="55.614826" lon="8.181341">
|
|
<ele>6.184017</ele>
|
|
<time>2026-07-11T14:57:51.000Z</time>
|
|
</trkpt>
|
|
<trkpt lat="55.614853" lon="8.181258">
|
|
<ele>6.184404</ele>
|
|
<time>2026-07-11T14:57:52.000Z</time>
|
|
</trkpt>
|
|
<trkpt lat="55.614880" lon="8.181174">
|
|
<ele>6.184795</ele>
|
|
<time>2026-07-11T14:57:53.000Z</time>
|
|
</trkpt>
|
|
<trkpt lat="55.614906" lon="8.181092">
|
|
<ele>6.185176</ele>
|
|
<time>2026-07-11T14:57:54.000Z</time>
|
|
</trkpt>
|
|
<trkpt lat="55.614932" lon="8.181009">
|
|
<ele>6.185560</ele>
|
|
<time>2026-07-11T14:57:55.000Z</time>
|
|
</trkpt>
|
|
<trkpt lat="55.614958" lon="8.180921">
|
|
<ele>6.185961</ele>
|
|
<time>2026-07-11T14:57:56.000Z</time>
|
|
</trkpt>
|
|
<trkpt lat="55.614983" lon="8.180835">
|
|
<ele>6.186353</ele>
|
|
<time>2026-07-11T14:57:57.000Z</time>
|
|
</trkpt>
|
|
<trkpt lat="55.615009" lon="8.180748">
|
|
<ele>6.186751</ele>
|
|
<time>2026-07-11T14:57:58.000Z</time>
|
|
</trkpt>
|
|
<trkpt lat="55.615036" lon="8.180661">
|
|
<ele>6.187153</ele>
|
|
<time>2026-07-11T14:57:59.000Z</time>
|
|
</trkpt>
|
|
<trkpt lat="55.615063" lon="8.180575">
|
|
<ele>6.187551</ele>
|
|
<time>2026-07-11T14:58:00.000Z</time>
|
|
</trkpt>
|
|
<trkpt lat="55.615089" lon="8.180488">
|
|
<ele>6.187949</ele>
|
|
<time>2026-07-11T14:58:01.000Z</time>
|
|
</trkpt>
|
|
<trkpt lat="55.615116" lon="8.180400">
|
|
<ele>6.188354</ele>
|
|
<time>2026-07-11T14:58:02.000Z</time>
|
|
</trkpt>
|
|
<trkpt lat="55.615142" lon="8.180312">
|
|
<ele>6.188756</ele>
|
|
<time>2026-07-11T14:58:03.000Z</time>
|
|
</trkpt>
|
|
<trkpt lat="55.615169" lon="8.180220">
|
|
<ele>6.189175</ele>
|
|
<time>2026-07-11T14:58:04.000Z</time>
|
|
</trkpt>
|
|
<trkpt lat="55.615196" lon="8.180128">
|
|
<ele>6.189594</ele>
|
|
<time>2026-07-11T14:58:05.000Z</time>
|
|
</trkpt>
|
|
<trkpt lat="55.615223" lon="8.180040">
|
|
<ele>6.190000</ele>
|
|
<time>2026-07-11T14:58:06.000Z</time>
|
|
</trkpt>
|
|
<trkpt lat="55.615250" lon="8.179952">
|
|
<ele>6.190405</ele>
|
|
<time>2026-07-11T14:58:07.000Z</time>
|
|
</trkpt>
|
|
<trkpt lat="55.615276" lon="8.179865">
|
|
<ele>6.190803</ele>
|
|
<time>2026-07-11T14:58:08.000Z</time>
|
|
</trkpt>
|
|
<trkpt lat="55.615303" lon="8.179777">
|
|
<ele>6.191208</ele>
|
|
<time>2026-07-11T14:58:09.000Z</time>
|
|
</trkpt>
|
|
<trkpt lat="55.615330" lon="8.179689">
|
|
<ele>6.191613</ele>
|
|
<time>2026-07-11T14:58:10.000Z</time>
|
|
</trkpt>
|
|
<trkpt lat="55.615356" lon="8.179602">
|
|
<ele>6.192011</ele>
|
|
<time>2026-07-11T14:58:11.000Z</time>
|
|
</trkpt>
|
|
<trkpt lat="55.615383" lon="8.179515">
|
|
<ele>6.202945</ele>
|
|
<time>2026-07-11T14:58:12.000Z</time>
|
|
</trkpt>
|
|
<trkpt lat="55.615410" lon="8.179430">
|
|
<ele>6.213899</ele>
|
|
<time>2026-07-11T14:58:13.000Z</time>
|
|
</trkpt>
|
|
<trkpt lat="55.615437" lon="8.179345">
|
|
<ele>6.224853</ele>
|
|
<time>2026-07-11T14:58:14.000Z</time>
|
|
</trkpt>
|
|
<trkpt lat="55.615464" lon="8.179261">
|
|
<ele>6.235710</ele>
|
|
<time>2026-07-11T14:58:15.000Z</time>
|
|
</trkpt>
|
|
<trkpt lat="55.615489" lon="8.179176">
|
|
<ele>6.246474</ele>
|
|
<time>2026-07-11T14:58:16.000Z</time>
|
|
</trkpt>
|
|
<trkpt lat="55.615513" lon="8.179094">
|
|
<ele>6.256848</ele>
|
|
<time>2026-07-11T14:58:17.000Z</time>
|
|
</trkpt>
|
|
<trkpt lat="55.615540" lon="8.179011">
|
|
<ele>6.267607</ele>
|
|
<time>2026-07-11T14:58:18.000Z</time>
|
|
</trkpt>
|
|
<trkpt lat="55.615565" lon="8.178928">
|
|
<ele>6.278173</ele>
|
|
<time>2026-07-11T14:58:19.000Z</time>
|
|
</trkpt>
|
|
<trkpt lat="55.615587" lon="8.178846">
|
|
<ele>6.288370</ele>
|
|
<time>2026-07-11T14:58:20.000Z</time>
|
|
</trkpt>
|
|
<trkpt lat="55.615612" lon="8.178764">
|
|
<ele>6.298837</ele>
|
|
<time>2026-07-11T14:58:21.000Z</time>
|
|
</trkpt>
|
|
<trkpt lat="55.615637" lon="8.178680">
|
|
<ele>6.309502</ele>
|
|
<time>2026-07-11T14:58:22.000Z</time>
|
|
</trkpt>
|
|
<trkpt lat="55.615662" lon="8.178599">
|
|
<ele>6.319871</ele>
|
|
<time>2026-07-11T14:58:23.000Z</time>
|
|
</trkpt>
|
|
<trkpt lat="55.615688" lon="8.178517">
|
|
<ele>6.330434</ele>
|
|
<time>2026-07-11T14:58:24.000Z</time>
|
|
</trkpt>
|
|
<trkpt lat="55.615713" lon="8.178438">
|
|
<ele>6.340605</ele>
|
|
<time>2026-07-11T14:58:25.000Z</time>
|
|
</trkpt>
|
|
<trkpt lat="55.615737" lon="8.178359">
|
|
<ele>6.350681</ele>
|
|
<time>2026-07-11T14:58:26.000Z</time>
|
|
</trkpt>
|
|
<trkpt lat="55.615764" lon="8.178276">
|
|
<ele>6.361440</ele>
|
|
<time>2026-07-11T14:58:27.000Z</time>
|
|
</trkpt>
|
|
<trkpt lat="55.615790" lon="8.178193">
|
|
<ele>6.372101</ele>
|
|
<time>2026-07-11T14:58:28.000Z</time>
|
|
</trkpt>
|
|
<trkpt lat="55.615814" lon="8.178113">
|
|
<ele>6.382276</ele>
|
|
<time>2026-07-11T14:58:29.000Z</time>
|
|
</trkpt>
|
|
<trkpt lat="55.615839" lon="8.178033">
|
|
<ele>6.392546</ele>
|
|
<time>2026-07-11T14:58:30.000Z</time>
|
|
</trkpt>
|
|
<trkpt lat="55.615863" lon="8.177952">
|
|
<ele>6.402820</ele>
|
|
<time>2026-07-11T14:58:31.000Z</time>
|
|
</trkpt>
|
|
<trkpt lat="55.615891" lon="8.177867">
|
|
<ele>6.413873</ele>
|
|
<time>2026-07-11T14:58:32.000Z</time>
|
|
</trkpt>
|
|
<trkpt lat="55.615916" lon="8.177784">
|
|
<ele>6.424439</ele>
|
|
<time>2026-07-11T14:58:33.000Z</time>
|
|
</trkpt>
|
|
<trkpt lat="55.615940" lon="8.177700">
|
|
<ele>6.435013</ele>
|
|
<time>2026-07-11T14:58:34.000Z</time>
|
|
</trkpt>
|
|
<trkpt lat="55.615967" lon="8.177614">
|
|
<ele>6.446065</ele>
|
|
<time>2026-07-11T14:58:35.000Z</time>
|
|
</trkpt>
|
|
<trkpt lat="55.615993" lon="8.177530">
|
|
<ele>6.456824</ele>
|
|
<time>2026-07-11T14:58:36.000Z</time>
|
|
</trkpt>
|
|
<trkpt lat="55.616020" lon="8.177446">
|
|
<ele>6.467680</ele>
|
|
<time>2026-07-11T14:58:37.000Z</time>
|
|
</trkpt>
|
|
<trkpt lat="55.616045" lon="8.177361">
|
|
<ele>6.478445</ele>
|
|
<time>2026-07-11T14:58:38.000Z</time>
|
|
</trkpt>
|
|
<trkpt lat="55.616070" lon="8.177276">
|
|
<ele>6.489210</ele>
|
|
<time>2026-07-11T14:58:39.000Z</time>
|
|
</trkpt>
|
|
<trkpt lat="55.616095" lon="8.177194">
|
|
<ele>6.499676</ele>
|
|
<time>2026-07-11T14:58:40.000Z</time>
|
|
</trkpt>
|
|
<trkpt lat="55.616119" lon="8.177115">
|
|
<ele>6.509752</ele>
|
|
<time>2026-07-11T14:58:41.000Z</time>
|
|
</trkpt>
|
|
<trkpt lat="55.616143" lon="8.177035">
|
|
<ele>6.519927</ele>
|
|
<time>2026-07-11T14:58:42.000Z</time>
|
|
</trkpt>
|
|
<trkpt lat="55.616165" lon="8.176956">
|
|
<ele>6.529821</ele>
|
|
<time>2026-07-11T14:58:43.000Z</time>
|
|
</trkpt>
|
|
<trkpt lat="55.616190" lon="8.176878">
|
|
<ele>6.539895</ele>
|
|
<time>2026-07-11T14:58:44.000Z</time>
|
|
</trkpt>
|
|
<trkpt lat="55.616214" lon="8.176799">
|
|
<ele>6.549621</ele>
|
|
<time>2026-07-11T14:58:45.000Z</time>
|
|
</trkpt>
|
|
<trkpt lat="55.616240" lon="8.176719">
|
|
<ele>6.543030</ele>
|
|
<time>2026-07-11T14:58:46.000Z</time>
|
|
</trkpt>
|
|
<trkpt lat="55.616264" lon="8.176640">
|
|
<ele>6.536625</ele>
|
|
<time>2026-07-11T14:58:47.000Z</time>
|
|
</trkpt>
|
|
<trkpt lat="55.616293" lon="8.176566">
|
|
<ele>6.530193</ele>
|
|
<time>2026-07-11T14:58:48.000Z</time>
|
|
</trkpt>
|
|
<trkpt lat="55.616323" lon="8.176494">
|
|
<ele>6.523804</ele>
|
|
<time>2026-07-11T14:58:49.000Z</time>
|
|
</trkpt>
|
|
<trkpt lat="55.616355" lon="8.176421">
|
|
<ele>6.517205</ele>
|
|
<time>2026-07-11T14:58:50.000Z</time>
|
|
</trkpt>
|
|
<trkpt lat="55.616386" lon="8.176344">
|
|
<ele>6.510453</ele>
|
|
<time>2026-07-11T14:58:51.000Z</time>
|
|
</trkpt>
|
|
<trkpt lat="55.616412" lon="8.176263">
|
|
<ele>6.503800</ele>
|
|
<time>2026-07-11T14:58:52.000Z</time>
|
|
</trkpt>
|
|
<trkpt lat="55.616434" lon="8.176181">
|
|
<ele>6.497318</ele>
|
|
<time>2026-07-11T14:58:53.000Z</time>
|
|
</trkpt>
|
|
<trkpt lat="55.616457" lon="8.176098">
|
|
<ele>6.490716</ele>
|
|
<time>2026-07-11T14:58:54.000Z</time>
|
|
</trkpt>
|
|
<trkpt lat="55.616480" lon="8.176019">
|
|
<ele>6.484369</ele>
|
|
<time>2026-07-11T14:58:55.000Z</time>
|
|
</trkpt>
|
|
<trkpt lat="55.616505" lon="8.175943">
|
|
<ele>6.478089</ele>
|
|
<time>2026-07-11T14:58:56.000Z</time>
|
|
</trkpt>
|
|
<trkpt lat="55.616531" lon="8.175869">
|
|
<ele>6.471866</ele>
|
|
<time>2026-07-11T14:58:57.000Z</time>
|
|
</trkpt>
|
|
<trkpt lat="55.616558" lon="8.175790">
|
|
<ele>6.465272</ele>
|
|
<time>2026-07-11T14:58:58.000Z</time>
|
|
</trkpt>
|
|
<trkpt lat="55.616583" lon="8.175705">
|
|
<ele>6.458429</ele>
|
|
<time>2026-07-11T14:58:59.000Z</time>
|
|
</trkpt>
|
|
<trkpt lat="55.616606" lon="8.175619">
|
|
<ele>6.451634</ele>
|
|
<time>2026-07-11T14:59:00.000Z</time>
|
|
</trkpt>
|
|
<trkpt lat="55.616629" lon="8.175531">
|
|
<ele>6.444710</ele>
|
|
<time>2026-07-11T14:59:01.000Z</time>
|
|
</trkpt>
|
|
<trkpt lat="55.616653" lon="8.175438">
|
|
<ele>6.437409</ele>
|
|
<time>2026-07-11T14:59:02.000Z</time>
|
|
</trkpt>
|
|
<trkpt lat="55.616680" lon="8.175347">
|
|
<ele>6.430069</ele>
|
|
<time>2026-07-11T14:59:03.000Z</time>
|
|
</trkpt>
|
|
<trkpt lat="55.616705" lon="8.175257">
|
|
<ele>6.422907</ele>
|
|
<time>2026-07-11T14:59:04.000Z</time>
|
|
</trkpt>
|
|
<trkpt lat="55.616728" lon="8.175167">
|
|
<ele>6.415853</ele>
|
|
<time>2026-07-11T14:59:05.000Z</time>
|
|
</trkpt>
|
|
<trkpt lat="55.616749" lon="8.175077">
|
|
<ele>6.408900</ele>
|
|
<time>2026-07-11T14:59:06.000Z</time>
|
|
</trkpt>
|
|
<trkpt lat="55.616770" lon="8.174988">
|
|
<ele>6.402012</ele>
|
|
<time>2026-07-11T14:59:07.000Z</time>
|
|
</trkpt>
|
|
<trkpt lat="55.616791" lon="8.174898">
|
|
<ele>6.395059</ele>
|
|
<time>2026-07-11T14:59:08.000Z</time>
|
|
</trkpt>
|
|
<trkpt lat="55.616812" lon="8.174809">
|
|
<ele>6.388172</ele>
|
|
<time>2026-07-11T14:59:09.000Z</time>
|
|
</trkpt>
|
|
<trkpt lat="55.616833" lon="8.174721">
|
|
<ele>6.381350</ele>
|
|
<time>2026-07-11T14:59:10.000Z</time>
|
|
</trkpt>
|
|
<trkpt lat="55.616850" lon="8.174633">
|
|
<ele>6.374709</ele>
|
|
<time>2026-07-11T14:59:11.000Z</time>
|
|
</trkpt>
|
|
<trkpt lat="55.616868" lon="8.174547">
|
|
<ele>6.368160</ele>
|
|
<time>2026-07-11T14:59:12.000Z</time>
|
|
</trkpt>
|
|
<trkpt lat="55.616885" lon="8.174462">
|
|
<ele>6.361721</ele>
|
|
<time>2026-07-11T14:59:13.000Z</time>
|
|
</trkpt>
|
|
<trkpt lat="55.616902" lon="8.174374">
|
|
<ele>6.355080</ele>
|
|
<time>2026-07-11T14:59:14.000Z</time>
|
|
</trkpt>
|
|
<trkpt lat="55.616921" lon="8.174284">
|
|
<ele>6.348219</ele>
|
|
<time>2026-07-11T14:59:15.000Z</time>
|
|
</trkpt>
|
|
<trkpt lat="55.616940" lon="8.174195">
|
|
<ele>6.341425</ele>
|
|
<time>2026-07-11T14:59:16.000Z</time>
|
|
</trkpt>
|
|
<trkpt lat="55.616957" lon="8.174104">
|
|
<ele>6.334581</ele>
|
|
<time>2026-07-11T14:59:17.000Z</time>
|
|
</trkpt>
|
|
<trkpt lat="55.616974" lon="8.174013">
|
|
<ele>6.327737</ele>
|
|
<time>2026-07-11T14:59:18.000Z</time>
|
|
</trkpt>
|
|
<trkpt lat="55.616992" lon="8.173923">
|
|
<ele>6.318806</ele>
|
|
<time>2026-07-11T14:59:19.000Z</time>
|
|
</trkpt>
|
|
<trkpt lat="55.617007" lon="8.173833">
|
|
<ele>6.302088</ele>
|
|
<time>2026-07-11T14:59:20.000Z</time>
|
|
</trkpt>
|
|
<trkpt lat="55.617024" lon="8.173745">
|
|
<ele>6.285519</ele>
|
|
<time>2026-07-11T14:59:21.000Z</time>
|
|
</trkpt>
|
|
<trkpt lat="55.617041" lon="8.173656">
|
|
<ele>6.268781</ele>
|
|
<time>2026-07-11T14:59:22.000Z</time>
|
|
</trkpt>
|
|
<trkpt lat="55.617057" lon="8.173570">
|
|
<ele>6.252649</ele>
|
|
<time>2026-07-11T14:59:23.000Z</time>
|
|
</trkpt>
|
|
<trkpt lat="55.617074" lon="8.173485">
|
|
<ele>6.236584</ele>
|
|
<time>2026-07-11T14:59:24.000Z</time>
|
|
</trkpt>
|
|
<trkpt lat="55.617091" lon="8.173404">
|
|
<ele>6.221190</ele>
|
|
<time>2026-07-11T14:59:25.000Z</time>
|
|
</trkpt>
|
|
<trkpt lat="55.617106" lon="8.173322">
|
|
<ele>6.205834</ele>
|
|
<time>2026-07-11T14:59:26.000Z</time>
|
|
</trkpt>
|
|
<trkpt lat="55.617121" lon="8.173240">
|
|
<ele>6.190478</ele>
|
|
<time>2026-07-11T14:59:27.000Z</time>
|
|
</trkpt>
|
|
<trkpt lat="55.617137" lon="8.173156">
|
|
<ele>6.174684</ele>
|
|
<time>2026-07-11T14:59:28.000Z</time>
|
|
</trkpt>
|
|
<trkpt lat="55.617154" lon="8.173068">
|
|
<ele>6.158115</ele>
|
|
<time>2026-07-11T14:59:29.000Z</time>
|
|
</trkpt>
|
|
<trkpt lat="55.617171" lon="8.172981">
|
|
<ele>6.141714</ele>
|
|
<time>2026-07-11T14:59:30.000Z</time>
|
|
</trkpt>
|
|
<trkpt lat="55.617188" lon="8.172893">
|
|
<ele>6.125144</ele>
|
|
<time>2026-07-11T14:59:31.000Z</time>
|
|
</trkpt>
|
|
<trkpt lat="55.617207" lon="8.172803">
|
|
<ele>6.108027</ele>
|
|
<time>2026-07-11T14:59:32.000Z</time>
|
|
</trkpt>
|
|
<trkpt lat="55.617225" lon="8.172719">
|
|
<ele>6.092021</ele>
|
|
<time>2026-07-11T14:59:33.000Z</time>
|
|
</trkpt>
|
|
<trkpt lat="55.617243" lon="8.172633">
|
|
<ele>6.075681</ele>
|
|
<time>2026-07-11T14:59:34.000Z</time>
|
|
</trkpt>
|
|
<trkpt lat="55.617264" lon="8.172543">
|
|
<ele>6.058332</ele>
|
|
<time>2026-07-11T14:59:35.000Z</time>
|
|
</trkpt>
|
|
<trkpt lat="55.617283" lon="8.172456">
|
|
<ele>6.041714</ele>
|
|
<time>2026-07-11T14:59:36.000Z</time>
|
|
</trkpt>
|
|
<trkpt lat="55.617302" lon="8.172369">
|
|
<ele>6.025096</ele>
|
|
<time>2026-07-11T14:59:37.000Z</time>
|
|
</trkpt>
|
|
<trkpt lat="55.617321" lon="8.172282">
|
|
<ele>6.008478</ele>
|
|
<time>2026-07-11T14:59:38.000Z</time>
|
|
</trkpt>
|
|
<trkpt lat="55.617340" lon="8.172193">
|
|
<ele>5.991528</ele>
|
|
<time>2026-07-11T14:59:39.000Z</time>
|
|
</trkpt>
|
|
<trkpt lat="55.617361" lon="8.172102">
|
|
<ele>5.974014</ele>
|
|
<time>2026-07-11T14:59:40.000Z</time>
|
|
</trkpt>
|
|
<trkpt lat="55.617382" lon="8.172009">
|
|
<ele>5.956171</ele>
|
|
<time>2026-07-11T14:59:41.000Z</time>
|
|
</trkpt>
|
|
<trkpt lat="55.617403" lon="8.171913">
|
|
<ele>5.937830</ele>
|
|
<time>2026-07-11T14:59:42.000Z</time>
|
|
</trkpt>
|
|
<trkpt lat="55.617426" lon="8.171816">
|
|
<ele>5.919087</ele>
|
|
<time>2026-07-11T14:59:43.000Z</time>
|
|
</trkpt>
|
|
<trkpt lat="55.617447" lon="8.171720">
|
|
<ele>5.900746</ele>
|
|
<time>2026-07-11T14:59:44.000Z</time>
|
|
</trkpt>
|
|
<trkpt lat="55.617465" lon="8.171623">
|
|
<ele>5.882556</ele>
|
|
<time>2026-07-11T14:59:45.000Z</time>
|
|
</trkpt>
|
|
<trkpt lat="55.617483" lon="8.171529">
|
|
<ele>5.864874</ele>
|
|
<time>2026-07-11T14:59:46.000Z</time>
|
|
</trkpt>
|
|
<trkpt lat="55.617503" lon="8.171434">
|
|
<ele>5.846811</ele>
|
|
<time>2026-07-11T14:59:47.000Z</time>
|
|
</trkpt>
|
|
<trkpt lat="55.617521" lon="8.171336">
|
|
<ele>5.828452</ele>
|
|
<time>2026-07-11T14:59:48.000Z</time>
|
|
</trkpt>
|
|
<trkpt lat="55.617543" lon="8.171241">
|
|
<ele>5.810160</ele>
|
|
<time>2026-07-11T14:59:49.000Z</time>
|
|
</trkpt>
|
|
<trkpt lat="55.617562" lon="8.171147">
|
|
<ele>5.792373</ele>
|
|
<time>2026-07-11T14:59:50.000Z</time>
|
|
</trkpt>
|
|
<trkpt lat="55.617581" lon="8.171052">
|
|
<ele>5.774418</ele>
|
|
<time>2026-07-11T14:59:51.000Z</time>
|
|
</trkpt>
|
|
<trkpt lat="55.617600" lon="8.170956">
|
|
<ele>5.756296</ele>
|
|
<time>2026-07-11T14:59:52.000Z</time>
|
|
</trkpt>
|
|
<trkpt lat="55.617619" lon="8.170860">
|
|
<ele>5.744392</ele>
|
|
<time>2026-07-11T14:59:53.000Z</time>
|
|
</trkpt>
|
|
<trkpt lat="55.617638" lon="8.170765">
|
|
<ele>5.733108</ele>
|
|
<time>2026-07-11T14:59:54.000Z</time>
|
|
</trkpt>
|
|
<trkpt lat="55.617657" lon="8.170670">
|
|
<ele>5.721825</ele>
|
|
<time>2026-07-11T14:59:55.000Z</time>
|
|
</trkpt>
|
|
<trkpt lat="55.617678" lon="8.170577">
|
|
<ele>5.710611</ele>
|
|
<time>2026-07-11T14:59:56.000Z</time>
|
|
</trkpt>
|
|
<trkpt lat="55.617699" lon="8.170482">
|
|
<ele>5.699189</ele>
|
|
<time>2026-07-11T14:59:57.000Z</time>
|
|
</trkpt>
|
|
<trkpt lat="55.617720" lon="8.170387">
|
|
<ele>5.687767</ele>
|
|
<time>2026-07-11T14:59:58.000Z</time>
|
|
</trkpt>
|
|
<trkpt lat="55.617741" lon="8.170294">
|
|
<ele>5.676553</ele>
|
|
<time>2026-07-11T14:59:59.000Z</time>
|
|
</trkpt>
|
|
<trkpt lat="55.617762" lon="8.170203">
|
|
<ele>5.665547</ele>
|
|
<time>2026-07-11T15:00:00.000Z</time>
|
|
</trkpt>
|
|
<trkpt lat="55.617785" lon="8.170110">
|
|
<ele>5.654180</ele>
|
|
<time>2026-07-11T15:00:01.000Z</time>
|
|
</trkpt>
|
|
<trkpt lat="55.617808" lon="8.170015">
|
|
<ele>5.642608</ele>
|
|
<time>2026-07-11T15:00:02.000Z</time>
|
|
</trkpt>
|
|
<trkpt lat="55.617832" lon="8.169923">
|
|
<ele>5.631262</ele>
|
|
<time>2026-07-11T15:00:03.000Z</time>
|
|
</trkpt>
|
|
<trkpt lat="55.617863" lon="8.169836">
|
|
<ele>5.619745</ele>
|
|
<time>2026-07-11T15:00:04.000Z</time>
|
|
</trkpt>
|
|
<trkpt lat="55.617895" lon="8.169755">
|
|
<ele>5.608677</ele>
|
|
<time>2026-07-11T15:00:05.000Z</time>
|
|
</trkpt>
|
|
<trkpt lat="55.617925" lon="8.169676">
|
|
<ele>5.598019</ele>
|
|
<time>2026-07-11T15:00:06.000Z</time>
|
|
</trkpt>
|
|
<trkpt lat="55.617954" lon="8.169598">
|
|
<ele>5.587563</ele>
|
|
<time>2026-07-11T15:00:07.000Z</time>
|
|
</trkpt>
|
|
<trkpt lat="55.617983" lon="8.169523">
|
|
<ele>5.577386</ele>
|
|
<time>2026-07-11T15:00:08.000Z</time>
|
|
</trkpt>
|
|
<trkpt lat="55.618012" lon="8.169447">
|
|
<ele>5.567117</ele>
|
|
<time>2026-07-11T15:00:09.000Z</time>
|
|
</trkpt>
|
|
<trkpt lat="55.618038" lon="8.169365">
|
|
<ele>5.556588</ele>
|
|
<time>2026-07-11T15:00:10.000Z</time>
|
|
</trkpt>
|
|
<trkpt lat="55.618067" lon="8.169278">
|
|
<ele>5.545278</ele>
|
|
<time>2026-07-11T15:00:11.000Z</time>
|
|
</trkpt>
|
|
<trkpt lat="55.618097" lon="8.169192">
|
|
<ele>5.533961</ele>
|
|
<time>2026-07-11T15:00:12.000Z</time>
|
|
</trkpt>
|
|
<trkpt lat="55.618124" lon="8.169103">
|
|
<ele>5.522649</ele>
|
|
<time>2026-07-11T15:00:13.000Z</time>
|
|
</trkpt>
|
|
<trkpt lat="55.618147" lon="8.169014">
|
|
<ele>5.511691</ele>
|
|
<time>2026-07-11T15:00:14.000Z</time>
|
|
</trkpt>
|
|
<trkpt lat="55.618170" lon="8.168923">
|
|
<ele>5.500529</ele>
|
|
<time>2026-07-11T15:00:15.000Z</time>
|
|
</trkpt>
|
|
<trkpt lat="55.618193" lon="8.168833">
|
|
<ele>5.489469</ele>
|
|
<time>2026-07-11T15:00:16.000Z</time>
|
|
</trkpt>
|
|
<trkpt lat="55.618216" lon="8.168743">
|
|
<ele>5.478409</ele>
|
|
<time>2026-07-11T15:00:17.000Z</time>
|
|
</trkpt>
|
|
<trkpt lat="55.618241" lon="8.168656">
|
|
<ele>5.467481</ele>
|
|
<time>2026-07-11T15:00:18.000Z</time>
|
|
</trkpt>
|
|
<trkpt lat="55.618267" lon="8.168568">
|
|
<ele>5.456361</ele>
|
|
<time>2026-07-11T15:00:19.000Z</time>
|
|
</trkpt>
|
|
<trkpt lat="55.618292" lon="8.168479">
|
|
<ele>5.445232</ele>
|
|
<time>2026-07-11T15:00:20.000Z</time>
|
|
</trkpt>
|
|
<trkpt lat="55.618317" lon="8.168389">
|
|
<ele>5.434003</ele>
|
|
<time>2026-07-11T15:00:21.000Z</time>
|
|
</trkpt>
|
|
<trkpt lat="55.618342" lon="8.168299">
|
|
<ele>5.422774</ele>
|
|
<time>2026-07-11T15:00:22.000Z</time>
|
|
</trkpt>
|
|
<trkpt lat="55.618366" lon="8.168208">
|
|
<ele>5.411530</ele>
|
|
<time>2026-07-11T15:00:23.000Z</time>
|
|
</trkpt>
|
|
<trkpt lat="55.618393" lon="8.168117">
|
|
<ele>5.400021</ele>
|
|
<time>2026-07-11T15:00:24.000Z</time>
|
|
</trkpt>
|
|
<trkpt lat="55.618420" lon="8.168028">
|
|
<ele>5.396783</ele>
|
|
<time>2026-07-11T15:00:25.000Z</time>
|
|
</trkpt>
|
|
<trkpt lat="55.618448" lon="8.167940">
|
|
<ele>5.394981</ele>
|
|
<time>2026-07-11T15:00:26.000Z</time>
|
|
</trkpt>
|
|
<trkpt lat="55.618479" lon="8.167854">
|
|
<ele>5.393161</ele>
|
|
<time>2026-07-11T15:00:27.000Z</time>
|
|
</trkpt>
|
|
<trkpt lat="55.618509" lon="8.167768">
|
|
<ele>5.391358</ele>
|
|
<time>2026-07-11T15:00:28.000Z</time>
|
|
</trkpt>
|
|
<trkpt lat="55.618537" lon="8.167682">
|
|
<ele>5.389587</ele>
|
|
<time>2026-07-11T15:00:29.000Z</time>
|
|
</trkpt>
|
|
<trkpt lat="55.618559" lon="8.167592">
|
|
<ele>5.387837</ele>
|
|
<time>2026-07-11T15:00:30.000Z</time>
|
|
</trkpt>
|
|
<trkpt lat="55.618584" lon="8.167497">
|
|
<ele>5.385968</ele>
|
|
<time>2026-07-11T15:00:31.000Z</time>
|
|
</trkpt>
|
|
<trkpt lat="55.618609" lon="8.167400">
|
|
<ele>5.384066</ele>
|
|
<time>2026-07-11T15:00:32.000Z</time>
|
|
</trkpt>
|
|
<trkpt lat="55.618634" lon="8.167303">
|
|
<ele>5.382163</ele>
|
|
<time>2026-07-11T15:00:33.000Z</time>
|
|
</trkpt>
|
|
<trkpt lat="55.618659" lon="8.167207">
|
|
<ele>5.380278</ele>
|
|
<time>2026-07-11T15:00:34.000Z</time>
|
|
</trkpt>
|
|
<trkpt lat="55.618681" lon="8.167111">
|
|
<ele>5.378429</ele>
|
|
<time>2026-07-11T15:00:35.000Z</time>
|
|
</trkpt>
|
|
<trkpt lat="55.618706" lon="8.167015">
|
|
<ele>5.376544</ele>
|
|
<time>2026-07-11T15:00:36.000Z</time>
|
|
</trkpt>
|
|
<trkpt lat="55.618731" lon="8.166917">
|
|
<ele>5.374625</ele>
|
|
<time>2026-07-11T15:00:37.000Z</time>
|
|
</trkpt>
|
|
<trkpt lat="55.618754" lon="8.166821">
|
|
<ele>5.372765</ele>
|
|
<time>2026-07-11T15:00:38.000Z</time>
|
|
</trkpt>
|
|
<trkpt lat="55.618778" lon="8.166725">
|
|
<ele>5.370892</ele>
|
|
<time>2026-07-11T15:00:39.000Z</time>
|
|
</trkpt>
|
|
<trkpt lat="55.618803" lon="8.166628">
|
|
<ele>5.368990</ele>
|
|
<time>2026-07-11T15:00:40.000Z</time>
|
|
</trkpt>
|
|
<trkpt lat="55.618826" lon="8.166532">
|
|
<ele>5.367130</ele>
|
|
<time>2026-07-11T15:00:41.000Z</time>
|
|
</trkpt>
|
|
<trkpt lat="55.618849" lon="8.166436">
|
|
<ele>5.365269</ele>
|
|
<time>2026-07-11T15:00:42.000Z</time>
|
|
</trkpt>
|
|
<trkpt lat="55.618872" lon="8.166341">
|
|
<ele>5.363426</ele>
|
|
<time>2026-07-11T15:00:43.000Z</time>
|
|
</trkpt>
|
|
<trkpt lat="55.618893" lon="8.166247">
|
|
<ele>5.361622</ele>
|
|
<time>2026-07-11T15:00:44.000Z</time>
|
|
</trkpt>
|
|
<trkpt lat="55.618913" lon="8.166154">
|
|
<ele>5.359847</ele>
|
|
<time>2026-07-11T15:00:45.000Z</time>
|
|
</trkpt>
|
|
<trkpt lat="55.618933" lon="8.166060">
|
|
<ele>5.358055</ele>
|
|
<time>2026-07-11T15:00:46.000Z</time>
|
|
</trkpt>
|
|
<trkpt lat="55.618955" lon="8.165966">
|
|
<ele>5.356240</ele>
|
|
<time>2026-07-11T15:00:47.000Z</time>
|
|
</trkpt>
|
|
<trkpt lat="55.618974" lon="8.165873">
|
|
<ele>5.354476</ele>
|
|
<time>2026-07-11T15:00:48.000Z</time>
|
|
</trkpt>
|
|
<trkpt lat="55.618991" lon="8.165781">
|
|
<ele>5.352749</ele>
|
|
<time>2026-07-11T15:00:49.000Z</time>
|
|
</trkpt>
|
|
<trkpt lat="55.619008" lon="8.165687">
|
|
<ele>5.350988</ele>
|
|
<time>2026-07-11T15:00:50.000Z</time>
|
|
</trkpt>
|
|
<trkpt lat="55.619023" lon="8.165591">
|
|
<ele>5.349211</ele>
|
|
<time>2026-07-11T15:00:51.000Z</time>
|
|
</trkpt>
|
|
<trkpt lat="55.619035" lon="8.165494">
|
|
<ele>5.347440</ele>
|
|
<time>2026-07-11T15:00:52.000Z</time>
|
|
</trkpt>
|
|
<trkpt lat="55.619046" lon="8.165397">
|
|
<ele>5.345675</ele>
|
|
<time>2026-07-11T15:00:53.000Z</time>
|
|
</trkpt>
|
|
<trkpt lat="55.619058" lon="8.165298">
|
|
<ele>5.343869</ele>
|
|
<time>2026-07-11T15:00:54.000Z</time>
|
|
</trkpt>
|
|
<trkpt lat="55.619068" lon="8.165199">
|
|
<ele>5.342075</ele>
|
|
<time>2026-07-11T15:00:55.000Z</time>
|
|
</trkpt>
|
|
<trkpt lat="55.619077" lon="8.165100">
|
|
<ele>5.328395</ele>
|
|
<time>2026-07-11T15:00:56.000Z</time>
|
|
</trkpt>
|
|
<trkpt lat="55.619085" lon="8.165003">
|
|
<ele>5.309429</ele>
|
|
<time>2026-07-11T15:00:57.000Z</time>
|
|
</trkpt>
|
|
<trkpt lat="55.619091" lon="8.164906">
|
|
<ele>5.290550</ele>
|
|
<time>2026-07-11T15:00:58.000Z</time>
|
|
</trkpt>
|
|
<trkpt lat="55.619096" lon="8.164810">
|
|
<ele>5.271897</ele>
|
|
<time>2026-07-11T15:00:59.000Z</time>
|
|
</trkpt>
|
|
<trkpt lat="55.619100" lon="8.164714">
|
|
<ele>5.253273</ele>
|
|
<time>2026-07-11T15:01:00.000Z</time>
|
|
</trkpt>
|
|
<trkpt lat="55.619104" lon="8.164618">
|
|
<ele>5.234649</ele>
|
|
<time>2026-07-11T15:01:01.000Z</time>
|
|
</trkpt>
|
|
<trkpt lat="55.619108" lon="8.164521">
|
|
<ele>5.215832</ele>
|
|
<time>2026-07-11T15:01:02.000Z</time>
|
|
</trkpt>
|
|
<trkpt lat="55.619110" lon="8.164423">
|
|
<ele>5.196860</ele>
|
|
<time>2026-07-11T15:01:03.000Z</time>
|
|
</trkpt>
|
|
<trkpt lat="55.619112" lon="8.164324">
|
|
<ele>5.177693</ele>
|
|
<time>2026-07-11T15:01:04.000Z</time>
|
|
</trkpt>
|
|
<trkpt lat="55.619116" lon="8.164226">
|
|
<ele>5.158684</ele>
|
|
<time>2026-07-11T15:01:05.000Z</time>
|
|
</trkpt>
|
|
<trkpt lat="55.619118" lon="8.164129">
|
|
<ele>5.139904</ele>
|
|
<time>2026-07-11T15:01:06.000Z</time>
|
|
</trkpt>
|
|
<trkpt lat="55.619118" lon="8.164033">
|
|
<ele>5.121331</ele>
|
|
<time>2026-07-11T15:01:07.000Z</time>
|
|
</trkpt>
|
|
<trkpt lat="55.619118" lon="8.163936">
|
|
<ele>5.102564</ele>
|
|
<time>2026-07-11T15:01:08.000Z</time>
|
|
</trkpt>
|
|
<trkpt lat="55.619116" lon="8.163837">
|
|
<ele>5.083398</ele>
|
|
<time>2026-07-11T15:01:09.000Z</time>
|
|
</trkpt>
|
|
<trkpt lat="55.619116" lon="8.163739">
|
|
<ele>5.064437</ele>
|
|
<time>2026-07-11T15:01:10.000Z</time>
|
|
</trkpt>
|
|
<trkpt lat="55.619118" lon="8.163641">
|
|
<ele>5.045464</ele>
|
|
<time>2026-07-11T15:01:11.000Z</time>
|
|
</trkpt>
|
|
<trkpt lat="55.619118" lon="8.163544">
|
|
<ele>5.026697</ele>
|
|
<time>2026-07-11T15:01:12.000Z</time>
|
|
</trkpt>
|
|
<trkpt lat="55.619119" lon="8.163451">
|
|
<ele>5.008701</ele>
|
|
<time>2026-07-11T15:01:13.000Z</time>
|
|
</trkpt>
|
|
<trkpt lat="55.619122" lon="8.163358">
|
|
<ele>4.990679</ele>
|
|
<time>2026-07-11T15:01:14.000Z</time>
|
|
</trkpt>
|
|
<trkpt lat="55.619122" lon="8.163264">
|
|
<ele>4.972492</ele>
|
|
<time>2026-07-11T15:01:15.000Z</time>
|
|
</trkpt>
|
|
<trkpt lat="55.619122" lon="8.163171">
|
|
<ele>4.954499</ele>
|
|
<time>2026-07-11T15:01:16.000Z</time>
|
|
</trkpt>
|
|
<trkpt lat="55.619123" lon="8.163077">
|
|
<ele>4.936309</ele>
|
|
<time>2026-07-11T15:01:17.000Z</time>
|
|
</trkpt>
|
|
<trkpt lat="55.619125" lon="8.162982">
|
|
<ele>4.917917</ele>
|
|
<time>2026-07-11T15:01:18.000Z</time>
|
|
</trkpt>
|
|
<trkpt lat="55.619125" lon="8.162889">
|
|
<ele>4.899923</ele>
|
|
<time>2026-07-11T15:01:19.000Z</time>
|
|
</trkpt>
|
|
<trkpt lat="55.619125" lon="8.162799">
|
|
<ele>4.882511</ele>
|
|
<time>2026-07-11T15:01:20.000Z</time>
|
|
</trkpt>
|
|
<trkpt lat="55.619127" lon="8.162711">
|
|
<ele>4.865471</ele>
|
|
<time>2026-07-11T15:01:21.000Z</time>
|
|
</trkpt>
|
|
<trkpt lat="55.619129" lon="8.162622">
|
|
<ele>4.848239</ele>
|
|
<time>2026-07-11T15:01:22.000Z</time>
|
|
</trkpt>
|
|
<trkpt lat="55.619129" lon="8.162531">
|
|
<ele>4.830632</ele>
|
|
<time>2026-07-11T15:01:23.000Z</time>
|
|
</trkpt>
|
|
<trkpt lat="55.619129" lon="8.162434">
|
|
<ele>4.811866</ele>
|
|
<time>2026-07-11T15:01:24.000Z</time>
|
|
</trkpt>
|
|
<trkpt lat="55.619131" lon="8.162333">
|
|
<ele>4.792313</ele>
|
|
<time>2026-07-11T15:01:25.000Z</time>
|
|
</trkpt>
|
|
<trkpt lat="55.619135" lon="8.162229">
|
|
<ele>4.772145</ele>
|
|
<time>2026-07-11T15:01:26.000Z</time>
|
|
</trkpt>
|
|
<trkpt lat="55.619138" lon="8.162125">
|
|
<ele>4.751997</ele>
|
|
<time>2026-07-11T15:01:27.000Z</time>
|
|
</trkpt>
|
|
<trkpt lat="55.619142" lon="8.162021">
|
|
<ele>4.731829</ele>
|
|
<time>2026-07-11T15:01:28.000Z</time>
|
|
</trkpt>
|
|
<trkpt lat="55.619146" lon="8.161915">
|
|
<ele>4.718153</ele>
|
|
<time>2026-07-11T15:01:29.000Z</time>
|
|
</trkpt>
|
|
<trkpt lat="55.619150" lon="8.161809">
|
|
<ele>4.707717</ele>
|
|
<time>2026-07-11T15:01:30.000Z</time>
|
|
</trkpt>
|
|
<trkpt lat="55.619155" lon="8.161703">
|
|
<ele>4.697269</ele>
|
|
<time>2026-07-11T15:01:31.000Z</time>
|
|
</trkpt>
|
|
<trkpt lat="55.619163" lon="8.161598">
|
|
<ele>4.686861</ele>
|
|
<time>2026-07-11T15:01:32.000Z</time>
|
|
</trkpt>
|
|
<trkpt lat="55.619169" lon="8.161495">
|
|
<ele>4.676690</ele>
|
|
<time>2026-07-11T15:01:33.000Z</time>
|
|
</trkpt>
|
|
<trkpt lat="55.619173" lon="8.161394">
|
|
<ele>4.666744</ele>
|
|
<time>2026-07-11T15:01:34.000Z</time>
|
|
</trkpt>
|
|
<trkpt lat="55.619178" lon="8.161294">
|
|
<ele>4.656883</ele>
|
|
<time>2026-07-11T15:01:35.000Z</time>
|
|
</trkpt>
|
|
<trkpt lat="55.619186" lon="8.161193">
|
|
<ele>4.646864</ele>
|
|
<time>2026-07-11T15:01:36.000Z</time>
|
|
</trkpt>
|
|
<trkpt lat="55.619194" lon="8.161091">
|
|
<ele>4.636749</ele>
|
|
<time>2026-07-11T15:01:37.000Z</time>
|
|
</trkpt>
|
|
<trkpt lat="55.619201" lon="8.160990">
|
|
<ele>4.626753</ele>
|
|
<time>2026-07-11T15:01:38.000Z</time>
|
|
</trkpt>
|
|
<trkpt lat="55.619209" lon="8.160890">
|
|
<ele>4.616832</ele>
|
|
<time>2026-07-11T15:01:39.000Z</time>
|
|
</trkpt>
|
|
<trkpt lat="55.619216" lon="8.160793">
|
|
<ele>4.607227</ele>
|
|
<time>2026-07-11T15:01:40.000Z</time>
|
|
</trkpt>
|
|
<trkpt lat="55.619224" lon="8.160696">
|
|
<ele>4.597597</ele>
|
|
<time>2026-07-11T15:01:41.000Z</time>
|
|
</trkpt>
|
|
<trkpt lat="55.619232" lon="8.160600">
|
|
<ele>4.588065</ele>
|
|
<time>2026-07-11T15:01:42.000Z</time>
|
|
</trkpt>
|
|
<trkpt lat="55.619238" lon="8.160504">
|
|
<ele>4.578577</ele>
|
|
<time>2026-07-11T15:01:43.000Z</time>
|
|
</trkpt>
|
|
<trkpt lat="55.619243" lon="8.160409">
|
|
<ele>4.569205</ele>
|
|
<time>2026-07-11T15:01:44.000Z</time>
|
|
</trkpt>
|
|
<trkpt lat="55.619251" lon="8.160316">
|
|
<ele>4.559965</ele>
|
|
<time>2026-07-11T15:01:45.000Z</time>
|
|
</trkpt>
|
|
<trkpt lat="55.619258" lon="8.160223">
|
|
<ele>4.550748</ele>
|
|
<time>2026-07-11T15:01:46.000Z</time>
|
|
</trkpt>
|
|
<trkpt lat="55.619266" lon="8.160131">
|
|
<ele>4.541605</ele>
|
|
<time>2026-07-11T15:01:47.000Z</time>
|
|
</trkpt>
|
|
<trkpt lat="55.619274" lon="8.160040">
|
|
<ele>4.532558</ele>
|
|
<time>2026-07-11T15:01:48.000Z</time>
|
|
</trkpt>
|
|
<trkpt lat="55.619283" lon="8.159949">
|
|
<ele>4.523483</ele>
|
|
<time>2026-07-11T15:01:49.000Z</time>
|
|
</trkpt>
|
|
<trkpt lat="55.619298" lon="8.159859">
|
|
<ele>4.514266</ele>
|
|
<time>2026-07-11T15:01:50.000Z</time>
|
|
</trkpt>
|
|
<trkpt lat="55.619320" lon="8.159773">
|
|
<ele>4.504992</ele>
|
|
<time>2026-07-11T15:01:51.000Z</time>
|
|
</trkpt>
|
|
<trkpt lat="55.619349" lon="8.159691">
|
|
<ele>4.495488</ele>
|
|
<time>2026-07-11T15:01:52.000Z</time>
|
|
</trkpt>
|
|
<trkpt lat="55.619377" lon="8.159613">
|
|
<ele>4.486409</ele>
|
|
<time>2026-07-11T15:01:53.000Z</time>
|
|
</trkpt>
|
|
<trkpt lat="55.619404" lon="8.159535">
|
|
<ele>4.477422</ele>
|
|
<time>2026-07-11T15:01:54.000Z</time>
|
|
</trkpt>
|
|
<trkpt lat="55.619427" lon="8.159452">
|
|
<ele>4.468340</ele>
|
|
<time>2026-07-11T15:01:55.000Z</time>
|
|
</trkpt>
|
|
<trkpt lat="55.619448" lon="8.159366">
|
|
<ele>4.459136</ele>
|
|
<time>2026-07-11T15:01:56.000Z</time>
|
|
</trkpt>
|
|
<trkpt lat="55.619469" lon="8.159279">
|
|
<ele>4.449842</ele>
|
|
<time>2026-07-11T15:01:57.000Z</time>
|
|
</trkpt>
|
|
<trkpt lat="55.619487" lon="8.159191">
|
|
<ele>4.440649</ele>
|
|
<time>2026-07-11T15:01:58.000Z</time>
|
|
</trkpt>
|
|
<trkpt lat="55.619505" lon="8.159103">
|
|
<ele>4.431455</ele>
|
|
<time>2026-07-11T15:01:59.000Z</time>
|
|
</trkpt>
|
|
<trkpt lat="55.619528" lon="8.159014">
|
|
<ele>4.421841</ele>
|
|
<time>2026-07-11T15:02:00.000Z</time>
|
|
</trkpt>
|
|
<trkpt lat="55.619551" lon="8.158925">
|
|
<ele>4.412124</ele>
|
|
<time>2026-07-11T15:02:01.000Z</time>
|
|
</trkpt>
|
|
<trkpt lat="55.619572" lon="8.158838">
|
|
<ele>4.396100</ele>
|
|
<time>2026-07-11T15:02:02.000Z</time>
|
|
</trkpt>
|
|
<trkpt lat="55.619593" lon="8.158749">
|
|
<ele>4.379764</ele>
|
|
<time>2026-07-11T15:02:03.000Z</time>
|
|
</trkpt>
|
|
<trkpt lat="55.619614" lon="8.158657">
|
|
<ele>4.362958</ele>
|
|
<time>2026-07-11T15:02:04.000Z</time>
|
|
</trkpt>
|
|
<trkpt lat="55.619630" lon="8.158565">
|
|
<ele>4.346655</ele>
|
|
<time>2026-07-11T15:02:05.000Z</time>
|
|
</trkpt>
|
|
<trkpt lat="55.619643" lon="8.158472">
|
|
<ele>4.330429</ele>
|
|
<time>2026-07-11T15:02:06.000Z</time>
|
|
</trkpt>
|
|
<trkpt lat="55.619657" lon="8.158378">
|
|
<ele>4.313964</ele>
|
|
<time>2026-07-11T15:02:07.000Z</time>
|
|
</trkpt>
|
|
<trkpt lat="55.619668" lon="8.158283">
|
|
<ele>4.297540</ele>
|
|
<time>2026-07-11T15:02:08.000Z</time>
|
|
</trkpt>
|
|
<trkpt lat="55.619676" lon="8.158187">
|
|
<ele>4.281106</ele>
|
|
<time>2026-07-11T15:02:09.000Z</time>
|
|
</trkpt>
|
|
<trkpt lat="55.619682" lon="8.158091">
|
|
<ele>4.264748</ele>
|
|
<time>2026-07-11T15:02:10.000Z</time>
|
|
</trkpt>
|
|
<trkpt lat="55.619688" lon="8.157995">
|
|
<ele>4.248390</ele>
|
|
<time>2026-07-11T15:02:11.000Z</time>
|
|
</trkpt>
|
|
<trkpt lat="55.619690" lon="8.157899">
|
|
<ele>4.232120</ele>
|
|
<time>2026-07-11T15:02:12.000Z</time>
|
|
</trkpt>
|
|
<trkpt lat="55.619688" lon="8.157802">
|
|
<ele>4.215681</ele>
|
|
<time>2026-07-11T15:02:13.000Z</time>
|
|
</trkpt>
|
|
<trkpt lat="55.619684" lon="8.157707">
|
|
<ele>4.199547</ele>
|
|
<time>2026-07-11T15:02:14.000Z</time>
|
|
</trkpt>
|
|
<trkpt lat="55.619679" lon="8.157613">
|
|
<ele>4.183557</ele>
|
|
<time>2026-07-11T15:02:15.000Z</time>
|
|
</trkpt>
|
|
<trkpt lat="55.619671" lon="8.157520">
|
|
<ele>4.167625</ele>
|
|
<time>2026-07-11T15:02:16.000Z</time>
|
|
</trkpt>
|
|
<trkpt lat="55.619664" lon="8.157429">
|
|
<ele>4.152070</ele>
|
|
<time>2026-07-11T15:02:17.000Z</time>
|
|
</trkpt>
|
|
<trkpt lat="55.619656" lon="8.157338">
|
|
<ele>4.136473</ele>
|
|
<time>2026-07-11T15:02:18.000Z</time>
|
|
</trkpt>
|
|
<trkpt lat="55.619650" lon="8.157248">
|
|
<ele>4.121125</ele>
|
|
<time>2026-07-11T15:02:19.000Z</time>
|
|
</trkpt>
|
|
<trkpt lat="55.619646" lon="8.157161">
|
|
<ele>4.106341</ele>
|
|
<time>2026-07-11T15:02:20.000Z</time>
|
|
</trkpt>
|
|
<trkpt lat="55.619642" lon="8.157072">
|
|
<ele>4.091221</ele>
|
|
<time>2026-07-11T15:02:21.000Z</time>
|
|
</trkpt>
|
|
<trkpt lat="55.619639" lon="8.156980">
|
|
<ele>4.075614</ele>
|
|
<time>2026-07-11T15:02:22.000Z</time>
|
|
</trkpt>
|
|
<trkpt lat="55.619633" lon="8.156887">
|
|
<ele>4.059760</ele>
|
|
<time>2026-07-11T15:02:23.000Z</time>
|
|
</trkpt>
|
|
<trkpt lat="55.619627" lon="8.156796">
|
|
<ele>4.044244</ele>
|
|
<time>2026-07-11T15:02:24.000Z</time>
|
|
</trkpt>
|
|
<trkpt lat="55.619625" lon="8.156703">
|
|
<ele>4.028482</ele>
|
|
<time>2026-07-11T15:02:25.000Z</time>
|
|
</trkpt>
|
|
<trkpt lat="55.619623" lon="8.156609">
|
|
<ele>4.012551</ele>
|
|
<time>2026-07-11T15:02:26.000Z</time>
|
|
</trkpt>
|
|
<trkpt lat="55.619618" lon="8.156516">
|
|
<ele>3.996729</ele>
|
|
<time>2026-07-11T15:02:27.000Z</time>
|
|
</trkpt>
|
|
<trkpt lat="55.619612" lon="8.156424">
|
|
<ele>3.981044</ele>
|
|
<time>2026-07-11T15:02:28.000Z</time>
|
|
</trkpt>
|
|
<trkpt lat="55.619607" lon="8.156332">
|
|
<ele>3.965391</ele>
|
|
<time>2026-07-11T15:02:29.000Z</time>
|
|
</trkpt>
|
|
<trkpt lat="55.619601" lon="8.156239">
|
|
<ele>3.949538</ele>
|
|
<time>2026-07-11T15:02:30.000Z</time>
|
|
</trkpt>
|
|
<trkpt lat="55.619597" lon="8.156144">
|
|
<ele>3.933404</ele>
|
|
<time>2026-07-11T15:02:31.000Z</time>
|
|
</trkpt>
|
|
<trkpt lat="55.619596" lon="8.156049">
|
|
<ele>3.917312</ele>
|
|
<time>2026-07-11T15:02:32.000Z</time>
|
|
</trkpt>
|
|
<trkpt lat="55.619602" lon="8.155956">
|
|
<ele>3.901459</ele>
|
|
<time>2026-07-11T15:02:33.000Z</time>
|
|
</trkpt>
|
|
<trkpt lat="55.619609" lon="8.155865">
|
|
<ele>3.885905</ele>
|
|
<time>2026-07-11T15:02:34.000Z</time>
|
|
</trkpt>
|
|
<trkpt lat="55.619617" lon="8.155773">
|
|
<ele>3.874223</ele>
|
|
<time>2026-07-11T15:02:35.000Z</time>
|
|
</trkpt>
|
|
<trkpt lat="55.619625" lon="8.155681">
|
|
<ele>3.881655</ele>
|
|
<time>2026-07-11T15:02:36.000Z</time>
|
|
</trkpt>
|
|
<trkpt lat="55.619632" lon="8.155591">
|
|
<ele>3.888908</ele>
|
|
<time>2026-07-11T15:02:37.000Z</time>
|
|
</trkpt>
|
|
<trkpt lat="55.619638" lon="8.155500">
|
|
<ele>3.896222</ele>
|
|
<time>2026-07-11T15:02:38.000Z</time>
|
|
</trkpt>
|
|
<trkpt lat="55.619644" lon="8.155410">
|
|
<ele>3.903457</ele>
|
|
<time>2026-07-11T15:02:39.000Z</time>
|
|
</trkpt>
|
|
<trkpt lat="55.619650" lon="8.155321">
|
|
<ele>3.910613</ele>
|
|
<time>2026-07-11T15:02:40.000Z</time>
|
|
</trkpt>
|
|
<trkpt lat="55.619655" lon="8.155230">
|
|
<ele>3.917913</ele>
|
|
<time>2026-07-11T15:02:41.000Z</time>
|
|
</trkpt>
|
|
<trkpt lat="55.619661" lon="8.155136">
|
|
<ele>3.925465</ele>
|
|
<time>2026-07-11T15:02:42.000Z</time>
|
|
</trkpt>
|
|
<trkpt lat="55.619667" lon="8.155043">
|
|
<ele>3.932938</ele>
|
|
<time>2026-07-11T15:02:43.000Z</time>
|
|
</trkpt>
|
|
<trkpt lat="55.619676" lon="8.154951">
|
|
<ele>3.940392</ele>
|
|
<time>2026-07-11T15:02:44.000Z</time>
|
|
</trkpt>
|
|
<trkpt lat="55.619686" lon="8.154861">
|
|
<ele>3.947715</ele>
|
|
<time>2026-07-11T15:02:45.000Z</time>
|
|
</trkpt>
|
|
<trkpt lat="55.619692" lon="8.154772">
|
|
<ele>3.954871</ele>
|
|
<time>2026-07-11T15:02:46.000Z</time>
|
|
</trkpt>
|
|
<trkpt lat="55.619697" lon="8.154685">
|
|
<ele>3.961853</ele>
|
|
<time>2026-07-11T15:02:47.000Z</time>
|
|
</trkpt>
|
|
<trkpt lat="55.619706" lon="8.154595">
|
|
<ele>3.969149</ele>
|
|
<time>2026-07-11T15:02:48.000Z</time>
|
|
</trkpt>
|
|
<trkpt lat="55.619714" lon="8.154503">
|
|
<ele>3.976581</ele>
|
|
<time>2026-07-11T15:02:49.000Z</time>
|
|
</trkpt>
|
|
<trkpt lat="55.619720" lon="8.154411">
|
|
<ele>3.983975</ele>
|
|
<time>2026-07-11T15:02:50.000Z</time>
|
|
</trkpt>
|
|
<trkpt lat="55.619728" lon="8.154317">
|
|
<ele>3.991564</ele>
|
|
<time>2026-07-11T15:02:51.000Z</time>
|
|
</trkpt>
|
|
<trkpt lat="55.619735" lon="8.154221">
|
|
<ele>3.999292</ele>
|
|
<time>2026-07-11T15:02:52.000Z</time>
|
|
</trkpt>
|
|
<trkpt lat="55.619743" lon="8.154125">
|
|
<ele>4.007039</ele>
|
|
<time>2026-07-11T15:02:53.000Z</time>
|
|
</trkpt>
|
|
<trkpt lat="55.619751" lon="8.154029">
|
|
<ele>4.014786</ele>
|
|
<time>2026-07-11T15:02:54.000Z</time>
|
|
</trkpt>
|
|
<trkpt lat="55.619758" lon="8.153931">
|
|
<ele>4.022672</ele>
|
|
<time>2026-07-11T15:02:55.000Z</time>
|
|
</trkpt>
|
|
<trkpt lat="55.619766" lon="8.153834">
|
|
<ele>4.030498</ele>
|
|
<time>2026-07-11T15:02:56.000Z</time>
|
|
</trkpt>
|
|
<trkpt lat="55.619773" lon="8.153738">
|
|
<ele>4.038226</ele>
|
|
<time>2026-07-11T15:02:57.000Z</time>
|
|
</trkpt>
|
|
<trkpt lat="55.619779" lon="8.153641">
|
|
<ele>4.046017</ele>
|
|
<time>2026-07-11T15:02:58.000Z</time>
|
|
</trkpt>
|
|
<trkpt lat="55.619786" lon="8.153544">
|
|
<ele>4.053824</ele>
|
|
<time>2026-07-11T15:02:59.000Z</time>
|
|
</trkpt>
|
|
<trkpt lat="55.619798" lon="8.153450">
|
|
<ele>4.061518</ele>
|
|
<time>2026-07-11T15:03:00.000Z</time>
|
|
</trkpt>
|
|
<trkpt lat="55.619809" lon="8.153358">
|
|
<ele>4.069025</ele>
|
|
<time>2026-07-11T15:03:01.000Z</time>
|
|
</trkpt>
|
|
<trkpt lat="55.619820" lon="8.153264">
|
|
<ele>4.076689</ele>
|
|
<time>2026-07-11T15:03:02.000Z</time>
|
|
</trkpt>
|
|
<trkpt lat="55.619832" lon="8.153168">
|
|
<ele>4.084539</ele>
|
|
<time>2026-07-11T15:03:03.000Z</time>
|
|
</trkpt>
|
|
<trkpt lat="55.619844" lon="8.153082">
|
|
<ele>4.091611</ele>
|
|
<time>2026-07-11T15:03:04.000Z</time>
|
|
</trkpt>
|
|
<trkpt lat="55.619859" lon="8.152991">
|
|
<ele>4.099179</ele>
|
|
<time>2026-07-11T15:03:05.000Z</time>
|
|
</trkpt>
|
|
<trkpt lat="55.619877" lon="8.152891">
|
|
<ele>4.107559</ele>
|
|
<time>2026-07-11T15:03:06.000Z</time>
|
|
</trkpt>
|
|
<trkpt lat="55.619896" lon="8.152801">
|
|
<ele>4.115230</ele>
|
|
<time>2026-07-11T15:03:07.000Z</time>
|
|
</trkpt>
|
|
<trkpt lat="55.619916" lon="8.152708">
|
|
<ele>4.123174</ele>
|
|
<time>2026-07-11T15:03:08.000Z</time>
|
|
</trkpt>
|
|
<trkpt lat="55.619935" lon="8.152619">
|
|
<ele>4.127641</ele>
|
|
<time>2026-07-11T15:03:09.000Z</time>
|
|
</trkpt>
|
|
<trkpt lat="55.619956" lon="8.152529">
|
|
<ele>4.128586</ele>
|
|
<time>2026-07-11T15:03:10.000Z</time>
|
|
</trkpt>
|
|
<trkpt lat="55.619978" lon="8.152440">
|
|
<ele>4.129528</ele>
|
|
<time>2026-07-11T15:03:11.000Z</time>
|
|
</trkpt>
|
|
<trkpt lat="55.620000" lon="8.152350">
|
|
<ele>4.130479</ele>
|
|
<time>2026-07-11T15:03:12.000Z</time>
|
|
</trkpt>
|
|
<trkpt lat="55.620019" lon="8.152262">
|
|
<ele>4.131393</ele>
|
|
<time>2026-07-11T15:03:13.000Z</time>
|
|
</trkpt>
|
|
<trkpt lat="55.620037" lon="8.152174">
|
|
<ele>4.132301</ele>
|
|
<time>2026-07-11T15:03:14.000Z</time>
|
|
</trkpt>
|
|
<trkpt lat="55.620056" lon="8.152086">
|
|
<ele>4.133214</ele>
|
|
<time>2026-07-11T15:03:15.000Z</time>
|
|
</trkpt>
|
|
<trkpt lat="55.620074" lon="8.151998">
|
|
<ele>4.134122</ele>
|
|
<time>2026-07-11T15:03:16.000Z</time>
|
|
</trkpt>
|
|
<trkpt lat="55.620091" lon="8.151911">
|
|
<ele>4.135015</ele>
|
|
<time>2026-07-11T15:03:17.000Z</time>
|
|
</trkpt>
|
|
<trkpt lat="55.620109" lon="8.151831">
|
|
<ele>4.135850</ele>
|
|
<time>2026-07-11T15:03:18.000Z</time>
|
|
</trkpt>
|
|
<trkpt lat="55.620122" lon="8.151756">
|
|
<ele>4.136611</ele>
|
|
<time>2026-07-11T15:03:19.000Z</time>
|
|
</trkpt>
|
|
<trkpt lat="55.620137" lon="8.151688">
|
|
<ele>4.137319</ele>
|
|
<time>2026-07-11T15:03:20.000Z</time>
|
|
</trkpt>
|
|
<trkpt lat="55.620154" lon="8.151624">
|
|
<ele>4.138005</ele>
|
|
<time>2026-07-11T15:03:21.000Z</time>
|
|
</trkpt>
|
|
<trkpt lat="55.620170" lon="8.151558">
|
|
<ele>4.138701</ele>
|
|
<time>2026-07-11T15:03:22.000Z</time>
|
|
</trkpt>
|
|
<trkpt lat="55.620182" lon="8.151491">
|
|
<ele>4.139383</ele>
|
|
<time>2026-07-11T15:03:23.000Z</time>
|
|
</trkpt>
|
|
<trkpt lat="55.620189" lon="8.151426">
|
|
<ele>4.140025</ele>
|
|
<time>2026-07-11T15:03:24.000Z</time>
|
|
</trkpt>
|
|
<trkpt lat="55.620194" lon="8.151366">
|
|
<ele>4.140613</ele>
|
|
<time>2026-07-11T15:03:25.000Z</time>
|
|
</trkpt>
|
|
<trkpt lat="55.620195" lon="8.151306">
|
|
<ele>4.141195</ele>
|
|
<time>2026-07-11T15:03:26.000Z</time>
|
|
</trkpt>
|
|
<trkpt lat="55.620201" lon="8.151238">
|
|
<ele>4.141863</ele>
|
|
<time>2026-07-11T15:03:27.000Z</time>
|
|
</trkpt>
|
|
<trkpt lat="55.620212" lon="8.151154">
|
|
<ele>4.142699</ele>
|
|
<time>2026-07-11T15:03:28.000Z</time>
|
|
</trkpt>
|
|
<trkpt lat="55.620224" lon="8.151062">
|
|
<ele>4.143615</ele>
|
|
<time>2026-07-11T15:03:29.000Z</time>
|
|
</trkpt>
|
|
<trkpt lat="55.620229" lon="8.150971">
|
|
<ele>4.144501</ele>
|
|
<time>2026-07-11T15:03:30.000Z</time>
|
|
</trkpt>
|
|
<trkpt lat="55.620235" lon="8.150881">
|
|
<ele>4.145380</ele>
|
|
<time>2026-07-11T15:03:31.000Z</time>
|
|
</trkpt>
|
|
<trkpt lat="55.620243" lon="8.150790">
|
|
<ele>4.146274</ele>
|
|
<time>2026-07-11T15:03:32.000Z</time>
|
|
</trkpt>
|
|
<trkpt lat="55.620249" lon="8.150698">
|
|
<ele>4.147172</ele>
|
|
<time>2026-07-11T15:03:33.000Z</time>
|
|
</trkpt>
|
|
<trkpt lat="55.620252" lon="8.150608">
|
|
<ele>4.148046</ele>
|
|
<time>2026-07-11T15:03:34.000Z</time>
|
|
</trkpt>
|
|
<trkpt lat="55.620253" lon="8.150520">
|
|
<ele>4.148900</ele>
|
|
<time>2026-07-11T15:03:35.000Z</time>
|
|
</trkpt>
|
|
<trkpt lat="55.620252" lon="8.150427">
|
|
<ele>4.149802</ele>
|
|
<time>2026-07-11T15:03:36.000Z</time>
|
|
</trkpt>
|
|
<trkpt lat="55.620255" lon="8.150332">
|
|
<ele>4.150725</ele>
|
|
<time>2026-07-11T15:03:37.000Z</time>
|
|
</trkpt>
|
|
<trkpt lat="55.620255" lon="8.150235">
|
|
<ele>4.151665</ele>
|
|
<time>2026-07-11T15:03:38.000Z</time>
|
|
</trkpt>
|
|
<trkpt lat="55.620255" lon="8.150142">
|
|
<ele>4.152567</ele>
|
|
<time>2026-07-11T15:03:39.000Z</time>
|
|
</trkpt>
|
|
<trkpt lat="55.620253" lon="8.150045">
|
|
<ele>4.153509</ele>
|
|
<time>2026-07-11T15:03:40.000Z</time>
|
|
</trkpt>
|
|
<trkpt lat="55.620252" lon="8.149944">
|
|
<ele>4.154488</ele>
|
|
<time>2026-07-11T15:03:41.000Z</time>
|
|
</trkpt>
|
|
<trkpt lat="55.620253" lon="8.149843">
|
|
<ele>4.155468</ele>
|
|
<time>2026-07-11T15:03:42.000Z</time>
|
|
</trkpt>
|
|
<trkpt lat="55.620249" lon="8.149743">
|
|
<ele>4.156440</ele>
|
|
<time>2026-07-11T15:03:43.000Z</time>
|
|
</trkpt>
|
|
<trkpt lat="55.620245" lon="8.149649">
|
|
<ele>4.157354</ele>
|
|
<time>2026-07-11T15:03:44.000Z</time>
|
|
</trkpt>
|
|
<trkpt lat="55.620241" lon="8.149559">
|
|
<ele>4.157953</ele>
|
|
<time>2026-07-11T15:03:45.000Z</time>
|
|
</trkpt>
|
|
<trkpt lat="55.620236" lon="8.149475">
|
|
<ele>4.157024</ele>
|
|
<time>2026-07-11T15:03:46.000Z</time>
|
|
</trkpt>
|
|
<trkpt lat="55.620230" lon="8.149387">
|
|
<ele>4.156049</ele>
|
|
<time>2026-07-11T15:03:47.000Z</time>
|
|
</trkpt>
|
|
<trkpt lat="55.620225" lon="8.149294">
|
|
<ele>4.155021</ele>
|
|
<time>2026-07-11T15:03:48.000Z</time>
|
|
</trkpt>
|
|
<trkpt lat="55.620217" lon="8.149204">
|
|
<ele>4.154019</ele>
|
|
<time>2026-07-11T15:03:49.000Z</time>
|
|
</trkpt>
|
|
<trkpt lat="55.620209" lon="8.149113">
|
|
<ele>4.153006</ele>
|
|
<time>2026-07-11T15:03:50.000Z</time>
|
|
</trkpt>
|
|
<trkpt lat="55.620200" lon="8.149021">
|
|
<ele>4.151979</ele>
|
|
<time>2026-07-11T15:03:51.000Z</time>
|
|
</trkpt>
|
|
<trkpt lat="55.620188" lon="8.148931">
|
|
<ele>4.150962</ele>
|
|
<time>2026-07-11T15:03:52.000Z</time>
|
|
</trkpt>
|
|
<trkpt lat="55.620179" lon="8.148845">
|
|
<ele>4.149999</ele>
|
|
<time>2026-07-11T15:03:53.000Z</time>
|
|
</trkpt>
|
|
<trkpt lat="55.620171" lon="8.148759">
|
|
<ele>4.149041</ele>
|
|
<time>2026-07-11T15:03:54.000Z</time>
|
|
</trkpt>
|
|
<trkpt lat="55.620164" lon="8.148672">
|
|
<ele>4.148074</ele>
|
|
<time>2026-07-11T15:03:55.000Z</time>
|
|
</trkpt>
|
|
<trkpt lat="55.620157" lon="8.148584">
|
|
<ele>4.147096</ele>
|
|
<time>2026-07-11T15:03:56.000Z</time>
|
|
</trkpt>
|
|
<trkpt lat="55.620152" lon="8.148498">
|
|
<ele>4.146145</ele>
|
|
<time>2026-07-11T15:03:57.000Z</time>
|
|
</trkpt>
|
|
<trkpt lat="55.620143" lon="8.148413">
|
|
<ele>4.145194</ele>
|
|
<time>2026-07-11T15:03:58.000Z</time>
|
|
</trkpt>
|
|
<trkpt lat="55.620133" lon="8.148331">
|
|
<ele>4.144271</ele>
|
|
<time>2026-07-11T15:03:59.000Z</time>
|
|
</trkpt>
|
|
<trkpt lat="55.620125" lon="8.148250">
|
|
<ele>4.143367</ele>
|
|
<time>2026-07-11T15:04:00.000Z</time>
|
|
</trkpt>
|
|
<trkpt lat="55.620119" lon="8.148166">
|
|
<ele>4.142435</ele>
|
|
<time>2026-07-11T15:04:01.000Z</time>
|
|
</trkpt>
|
|
<trkpt lat="55.620114" lon="8.148080">
|
|
<ele>4.141484</ele>
|
|
<time>2026-07-11T15:04:02.000Z</time>
|
|
</trkpt>
|
|
<trkpt lat="55.620106" lon="8.147996">
|
|
<ele>4.140547</ele>
|
|
<time>2026-07-11T15:04:03.000Z</time>
|
|
</trkpt>
|
|
<trkpt lat="55.620100" lon="8.147916">
|
|
<ele>4.139659</ele>
|
|
<time>2026-07-11T15:04:04.000Z</time>
|
|
</trkpt>
|
|
<trkpt lat="55.620095" lon="8.147835">
|
|
<ele>4.138763</ele>
|
|
<time>2026-07-11T15:04:05.000Z</time>
|
|
</trkpt>
|
|
<trkpt lat="55.620089" lon="8.147754">
|
|
<ele>4.137864</ele>
|
|
<time>2026-07-11T15:04:06.000Z</time>
|
|
</trkpt>
|
|
<trkpt lat="55.620085" lon="8.147677">
|
|
<ele>4.137014</ele>
|
|
<time>2026-07-11T15:04:07.000Z</time>
|
|
</trkpt>
|
|
<trkpt lat="55.620081" lon="8.147604">
|
|
<ele>4.136207</ele>
|
|
<time>2026-07-11T15:04:08.000Z</time>
|
|
</trkpt>
|
|
<trkpt lat="55.620078" lon="8.147537">
|
|
<ele>4.135467</ele>
|
|
<time>2026-07-11T15:04:09.000Z</time>
|
|
</trkpt>
|
|
<trkpt lat="55.620074" lon="8.147474">
|
|
<ele>4.134770</ele>
|
|
<time>2026-07-11T15:04:10.000Z</time>
|
|
</trkpt>
|
|
<trkpt lat="55.620071" lon="8.147425">
|
|
<ele>4.134228</ele>
|
|
<time>2026-07-11T15:04:11.000Z</time>
|
|
</trkpt>
|
|
<trkpt lat="55.620076" lon="8.147389">
|
|
<ele>4.133820</ele>
|
|
<time>2026-07-11T15:04:12.000Z</time>
|
|
</trkpt>
|
|
<trkpt lat="55.620089" lon="8.147358">
|
|
<ele>4.133395</ele>
|
|
<time>2026-07-11T15:04:13.000Z</time>
|
|
</trkpt>
|
|
<trkpt lat="55.620105" lon="8.147322">
|
|
<ele>4.132891</ele>
|
|
<time>2026-07-11T15:04:14.000Z</time>
|
|
</trkpt>
|
|
<trkpt lat="55.620121" lon="8.147284">
|
|
<ele>4.132370</ele>
|
|
<time>2026-07-11T15:04:15.000Z</time>
|
|
</trkpt>
|
|
<trkpt lat="55.620140" lon="8.147246">
|
|
<ele>4.131812</ele>
|
|
<time>2026-07-11T15:04:16.000Z</time>
|
|
</trkpt>
|
|
<trkpt lat="55.620161" lon="8.147210">
|
|
<ele>4.131242</ele>
|
|
<time>2026-07-11T15:04:17.000Z</time>
|
|
</trkpt>
|
|
<trkpt lat="55.620186" lon="8.147181">
|
|
<ele>4.130660</ele>
|
|
<time>2026-07-11T15:04:18.000Z</time>
|
|
</trkpt>
|
|
<trkpt lat="55.620214" lon="8.147153">
|
|
<ele>4.130034</ele>
|
|
<time>2026-07-11T15:04:19.000Z</time>
|
|
</trkpt>
|
|
<trkpt lat="55.620241" lon="8.147121">
|
|
<ele>4.129401</ele>
|
|
<time>2026-07-11T15:04:20.000Z</time>
|
|
</trkpt>
|
|
<trkpt lat="55.620268" lon="8.147087">
|
|
<ele>4.128755</ele>
|
|
<time>2026-07-11T15:04:21.000Z</time>
|
|
</trkpt>
|
|
<trkpt lat="55.620298" lon="8.147051">
|
|
<ele>4.128049</ele>
|
|
<time>2026-07-11T15:04:22.000Z</time>
|
|
</trkpt>
|
|
<trkpt lat="55.620329" lon="8.147011">
|
|
<ele>4.127302</ele>
|
|
<time>2026-07-11T15:04:23.000Z</time>
|
|
</trkpt>
|
|
<trkpt lat="55.620366" lon="8.146969">
|
|
<ele>4.126446</ele>
|
|
<time>2026-07-11T15:04:24.000Z</time>
|
|
</trkpt>
|
|
<trkpt lat="55.620408" lon="8.146925">
|
|
<ele>4.125495</ele>
|
|
<time>2026-07-11T15:04:25.000Z</time>
|
|
</trkpt>
|
|
<trkpt lat="55.620448" lon="8.146882">
|
|
<ele>4.124584</ele>
|
|
<time>2026-07-11T15:04:26.000Z</time>
|
|
</trkpt>
|
|
<trkpt lat="55.620494" lon="8.146837">
|
|
<ele>4.123560</ele>
|
|
<time>2026-07-11T15:04:27.000Z</time>
|
|
</trkpt>
|
|
<trkpt lat="55.620537" lon="8.146792">
|
|
<ele>4.119113</ele>
|
|
<time>2026-07-11T15:04:28.000Z</time>
|
|
</trkpt>
|
|
<trkpt lat="55.620580" lon="8.146749">
|
|
<ele>4.111100</ele>
|
|
<time>2026-07-11T15:04:29.000Z</time>
|
|
</trkpt>
|
|
<trkpt lat="55.620621" lon="8.146707">
|
|
<ele>4.103415</ele>
|
|
<time>2026-07-11T15:04:30.000Z</time>
|
|
</trkpt>
|
|
<trkpt lat="55.620665" lon="8.146667">
|
|
<ele>4.095390</ele>
|
|
<time>2026-07-11T15:04:31.000Z</time>
|
|
</trkpt>
|
|
<trkpt lat="55.620709" lon="8.146625">
|
|
<ele>4.087279</ele>
|
|
<time>2026-07-11T15:04:32.000Z</time>
|
|
</trkpt>
|
|
<trkpt lat="55.620753" lon="8.146581">
|
|
<ele>4.079080</ele>
|
|
<time>2026-07-11T15:04:33.000Z</time>
|
|
</trkpt>
|
|
<trkpt lat="55.620795" lon="8.146539">
|
|
<ele>4.071254</ele>
|
|
<time>2026-07-11T15:04:34.000Z</time>
|
|
</trkpt>
|
|
<trkpt lat="55.620837" lon="8.146496">
|
|
<ele>4.063382</ele>
|
|
<time>2026-07-11T15:04:35.000Z</time>
|
|
</trkpt>
|
|
<trkpt lat="55.620877" lon="8.146453">
|
|
<ele>4.055789</ele>
|
|
<time>2026-07-11T15:04:36.000Z</time>
|
|
</trkpt>
|
|
<trkpt lat="55.620914" lon="8.146413">
|
|
<ele>4.048755</ele>
|
|
<time>2026-07-11T15:04:37.000Z</time>
|
|
</trkpt>
|
|
<trkpt lat="55.620950" lon="8.146375">
|
|
<ele>4.041955</ele>
|
|
<time>2026-07-11T15:04:38.000Z</time>
|
|
</trkpt>
|
|
<trkpt lat="55.620988" lon="8.146335">
|
|
<ele>4.034782</ele>
|
|
<time>2026-07-11T15:04:39.000Z</time>
|
|
</trkpt>
|
|
<trkpt lat="55.621028" lon="8.146294">
|
|
<ele>4.027283</ele>
|
|
<time>2026-07-11T15:04:40.000Z</time>
|
|
</trkpt>
|
|
<trkpt lat="55.621068" lon="8.146251">
|
|
<ele>4.019691</ele>
|
|
<time>2026-07-11T15:04:41.000Z</time>
|
|
</trkpt>
|
|
<trkpt lat="55.621106" lon="8.146205">
|
|
<ele>4.012222</ele>
|
|
<time>2026-07-11T15:04:42.000Z</time>
|
|
</trkpt>
|
|
<trkpt lat="55.621143" lon="8.146161">
|
|
<ele>4.004990</ele>
|
|
<time>2026-07-11T15:04:43.000Z</time>
|
|
</trkpt>
|
|
<trkpt lat="55.621177" lon="8.146112">
|
|
<ele>3.997878</ele>
|
|
<time>2026-07-11T15:04:44.000Z</time>
|
|
</trkpt>
|
|
<trkpt lat="55.621212" lon="8.146052">
|
|
<ele>3.989974</ele>
|
|
<time>2026-07-11T15:04:45.000Z</time>
|
|
</trkpt>
|
|
<trkpt lat="55.621250" lon="8.145982">
|
|
<ele>3.981077</ele>
|
|
<time>2026-07-11T15:04:46.000Z</time>
|
|
</trkpt>
|
|
<trkpt lat="55.621282" lon="8.145912">
|
|
<ele>3.972825</ele>
|
|
<time>2026-07-11T15:04:47.000Z</time>
|
|
</trkpt>
|
|
<trkpt lat="55.621310" lon="8.145843">
|
|
<ele>3.965040</ele>
|
|
<time>2026-07-11T15:04:48.000Z</time>
|
|
</trkpt>
|
|
<trkpt lat="55.621336" lon="8.145773">
|
|
<ele>3.957363</ele>
|
|
<time>2026-07-11T15:04:49.000Z</time>
|
|
</trkpt>
|
|
<trkpt lat="55.621365" lon="8.145701">
|
|
<ele>3.949260</ele>
|
|
<time>2026-07-11T15:04:50.000Z</time>
|
|
</trkpt>
|
|
<trkpt lat="55.621391" lon="8.145628">
|
|
<ele>3.941352</ele>
|
|
<time>2026-07-11T15:04:51.000Z</time>
|
|
</trkpt>
|
|
<trkpt lat="55.621417" lon="8.145551">
|
|
<ele>3.933132</ele>
|
|
<time>2026-07-11T15:04:52.000Z</time>
|
|
</trkpt>
|
|
<trkpt lat="55.621443" lon="8.145471">
|
|
<ele>3.924675</ele>
|
|
<time>2026-07-11T15:04:53.000Z</time>
|
|
</trkpt>
|
|
<trkpt lat="55.621472" lon="8.145391">
|
|
<ele>3.915965</ele>
|
|
<time>2026-07-11T15:04:54.000Z</time>
|
|
</trkpt>
|
|
<trkpt lat="55.621500" lon="8.145312">
|
|
<ele>3.907419</ele>
|
|
<time>2026-07-11T15:04:55.000Z</time>
|
|
</trkpt>
|
|
<trkpt lat="55.621530" lon="8.145235">
|
|
<ele>3.898848</ele>
|
|
<time>2026-07-11T15:04:56.000Z</time>
|
|
</trkpt>
|
|
<trkpt lat="55.621561" lon="8.145157">
|
|
<ele>3.890109</ele>
|
|
<time>2026-07-11T15:04:57.000Z</time>
|
|
</trkpt>
|
|
<trkpt lat="55.621593" lon="8.145078">
|
|
<ele>3.881201</ele>
|
|
<time>2026-07-11T15:04:58.000Z</time>
|
|
</trkpt>
|
|
<trkpt lat="55.621626" lon="8.144998">
|
|
<ele>3.872124</ele>
|
|
<time>2026-07-11T15:04:59.000Z</time>
|
|
</trkpt>
|
|
<trkpt lat="55.621653" lon="8.144918">
|
|
<ele>3.863584</ele>
|
|
<time>2026-07-11T15:05:00.000Z</time>
|
|
</trkpt>
|
|
<trkpt lat="55.621677" lon="8.144843">
|
|
<ele>3.855686</ele>
|
|
<time>2026-07-11T15:05:01.000Z</time>
|
|
</trkpt>
|
|
<trkpt lat="55.621703" lon="8.144767">
|
|
<ele>3.847545</ele>
|
|
<time>2026-07-11T15:05:02.000Z</time>
|
|
</trkpt>
|
|
<trkpt lat="55.621725" lon="8.144689">
|
|
<ele>3.839556</ele>
|
|
<time>2026-07-11T15:05:03.000Z</time>
|
|
</trkpt>
|
|
<trkpt lat="55.621748" lon="8.144609">
|
|
<ele>3.831331</ele>
|
|
<time>2026-07-11T15:05:04.000Z</time>
|
|
</trkpt>
|
|
<trkpt lat="55.621775" lon="8.144533">
|
|
<ele>3.829397</ele>
|
|
<time>2026-07-11T15:05:05.000Z</time>
|
|
</trkpt>
|
|
<trkpt lat="55.621802" lon="8.144460">
|
|
<ele>3.827607</ele>
|
|
<time>2026-07-11T15:05:06.000Z</time>
|
|
</trkpt>
|
|
<trkpt lat="55.621830" lon="8.144383">
|
|
<ele>3.825728</ele>
|
|
<time>2026-07-11T15:05:07.000Z</time>
|
|
</trkpt>
|
|
<trkpt lat="55.621861" lon="8.144300">
|
|
<ele>3.823687</ele>
|
|
<time>2026-07-11T15:05:08.000Z</time>
|
|
</trkpt>
|
|
<trkpt lat="55.621889" lon="8.144220">
|
|
<ele>3.821756</ele>
|
|
<time>2026-07-11T15:05:09.000Z</time>
|
|
</trkpt>
|
|
<trkpt lat="55.621918" lon="8.144140">
|
|
<ele>3.819806</ele>
|
|
<time>2026-07-11T15:05:10.000Z</time>
|
|
</trkpt>
|
|
<trkpt lat="55.621943" lon="8.144061">
|
|
<ele>3.817949</ele>
|
|
<time>2026-07-11T15:05:11.000Z</time>
|
|
</trkpt>
|
|
<trkpt lat="55.621967" lon="8.143982">
|
|
<ele>3.816109</ele>
|
|
<time>2026-07-11T15:05:12.000Z</time>
|
|
</trkpt>
|
|
<trkpt lat="55.621992" lon="8.143902">
|
|
<ele>3.814233</ele>
|
|
<time>2026-07-11T15:05:13.000Z</time>
|
|
</trkpt>
|
|
<trkpt lat="55.622014" lon="8.143825">
|
|
<ele>3.812463</ele>
|
|
<time>2026-07-11T15:05:14.000Z</time>
|
|
</trkpt>
|
|
<trkpt lat="55.622037" lon="8.143750">
|
|
<ele>3.810712</ele>
|
|
<time>2026-07-11T15:05:15.000Z</time>
|
|
</trkpt>
|
|
<trkpt lat="55.622061" lon="8.143670">
|
|
<ele>3.808854</ele>
|
|
<time>2026-07-11T15:05:16.000Z</time>
|
|
</trkpt>
|
|
<trkpt lat="55.622087" lon="8.143595">
|
|
<ele>3.807049</ele>
|
|
<time>2026-07-11T15:05:17.000Z</time>
|
|
</trkpt>
|
|
<trkpt lat="55.622113" lon="8.143518">
|
|
<ele>3.805208</ele>
|
|
<time>2026-07-11T15:05:18.000Z</time>
|
|
</trkpt>
|
|
<trkpt lat="55.622130" lon="8.143443">
|
|
<ele>3.803550</ele>
|
|
<time>2026-07-11T15:05:19.000Z</time>
|
|
</trkpt>
|
|
<trkpt lat="55.622150" lon="8.143363">
|
|
<ele>3.801756</ele>
|
|
<time>2026-07-11T15:05:20.000Z</time>
|
|
</trkpt>
|
|
<trkpt lat="55.622177" lon="8.143270">
|
|
<ele>3.799611</ele>
|
|
<time>2026-07-11T15:05:21.000Z</time>
|
|
</trkpt>
|
|
<trkpt lat="55.622201" lon="8.143191">
|
|
<ele>3.797771</ele>
|
|
<time>2026-07-11T15:05:22.000Z</time>
|
|
</trkpt>
|
|
<trkpt lat="55.622220" lon="8.143113">
|
|
<ele>3.796028</ele>
|
|
<time>2026-07-11T15:05:23.000Z</time>
|
|
</trkpt>
|
|
<trkpt lat="55.622239" lon="8.143036">
|
|
<ele>3.794304</ele>
|
|
<time>2026-07-11T15:05:24.000Z</time>
|
|
</trkpt>
|
|
<trkpt lat="55.622257" lon="8.142959">
|
|
<ele>3.792595</ele>
|
|
<time>2026-07-11T15:05:25.000Z</time>
|
|
</trkpt>
|
|
<trkpt lat="55.622277" lon="8.142878">
|
|
<ele>3.790781</ele>
|
|
<time>2026-07-11T15:05:26.000Z</time>
|
|
</trkpt>
|
|
<trkpt lat="55.622296" lon="8.142797">
|
|
<ele>3.788982</ele>
|
|
<time>2026-07-11T15:05:27.000Z</time>
|
|
</trkpt>
|
|
<trkpt lat="55.622318" lon="8.142714">
|
|
<ele>3.787101</ele>
|
|
<time>2026-07-11T15:05:28.000Z</time>
|
|
</trkpt>
|
|
<trkpt lat="55.622342" lon="8.142633">
|
|
<ele>3.785225</ele>
|
|
<time>2026-07-11T15:05:29.000Z</time>
|
|
</trkpt>
|
|
<trkpt lat="55.622361" lon="8.142555">
|
|
<ele>3.783482</ele>
|
|
<time>2026-07-11T15:05:30.000Z</time>
|
|
</trkpt>
|
|
<trkpt lat="55.622378" lon="8.142480">
|
|
<ele>3.781825</ele>
|
|
<time>2026-07-11T15:05:31.000Z</time>
|
|
</trkpt>
|
|
<trkpt lat="55.622395" lon="8.142405">
|
|
<ele>3.780167</ele>
|
|
<time>2026-07-11T15:05:32.000Z</time>
|
|
</trkpt>
|
|
<trkpt lat="55.622414" lon="8.142329">
|
|
<ele>3.778462</ele>
|
|
<time>2026-07-11T15:05:33.000Z</time>
|
|
</trkpt>
|
|
<trkpt lat="55.622432" lon="8.142254">
|
|
<ele>3.776790</ele>
|
|
<time>2026-07-11T15:05:34.000Z</time>
|
|
</trkpt>
|
|
<trkpt lat="55.622448" lon="8.142180">
|
|
<ele>3.775165</ele>
|
|
<time>2026-07-11T15:05:35.000Z</time>
|
|
</trkpt>
|
|
<trkpt lat="55.622466" lon="8.142104">
|
|
<ele>3.773474</ele>
|
|
<time>2026-07-11T15:05:36.000Z</time>
|
|
</trkpt>
|
|
<trkpt lat="55.622481" lon="8.142028">
|
|
<ele>3.771823</ele>
|
|
<time>2026-07-11T15:05:37.000Z</time>
|
|
</trkpt>
|
|
<trkpt lat="55.622496" lon="8.141953">
|
|
<ele>3.770191</ele>
|
|
<time>2026-07-11T15:05:38.000Z</time>
|
|
</trkpt>
|
|
<trkpt lat="55.622513" lon="8.141877">
|
|
<ele>3.768514</ele>
|
|
<time>2026-07-11T15:05:39.000Z</time>
|
|
</trkpt>
|
|
<trkpt lat="55.622532" lon="8.141797">
|
|
<ele>3.766734</ele>
|
|
<time>2026-07-11T15:05:40.000Z</time>
|
|
</trkpt>
|
|
<trkpt lat="55.622550" lon="8.141717">
|
|
<ele>3.757472</ele>
|
|
<time>2026-07-11T15:05:41.000Z</time>
|
|
</trkpt>
|
|
<trkpt lat="55.622569" lon="8.141639">
|
|
<ele>3.741278</ele>
|
|
<time>2026-07-11T15:05:42.000Z</time>
|
|
</trkpt>
|
|
<trkpt lat="55.622588" lon="8.141560">
|
|
<ele>3.724908</ele>
|
|
<time>2026-07-11T15:05:43.000Z</time>
|
|
</trkpt>
|
|
<trkpt lat="55.622603" lon="8.141479">
|
|
<ele>3.708657</ele>
|
|
<time>2026-07-11T15:05:44.000Z</time>
|
|
</trkpt>
|
|
<trkpt lat="55.622619" lon="8.141399">
|
|
<ele>3.692478</ele>
|
|
<time>2026-07-11T15:05:45.000Z</time>
|
|
</trkpt>
|
|
<trkpt lat="55.622635" lon="8.141317">
|
|
<ele>3.675939</ele>
|
|
<time>2026-07-11T15:05:46.000Z</time>
|
|
</trkpt>
|
|
<trkpt lat="55.622653" lon="8.141234">
|
|
<ele>3.658989</ele>
|
|
<time>2026-07-11T15:05:47.000Z</time>
|
|
</trkpt>
|
|
<trkpt lat="55.622668" lon="8.141151">
|
|
<ele>3.642375</ele>
|
|
<time>2026-07-11T15:05:48.000Z</time>
|
|
</trkpt>
|
|
<trkpt lat="55.622685" lon="8.141067">
|
|
<ele>3.625364</ele>
|
|
<time>2026-07-11T15:05:49.000Z</time>
|
|
</trkpt>
|
|
<trkpt lat="55.622703" lon="8.140986">
|
|
<ele>3.608770</ele>
|
|
<time>2026-07-11T15:05:50.000Z</time>
|
|
</trkpt>
|
|
<trkpt lat="55.622718" lon="8.140906">
|
|
<ele>3.592700</ele>
|
|
<time>2026-07-11T15:05:51.000Z</time>
|
|
</trkpt>
|
|
<trkpt lat="55.622735" lon="8.140826">
|
|
<ele>3.576405</ele>
|
|
<time>2026-07-11T15:05:52.000Z</time>
|
|
</trkpt>
|
|
<trkpt lat="55.622754" lon="8.140746">
|
|
<ele>3.559860</ele>
|
|
<time>2026-07-11T15:05:53.000Z</time>
|
|
</trkpt>
|
|
<trkpt lat="55.622771" lon="8.140664">
|
|
<ele>3.543207</ele>
|
|
<time>2026-07-11T15:05:54.000Z</time>
|
|
</trkpt>
|
|
<trkpt lat="55.622786" lon="8.140582">
|
|
<ele>3.526775</ele>
|
|
<time>2026-07-11T15:05:55.000Z</time>
|
|
</trkpt>
|
|
<trkpt lat="55.622803" lon="8.140501">
|
|
<ele>3.510302</ele>
|
|
<time>2026-07-11T15:05:56.000Z</time>
|
|
</trkpt>
|
|
<trkpt lat="55.622821" lon="8.140421">
|
|
<ele>3.493885</ele>
|
|
<time>2026-07-11T15:05:57.000Z</time>
|
|
</trkpt>
|
|
<trkpt lat="55.622834" lon="8.140340">
|
|
<ele>3.477831</ele>
|
|
<time>2026-07-11T15:05:58.000Z</time>
|
|
</trkpt>
|
|
<trkpt lat="55.622849" lon="8.140261">
|
|
<ele>3.461943</ele>
|
|
<time>2026-07-11T15:05:59.000Z</time>
|
|
</trkpt>
|
|
<trkpt lat="55.622866" lon="8.140186">
|
|
<ele>3.446536</ele>
|
|
<time>2026-07-11T15:06:00.000Z</time>
|
|
</trkpt>
|
|
<trkpt lat="55.622880" lon="8.140110">
|
|
<ele>3.431296</ele>
|
|
<time>2026-07-11T15:06:01.000Z</time>
|
|
</trkpt>
|
|
<trkpt lat="55.622893" lon="8.140036">
|
|
<ele>3.416522</ele>
|
|
<time>2026-07-11T15:06:02.000Z</time>
|
|
</trkpt>
|
|
<trkpt lat="55.622910" lon="8.139964">
|
|
<ele>3.401644</ele>
|
|
<time>2026-07-11T15:06:03.000Z</time>
|
|
</trkpt>
|
|
<trkpt lat="55.622929" lon="8.139891">
|
|
<ele>3.386321</ele>
|
|
<time>2026-07-11T15:06:04.000Z</time>
|
|
</trkpt>
|
|
<trkpt lat="55.622950" lon="8.139815">
|
|
<ele>3.370191</ele>
|
|
<time>2026-07-11T15:06:05.000Z</time>
|
|
</trkpt>
|
|
<trkpt lat="55.622970" lon="8.139734">
|
|
<ele>3.353337</ele>
|
|
<time>2026-07-11T15:06:06.000Z</time>
|
|
</trkpt>
|
|
<trkpt lat="55.622985" lon="8.139649">
|
|
<ele>3.336360</ele>
|
|
<time>2026-07-11T15:06:07.000Z</time>
|
|
</trkpt>
|
|
<trkpt lat="55.623000" lon="8.139565">
|
|
<ele>3.319565</ele>
|
|
<time>2026-07-11T15:06:08.000Z</time>
|
|
</trkpt>
|
|
<trkpt lat="55.623015" lon="8.139480">
|
|
<ele>3.302588</ele>
|
|
<time>2026-07-11T15:06:09.000Z</time>
|
|
</trkpt>
|
|
<trkpt lat="55.623030" lon="8.139395">
|
|
<ele>3.285612</ele>
|
|
<time>2026-07-11T15:06:10.000Z</time>
|
|
</trkpt>
|
|
<trkpt lat="55.623047" lon="8.139313">
|
|
<ele>3.268959</ele>
|
|
<time>2026-07-11T15:06:11.000Z</time>
|
|
</trkpt>
|
|
<trkpt lat="55.623065" lon="8.139230">
|
|
<ele>3.252010</ele>
|
|
<time>2026-07-11T15:06:12.000Z</time>
|
|
</trkpt>
|
|
<trkpt lat="55.623084" lon="8.139147">
|
|
<ele>3.234936</ele>
|
|
<time>2026-07-11T15:06:13.000Z</time>
|
|
</trkpt>
|
|
<trkpt lat="55.623106" lon="8.139068">
|
|
<ele>3.218144</ele>
|
|
<time>2026-07-11T15:06:14.000Z</time>
|
|
</trkpt>
|
|
<trkpt lat="55.623129" lon="8.138992">
|
|
<ele>3.201706</ele>
|
|
<time>2026-07-11T15:06:15.000Z</time>
|
|
</trkpt>
|
|
<trkpt lat="55.623154" lon="8.138918">
|
|
<ele>3.185266</ele>
|
|
<time>2026-07-11T15:06:16.000Z</time>
|
|
</trkpt>
|
|
<trkpt lat="55.623180" lon="8.138845">
|
|
<ele>3.168813</ele>
|
|
<time>2026-07-11T15:06:17.000Z</time>
|
|
</trkpt>
|
|
<trkpt lat="55.623207" lon="8.138778">
|
|
<ele>3.156131</ele>
|
|
<time>2026-07-11T15:06:18.000Z</time>
|
|
</trkpt>
|
|
<trkpt lat="55.623237" lon="8.138715">
|
|
<ele>3.149043</ele>
|
|
<time>2026-07-11T15:06:19.000Z</time>
|
|
</trkpt>
|
|
<trkpt lat="55.623270" lon="8.138652">
|
|
<ele>3.141653</ele>
|
|
<time>2026-07-11T15:06:20.000Z</time>
|
|
</trkpt>
|
|
<trkpt lat="55.623301" lon="8.138593">
|
|
<ele>3.134721</ele>
|
|
<time>2026-07-11T15:06:21.000Z</time>
|
|
</trkpt>
|
|
<trkpt lat="55.623338" lon="8.138537">
|
|
<ele>3.127308</ele>
|
|
<time>2026-07-11T15:06:22.000Z</time>
|
|
</trkpt>
|
|
<trkpt lat="55.623376" lon="8.138482">
|
|
<ele>3.119833</ele>
|
|
<time>2026-07-11T15:06:23.000Z</time>
|
|
</trkpt>
|
|
<trkpt lat="55.623416" lon="8.138429">
|
|
<ele>3.112224</ele>
|
|
<time>2026-07-11T15:06:24.000Z</time>
|
|
</trkpt>
|
|
<trkpt lat="55.623460" lon="8.138377">
|
|
<ele>3.104167</ele>
|
|
<time>2026-07-11T15:06:25.000Z</time>
|
|
</trkpt>
|
|
<trkpt lat="55.623505" lon="8.138323">
|
|
<ele>3.095888</ele>
|
|
<time>2026-07-11T15:06:26.000Z</time>
|
|
</trkpt>
|
|
<trkpt lat="55.623551" lon="8.138273">
|
|
<ele>3.087667</ele>
|
|
<time>2026-07-11T15:06:27.000Z</time>
|
|
</trkpt>
|
|
<trkpt lat="55.623599" lon="8.138226">
|
|
<ele>3.079313</ele>
|
|
<time>2026-07-11T15:06:28.000Z</time>
|
|
</trkpt>
|
|
<trkpt lat="55.623650" lon="8.138177">
|
|
<ele>3.070475</ele>
|
|
<time>2026-07-11T15:06:29.000Z</time>
|
|
</trkpt>
|
|
<trkpt lat="55.623699" lon="8.138126">
|
|
<ele>3.061818</ele>
|
|
<time>2026-07-11T15:06:30.000Z</time>
|
|
</trkpt>
|
|
<trkpt lat="55.623750" lon="8.138082">
|
|
<ele>3.053178</ele>
|
|
<time>2026-07-11T15:06:31.000Z</time>
|
|
</trkpt>
|
|
<trkpt lat="55.623805" lon="8.138047">
|
|
<ele>3.044276</ele>
|
|
<time>2026-07-11T15:06:32.000Z</time>
|
|
</trkpt>
|
|
<trkpt lat="55.623857" lon="8.138021">
|
|
<ele>3.036046</ele>
|
|
<time>2026-07-11T15:06:33.000Z</time>
|
|
</trkpt>
|
|
<trkpt lat="55.623909" lon="8.137999">
|
|
<ele>3.027902</ele>
|
|
<time>2026-07-11T15:06:34.000Z</time>
|
|
</trkpt>
|
|
<trkpt lat="55.623973" lon="8.137976">
|
|
<ele>3.017956</ele>
|
|
<time>2026-07-11T15:06:35.000Z</time>
|
|
</trkpt>
|
|
<trkpt lat="55.624032" lon="8.137961">
|
|
<ele>3.008877</ele>
|
|
<time>2026-07-11T15:06:36.000Z</time>
|
|
</trkpt>
|
|
<trkpt lat="55.624088" lon="8.137954">
|
|
<ele>3.000326</ele>
|
|
<time>2026-07-11T15:06:37.000Z</time>
|
|
</trkpt>
|
|
<trkpt lat="55.624146" lon="8.137951">
|
|
<ele>2.991488</ele>
|
|
<time>2026-07-11T15:06:38.000Z</time>
|
|
</trkpt>
|
|
<trkpt lat="55.624204" lon="8.137952">
|
|
<ele>2.982653</ele>
|
|
<time>2026-07-11T15:06:39.000Z</time>
|
|
</trkpt>
|
|
<trkpt lat="55.624258" lon="8.137959">
|
|
<ele>2.974406</ele>
|
|
<time>2026-07-11T15:06:40.000Z</time>
|
|
</trkpt>
|
|
<trkpt lat="55.624317" lon="8.137972">
|
|
<ele>2.965350</ele>
|
|
<time>2026-07-11T15:06:41.000Z</time>
|
|
</trkpt>
|
|
<trkpt lat="55.624374" lon="8.137988">
|
|
<ele>2.956560</ele>
|
|
<time>2026-07-11T15:06:42.000Z</time>
|
|
</trkpt>
|
|
<trkpt lat="55.624427" lon="8.138007">
|
|
<ele>2.948323</ele>
|
|
<time>2026-07-11T15:06:43.000Z</time>
|
|
</trkpt>
|
|
<trkpt lat="55.624479" lon="8.138027">
|
|
<ele>2.940218</ele>
|
|
<time>2026-07-11T15:06:44.000Z</time>
|
|
</trkpt>
|
|
<trkpt lat="55.624531" lon="8.138049">
|
|
<ele>2.932075</ele>
|
|
<time>2026-07-11T15:06:45.000Z</time>
|
|
</trkpt>
|
|
<trkpt lat="55.624581" lon="8.138069">
|
|
<ele>2.924267</ele>
|
|
<time>2026-07-11T15:06:46.000Z</time>
|
|
</trkpt>
|
|
<trkpt lat="55.624628" lon="8.138086">
|
|
<ele>2.916961</ele>
|
|
<time>2026-07-11T15:06:47.000Z</time>
|
|
</trkpt>
|
|
<trkpt lat="55.624678" lon="8.138103">
|
|
<ele>2.909206</ele>
|
|
<time>2026-07-11T15:06:48.000Z</time>
|
|
</trkpt>
|
|
<trkpt lat="55.624726" lon="8.138118">
|
|
<ele>2.901782</ele>
|
|
<time>2026-07-11T15:06:49.000Z</time>
|
|
</trkpt>
|
|
<trkpt lat="55.624771" lon="8.138130">
|
|
<ele>2.894850</ele>
|
|
<time>2026-07-11T15:06:50.000Z</time>
|
|
</trkpt>
|
|
<trkpt lat="55.624819" lon="8.138144">
|
|
<ele>2.887440</ele>
|
|
<time>2026-07-11T15:06:51.000Z</time>
|
|
</trkpt>
|
|
<trkpt lat="55.624867" lon="8.138162">
|
|
<ele>2.881513</ele>
|
|
<time>2026-07-11T15:06:52.000Z</time>
|
|
</trkpt>
|
|
<trkpt lat="55.624914" lon="8.138181">
|
|
<ele>2.876597</ele>
|
|
<time>2026-07-11T15:06:53.000Z</time>
|
|
</trkpt>
|
|
<trkpt lat="55.624963" lon="8.138193">
|
|
<ele>2.871554</ele>
|
|
<time>2026-07-11T15:06:54.000Z</time>
|
|
</trkpt>
|
|
<trkpt lat="55.625016" lon="8.138203">
|
|
<ele>2.866119</ele>
|
|
<time>2026-07-11T15:06:55.000Z</time>
|
|
</trkpt>
|
|
<trkpt lat="55.625072" lon="8.138210">
|
|
<ele>2.860395</ele>
|
|
<time>2026-07-11T15:06:56.000Z</time>
|
|
</trkpt>
|
|
<trkpt lat="55.625129" lon="8.138215">
|
|
<ele>2.854576</ele>
|
|
<time>2026-07-11T15:06:57.000Z</time>
|
|
</trkpt>
|
|
<trkpt lat="55.625189" lon="8.138221">
|
|
<ele>2.848449</ele>
|
|
<time>2026-07-11T15:06:58.000Z</time>
|
|
</trkpt>
|
|
<trkpt lat="55.625245" lon="8.138230">
|
|
<ele>2.842716</ele>
|
|
<time>2026-07-11T15:06:59.000Z</time>
|
|
</trkpt>
|
|
<trkpt lat="55.625301" lon="8.138241">
|
|
<ele>2.836971</ele>
|
|
<time>2026-07-11T15:07:00.000Z</time>
|
|
</trkpt>
|
|
<trkpt lat="55.625359" lon="8.138251">
|
|
<ele>2.831029</ele>
|
|
<time>2026-07-11T15:07:01.000Z</time>
|
|
</trkpt>
|
|
<trkpt lat="55.625416" lon="8.138259">
|
|
<ele>2.825199</ele>
|
|
<time>2026-07-11T15:07:02.000Z</time>
|
|
</trkpt>
|
|
<trkpt lat="55.625472" lon="8.138265">
|
|
<ele>2.819479</ele>
|
|
<time>2026-07-11T15:07:03.000Z</time>
|
|
</trkpt>
|
|
<trkpt lat="55.625528" lon="8.138270">
|
|
<ele>2.813762</ele>
|
|
<time>2026-07-11T15:07:04.000Z</time>
|
|
</trkpt>
|
|
<trkpt lat="55.625583" lon="8.138275">
|
|
<ele>2.808146</ele>
|
|
<time>2026-07-11T15:07:05.000Z</time>
|
|
</trkpt>
|
|
<trkpt lat="55.625638" lon="8.138280">
|
|
<ele>2.802531</ele>
|
|
<time>2026-07-11T15:07:06.000Z</time>
|
|
</trkpt>
|
|
<trkpt lat="55.625689" lon="8.138284">
|
|
<ele>2.797326</ele>
|
|
<time>2026-07-11T15:07:07.000Z</time>
|
|
</trkpt>
|
|
<trkpt lat="55.625740" lon="8.138290">
|
|
<ele>2.792114</ele>
|
|
<time>2026-07-11T15:07:08.000Z</time>
|
|
</trkpt>
|
|
<trkpt lat="55.625793" lon="8.138299">
|
|
<ele>2.786686</ele>
|
|
<time>2026-07-11T15:07:09.000Z</time>
|
|
</trkpt>
|
|
<trkpt lat="55.625845" lon="8.138306">
|
|
<ele>2.781368</ele>
|
|
<time>2026-07-11T15:07:10.000Z</time>
|
|
</trkpt>
|
|
<trkpt lat="55.625896" lon="8.138311">
|
|
<ele>2.776160</ele>
|
|
<time>2026-07-11T15:07:11.000Z</time>
|
|
</trkpt>
|
|
<trkpt lat="55.625948" lon="8.138315">
|
|
<ele>2.770853</ele>
|
|
<time>2026-07-11T15:07:12.000Z</time>
|
|
</trkpt>
|
|
<trkpt lat="55.625999" lon="8.138320">
|
|
<ele>2.765645</ele>
|
|
<time>2026-07-11T15:07:13.000Z</time>
|
|
</trkpt>
|
|
<trkpt lat="55.626053" lon="8.138330">
|
|
<ele>2.760109</ele>
|
|
<time>2026-07-11T15:07:14.000Z</time>
|
|
</trkpt>
|
|
<trkpt lat="55.626105" lon="8.138344">
|
|
<ele>2.754746</ele>
|
|
<time>2026-07-11T15:07:15.000Z</time>
|
|
</trkpt>
|
|
<trkpt lat="55.626156" lon="8.138364">
|
|
<ele>2.749421</ele>
|
|
<time>2026-07-11T15:07:16.000Z</time>
|
|
</trkpt>
|
|
<trkpt lat="55.626211" lon="8.138388">
|
|
<ele>2.743645</ele>
|
|
<time>2026-07-11T15:07:17.000Z</time>
|
|
</trkpt>
|
|
<trkpt lat="55.626268" lon="8.138410">
|
|
<ele>2.737697</ele>
|
|
<time>2026-07-11T15:07:18.000Z</time>
|
|
</trkpt>
|
|
<trkpt lat="55.626326" lon="8.138434">
|
|
<ele>2.731624</ele>
|
|
<time>2026-07-11T15:07:19.000Z</time>
|
|
</trkpt>
|
|
<trkpt lat="55.626381" lon="8.138457">
|
|
<ele>2.725862</ele>
|
|
<time>2026-07-11T15:07:20.000Z</time>
|
|
</trkpt>
|
|
<trkpt lat="55.626434" lon="8.138476">
|
|
<ele>2.720348</ele>
|
|
<time>2026-07-11T15:07:21.000Z</time>
|
|
</trkpt>
|
|
<trkpt lat="55.626488" lon="8.138496">
|
|
<ele>2.714723</ele>
|
|
<time>2026-07-11T15:07:22.000Z</time>
|
|
</trkpt>
|
|
<trkpt lat="55.626541" lon="8.138517">
|
|
<ele>2.709186</ele>
|
|
<time>2026-07-11T15:07:23.000Z</time>
|
|
</trkpt>
|
|
<trkpt lat="55.626595" lon="8.138535">
|
|
<ele>2.703583</ele>
|
|
<time>2026-07-11T15:07:24.000Z</time>
|
|
</trkpt>
|
|
<trkpt lat="55.626650" lon="8.138553">
|
|
<ele>2.704161</ele>
|
|
<time>2026-07-11T15:07:25.000Z</time>
|
|
</trkpt>
|
|
<trkpt lat="55.626701" lon="8.138570">
|
|
<ele>2.708732</ele>
|
|
<time>2026-07-11T15:07:26.000Z</time>
|
|
</trkpt>
|
|
<trkpt lat="55.626751" lon="8.138588">
|
|
<ele>2.713225</ele>
|
|
<time>2026-07-11T15:07:27.000Z</time>
|
|
</trkpt>
|
|
<trkpt lat="55.626798" lon="8.138605">
|
|
<ele>2.717450</ele>
|
|
<time>2026-07-11T15:07:28.000Z</time>
|
|
</trkpt>
|
|
<trkpt lat="55.626850" lon="8.138620">
|
|
<ele>2.722090</ele>
|
|
<time>2026-07-11T15:07:29.000Z</time>
|
|
</trkpt>
|
|
<trkpt lat="55.626904" lon="8.138632">
|
|
<ele>2.726883</ele>
|
|
<time>2026-07-11T15:07:30.000Z</time>
|
|
</trkpt>
|
|
<trkpt lat="55.626957" lon="8.138643">
|
|
<ele>2.731583</ele>
|
|
<time>2026-07-11T15:07:31.000Z</time>
|
|
</trkpt>
|
|
<trkpt lat="55.627010" lon="8.138657">
|
|
<ele>2.736302</ele>
|
|
<time>2026-07-11T15:07:32.000Z</time>
|
|
</trkpt>
|
|
<trkpt lat="55.627063" lon="8.138678">
|
|
<ele>2.741085</ele>
|
|
<time>2026-07-11T15:07:33.000Z</time>
|
|
</trkpt>
|
|
<trkpt lat="55.627116" lon="8.138698">
|
|
<ele>2.745857</ele>
|
|
<time>2026-07-11T15:07:34.000Z</time>
|
|
</trkpt>
|
|
<trkpt lat="55.627172" lon="8.138717">
|
|
<ele>2.750879</ele>
|
|
<time>2026-07-11T15:07:35.000Z</time>
|
|
</trkpt>
|
|
<trkpt lat="55.627227" lon="8.138736">
|
|
<ele>2.755814</ele>
|
|
<time>2026-07-11T15:07:36.000Z</time>
|
|
</trkpt>
|
|
<trkpt lat="55.627282" lon="8.138754">
|
|
<ele>2.760740</ele>
|
|
<time>2026-07-11T15:07:37.000Z</time>
|
|
</trkpt>
|
|
<trkpt lat="55.627338" lon="8.138771">
|
|
<ele>2.765744</ele>
|
|
<time>2026-07-11T15:07:38.000Z</time>
|
|
</trkpt>
|
|
<trkpt lat="55.627393" lon="8.138784">
|
|
<ele>2.770631</ele>
|
|
<time>2026-07-11T15:07:39.000Z</time>
|
|
</trkpt>
|
|
<trkpt lat="55.627450" lon="8.138799">
|
|
<ele>2.775706</ele>
|
|
<time>2026-07-11T15:07:40.000Z</time>
|
|
</trkpt>
|
|
<trkpt lat="55.627506" lon="8.138817">
|
|
<ele>2.780718</ele>
|
|
<time>2026-07-11T15:07:41.000Z</time>
|
|
</trkpt>
|
|
<trkpt lat="55.627561" lon="8.138839">
|
|
<ele>2.785684</ele>
|
|
<time>2026-07-11T15:07:42.000Z</time>
|
|
</trkpt>
|
|
<trkpt lat="55.627618" lon="8.138864">
|
|
<ele>2.790856</ele>
|
|
<time>2026-07-11T15:07:43.000Z</time>
|
|
</trkpt>
|
|
<trkpt lat="55.627674" lon="8.138887">
|
|
<ele>2.795919</ele>
|
|
<time>2026-07-11T15:07:44.000Z</time>
|
|
</trkpt>
|
|
<trkpt lat="55.627730" lon="8.138910">
|
|
<ele>2.800981</ele>
|
|
<time>2026-07-11T15:07:45.000Z</time>
|
|
</trkpt>
|
|
<trkpt lat="55.627785" lon="8.138932">
|
|
<ele>2.805947</ele>
|
|
<time>2026-07-11T15:07:46.000Z</time>
|
|
</trkpt>
|
|
<trkpt lat="55.627837" lon="8.138951">
|
|
<ele>2.810623</ele>
|
|
<time>2026-07-11T15:07:47.000Z</time>
|
|
</trkpt>
|
|
<trkpt lat="55.627888" lon="8.138968">
|
|
<ele>2.815194</ele>
|
|
<time>2026-07-11T15:07:48.000Z</time>
|
|
</trkpt>
|
|
<trkpt lat="55.627939" lon="8.138984">
|
|
<ele>2.819755</ele>
|
|
<time>2026-07-11T15:07:49.000Z</time>
|
|
</trkpt>
|
|
<trkpt lat="55.627989" lon="8.139002">
|
|
<ele>2.824249</ele>
|
|
<time>2026-07-11T15:07:50.000Z</time>
|
|
</trkpt>
|
|
<trkpt lat="55.628044" lon="8.139022">
|
|
<ele>2.829194</ele>
|
|
<time>2026-07-11T15:07:51.000Z</time>
|
|
</trkpt>
|
|
<trkpt lat="55.628097" lon="8.139042">
|
|
<ele>2.833966</ele>
|
|
<time>2026-07-11T15:07:52.000Z</time>
|
|
</trkpt>
|
|
<trkpt lat="55.628150" lon="8.139060">
|
|
<ele>2.838719</ele>
|
|
<time>2026-07-11T15:07:53.000Z</time>
|
|
</trkpt>
|
|
<trkpt lat="55.628202" lon="8.139077">
|
|
<ele>2.843376</ele>
|
|
<time>2026-07-11T15:07:54.000Z</time>
|
|
</trkpt>
|
|
<trkpt lat="55.628252" lon="8.139096">
|
|
<ele>2.847879</ele>
|
|
<time>2026-07-11T15:07:55.000Z</time>
|
|
</trkpt>
|
|
<trkpt lat="55.628302" lon="8.139113">
|
|
<ele>2.852363</ele>
|
|
<time>2026-07-11T15:07:56.000Z</time>
|
|
</trkpt>
|
|
<trkpt lat="55.628352" lon="8.139127">
|
|
<ele>2.856822</ele>
|
|
<time>2026-07-11T15:07:57.000Z</time>
|
|
</trkpt>
|
|
<trkpt lat="55.628399" lon="8.139140">
|
|
<ele>2.864073</ele>
|
|
<time>2026-07-11T15:07:58.000Z</time>
|
|
</trkpt>
|
|
<trkpt lat="55.628444" lon="8.139155">
|
|
<ele>2.877228</ele>
|
|
<time>2026-07-11T15:07:59.000Z</time>
|
|
</trkpt>
|
|
<trkpt lat="55.628487" lon="8.139169">
|
|
<ele>2.889788</ele>
|
|
<time>2026-07-11T15:08:00.000Z</time>
|
|
</trkpt>
|
|
<trkpt lat="55.628526" lon="8.139179">
|
|
<ele>2.901108</ele>
|
|
<time>2026-07-11T15:08:01.000Z</time>
|
|
</trkpt>
|
|
<trkpt lat="55.628567" lon="8.139195">
|
|
<ele>2.913169</ele>
|
|
<time>2026-07-11T15:08:02.000Z</time>
|
|
</trkpt>
|
|
<trkpt lat="55.628613" lon="8.139215">
|
|
<ele>2.926776</ele>
|
|
<time>2026-07-11T15:08:03.000Z</time>
|
|
</trkpt>
|
|
<trkpt lat="55.628656" lon="8.139235">
|
|
<ele>2.939548</ele>
|
|
<time>2026-07-11T15:08:04.000Z</time>
|
|
</trkpt>
|
|
<trkpt lat="55.628699" lon="8.139256">
|
|
<ele>2.952361</ele>
|
|
<time>2026-07-11T15:08:05.000Z</time>
|
|
</trkpt>
|
|
<trkpt lat="55.628745" lon="8.139277">
|
|
<ele>2.966008</ele>
|
|
<time>2026-07-11T15:08:06.000Z</time>
|
|
</trkpt>
|
|
<trkpt lat="55.628792" lon="8.139296">
|
|
<ele>2.979857</ele>
|
|
<time>2026-07-11T15:08:07.000Z</time>
|
|
</trkpt>
|
|
<trkpt lat="55.628840" lon="8.139313">
|
|
<ele>2.993919</ele>
|
|
<time>2026-07-11T15:08:08.000Z</time>
|
|
</trkpt>
|
|
<trkpt lat="55.628888" lon="8.139326">
|
|
<ele>3.007869</ele>
|
|
<time>2026-07-11T15:08:09.000Z</time>
|
|
</trkpt>
|
|
<trkpt lat="55.628933" lon="8.139336">
|
|
<ele>3.020898</ele>
|
|
<time>2026-07-11T15:08:10.000Z</time>
|
|
</trkpt>
|
|
<trkpt lat="55.628979" lon="8.139347">
|
|
<ele>3.034232</ele>
|
|
<time>2026-07-11T15:08:11.000Z</time>
|
|
</trkpt>
|
|
<trkpt lat="55.629025" lon="8.139362">
|
|
<ele>3.047669</ele>
|
|
<time>2026-07-11T15:08:12.000Z</time>
|
|
</trkpt>
|
|
<trkpt lat="55.629071" lon="8.139379">
|
|
<ele>3.061168</ele>
|
|
<time>2026-07-11T15:08:13.000Z</time>
|
|
</trkpt>
|
|
<trkpt lat="55.629117" lon="8.139399">
|
|
<ele>3.074775</ele>
|
|
<time>2026-07-11T15:08:14.000Z</time>
|
|
</trkpt>
|
|
<trkpt lat="55.629164" lon="8.139419">
|
|
<ele>3.088661</ele>
|
|
<time>2026-07-11T15:08:15.000Z</time>
|
|
</trkpt>
|
|
<trkpt lat="55.629217" lon="8.139441">
|
|
<ele>3.104300</ele>
|
|
<time>2026-07-11T15:08:16.000Z</time>
|
|
</trkpt>
|
|
<trkpt lat="55.629266" lon="8.139460">
|
|
<ele>3.118709</ele>
|
|
<time>2026-07-11T15:08:17.000Z</time>
|
|
</trkpt>
|
|
<trkpt lat="55.629316" lon="8.139479">
|
|
<ele>3.133400</ele>
|
|
<time>2026-07-11T15:08:18.000Z</time>
|
|
</trkpt>
|
|
<trkpt lat="55.629363" lon="8.139499">
|
|
<ele>3.147286</ele>
|
|
<time>2026-07-11T15:08:19.000Z</time>
|
|
</trkpt>
|
|
<trkpt lat="55.629405" lon="8.139524">
|
|
<ele>3.160015</ele>
|
|
<time>2026-07-11T15:08:20.000Z</time>
|
|
</trkpt>
|
|
<trkpt lat="55.629450" lon="8.139551">
|
|
<ele>3.173664</ele>
|
|
<time>2026-07-11T15:08:21.000Z</time>
|
|
</trkpt>
|
|
<trkpt lat="55.629496" lon="8.139575">
|
|
<ele>3.187440</ele>
|
|
<time>2026-07-11T15:08:22.000Z</time>
|
|
</trkpt>
|
|
<trkpt lat="55.629541" lon="8.139595">
|
|
<ele>3.200768</ele>
|
|
<time>2026-07-11T15:08:23.000Z</time>
|
|
</trkpt>
|
|
<trkpt lat="55.629590" lon="8.139616">
|
|
<ele>3.215251</ele>
|
|
<time>2026-07-11T15:08:24.000Z</time>
|
|
</trkpt>
|
|
<trkpt lat="55.629635" lon="8.139637">
|
|
<ele>3.228619</ele>
|
|
<time>2026-07-11T15:08:25.000Z</time>
|
|
</trkpt>
|
|
<trkpt lat="55.629685" lon="8.139656">
|
|
<ele>3.243310</ele>
|
|
<time>2026-07-11T15:08:26.000Z</time>
|
|
</trkpt>
|
|
<trkpt lat="55.629736" lon="8.139672">
|
|
<ele>3.258189</ele>
|
|
<time>2026-07-11T15:08:27.000Z</time>
|
|
</trkpt>
|
|
<trkpt lat="55.629788" lon="8.139689">
|
|
<ele>3.273380</ele>
|
|
<time>2026-07-11T15:08:28.000Z</time>
|
|
</trkpt>
|
|
<trkpt lat="55.629840" lon="8.139712">
|
|
<ele>3.288777</ele>
|
|
<time>2026-07-11T15:08:29.000Z</time>
|
|
</trkpt>
|
|
<trkpt lat="55.629888" lon="8.139738">
|
|
<ele>3.303196</ele>
|
|
<time>2026-07-11T15:08:30.000Z</time>
|
|
</trkpt>
|
|
<trkpt lat="55.629935" lon="8.139768">
|
|
<ele>3.317548</ele>
|
|
<time>2026-07-11T15:08:31.000Z</time>
|
|
</trkpt>
|
|
<trkpt lat="55.629986" lon="8.139792">
|
|
<ele>3.332707</ele>
|
|
<time>2026-07-11T15:08:32.000Z</time>
|
|
</trkpt>
|
|
<trkpt lat="55.630041" lon="8.139811">
|
|
<ele>3.348805</ele>
|
|
<time>2026-07-11T15:08:33.000Z</time>
|
|
</trkpt>
|
|
<trkpt lat="55.630098" lon="8.139831">
|
|
<ele>3.365498</ele>
|
|
<time>2026-07-11T15:08:34.000Z</time>
|
|
</trkpt>
|
|
<trkpt lat="55.630157" lon="8.139852">
|
|
<ele>3.371427</ele>
|
|
<time>2026-07-11T15:08:35.000Z</time>
|
|
</trkpt>
|
|
<trkpt lat="55.630216" lon="8.139873">
|
|
<ele>3.358132</ele>
|
|
<time>2026-07-11T15:08:36.000Z</time>
|
|
</trkpt>
|
|
<trkpt lat="55.630271" lon="8.139891">
|
|
<ele>3.345776</ele>
|
|
<time>2026-07-11T15:08:37.000Z</time>
|
|
</trkpt>
|
|
<trkpt lat="55.630324" lon="8.139913">
|
|
<ele>3.333751</ele>
|
|
<time>2026-07-11T15:08:38.000Z</time>
|
|
</trkpt>
|
|
<trkpt lat="55.630371" lon="8.139933">
|
|
<ele>3.323072</ele>
|
|
<time>2026-07-11T15:08:39.000Z</time>
|
|
</trkpt>
|
|
<trkpt lat="55.630421" lon="8.139949">
|
|
<ele>3.311847</ele>
|
|
<time>2026-07-11T15:08:40.000Z</time>
|
|
</trkpt>
|
|
<trkpt lat="55.630482" lon="8.139972">
|
|
<ele>3.298069</ele>
|
|
<time>2026-07-11T15:08:41.000Z</time>
|
|
</trkpt>
|
|
<trkpt lat="55.630536" lon="8.139999">
|
|
<ele>3.285674</ele>
|
|
<time>2026-07-11T15:08:42.000Z</time>
|
|
</trkpt>
|
|
<trkpt lat="55.630591" lon="8.140022">
|
|
<ele>3.273189</ele>
|
|
<time>2026-07-11T15:08:43.000Z</time>
|
|
</trkpt>
|
|
<trkpt lat="55.630645" lon="8.140042">
|
|
<ele>3.261002</ele>
|
|
<time>2026-07-11T15:08:44.000Z</time>
|
|
</trkpt>
|
|
<trkpt lat="55.630699" lon="8.140062">
|
|
<ele>3.248814</ele>
|
|
<time>2026-07-11T15:08:45.000Z</time>
|
|
</trkpt>
|
|
<trkpt lat="55.630754" lon="8.140083">
|
|
<ele>3.236385</ele>
|
|
<time>2026-07-11T15:08:46.000Z</time>
|
|
</trkpt>
|
|
<trkpt lat="55.630810" lon="8.140102">
|
|
<ele>3.223788</ele>
|
|
<time>2026-07-11T15:08:47.000Z</time>
|
|
</trkpt>
|
|
<trkpt lat="55.630861" lon="8.140120">
|
|
<ele>3.212300</ele>
|
|
<time>2026-07-11T15:08:48.000Z</time>
|
|
</trkpt>
|
|
<trkpt lat="55.630912" lon="8.140137">
|
|
<ele>3.200835</ele>
|
|
<time>2026-07-11T15:08:49.000Z</time>
|
|
</trkpt>
|
|
<trkpt lat="55.630964" lon="8.140152">
|
|
<ele>3.189196</ele>
|
|
<time>2026-07-11T15:08:50.000Z</time>
|
|
</trkpt>
|
|
<trkpt lat="55.631013" lon="8.140168">
|
|
<ele>3.178189</ele>
|
|
<time>2026-07-11T15:08:51.000Z</time>
|
|
</trkpt>
|
|
<trkpt lat="55.631061" lon="8.140183">
|
|
<ele>3.167421</ele>
|
|
<time>2026-07-11T15:08:52.000Z</time>
|
|
</trkpt>
|
|
<trkpt lat="55.631108" lon="8.140198">
|
|
<ele>3.156871</ele>
|
|
<time>2026-07-11T15:08:53.000Z</time>
|
|
</trkpt>
|
|
<trkpt lat="55.631154" lon="8.140214">
|
|
<ele>3.146515</ele>
|
|
<time>2026-07-11T15:08:54.000Z</time>
|
|
</trkpt>
|
|
<trkpt lat="55.631197" lon="8.140229">
|
|
<ele>3.136833</ele>
|
|
<time>2026-07-11T15:08:55.000Z</time>
|
|
</trkpt>
|
|
<trkpt lat="55.631240" lon="8.140243">
|
|
<ele>3.127174</ele>
|
|
<time>2026-07-11T15:08:56.000Z</time>
|
|
</trkpt>
|
|
<trkpt lat="55.631282" lon="8.140258">
|
|
<ele>3.117709</ele>
|
|
<time>2026-07-11T15:08:57.000Z</time>
|
|
</trkpt>
|
|
<trkpt lat="55.631325" lon="8.140274">
|
|
<ele>3.108002</ele>
|
|
<time>2026-07-11T15:08:58.000Z</time>
|
|
</trkpt>
|
|
<trkpt lat="55.631368" lon="8.140290">
|
|
<ele>3.098295</ele>
|
|
<time>2026-07-11T15:08:59.000Z</time>
|
|
</trkpt>
|
|
<trkpt lat="55.631406" lon="8.140304">
|
|
<ele>3.089721</ele>
|
|
<time>2026-07-11T15:09:00.000Z</time>
|
|
</trkpt>
|
|
<trkpt lat="55.631445" lon="8.140319">
|
|
<ele>3.080904</ele>
|
|
<time>2026-07-11T15:09:01.000Z</time>
|
|
</trkpt>
|
|
<trkpt lat="55.631485" lon="8.140334">
|
|
<ele>3.071872</ele>
|
|
<time>2026-07-11T15:09:02.000Z</time>
|
|
</trkpt>
|
|
<trkpt lat="55.631523" lon="8.140346">
|
|
<ele>3.063344</ele>
|
|
<time>2026-07-11T15:09:03.000Z</time>
|
|
</trkpt>
|
|
<trkpt lat="55.631557" lon="8.140356">
|
|
<ele>3.055730</ele>
|
|
<time>2026-07-11T15:09:04.000Z</time>
|
|
</trkpt>
|
|
<trkpt lat="55.631590" lon="8.140365">
|
|
<ele>3.048354</ele>
|
|
<time>2026-07-11T15:09:05.000Z</time>
|
|
</trkpt>
|
|
<trkpt lat="55.631621" lon="8.140376">
|
|
<ele>3.041370</ele>
|
|
<time>2026-07-11T15:09:06.000Z</time>
|
|
</trkpt>
|
|
<trkpt lat="55.631655" lon="8.140388">
|
|
<ele>3.033711</ele>
|
|
<time>2026-07-11T15:09:07.000Z</time>
|
|
</trkpt>
|
|
<trkpt lat="55.631684" lon="8.140396">
|
|
<ele>3.027227</ele>
|
|
<time>2026-07-11T15:09:08.000Z</time>
|
|
</trkpt>
|
|
<trkpt lat="55.631709" lon="8.140402">
|
|
<ele>3.021653</ele>
|
|
<time>2026-07-11T15:09:09.000Z</time>
|
|
</trkpt>
|
|
<trkpt lat="55.631734" lon="8.140407">
|
|
<ele>3.016095</ele>
|
|
<time>2026-07-11T15:09:10.000Z</time>
|
|
</trkpt>
|
|
<trkpt lat="55.631764" lon="8.140413">
|
|
<ele>3.009426</ele>
|
|
<time>2026-07-11T15:09:11.000Z</time>
|
|
</trkpt>
|
|
<trkpt lat="55.631794" lon="8.140423">
|
|
<ele>3.002682</ele>
|
|
<time>2026-07-11T15:09:12.000Z</time>
|
|
</trkpt>
|
|
<trkpt lat="55.631824" lon="8.140439">
|
|
<ele>2.995760</ele>
|
|
<time>2026-07-11T15:09:13.000Z</time>
|
|
</trkpt>
|
|
<trkpt lat="55.631853" lon="8.140454">
|
|
<ele>2.989086</ele>
|
|
<time>2026-07-11T15:09:14.000Z</time>
|
|
</trkpt>
|
|
<trkpt lat="55.631885" lon="8.140467">
|
|
<ele>2.981833</ele>
|
|
<time>2026-07-11T15:09:15.000Z</time>
|
|
</trkpt>
|
|
<trkpt lat="55.631916" lon="8.140480">
|
|
<ele>2.982941</ele>
|
|
<time>2026-07-11T15:09:16.000Z</time>
|
|
</trkpt>
|
|
<trkpt lat="55.631943" lon="8.140495">
|
|
<ele>2.988767</ele>
|
|
<time>2026-07-11T15:09:17.000Z</time>
|
|
</trkpt>
|
|
<trkpt lat="55.631973" lon="8.140508">
|
|
<ele>2.995125</ele>
|
|
<time>2026-07-11T15:09:18.000Z</time>
|
|
</trkpt>
|
|
<trkpt lat="55.632006" lon="8.140519">
|
|
<ele>3.002038</ele>
|
|
<time>2026-07-11T15:09:19.000Z</time>
|
|
</trkpt>
|
|
<trkpt lat="55.632041" lon="8.140528">
|
|
<ele>3.009320</ele>
|
|
<time>2026-07-11T15:09:20.000Z</time>
|
|
</trkpt>
|
|
<trkpt lat="55.632075" lon="8.140537">
|
|
<ele>3.016397</ele>
|
|
<time>2026-07-11T15:09:21.000Z</time>
|
|
</trkpt>
|
|
<trkpt lat="55.632108" lon="8.140547">
|
|
<ele>3.023290</ele>
|
|
<time>2026-07-11T15:09:22.000Z</time>
|
|
</trkpt>
|
|
<trkpt lat="55.632144" lon="8.140557">
|
|
<ele>3.030792</ele>
|
|
<time>2026-07-11T15:09:23.000Z</time>
|
|
</trkpt>
|
|
<trkpt lat="55.632178" lon="8.140568">
|
|
<ele>3.037907</ele>
|
|
<time>2026-07-11T15:09:24.000Z</time>
|
|
</trkpt>
|
|
<trkpt lat="55.632215" lon="8.140580">
|
|
<ele>3.045651</ele>
|
|
<time>2026-07-11T15:09:25.000Z</time>
|
|
</trkpt>
|
|
<trkpt lat="55.632251" lon="8.140591">
|
|
<ele>3.053172</ele>
|
|
<time>2026-07-11T15:09:26.000Z</time>
|
|
</trkpt>
|
|
<trkpt lat="55.632286" lon="8.140601">
|
|
<ele>3.060471</ele>
|
|
<time>2026-07-11T15:09:27.000Z</time>
|
|
</trkpt>
|
|
<trkpt lat="55.632319" lon="8.140611">
|
|
<ele>3.067363</ele>
|
|
<time>2026-07-11T15:09:28.000Z</time>
|
|
</trkpt>
|
|
<trkpt lat="55.632351" lon="8.140617">
|
|
<ele>3.073988</ele>
|
|
<time>2026-07-11T15:09:29.000Z</time>
|
|
</trkpt>
|
|
<trkpt lat="55.632385" lon="8.140622">
|
|
<ele>3.081012</ele>
|
|
<time>2026-07-11T15:09:30.000Z</time>
|
|
</trkpt>
|
|
<trkpt lat="55.632417" lon="8.140630">
|
|
<ele>3.087665</ele>
|
|
<time>2026-07-11T15:09:31.000Z</time>
|
|
</trkpt>
|
|
<trkpt lat="55.632449" lon="8.140639">
|
|
<ele>3.094336</ele>
|
|
<time>2026-07-11T15:09:32.000Z</time>
|
|
</trkpt>
|
|
<trkpt lat="55.632484" lon="8.140650">
|
|
<ele>3.101654</ele>
|
|
<time>2026-07-11T15:09:33.000Z</time>
|
|
</trkpt>
|
|
<trkpt lat="55.632520" lon="8.140664">
|
|
<ele>3.109242</ele>
|
|
<time>2026-07-11T15:09:34.000Z</time>
|
|
</trkpt>
|
|
<trkpt lat="55.632558" lon="8.140681">
|
|
<ele>3.117310</ele>
|
|
<time>2026-07-11T15:09:35.000Z</time>
|
|
</trkpt>
|
|
<trkpt lat="55.632599" lon="8.140701">
|
|
<ele>3.126066</ele>
|
|
<time>2026-07-11T15:09:36.000Z</time>
|
|
</trkpt>
|
|
<trkpt lat="55.632645" lon="8.140721">
|
|
<ele>3.135817</ele>
|
|
<time>2026-07-11T15:09:37.000Z</time>
|
|
</trkpt>
|
|
<trkpt lat="55.632689" lon="8.140736">
|
|
<ele>3.145041</ele>
|
|
<time>2026-07-11T15:09:38.000Z</time>
|
|
</trkpt>
|
|
<trkpt lat="55.632731" lon="8.140749">
|
|
<ele>3.153819</ele>
|
|
<time>2026-07-11T15:09:39.000Z</time>
|
|
</trkpt>
|
|
<trkpt lat="55.632775" lon="8.140763">
|
|
<ele>3.163023</ele>
|
|
<time>2026-07-11T15:09:40.000Z</time>
|
|
</trkpt>
|
|
<trkpt lat="55.632819" lon="8.140778">
|
|
<ele>3.172247</ele>
|
|
<time>2026-07-11T15:09:41.000Z</time>
|
|
</trkpt>
|
|
<trkpt lat="55.632866" lon="8.140794">
|
|
<ele>3.182100</ele>
|
|
<time>2026-07-11T15:09:42.000Z</time>
|
|
</trkpt>
|
|
<trkpt lat="55.632914" lon="8.140813">
|
|
<ele>3.192226</ele>
|
|
<time>2026-07-11T15:09:43.000Z</time>
|
|
</trkpt>
|
|
<trkpt lat="55.632964" lon="8.140834">
|
|
<ele>3.202805</ele>
|
|
<time>2026-07-11T15:09:44.000Z</time>
|
|
</trkpt>
|
|
<trkpt lat="55.633011" lon="8.140852">
|
|
<ele>3.212705</ele>
|
|
<time>2026-07-11T15:09:45.000Z</time>
|
|
</trkpt>
|
|
<trkpt lat="55.633058" lon="8.140869">
|
|
<ele>3.222580</ele>
|
|
<time>2026-07-11T15:09:46.000Z</time>
|
|
</trkpt>
|
|
<trkpt lat="55.633105" lon="8.140884">
|
|
<ele>3.232412</ele>
|
|
<time>2026-07-11T15:09:47.000Z</time>
|
|
</trkpt>
|
|
<trkpt lat="55.633151" lon="8.140900">
|
|
<ele>3.242063</ele>
|
|
<time>2026-07-11T15:09:48.000Z</time>
|
|
</trkpt>
|
|
<trkpt lat="55.633198" lon="8.140918">
|
|
<ele>3.251963</ele>
|
|
<time>2026-07-11T15:09:49.000Z</time>
|
|
</trkpt>
|
|
<trkpt lat="55.633244" lon="8.140935">
|
|
<ele>3.261637</ele>
|
|
<time>2026-07-11T15:09:50.000Z</time>
|
|
</trkpt>
|
|
<trkpt lat="55.633290" lon="8.140950">
|
|
<ele>3.271266</ele>
|
|
<time>2026-07-11T15:09:51.000Z</time>
|
|
</trkpt>
|
|
<trkpt lat="55.633335" lon="8.140966">
|
|
<ele>3.280716</ele>
|
|
<time>2026-07-11T15:09:52.000Z</time>
|
|
</trkpt>
|
|
<trkpt lat="55.633379" lon="8.140984">
|
|
<ele>3.290012</ele>
|
|
<time>2026-07-11T15:09:53.000Z</time>
|
|
</trkpt>
|
|
<trkpt lat="55.633423" lon="8.141003">
|
|
<ele>3.299336</ele>
|
|
<time>2026-07-11T15:09:54.000Z</time>
|
|
</trkpt>
|
|
<trkpt lat="55.633466" lon="8.141020">
|
|
<ele>3.308406</ele>
|
|
<time>2026-07-11T15:09:55.000Z</time>
|
|
</trkpt>
|
|
<trkpt lat="55.633510" lon="8.141036">
|
|
<ele>3.317654</ele>
|
|
<time>2026-07-11T15:09:56.000Z</time>
|
|
</trkpt>
|
|
<trkpt lat="55.633556" lon="8.141050">
|
|
<ele>3.327263</ele>
|
|
<time>2026-07-11T15:09:57.000Z</time>
|
|
</trkpt>
|
|
<trkpt lat="55.633603" lon="8.141065">
|
|
<ele>3.337095</ele>
|
|
<time>2026-07-11T15:09:58.000Z</time>
|
|
</trkpt>
|
|
<trkpt lat="55.633658" lon="8.141081">
|
|
<ele>3.348569</ele>
|
|
<time>2026-07-11T15:09:59.000Z</time>
|
|
</trkpt>
|
|
<trkpt lat="55.633707" lon="8.141093">
|
|
<ele>3.354383</ele>
|
|
<time>2026-07-11T15:10:00.000Z</time>
|
|
</trkpt>
|
|
<trkpt lat="55.633756" lon="8.141106">
|
|
<ele>3.359865</ele>
|
|
<time>2026-07-11T15:10:01.000Z</time>
|
|
</trkpt>
|
|
<trkpt lat="55.633806" lon="8.141121">
|
|
<ele>3.365475</ele>
|
|
<time>2026-07-11T15:10:02.000Z</time>
|
|
</trkpt>
|
|
<trkpt lat="55.633855" lon="8.141140">
|
|
<ele>3.371025</ele>
|
|
<time>2026-07-11T15:10:03.000Z</time>
|
|
</trkpt>
|
|
<trkpt lat="55.633904" lon="8.141160">
|
|
<ele>3.376588</ele>
|
|
<time>2026-07-11T15:10:04.000Z</time>
|
|
</trkpt>
|
|
<trkpt lat="55.633956" lon="8.141182">
|
|
<ele>3.382503</ele>
|
|
<time>2026-07-11T15:10:05.000Z</time>
|
|
</trkpt>
|
|
<trkpt lat="55.634008" lon="8.141202">
|
|
<ele>3.388390</ele>
|
|
<time>2026-07-11T15:10:06.000Z</time>
|
|
</trkpt>
|
|
<trkpt lat="55.634061" lon="8.141224">
|
|
<ele>3.394412</ele>
|
|
<time>2026-07-11T15:10:07.000Z</time>
|
|
</trkpt>
|
|
<trkpt lat="55.634117" lon="8.141243">
|
|
<ele>3.400721</ele>
|
|
<time>2026-07-11T15:10:08.000Z</time>
|
|
</trkpt>
|
|
<trkpt lat="55.634169" lon="8.141262">
|
|
<ele>3.406595</ele>
|
|
<time>2026-07-11T15:10:09.000Z</time>
|
|
</trkpt>
|
|
<trkpt lat="55.634222" lon="8.141284">
|
|
<ele>3.412617</ele>
|
|
<time>2026-07-11T15:10:10.000Z</time>
|
|
</trkpt>
|
|
<trkpt lat="55.634275" lon="8.141304">
|
|
<ele>3.418612</ele>
|
|
<time>2026-07-11T15:10:11.000Z</time>
|
|
</trkpt>
|
|
<trkpt lat="55.634326" lon="8.141323">
|
|
<ele>3.424378</ele>
|
|
<time>2026-07-11T15:10:12.000Z</time>
|
|
</trkpt>
|
|
<trkpt lat="55.634380" lon="8.141342">
|
|
<ele>3.430469</ele>
|
|
<time>2026-07-11T15:10:13.000Z</time>
|
|
</trkpt>
|
|
<trkpt lat="55.634431" lon="8.141362">
|
|
<ele>3.436248</ele>
|
|
<time>2026-07-11T15:10:14.000Z</time>
|
|
</trkpt>
|
|
<trkpt lat="55.634482" lon="8.141385">
|
|
<ele>3.442071</ele>
|
|
<time>2026-07-11T15:10:15.000Z</time>
|
|
</trkpt>
|
|
<trkpt lat="55.634533" lon="8.141408">
|
|
<ele>3.447893</ele>
|
|
<time>2026-07-11T15:10:16.000Z</time>
|
|
</trkpt>
|
|
<trkpt lat="55.634586" lon="8.141430">
|
|
<ele>3.453915</ele>
|
|
<time>2026-07-11T15:10:17.000Z</time>
|
|
</trkpt>
|
|
<trkpt lat="55.634638" lon="8.141452">
|
|
<ele>3.459830</ele>
|
|
<time>2026-07-11T15:10:18.000Z</time>
|
|
</trkpt>
|
|
<trkpt lat="55.634688" lon="8.141473">
|
|
<ele>3.465515</ele>
|
|
<time>2026-07-11T15:10:19.000Z</time>
|
|
</trkpt>
|
|
<trkpt lat="55.634739" lon="8.141490">
|
|
<ele>3.471257</ele>
|
|
<time>2026-07-11T15:10:20.000Z</time>
|
|
</trkpt>
|
|
<trkpt lat="55.634791" lon="8.141508">
|
|
<ele>3.477119</ele>
|
|
<time>2026-07-11T15:10:21.000Z</time>
|
|
</trkpt>
|
|
<trkpt lat="55.634843" lon="8.141525">
|
|
<ele>3.482969</ele>
|
|
<time>2026-07-11T15:10:22.000Z</time>
|
|
</trkpt>
|
|
<trkpt lat="55.634895" lon="8.141542">
|
|
<ele>3.488819</ele>
|
|
<time>2026-07-11T15:10:23.000Z</time>
|
|
</trkpt>
|
|
<trkpt lat="55.634943" lon="8.141558">
|
|
<ele>3.494223</ele>
|
|
<time>2026-07-11T15:10:24.000Z</time>
|
|
</trkpt>
|
|
<trkpt lat="55.634990" lon="8.141572">
|
|
<ele>3.499496</ele>
|
|
<time>2026-07-11T15:10:25.000Z</time>
|
|
</trkpt>
|
|
<trkpt lat="55.635050" lon="8.141590">
|
|
<ele>3.506228</ele>
|
|
<time>2026-07-11T15:10:26.000Z</time>
|
|
</trkpt>
|
|
<trkpt lat="55.635100" lon="8.141606">
|
|
<ele>3.511850</ele>
|
|
<time>2026-07-11T15:10:27.000Z</time>
|
|
</trkpt>
|
|
<trkpt lat="55.635152" lon="8.141625">
|
|
<ele>3.517724</ele>
|
|
<time>2026-07-11T15:10:28.000Z</time>
|
|
</trkpt>
|
|
<trkpt lat="55.635202" lon="8.141645">
|
|
<ele>3.523395</ele>
|
|
<time>2026-07-11T15:10:29.000Z</time>
|
|
</trkpt>
|
|
<trkpt lat="55.635251" lon="8.141663">
|
|
<ele>3.528931</ele>
|
|
<time>2026-07-11T15:10:30.000Z</time>
|
|
</trkpt>
|
|
<trkpt lat="55.635301" lon="8.141680">
|
|
<ele>3.534564</ele>
|
|
<time>2026-07-11T15:10:31.000Z</time>
|
|
</trkpt>
|
|
<trkpt lat="55.635351" lon="8.141697">
|
|
<ele>3.540197</ele>
|
|
<time>2026-07-11T15:10:32.000Z</time>
|
|
</trkpt>
|
|
<trkpt lat="55.635401" lon="8.141714">
|
|
<ele>3.545829</ele>
|
|
<time>2026-07-11T15:10:33.000Z</time>
|
|
</trkpt>
|
|
<trkpt lat="55.635448" lon="8.141733">
|
|
<ele>3.561043</ele>
|
|
<time>2026-07-11T15:10:34.000Z</time>
|
|
</trkpt>
|
|
<trkpt lat="55.635496" lon="8.141751">
|
|
<ele>3.585209</ele>
|
|
<time>2026-07-11T15:10:35.000Z</time>
|
|
</trkpt>
|
|
<trkpt lat="55.635545" lon="8.141769">
|
|
<ele>3.609856</ele>
|
|
<time>2026-07-11T15:10:36.000Z</time>
|
|
</trkpt>
|
|
<trkpt lat="55.635595" lon="8.141787">
|
|
<ele>3.634986</ele>
|
|
<time>2026-07-11T15:10:37.000Z</time>
|
|
</trkpt>
|
|
<trkpt lat="55.635644" lon="8.141805">
|
|
<ele>3.659634</ele>
|
|
<time>2026-07-11T15:10:38.000Z</time>
|
|
</trkpt>
|
|
<trkpt lat="55.635694" lon="8.141823">
|
|
<ele>3.684764</ele>
|
|
<time>2026-07-11T15:10:39.000Z</time>
|
|
</trkpt>
|
|
<trkpt lat="55.635743" lon="8.141842">
|
|
<ele>3.709469</ele>
|
|
<time>2026-07-11T15:10:40.000Z</time>
|
|
</trkpt>
|
|
<trkpt lat="55.635793" lon="8.141859">
|
|
<ele>3.734545</ele>
|
|
<time>2026-07-11T15:10:41.000Z</time>
|
|
</trkpt>
|
|
<trkpt lat="55.635843" lon="8.141877">
|
|
<ele>3.759675</ele>
|
|
<time>2026-07-11T15:10:42.000Z</time>
|
|
</trkpt>
|
|
<trkpt lat="55.635893" lon="8.141896">
|
|
<ele>3.784862</ele>
|
|
<time>2026-07-11T15:10:43.000Z</time>
|
|
</trkpt>
|
|
<trkpt lat="55.635940" lon="8.141914">
|
|
<ele>3.808546</ele>
|
|
<time>2026-07-11T15:10:44.000Z</time>
|
|
</trkpt>
|
|
<trkpt lat="55.635987" lon="8.141933">
|
|
<ele>3.832290</ele>
|
|
<time>2026-07-11T15:10:45.000Z</time>
|
|
</trkpt>
|
|
<trkpt lat="55.636037" lon="8.141953">
|
|
<ele>3.857536</ele>
|
|
<time>2026-07-11T15:10:46.000Z</time>
|
|
</trkpt>
|
|
<trkpt lat="55.636087" lon="8.141972">
|
|
<ele>3.882723</ele>
|
|
<time>2026-07-11T15:10:47.000Z</time>
|
|
</trkpt>
|
|
<trkpt lat="55.636137" lon="8.141989">
|
|
<ele>3.907799</ele>
|
|
<time>2026-07-11T15:10:48.000Z</time>
|
|
</trkpt>
|
|
<trkpt lat="55.636186" lon="8.142005">
|
|
<ele>3.932340</ele>
|
|
<time>2026-07-11T15:10:49.000Z</time>
|
|
</trkpt>
|
|
<trkpt lat="55.636238" lon="8.142023">
|
|
<ele>3.958436</ele>
|
|
<time>2026-07-11T15:10:50.000Z</time>
|
|
</trkpt>
|
|
<trkpt lat="55.636291" lon="8.142041">
|
|
<ele>3.985015</ele>
|
|
<time>2026-07-11T15:10:51.000Z</time>
|
|
</trkpt>
|
|
<trkpt lat="55.636342" lon="8.142058">
|
|
<ele>4.010575</ele>
|
|
<time>2026-07-11T15:10:52.000Z</time>
|
|
</trkpt>
|
|
<trkpt lat="55.636393" lon="8.142075">
|
|
<ele>4.036135</ele>
|
|
<time>2026-07-11T15:10:53.000Z</time>
|
|
</trkpt>
|
|
<trkpt lat="55.636447" lon="8.142092">
|
|
<ele>4.063149</ele>
|
|
<time>2026-07-11T15:10:54.000Z</time>
|
|
</trkpt>
|
|
<trkpt lat="55.636500" lon="8.142109">
|
|
<ele>4.089677</ele>
|
|
<time>2026-07-11T15:10:55.000Z</time>
|
|
</trkpt>
|
|
<trkpt lat="55.636553" lon="8.142129">
|
|
<ele>4.116367</ele>
|
|
<time>2026-07-11T15:10:56.000Z</time>
|
|
</trkpt>
|
|
<trkpt lat="55.636608" lon="8.142150">
|
|
<ele>4.144079</ele>
|
|
<time>2026-07-11T15:10:57.000Z</time>
|
|
</trkpt>
|
|
<trkpt lat="55.636664" lon="8.142171">
|
|
<ele>4.172272</ele>
|
|
<time>2026-07-11T15:10:58.000Z</time>
|
|
</trkpt>
|
|
<trkpt lat="55.636720" lon="8.142190">
|
|
<ele>4.200355</ele>
|
|
<time>2026-07-11T15:10:59.000Z</time>
|
|
</trkpt>
|
|
<trkpt lat="55.636776" lon="8.142209">
|
|
<ele>4.228438</ele>
|
|
<time>2026-07-11T15:11:00.000Z</time>
|
|
</trkpt>
|
|
<trkpt lat="55.636829" lon="8.142229">
|
|
<ele>4.255128</ele>
|
|
<time>2026-07-11T15:11:01.000Z</time>
|
|
</trkpt>
|
|
<trkpt lat="55.636882" lon="8.142251">
|
|
<ele>4.281939</ele>
|
|
<time>2026-07-11T15:11:02.000Z</time>
|
|
</trkpt>
|
|
<trkpt lat="55.636934" lon="8.142271">
|
|
<ele>4.308147</ele>
|
|
<time>2026-07-11T15:11:03.000Z</time>
|
|
</trkpt>
|
|
<trkpt lat="55.636985" lon="8.142290">
|
|
<ele>4.333816</ele>
|
|
<time>2026-07-11T15:11:04.000Z</time>
|
|
</trkpt>
|
|
<trkpt lat="55.637037" lon="8.142309">
|
|
<ele>4.359966</ele>
|
|
<time>2026-07-11T15:11:05.000Z</time>
|
|
</trkpt>
|
|
<trkpt lat="55.637090" lon="8.142328">
|
|
<ele>4.386600</ele>
|
|
<time>2026-07-11T15:11:06.000Z</time>
|
|
</trkpt>
|
|
<trkpt lat="55.637146" lon="8.142344">
|
|
<ele>4.414538</ele>
|
|
<time>2026-07-11T15:11:07.000Z</time>
|
|
</trkpt>
|
|
<trkpt lat="55.637197" lon="8.142362">
|
|
<ele>4.432887</ele>
|
|
<time>2026-07-11T15:11:08.000Z</time>
|
|
</trkpt>
|
|
<trkpt lat="55.637248" lon="8.142379">
|
|
<ele>4.427289</ele>
|
|
<time>2026-07-11T15:11:09.000Z</time>
|
|
</trkpt>
|
|
<trkpt lat="55.637299" lon="8.142397">
|
|
<ele>4.421679</ele>
|
|
<time>2026-07-11T15:11:10.000Z</time>
|
|
</trkpt>
|
|
<trkpt lat="55.637345" lon="8.142415">
|
|
<ele>4.416596</ele>
|
|
<time>2026-07-11T15:11:11.000Z</time>
|
|
</trkpt>
|
|
<trkpt lat="55.637394" lon="8.142432">
|
|
<ele>4.411210</ele>
|
|
<time>2026-07-11T15:11:12.000Z</time>
|
|
</trkpt>
|
|
<trkpt lat="55.637450" lon="8.142448">
|
|
<ele>4.405090</ele>
|
|
<time>2026-07-11T15:11:13.000Z</time>
|
|
</trkpt>
|
|
<trkpt lat="55.637500" lon="8.142464">
|
|
<ele>4.399609</ele>
|
|
<time>2026-07-11T15:11:14.000Z</time>
|
|
</trkpt>
|
|
<trkpt lat="55.637552" lon="8.142481">
|
|
<ele>4.393904</ele>
|
|
<time>2026-07-11T15:11:15.000Z</time>
|
|
</trkpt>
|
|
<trkpt lat="55.637602" lon="8.142502">
|
|
<ele>4.388361</ele>
|
|
<time>2026-07-11T15:11:16.000Z</time>
|
|
</trkpt>
|
|
<trkpt lat="55.637651" lon="8.142525">
|
|
<ele>4.382892</ele>
|
|
<time>2026-07-11T15:11:17.000Z</time>
|
|
</trkpt>
|
|
<trkpt lat="55.637700" lon="8.142548">
|
|
<ele>4.377423</ele>
|
|
<time>2026-07-11T15:11:18.000Z</time>
|
|
</trkpt>
|
|
<trkpt lat="55.637748" lon="8.142570">
|
|
<ele>4.372074</ele>
|
|
<time>2026-07-11T15:11:19.000Z</time>
|
|
</trkpt>
|
|
<trkpt lat="55.637802" lon="8.142589">
|
|
<ele>4.366135</ele>
|
|
<time>2026-07-11T15:11:20.000Z</time>
|
|
</trkpt>
|
|
<trkpt lat="55.637855" lon="8.142607">
|
|
<ele>4.360313</ele>
|
|
<time>2026-07-11T15:11:21.000Z</time>
|
|
</trkpt>
|
|
<trkpt lat="55.637906" lon="8.142628">
|
|
<ele>4.354664</ele>
|
|
<time>2026-07-11T15:11:22.000Z</time>
|
|
</trkpt>
|
|
<trkpt lat="55.637953" lon="8.142649">
|
|
<ele>4.349435</ele>
|
|
<time>2026-07-11T15:11:23.000Z</time>
|
|
</trkpt>
|
|
<trkpt lat="55.637999" lon="8.142670">
|
|
<ele>4.344310</ele>
|
|
<time>2026-07-11T15:11:24.000Z</time>
|
|
</trkpt>
|
|
<trkpt lat="55.638044" lon="8.142689">
|
|
<ele>4.339320</ele>
|
|
<time>2026-07-11T15:11:25.000Z</time>
|
|
</trkpt>
|
|
<trkpt lat="55.638094" lon="8.142705">
|
|
<ele>4.333838</ele>
|
|
<time>2026-07-11T15:11:26.000Z</time>
|
|
</trkpt>
|
|
<trkpt lat="55.638143" lon="8.142722">
|
|
<ele>4.328451</ele>
|
|
<time>2026-07-11T15:11:27.000Z</time>
|
|
</trkpt>
|
|
<trkpt lat="55.638193" lon="8.142745">
|
|
<ele>4.322878</ele>
|
|
<time>2026-07-11T15:11:28.000Z</time>
|
|
</trkpt>
|
|
<trkpt lat="55.638243" lon="8.142767">
|
|
<ele>4.317320</ele>
|
|
<time>2026-07-11T15:11:29.000Z</time>
|
|
</trkpt>
|
|
<trkpt lat="55.638299" lon="8.142786">
|
|
<ele>4.311169</ele>
|
|
<time>2026-07-11T15:11:30.000Z</time>
|
|
</trkpt>
|
|
<trkpt lat="55.638353" lon="8.142801">
|
|
<ele>4.305272</ele>
|
|
<time>2026-07-11T15:11:31.000Z</time>
|
|
</trkpt>
|
|
<trkpt lat="55.638402" lon="8.142819">
|
|
<ele>4.299874</ele>
|
|
<time>2026-07-11T15:11:32.000Z</time>
|
|
</trkpt>
|
|
<trkpt lat="55.638450" lon="8.142837">
|
|
<ele>4.294581</ele>
|
|
<time>2026-07-11T15:11:33.000Z</time>
|
|
</trkpt>
|
|
<trkpt lat="55.638496" lon="8.142855">
|
|
<ele>4.289498</ele>
|
|
<time>2026-07-11T15:11:34.000Z</time>
|
|
</trkpt>
|
|
<trkpt lat="55.638545" lon="8.142871">
|
|
<ele>4.284123</ele>
|
|
<time>2026-07-11T15:11:35.000Z</time>
|
|
</trkpt>
|
|
<trkpt lat="55.638597" lon="8.142886">
|
|
<ele>4.278439</ele>
|
|
<time>2026-07-11T15:11:36.000Z</time>
|
|
</trkpt>
|
|
<trkpt lat="55.638648" lon="8.142904">
|
|
<ele>4.272829</ele>
|
|
<time>2026-07-11T15:11:37.000Z</time>
|
|
</trkpt>
|
|
<trkpt lat="55.638702" lon="8.142922">
|
|
<ele>4.266901</ele>
|
|
<time>2026-07-11T15:11:38.000Z</time>
|
|
</trkpt>
|
|
<trkpt lat="55.638755" lon="8.142940">
|
|
<ele>4.261079</ele>
|
|
<time>2026-07-11T15:11:39.000Z</time>
|
|
</trkpt>
|
|
<trkpt lat="55.638807" lon="8.142958">
|
|
<ele>4.255363</ele>
|
|
<time>2026-07-11T15:11:40.000Z</time>
|
|
</trkpt>
|
|
<trkpt lat="55.638862" lon="8.142977">
|
|
<ele>4.249318</ele>
|
|
<time>2026-07-11T15:11:41.000Z</time>
|
|
</trkpt>
|
|
<trkpt lat="55.638915" lon="8.142992">
|
|
<ele>4.243528</ele>
|
|
<time>2026-07-11T15:11:42.000Z</time>
|
|
</trkpt>
|
|
<trkpt lat="55.638969" lon="8.143008">
|
|
<ele>4.244781</ele>
|
|
<time>2026-07-11T15:11:43.000Z</time>
|
|
</trkpt>
|
|
<trkpt lat="55.639020" lon="8.143026">
|
|
<ele>4.255061</ele>
|
|
<time>2026-07-11T15:11:44.000Z</time>
|
|
</trkpt>
|
|
<trkpt lat="55.639071" lon="8.143043">
|
|
<ele>4.265319</ele>
|
|
<time>2026-07-11T15:11:45.000Z</time>
|
|
</trkpt>
|
|
<trkpt lat="55.639124" lon="8.143058">
|
|
<ele>4.275929</ele>
|
|
<time>2026-07-11T15:11:46.000Z</time>
|
|
</trkpt>
|
|
<trkpt lat="55.639175" lon="8.143073">
|
|
<ele>4.286148</ele>
|
|
<time>2026-07-11T15:11:47.000Z</time>
|
|
</trkpt>
|
|
<trkpt lat="55.639223" lon="8.143088">
|
|
<ele>4.295783</ele>
|
|
<time>2026-07-11T15:11:48.000Z</time>
|
|
</trkpt>
|
|
<trkpt lat="55.639270" lon="8.143104">
|
|
<ele>4.305244</ele>
|
|
<time>2026-07-11T15:11:49.000Z</time>
|
|
</trkpt>
|
|
<trkpt lat="55.639317" lon="8.143122">
|
|
<ele>4.314749</ele>
|
|
<time>2026-07-11T15:11:50.000Z</time>
|
|
</trkpt>
|
|
<trkpt lat="55.639361" lon="8.143143">
|
|
<ele>4.323757</ele>
|
|
<time>2026-07-11T15:11:51.000Z</time>
|
|
</trkpt>
|
|
<trkpt lat="55.639405" lon="8.143167">
|
|
<ele>4.332858</ele>
|
|
<time>2026-07-11T15:11:52.000Z</time>
|
|
</trkpt>
|
|
<trkpt lat="55.639449" lon="8.143188">
|
|
<ele>4.341866</ele>
|
|
<time>2026-07-11T15:11:53.000Z</time>
|
|
</trkpt>
|
|
<trkpt lat="55.639494" lon="8.143207">
|
|
<ele>4.351010</ele>
|
|
<time>2026-07-11T15:11:54.000Z</time>
|
|
</trkpt>
|
|
<trkpt lat="55.639541" lon="8.143221">
|
|
<ele>4.360431</ele>
|
|
<time>2026-07-11T15:11:55.000Z</time>
|
|
</trkpt>
|
|
<trkpt lat="55.639586" lon="8.143233">
|
|
<ele>4.369427</ele>
|
|
<time>2026-07-11T15:11:56.000Z</time>
|
|
</trkpt>
|
|
<trkpt lat="55.639635" lon="8.143252">
|
|
<ele>4.379343</ele>
|
|
<time>2026-07-11T15:11:57.000Z</time>
|
|
</trkpt>
|
|
<trkpt lat="55.639682" lon="8.143271">
|
|
<ele>4.388872</ele>
|
|
<time>2026-07-11T15:11:58.000Z</time>
|
|
</trkpt>
|
|
<trkpt lat="55.639728" lon="8.143291">
|
|
<ele>4.398235</ele>
|
|
<time>2026-07-11T15:11:59.000Z</time>
|
|
</trkpt>
|
|
<trkpt lat="55.639778" lon="8.143311">
|
|
<ele>4.408368</ele>
|
|
<time>2026-07-11T15:12:00.000Z</time>
|
|
</trkpt>
|
|
<trkpt lat="55.639828" lon="8.143330">
|
|
<ele>4.418476</ele>
|
|
<time>2026-07-11T15:12:01.000Z</time>
|
|
</trkpt>
|
|
<trkpt lat="55.639877" lon="8.143350">
|
|
<ele>4.428416</ele>
|
|
<time>2026-07-11T15:12:02.000Z</time>
|
|
</trkpt>
|
|
<trkpt lat="55.639927" lon="8.143370">
|
|
<ele>4.438549</ele>
|
|
<time>2026-07-11T15:12:03.000Z</time>
|
|
</trkpt>
|
|
<trkpt lat="55.639979" lon="8.143387">
|
|
<ele>4.449001</ele>
|
|
<time>2026-07-11T15:12:04.000Z</time>
|
|
</trkpt>
|
|
<trkpt lat="55.640030" lon="8.143404">
|
|
<ele>4.459260</ele>
|
|
<time>2026-07-11T15:12:05.000Z</time>
|
|
</trkpt>
|
|
<trkpt lat="55.640082" lon="8.143423">
|
|
<ele>4.469755</ele>
|
|
<time>2026-07-11T15:12:06.000Z</time>
|
|
</trkpt>
|
|
<trkpt lat="55.640135" lon="8.143443">
|
|
<ele>4.480467</ele>
|
|
<time>2026-07-11T15:12:07.000Z</time>
|
|
</trkpt>
|
|
<trkpt lat="55.640187" lon="8.143464">
|
|
<ele>4.491010</ele>
|
|
<time>2026-07-11T15:12:08.000Z</time>
|
|
</trkpt>
|
|
<trkpt lat="55.640237" lon="8.143489">
|
|
<ele>4.501280</ele>
|
|
<time>2026-07-11T15:12:09.000Z</time>
|
|
</trkpt>
|
|
<trkpt lat="55.640288" lon="8.143512">
|
|
<ele>4.511683</ele>
|
|
<time>2026-07-11T15:12:10.000Z</time>
|
|
</trkpt>
|
|
<trkpt lat="55.640337" lon="8.143533">
|
|
<ele>4.521648</ele>
|
|
<time>2026-07-11T15:12:11.000Z</time>
|
|
</trkpt>
|
|
<trkpt lat="55.640389" lon="8.143554">
|
|
<ele>4.532191</ele>
|
|
<time>2026-07-11T15:12:12.000Z</time>
|
|
</trkpt>
|
|
<trkpt lat="55.640445" lon="8.143571">
|
|
<ele>4.543422</ele>
|
|
<time>2026-07-11T15:12:13.000Z</time>
|
|
</trkpt>
|
|
<trkpt lat="55.640500" lon="8.143589">
|
|
<ele>4.554478</ele>
|
|
<time>2026-07-11T15:12:14.000Z</time>
|
|
</trkpt>
|
|
<trkpt lat="55.640556" lon="8.143609">
|
|
<ele>4.565771</ele>
|
|
<time>2026-07-11T15:12:15.000Z</time>
|
|
</trkpt>
|
|
<trkpt lat="55.640608" lon="8.143631">
|
|
<ele>4.576339</ele>
|
|
<time>2026-07-11T15:12:16.000Z</time>
|
|
</trkpt>
|
|
<trkpt lat="55.640661" lon="8.143653">
|
|
<ele>4.587100</ele>
|
|
<time>2026-07-11T15:12:17.000Z</time>
|
|
</trkpt>
|
|
<trkpt lat="55.640716" lon="8.143674">
|
|
<ele>4.592036</ele>
|
|
<time>2026-07-11T15:12:18.000Z</time>
|
|
</trkpt>
|
|
<trkpt lat="55.640769" lon="8.143695">
|
|
<ele>4.576441</ele>
|
|
<time>2026-07-11T15:12:19.000Z</time>
|
|
</trkpt>
|
|
<trkpt lat="55.640821" lon="8.143716">
|
|
<ele>4.561125</ele>
|
|
<time>2026-07-11T15:12:20.000Z</time>
|
|
</trkpt>
|
|
<trkpt lat="55.640872" lon="8.143739">
|
|
<ele>4.546014</ele>
|
|
<time>2026-07-11T15:12:21.000Z</time>
|
|
</trkpt>
|
|
<trkpt lat="55.640924" lon="8.143761">
|
|
<ele>4.530662</ele>
|
|
<time>2026-07-11T15:12:22.000Z</time>
|
|
</trkpt>
|
|
<trkpt lat="55.640974" lon="8.143782">
|
|
<ele>4.515906</ele>
|
|
<time>2026-07-11T15:12:23.000Z</time>
|
|
</trkpt>
|
|
<trkpt lat="55.641023" lon="8.143801">
|
|
<ele>4.501502</ele>
|
|
<time>2026-07-11T15:12:24.000Z</time>
|
|
</trkpt>
|
|
<trkpt lat="55.641075" lon="8.143820">
|
|
<ele>4.486256</ele>
|
|
<time>2026-07-11T15:12:25.000Z</time>
|
|
</trkpt>
|
|
<trkpt lat="55.641128" lon="8.143836">
|
|
<ele>4.470817</ele>
|
|
<time>2026-07-11T15:12:26.000Z</time>
|
|
</trkpt>
|
|
<trkpt lat="55.641182" lon="8.143852">
|
|
<ele>4.455095</ele>
|
|
<time>2026-07-11T15:12:27.000Z</time>
|
|
</trkpt>
|
|
<trkpt lat="55.641239" lon="8.143866">
|
|
<ele>4.438571</ele>
|
|
<time>2026-07-11T15:12:28.000Z</time>
|
|
</trkpt>
|
|
<trkpt lat="55.641295" lon="8.143881">
|
|
<ele>4.422307</ele>
|
|
<time>2026-07-11T15:12:29.000Z</time>
|
|
</trkpt>
|
|
<trkpt lat="55.641349" lon="8.143896">
|
|
<ele>4.406611</ele>
|
|
<time>2026-07-11T15:12:30.000Z</time>
|
|
</trkpt>
|
|
<trkpt lat="55.641402" lon="8.143912">
|
|
<ele>4.391172</ele>
|
|
<time>2026-07-11T15:12:31.000Z</time>
|
|
</trkpt>
|
|
<trkpt lat="55.641452" lon="8.143930">
|
|
<ele>4.376521</ele>
|
|
<time>2026-07-11T15:12:32.000Z</time>
|
|
</trkpt>
|
|
<trkpt lat="55.641501" lon="8.143949">
|
|
<ele>4.362118</ele>
|
|
<time>2026-07-11T15:12:33.000Z</time>
|
|
</trkpt>
|
|
<trkpt lat="55.641549" lon="8.143970">
|
|
<ele>4.347920</ele>
|
|
<time>2026-07-11T15:12:34.000Z</time>
|
|
</trkpt>
|
|
<trkpt lat="55.641597" lon="8.143986">
|
|
<ele>4.333895</ele>
|
|
<time>2026-07-11T15:12:35.000Z</time>
|
|
</trkpt>
|
|
<trkpt lat="55.641648" lon="8.144001">
|
|
<ele>4.319049</ele>
|
|
<time>2026-07-11T15:12:36.000Z</time>
|
|
</trkpt>
|
|
<trkpt lat="55.641700" lon="8.144016">
|
|
<ele>4.303920</ele>
|
|
<time>2026-07-11T15:12:37.000Z</time>
|
|
</trkpt>
|
|
<trkpt lat="55.641752" lon="8.144032">
|
|
<ele>4.288765</ele>
|
|
<time>2026-07-11T15:12:38.000Z</time>
|
|
</trkpt>
|
|
<trkpt lat="55.641804" lon="8.144049">
|
|
<ele>4.273581</ele>
|
|
<time>2026-07-11T15:12:39.000Z</time>
|
|
</trkpt>
|
|
<trkpt lat="55.641855" lon="8.144063">
|
|
<ele>4.258761</ele>
|
|
<time>2026-07-11T15:12:40.000Z</time>
|
|
</trkpt>
|
|
<trkpt lat="55.641904" lon="8.144079">
|
|
<ele>4.244453</ele>
|
|
<time>2026-07-11T15:12:41.000Z</time>
|
|
</trkpt>
|
|
<trkpt lat="55.641954" lon="8.144096">
|
|
<ele>4.229833</ele>
|
|
<time>2026-07-11T15:12:42.000Z</time>
|
|
</trkpt>
|
|
<trkpt lat="55.642004" lon="8.144109">
|
|
<ele>4.215322</ele>
|
|
<time>2026-07-11T15:12:43.000Z</time>
|
|
</trkpt>
|
|
<trkpt lat="55.642055" lon="8.144121">
|
|
<ele>4.200548</ele>
|
|
<time>2026-07-11T15:12:44.000Z</time>
|
|
</trkpt>
|
|
<trkpt lat="55.642106" lon="8.144133">
|
|
<ele>4.185774</ele>
|
|
<time>2026-07-11T15:12:45.000Z</time>
|
|
</trkpt>
|
|
<trkpt lat="55.642156" lon="8.144149">
|
|
<ele>4.171184</ele>
|
|
<time>2026-07-11T15:12:46.000Z</time>
|
|
</trkpt>
|
|
<trkpt lat="55.642205" lon="8.144170">
|
|
<ele>4.156708</ele>
|
|
<time>2026-07-11T15:12:47.000Z</time>
|
|
</trkpt>
|
|
<trkpt lat="55.642257" lon="8.144195">
|
|
<ele>4.141236</ele>
|
|
<time>2026-07-11T15:12:48.000Z</time>
|
|
</trkpt>
|
|
<trkpt lat="55.642312" lon="8.144214">
|
|
<ele>4.125145</ele>
|
|
<time>2026-07-11T15:12:49.000Z</time>
|
|
</trkpt>
|
|
<trkpt lat="55.642365" lon="8.144230">
|
|
<ele>4.109706</ele>
|
|
<time>2026-07-11T15:12:50.000Z</time>
|
|
</trkpt>
|
|
<trkpt lat="55.642418" lon="8.144248">
|
|
<ele>4.094210</ele>
|
|
<time>2026-07-11T15:12:51.000Z</time>
|
|
</trkpt>
|
|
<trkpt lat="55.642467" lon="8.144267">
|
|
<ele>4.079806</ele>
|
|
<time>2026-07-11T15:12:52.000Z</time>
|
|
</trkpt>
|
|
<trkpt lat="55.642515" lon="8.144283">
|
|
<ele>4.093907</ele>
|
|
<time>2026-07-11T15:12:53.000Z</time>
|
|
</trkpt>
|
|
<trkpt lat="55.642566" lon="8.144297">
|
|
<ele>4.110137</ele>
|
|
<time>2026-07-11T15:12:54.000Z</time>
|
|
</trkpt>
|
|
<trkpt lat="55.642619" lon="8.144312">
|
|
<ele>4.127015</ele>
|
|
<time>2026-07-11T15:12:55.000Z</time>
|
|
</trkpt>
|
|
<trkpt lat="55.642670" lon="8.144328">
|
|
<ele>4.143303</ele>
|
|
<time>2026-07-11T15:12:56.000Z</time>
|
|
</trkpt>
|
|
<trkpt lat="55.642723" lon="8.144348">
|
|
<ele>4.160345</ele>
|
|
<time>2026-07-11T15:12:57.000Z</time>
|
|
</trkpt>
|
|
<trkpt lat="55.642774" lon="8.144370">
|
|
<ele>4.176852</ele>
|
|
<time>2026-07-11T15:12:58.000Z</time>
|
|
</trkpt>
|
|
<trkpt lat="55.642823" lon="8.144394">
|
|
<ele>4.192839</ele>
|
|
<time>2026-07-11T15:12:59.000Z</time>
|
|
</trkpt>
|
|
<trkpt lat="55.642871" lon="8.144419">
|
|
<ele>4.208573</ele>
|
|
<time>2026-07-11T15:13:00.000Z</time>
|
|
</trkpt>
|
|
<trkpt lat="55.642921" lon="8.144443">
|
|
<ele>4.224864</ele>
|
|
<time>2026-07-11T15:13:01.000Z</time>
|
|
</trkpt>
|
|
<trkpt lat="55.642973" lon="8.144463">
|
|
<ele>4.241597</ele>
|
|
<time>2026-07-11T15:13:02.000Z</time>
|
|
</trkpt>
|
|
<trkpt lat="55.643022" lon="8.144480">
|
|
<ele>4.257300</ele>
|
|
<time>2026-07-11T15:13:03.000Z</time>
|
|
</trkpt>
|
|
<trkpt lat="55.643073" lon="8.144495">
|
|
<ele>4.273558</ele>
|
|
<time>2026-07-11T15:13:04.000Z</time>
|
|
</trkpt>
|
|
<trkpt lat="55.643125" lon="8.144509">
|
|
<ele>4.290098</ele>
|
|
<time>2026-07-11T15:13:05.000Z</time>
|
|
</trkpt>
|
|
<trkpt lat="55.643175" lon="8.144522">
|
|
<ele>4.305991</ele>
|
|
<time>2026-07-11T15:13:06.000Z</time>
|
|
</trkpt>
|
|
<trkpt lat="55.643225" lon="8.144539">
|
|
<ele>4.322002</ele>
|
|
<time>2026-07-11T15:13:07.000Z</time>
|
|
</trkpt>
|
|
<trkpt lat="55.643275" lon="8.144556">
|
|
<ele>4.338012</ele>
|
|
<time>2026-07-11T15:13:08.000Z</time>
|
|
</trkpt>
|
|
<trkpt lat="55.643324" lon="8.144571">
|
|
<ele>4.353650</ele>
|
|
<time>2026-07-11T15:13:09.000Z</time>
|
|
</trkpt>
|
|
<trkpt lat="55.643374" lon="8.144589">
|
|
<ele>4.369696</ele>
|
|
<time>2026-07-11T15:13:10.000Z</time>
|
|
</trkpt>
|
|
<trkpt lat="55.643424" lon="8.144610">
|
|
<ele>4.385855</ele>
|
|
<time>2026-07-11T15:13:11.000Z</time>
|
|
</trkpt>
|
|
<trkpt lat="55.643473" lon="8.144629">
|
|
<ele>4.401630</ele>
|
|
<time>2026-07-11T15:13:12.000Z</time>
|
|
</trkpt>
|
|
<trkpt lat="55.643521" lon="8.144646">
|
|
<ele>4.417023</ele>
|
|
<time>2026-07-11T15:13:13.000Z</time>
|
|
</trkpt>
|
|
<trkpt lat="55.643566" lon="8.144666">
|
|
<ele>4.431613</ele>
|
|
<time>2026-07-11T15:13:14.000Z</time>
|
|
</trkpt>
|
|
<trkpt lat="55.643616" lon="8.144687">
|
|
<ele>4.447773</ele>
|
|
<time>2026-07-11T15:13:15.000Z</time>
|
|
</trkpt>
|
|
<trkpt lat="55.643672" lon="8.144709">
|
|
<ele>4.465811</ele>
|
|
<time>2026-07-11T15:13:16.000Z</time>
|
|
</trkpt>
|
|
<trkpt lat="55.643723" lon="8.144729">
|
|
<ele>4.482238</ele>
|
|
<time>2026-07-11T15:13:17.000Z</time>
|
|
</trkpt>
|
|
<trkpt lat="55.643773" lon="8.144748">
|
|
<ele>4.498320</ele>
|
|
<time>2026-07-11T15:13:18.000Z</time>
|
|
</trkpt>
|
|
<trkpt lat="55.643823" lon="8.144766">
|
|
<ele>4.514365</ele>
|
|
<time>2026-07-11T15:13:19.000Z</time>
|
|
</trkpt>
|
|
<trkpt lat="55.643873" lon="8.144784">
|
|
<ele>4.530410</ele>
|
|
<time>2026-07-11T15:13:20.000Z</time>
|
|
</trkpt>
|
|
<trkpt lat="55.643923" lon="8.144802">
|
|
<ele>4.546456</ele>
|
|
<time>2026-07-11T15:13:21.000Z</time>
|
|
</trkpt>
|
|
<trkpt lat="55.643971" lon="8.144820">
|
|
<ele>4.561885</ele>
|
|
<time>2026-07-11T15:13:22.000Z</time>
|
|
</trkpt>
|
|
<trkpt lat="55.644017" lon="8.144839">
|
|
<ele>4.576739</ele>
|
|
<time>2026-07-11T15:13:23.000Z</time>
|
|
</trkpt>
|
|
<trkpt lat="55.644064" lon="8.144857">
|
|
<ele>4.591861</ele>
|
|
<time>2026-07-11T15:13:24.000Z</time>
|
|
</trkpt>
|
|
<trkpt lat="55.644113" lon="8.144878">
|
|
<ele>4.607715</ele>
|
|
<time>2026-07-11T15:13:25.000Z</time>
|
|
</trkpt>
|
|
<trkpt lat="55.644163" lon="8.144899">
|
|
<ele>4.623874</ele>
|
|
<time>2026-07-11T15:13:26.000Z</time>
|
|
</trkpt>
|
|
<trkpt lat="55.644213" lon="8.144922">
|
|
<ele>4.640120</ele>
|
|
<time>2026-07-11T15:13:27.000Z</time>
|
|
</trkpt>
|
|
<trkpt lat="55.644262" lon="8.144949">
|
|
<ele>4.641414</ele>
|
|
<time>2026-07-11T15:13:28.000Z</time>
|
|
</trkpt>
|
|
<trkpt lat="55.644310" lon="8.144981">
|
|
<ele>4.636567</ele>
|
|
<time>2026-07-11T15:13:29.000Z</time>
|
|
</trkpt>
|
|
<trkpt lat="55.644358" lon="8.145017">
|
|
<ele>4.631640</ele>
|
|
<time>2026-07-11T15:13:30.000Z</time>
|
|
</trkpt>
|
|
<trkpt lat="55.644405" lon="8.145055">
|
|
<ele>4.626757</ele>
|
|
<time>2026-07-11T15:13:31.000Z</time>
|
|
</trkpt>
|
|
<trkpt lat="55.644449" lon="8.145097">
|
|
<ele>4.622033</ele>
|
|
<time>2026-07-11T15:13:32.000Z</time>
|
|
</trkpt>
|
|
<trkpt lat="55.644496" lon="8.145145">
|
|
<ele>4.616905</ele>
|
|
<time>2026-07-11T15:13:33.000Z</time>
|
|
</trkpt>
|
|
<trkpt lat="55.644542" lon="8.145193">
|
|
<ele>4.611859</ele>
|
|
<time>2026-07-11T15:13:34.000Z</time>
|
|
</trkpt>
|
|
<trkpt lat="55.644588" lon="8.145245">
|
|
<ele>4.606701</ele>
|
|
<time>2026-07-11T15:13:35.000Z</time>
|
|
</trkpt>
|
|
<trkpt lat="55.644633" lon="8.145300">
|
|
<ele>4.601534</ele>
|
|
<time>2026-07-11T15:13:36.000Z</time>
|
|
</trkpt>
|
|
<trkpt lat="55.644677" lon="8.145354">
|
|
<ele>4.596475</ele>
|
|
<time>2026-07-11T15:13:37.000Z</time>
|
|
</trkpt>
|
|
<trkpt lat="55.644720" lon="8.145411">
|
|
<ele>4.591399</ele>
|
|
<time>2026-07-11T15:13:38.000Z</time>
|
|
</trkpt>
|
|
<trkpt lat="55.644764" lon="8.145471">
|
|
<ele>4.586151</ele>
|
|
<time>2026-07-11T15:13:39.000Z</time>
|
|
</trkpt>
|
|
<trkpt lat="55.644811" lon="8.145535">
|
|
<ele>4.580548</ele>
|
|
<time>2026-07-11T15:13:40.000Z</time>
|
|
</trkpt>
|
|
<trkpt lat="55.644858" lon="8.145597">
|
|
<ele>4.575010</ele>
|
|
<time>2026-07-11T15:13:41.000Z</time>
|
|
</trkpt>
|
|
<trkpt lat="55.644902" lon="8.145660">
|
|
<ele>4.569663</ele>
|
|
<time>2026-07-11T15:13:42.000Z</time>
|
|
</trkpt>
|
|
<trkpt lat="55.644948" lon="8.145719">
|
|
<ele>4.564295</ele>
|
|
<time>2026-07-11T15:13:43.000Z</time>
|
|
</trkpt>
|
|
<trkpt lat="55.644993" lon="8.145777">
|
|
<ele>4.559035</ele>
|
|
<time>2026-07-11T15:13:44.000Z</time>
|
|
</trkpt>
|
|
<trkpt lat="55.645037" lon="8.145830">
|
|
<ele>4.554006</ele>
|
|
<time>2026-07-11T15:13:45.000Z</time>
|
|
</trkpt>
|
|
<trkpt lat="55.645082" lon="8.145882">
|
|
<ele>4.548928</ele>
|
|
<time>2026-07-11T15:13:46.000Z</time>
|
|
</trkpt>
|
|
<trkpt lat="55.645131" lon="8.145935">
|
|
<ele>4.543502</ele>
|
|
<time>2026-07-11T15:13:47.000Z</time>
|
|
</trkpt>
|
|
<trkpt lat="55.645175" lon="8.145984">
|
|
<ele>4.538590</ele>
|
|
<time>2026-07-11T15:13:48.000Z</time>
|
|
</trkpt>
|
|
<trkpt lat="55.645216" lon="8.146029">
|
|
<ele>4.534031</ele>
|
|
<time>2026-07-11T15:13:49.000Z</time>
|
|
</trkpt>
|
|
<trkpt lat="55.645259" lon="8.146077">
|
|
<ele>4.529228</ele>
|
|
<time>2026-07-11T15:13:50.000Z</time>
|
|
</trkpt>
|
|
<trkpt lat="55.645304" lon="8.146131">
|
|
<ele>4.524090</ele>
|
|
<time>2026-07-11T15:13:51.000Z</time>
|
|
</trkpt>
|
|
<trkpt lat="55.645346" lon="8.146180">
|
|
<ele>4.519337</ele>
|
|
<time>2026-07-11T15:13:52.000Z</time>
|
|
</trkpt>
|
|
<trkpt lat="55.645385" lon="8.146222">
|
|
<ele>4.515023</ele>
|
|
<time>2026-07-11T15:13:53.000Z</time>
|
|
</trkpt>
|
|
<trkpt lat="55.645416" lon="8.146255">
|
|
<ele>4.511605</ele>
|
|
<time>2026-07-11T15:13:54.000Z</time>
|
|
</trkpt>
|
|
<trkpt lat="55.645442" lon="8.146280">
|
|
<ele>4.508809</ele>
|
|
<time>2026-07-11T15:13:55.000Z</time>
|
|
</trkpt>
|
|
<trkpt lat="55.645469" lon="8.146300">
|
|
<ele>4.506043</ele>
|
|
<time>2026-07-11T15:13:56.000Z</time>
|
|
</trkpt>
|
|
<trkpt lat="55.645495" lon="8.146320">
|
|
<ele>4.503364</ele>
|
|
<time>2026-07-11T15:13:57.000Z</time>
|
|
</trkpt>
|
|
<trkpt lat="55.645516" lon="8.146344">
|
|
<ele>4.501002</ele>
|
|
<time>2026-07-11T15:13:58.000Z</time>
|
|
</trkpt>
|
|
<trkpt lat="55.645532" lon="8.146370">
|
|
<ele>4.498950</ele>
|
|
<time>2026-07-11T15:13:59.000Z</time>
|
|
</trkpt>
|
|
<trkpt lat="55.645543" lon="8.146391">
|
|
<ele>4.497421</ele>
|
|
<time>2026-07-11T15:14:00.000Z</time>
|
|
</trkpt>
|
|
<trkpt lat="55.645553" lon="8.146401">
|
|
<ele>4.496336</ele>
|
|
<time>2026-07-11T15:14:01.000Z</time>
|
|
</trkpt>
|
|
<trkpt lat="55.645561" lon="8.146398">
|
|
<ele>4.495563</ele>
|
|
<time>2026-07-11T15:14:02.000Z</time>
|
|
</trkpt>
|
|
<trkpt lat="55.645568" lon="8.146391">
|
|
<ele>4.494803</ele>
|
|
<time>2026-07-11T15:14:03.000Z</time>
|
|
</trkpt>
|
|
<trkpt lat="55.645649" lon="8.146435">
|
|
<ele>4.486795</ele>
|
|
<time>2026-07-11T15:15:46.000Z</time>
|
|
</trkpt>
|
|
<trkpt lat="55.645667" lon="8.146443">
|
|
<ele>4.485041</ele>
|
|
<time>2026-07-11T15:15:48.000Z</time>
|
|
</trkpt>
|
|
<trkpt lat="55.645697" lon="8.146453">
|
|
<ele>4.482156</ele>
|
|
<time>2026-07-11T15:15:49.000Z</time>
|
|
</trkpt>
|
|
<trkpt lat="55.645713" lon="8.146452">
|
|
<ele>4.480642</ele>
|
|
<time>2026-07-11T15:15:50.000Z</time>
|
|
</trkpt>
|
|
<trkpt lat="55.645726" lon="8.146451">
|
|
<ele>4.479412</ele>
|
|
<time>2026-07-11T15:15:51.000Z</time>
|
|
</trkpt>
|
|
<trkpt lat="55.645739" lon="8.146457">
|
|
<ele>4.478142</ele>
|
|
<time>2026-07-11T15:15:52.000Z</time>
|
|
</trkpt>
|
|
<trkpt lat="55.645756" lon="8.146466">
|
|
<ele>4.476465</ele>
|
|
<time>2026-07-11T15:15:53.000Z</time>
|
|
</trkpt>
|
|
<trkpt lat="55.645777" lon="8.146475">
|
|
<ele>4.473800</ele>
|
|
<time>2026-07-11T15:15:54.000Z</time>
|
|
</trkpt>
|
|
<trkpt lat="55.645796" lon="8.146482">
|
|
<ele>4.469152</ele>
|
|
<time>2026-07-11T15:15:55.000Z</time>
|
|
</trkpt>
|
|
<trkpt lat="55.645815" lon="8.146489">
|
|
<ele>4.464504</ele>
|
|
<time>2026-07-11T15:15:56.000Z</time>
|
|
</trkpt>
|
|
<trkpt lat="55.645839" lon="8.146494">
|
|
<ele>4.458716</ele>
|
|
<time>2026-07-11T15:15:57.000Z</time>
|
|
</trkpt>
|
|
<trkpt lat="55.645868" lon="8.146498">
|
|
<ele>4.451749</ele>
|
|
<time>2026-07-11T15:15:58.000Z</time>
|
|
</trkpt>
|
|
<trkpt lat="55.645900" lon="8.146501">
|
|
<ele>4.444074</ele>
|
|
<time>2026-07-11T15:15:59.000Z</time>
|
|
</trkpt>
|
|
<trkpt lat="55.645934" lon="8.146505">
|
|
<ele>4.435912</ele>
|
|
<time>2026-07-11T15:16:00.000Z</time>
|
|
</trkpt>
|
|
<trkpt lat="55.645969" lon="8.146509">
|
|
<ele>4.427512</ele>
|
|
<time>2026-07-11T15:16:01.000Z</time>
|
|
</trkpt>
|
|
<trkpt lat="55.646005" lon="8.146515">
|
|
<ele>4.418851</ele>
|
|
<time>2026-07-11T15:16:02.000Z</time>
|
|
</trkpt>
|
|
<trkpt lat="55.646042" lon="8.146521">
|
|
<ele>4.409952</ele>
|
|
<time>2026-07-11T15:16:03.000Z</time>
|
|
</trkpt>
|
|
<trkpt lat="55.646082" lon="8.146523">
|
|
<ele>4.400368</ele>
|
|
<time>2026-07-11T15:16:04.000Z</time>
|
|
</trkpt>
|
|
<trkpt lat="55.646122" lon="8.146519">
|
|
<ele>4.390772</ele>
|
|
<time>2026-07-11T15:16:05.000Z</time>
|
|
</trkpt>
|
|
<trkpt lat="55.646161" lon="8.146511">
|
|
<ele>4.381369</ele>
|
|
<time>2026-07-11T15:16:06.000Z</time>
|
|
</trkpt>
|
|
<trkpt lat="55.646202" lon="8.146499">
|
|
<ele>4.371415</ele>
|
|
<time>2026-07-11T15:16:07.000Z</time>
|
|
</trkpt>
|
|
<trkpt lat="55.646242" lon="8.146487">
|
|
<ele>4.361698</ele>
|
|
<time>2026-07-11T15:16:08.000Z</time>
|
|
</trkpt>
|
|
<trkpt lat="55.646293" lon="8.146467">
|
|
<ele>4.349188</ele>
|
|
<time>2026-07-11T15:16:09.000Z</time>
|
|
</trkpt>
|
|
<trkpt lat="55.646334" lon="8.146448">
|
|
<ele>4.339037</ele>
|
|
<time>2026-07-11T15:16:10.000Z</time>
|
|
</trkpt>
|
|
<trkpt lat="55.646376" lon="8.146425">
|
|
<ele>4.328508</ele>
|
|
<time>2026-07-11T15:16:11.000Z</time>
|
|
</trkpt>
|
|
<trkpt lat="55.646419" lon="8.146394">
|
|
<ele>4.317390</ele>
|
|
<time>2026-07-11T15:16:12.000Z</time>
|
|
</trkpt>
|
|
<trkpt lat="55.646460" lon="8.146358">
|
|
<ele>4.306430</ele>
|
|
<time>2026-07-11T15:16:13.000Z</time>
|
|
</trkpt>
|
|
<trkpt lat="55.646504" lon="8.146321">
|
|
<ele>4.294765</ele>
|
|
<time>2026-07-11T15:16:14.000Z</time>
|
|
</trkpt>
|
|
<trkpt lat="55.646550" lon="8.146285">
|
|
<ele>4.282721</ele>
|
|
<time>2026-07-11T15:16:15.000Z</time>
|
|
</trkpt>
|
|
<trkpt lat="55.646596" lon="8.146251">
|
|
<ele>4.270783</ele>
|
|
<time>2026-07-11T15:16:16.000Z</time>
|
|
</trkpt>
|
|
<trkpt lat="55.646639" lon="8.146222">
|
|
<ele>4.259764</ele>
|
|
<time>2026-07-11T15:16:17.000Z</time>
|
|
</trkpt>
|
|
<trkpt lat="55.646681" lon="8.146197">
|
|
<ele>4.249152</ele>
|
|
<time>2026-07-11T15:16:18.000Z</time>
|
|
</trkpt>
|
|
<trkpt lat="55.646724" lon="8.146172">
|
|
<ele>4.238312</ele>
|
|
<time>2026-07-11T15:16:19.000Z</time>
|
|
</trkpt>
|
|
<trkpt lat="55.646768" lon="8.146149">
|
|
<ele>4.227325</ele>
|
|
<time>2026-07-11T15:16:20.000Z</time>
|
|
</trkpt>
|
|
<trkpt lat="55.646813" lon="8.146132">
|
|
<ele>4.216304</ele>
|
|
<time>2026-07-11T15:16:21.000Z</time>
|
|
</trkpt>
|
|
<trkpt lat="55.646861" lon="8.146119">
|
|
<ele>4.204674</ele>
|
|
<time>2026-07-11T15:16:22.000Z</time>
|
|
</trkpt>
|
|
<trkpt lat="55.646910" lon="8.146111">
|
|
<ele>4.192888</ele>
|
|
<time>2026-07-11T15:16:23.000Z</time>
|
|
</trkpt>
|
|
<trkpt lat="55.646960" lon="8.146106">
|
|
<ele>4.180893</ele>
|
|
<time>2026-07-11T15:16:24.000Z</time>
|
|
</trkpt>
|
|
<trkpt lat="55.647008" lon="8.146107">
|
|
<ele>4.169396</ele>
|
|
<time>2026-07-11T15:16:25.000Z</time>
|
|
</trkpt>
|
|
<trkpt lat="55.647054" lon="8.146116">
|
|
<ele>4.158311</ele>
|
|
<time>2026-07-11T15:16:26.000Z</time>
|
|
</trkpt>
|
|
<trkpt lat="55.647101" lon="8.146132">
|
|
<ele>4.146848</ele>
|
|
<time>2026-07-11T15:16:27.000Z</time>
|
|
</trkpt>
|
|
<trkpt lat="55.647149" lon="8.146147">
|
|
<ele>4.135174</ele>
|
|
<time>2026-07-11T15:16:28.000Z</time>
|
|
</trkpt>
|
|
<trkpt lat="55.647195" lon="8.146158">
|
|
<ele>4.124057</ele>
|
|
<time>2026-07-11T15:16:29.000Z</time>
|
|
</trkpt>
|
|
<trkpt lat="55.647243" lon="8.146169">
|
|
<ele>4.112464</ele>
|
|
<time>2026-07-11T15:16:30.000Z</time>
|
|
</trkpt>
|
|
<trkpt lat="55.647291" lon="8.146179">
|
|
<ele>4.100888</ele>
|
|
<time>2026-07-11T15:16:31.000Z</time>
|
|
</trkpt>
|
|
<trkpt lat="55.647341" lon="8.146188">
|
|
<ele>4.088851</ele>
|
|
<time>2026-07-11T15:16:32.000Z</time>
|
|
</trkpt>
|
|
<trkpt lat="55.647391" lon="8.146202">
|
|
<ele>4.076727</ele>
|
|
<time>2026-07-11T15:16:33.000Z</time>
|
|
</trkpt>
|
|
<trkpt lat="55.647440" lon="8.146219">
|
|
<ele>4.064768</ele>
|
|
<time>2026-07-11T15:16:34.000Z</time>
|
|
</trkpt>
|
|
<trkpt lat="55.647486" lon="8.146237">
|
|
<ele>4.053485</ele>
|
|
<time>2026-07-11T15:16:35.000Z</time>
|
|
</trkpt>
|
|
<trkpt lat="55.647534" lon="8.146254">
|
|
<ele>4.049436</ele>
|
|
<time>2026-07-11T15:16:36.000Z</time>
|
|
</trkpt>
|
|
<trkpt lat="55.647585" lon="8.146269">
|
|
<ele>4.078983</ele>
|
|
<time>2026-07-11T15:16:37.000Z</time>
|
|
</trkpt>
|
|
<trkpt lat="55.647635" lon="8.146281">
|
|
<ele>4.107820</ele>
|
|
<time>2026-07-11T15:16:38.000Z</time>
|
|
</trkpt>
|
|
<trkpt lat="55.647684" lon="8.146293">
|
|
<ele>4.136091</ele>
|
|
<time>2026-07-11T15:16:39.000Z</time>
|
|
</trkpt>
|
|
<trkpt lat="55.647734" lon="8.146305">
|
|
<ele>4.164928</ele>
|
|
<time>2026-07-11T15:16:40.000Z</time>
|
|
</trkpt>
|
|
<trkpt lat="55.647783" lon="8.146317">
|
|
<ele>4.193199</ele>
|
|
<time>2026-07-11T15:16:41.000Z</time>
|
|
</trkpt>
|
|
<trkpt lat="55.647833" lon="8.146328">
|
|
<ele>4.221994</ele>
|
|
<time>2026-07-11T15:16:42.000Z</time>
|
|
</trkpt>
|
|
<trkpt lat="55.647880" lon="8.146338">
|
|
<ele>4.249049</ele>
|
|
<time>2026-07-11T15:16:43.000Z</time>
|
|
</trkpt>
|
|
<trkpt lat="55.647923" lon="8.146347">
|
|
<ele>4.273795</ele>
|
|
<time>2026-07-11T15:16:44.000Z</time>
|
|
</trkpt>
|
|
<trkpt lat="55.647968" lon="8.146355">
|
|
<ele>4.299643</ele>
|
|
<time>2026-07-11T15:16:45.000Z</time>
|
|
</trkpt>
|
|
<trkpt lat="55.648011" lon="8.146363">
|
|
<ele>4.324353</ele>
|
|
<time>2026-07-11T15:16:46.000Z</time>
|
|
</trkpt>
|
|
<trkpt lat="55.648052" lon="8.146377">
|
|
<ele>4.348217</ele>
|
|
<time>2026-07-11T15:16:47.000Z</time>
|
|
</trkpt>
|
|
<trkpt lat="55.648097" lon="8.146393">
|
|
<ele>4.374448</ele>
|
|
<time>2026-07-11T15:16:48.000Z</time>
|
|
</trkpt>
|
|
<trkpt lat="55.648142" lon="8.146406">
|
|
<ele>4.400506</ele>
|
|
<time>2026-07-11T15:16:49.000Z</time>
|
|
</trkpt>
|
|
<trkpt lat="55.648186" lon="8.146415">
|
|
<ele>4.425820</ele>
|
|
<time>2026-07-11T15:16:50.000Z</time>
|
|
</trkpt>
|
|
<trkpt lat="55.648232" lon="8.146422">
|
|
<ele>4.452207</ele>
|
|
<time>2026-07-11T15:16:51.000Z</time>
|
|
</trkpt>
|
|
<trkpt lat="55.648276" lon="8.146431">
|
|
<ele>4.477521</ele>
|
|
<time>2026-07-11T15:16:52.000Z</time>
|
|
</trkpt>
|
|
<trkpt lat="55.648320" lon="8.146441">
|
|
<ele>4.502874</ele>
|
|
<time>2026-07-11T15:16:53.000Z</time>
|
|
</trkpt>
|
|
<trkpt lat="55.648366" lon="8.146451">
|
|
<ele>4.529361</ele>
|
|
<time>2026-07-11T15:16:54.000Z</time>
|
|
</trkpt>
|
|
<trkpt lat="55.648412" lon="8.146461">
|
|
<ele>4.555848</ele>
|
|
<time>2026-07-11T15:16:55.000Z</time>
|
|
</trkpt>
|
|
<trkpt lat="55.648454" lon="8.146471">
|
|
<ele>4.580068</ele>
|
|
<time>2026-07-11T15:16:56.000Z</time>
|
|
</trkpt>
|
|
<trkpt lat="55.648497" lon="8.146482">
|
|
<ele>4.604898</ele>
|
|
<time>2026-07-11T15:16:57.000Z</time>
|
|
</trkpt>
|
|
<trkpt lat="55.648548" lon="8.146494">
|
|
<ele>4.634302</ele>
|
|
<time>2026-07-11T15:16:58.000Z</time>
|
|
</trkpt>
|
|
<trkpt lat="55.648595" lon="8.146507">
|
|
<ele>4.661489</ele>
|
|
<time>2026-07-11T15:16:59.000Z</time>
|
|
</trkpt>
|
|
<trkpt lat="55.648644" lon="8.146521">
|
|
<ele>4.689855</ele>
|
|
<time>2026-07-11T15:17:00.000Z</time>
|
|
</trkpt>
|
|
<trkpt lat="55.648691" lon="8.146538">
|
|
<ele>4.717270</ele>
|
|
<time>2026-07-11T15:17:01.000Z</time>
|
|
</trkpt>
|
|
<trkpt lat="55.648741" lon="8.146555">
|
|
<ele>4.746368</ele>
|
|
<time>2026-07-11T15:17:02.000Z</time>
|
|
</trkpt>
|
|
<trkpt lat="55.648789" lon="8.146570">
|
|
<ele>4.774224</ele>
|
|
<time>2026-07-11T15:17:03.000Z</time>
|
|
</trkpt>
|
|
<trkpt lat="55.648835" lon="8.146585">
|
|
<ele>4.800956</ele>
|
|
<time>2026-07-11T15:17:04.000Z</time>
|
|
</trkpt>
|
|
<trkpt lat="55.648885" lon="8.146602">
|
|
<ele>4.830053</ele>
|
|
<time>2026-07-11T15:17:05.000Z</time>
|
|
</trkpt>
|
|
<trkpt lat="55.648934" lon="8.146622">
|
|
<ele>4.858791</ele>
|
|
<time>2026-07-11T15:17:06.000Z</time>
|
|
</trkpt>
|
|
<trkpt lat="55.648982" lon="8.146645">
|
|
<ele>4.887209</ele>
|
|
<time>2026-07-11T15:17:07.000Z</time>
|
|
</trkpt>
|
|
<trkpt lat="55.649028" lon="8.146673">
|
|
<ele>4.915007</ele>
|
|
<time>2026-07-11T15:17:08.000Z</time>
|
|
</trkpt>
|
|
<trkpt lat="55.649071" lon="8.146706">
|
|
<ele>4.941787</ele>
|
|
<time>2026-07-11T15:17:09.000Z</time>
|
|
</trkpt>
|
|
<trkpt lat="55.649117" lon="8.146742">
|
|
<ele>4.970527</ele>
|
|
<time>2026-07-11T15:17:10.000Z</time>
|
|
</trkpt>
|
|
<trkpt lat="55.649163" lon="8.146776">
|
|
<ele>4.999012</ele>
|
|
<time>2026-07-11T15:17:11.000Z</time>
|
|
</trkpt>
|
|
<trkpt lat="55.649209" lon="8.146810">
|
|
<ele>5.027497</ele>
|
|
<time>2026-07-11T15:17:12.000Z</time>
|
|
</trkpt>
|
|
<trkpt lat="55.649252" lon="8.146843">
|
|
<ele>5.054277</ele>
|
|
<time>2026-07-11T15:17:13.000Z</time>
|
|
</trkpt>
|
|
<trkpt lat="55.649295" lon="8.146876">
|
|
<ele>5.078369</ele>
|
|
<time>2026-07-11T15:17:14.000Z</time>
|
|
</trkpt>
|
|
<trkpt lat="55.649341" lon="8.146913">
|
|
<ele>5.098674</ele>
|
|
<time>2026-07-11T15:17:15.000Z</time>
|
|
</trkpt>
|
|
<trkpt lat="55.649383" lon="8.146950">
|
|
<ele>5.117526</ele>
|
|
<time>2026-07-11T15:17:16.000Z</time>
|
|
</trkpt>
|
|
<trkpt lat="55.649425" lon="8.146988">
|
|
<ele>5.136480</ele>
|
|
<time>2026-07-11T15:17:17.000Z</time>
|
|
</trkpt>
|
|
<trkpt lat="55.649465" lon="8.147024">
|
|
<ele>5.154513</ele>
|
|
<time>2026-07-11T15:17:18.000Z</time>
|
|
</trkpt>
|
|
<trkpt lat="55.649506" lon="8.147056">
|
|
<ele>5.172520</ele>
|
|
<time>2026-07-11T15:17:19.000Z</time>
|
|
</trkpt>
|
|
<trkpt lat="55.649550" lon="8.147085">
|
|
<ele>5.191389</ele>
|
|
<time>2026-07-11T15:17:20.000Z</time>
|
|
</trkpt>
|
|
<trkpt lat="55.649592" lon="8.147112">
|
|
<ele>5.209346</ele>
|
|
<time>2026-07-11T15:17:21.000Z</time>
|
|
</trkpt>
|
|
<trkpt lat="55.649633" lon="8.147136">
|
|
<ele>5.226702</ele>
|
|
<time>2026-07-11T15:17:22.000Z</time>
|
|
</trkpt>
|
|
<trkpt lat="55.649668" lon="8.147157">
|
|
<ele>5.241554</ele>
|
|
<time>2026-07-11T15:17:23.000Z</time>
|
|
</trkpt>
|
|
<trkpt lat="55.649699" lon="8.147178">
|
|
<ele>5.254894</ele>
|
|
<time>2026-07-11T15:17:24.000Z</time>
|
|
</trkpt>
|
|
<trkpt lat="55.649731" lon="8.147200">
|
|
<ele>5.268690</ele>
|
|
<time>2026-07-11T15:17:25.000Z</time>
|
|
</trkpt>
|
|
<trkpt lat="55.649752" lon="8.147215">
|
|
<ele>5.277790</ele>
|
|
<time>2026-07-11T15:17:26.000Z</time>
|
|
</trkpt>
|
|
<trkpt lat="55.649763" lon="8.147222">
|
|
<ele>5.282488</ele>
|
|
<time>2026-07-11T15:17:27.000Z</time>
|
|
</trkpt>
|
|
<trkpt lat="55.649784" lon="8.147227">
|
|
<ele>5.291005</ele>
|
|
<time>2026-07-11T15:18:40.000Z</time>
|
|
</trkpt>
|
|
<trkpt lat="55.649822" lon="8.147233">
|
|
<ele>5.306339</ele>
|
|
<time>2026-07-11T15:18:41.000Z</time>
|
|
</trkpt>
|
|
<trkpt lat="55.649852" lon="8.147244">
|
|
<ele>5.318653</ele>
|
|
<time>2026-07-11T15:18:42.000Z</time>
|
|
</trkpt>
|
|
<trkpt lat="55.649888" lon="8.147255">
|
|
<ele>5.333336</ele>
|
|
<time>2026-07-11T15:18:43.000Z</time>
|
|
</trkpt>
|
|
<trkpt lat="55.649925" lon="8.147266">
|
|
<ele>5.348416</ele>
|
|
<time>2026-07-11T15:18:44.000Z</time>
|
|
</trkpt>
|
|
<trkpt lat="55.649965" lon="8.147277">
|
|
<ele>5.364686</ele>
|
|
<time>2026-07-11T15:18:45.000Z</time>
|
|
</trkpt>
|
|
<trkpt lat="55.650006" lon="8.147284">
|
|
<ele>5.381242</ele>
|
|
<time>2026-07-11T15:18:46.000Z</time>
|
|
</trkpt>
|
|
<trkpt lat="55.650046" lon="8.147289">
|
|
<ele>5.397360</ele>
|
|
<time>2026-07-11T15:18:47.000Z</time>
|
|
</trkpt>
|
|
<trkpt lat="55.650088" lon="8.147295">
|
|
<ele>5.414296</ele>
|
|
<time>2026-07-11T15:18:48.000Z</time>
|
|
</trkpt>
|
|
<trkpt lat="55.650129" lon="8.147300">
|
|
<ele>5.430815</ele>
|
|
<time>2026-07-11T15:18:49.000Z</time>
|
|
</trkpt>
|
|
<trkpt lat="55.650173" lon="8.147304">
|
|
<ele>5.448524</ele>
|
|
<time>2026-07-11T15:18:50.000Z</time>
|
|
</trkpt>
|
|
<trkpt lat="55.650219" lon="8.147305">
|
|
<ele>5.467015</ele>
|
|
<time>2026-07-11T15:18:51.000Z</time>
|
|
</trkpt>
|
|
<trkpt lat="55.650265" lon="8.147308">
|
|
<ele>5.485517</ele>
|
|
<time>2026-07-11T15:18:52.000Z</time>
|
|
</trkpt>
|
|
<trkpt lat="55.650312" lon="8.147314">
|
|
<ele>5.504457</ele>
|
|
<time>2026-07-11T15:18:53.000Z</time>
|
|
</trkpt>
|
|
<trkpt lat="55.650361" lon="8.147317">
|
|
<ele>5.524164</ele>
|
|
<time>2026-07-11T15:18:54.000Z</time>
|
|
</trkpt>
|
|
<trkpt lat="55.650408" lon="8.147318">
|
|
<ele>5.543057</ele>
|
|
<time>2026-07-11T15:18:55.000Z</time>
|
|
</trkpt>
|
|
<trkpt lat="55.650458" lon="8.147316">
|
|
<ele>5.563159</ele>
|
|
<time>2026-07-11T15:18:56.000Z</time>
|
|
</trkpt>
|
|
<trkpt lat="55.650508" lon="8.147315">
|
|
<ele>5.583257</ele>
|
|
<time>2026-07-11T15:18:57.000Z</time>
|
|
</trkpt>
|
|
<trkpt lat="55.650557" lon="8.147316">
|
|
<ele>5.602954</ele>
|
|
<time>2026-07-11T15:18:58.000Z</time>
|
|
</trkpt>
|
|
<trkpt lat="55.650607" lon="8.147320">
|
|
<ele>5.623072</ele>
|
|
<time>2026-07-11T15:18:59.000Z</time>
|
|
</trkpt>
|
|
<trkpt lat="55.650658" lon="8.147326">
|
|
<ele>5.643616</ele>
|
|
<time>2026-07-11T15:19:00.000Z</time>
|
|
</trkpt>
|
|
<trkpt lat="55.650709" lon="8.147331">
|
|
<ele>5.664146</ele>
|
|
<time>2026-07-11T15:19:01.000Z</time>
|
|
</trkpt>
|
|
<trkpt lat="55.650757" lon="8.147337">
|
|
<ele>5.683488</ele>
|
|
<time>2026-07-11T15:19:02.000Z</time>
|
|
</trkpt>
|
|
<trkpt lat="55.650805" lon="8.147343">
|
|
<ele>5.702829</ele>
|
|
<time>2026-07-11T15:19:03.000Z</time>
|
|
</trkpt>
|
|
<trkpt lat="55.650857" lon="8.147349">
|
|
<ele>5.723774</ele>
|
|
<time>2026-07-11T15:19:04.000Z</time>
|
|
</trkpt>
|
|
<trkpt lat="55.650907" lon="8.147354">
|
|
<ele>5.743903</ele>
|
|
<time>2026-07-11T15:19:05.000Z</time>
|
|
</trkpt>
|
|
<trkpt lat="55.650952" lon="8.147356">
|
|
<ele>5.761997</ele>
|
|
<time>2026-07-11T15:19:06.000Z</time>
|
|
</trkpt>
|
|
<trkpt lat="55.651001" lon="8.147358">
|
|
<ele>5.781697</ele>
|
|
<time>2026-07-11T15:19:07.000Z</time>
|
|
</trkpt>
|
|
<trkpt lat="55.651053" lon="8.147363">
|
|
<ele>5.796737</ele>
|
|
<time>2026-07-11T15:19:08.000Z</time>
|
|
</trkpt>
|
|
<trkpt lat="55.651100" lon="8.147368">
|
|
<ele>5.801143</ele>
|
|
<time>2026-07-11T15:19:09.000Z</time>
|
|
</trkpt>
|
|
<trkpt lat="55.651148" lon="8.147371">
|
|
<ele>5.805637</ele>
|
|
<time>2026-07-11T15:19:10.000Z</time>
|
|
</trkpt>
|
|
<trkpt lat="55.651194" lon="8.147374">
|
|
<ele>5.809944</ele>
|
|
<time>2026-07-11T15:19:11.000Z</time>
|
|
</trkpt>
|
|
<trkpt lat="55.651240" lon="8.147380">
|
|
<ele>5.814260</ele>
|
|
<time>2026-07-11T15:19:12.000Z</time>
|
|
</trkpt>
|
|
<trkpt lat="55.651288" lon="8.147387">
|
|
<ele>5.818767</ele>
|
|
<time>2026-07-11T15:19:13.000Z</time>
|
|
</trkpt>
|
|
<trkpt lat="55.651335" lon="8.147395">
|
|
<ele>5.823185</ele>
|
|
<time>2026-07-11T15:19:14.000Z</time>
|
|
</trkpt>
|
|
<trkpt lat="55.651385" lon="8.147405">
|
|
<ele>5.827893</ele>
|
|
<time>2026-07-11T15:19:15.000Z</time>
|
|
</trkpt>
|
|
<trkpt lat="55.651432" lon="8.147415">
|
|
<ele>5.832323</ele>
|
|
<time>2026-07-11T15:19:16.000Z</time>
|
|
</trkpt>
|
|
<trkpt lat="55.651480" lon="8.147425">
|
|
<ele>5.836845</ele>
|
|
<time>2026-07-11T15:19:17.000Z</time>
|
|
</trkpt>
|
|
<trkpt lat="55.651528" lon="8.147435">
|
|
<ele>5.841367</ele>
|
|
<time>2026-07-11T15:19:18.000Z</time>
|
|
</trkpt>
|
|
<trkpt lat="55.651574" lon="8.147445">
|
|
<ele>5.845704</ele>
|
|
<time>2026-07-11T15:19:19.000Z</time>
|
|
</trkpt>
|
|
<trkpt lat="55.651621" lon="8.147457">
|
|
<ele>5.850147</ele>
|
|
<time>2026-07-11T15:19:20.000Z</time>
|
|
</trkpt>
|
|
<trkpt lat="55.651669" lon="8.147471">
|
|
<ele>5.854699</ele>
|
|
<time>2026-07-11T15:19:21.000Z</time>
|
|
</trkpt>
|
|
<trkpt lat="55.651717" lon="8.147486">
|
|
<ele>5.859259</ele>
|
|
<time>2026-07-11T15:19:22.000Z</time>
|
|
</trkpt>
|
|
<trkpt lat="55.651766" lon="8.147503">
|
|
<ele>5.863931</ele>
|
|
<time>2026-07-11T15:19:23.000Z</time>
|
|
</trkpt>
|
|
<trkpt lat="55.651814" lon="8.147523">
|
|
<ele>5.868545</ele>
|
|
<time>2026-07-11T15:19:24.000Z</time>
|
|
</trkpt>
|
|
<trkpt lat="55.651860" lon="8.147547">
|
|
<ele>5.873032</ele>
|
|
<time>2026-07-11T15:19:25.000Z</time>
|
|
</trkpt>
|
|
<trkpt lat="55.651905" lon="8.147577">
|
|
<ele>5.877531</ele>
|
|
<time>2026-07-11T15:19:26.000Z</time>
|
|
</trkpt>
|
|
<trkpt lat="55.651952" lon="8.147609">
|
|
<ele>5.882242</ele>
|
|
<time>2026-07-11T15:19:27.000Z</time>
|
|
</trkpt>
|
|
<trkpt lat="55.651997" lon="8.147640">
|
|
<ele>5.886760</ele>
|
|
<time>2026-07-11T15:19:28.000Z</time>
|
|
</trkpt>
|
|
<trkpt lat="55.652045" lon="8.147670">
|
|
<ele>5.891522</ele>
|
|
<time>2026-07-11T15:19:29.000Z</time>
|
|
</trkpt>
|
|
<trkpt lat="55.652093" lon="8.147702">
|
|
<ele>5.896321</ele>
|
|
<time>2026-07-11T15:19:30.000Z</time>
|
|
</trkpt>
|
|
<trkpt lat="55.652140" lon="8.147735">
|
|
<ele>5.901051</ele>
|
|
<time>2026-07-11T15:19:31.000Z</time>
|
|
</trkpt>
|
|
<trkpt lat="55.652186" lon="8.147768">
|
|
<ele>5.905695</ele>
|
|
<time>2026-07-11T15:19:32.000Z</time>
|
|
</trkpt>
|
|
<trkpt lat="55.652230" lon="8.147801">
|
|
<ele>5.910165</ele>
|
|
<time>2026-07-11T15:19:33.000Z</time>
|
|
</trkpt>
|
|
<trkpt lat="55.652276" lon="8.147836">
|
|
<ele>5.914849</ele>
|
|
<time>2026-07-11T15:19:34.000Z</time>
|
|
</trkpt>
|
|
<trkpt lat="55.652321" lon="8.147876">
|
|
<ele>5.919560</ele>
|
|
<time>2026-07-11T15:19:35.000Z</time>
|
|
</trkpt>
|
|
<trkpt lat="55.652365" lon="8.147914">
|
|
<ele>5.924140</ele>
|
|
<time>2026-07-11T15:19:36.000Z</time>
|
|
</trkpt>
|
|
<trkpt lat="55.652410" lon="8.147948">
|
|
<ele>5.928717</ele>
|
|
<time>2026-07-11T15:19:37.000Z</time>
|
|
</trkpt>
|
|
<trkpt lat="55.652453" lon="8.147977">
|
|
<ele>5.933022</ele>
|
|
<time>2026-07-11T15:19:38.000Z</time>
|
|
</trkpt>
|
|
<trkpt lat="55.652497" lon="8.148004">
|
|
<ele>5.937379</ele>
|
|
<time>2026-07-11T15:19:39.000Z</time>
|
|
</trkpt>
|
|
<trkpt lat="55.652541" lon="8.148027">
|
|
<ele>5.941671</ele>
|
|
<time>2026-07-11T15:19:40.000Z</time>
|
|
</trkpt>
|
|
<trkpt lat="55.652583" lon="8.148047">
|
|
<ele>5.945741</ele>
|
|
<time>2026-07-11T15:19:41.000Z</time>
|
|
</trkpt>
|
|
<trkpt lat="55.652623" lon="8.148063">
|
|
<ele>5.949578</ele>
|
|
<time>2026-07-11T15:19:42.000Z</time>
|
|
</trkpt>
|
|
<trkpt lat="55.652663" lon="8.148074">
|
|
<ele>5.953365</ele>
|
|
<time>2026-07-11T15:19:43.000Z</time>
|
|
</trkpt>
|
|
<trkpt lat="55.652702" lon="8.148082">
|
|
<ele>5.957039</ele>
|
|
<time>2026-07-11T15:19:44.000Z</time>
|
|
</trkpt>
|
|
<trkpt lat="55.652734" lon="8.148086">
|
|
<ele>5.960041</ele>
|
|
<time>2026-07-11T15:19:45.000Z</time>
|
|
</trkpt>
|
|
<trkpt lat="55.652761" lon="8.148090">
|
|
<ele>5.962576</ele>
|
|
<time>2026-07-11T15:19:46.000Z</time>
|
|
</trkpt>
|
|
<trkpt lat="55.652784" lon="8.148097">
|
|
<ele>5.952206</ele>
|
|
<time>2026-07-11T15:19:47.000Z</time>
|
|
</trkpt>
|
|
<trkpt lat="55.652803" lon="8.148108">
|
|
<ele>5.938521</ele>
|
|
<time>2026-07-11T15:19:48.000Z</time>
|
|
</trkpt>
|
|
<trkpt lat="55.652820" lon="8.148119">
|
|
<ele>5.926130</ele>
|
|
<time>2026-07-11T15:19:49.000Z</time>
|
|
</trkpt>
|
|
<trkpt lat="55.652838" lon="8.148124">
|
|
<ele>5.913656</ele>
|
|
<time>2026-07-11T15:19:50.000Z</time>
|
|
</trkpt>
|
|
<trkpt lat="55.652861" lon="8.148119">
|
|
<ele>5.897790</ele>
|
|
<time>2026-07-11T15:19:51.000Z</time>
|
|
</trkpt>
|
|
<trkpt lat="55.652885" lon="8.148107">
|
|
<ele>5.880717</ele>
|
|
<time>2026-07-11T15:19:52.000Z</time>
|
|
</trkpt>
|
|
<trkpt lat="55.652912" lon="8.148093">
|
|
<ele>5.861456</ele>
|
|
<time>2026-07-11T15:19:53.000Z</time>
|
|
</trkpt>
|
|
<trkpt lat="55.652942" lon="8.148085">
|
|
<ele>5.840685</ele>
|
|
<time>2026-07-11T15:19:54.000Z</time>
|
|
</trkpt>
|
|
<trkpt lat="55.652977" lon="8.148081">
|
|
<ele>5.816671</ele>
|
|
<time>2026-07-11T15:19:55.000Z</time>
|
|
</trkpt>
|
|
<trkpt lat="55.653017" lon="8.148081">
|
|
<ele>5.789284</ele>
|
|
<time>2026-07-11T15:19:56.000Z</time>
|
|
</trkpt>
|
|
<trkpt lat="55.653062" lon="8.148081">
|
|
<ele>5.758474</ele>
|
|
<time>2026-07-11T15:19:57.000Z</time>
|
|
</trkpt>
|
|
<trkpt lat="55.653107" lon="8.148078">
|
|
<ele>5.727642</ele>
|
|
<time>2026-07-11T15:19:58.000Z</time>
|
|
</trkpt>
|
|
<trkpt lat="55.653147" lon="8.148071">
|
|
<ele>5.700122</ele>
|
|
<time>2026-07-11T15:19:59.000Z</time>
|
|
</trkpt>
|
|
<trkpt lat="55.653208" lon="8.148056">
|
|
<ele>5.657957</ele>
|
|
<time>2026-07-11T15:20:00.000Z</time>
|
|
</trkpt>
|
|
<trkpt lat="55.653258" lon="8.148042">
|
|
<ele>5.623299</ele>
|
|
<time>2026-07-11T15:20:01.000Z</time>
|
|
</trkpt>
|
|
<trkpt lat="55.653311" lon="8.148027">
|
|
<ele>5.586552</ele>
|
|
<time>2026-07-11T15:20:02.000Z</time>
|
|
</trkpt>
|
|
<trkpt lat="55.653366" lon="8.148014">
|
|
<ele>5.548561</ele>
|
|
<time>2026-07-11T15:20:03.000Z</time>
|
|
</trkpt>
|
|
<trkpt lat="55.653420" lon="8.148006">
|
|
<ele>5.511460</ele>
|
|
<time>2026-07-11T15:20:04.000Z</time>
|
|
</trkpt>
|
|
<trkpt lat="55.653479" lon="8.148000">
|
|
<ele>5.470998</ele>
|
|
<time>2026-07-11T15:20:05.000Z</time>
|
|
</trkpt>
|
|
<trkpt lat="55.653538" lon="8.147999">
|
|
<ele>5.430600</ele>
|
|
<time>2026-07-11T15:20:06.000Z</time>
|
|
</trkpt>
|
|
<trkpt lat="55.653597" lon="8.147998">
|
|
<ele>5.390203</ele>
|
|
<time>2026-07-11T15:20:07.000Z</time>
|
|
</trkpt>
|
|
<trkpt lat="55.653654" lon="8.147998">
|
|
<ele>5.351177</ele>
|
|
<time>2026-07-11T15:20:08.000Z</time>
|
|
</trkpt>
|
|
<trkpt lat="55.653710" lon="8.147999">
|
|
<ele>5.312833</ele>
|
|
<time>2026-07-11T15:20:09.000Z</time>
|
|
</trkpt>
|
|
<trkpt lat="55.653765" lon="8.147999">
|
|
<ele>5.275176</ele>
|
|
<time>2026-07-11T15:20:10.000Z</time>
|
|
</trkpt>
|
|
<trkpt lat="55.653820" lon="8.148001">
|
|
<ele>5.237511</ele>
|
|
<time>2026-07-11T15:20:11.000Z</time>
|
|
</trkpt>
|
|
<trkpt lat="55.653874" lon="8.148002">
|
|
<ele>5.200537</ele>
|
|
<time>2026-07-11T15:20:12.000Z</time>
|
|
</trkpt>
|
|
<trkpt lat="55.653931" lon="8.148004">
|
|
<ele>5.161503</ele>
|
|
<time>2026-07-11T15:20:13.000Z</time>
|
|
</trkpt>
|
|
<trkpt lat="55.653988" lon="8.148004">
|
|
<ele>5.122477</ele>
|
|
<time>2026-07-11T15:20:14.000Z</time>
|
|
</trkpt>
|
|
<trkpt lat="55.654043" lon="8.148003">
|
|
<ele>5.084818</ele>
|
|
<time>2026-07-11T15:20:15.000Z</time>
|
|
</trkpt>
|
|
<trkpt lat="55.654099" lon="8.148002">
|
|
<ele>5.046474</ele>
|
|
<time>2026-07-11T15:20:16.000Z</time>
|
|
</trkpt>
|
|
<trkpt lat="55.654154" lon="8.148001">
|
|
<ele>5.008815</ele>
|
|
<time>2026-07-11T15:20:17.000Z</time>
|
|
</trkpt>
|
|
<trkpt lat="55.654211" lon="8.148000">
|
|
<ele>4.969787</ele>
|
|
<time>2026-07-11T15:20:18.000Z</time>
|
|
</trkpt>
|
|
<trkpt lat="55.654267" lon="8.148000">
|
|
<ele>4.931445</ele>
|
|
<time>2026-07-11T15:20:19.000Z</time>
|
|
</trkpt>
|
|
<trkpt lat="55.654322" lon="8.148000">
|
|
<ele>4.893788</ele>
|
|
<time>2026-07-11T15:20:20.000Z</time>
|
|
</trkpt>
|
|
<trkpt lat="55.654379" lon="8.147999">
|
|
<ele>4.854760</ele>
|
|
<time>2026-07-11T15:20:21.000Z</time>
|
|
</trkpt>
|
|
<trkpt lat="55.654436" lon="8.147999">
|
|
<ele>4.815734</ele>
|
|
<time>2026-07-11T15:20:22.000Z</time>
|
|
</trkpt>
|
|
<trkpt lat="55.654492" lon="8.148000">
|
|
<ele>4.777390</ele>
|
|
<time>2026-07-11T15:20:23.000Z</time>
|
|
</trkpt>
|
|
<trkpt lat="55.654547" lon="8.148001">
|
|
<ele>4.739731</ele>
|
|
<time>2026-07-11T15:20:24.000Z</time>
|
|
</trkpt>
|
|
<trkpt lat="55.654604" lon="8.148002">
|
|
<ele>4.736495</ele>
|
|
<time>2026-07-11T15:20:25.000Z</time>
|
|
</trkpt>
|
|
<trkpt lat="55.654660" lon="8.148004">
|
|
<ele>4.742329</ele>
|
|
<time>2026-07-11T15:20:26.000Z</time>
|
|
</trkpt>
|
|
<trkpt lat="55.654713" lon="8.148005">
|
|
<ele>4.747849</ele>
|
|
<time>2026-07-11T15:20:27.000Z</time>
|
|
</trkpt>
|
|
<trkpt lat="55.654768" lon="8.148004">
|
|
<ele>4.753578</ele>
|
|
<time>2026-07-11T15:20:28.000Z</time>
|
|
</trkpt>
|
|
<trkpt lat="55.654824" lon="8.148004">
|
|
<ele>4.759411</ele>
|
|
<time>2026-07-11T15:20:29.000Z</time>
|
|
</trkpt>
|
|
<trkpt lat="55.654876" lon="8.148004">
|
|
<ele>4.764827</ele>
|
|
<time>2026-07-11T15:20:30.000Z</time>
|
|
</trkpt>
|
|
<trkpt lat="55.654929" lon="8.148003">
|
|
<ele>4.770347</ele>
|
|
<time>2026-07-11T15:20:31.000Z</time>
|
|
</trkpt>
|
|
<trkpt lat="55.654984" lon="8.148001">
|
|
<ele>4.776076</ele>
|
|
<time>2026-07-11T15:20:32.000Z</time>
|
|
</trkpt>
|
|
<trkpt lat="55.655035" lon="8.147999">
|
|
<ele>4.781390</ele>
|
|
<time>2026-07-11T15:20:33.000Z</time>
|
|
</trkpt>
|
|
<trkpt lat="55.655086" lon="8.147997">
|
|
<ele>4.786703</ele>
|
|
<time>2026-07-11T15:20:34.000Z</time>
|
|
</trkpt>
|
|
<trkpt lat="55.655140" lon="8.147995">
|
|
<ele>4.792328</ele>
|
|
<time>2026-07-11T15:20:35.000Z</time>
|
|
</trkpt>
|
|
<trkpt lat="55.655194" lon="8.147996">
|
|
<ele>4.797953</ele>
|
|
<time>2026-07-11T15:20:36.000Z</time>
|
|
</trkpt>
|
|
<trkpt lat="55.655246" lon="8.147998">
|
|
<ele>4.803370</ele>
|
|
<time>2026-07-11T15:20:37.000Z</time>
|
|
</trkpt>
|
|
<trkpt lat="55.655297" lon="8.147999">
|
|
<ele>4.808682</ele>
|
|
<time>2026-07-11T15:20:38.000Z</time>
|
|
</trkpt>
|
|
<trkpt lat="55.655350" lon="8.148000">
|
|
<ele>4.814202</ele>
|
|
<time>2026-07-11T15:20:39.000Z</time>
|
|
</trkpt>
|
|
<trkpt lat="55.655405" lon="8.148001">
|
|
<ele>4.819931</ele>
|
|
<time>2026-07-11T15:20:40.000Z</time>
|
|
</trkpt>
|
|
<trkpt lat="55.655460" lon="8.148002">
|
|
<ele>4.825660</ele>
|
|
<time>2026-07-11T15:20:41.000Z</time>
|
|
</trkpt>
|
|
<trkpt lat="55.655514" lon="8.148004">
|
|
<ele>4.831285</ele>
|
|
<time>2026-07-11T15:20:42.000Z</time>
|
|
</trkpt>
|
|
<trkpt lat="55.655568" lon="8.148006">
|
|
<ele>4.836910</ele>
|
|
<time>2026-07-11T15:20:43.000Z</time>
|
|
</trkpt>
|
|
<trkpt lat="55.655619" lon="8.148010">
|
|
<ele>4.842227</ele>
|
|
<time>2026-07-11T15:20:44.000Z</time>
|
|
</trkpt>
|
|
<trkpt lat="55.655671" lon="8.148015">
|
|
<ele>4.847651</ele>
|
|
<time>2026-07-11T15:20:45.000Z</time>
|
|
</trkpt>
|
|
<trkpt lat="55.655724" lon="8.148021">
|
|
<ele>4.853183</ele>
|
|
<time>2026-07-11T15:20:46.000Z</time>
|
|
</trkpt>
|
|
<trkpt lat="55.655777" lon="8.148030">
|
|
<ele>4.858728</ele>
|
|
<time>2026-07-11T15:20:47.000Z</time>
|
|
</trkpt>
|
|
<trkpt lat="55.655830" lon="8.148042">
|
|
<ele>4.864293</ele>
|
|
<time>2026-07-11T15:20:48.000Z</time>
|
|
</trkpt>
|
|
<trkpt lat="55.655884" lon="8.148054">
|
|
<ele>4.869961</ele>
|
|
<time>2026-07-11T15:20:49.000Z</time>
|
|
</trkpt>
|
|
<trkpt lat="55.655939" lon="8.148068">
|
|
<ele>4.875748</ele>
|
|
<time>2026-07-11T15:20:50.000Z</time>
|
|
</trkpt>
|
|
<trkpt lat="55.655993" lon="8.148081">
|
|
<ele>4.881424</ele>
|
|
<time>2026-07-11T15:20:51.000Z</time>
|
|
</trkpt>
|
|
<trkpt lat="55.656047" lon="8.148096">
|
|
<ele>4.887117</ele>
|
|
<time>2026-07-11T15:20:52.000Z</time>
|
|
</trkpt>
|
|
<trkpt lat="55.656105" lon="8.148110">
|
|
<ele>4.893214</ele>
|
|
<time>2026-07-11T15:20:53.000Z</time>
|
|
</trkpt>
|
|
<trkpt lat="55.656159" lon="8.148124">
|
|
<ele>4.898898</ele>
|
|
<time>2026-07-11T15:20:54.000Z</time>
|
|
</trkpt>
|
|
<trkpt lat="55.656214" lon="8.148139">
|
|
<ele>4.904693</ele>
|
|
<time>2026-07-11T15:20:55.000Z</time>
|
|
</trkpt>
|
|
<trkpt lat="55.656271" lon="8.148152">
|
|
<ele>4.910679</ele>
|
|
<time>2026-07-11T15:20:56.000Z</time>
|
|
</trkpt>
|
|
<trkpt lat="55.656326" lon="8.148166">
|
|
<ele>4.916466</ele>
|
|
<time>2026-07-11T15:20:57.000Z</time>
|
|
</trkpt>
|
|
<trkpt lat="55.656381" lon="8.148179">
|
|
<ele>4.924932</ele>
|
|
<time>2026-07-11T15:20:58.000Z</time>
|
|
</trkpt>
|
|
<trkpt lat="55.656438" lon="8.148192">
|
|
<ele>4.936034</ele>
|
|
<time>2026-07-11T15:20:59.000Z</time>
|
|
</trkpt>
|
|
<trkpt lat="55.656496" lon="8.148206">
|
|
<ele>4.947342</ele>
|
|
<time>2026-07-11T15:21:00.000Z</time>
|
|
</trkpt>
|
|
<trkpt lat="55.656552" lon="8.148219">
|
|
<ele>4.958253</ele>
|
|
<time>2026-07-11T15:21:01.000Z</time>
|
|
</trkpt>
|
|
<trkpt lat="55.656607" lon="8.148232">
|
|
<ele>4.968972</ele>
|
|
<time>2026-07-11T15:21:02.000Z</time>
|
|
</trkpt>
|
|
<trkpt lat="55.656661" lon="8.148246">
|
|
<ele>4.979515</ele>
|
|
<time>2026-07-11T15:21:03.000Z</time>
|
|
</trkpt>
|
|
<trkpt lat="55.656714" lon="8.148258">
|
|
<ele>4.989837</ele>
|
|
<time>2026-07-11T15:21:04.000Z</time>
|
|
</trkpt>
|
|
<trkpt lat="55.656769" lon="8.148270">
|
|
<ele>5.000542</ele>
|
|
<time>2026-07-11T15:21:05.000Z</time>
|
|
</trkpt>
|
|
<trkpt lat="55.656823" lon="8.148281">
|
|
<ele>5.011043</ele>
|
|
<time>2026-07-11T15:21:06.000Z</time>
|
|
</trkpt>
|
|
<trkpt lat="55.656874" lon="8.148292">
|
|
<ele>5.020968</ele>
|
|
<time>2026-07-11T15:21:07.000Z</time>
|
|
</trkpt>
|
|
<trkpt lat="55.656925" lon="8.148303">
|
|
<ele>5.030893</ele>
|
|
<time>2026-07-11T15:21:08.000Z</time>
|
|
</trkpt>
|
|
<trkpt lat="55.656975" lon="8.148315">
|
|
<ele>5.040640</ele>
|
|
<time>2026-07-11T15:21:09.000Z</time>
|
|
</trkpt>
|
|
<trkpt lat="55.657023" lon="8.148328">
|
|
<ele>5.050021</ele>
|
|
<time>2026-07-11T15:21:10.000Z</time>
|
|
</trkpt>
|
|
<trkpt lat="55.657071" lon="8.148342">
|
|
<ele>5.059418</ele>
|
|
<time>2026-07-11T15:21:11.000Z</time>
|
|
</trkpt>
|
|
<trkpt lat="55.657118" lon="8.148355">
|
|
<ele>5.068608</ele>
|
|
<time>2026-07-11T15:21:12.000Z</time>
|
|
</trkpt>
|
|
<trkpt lat="55.657167" lon="8.148367">
|
|
<ele>5.078164</ele>
|
|
<time>2026-07-11T15:21:13.000Z</time>
|
|
</trkpt>
|
|
<trkpt lat="55.657214" lon="8.148379">
|
|
<ele>5.087337</ele>
|
|
<time>2026-07-11T15:21:14.000Z</time>
|
|
</trkpt>
|
|
<trkpt lat="55.657262" lon="8.148389">
|
|
<ele>5.096674</ele>
|
|
<time>2026-07-11T15:21:15.000Z</time>
|
|
</trkpt>
|
|
<trkpt lat="55.657308" lon="8.148398">
|
|
<ele>5.105614</ele>
|
|
<time>2026-07-11T15:21:16.000Z</time>
|
|
</trkpt>
|
|
<trkpt lat="55.657355" lon="8.148407">
|
|
<ele>5.114747</ele>
|
|
<time>2026-07-11T15:21:17.000Z</time>
|
|
</trkpt>
|
|
<trkpt lat="55.657402" lon="8.148415">
|
|
<ele>5.123868</ele>
|
|
<time>2026-07-11T15:21:18.000Z</time>
|
|
</trkpt>
|
|
<trkpt lat="55.657449" lon="8.148424">
|
|
<ele>5.133001</ele>
|
|
<time>2026-07-11T15:21:19.000Z</time>
|
|
</trkpt>
|
|
<trkpt lat="55.657498" lon="8.148436">
|
|
<ele>5.142557</ele>
|
|
<time>2026-07-11T15:21:20.000Z</time>
|
|
</trkpt>
|
|
<trkpt lat="55.657545" lon="8.148450">
|
|
<ele>5.151763</ele>
|
|
<time>2026-07-11T15:21:21.000Z</time>
|
|
</trkpt>
|
|
<trkpt lat="55.657595" lon="8.148465">
|
|
<ele>5.161560</ele>
|
|
<time>2026-07-11T15:21:22.000Z</time>
|
|
</trkpt>
|
|
<trkpt lat="55.657645" lon="8.148482">
|
|
<ele>5.171395</ele>
|
|
<time>2026-07-11T15:21:23.000Z</time>
|
|
</trkpt>
|
|
<trkpt lat="55.657695" lon="8.148502">
|
|
<ele>5.181297</ele>
|
|
<time>2026-07-11T15:21:24.000Z</time>
|
|
</trkpt>
|
|
<trkpt lat="55.657744" lon="8.148528">
|
|
<ele>5.191178</ele>
|
|
<time>2026-07-11T15:21:25.000Z</time>
|
|
</trkpt>
|
|
<trkpt lat="55.657794" lon="8.148559">
|
|
<ele>5.201411</ele>
|
|
<time>2026-07-11T15:21:26.000Z</time>
|
|
</trkpt>
|
|
<trkpt lat="55.657844" lon="8.148592">
|
|
<ele>5.211718</ele>
|
|
<time>2026-07-11T15:21:27.000Z</time>
|
|
</trkpt>
|
|
<trkpt lat="55.657891" lon="8.148628">
|
|
<ele>5.221609</ele>
|
|
<time>2026-07-11T15:21:28.000Z</time>
|
|
</trkpt>
|
|
<trkpt lat="55.657939" lon="8.148666">
|
|
<ele>5.231765</ele>
|
|
<time>2026-07-11T15:21:29.000Z</time>
|
|
</trkpt>
|
|
<trkpt lat="55.657986" lon="8.148706">
|
|
<ele>5.241837</ele>
|
|
<time>2026-07-11T15:21:30.000Z</time>
|
|
</trkpt>
|
|
<trkpt lat="55.658031" lon="8.148750">
|
|
<ele>5.251765</ele>
|
|
<time>2026-07-11T15:21:31.000Z</time>
|
|
</trkpt>
|
|
<trkpt lat="55.658079" lon="8.148798">
|
|
<ele>5.262412</ele>
|
|
<time>2026-07-11T15:21:32.000Z</time>
|
|
</trkpt>
|
|
<trkpt lat="55.658129" lon="8.148844">
|
|
<ele>5.255156</ele>
|
|
<time>2026-07-11T15:21:33.000Z</time>
|
|
</trkpt>
|
|
<trkpt lat="55.658178" lon="8.148891">
|
|
<ele>5.236881</ele>
|
|
<time>2026-07-11T15:21:34.000Z</time>
|
|
</trkpt>
|
|
<trkpt lat="55.658229" lon="8.148939">
|
|
<ele>5.217940</ele>
|
|
<time>2026-07-11T15:21:35.000Z</time>
|
|
</trkpt>
|
|
<trkpt lat="55.658282" lon="8.148989">
|
|
<ele>5.198246</ele>
|
|
<time>2026-07-11T15:21:36.000Z</time>
|
|
</trkpt>
|
|
<trkpt lat="55.658331" lon="8.149037">
|
|
<ele>5.179881</ele>
|
|
<time>2026-07-11T15:21:37.000Z</time>
|
|
</trkpt>
|
|
<trkpt lat="55.658381" lon="8.149087">
|
|
<ele>5.161051</ele>
|
|
<time>2026-07-11T15:21:38.000Z</time>
|
|
</trkpt>
|
|
<trkpt lat="55.658431" lon="8.149139">
|
|
<ele>5.142035</ele>
|
|
<time>2026-07-11T15:21:39.000Z</time>
|
|
</trkpt>
|
|
<trkpt lat="55.658480" lon="8.149189">
|
|
<ele>5.123489</ele>
|
|
<time>2026-07-11T15:21:40.000Z</time>
|
|
</trkpt>
|
|
<trkpt lat="55.658530" lon="8.149237">
|
|
<ele>5.104837</ele>
|
|
<time>2026-07-11T15:21:41.000Z</time>
|
|
</trkpt>
|
|
<trkpt lat="55.658578" lon="8.149286">
|
|
<ele>5.086668</ele>
|
|
<time>2026-07-11T15:21:42.000Z</time>
|
|
</trkpt>
|
|
<trkpt lat="55.658625" lon="8.149333">
|
|
<ele>5.068967</ele>
|
|
<time>2026-07-11T15:21:43.000Z</time>
|
|
</trkpt>
|
|
<trkpt lat="55.658675" lon="8.149380">
|
|
<ele>5.050403</ele>
|
|
<time>2026-07-11T15:21:44.000Z</time>
|
|
</trkpt>
|
|
<trkpt lat="55.658725" lon="8.149427">
|
|
<ele>5.031838</ele>
|
|
<time>2026-07-11T15:21:45.000Z</time>
|
|
</trkpt>
|
|
<trkpt lat="55.658773" lon="8.149473">
|
|
<ele>5.013939</ele>
|
|
<time>2026-07-11T15:21:46.000Z</time>
|
|
</trkpt>
|
|
<trkpt lat="55.658822" lon="8.149520">
|
|
<ele>4.995664</ele>
|
|
<time>2026-07-11T15:21:47.000Z</time>
|
|
</trkpt>
|
|
<trkpt lat="55.658873" lon="8.149572">
|
|
<ele>4.976365</ele>
|
|
<time>2026-07-11T15:21:48.000Z</time>
|
|
</trkpt>
|
|
<trkpt lat="55.658922" lon="8.149621">
|
|
<ele>4.957911</ele>
|
|
<time>2026-07-11T15:21:49.000Z</time>
|
|
</trkpt>
|
|
<trkpt lat="55.658972" lon="8.149670">
|
|
<ele>4.939170</ele>
|
|
<time>2026-07-11T15:21:50.000Z</time>
|
|
</trkpt>
|
|
<trkpt lat="55.659022" lon="8.149717">
|
|
<ele>4.920606</ele>
|
|
<time>2026-07-11T15:21:51.000Z</time>
|
|
</trkpt>
|
|
<trkpt lat="55.659073" lon="8.149765">
|
|
<ele>4.901665</ele>
|
|
<time>2026-07-11T15:21:52.000Z</time>
|
|
</trkpt>
|
|
<trkpt lat="55.659125" lon="8.149812">
|
|
<ele>4.882518</ele>
|
|
<time>2026-07-11T15:21:53.000Z</time>
|
|
</trkpt>
|
|
<trkpt lat="55.659176" lon="8.149858">
|
|
<ele>4.863748</ele>
|
|
<time>2026-07-11T15:21:54.000Z</time>
|
|
</trkpt>
|
|
<trkpt lat="55.659227" lon="8.149902">
|
|
<ele>4.845143</ele>
|
|
<time>2026-07-11T15:21:55.000Z</time>
|
|
</trkpt>
|
|
<trkpt lat="55.659277" lon="8.149948">
|
|
<ele>4.826665</ele>
|
|
<time>2026-07-11T15:21:56.000Z</time>
|
|
</trkpt>
|
|
<trkpt lat="55.659326" lon="8.149993">
|
|
<ele>4.808563</ele>
|
|
<time>2026-07-11T15:21:57.000Z</time>
|
|
</trkpt>
|
|
<trkpt lat="55.659378" lon="8.150040">
|
|
<ele>4.789416</ele>
|
|
<time>2026-07-11T15:21:58.000Z</time>
|
|
</trkpt>
|
|
<trkpt lat="55.659430" lon="8.150086">
|
|
<ele>4.770353</ele>
|
|
<time>2026-07-11T15:21:59.000Z</time>
|
|
</trkpt>
|
|
<trkpt lat="55.659478" lon="8.150133">
|
|
<ele>4.752366</ele>
|
|
<time>2026-07-11T15:22:00.000Z</time>
|
|
</trkpt>
|
|
<trkpt lat="55.659525" lon="8.150179">
|
|
<ele>4.734755</ele>
|
|
<time>2026-07-11T15:22:01.000Z</time>
|
|
</trkpt>
|
|
<trkpt lat="55.659574" lon="8.150226">
|
|
<ele>4.716480</ele>
|
|
<time>2026-07-11T15:22:02.000Z</time>
|
|
</trkpt>
|
|
<trkpt lat="55.659625" lon="8.150276">
|
|
<ele>4.697363</ele>
|
|
<time>2026-07-11T15:22:03.000Z</time>
|
|
</trkpt>
|
|
<trkpt lat="55.659672" lon="8.150325">
|
|
<ele>4.679477</ele>
|
|
<time>2026-07-11T15:22:04.000Z</time>
|
|
</trkpt>
|
|
<trkpt lat="55.659719" lon="8.150375">
|
|
<ele>4.681744</ele>
|
|
<time>2026-07-11T15:22:05.000Z</time>
|
|
</trkpt>
|
|
<trkpt lat="55.659768" lon="8.150423">
|
|
<ele>4.688040</ele>
|
|
<time>2026-07-11T15:22:06.000Z</time>
|
|
</trkpt>
|
|
<trkpt lat="55.659813" lon="8.150468">
|
|
<ele>4.693851</ele>
|
|
<time>2026-07-11T15:22:07.000Z</time>
|
|
</trkpt>
|
|
<trkpt lat="55.659859" lon="8.150512">
|
|
<ele>4.699729</ele>
|
|
<time>2026-07-11T15:22:08.000Z</time>
|
|
</trkpt>
|
|
<trkpt lat="55.659903" lon="8.150559">
|
|
<ele>4.705507</ele>
|
|
<time>2026-07-11T15:22:09.000Z</time>
|
|
</trkpt>
|
|
<trkpt lat="55.659947" lon="8.150606">
|
|
<ele>4.711284</ele>
|
|
<time>2026-07-11T15:22:10.000Z</time>
|
|
</trkpt>
|
|
<trkpt lat="55.659992" lon="8.150652">
|
|
<ele>4.717126</ele>
|
|
<time>2026-07-11T15:22:11.000Z</time>
|
|
</trkpt>
|
|
<trkpt lat="55.660039" lon="8.150697">
|
|
<ele>4.723134</ele>
|
|
<time>2026-07-11T15:22:12.000Z</time>
|
|
</trkpt>
|
|
<trkpt lat="55.660086" lon="8.150742">
|
|
<ele>4.729141</ele>
|
|
<time>2026-07-11T15:22:13.000Z</time>
|
|
</trkpt>
|
|
<trkpt lat="55.660130" lon="8.150785">
|
|
<ele>4.734792</ele>
|
|
<time>2026-07-11T15:22:14.000Z</time>
|
|
</trkpt>
|
|
<trkpt lat="55.660176" lon="8.150830">
|
|
<ele>4.740701</ele>
|
|
<time>2026-07-11T15:22:15.000Z</time>
|
|
</trkpt>
|
|
<trkpt lat="55.660224" lon="8.150875">
|
|
<ele>4.746807</ele>
|
|
<time>2026-07-11T15:22:16.000Z</time>
|
|
</trkpt>
|
|
<trkpt lat="55.660270" lon="8.150920">
|
|
<ele>4.752716</ele>
|
|
<time>2026-07-11T15:22:17.000Z</time>
|
|
</trkpt>
|
|
<trkpt lat="55.660315" lon="8.150964">
|
|
<ele>4.758496</ele>
|
|
<time>2026-07-11T15:22:18.000Z</time>
|
|
</trkpt>
|
|
<trkpt lat="55.660360" lon="8.151008">
|
|
<ele>4.764276</ele>
|
|
<time>2026-07-11T15:22:19.000Z</time>
|
|
</trkpt>
|
|
<trkpt lat="55.660405" lon="8.151055">
|
|
<ele>4.770150</ele>
|
|
<time>2026-07-11T15:22:20.000Z</time>
|
|
</trkpt>
|
|
<trkpt lat="55.660454" lon="8.151103">
|
|
<ele>4.776446</ele>
|
|
<time>2026-07-11T15:22:21.000Z</time>
|
|
</trkpt>
|
|
<trkpt lat="55.660502" lon="8.151150">
|
|
<ele>4.782613</ele>
|
|
<time>2026-07-11T15:22:22.000Z</time>
|
|
</trkpt>
|
|
<trkpt lat="55.660550" lon="8.151200">
|
|
<ele>4.788874</ele>
|
|
<time>2026-07-11T15:22:23.000Z</time>
|
|
</trkpt>
|
|
<trkpt lat="55.660596" lon="8.151249">
|
|
<ele>4.794910</ele>
|
|
<time>2026-07-11T15:22:24.000Z</time>
|
|
</trkpt>
|
|
<trkpt lat="55.660645" lon="8.151298">
|
|
<ele>4.801237</ele>
|
|
<time>2026-07-11T15:22:25.000Z</time>
|
|
</trkpt>
|
|
<trkpt lat="55.660697" lon="8.151349">
|
|
<ele>4.807920</ele>
|
|
<time>2026-07-11T15:22:26.000Z</time>
|
|
</trkpt>
|
|
<trkpt lat="55.660746" lon="8.151398">
|
|
<ele>4.814247</ele>
|
|
<time>2026-07-11T15:22:27.000Z</time>
|
|
</trkpt>
|
|
<trkpt lat="55.660795" lon="8.151449">
|
|
<ele>4.820638</ele>
|
|
<time>2026-07-11T15:22:28.000Z</time>
|
|
</trkpt>
|
|
<trkpt lat="55.660843" lon="8.151500">
|
|
<ele>4.826931</ele>
|
|
<time>2026-07-11T15:22:29.000Z</time>
|
|
</trkpt>
|
|
<trkpt lat="55.660892" lon="8.151551">
|
|
<ele>4.833322</ele>
|
|
<time>2026-07-11T15:22:30.000Z</time>
|
|
</trkpt>
|
|
<trkpt lat="55.660946" lon="8.151607">
|
|
<ele>4.840358</ele>
|
|
<time>2026-07-11T15:22:31.000Z</time>
|
|
</trkpt>
|
|
<trkpt lat="55.660997" lon="8.151660">
|
|
<ele>4.847006</ele>
|
|
<time>2026-07-11T15:22:32.000Z</time>
|
|
</trkpt>
|
|
<trkpt lat="55.661048" lon="8.151712">
|
|
<ele>4.853623</ele>
|
|
<time>2026-07-11T15:22:33.000Z</time>
|
|
</trkpt>
|
|
<trkpt lat="55.661098" lon="8.151763">
|
|
<ele>4.860111</ele>
|
|
<time>2026-07-11T15:22:34.000Z</time>
|
|
</trkpt>
|
|
<trkpt lat="55.661149" lon="8.151815">
|
|
<ele>4.866727</ele>
|
|
<time>2026-07-11T15:22:35.000Z</time>
|
|
</trkpt>
|
|
<trkpt lat="55.661202" lon="8.151867">
|
|
<ele>4.873540</ele>
|
|
<time>2026-07-11T15:22:36.000Z</time>
|
|
</trkpt>
|
|
<trkpt lat="55.661252" lon="8.151915">
|
|
<ele>4.880311</ele>
|
|
<time>2026-07-11T15:22:37.000Z</time>
|
|
</trkpt>
|
|
<trkpt lat="55.661303" lon="8.151965">
|
|
<ele>4.889154</ele>
|
|
<time>2026-07-11T15:22:38.000Z</time>
|
|
</trkpt>
|
|
<trkpt lat="55.661355" lon="8.152017">
|
|
<ele>4.898214</ele>
|
|
<time>2026-07-11T15:22:39.000Z</time>
|
|
</trkpt>
|
|
<trkpt lat="55.661402" lon="8.152066">
|
|
<ele>4.906487</ele>
|
|
<time>2026-07-11T15:22:40.000Z</time>
|
|
</trkpt>
|
|
<trkpt lat="55.661452" lon="8.152114">
|
|
<ele>4.915116</ele>
|
|
<time>2026-07-11T15:22:41.000Z</time>
|
|
</trkpt>
|
|
<trkpt lat="55.661500" lon="8.152163">
|
|
<ele>4.923521</ele>
|
|
<time>2026-07-11T15:22:42.000Z</time>
|
|
</trkpt>
|
|
<trkpt lat="55.661547" lon="8.152211">
|
|
<ele>4.931751</ele>
|
|
<time>2026-07-11T15:22:43.000Z</time>
|
|
</trkpt>
|
|
<trkpt lat="55.661597" lon="8.152257">
|
|
<ele>4.940299</ele>
|
|
<time>2026-07-11T15:22:44.000Z</time>
|
|
</trkpt>
|
|
<trkpt lat="55.661646" lon="8.152299">
|
|
<ele>4.948558</ele>
|
|
<time>2026-07-11T15:22:45.000Z</time>
|
|
</trkpt>
|
|
<trkpt lat="55.661696" lon="8.152338">
|
|
<ele>4.956847</ele>
|
|
<time>2026-07-11T15:22:46.000Z</time>
|
|
</trkpt>
|
|
<trkpt lat="55.661746" lon="8.152374">
|
|
<ele>4.965036</ele>
|
|
<time>2026-07-11T15:22:47.000Z</time>
|
|
</trkpt>
|
|
<trkpt lat="55.661797" lon="8.152405">
|
|
<ele>4.973218</ele>
|
|
<time>2026-07-11T15:22:48.000Z</time>
|
|
</trkpt>
|
|
<trkpt lat="55.661849" lon="8.152431">
|
|
<ele>4.981416</ele>
|
|
<time>2026-07-11T15:22:49.000Z</time>
|
|
</trkpt>
|
|
<trkpt lat="55.661904" lon="8.152454">
|
|
<ele>4.989991</ele>
|
|
<time>2026-07-11T15:22:50.000Z</time>
|
|
</trkpt>
|
|
<trkpt lat="55.661961" lon="8.152476">
|
|
<ele>4.998843</ele>
|
|
<time>2026-07-11T15:22:51.000Z</time>
|
|
</trkpt>
|
|
<trkpt lat="55.662015" lon="8.152497">
|
|
<ele>5.007232</ele>
|
|
<time>2026-07-11T15:22:52.000Z</time>
|
|
</trkpt>
|
|
<trkpt lat="55.662071" lon="8.152516">
|
|
<ele>5.015884</ele>
|
|
<time>2026-07-11T15:22:53.000Z</time>
|
|
</trkpt>
|
|
<trkpt lat="55.662124" lon="8.152531">
|
|
<ele>5.024028</ele>
|
|
<time>2026-07-11T15:22:54.000Z</time>
|
|
</trkpt>
|
|
<trkpt lat="55.662178" lon="8.152547">
|
|
<ele>5.032336</ele>
|
|
<time>2026-07-11T15:22:55.000Z</time>
|
|
</trkpt>
|
|
<trkpt lat="55.662232" lon="8.152564">
|
|
<ele>5.040658</ele>
|
|
<time>2026-07-11T15:22:56.000Z</time>
|
|
</trkpt>
|
|
<trkpt lat="55.662285" lon="8.152581">
|
|
<ele>5.048831</ele>
|
|
<time>2026-07-11T15:22:57.000Z</time>
|
|
</trkpt>
|
|
<trkpt lat="55.662338" lon="8.152598">
|
|
<ele>5.057004</ele>
|
|
<time>2026-07-11T15:22:58.000Z</time>
|
|
</trkpt>
|
|
<trkpt lat="55.662392" lon="8.152618">
|
|
<ele>5.065375</ele>
|
|
<time>2026-07-11T15:22:59.000Z</time>
|
|
</trkpt>
|
|
<trkpt lat="55.662445" lon="8.152637">
|
|
<ele>5.073580</ele>
|
|
<time>2026-07-11T15:23:00.000Z</time>
|
|
</trkpt>
|
|
<trkpt lat="55.662499" lon="8.152658">
|
|
<ele>5.081969</ele>
|
|
<time>2026-07-11T15:23:01.000Z</time>
|
|
</trkpt>
|
|
<trkpt lat="55.662555" lon="8.152678">
|
|
<ele>5.090638</ele>
|
|
<time>2026-07-11T15:23:02.000Z</time>
|
|
</trkpt>
|
|
<trkpt lat="55.662609" lon="8.152699">
|
|
<ele>5.099027</ele>
|
|
<time>2026-07-11T15:23:03.000Z</time>
|
|
</trkpt>
|
|
<trkpt lat="55.662660" lon="8.152722">
|
|
<ele>5.107012</ele>
|
|
<time>2026-07-11T15:23:04.000Z</time>
|
|
</trkpt>
|
|
<trkpt lat="55.662712" lon="8.152749">
|
|
<ele>5.115234</ele>
|
|
<time>2026-07-11T15:23:05.000Z</time>
|
|
</trkpt>
|
|
<trkpt lat="55.662764" lon="8.152781">
|
|
<ele>5.123587</ele>
|
|
<time>2026-07-11T15:23:06.000Z</time>
|
|
</trkpt>
|
|
<trkpt lat="55.662815" lon="8.152819">
|
|
<ele>5.131981</ele>
|
|
<time>2026-07-11T15:23:07.000Z</time>
|
|
</trkpt>
|
|
<trkpt lat="55.662867" lon="8.152861">
|
|
<ele>5.140652</ele>
|
|
<time>2026-07-11T15:23:08.000Z</time>
|
|
</trkpt>
|
|
<trkpt lat="55.662916" lon="8.152904">
|
|
<ele>5.148949</ele>
|
|
<time>2026-07-11T15:23:09.000Z</time>
|
|
</trkpt>
|
|
<trkpt lat="55.662966" lon="8.152948">
|
|
<ele>5.172313</ele>
|
|
<time>2026-07-11T15:23:10.000Z</time>
|
|
</trkpt>
|
|
<trkpt lat="55.663013" lon="8.152995">
|
|
<ele>5.202172</ele>
|
|
<time>2026-07-11T15:23:11.000Z</time>
|
|
</trkpt>
|
|
<trkpt lat="55.663060" lon="8.153046">
|
|
<ele>5.232664</ele>
|
|
<time>2026-07-11T15:23:12.000Z</time>
|
|
</trkpt>
|
|
<trkpt lat="55.663109" lon="8.153098">
|
|
<ele>5.264264</ele>
|
|
<time>2026-07-11T15:23:13.000Z</time>
|
|
</trkpt>
|
|
<trkpt lat="55.663154" lon="8.153148">
|
|
<ele>5.293650</ele>
|
|
<time>2026-07-11T15:23:14.000Z</time>
|
|
</trkpt>
|
|
<trkpt lat="55.663197" lon="8.153198">
|
|
<ele>5.322105</ele>
|
|
<time>2026-07-11T15:23:15.000Z</time>
|
|
</trkpt>
|
|
<trkpt lat="55.663241" lon="8.153249">
|
|
<ele>5.351194</ele>
|
|
<time>2026-07-11T15:23:16.000Z</time>
|
|
</trkpt>
|
|
<trkpt lat="55.663285" lon="8.153301">
|
|
<ele>5.380455</ele>
|
|
<time>2026-07-11T15:23:17.000Z</time>
|
|
</trkpt>
|
|
<trkpt lat="55.663329" lon="8.153351">
|
|
<ele>5.409374</ele>
|
|
<time>2026-07-11T15:23:18.000Z</time>
|
|
</trkpt>
|
|
<trkpt lat="55.663371" lon="8.153399">
|
|
<ele>5.437024</ele>
|
|
<time>2026-07-11T15:23:19.000Z</time>
|
|
</trkpt>
|
|
<trkpt lat="55.663417" lon="8.153445">
|
|
<ele>5.466248</ele>
|
|
<time>2026-07-11T15:23:20.000Z</time>
|
|
</trkpt>
|
|
<trkpt lat="55.663464" lon="8.153488">
|
|
<ele>5.495514</ele>
|
|
<time>2026-07-11T15:23:21.000Z</time>
|
|
</trkpt>
|
|
<trkpt lat="55.663509" lon="8.153529">
|
|
<ele>5.523510</ele>
|
|
<time>2026-07-11T15:23:22.000Z</time>
|
|
</trkpt>
|
|
<trkpt lat="55.663555" lon="8.153568">
|
|
<ele>5.551724</ele>
|
|
<time>2026-07-11T15:23:23.000Z</time>
|
|
</trkpt>
|
|
<trkpt lat="55.663600" lon="8.153605">
|
|
<ele>5.579172</ele>
|
|
<time>2026-07-11T15:23:24.000Z</time>
|
|
</trkpt>
|
|
<trkpt lat="55.663647" lon="8.153637">
|
|
<ele>5.607031</ele>
|
|
<time>2026-07-11T15:23:25.000Z</time>
|
|
</trkpt>
|
|
<trkpt lat="55.663694" lon="8.153665">
|
|
<ele>5.634467</ele>
|
|
<time>2026-07-11T15:23:26.000Z</time>
|
|
</trkpt>
|
|
<trkpt lat="55.663742" lon="8.153694">
|
|
<ele>5.662527</ele>
|
|
<time>2026-07-11T15:23:27.000Z</time>
|
|
</trkpt>
|
|
<trkpt lat="55.663790" lon="8.153722">
|
|
<ele>5.690488</ele>
|
|
<time>2026-07-11T15:23:28.000Z</time>
|
|
</trkpt>
|
|
<trkpt lat="55.663838" lon="8.153750">
|
|
<ele>5.718449</ele>
|
|
<time>2026-07-11T15:23:29.000Z</time>
|
|
</trkpt>
|
|
<trkpt lat="55.663884" lon="8.153778">
|
|
<ele>5.745361</ele>
|
|
<time>2026-07-11T15:23:30.000Z</time>
|
|
</trkpt>
|
|
<trkpt lat="55.663931" lon="8.153802">
|
|
<ele>5.772426</ele>
|
|
<time>2026-07-11T15:23:31.000Z</time>
|
|
</trkpt>
|
|
<trkpt lat="55.663980" lon="8.153825">
|
|
<ele>5.800474</ele>
|
|
<time>2026-07-11T15:23:32.000Z</time>
|
|
</trkpt>
|
|
<trkpt lat="55.664028" lon="8.153848">
|
|
<ele>5.827987</ele>
|
|
<time>2026-07-11T15:23:33.000Z</time>
|
|
</trkpt>
|
|
<trkpt lat="55.664078" lon="8.153873">
|
|
<ele>5.856733</ele>
|
|
<time>2026-07-11T15:23:34.000Z</time>
|
|
</trkpt>
|
|
<trkpt lat="55.664130" lon="8.153901">
|
|
<ele>5.886805</ele>
|
|
<time>2026-07-11T15:23:35.000Z</time>
|
|
</trkpt>
|
|
<trkpt lat="55.664179" lon="8.153928">
|
|
<ele>5.915198</ele>
|
|
<time>2026-07-11T15:23:36.000Z</time>
|
|
</trkpt>
|
|
<trkpt lat="55.664229" lon="8.153954">
|
|
<ele>5.944030</ele>
|
|
<time>2026-07-11T15:23:37.000Z</time>
|
|
</trkpt>
|
|
<trkpt lat="55.664278" lon="8.153979">
|
|
<ele>5.972244</ele>
|
|
<time>2026-07-11T15:23:38.000Z</time>
|
|
</trkpt>
|
|
<trkpt lat="55.664330" lon="8.154006">
|
|
<ele>6.002227</ele>
|
|
<time>2026-07-11T15:23:39.000Z</time>
|
|
</trkpt>
|
|
<trkpt lat="55.664385" lon="8.154035">
|
|
<ele>6.033978</ele>
|
|
<time>2026-07-11T15:23:40.000Z</time>
|
|
</trkpt>
|
|
<trkpt lat="55.664435" lon="8.154063">
|
|
<ele>6.062992</ele>
|
|
<time>2026-07-11T15:23:41.000Z</time>
|
|
</trkpt>
|
|
<trkpt lat="55.664486" lon="8.154089">
|
|
<ele>6.092356</ele>
|
|
<time>2026-07-11T15:23:42.000Z</time>
|
|
</trkpt>
|
|
<trkpt lat="55.664538" lon="8.154116">
|
|
<ele>6.122338</ele>
|
|
<time>2026-07-11T15:23:43.000Z</time>
|
|
</trkpt>
|
|
<trkpt lat="55.664590" lon="8.154143">
|
|
<ele>6.132146</ele>
|
|
<time>2026-07-11T15:23:44.000Z</time>
|
|
</trkpt>
|
|
<trkpt lat="55.664642" lon="8.154172">
|
|
<ele>6.046773</ele>
|
|
<time>2026-07-11T15:23:45.000Z</time>
|
|
</trkpt>
|
|
<trkpt lat="55.664696" lon="8.154200">
|
|
<ele>5.958659</ele>
|
|
<time>2026-07-11T15:23:46.000Z</time>
|
|
</trkpt>
|
|
<trkpt lat="55.664749" lon="8.154229">
|
|
<ele>5.871791</ele>
|
|
<time>2026-07-11T15:23:47.000Z</time>
|
|
</trkpt>
|
|
<trkpt lat="55.664803" lon="8.154257">
|
|
<ele>5.783677</ele>
|
|
<time>2026-07-11T15:23:48.000Z</time>
|
|
</trkpt>
|
|
<trkpt lat="55.664860" lon="8.154284">
|
|
<ele>5.691277</ele>
|
|
<time>2026-07-11T15:23:49.000Z</time>
|
|
</trkpt>
|
|
<trkpt lat="55.664918" lon="8.154313">
|
|
<ele>5.596898</ele>
|
|
<time>2026-07-11T15:23:50.000Z</time>
|
|
</trkpt>
|
|
<trkpt lat="55.664978" lon="8.154344">
|
|
<ele>5.499022</ele>
|
|
<time>2026-07-11T15:23:51.000Z</time>
|
|
</trkpt>
|
|
<trkpt lat="55.665036" lon="8.154374">
|
|
<ele>5.404399</ele>
|
|
<time>2026-07-11T15:23:52.000Z</time>
|
|
</trkpt>
|
|
<trkpt lat="55.665100" lon="8.154406">
|
|
<ele>5.300258</ele>
|
|
<time>2026-07-11T15:23:53.000Z</time>
|
|
</trkpt>
|
|
<trkpt lat="55.665165" lon="8.154440">
|
|
<ele>5.194121</ele>
|
|
<time>2026-07-11T15:23:54.000Z</time>
|
|
</trkpt>
|
|
<trkpt lat="55.665227" lon="8.154475">
|
|
<ele>5.092218</ele>
|
|
<time>2026-07-11T15:23:55.000Z</time>
|
|
</trkpt>
|
|
<trkpt lat="55.665287" lon="8.154510">
|
|
<ele>4.993295</ele>
|
|
<time>2026-07-11T15:23:56.000Z</time>
|
|
</trkpt>
|
|
<trkpt lat="55.665350" lon="8.154545">
|
|
<ele>4.889898</ele>
|
|
<time>2026-07-11T15:23:57.000Z</time>
|
|
</trkpt>
|
|
<trkpt lat="55.665417" lon="8.154581">
|
|
<ele>4.780254</ele>
|
|
<time>2026-07-11T15:23:58.000Z</time>
|
|
</trkpt>
|
|
<trkpt lat="55.665481" lon="8.154616">
|
|
<ele>4.675362</ele>
|
|
<time>2026-07-11T15:23:59.000Z</time>
|
|
</trkpt>
|
|
<trkpt lat="55.665547" lon="8.154651">
|
|
<ele>4.567473</ele>
|
|
<time>2026-07-11T15:24:00.000Z</time>
|
|
</trkpt>
|
|
<trkpt lat="55.665611" lon="8.154686">
|
|
<ele>4.462581</ele>
|
|
<time>2026-07-11T15:24:01.000Z</time>
|
|
</trkpt>
|
|
<trkpt lat="55.665672" lon="8.154719">
|
|
<ele>4.362699</ele>
|
|
<time>2026-07-11T15:24:02.000Z</time>
|
|
</trkpt>
|
|
<trkpt lat="55.665733" lon="8.154751">
|
|
<ele>4.263071</ele>
|
|
<time>2026-07-11T15:24:03.000Z</time>
|
|
</trkpt>
|
|
<trkpt lat="55.665796" lon="8.154787">
|
|
<ele>4.159407</ele>
|
|
<time>2026-07-11T15:24:04.000Z</time>
|
|
</trkpt>
|
|
<trkpt lat="55.665857" lon="8.154821">
|
|
<ele>4.059263</ele>
|
|
<time>2026-07-11T15:24:05.000Z</time>
|
|
</trkpt>
|
|
<trkpt lat="55.665917" lon="8.154852">
|
|
<ele>3.961387</ele>
|
|
<time>2026-07-11T15:24:06.000Z</time>
|
|
</trkpt>
|
|
<trkpt lat="55.665981" lon="8.154883">
|
|
<ele>3.857482</ele>
|
|
<time>2026-07-11T15:24:07.000Z</time>
|
|
</trkpt>
|
|
<trkpt lat="55.666046" lon="8.154917">
|
|
<ele>3.751345</ele>
|
|
<time>2026-07-11T15:24:08.000Z</time>
|
|
</trkpt>
|
|
<trkpt lat="55.666111" lon="8.154950">
|
|
<ele>3.645456</ele>
|
|
<time>2026-07-11T15:24:09.000Z</time>
|
|
</trkpt>
|
|
<trkpt lat="55.666174" lon="8.154981">
|
|
<ele>3.543060</ele>
|
|
<time>2026-07-11T15:24:10.000Z</time>
|
|
</trkpt>
|
|
<trkpt lat="55.666237" lon="8.155011">
|
|
<ele>3.440897</ele>
|
|
<time>2026-07-11T15:24:11.000Z</time>
|
|
</trkpt>
|
|
<trkpt lat="55.666301" lon="8.155042">
|
|
<ele>3.336992</ele>
|
|
<time>2026-07-11T15:24:12.000Z</time>
|
|
</trkpt>
|
|
<trkpt lat="55.666360" lon="8.155072">
|
|
<ele>3.343003</ele>
|
|
<time>2026-07-11T15:24:13.000Z</time>
|
|
</trkpt>
|
|
<trkpt lat="55.666421" lon="8.155103">
|
|
<ele>3.357317</ele>
|
|
<time>2026-07-11T15:24:14.000Z</time>
|
|
</trkpt>
|
|
<trkpt lat="55.666486" lon="8.155137">
|
|
<ele>3.372604</ele>
|
|
<time>2026-07-11T15:24:15.000Z</time>
|
|
</trkpt>
|
|
<trkpt lat="55.666550" lon="8.155172">
|
|
<ele>3.387712</ele>
|
|
<time>2026-07-11T15:24:16.000Z</time>
|
|
</trkpt>
|
|
<trkpt lat="55.666611" lon="8.155204">
|
|
<ele>3.402061</ele>
|
|
<time>2026-07-11T15:24:17.000Z</time>
|
|
</trkpt>
|
|
<trkpt lat="55.666676" lon="8.155236">
|
|
<ele>3.417278</ele>
|
|
<time>2026-07-11T15:24:18.000Z</time>
|
|
</trkpt>
|
|
<trkpt lat="55.666739" lon="8.155268">
|
|
<ele>3.432060</ele>
|
|
<time>2026-07-11T15:24:19.000Z</time>
|
|
</trkpt>
|
|
<trkpt lat="55.666802" lon="8.155298">
|
|
<ele>3.446775</ele>
|
|
<time>2026-07-11T15:24:20.000Z</time>
|
|
</trkpt>
|
|
<trkpt lat="55.666865" lon="8.155331">
|
|
<ele>3.461593</ele>
|
|
<time>2026-07-11T15:24:21.000Z</time>
|
|
</trkpt>
|
|
<trkpt lat="55.666927" lon="8.155365">
|
|
<ele>3.476232</ele>
|
|
<time>2026-07-11T15:24:22.000Z</time>
|
|
</trkpt>
|
|
<trkpt lat="55.666990" lon="8.155397">
|
|
<ele>3.491015</ele>
|
|
<time>2026-07-11T15:24:23.000Z</time>
|
|
</trkpt>
|
|
<trkpt lat="55.667051" lon="8.155429">
|
|
<ele>3.505364</ele>
|
|
<time>2026-07-11T15:24:24.000Z</time>
|
|
</trkpt>
|
|
<trkpt lat="55.667113" lon="8.155461">
|
|
<ele>3.519930</ele>
|
|
<time>2026-07-11T15:24:25.000Z</time>
|
|
</trkpt>
|
|
<trkpt lat="55.667178" lon="8.155493">
|
|
<ele>3.535147</ele>
|
|
<time>2026-07-11T15:24:26.000Z</time>
|
|
</trkpt>
|
|
<trkpt lat="55.667240" lon="8.155522">
|
|
<ele>3.549610</ele>
|
|
<time>2026-07-11T15:24:27.000Z</time>
|
|
</trkpt>
|
|
<trkpt lat="55.667302" lon="8.155551">
|
|
<ele>3.564074</ele>
|
|
<time>2026-07-11T15:24:28.000Z</time>
|
|
</trkpt>
|
|
<trkpt lat="55.667360" lon="8.155583">
|
|
<ele>3.577776</ele>
|
|
<time>2026-07-11T15:24:29.000Z</time>
|
|
</trkpt>
|
|
<trkpt lat="55.667421" lon="8.155615">
|
|
<ele>3.592125</ele>
|
|
<time>2026-07-11T15:24:30.000Z</time>
|
|
</trkpt>
|
|
<trkpt lat="55.667479" lon="8.155647">
|
|
<ele>3.605827</ele>
|
|
<time>2026-07-11T15:24:31.000Z</time>
|
|
</trkpt>
|
|
<trkpt lat="55.667538" lon="8.155679">
|
|
<ele>3.619745</ele>
|
|
<time>2026-07-11T15:24:32.000Z</time>
|
|
</trkpt>
|
|
<trkpt lat="55.667601" lon="8.155712">
|
|
<ele>3.634563</ele>
|
|
<time>2026-07-11T15:24:33.000Z</time>
|
|
</trkpt>
|
|
<trkpt lat="55.667659" lon="8.155743">
|
|
<ele>3.648227</ele>
|
|
<time>2026-07-11T15:24:34.000Z</time>
|
|
</trkpt>
|
|
<trkpt lat="55.667713" lon="8.155771">
|
|
<ele>3.660918</ele>
|
|
<time>2026-07-11T15:24:35.000Z</time>
|
|
</trkpt>
|
|
<trkpt lat="55.667770" lon="8.155799">
|
|
<ele>3.674260</ele>
|
|
<time>2026-07-11T15:24:36.000Z</time>
|
|
</trkpt>
|
|
<trkpt lat="55.667826" lon="8.155827">
|
|
<ele>3.687385</ele>
|
|
<time>2026-07-11T15:24:37.000Z</time>
|
|
</trkpt>
|
|
<trkpt lat="55.667882" lon="8.155855">
|
|
<ele>3.700509</ele>
|
|
<time>2026-07-11T15:24:38.000Z</time>
|
|
</trkpt>
|
|
<trkpt lat="55.667939" lon="8.155883">
|
|
<ele>3.713851</ele>
|
|
<time>2026-07-11T15:24:39.000Z</time>
|
|
</trkpt>
|
|
<trkpt lat="55.667995" lon="8.155913">
|
|
<ele>3.727047</ele>
|
|
<time>2026-07-11T15:24:40.000Z</time>
|
|
</trkpt>
|
|
<trkpt lat="55.668048" lon="8.155944">
|
|
<ele>3.743444</ele>
|
|
<time>2026-07-11T15:24:41.000Z</time>
|
|
</trkpt>
|
|
<trkpt lat="55.668099" lon="8.155974">
|
|
<ele>3.767806</ele>
|
|
<time>2026-07-11T15:24:42.000Z</time>
|
|
</trkpt>
|
|
<trkpt lat="55.668151" lon="8.156006">
|
|
<ele>3.792761</ele>
|
|
<time>2026-07-11T15:24:43.000Z</time>
|
|
</trkpt>
|
|
<trkpt lat="55.668206" lon="8.156037">
|
|
<ele>3.818926</ele>
|
|
<time>2026-07-11T15:24:44.000Z</time>
|
|
</trkpt>
|
|
<trkpt lat="55.668262" lon="8.156068">
|
|
<ele>3.845523</ele>
|
|
<time>2026-07-11T15:24:45.000Z</time>
|
|
</trkpt>
|
|
<trkpt lat="55.668317" lon="8.156098">
|
|
<ele>3.871612</ele>
|
|
<time>2026-07-11T15:24:46.000Z</time>
|
|
</trkpt>
|
|
<trkpt lat="55.668371" lon="8.156127">
|
|
<ele>3.897192</ele>
|
|
<time>2026-07-11T15:24:47.000Z</time>
|
|
</trkpt>
|
|
<trkpt lat="55.668423" lon="8.156157">
|
|
<ele>3.921984</ele>
|
|
<time>2026-07-11T15:24:48.000Z</time>
|
|
</trkpt>
|
|
<trkpt lat="55.668479" lon="8.156188">
|
|
<ele>3.948582</ele>
|
|
<time>2026-07-11T15:24:49.000Z</time>
|
|
</trkpt>
|
|
<trkpt lat="55.668532" lon="8.156223">
|
|
<ele>3.974223</ele>
|
|
<time>2026-07-11T15:24:50.000Z</time>
|
|
</trkpt>
|
|
<trkpt lat="55.668585" lon="8.156260">
|
|
<ele>4.000047</ele>
|
|
<time>2026-07-11T15:24:51.000Z</time>
|
|
</trkpt>
|
|
<trkpt lat="55.668639" lon="8.156298">
|
|
<ele>4.026387</ele>
|
|
<time>2026-07-11T15:24:52.000Z</time>
|
|
</trkpt>
|
|
<trkpt lat="55.668693" lon="8.156340">
|
|
<ele>4.053121</ele>
|
|
<time>2026-07-11T15:24:53.000Z</time>
|
|
</trkpt>
|
|
<trkpt lat="55.668745" lon="8.156383">
|
|
<ele>4.079134</ele>
|
|
<time>2026-07-11T15:24:54.000Z</time>
|
|
</trkpt>
|
|
<trkpt lat="55.668795" lon="8.156426">
|
|
<ele>4.104328</ele>
|
|
<time>2026-07-11T15:24:55.000Z</time>
|
|
</trkpt>
|
|
<trkpt lat="55.668847" lon="8.156471">
|
|
<ele>4.130562</ele>
|
|
<time>2026-07-11T15:24:56.000Z</time>
|
|
</trkpt>
|
|
<trkpt lat="55.668898" lon="8.156518">
|
|
<ele>4.156620</ele>
|
|
<time>2026-07-11T15:24:57.000Z</time>
|
|
</trkpt>
|
|
<trkpt lat="55.668950" lon="8.156567">
|
|
<ele>4.183318</ele>
|
|
<time>2026-07-11T15:24:58.000Z</time>
|
|
</trkpt>
|
|
<trkpt lat="55.668996" lon="8.156620">
|
|
<ele>4.208190</ele>
|
|
<time>2026-07-11T15:24:59.000Z</time>
|
|
</trkpt>
|
|
<trkpt lat="55.669039" lon="8.156678">
|
|
<ele>4.232684</ele>
|
|
<time>2026-07-11T15:25:00.000Z</time>
|
|
</trkpt>
|
|
<trkpt lat="55.669080" lon="8.156738">
|
|
<ele>4.256786</ele>
|
|
<time>2026-07-11T15:25:01.000Z</time>
|
|
</trkpt>
|
|
<trkpt lat="55.669122" lon="8.156796">
|
|
<ele>4.280921</ele>
|
|
<time>2026-07-11T15:25:02.000Z</time>
|
|
</trkpt>
|
|
<trkpt lat="55.669165" lon="8.156854">
|
|
<ele>4.305416</ele>
|
|
<time>2026-07-11T15:25:03.000Z</time>
|
|
</trkpt>
|
|
<trkpt lat="55.669208" lon="8.156913">
|
|
<ele>4.330066</ele>
|
|
<time>2026-07-11T15:25:04.000Z</time>
|
|
</trkpt>
|
|
<trkpt lat="55.669251" lon="8.156973">
|
|
<ele>4.354873</ele>
|
|
<time>2026-07-11T15:25:05.000Z</time>
|
|
</trkpt>
|
|
<trkpt lat="55.669293" lon="8.157033">
|
|
<ele>4.379326</ele>
|
|
<time>2026-07-11T15:25:06.000Z</time>
|
|
</trkpt>
|
|
<trkpt lat="55.669338" lon="8.157095">
|
|
<ele>4.405163</ele>
|
|
<time>2026-07-11T15:25:07.000Z</time>
|
|
</trkpt>
|
|
<trkpt lat="55.669382" lon="8.157158">
|
|
<ele>4.430803</ele>
|
|
<time>2026-07-11T15:25:08.000Z</time>
|
|
</trkpt>
|
|
<trkpt lat="55.669422" lon="8.157223">
|
|
<ele>4.455402</ele>
|
|
<time>2026-07-11T15:25:09.000Z</time>
|
|
</trkpt>
|
|
<trkpt lat="55.669462" lon="8.157286">
|
|
<ele>4.479658</ele>
|
|
<time>2026-07-11T15:25:10.000Z</time>
|
|
</trkpt>
|
|
<trkpt lat="55.669504" lon="8.157348">
|
|
<ele>4.504435</ele>
|
|
<time>2026-07-11T15:25:11.000Z</time>
|
|
</trkpt>
|
|
<trkpt lat="55.669546" lon="8.157413">
|
|
<ele>4.529709</ele>
|
|
<time>2026-07-11T15:25:12.000Z</time>
|
|
</trkpt>
|
|
<trkpt lat="55.669588" lon="8.157481">
|
|
<ele>4.555879</ele>
|
|
<time>2026-07-11T15:25:13.000Z</time>
|
|
</trkpt>
|
|
<trkpt lat="55.669629" lon="8.157549">
|
|
<ele>4.583680</ele>
|
|
<time>2026-07-11T15:25:14.000Z</time>
|
|
</trkpt>
|
|
<trkpt lat="55.669668" lon="8.157623">
|
|
<ele>4.611965</ele>
|
|
<time>2026-07-11T15:25:15.000Z</time>
|
|
</trkpt>
|
|
<trkpt lat="55.669703" lon="8.157699">
|
|
<ele>4.639368</ele>
|
|
<time>2026-07-11T15:25:16.000Z</time>
|
|
</trkpt>
|
|
<trkpt lat="55.669737" lon="8.157775">
|
|
<ele>4.666459</ele>
|
|
<time>2026-07-11T15:25:17.000Z</time>
|
|
</trkpt>
|
|
<trkpt lat="55.669770" lon="8.157854">
|
|
<ele>4.693915</ele>
|
|
<time>2026-07-11T15:25:18.000Z</time>
|
|
</trkpt>
|
|
<trkpt lat="55.669801" lon="8.157938">
|
|
<ele>4.721950</ele>
|
|
<time>2026-07-11T15:25:19.000Z</time>
|
|
</trkpt>
|
|
<trkpt lat="55.669830" lon="8.158022">
|
|
<ele>4.749456</ele>
|
|
<time>2026-07-11T15:25:20.000Z</time>
|
|
</trkpt>
|
|
<trkpt lat="55.669856" lon="8.158108">
|
|
<ele>4.776706</ele>
|
|
<time>2026-07-11T15:25:21.000Z</time>
|
|
</trkpt>
|
|
<trkpt lat="55.669882" lon="8.158199">
|
|
<ele>4.805195</ele>
|
|
<time>2026-07-11T15:25:22.000Z</time>
|
|
</trkpt>
|
|
<trkpt lat="55.669905" lon="8.158290">
|
|
<ele>4.833045</ele>
|
|
<time>2026-07-11T15:25:23.000Z</time>
|
|
</trkpt>
|
|
<trkpt lat="55.669927" lon="8.158379">
|
|
<ele>4.860183</ele>
|
|
<time>2026-07-11T15:25:24.000Z</time>
|
|
</trkpt>
|
|
<trkpt lat="55.669950" lon="8.158468">
|
|
<ele>4.887523</ele>
|
|
<time>2026-07-11T15:25:25.000Z</time>
|
|
</trkpt>
|
|
<trkpt lat="55.669973" lon="8.158560">
|
|
<ele>4.915627</ele>
|
|
<time>2026-07-11T15:25:26.000Z</time>
|
|
</trkpt>
|
|
<trkpt lat="55.669994" lon="8.158653">
|
|
<ele>4.943604</ele>
|
|
<time>2026-07-11T15:25:27.000Z</time>
|
|
</trkpt>
|
|
<trkpt lat="55.670013" lon="8.158745">
|
|
<ele>4.970966</ele>
|
|
<time>2026-07-11T15:25:28.000Z</time>
|
|
</trkpt>
|
|
<trkpt lat="55.670034" lon="8.158838">
|
|
<ele>4.998942</ele>
|
|
<time>2026-07-11T15:25:29.000Z</time>
|
|
</trkpt>
|
|
<trkpt lat="55.670055" lon="8.158930">
|
|
<ele>5.026660</ele>
|
|
<time>2026-07-11T15:25:30.000Z</time>
|
|
</trkpt>
|
|
<trkpt lat="55.670076" lon="8.159022">
|
|
<ele>5.054378</ele>
|
|
<time>2026-07-11T15:25:31.000Z</time>
|
|
</trkpt>
|
|
<trkpt lat="55.670099" lon="8.159115">
|
|
<ele>5.082737</ele>
|
|
<time>2026-07-11T15:25:32.000Z</time>
|
|
</trkpt>
|
|
<trkpt lat="55.670120" lon="8.159205">
|
|
<ele>5.109938</ele>
|
|
<time>2026-07-11T15:25:33.000Z</time>
|
|
</trkpt>
|
|
<trkpt lat="55.670141" lon="8.159297">
|
|
<ele>5.137656</ele>
|
|
<time>2026-07-11T15:25:34.000Z</time>
|
|
</trkpt>
|
|
<trkpt lat="55.670161" lon="8.159388">
|
|
<ele>5.164931</ele>
|
|
<time>2026-07-11T15:25:35.000Z</time>
|
|
</trkpt>
|
|
<trkpt lat="55.670179" lon="8.159479">
|
|
<ele>5.191862</ele>
|
|
<time>2026-07-11T15:25:36.000Z</time>
|
|
</trkpt>
|
|
<trkpt lat="55.670200" lon="8.159569">
|
|
<ele>5.219063</ele>
|
|
<time>2026-07-11T15:25:37.000Z</time>
|
|
</trkpt>
|
|
<trkpt lat="55.670221" lon="8.159655">
|
|
<ele>5.245235</ele>
|
|
<time>2026-07-11T15:25:38.000Z</time>
|
|
</trkpt>
|
|
<trkpt lat="55.670242" lon="8.159738">
|
|
<ele>5.270640</ele>
|
|
<time>2026-07-11T15:25:39.000Z</time>
|
|
</trkpt>
|
|
<trkpt lat="55.670261" lon="8.159820">
|
|
<ele>5.295398</ele>
|
|
<time>2026-07-11T15:25:40.000Z</time>
|
|
</trkpt>
|
|
<trkpt lat="55.670281" lon="8.159902">
|
|
<ele>5.320348</ele>
|
|
<time>2026-07-11T15:25:41.000Z</time>
|
|
</trkpt>
|
|
<trkpt lat="55.670297" lon="8.159983">
|
|
<ele>5.344316</ele>
|
|
<time>2026-07-11T15:25:42.000Z</time>
|
|
</trkpt>
|
|
<trkpt lat="55.670305" lon="8.160063">
|
|
<ele>5.367006</ele>
|
|
<time>2026-07-11T15:25:43.000Z</time>
|
|
</trkpt>
|
|
<trkpt lat="55.670306" lon="8.160146">
|
|
<ele>5.390190</ele>
|
|
<time>2026-07-11T15:25:44.000Z</time>
|
|
</trkpt>
|
|
<trkpt lat="55.670299" lon="8.160231">
|
|
<ele>5.414180</ele>
|
|
<time>2026-07-11T15:25:45.000Z</time>
|
|
</trkpt>
|
|
<trkpt lat="55.670287" lon="8.160319">
|
|
<ele>5.439464</ele>
|
|
<time>2026-07-11T15:25:46.000Z</time>
|
|
</trkpt>
|
|
<trkpt lat="55.670271" lon="8.160410">
|
|
<ele>5.445198</ele>
|
|
<time>2026-07-11T15:25:47.000Z</time>
|
|
</trkpt>
|
|
<trkpt lat="55.670248" lon="8.160503">
|
|
<ele>5.448957</ele>
|
|
<time>2026-07-11T15:25:48.000Z</time>
|
|
</trkpt>
|
|
<trkpt lat="55.670227" lon="8.160593">
|
|
<ele>5.452563</ele>
|
|
<time>2026-07-11T15:25:49.000Z</time>
|
|
</trkpt>
|
|
<trkpt lat="55.670206" lon="8.160681">
|
|
<ele>5.456101</ele>
|
|
<time>2026-07-11T15:25:50.000Z</time>
|
|
</trkpt>
|
|
<trkpt lat="55.670182" lon="8.160770">
|
|
<ele>5.459753</ele>
|
|
<time>2026-07-11T15:25:51.000Z</time>
|
|
</trkpt>
|
|
<trkpt lat="55.670155" lon="8.160860">
|
|
<ele>5.463527</ele>
|
|
<time>2026-07-11T15:25:52.000Z</time>
|
|
</trkpt>
|
|
<trkpt lat="55.670130" lon="8.160950">
|
|
<ele>5.467241</ele>
|
|
<time>2026-07-11T15:25:53.000Z</time>
|
|
</trkpt>
|
|
<trkpt lat="55.670105" lon="8.161037">
|
|
<ele>5.470856</ele>
|
|
<time>2026-07-11T15:25:54.000Z</time>
|
|
</trkpt>
|
|
<trkpt lat="55.670079" lon="8.161122">
|
|
<ele>5.474436</ele>
|
|
<time>2026-07-11T15:25:55.000Z</time>
|
|
</trkpt>
|
|
<trkpt lat="55.670054" lon="8.161205">
|
|
<ele>5.477919</ele>
|
|
<time>2026-07-11T15:25:56.000Z</time>
|
|
</trkpt>
|
|
<trkpt lat="55.670034" lon="8.161279">
|
|
<ele>5.480957</ele>
|
|
<time>2026-07-11T15:25:57.000Z</time>
|
|
</trkpt>
|
|
<trkpt lat="55.670014" lon="8.161353">
|
|
<ele>5.483995</ele>
|
|
<time>2026-07-11T15:25:58.000Z</time>
|
|
</trkpt>
|
|
<trkpt lat="55.669987" lon="8.161442">
|
|
<ele>5.487736</ele>
|
|
<time>2026-07-11T15:25:59.000Z</time>
|
|
</trkpt>
|
|
<trkpt lat="55.669957" lon="8.161531">
|
|
<ele>5.491575</ele>
|
|
<time>2026-07-11T15:26:00.000Z</time>
|
|
</trkpt>
|
|
<trkpt lat="55.669926" lon="8.161615">
|
|
<ele>5.495292</ele>
|
|
<time>2026-07-11T15:26:01.000Z</time>
|
|
</trkpt>
|
|
<trkpt lat="55.669898" lon="8.161698">
|
|
<ele>5.498872</ele>
|
|
<time>2026-07-11T15:26:02.000Z</time>
|
|
</trkpt>
|
|
<trkpt lat="55.669869" lon="8.161784">
|
|
<ele>5.502582</ele>
|
|
<time>2026-07-11T15:26:03.000Z</time>
|
|
</trkpt>
|
|
<trkpt lat="55.669843" lon="8.161864">
|
|
<ele>5.506000</ele>
|
|
<time>2026-07-11T15:26:04.000Z</time>
|
|
</trkpt>
|
|
<trkpt lat="55.669815" lon="8.161947">
|
|
<ele>5.509581</ele>
|
|
<time>2026-07-11T15:26:05.000Z</time>
|
|
</trkpt>
|
|
<trkpt lat="55.669781" lon="8.162045">
|
|
<ele>5.513840</ele>
|
|
<time>2026-07-11T15:26:06.000Z</time>
|
|
</trkpt>
|
|
<trkpt lat="55.669753" lon="8.162127">
|
|
<ele>5.517389</ele>
|
|
<time>2026-07-11T15:26:07.000Z</time>
|
|
</trkpt>
|
|
<trkpt lat="55.669724" lon="8.162208">
|
|
<ele>5.520941</ele>
|
|
<time>2026-07-11T15:26:08.000Z</time>
|
|
</trkpt>
|
|
<trkpt lat="55.669697" lon="8.162285">
|
|
<ele>5.524298</ele>
|
|
<time>2026-07-11T15:26:09.000Z</time>
|
|
</trkpt>
|
|
<trkpt lat="55.669670" lon="8.162362">
|
|
<ele>5.527655</ele>
|
|
<time>2026-07-11T15:26:10.000Z</time>
|
|
</trkpt>
|
|
<trkpt lat="55.669646" lon="8.162437">
|
|
<ele>5.530847</ele>
|
|
<time>2026-07-11T15:26:11.000Z</time>
|
|
</trkpt>
|
|
<trkpt lat="55.669623" lon="8.162510">
|
|
<ele>5.533943</ele>
|
|
<time>2026-07-11T15:26:12.000Z</time>
|
|
</trkpt>
|
|
<trkpt lat="55.669600" lon="8.162589">
|
|
<ele>5.537234</ele>
|
|
<time>2026-07-11T15:26:13.000Z</time>
|
|
</trkpt>
|
|
<trkpt lat="55.669577" lon="8.162678">
|
|
<ele>5.540859</ele>
|
|
<time>2026-07-11T15:26:14.000Z</time>
|
|
</trkpt>
|
|
<trkpt lat="55.669557" lon="8.162778">
|
|
<ele>5.544787</ele>
|
|
<time>2026-07-11T15:26:15.000Z</time>
|
|
</trkpt>
|
|
<trkpt lat="55.669543" lon="8.162876">
|
|
<ele>5.548529</ele>
|
|
<time>2026-07-11T15:26:16.000Z</time>
|
|
</trkpt>
|
|
<trkpt lat="55.669535" lon="8.162965">
|
|
<ele>5.551866</ele>
|
|
<time>2026-07-11T15:26:17.000Z</time>
|
|
</trkpt>
|
|
<trkpt lat="55.669534" lon="8.163052">
|
|
<ele>5.555087</ele>
|
|
<time>2026-07-11T15:26:18.000Z</time>
|
|
</trkpt>
|
|
<trkpt lat="55.669543" lon="8.163131">
|
|
<ele>5.558071</ele>
|
|
<time>2026-07-11T15:26:19.000Z</time>
|
|
</trkpt>
|
|
<trkpt lat="55.669558" lon="8.163211">
|
|
<ele>5.565231</ele>
|
|
<time>2026-07-11T15:26:20.000Z</time>
|
|
</trkpt>
|
|
<trkpt lat="55.669575" lon="8.163299">
|
|
<ele>5.581163</ele>
|
|
<time>2026-07-11T15:26:21.000Z</time>
|
|
</trkpt>
|
|
<trkpt lat="55.669592" lon="8.163387">
|
|
<ele>5.597096</ele>
|
|
<time>2026-07-11T15:26:22.000Z</time>
|
|
</trkpt>
|
|
<trkpt lat="55.669611" lon="8.163474">
|
|
<ele>5.613075</ele>
|
|
<time>2026-07-11T15:26:23.000Z</time>
|
|
</trkpt>
|
|
<trkpt lat="55.669632" lon="8.163552">
|
|
<ele>5.627879</ele>
|
|
<time>2026-07-11T15:26:24.000Z</time>
|
|
</trkpt>
|
|
<trkpt lat="55.669650" lon="8.163625">
|
|
<ele>5.641525</ele>
|
|
<time>2026-07-11T15:26:25.000Z</time>
|
|
</trkpt>
|
|
<trkpt lat="55.669665" lon="8.163685">
|
|
<ele>5.652766</ele>
|
|
<time>2026-07-11T15:26:26.000Z</time>
|
|
</trkpt>
|
|
<trkpt lat="55.669679" lon="8.163732">
|
|
<ele>5.661870</ele>
|
|
<time>2026-07-11T15:26:27.000Z</time>
|
|
</trkpt>
|
|
<trkpt lat="55.669690" lon="8.163774">
|
|
<ele>5.669802</ele>
|
|
<time>2026-07-11T15:26:28.000Z</time>
|
|
</trkpt>
|
|
<trkpt lat="55.669702" lon="8.163815">
|
|
<ele>5.677713</ele>
|
|
<time>2026-07-11T15:26:29.000Z</time>
|
|
</trkpt>
|
|
<trkpt lat="55.669717" lon="8.163846">
|
|
<ele>5.684709</ele>
|
|
<time>2026-07-11T15:26:30.000Z</time>
|
|
</trkpt>
|
|
<trkpt lat="55.669737" lon="8.163872">
|
|
<ele>5.692241</ele>
|
|
<time>2026-07-11T15:26:31.000Z</time>
|
|
</trkpt>
|
|
<trkpt lat="55.669753" lon="8.163899">
|
|
<ele>5.698949</ele>
|
|
<time>2026-07-11T15:26:32.000Z</time>
|
|
</trkpt>
|
|
<trkpt lat="55.669769" lon="8.163935">
|
|
<ele>5.706800</ele>
|
|
<time>2026-07-11T15:26:33.000Z</time>
|
|
</trkpt>
|
|
<trkpt lat="55.669788" lon="8.163977">
|
|
<ele>5.716022</ele>
|
|
<time>2026-07-11T15:26:34.000Z</time>
|
|
</trkpt>
|
|
<trkpt lat="55.669809" lon="8.164028">
|
|
<ele>5.726837</ele>
|
|
<time>2026-07-11T15:26:35.000Z</time>
|
|
</trkpt>
|
|
<trkpt lat="55.669831" lon="8.164081">
|
|
<ele>5.738109</ele>
|
|
<time>2026-07-11T15:26:36.000Z</time>
|
|
</trkpt>
|
|
<trkpt lat="55.669855" lon="8.164139">
|
|
<ele>5.750430</ele>
|
|
<time>2026-07-11T15:26:37.000Z</time>
|
|
</trkpt>
|
|
<trkpt lat="55.669882" lon="8.164199">
|
|
<ele>5.763577</ele>
|
|
<time>2026-07-11T15:26:38.000Z</time>
|
|
</trkpt>
|
|
<trkpt lat="55.669904" lon="8.164249">
|
|
<ele>5.774439</ele>
|
|
<time>2026-07-11T15:26:39.000Z</time>
|
|
</trkpt>
|
|
<trkpt lat="55.669925" lon="8.164298">
|
|
<ele>5.784980</ele>
|
|
<time>2026-07-11T15:26:40.000Z</time>
|
|
</trkpt>
|
|
<trkpt lat="55.669940" lon="8.164344">
|
|
<ele>5.794081</ele>
|
|
<time>2026-07-11T15:26:41.000Z</time>
|
|
</trkpt>
|
|
<trkpt lat="55.669955" lon="8.164388">
|
|
<ele>5.802887</ele>
|
|
<time>2026-07-11T15:26:42.000Z</time>
|
|
</trkpt>
|
|
<trkpt lat="55.669970" lon="8.164437">
|
|
<ele>5.812436</ele>
|
|
<time>2026-07-11T15:26:43.000Z</time>
|
|
</trkpt>
|
|
<trkpt lat="55.669990" lon="8.164487">
|
|
<ele>5.822936</ele>
|
|
<time>2026-07-11T15:26:44.000Z</time>
|
|
</trkpt>
|
|
<trkpt lat="55.670014" lon="8.164533">
|
|
<ele>5.833669</ele>
|
|
<time>2026-07-11T15:26:45.000Z</time>
|
|
</trkpt>
|
|
<trkpt lat="55.670034" lon="8.164577">
|
|
<ele>5.843348</ele>
|
|
<time>2026-07-11T15:26:46.000Z</time>
|
|
</trkpt>
|
|
<trkpt lat="55.670056" lon="8.164623">
|
|
<ele>5.853678</ele>
|
|
<time>2026-07-11T15:26:47.000Z</time>
|
|
</trkpt>
|
|
<trkpt lat="55.670075" lon="8.164675">
|
|
<ele>5.864291</ele>
|
|
<time>2026-07-11T15:26:48.000Z</time>
|
|
</trkpt>
|
|
<trkpt lat="55.670095" lon="8.164734">
|
|
<ele>5.876081</ele>
|
|
<time>2026-07-11T15:26:49.000Z</time>
|
|
</trkpt>
|
|
<trkpt lat="55.670120" lon="8.164804">
|
|
<ele>5.890272</ele>
|
|
<time>2026-07-11T15:26:50.000Z</time>
|
|
</trkpt>
|
|
<trkpt lat="55.670154" lon="8.164870">
|
|
<ele>5.905582</ele>
|
|
<time>2026-07-11T15:26:51.000Z</time>
|
|
</trkpt>
|
|
<trkpt lat="55.670198" lon="8.164934">
|
|
<ele>5.922866</ele>
|
|
<time>2026-07-11T15:26:52.000Z</time>
|
|
</trkpt>
|
|
<trkpt lat="55.670231" lon="8.164992">
|
|
<ele>5.936977</ele>
|
|
<time>2026-07-11T15:26:53.000Z</time>
|
|
</trkpt>
|
|
<trkpt lat="55.670258" lon="8.165053">
|
|
<ele>5.950259</ele>
|
|
<time>2026-07-11T15:26:54.000Z</time>
|
|
</trkpt>
|
|
<trkpt lat="55.670283" lon="8.165114">
|
|
<ele>5.963174</ele>
|
|
<time>2026-07-11T15:26:55.000Z</time>
|
|
</trkpt>
|
|
<trkpt lat="55.670307" lon="8.165174">
|
|
<ele>5.975773</ele>
|
|
<time>2026-07-11T15:26:56.000Z</time>
|
|
</trkpt>
|
|
<trkpt lat="55.670340" lon="8.165243">
|
|
<ele>5.991269</ele>
|
|
<time>2026-07-11T15:26:57.000Z</time>
|
|
</trkpt>
|
|
<trkpt lat="55.670381" lon="8.165307">
|
|
<ele>6.007858</ele>
|
|
<time>2026-07-11T15:26:58.000Z</time>
|
|
</trkpt>
|
|
<trkpt lat="55.670419" lon="8.165363">
|
|
<ele>6.022864</ele>
|
|
<time>2026-07-11T15:26:59.000Z</time>
|
|
</trkpt>
|
|
<trkpt lat="55.670452" lon="8.165407">
|
|
<ele>6.035403</ele>
|
|
<time>2026-07-11T15:27:00.000Z</time>
|
|
</trkpt>
|
|
<trkpt lat="55.670475" lon="8.165438">
|
|
<ele>6.044177</ele>
|
|
<time>2026-07-11T15:27:01.000Z</time>
|
|
</trkpt>
|
|
<trkpt lat="55.670490" lon="8.165457">
|
|
<ele>6.049776</ele>
|
|
<time>2026-07-11T15:27:02.000Z</time>
|
|
</trkpt>
|
|
<trkpt lat="55.670496" lon="8.165466">
|
|
<ele>6.052163</ele>
|
|
<time>2026-07-11T15:27:03.000Z</time>
|
|
</trkpt>
|
|
<trkpt lat="55.670498" lon="8.165470">
|
|
<ele>6.053078</ele>
|
|
<time>2026-07-11T15:27:04.000Z</time>
|
|
</trkpt>
|
|
<trkpt lat="55.670583" lon="8.165555">
|
|
<ele>6.082715</ele>
|
|
<time>2026-07-11T15:27:10.000Z</time>
|
|
</trkpt>
|
|
<trkpt lat="55.670607" lon="8.165581">
|
|
<ele>6.091257</ele>
|
|
<time>2026-07-11T15:27:11.000Z</time>
|
|
</trkpt>
|
|
<trkpt lat="55.670635" lon="8.165609">
|
|
<ele>6.101019</ele>
|
|
<time>2026-07-11T15:27:12.000Z</time>
|
|
</trkpt>
|
|
<trkpt lat="55.670667" lon="8.165640">
|
|
<ele>6.114495</ele>
|
|
<time>2026-07-11T15:27:13.000Z</time>
|
|
</trkpt>
|
|
<trkpt lat="55.670701" lon="8.165678">
|
|
<ele>6.131790</ele>
|
|
<time>2026-07-11T15:27:14.000Z</time>
|
|
</trkpt>
|
|
<trkpt lat="55.670738" lon="8.165720">
|
|
<ele>6.150695</ele>
|
|
<time>2026-07-11T15:27:15.000Z</time>
|
|
</trkpt>
|
|
<trkpt lat="55.670773" lon="8.165765">
|
|
<ele>6.169299</ele>
|
|
<time>2026-07-11T15:27:16.000Z</time>
|
|
</trkpt>
|
|
<trkpt lat="55.670807" lon="8.165813">
|
|
<ele>6.188001</ele>
|
|
<time>2026-07-11T15:27:17.000Z</time>
|
|
</trkpt>
|
|
<trkpt lat="55.670844" lon="8.165860">
|
|
<ele>6.207586</ele>
|
|
<time>2026-07-11T15:27:18.000Z</time>
|
|
</trkpt>
|
|
<trkpt lat="55.670883" lon="8.165908">
|
|
<ele>6.228015</ele>
|
|
<time>2026-07-11T15:27:19.000Z</time>
|
|
</trkpt>
|
|
<trkpt lat="55.670921" lon="8.165954">
|
|
<ele>6.247815</ele>
|
|
<time>2026-07-11T15:27:20.000Z</time>
|
|
</trkpt>
|
|
<trkpt lat="55.670961" lon="8.166000">
|
|
<ele>6.268330</ele>
|
|
<time>2026-07-11T15:27:21.000Z</time>
|
|
</trkpt>
|
|
<trkpt lat="55.671003" lon="8.166046">
|
|
<ele>6.289574</ele>
|
|
<time>2026-07-11T15:27:22.000Z</time>
|
|
</trkpt>
|
|
<trkpt lat="55.671046" lon="8.166096">
|
|
<ele>6.311701</ele>
|
|
<time>2026-07-11T15:27:23.000Z</time>
|
|
</trkpt>
|
|
<trkpt lat="55.671086" lon="8.166144">
|
|
<ele>6.332485</ele>
|
|
<time>2026-07-11T15:27:24.000Z</time>
|
|
</trkpt>
|
|
<trkpt lat="55.671122" lon="8.166189">
|
|
<ele>6.351439</ele>
|
|
<time>2026-07-11T15:27:25.000Z</time>
|
|
</trkpt>
|
|
<trkpt lat="55.671160" lon="8.166233">
|
|
<ele>6.370968</ele>
|
|
<time>2026-07-11T15:27:26.000Z</time>
|
|
</trkpt>
|
|
<trkpt lat="55.671200" lon="8.166280">
|
|
<ele>6.391617</ele>
|
|
<time>2026-07-11T15:27:27.000Z</time>
|
|
</trkpt>
|
|
<trkpt lat="55.671238" lon="8.166325">
|
|
<ele>6.411281</ele>
|
|
<time>2026-07-11T15:27:28.000Z</time>
|
|
</trkpt>
|
|
<trkpt lat="55.671276" lon="8.166370">
|
|
<ele>6.430944</ele>
|
|
<time>2026-07-11T15:27:29.000Z</time>
|
|
</trkpt>
|
|
<trkpt lat="55.671317" lon="8.166417">
|
|
<ele>6.451953</ele>
|
|
<time>2026-07-11T15:27:30.000Z</time>
|
|
</trkpt>
|
|
<trkpt lat="55.671362" lon="8.166465">
|
|
<ele>6.474551</ele>
|
|
<time>2026-07-11T15:27:31.000Z</time>
|
|
</trkpt>
|
|
<trkpt lat="55.671404" lon="8.166510">
|
|
<ele>6.495668</ele>
|
|
<time>2026-07-11T15:27:32.000Z</time>
|
|
</trkpt>
|
|
<trkpt lat="55.671446" lon="8.166554">
|
|
<ele>6.516660</ele>
|
|
<time>2026-07-11T15:27:33.000Z</time>
|
|
</trkpt>
|
|
<trkpt lat="55.671490" lon="8.166600">
|
|
<ele>6.538640</ele>
|
|
<time>2026-07-11T15:27:34.000Z</time>
|
|
</trkpt>
|
|
<trkpt lat="55.671535" lon="8.166647">
|
|
<ele>6.561113</ele>
|
|
<time>2026-07-11T15:27:35.000Z</time>
|
|
</trkpt>
|
|
<trkpt lat="55.671579" lon="8.166695">
|
|
<ele>6.583344</ele>
|
|
<time>2026-07-11T15:27:36.000Z</time>
|
|
</trkpt>
|
|
<trkpt lat="55.671622" lon="8.166744">
|
|
<ele>6.605339</ele>
|
|
<time>2026-07-11T15:27:37.000Z</time>
|
|
</trkpt>
|
|
<trkpt lat="55.671667" lon="8.166794">
|
|
<ele>6.628191</ele>
|
|
<time>2026-07-11T15:27:38.000Z</time>
|
|
</trkpt>
|
|
<trkpt lat="55.671721" lon="8.166846">
|
|
<ele>6.654633</ele>
|
|
<time>2026-07-11T15:27:39.000Z</time>
|
|
</trkpt>
|
|
<trkpt lat="55.671768" lon="8.166895">
|
|
<ele>6.678095</ele>
|
|
<time>2026-07-11T15:27:40.000Z</time>
|
|
</trkpt>
|
|
<trkpt lat="55.671812" lon="8.166942">
|
|
<ele>6.700199</ele>
|
|
<time>2026-07-11T15:27:41.000Z</time>
|
|
</trkpt>
|
|
<trkpt lat="55.671856" lon="8.166990">
|
|
<ele>6.722430</ele>
|
|
<time>2026-07-11T15:27:42.000Z</time>
|
|
</trkpt>
|
|
<trkpt lat="55.671902" lon="8.167038">
|
|
<ele>6.745397</ele>
|
|
<time>2026-07-11T15:27:43.000Z</time>
|
|
</trkpt>
|
|
<trkpt lat="55.671947" lon="8.167085">
|
|
<ele>6.767871</ele>
|
|
<time>2026-07-11T15:27:44.000Z</time>
|
|
</trkpt>
|
|
<trkpt lat="55.671992" lon="8.167130">
|
|
<ele>6.790102</ele>
|
|
<time>2026-07-11T15:27:45.000Z</time>
|
|
</trkpt>
|
|
<trkpt lat="55.672040" lon="8.167178">
|
|
<ele>6.813816</ele>
|
|
<time>2026-07-11T15:27:46.000Z</time>
|
|
</trkpt>
|
|
<trkpt lat="55.672086" lon="8.167228">
|
|
<ele>6.837034</ele>
|
|
<time>2026-07-11T15:27:47.000Z</time>
|
|
</trkpt>
|
|
<trkpt lat="55.672130" lon="8.167276">
|
|
<ele>6.859264</ele>
|
|
<time>2026-07-11T15:27:48.000Z</time>
|
|
</trkpt>
|
|
<trkpt lat="55.672171" lon="8.167323">
|
|
<ele>6.880273</ele>
|
|
<time>2026-07-11T15:27:49.000Z</time>
|
|
</trkpt>
|
|
<trkpt lat="55.672215" lon="8.167373">
|
|
<ele>6.878145</ele>
|
|
<time>2026-07-11T15:27:50.000Z</time>
|
|
</trkpt>
|
|
<trkpt lat="55.672261" lon="8.167422">
|
|
<ele>6.875896</ele>
|
|
<time>2026-07-11T15:27:51.000Z</time>
|
|
</trkpt>
|
|
<trkpt lat="55.672305" lon="8.167471">
|
|
<ele>6.873720</ele>
|
|
<time>2026-07-11T15:27:52.000Z</time>
|
|
</trkpt>
|
|
<trkpt lat="55.672347" lon="8.167520">
|
|
<ele>6.871613</ele>
|
|
<time>2026-07-11T15:27:53.000Z</time>
|
|
</trkpt>
|
|
<trkpt lat="55.672388" lon="8.167569">
|
|
<ele>6.869542</ele>
|
|
<time>2026-07-11T15:27:54.000Z</time>
|
|
</trkpt>
|
|
<trkpt lat="55.672429" lon="8.167614">
|
|
<ele>6.867522</ele>
|
|
<time>2026-07-11T15:27:55.000Z</time>
|
|
</trkpt>
|
|
<trkpt lat="55.672475" lon="8.167659">
|
|
<ele>6.865321</ele>
|
|
<time>2026-07-11T15:27:56.000Z</time>
|
|
</trkpt>
|
|
<trkpt lat="55.672519" lon="8.167704">
|
|
<ele>6.863193</ele>
|
|
<time>2026-07-11T15:27:57.000Z</time>
|
|
</trkpt>
|
|
<trkpt lat="55.672562" lon="8.167751">
|
|
<ele>6.861077</ele>
|
|
<time>2026-07-11T15:27:58.000Z</time>
|
|
</trkpt>
|
|
<trkpt lat="55.672607" lon="8.167798">
|
|
<ele>6.858889</ele>
|
|
<time>2026-07-11T15:27:59.000Z</time>
|
|
</trkpt>
|
|
<trkpt lat="55.672650" lon="8.167847">
|
|
<ele>6.856747</ele>
|
|
<time>2026-07-11T15:28:00.000Z</time>
|
|
</trkpt>
|
|
<trkpt lat="55.672694" lon="8.167896">
|
|
<ele>6.854571</ele>
|
|
<time>2026-07-11T15:28:01.000Z</time>
|
|
</trkpt>
|
|
<trkpt lat="55.672736" lon="8.167943">
|
|
<ele>6.852490</ele>
|
|
<time>2026-07-11T15:28:02.000Z</time>
|
|
</trkpt>
|
|
<trkpt lat="55.672777" lon="8.167987">
|
|
<ele>6.850482</ele>
|
|
<time>2026-07-11T15:28:03.000Z</time>
|
|
</trkpt>
|
|
<trkpt lat="55.672816" lon="8.168032">
|
|
<ele>6.848533</ele>
|
|
<time>2026-07-11T15:28:04.000Z</time>
|
|
</trkpt>
|
|
<trkpt lat="55.672857" lon="8.168080">
|
|
<ele>6.846474</ele>
|
|
<time>2026-07-11T15:28:05.000Z</time>
|
|
</trkpt>
|
|
<trkpt lat="55.672896" lon="8.168128">
|
|
<ele>6.844486</ele>
|
|
<time>2026-07-11T15:28:06.000Z</time>
|
|
</trkpt>
|
|
<trkpt lat="55.672937" lon="8.168177">
|
|
<ele>6.842414</ele>
|
|
<time>2026-07-11T15:28:07.000Z</time>
|
|
</trkpt>
|
|
<trkpt lat="55.672975" lon="8.168226">
|
|
<ele>6.840446</ele>
|
|
<time>2026-07-11T15:28:08.000Z</time>
|
|
</trkpt>
|
|
<trkpt lat="55.673013" lon="8.168273">
|
|
<ele>6.838505</ele>
|
|
<time>2026-07-11T15:28:09.000Z</time>
|
|
</trkpt>
|
|
<trkpt lat="55.673053" lon="8.168319">
|
|
<ele>6.836507</ele>
|
|
<time>2026-07-11T15:28:10.000Z</time>
|
|
</trkpt>
|
|
<trkpt lat="55.673093" lon="8.168365">
|
|
<ele>6.834510</ele>
|
|
<time>2026-07-11T15:28:11.000Z</time>
|
|
</trkpt>
|
|
<trkpt lat="55.673133" lon="8.168412">
|
|
<ele>6.832500</ele>
|
|
<time>2026-07-11T15:28:12.000Z</time>
|
|
</trkpt>
|
|
<trkpt lat="55.673175" lon="8.168458">
|
|
<ele>6.830432</ele>
|
|
<time>2026-07-11T15:28:13.000Z</time>
|
|
</trkpt>
|
|
<trkpt lat="55.673217" lon="8.168505">
|
|
<ele>6.828351</ele>
|
|
<time>2026-07-11T15:28:14.000Z</time>
|
|
</trkpt>
|
|
<trkpt lat="55.673260" lon="8.168552">
|
|
<ele>6.826235</ele>
|
|
<time>2026-07-11T15:28:15.000Z</time>
|
|
</trkpt>
|
|
<trkpt lat="55.673305" lon="8.168600">
|
|
<ele>6.824035</ele>
|
|
<time>2026-07-11T15:28:16.000Z</time>
|
|
</trkpt>
|
|
<trkpt lat="55.673347" lon="8.168648">
|
|
<ele>6.821941</ele>
|
|
<time>2026-07-11T15:28:17.000Z</time>
|
|
</trkpt>
|
|
<trkpt lat="55.673389" lon="8.168697">
|
|
<ele>6.819835</ele>
|
|
<time>2026-07-11T15:28:18.000Z</time>
|
|
</trkpt>
|
|
<trkpt lat="55.673432" lon="8.168748">
|
|
<ele>6.817668</ele>
|
|
<time>2026-07-11T15:28:19.000Z</time>
|
|
</trkpt>
|
|
<trkpt lat="55.673475" lon="8.168799">
|
|
<ele>6.815500</ele>
|
|
<time>2026-07-11T15:28:20.000Z</time>
|
|
</trkpt>
|
|
<trkpt lat="55.673518" lon="8.168847">
|
|
<ele>6.813372</ele>
|
|
<time>2026-07-11T15:28:21.000Z</time>
|
|
</trkpt>
|
|
<trkpt lat="55.673567" lon="8.168898">
|
|
<ele>6.810991</ele>
|
|
<time>2026-07-11T15:28:22.000Z</time>
|
|
</trkpt>
|
|
<trkpt lat="55.673615" lon="8.168946">
|
|
<ele>6.808683</ele>
|
|
<time>2026-07-11T15:28:23.000Z</time>
|
|
</trkpt>
|
|
<trkpt lat="55.673660" lon="8.168993">
|
|
<ele>6.806495</ele>
|
|
<time>2026-07-11T15:28:24.000Z</time>
|
|
</trkpt>
|
|
<trkpt lat="55.673703" lon="8.169043">
|
|
<ele>6.802232</ele>
|
|
<time>2026-07-11T15:28:25.000Z</time>
|
|
</trkpt>
|
|
<trkpt lat="55.673747" lon="8.169097">
|
|
<ele>6.792526</ele>
|
|
<time>2026-07-11T15:28:26.000Z</time>
|
|
</trkpt>
|
|
<trkpt lat="55.673791" lon="8.169152">
|
|
<ele>6.782762</ele>
|
|
<time>2026-07-11T15:28:27.000Z</time>
|
|
</trkpt>
|
|
<trkpt lat="55.673837" lon="8.169207">
|
|
<ele>6.772700</ele>
|
|
<time>2026-07-11T15:28:28.000Z</time>
|
|
</trkpt>
|
|
<trkpt lat="55.673882" lon="8.169262">
|
|
<ele>6.762787</ele>
|
|
<time>2026-07-11T15:28:29.000Z</time>
|
|
</trkpt>
|
|
<trkpt lat="55.673930" lon="8.169317">
|
|
<ele>6.752421</ele>
|
|
<time>2026-07-11T15:28:30.000Z</time>
|
|
</trkpt>
|
|
<trkpt lat="55.673978" lon="8.169373">
|
|
<ele>6.742000</ele>
|
|
<time>2026-07-11T15:28:31.000Z</time>
|
|
</trkpt>
|
|
<trkpt lat="55.674023" lon="8.169430">
|
|
<ele>6.731970</ele>
|
|
<time>2026-07-11T15:28:32.000Z</time>
|
|
</trkpt>
|
|
<trkpt lat="55.674071" lon="8.169488">
|
|
<ele>6.721434</ele>
|
|
<time>2026-07-11T15:28:33.000Z</time>
|
|
</trkpt>
|
|
<trkpt lat="55.674121" lon="8.169543">
|
|
<ele>6.710762</ele>
|
|
<time>2026-07-11T15:28:34.000Z</time>
|
|
</trkpt>
|
|
<trkpt lat="55.674169" lon="8.169593">
|
|
<ele>6.700665</ele>
|
|
<time>2026-07-11T15:28:35.000Z</time>
|
|
</trkpt>
|
|
<trkpt lat="55.674214" lon="8.169642">
|
|
<ele>6.691087</ele>
|
|
<time>2026-07-11T15:28:36.000Z</time>
|
|
</trkpt>
|
|
<trkpt lat="55.674262" lon="8.169692">
|
|
<ele>6.680990</ele>
|
|
<time>2026-07-11T15:28:37.000Z</time>
|
|
</trkpt>
|
|
<trkpt lat="55.674308" lon="8.169742">
|
|
<ele>6.671204</ele>
|
|
<time>2026-07-11T15:28:38.000Z</time>
|
|
</trkpt>
|
|
<trkpt lat="55.674350" lon="8.169793">
|
|
<ele>6.661972</ele>
|
|
<time>2026-07-11T15:28:39.000Z</time>
|
|
</trkpt>
|
|
<trkpt lat="55.674392" lon="8.169848">
|
|
<ele>6.652502</ele>
|
|
<time>2026-07-11T15:28:40.000Z</time>
|
|
</trkpt>
|
|
<trkpt lat="55.674433" lon="8.169905">
|
|
<ele>6.643053</ele>
|
|
<time>2026-07-11T15:28:41.000Z</time>
|
|
</trkpt>
|
|
<trkpt lat="55.674475" lon="8.169963">
|
|
<ele>6.633397</ele>
|
|
<time>2026-07-11T15:28:42.000Z</time>
|
|
</trkpt>
|
|
<trkpt lat="55.674516" lon="8.170020">
|
|
<ele>6.623948</ele>
|
|
<time>2026-07-11T15:28:43.000Z</time>
|
|
</trkpt>
|
|
<trkpt lat="55.674554" lon="8.170073">
|
|
<ele>6.615179</ele>
|
|
<time>2026-07-11T15:28:44.000Z</time>
|
|
</trkpt>
|
|
<trkpt lat="55.674594" lon="8.170122">
|
|
<ele>6.606361</ele>
|
|
<time>2026-07-11T15:28:45.000Z</time>
|
|
</trkpt>
|
|
<trkpt lat="55.674635" lon="8.170175">
|
|
<ele>6.597159</ele>
|
|
<time>2026-07-11T15:28:46.000Z</time>
|
|
</trkpt>
|
|
<trkpt lat="55.674673" lon="8.170232">
|
|
<ele>6.588132</ele>
|
|
<time>2026-07-11T15:28:47.000Z</time>
|
|
</trkpt>
|
|
<trkpt lat="55.674711" lon="8.170285">
|
|
<ele>6.579363</ele>
|
|
<time>2026-07-11T15:28:48.000Z</time>
|
|
</trkpt>
|
|
<trkpt lat="55.674749" lon="8.170336">
|
|
<ele>6.570719</ele>
|
|
<time>2026-07-11T15:28:49.000Z</time>
|
|
</trkpt>
|
|
<trkpt lat="55.674787" lon="8.170390">
|
|
<ele>6.561887</ele>
|
|
<time>2026-07-11T15:28:50.000Z</time>
|
|
</trkpt>
|
|
<trkpt lat="55.674825" lon="8.170441">
|
|
<ele>6.553243</ele>
|
|
<time>2026-07-11T15:28:51.000Z</time>
|
|
</trkpt>
|
|
<trkpt lat="55.674865" lon="8.170496">
|
|
<ele>6.544063</ele>
|
|
<time>2026-07-11T15:28:52.000Z</time>
|
|
</trkpt>
|
|
<trkpt lat="55.674907" lon="8.170553">
|
|
<ele>6.534470</ele>
|
|
<time>2026-07-11T15:28:53.000Z</time>
|
|
</trkpt>
|
|
<trkpt lat="55.674949" lon="8.170607">
|
|
<ele>6.525061</ele>
|
|
<time>2026-07-11T15:28:54.000Z</time>
|
|
</trkpt>
|
|
<trkpt lat="55.674989" lon="8.170661">
|
|
<ele>6.515942</ele>
|
|
<time>2026-07-11T15:28:55.000Z</time>
|
|
</trkpt>
|
|
<trkpt lat="55.675029" lon="8.170710">
|
|
<ele>6.507125</ele>
|
|
<time>2026-07-11T15:28:56.000Z</time>
|
|
</trkpt>
|
|
<trkpt lat="55.675069" lon="8.170759">
|
|
<ele>6.498307</ele>
|
|
<time>2026-07-11T15:28:57.000Z</time>
|
|
</trkpt>
|
|
<trkpt lat="55.675104" lon="8.170810">
|
|
<ele>6.490090</ele>
|
|
<time>2026-07-11T15:28:58.000Z</time>
|
|
</trkpt>
|
|
<trkpt lat="55.675140" lon="8.170858">
|
|
<ele>6.481921</ele>
|
|
<time>2026-07-11T15:28:59.000Z</time>
|
|
</trkpt>
|
|
<trkpt lat="55.675181" lon="8.170903">
|
|
<ele>6.473617</ele>
|
|
<time>2026-07-11T15:29:00.000Z</time>
|
|
</trkpt>
|
|
<trkpt lat="55.675223" lon="8.170943">
|
|
<ele>6.465657</ele>
|
|
<time>2026-07-11T15:29:01.000Z</time>
|
|
</trkpt>
|
|
<trkpt lat="55.675269" lon="8.170974">
|
|
<ele>6.457440</ele>
|
|
<time>2026-07-11T15:29:02.000Z</time>
|
|
</trkpt>
|
|
<trkpt lat="55.675312" lon="8.170992">
|
|
<ele>6.450063</ele>
|
|
<time>2026-07-11T15:29:03.000Z</time>
|
|
</trkpt>
|
|
<trkpt lat="55.675349" lon="8.171000">
|
|
<ele>6.443839</ele>
|
|
<time>2026-07-11T15:29:04.000Z</time>
|
|
</trkpt>
|
|
<trkpt lat="55.675400" lon="8.171005">
|
|
<ele>6.435311</ele>
|
|
<time>2026-07-11T15:29:05.000Z</time>
|
|
</trkpt>
|
|
<trkpt lat="55.675435" lon="8.171004">
|
|
<ele>6.429466</ele>
|
|
<time>2026-07-11T15:29:06.000Z</time>
|
|
</trkpt>
|
|
<trkpt lat="55.675473" lon="8.171001">
|
|
<ele>6.423114</ele>
|
|
<time>2026-07-11T15:29:07.000Z</time>
|
|
</trkpt>
|
|
<trkpt lat="55.675521" lon="8.170998">
|
|
<ele>6.415095</ele>
|
|
<time>2026-07-11T15:29:08.000Z</time>
|
|
</trkpt>
|
|
<trkpt lat="55.675559" lon="8.170992">
|
|
<ele>6.408725</ele>
|
|
<time>2026-07-11T15:29:09.000Z</time>
|
|
</trkpt>
|
|
<trkpt lat="55.675601" lon="8.170983">
|
|
<ele>6.401661</ele>
|
|
<time>2026-07-11T15:29:10.000Z</time>
|
|
</trkpt>
|
|
<trkpt lat="55.675645" lon="8.170970">
|
|
<ele>6.394213</ele>
|
|
<time>2026-07-11T15:29:11.000Z</time>
|
|
</trkpt>
|
|
<trkpt lat="55.675689" lon="8.170953">
|
|
<ele>6.386693</ele>
|
|
<time>2026-07-11T15:29:12.000Z</time>
|
|
</trkpt>
|
|
<trkpt lat="55.675733" lon="8.170937">
|
|
<ele>6.379194</ele>
|
|
<time>2026-07-11T15:29:13.000Z</time>
|
|
</trkpt>
|
|
<trkpt lat="55.675783" lon="8.170920">
|
|
<ele>6.370693</ele>
|
|
<time>2026-07-11T15:29:14.000Z</time>
|
|
</trkpt>
|
|
<trkpt lat="55.675837" lon="8.170900">
|
|
<ele>6.361482</ele>
|
|
<time>2026-07-11T15:29:15.000Z</time>
|
|
</trkpt>
|
|
<trkpt lat="55.675890" lon="8.170881">
|
|
<ele>6.352453</ele>
|
|
<time>2026-07-11T15:29:16.000Z</time>
|
|
</trkpt>
|
|
<trkpt lat="55.675946" lon="8.170867">
|
|
<ele>6.343010</ele>
|
|
<time>2026-07-11T15:29:17.000Z</time>
|
|
</trkpt>
|
|
<trkpt lat="55.675994" lon="8.170854">
|
|
<ele>6.334902</ele>
|
|
<time>2026-07-11T15:29:18.000Z</time>
|
|
</trkpt>
|
|
<trkpt lat="55.676038" lon="8.170844">
|
|
<ele>6.327495</ele>
|
|
<time>2026-07-11T15:29:19.000Z</time>
|
|
</trkpt>
|
|
<trkpt lat="55.676084" lon="8.170838">
|
|
<ele>6.319794</ele>
|
|
<time>2026-07-11T15:29:20.000Z</time>
|
|
</trkpt>
|
|
<trkpt lat="55.676129" lon="8.170835">
|
|
<ele>6.312275</ele>
|
|
<time>2026-07-11T15:29:21.000Z</time>
|
|
</trkpt>
|
|
<trkpt lat="55.676177" lon="8.170840">
|
|
<ele>6.304246</ele>
|
|
<time>2026-07-11T15:29:22.000Z</time>
|
|
</trkpt>
|
|
<trkpt lat="55.676223" lon="8.170849">
|
|
<ele>6.296519</ele>
|
|
<time>2026-07-11T15:29:23.000Z</time>
|
|
</trkpt>
|
|
<trkpt lat="55.676265" lon="8.170855">
|
|
<ele>6.289483</ele>
|
|
<time>2026-07-11T15:29:24.000Z</time>
|
|
</trkpt>
|
|
<trkpt lat="55.676310" lon="8.170860">
|
|
<ele>6.281955</ele>
|
|
<time>2026-07-11T15:29:25.000Z</time>
|
|
</trkpt>
|
|
<trkpt lat="55.676356" lon="8.170873">
|
|
<ele>6.274177</ele>
|
|
<time>2026-07-11T15:29:26.000Z</time>
|
|
</trkpt>
|
|
<trkpt lat="55.676397" lon="8.170891">
|
|
<ele>6.267124</ele>
|
|
<time>2026-07-11T15:29:27.000Z</time>
|
|
</trkpt>
|
|
<trkpt lat="55.676439" lon="8.170910">
|
|
<ele>6.259887</ele>
|
|
<time>2026-07-11T15:29:28.000Z</time>
|
|
</trkpt>
|
|
<trkpt lat="55.676482" lon="8.170931">
|
|
<ele>6.252440</ele>
|
|
<time>2026-07-11T15:29:29.000Z</time>
|
|
</trkpt>
|
|
<trkpt lat="55.676531" lon="8.170964">
|
|
<ele>6.243688</ele>
|
|
<time>2026-07-11T15:29:30.000Z</time>
|
|
</trkpt>
|
|
<trkpt lat="55.676579" lon="8.171000">
|
|
<ele>6.234986</ele>
|
|
<time>2026-07-11T15:29:31.000Z</time>
|
|
</trkpt>
|
|
<trkpt lat="55.676622" lon="8.171036">
|
|
<ele>6.227046</ele>
|
|
<time>2026-07-11T15:29:32.000Z</time>
|
|
</trkpt>
|
|
<trkpt lat="55.676690" lon="8.171092">
|
|
<ele>6.214527</ele>
|
|
<time>2026-07-11T15:29:33.000Z</time>
|
|
</trkpt>
|
|
<trkpt lat="55.676748" lon="8.171138">
|
|
<ele>6.203919</ele>
|
|
<time>2026-07-11T15:29:34.000Z</time>
|
|
</trkpt>
|
|
<trkpt lat="55.676815" lon="8.171191">
|
|
<ele>6.191669</ele>
|
|
<time>2026-07-11T15:29:35.000Z</time>
|
|
</trkpt>
|
|
<trkpt lat="55.676876" lon="8.171247">
|
|
<ele>6.180200</ele>
|
|
<time>2026-07-11T15:29:36.000Z</time>
|
|
</trkpt>
|
|
<trkpt lat="55.676928" lon="8.171301">
|
|
<ele>6.206710</ele>
|
|
<time>2026-07-11T15:29:37.000Z</time>
|
|
</trkpt>
|
|
<trkpt lat="55.676978" lon="8.171356">
|
|
<ele>6.240321</ele>
|
|
<time>2026-07-11T15:29:38.000Z</time>
|
|
</trkpt>
|
|
<trkpt lat="55.677026" lon="8.171415">
|
|
<ele>6.273683</ele>
|
|
<time>2026-07-11T15:29:39.000Z</time>
|
|
</trkpt>
|
|
<trkpt lat="55.677070" lon="8.171475">
|
|
<ele>6.305390</ele>
|
|
<time>2026-07-11T15:29:40.000Z</time>
|
|
</trkpt>
|
|
<trkpt lat="55.677113" lon="8.171537">
|
|
<ele>6.337048</ele>
|
|
<time>2026-07-11T15:29:41.000Z</time>
|
|
</trkpt>
|
|
<trkpt lat="55.677159" lon="8.171601">
|
|
<ele>6.370447</ele>
|
|
<time>2026-07-11T15:29:42.000Z</time>
|
|
</trkpt>
|
|
<trkpt lat="55.677208" lon="8.171662">
|
|
<ele>6.404647</ele>
|
|
<time>2026-07-11T15:29:43.000Z</time>
|
|
</trkpt>
|
|
<trkpt lat="55.677257" lon="8.171723">
|
|
<ele>6.438846</ele>
|
|
<time>2026-07-11T15:29:44.000Z</time>
|
|
</trkpt>
|
|
<trkpt lat="55.677301" lon="8.171780">
|
|
<ele>6.469973</ele>
|
|
<time>2026-07-11T15:29:45.000Z</time>
|
|
</trkpt>
|
|
<trkpt lat="55.677345" lon="8.171833">
|
|
<ele>6.500358</ele>
|
|
<time>2026-07-11T15:29:46.000Z</time>
|
|
</trkpt>
|
|
<trkpt lat="55.677386" lon="8.171883">
|
|
<ele>6.528783</ele>
|
|
<time>2026-07-11T15:29:47.000Z</time>
|
|
</trkpt>
|
|
<trkpt lat="55.677428" lon="8.171932">
|
|
<ele>6.557502</ele>
|
|
<time>2026-07-11T15:29:48.000Z</time>
|
|
</trkpt>
|
|
<trkpt lat="55.677469" lon="8.171976">
|
|
<ele>6.584878</ele>
|
|
<time>2026-07-11T15:29:49.000Z</time>
|
|
</trkpt>
|
|
<trkpt lat="55.677507" lon="8.172012">
|
|
<ele>6.609489</ele>
|
|
<time>2026-07-11T15:29:50.000Z</time>
|
|
</trkpt>
|
|
<trkpt lat="55.677550" lon="8.172048">
|
|
<ele>6.636652</ele>
|
|
<time>2026-07-11T15:29:51.000Z</time>
|
|
</trkpt>
|
|
<trkpt lat="55.677595" lon="8.172084">
|
|
<ele>6.664853</ele>
|
|
<time>2026-07-11T15:29:52.000Z</time>
|
|
</trkpt>
|
|
<trkpt lat="55.677645" lon="8.172116">
|
|
<ele>6.695219</ele>
|
|
<time>2026-07-11T15:29:53.000Z</time>
|
|
</trkpt>
|
|
<trkpt lat="55.677707" lon="8.172143">
|
|
<ele>6.731690</ele>
|
|
<time>2026-07-11T15:29:54.000Z</time>
|
|
</trkpt>
|
|
<trkpt lat="55.677763" lon="8.172162">
|
|
<ele>6.764261</ele>
|
|
<time>2026-07-11T15:29:55.000Z</time>
|
|
</trkpt>
|
|
<trkpt lat="55.677812" lon="8.172169">
|
|
<ele>6.792343</ele>
|
|
<time>2026-07-11T15:29:56.000Z</time>
|
|
</trkpt>
|
|
<trkpt lat="55.677854" lon="8.172166">
|
|
<ele>6.816356</ele>
|
|
<time>2026-07-11T15:29:57.000Z</time>
|
|
</trkpt>
|
|
<trkpt lat="55.677889" lon="8.172162">
|
|
<ele>6.836391</ele>
|
|
<time>2026-07-11T15:29:58.000Z</time>
|
|
</trkpt>
|
|
<trkpt lat="55.677921" lon="8.172162">
|
|
<ele>6.854672</ele>
|
|
<time>2026-07-11T15:29:59.000Z</time>
|
|
</trkpt>
|
|
<trkpt lat="55.677962" lon="8.172164">
|
|
<ele>6.878102</ele>
|
|
<time>2026-07-11T15:30:00.000Z</time>
|
|
</trkpt>
|
|
<trkpt lat="55.678008" lon="8.172164">
|
|
<ele>6.904380</ele>
|
|
<time>2026-07-11T15:30:01.000Z</time>
|
|
</trkpt>
|
|
<trkpt lat="55.678050" lon="8.172164">
|
|
<ele>6.928373</ele>
|
|
<time>2026-07-11T15:30:02.000Z</time>
|
|
</trkpt>
|
|
<trkpt lat="55.678089" lon="8.172165">
|
|
<ele>6.950655</ele>
|
|
<time>2026-07-11T15:30:03.000Z</time>
|
|
</trkpt>
|
|
<trkpt lat="55.678131" lon="8.172165">
|
|
<ele>6.974648</ele>
|
|
<time>2026-07-11T15:30:04.000Z</time>
|
|
</trkpt>
|
|
<trkpt lat="55.678176" lon="8.172162">
|
|
<ele>7.000373</ele>
|
|
<time>2026-07-11T15:30:05.000Z</time>
|
|
</trkpt>
|
|
<trkpt lat="55.678217" lon="8.172157">
|
|
<ele>7.023850</ele>
|
|
<time>2026-07-11T15:30:06.000Z</time>
|
|
</trkpt>
|
|
<trkpt lat="55.678277" lon="8.172160">
|
|
<ele>7.058139</ele>
|
|
<time>2026-07-11T15:30:07.000Z</time>
|
|
</trkpt>
|
|
<trkpt lat="55.678336" lon="8.172164">
|
|
<ele>7.091868</ele>
|
|
<time>2026-07-11T15:30:08.000Z</time>
|
|
</trkpt>
|
|
<trkpt lat="55.678377" lon="8.172163">
|
|
<ele>7.115292</ele>
|
|
<time>2026-07-11T15:30:09.000Z</time>
|
|
</trkpt>
|
|
<trkpt lat="55.678416" lon="8.172164">
|
|
<ele>7.137574</ele>
|
|
<time>2026-07-11T15:30:10.000Z</time>
|
|
</trkpt>
|
|
<trkpt lat="55.678459" lon="8.172165">
|
|
<ele>7.162140</ele>
|
|
<time>2026-07-11T15:30:11.000Z</time>
|
|
</trkpt>
|
|
<trkpt lat="55.678509" lon="8.172170">
|
|
<ele>7.190748</ele>
|
|
<time>2026-07-11T15:30:12.000Z</time>
|
|
</trkpt>
|
|
<trkpt lat="55.678564" lon="8.172177">
|
|
<ele>7.209117</ele>
|
|
<time>2026-07-11T15:30:13.000Z</time>
|
|
</trkpt>
|
|
<trkpt lat="55.678620" lon="8.172184">
|
|
<ele>7.215419</ele>
|
|
<time>2026-07-11T15:30:14.000Z</time>
|
|
</trkpt>
|
|
<trkpt lat="55.678675" lon="8.172189">
|
|
<ele>7.221602</ele>
|
|
<time>2026-07-11T15:30:15.000Z</time>
|
|
</trkpt>
|
|
<trkpt lat="55.678729" lon="8.172190">
|
|
<ele>7.227664</ele>
|
|
<time>2026-07-11T15:30:16.000Z</time>
|
|
</trkpt>
|
|
<trkpt lat="55.678778" lon="8.172190">
|
|
<ele>7.233164</ele>
|
|
<time>2026-07-11T15:30:17.000Z</time>
|
|
</trkpt>
|
|
<trkpt lat="55.678828" lon="8.172191">
|
|
<ele>7.238777</ele>
|
|
<time>2026-07-11T15:30:18.000Z</time>
|
|
</trkpt>
|
|
<trkpt lat="55.678879" lon="8.172193">
|
|
<ele>7.244504</ele>
|
|
<time>2026-07-11T15:30:19.000Z</time>
|
|
</trkpt>
|
|
<trkpt lat="55.678934" lon="8.172195">
|
|
<ele>7.250679</ele>
|
|
<time>2026-07-11T15:30:20.000Z</time>
|
|
</trkpt>
|
|
<trkpt lat="55.678988" lon="8.172196">
|
|
<ele>7.256741</ele>
|
|
<time>2026-07-11T15:30:21.000Z</time>
|
|
</trkpt>
|
|
<trkpt lat="55.679036" lon="8.172196">
|
|
<ele>7.262130</ele>
|
|
<time>2026-07-11T15:30:22.000Z</time>
|
|
</trkpt>
|
|
<trkpt lat="55.679083" lon="8.172197">
|
|
<ele>7.267406</ele>
|
|
<time>2026-07-11T15:30:23.000Z</time>
|
|
</trkpt>
|
|
<trkpt lat="55.679130" lon="8.172201">
|
|
<ele>7.272688</ele>
|
|
<time>2026-07-11T15:30:24.000Z</time>
|
|
</trkpt>
|
|
<trkpt lat="55.679175" lon="8.172211">
|
|
<ele>7.277779</ele>
|
|
<time>2026-07-11T15:30:25.000Z</time>
|
|
</trkpt>
|
|
<trkpt lat="55.679221" lon="8.172225">
|
|
<ele>7.283019</ele>
|
|
<time>2026-07-11T15:30:26.000Z</time>
|
|
</trkpt>
|
|
<trkpt lat="55.679266" lon="8.172243">
|
|
<ele>7.288197</ele>
|
|
<time>2026-07-11T15:30:27.000Z</time>
|
|
</trkpt>
|
|
<trkpt lat="55.679318" lon="8.172270">
|
|
<ele>7.294279</ele>
|
|
<time>2026-07-11T15:30:28.000Z</time>
|
|
</trkpt>
|
|
<trkpt lat="55.679370" lon="8.172300">
|
|
<ele>7.300418</ele>
|
|
<time>2026-07-11T15:30:29.000Z</time>
|
|
</trkpt>
|
|
<trkpt lat="55.679422" lon="8.172333">
|
|
<ele>7.306617</ele>
|
|
<time>2026-07-11T15:30:30.000Z</time>
|
|
</trkpt>
|
|
<trkpt lat="55.679478" lon="8.172370">
|
|
<ele>7.313326</ele>
|
|
<time>2026-07-11T15:30:31.000Z</time>
|
|
</trkpt>
|
|
<trkpt lat="55.679538" lon="8.172412">
|
|
<ele>7.320567</ele>
|
|
<time>2026-07-11T15:30:32.000Z</time>
|
|
</trkpt>
|
|
<trkpt lat="55.679602" lon="8.172460">
|
|
<ele>7.328367</ele>
|
|
<time>2026-07-11T15:30:33.000Z</time>
|
|
</trkpt>
|
|
<trkpt lat="55.679656" lon="8.172512">
|
|
<ele>7.335265</ele>
|
|
<time>2026-07-11T15:30:34.000Z</time>
|
|
</trkpt>
|
|
<trkpt lat="55.679709" lon="8.172567">
|
|
<ele>7.342158</ele>
|
|
<time>2026-07-11T15:30:35.000Z</time>
|
|
</trkpt>
|
|
<trkpt lat="55.679764" lon="8.172622">
|
|
<ele>7.349246</ele>
|
|
<time>2026-07-11T15:30:36.000Z</time>
|
|
</trkpt>
|
|
<trkpt lat="55.679814" lon="8.172676">
|
|
<ele>7.355817</ele>
|
|
<time>2026-07-11T15:30:37.000Z</time>
|
|
</trkpt>
|
|
<trkpt lat="55.679860" lon="8.172727">
|
|
<ele>7.361907</ele>
|
|
<time>2026-07-11T15:30:38.000Z</time>
|
|
</trkpt>
|
|
<trkpt lat="55.679909" lon="8.172778">
|
|
<ele>7.368284</ele>
|
|
<time>2026-07-11T15:30:39.000Z</time>
|
|
</trkpt>
|
|
<trkpt lat="55.679961" lon="8.172830">
|
|
<ele>7.374986</ele>
|
|
<time>2026-07-11T15:30:40.000Z</time>
|
|
</trkpt>
|
|
<trkpt lat="55.680009" lon="8.172884">
|
|
<ele>7.381367</ele>
|
|
<time>2026-07-11T15:30:41.000Z</time>
|
|
</trkpt>
|
|
<trkpt lat="55.680055" lon="8.172937">
|
|
<ele>7.387524</ele>
|
|
<time>2026-07-11T15:30:42.000Z</time>
|
|
</trkpt>
|
|
<trkpt lat="55.680102" lon="8.172989">
|
|
<ele>7.393743</ele>
|
|
<time>2026-07-11T15:30:43.000Z</time>
|
|
</trkpt>
|
|
<trkpt lat="55.680148" lon="8.173042">
|
|
<ele>7.399900</ele>
|
|
<time>2026-07-11T15:30:44.000Z</time>
|
|
</trkpt>
|
|
<trkpt lat="55.680192" lon="8.173095">
|
|
<ele>7.405871</ele>
|
|
<time>2026-07-11T15:30:45.000Z</time>
|
|
</trkpt>
|
|
<trkpt lat="55.680239" lon="8.173149">
|
|
<ele>7.398091</ele>
|
|
<time>2026-07-11T15:30:46.000Z</time>
|
|
</trkpt>
|
|
<trkpt lat="55.680282" lon="8.173195">
|
|
<ele>7.385469</ele>
|
|
<time>2026-07-11T15:30:47.000Z</time>
|
|
</trkpt>
|
|
<trkpt lat="55.680316" lon="8.173232">
|
|
<ele>7.375442</ele>
|
|
<time>2026-07-11T15:30:48.000Z</time>
|
|
</trkpt>
|
|
<trkpt lat="55.680371" lon="8.173298">
|
|
<ele>7.358750</ele>
|
|
<time>2026-07-11T15:30:49.000Z</time>
|
|
</trkpt>
|
|
<trkpt lat="55.680422" lon="8.173367">
|
|
<ele>7.342626</ele>
|
|
<time>2026-07-11T15:30:50.000Z</time>
|
|
</trkpt>
|
|
<trkpt lat="55.680467" lon="8.173424">
|
|
<ele>7.328727</ele>
|
|
<time>2026-07-11T15:30:51.000Z</time>
|
|
</trkpt>
|
|
<trkpt lat="55.680507" lon="8.173477">
|
|
<ele>7.316176</ele>
|
|
<time>2026-07-11T15:30:52.000Z</time>
|
|
</trkpt>
|
|
<trkpt lat="55.680549" lon="8.173531">
|
|
<ele>7.303137</ele>
|
|
<time>2026-07-11T15:30:53.000Z</time>
|
|
</trkpt>
|
|
<trkpt lat="55.680591" lon="8.173580">
|
|
<ele>7.290501</ele>
|
|
<time>2026-07-11T15:30:54.000Z</time>
|
|
</trkpt>
|
|
<trkpt lat="55.680635" lon="8.173626">
|
|
<ele>7.277662</ele>
|
|
<time>2026-07-11T15:30:55.000Z</time>
|
|
</trkpt>
|
|
<trkpt lat="55.680682" lon="8.173676">
|
|
<ele>7.263886</ele>
|
|
<time>2026-07-11T15:30:56.000Z</time>
|
|
</trkpt>
|
|
<trkpt lat="55.680727" lon="8.173727">
|
|
<ele>7.250463</ele>
|
|
<time>2026-07-11T15:30:57.000Z</time>
|
|
</trkpt>
|
|
<trkpt lat="55.680769" lon="8.173781">
|
|
<ele>7.237424</ele>
|
|
<time>2026-07-11T15:30:58.000Z</time>
|
|
</trkpt>
|
|
<trkpt lat="55.680810" lon="8.173839">
|
|
<ele>7.224241</ele>
|
|
<time>2026-07-11T15:30:59.000Z</time>
|
|
</trkpt>
|
|
<trkpt lat="55.680848" lon="8.173897">
|
|
<ele>7.211640</ele>
|
|
<time>2026-07-11T15:31:00.000Z</time>
|
|
</trkpt>
|
|
<trkpt lat="55.680888" lon="8.173958">
|
|
<ele>7.198380</ele>
|
|
<time>2026-07-11T15:31:01.000Z</time>
|
|
</trkpt>
|
|
<trkpt lat="55.680929" lon="8.174025">
|
|
<ele>7.184366</ele>
|
|
<time>2026-07-11T15:31:02.000Z</time>
|
|
</trkpt>
|
|
<trkpt lat="55.680967" lon="8.174091">
|
|
<ele>7.170998</ele>
|
|
<time>2026-07-11T15:31:03.000Z</time>
|
|
</trkpt>
|
|
<trkpt lat="55.681006" lon="8.174157">
|
|
<ele>7.157448</ele>
|
|
<time>2026-07-11T15:31:04.000Z</time>
|
|
</trkpt>
|
|
<trkpt lat="55.681047" lon="8.174227">
|
|
<ele>7.143143</ele>
|
|
<time>2026-07-11T15:31:05.000Z</time>
|
|
</trkpt>
|
|
<trkpt lat="55.681088" lon="8.174296">
|
|
<ele>7.128937</ele>
|
|
<time>2026-07-11T15:31:06.000Z</time>
|
|
</trkpt>
|
|
<trkpt lat="55.681133" lon="8.174364">
|
|
<ele>7.114077</ele>
|
|
<time>2026-07-11T15:31:07.000Z</time>
|
|
</trkpt>
|
|
<trkpt lat="55.681173" lon="8.174436">
|
|
<ele>7.099752</ele>
|
|
<time>2026-07-11T15:31:08.000Z</time>
|
|
</trkpt>
|
|
<trkpt lat="55.681211" lon="8.174510">
|
|
<ele>7.085566</ele>
|
|
<time>2026-07-11T15:31:09.000Z</time>
|
|
</trkpt>
|
|
<trkpt lat="55.681249" lon="8.174583">
|
|
<ele>7.071486</ele>
|
|
<time>2026-07-11T15:31:10.000Z</time>
|
|
</trkpt>
|
|
<trkpt lat="55.681286" lon="8.174656">
|
|
<ele>7.057575</ele>
|
|
<time>2026-07-11T15:31:11.000Z</time>
|
|
</trkpt>
|
|
<trkpt lat="55.681323" lon="8.174728">
|
|
<ele>7.043768</ele>
|
|
<time>2026-07-11T15:31:12.000Z</time>
|
|
</trkpt>
|
|
<trkpt lat="55.681363" lon="8.174801">
|
|
<ele>7.029342</ele>
|
|
<time>2026-07-11T15:31:13.000Z</time>
|
|
</trkpt>
|
|
<trkpt lat="55.681400" lon="8.174875">
|
|
<ele>7.015325</ele>
|
|
<time>2026-07-11T15:31:14.000Z</time>
|
|
</trkpt>
|
|
<trkpt lat="55.681436" lon="8.174948">
|
|
<ele>7.001580</ele>
|
|
<time>2026-07-11T15:31:15.000Z</time>
|
|
</trkpt>
|
|
<trkpt lat="55.681474" lon="8.175018">
|
|
<ele>6.987809</ele>
|
|
<time>2026-07-11T15:31:16.000Z</time>
|
|
</trkpt>
|
|
<trkpt lat="55.681512" lon="8.175086">
|
|
<ele>6.974241</ele>
|
|
<time>2026-07-11T15:31:17.000Z</time>
|
|
</trkpt>
|
|
<trkpt lat="55.681549" lon="8.175154">
|
|
<ele>6.960848</ele>
|
|
<time>2026-07-11T15:31:18.000Z</time>
|
|
</trkpt>
|
|
<trkpt lat="55.681587" lon="8.175221">
|
|
<ele>6.966224</ele>
|
|
<time>2026-07-11T15:31:19.000Z</time>
|
|
</trkpt>
|
|
<trkpt lat="55.681627" lon="8.175289">
|
|
<ele>6.983834</ele>
|
|
<time>2026-07-11T15:31:20.000Z</time>
|
|
</trkpt>
|
|
<trkpt lat="55.681665" lon="8.175355">
|
|
<ele>7.000737</ele>
|
|
<time>2026-07-11T15:31:21.000Z</time>
|
|
</trkpt>
|
|
<trkpt lat="55.681703" lon="8.175423">
|
|
<ele>7.017894</ele>
|
|
<time>2026-07-11T15:31:22.000Z</time>
|
|
</trkpt>
|
|
<trkpt lat="55.681743" lon="8.175492">
|
|
<ele>7.035628</ele>
|
|
<time>2026-07-11T15:31:23.000Z</time>
|
|
</trkpt>
|
|
<trkpt lat="55.681780" lon="8.175560">
|
|
<ele>7.052562</ele>
|
|
<time>2026-07-11T15:31:24.000Z</time>
|
|
</trkpt>
|
|
<trkpt lat="55.681813" lon="8.175624">
|
|
<ele>7.068103</ele>
|
|
<time>2026-07-11T15:31:25.000Z</time>
|
|
</trkpt>
|
|
<trkpt lat="55.681853" lon="8.175690">
|
|
<ele>7.085467</ele>
|
|
<time>2026-07-11T15:31:26.000Z</time>
|
|
</trkpt>
|
|
<trkpt lat="55.681895" lon="8.175759">
|
|
<ele>7.103662</ele>
|
|
<time>2026-07-11T15:31:27.000Z</time>
|
|
</trkpt>
|
|
<trkpt lat="55.681936" lon="8.175828">
|
|
<ele>7.121625</ele>
|
|
<time>2026-07-11T15:31:28.000Z</time>
|
|
</trkpt>
|
|
<trkpt lat="55.681974" lon="8.175895">
|
|
<ele>7.138655</ele>
|
|
<time>2026-07-11T15:31:29.000Z</time>
|
|
</trkpt>
|
|
<trkpt lat="55.682012" lon="8.175959">
|
|
<ele>7.155310</ele>
|
|
<time>2026-07-11T15:31:30.000Z</time>
|
|
</trkpt>
|
|
<trkpt lat="55.682050" lon="8.176023">
|
|
<ele>7.171965</ele>
|
|
<time>2026-07-11T15:31:31.000Z</time>
|
|
</trkpt>
|
|
<trkpt lat="55.682089" lon="8.176085">
|
|
<ele>7.188610</ele>
|
|
<time>2026-07-11T15:31:32.000Z</time>
|
|
</trkpt>
|
|
<trkpt lat="55.682127" lon="8.176146">
|
|
<ele>7.204900</ele>
|
|
<time>2026-07-11T15:31:33.000Z</time>
|
|
</trkpt>
|
|
<trkpt lat="55.682165" lon="8.176210">
|
|
<ele>7.221554</ele>
|
|
<time>2026-07-11T15:31:34.000Z</time>
|
|
</trkpt>
|
|
<trkpt lat="55.682201" lon="8.176277">
|
|
<ele>7.238139</ele>
|
|
<time>2026-07-11T15:31:35.000Z</time>
|
|
</trkpt>
|
|
<trkpt lat="55.682237" lon="8.176345">
|
|
<ele>7.254854</ele>
|
|
<time>2026-07-11T15:31:36.000Z</time>
|
|
</trkpt>
|
|
<trkpt lat="55.682275" lon="8.176411">
|
|
<ele>7.271758</ele>
|
|
<time>2026-07-11T15:31:37.000Z</time>
|
|
</trkpt>
|
|
<trkpt lat="55.682313" lon="8.176477">
|
|
<ele>7.288661</ele>
|
|
<time>2026-07-11T15:31:38.000Z</time>
|
|
</trkpt>
|
|
<trkpt lat="55.682353" lon="8.176542">
|
|
<ele>7.305903</ele>
|
|
<time>2026-07-11T15:31:39.000Z</time>
|
|
</trkpt>
|
|
<trkpt lat="55.682393" lon="8.176606">
|
|
<ele>7.323025</ele>
|
|
<time>2026-07-11T15:31:40.000Z</time>
|
|
</trkpt>
|
|
<trkpt lat="55.682430" lon="8.176668">
|
|
<ele>7.339202</ele>
|
|
<time>2026-07-11T15:31:41.000Z</time>
|
|
</trkpt>
|
|
<trkpt lat="55.682466" lon="8.176731">
|
|
<ele>7.355276</ele>
|
|
<time>2026-07-11T15:31:42.000Z</time>
|
|
</trkpt>
|
|
<trkpt lat="55.682504" lon="8.176795">
|
|
<ele>7.371930</ele>
|
|
<time>2026-07-11T15:31:43.000Z</time>
|
|
</trkpt>
|
|
<trkpt lat="55.682540" lon="8.176861">
|
|
<ele>7.388386</ele>
|
|
<time>2026-07-11T15:31:44.000Z</time>
|
|
</trkpt>
|
|
<trkpt lat="55.682577" lon="8.176926">
|
|
<ele>7.404937</ele>
|
|
<time>2026-07-11T15:31:45.000Z</time>
|
|
</trkpt>
|
|
<trkpt lat="55.682613" lon="8.176988">
|
|
<ele>7.420885</ele>
|
|
<time>2026-07-11T15:31:46.000Z</time>
|
|
</trkpt>
|
|
<trkpt lat="55.682647" lon="8.177047">
|
|
<ele>7.436003</ele>
|
|
<time>2026-07-11T15:31:47.000Z</time>
|
|
</trkpt>
|
|
<trkpt lat="55.682680" lon="8.177107">
|
|
<ele>7.451023</ele>
|
|
<time>2026-07-11T15:31:48.000Z</time>
|
|
</trkpt>
|
|
<trkpt lat="55.682712" lon="8.177167">
|
|
<ele>7.465822</ele>
|
|
<time>2026-07-11T15:31:49.000Z</time>
|
|
</trkpt>
|
|
<trkpt lat="55.682745" lon="8.177224">
|
|
<ele>7.480462</ele>
|
|
<time>2026-07-11T15:31:50.000Z</time>
|
|
</trkpt>
|
|
<trkpt lat="55.682777" lon="8.177278">
|
|
<ele>7.494500</ele>
|
|
<time>2026-07-11T15:31:51.000Z</time>
|
|
</trkpt>
|
|
<trkpt lat="55.682811" lon="8.177333">
|
|
<ele>7.509126</ele>
|
|
<time>2026-07-11T15:31:52.000Z</time>
|
|
</trkpt>
|
|
<trkpt lat="55.682846" lon="8.177392">
|
|
<ele>7.524472</ele>
|
|
<time>2026-07-11T15:31:53.000Z</time>
|
|
</trkpt>
|
|
<trkpt lat="55.682880" lon="8.177454">
|
|
<ele>7.541461</ele>
|
|
<time>2026-07-11T15:31:54.000Z</time>
|
|
</trkpt>
|
|
<trkpt lat="55.682916" lon="8.177515">
|
|
<ele>7.559157</ele>
|
|
<time>2026-07-11T15:31:55.000Z</time>
|
|
</trkpt>
|
|
<trkpt lat="55.682952" lon="8.177572">
|
|
<ele>7.576308</ele>
|
|
<time>2026-07-11T15:31:56.000Z</time>
|
|
</trkpt>
|
|
<trkpt lat="55.682988" lon="8.177629">
|
|
<ele>7.593460</ele>
|
|
<time>2026-07-11T15:31:57.000Z</time>
|
|
</trkpt>
|
|
<trkpt lat="55.683025" lon="8.177687">
|
|
<ele>7.611011</ele>
|
|
<time>2026-07-11T15:31:58.000Z</time>
|
|
</trkpt>
|
|
<trkpt lat="55.683059" lon="8.177745">
|
|
<ele>7.627777</ele>
|
|
<time>2026-07-11T15:31:59.000Z</time>
|
|
</trkpt>
|
|
<trkpt lat="55.683094" lon="8.177805">
|
|
<ele>7.645078</ele>
|
|
<time>2026-07-11T15:32:00.000Z</time>
|
|
</trkpt>
|
|
<trkpt lat="55.683128" lon="8.177867">
|
|
<ele>7.662409</ele>
|
|
<time>2026-07-11T15:32:01.000Z</time>
|
|
</trkpt>
|
|
<trkpt lat="55.683162" lon="8.177928">
|
|
<ele>7.679598</ele>
|
|
<time>2026-07-11T15:32:02.000Z</time>
|
|
</trkpt>
|
|
<trkpt lat="55.683195" lon="8.177990">
|
|
<ele>7.696684</ele>
|
|
<time>2026-07-11T15:32:03.000Z</time>
|
|
</trkpt>
|
|
<trkpt lat="55.683227" lon="8.178054">
|
|
<ele>7.713825</ele>
|
|
<time>2026-07-11T15:32:04.000Z</time>
|
|
</trkpt>
|
|
<trkpt lat="55.683260" lon="8.178116">
|
|
<ele>7.730911</ele>
|
|
<time>2026-07-11T15:32:05.000Z</time>
|
|
</trkpt>
|
|
<trkpt lat="55.683290" lon="8.178175">
|
|
<ele>7.746831</ele>
|
|
<time>2026-07-11T15:32:06.000Z</time>
|
|
</trkpt>
|
|
<trkpt lat="55.683321" lon="8.178233">
|
|
<ele>7.762846</ele>
|
|
<time>2026-07-11T15:32:07.000Z</time>
|
|
</trkpt>
|
|
<trkpt lat="55.683351" lon="8.178288">
|
|
<ele>7.778181</ele>
|
|
<time>2026-07-11T15:32:08.000Z</time>
|
|
</trkpt>
|
|
<trkpt lat="55.683384" lon="8.178344">
|
|
<ele>7.794414</ele>
|
|
<time>2026-07-11T15:32:09.000Z</time>
|
|
</trkpt>
|
|
<trkpt lat="55.683416" lon="8.178399">
|
|
<ele>7.810251</ele>
|
|
<time>2026-07-11T15:32:10.000Z</time>
|
|
</trkpt>
|
|
<trkpt lat="55.683448" lon="8.178453">
|
|
<ele>7.825950</ele>
|
|
<time>2026-07-11T15:32:11.000Z</time>
|
|
</trkpt>
|
|
<trkpt lat="55.683481" lon="8.178506">
|
|
<ele>7.841772</ele>
|
|
<time>2026-07-11T15:32:12.000Z</time>
|
|
</trkpt>
|
|
<trkpt lat="55.683512" lon="8.178562">
|
|
<ele>7.857499</ele>
|
|
<time>2026-07-11T15:32:13.000Z</time>
|
|
</trkpt>
|
|
<trkpt lat="55.683542" lon="8.178620">
|
|
<ele>7.873271</ele>
|
|
<time>2026-07-11T15:32:14.000Z</time>
|
|
</trkpt>
|
|
<trkpt lat="55.683573" lon="8.178678">
|
|
<ele>7.889286</ele>
|
|
<time>2026-07-11T15:32:15.000Z</time>
|
|
</trkpt>
|
|
<trkpt lat="55.683603" lon="8.178734">
|
|
<ele>7.904766</ele>
|
|
<time>2026-07-11T15:32:16.000Z</time>
|
|
</trkpt>
|
|
<trkpt lat="55.683632" lon="8.178788">
|
|
<ele>7.919710</ele>
|
|
<time>2026-07-11T15:32:17.000Z</time>
|
|
</trkpt>
|
|
<trkpt lat="55.683659" lon="8.178842">
|
|
<ele>7.934173</ele>
|
|
<time>2026-07-11T15:32:18.000Z</time>
|
|
</trkpt>
|
|
<trkpt lat="55.683687" lon="8.178895">
|
|
<ele>7.948727</ele>
|
|
<time>2026-07-11T15:32:19.000Z</time>
|
|
</trkpt>
|
|
<trkpt lat="55.683716" lon="8.178948">
|
|
<ele>7.963527</ele>
|
|
<time>2026-07-11T15:32:20.000Z</time>
|
|
</trkpt>
|
|
<trkpt lat="55.683743" lon="8.179000">
|
|
<ele>7.977692</ele>
|
|
<time>2026-07-11T15:32:21.000Z</time>
|
|
</trkpt>
|
|
<trkpt lat="55.683768" lon="8.179051">
|
|
<ele>7.991234</ele>
|
|
<time>2026-07-11T15:32:22.000Z</time>
|
|
</trkpt>
|
|
<trkpt lat="55.683789" lon="8.179103">
|
|
<ele>8.004052</ele>
|
|
<time>2026-07-11T15:32:23.000Z</time>
|
|
</trkpt>
|
|
<trkpt lat="55.683805" lon="8.179160">
|
|
<ele>8.016811</ele>
|
|
<time>2026-07-11T15:32:24.000Z</time>
|
|
</trkpt>
|
|
<trkpt lat="55.683811" lon="8.179221">
|
|
<ele>8.029218</ele>
|
|
<time>2026-07-11T15:32:25.000Z</time>
|
|
</trkpt>
|
|
<trkpt lat="55.683806" lon="8.179281">
|
|
<ele>8.041372</ele>
|
|
<time>2026-07-11T15:32:26.000Z</time>
|
|
</trkpt>
|
|
<trkpt lat="55.683791" lon="8.179341">
|
|
<ele>8.054523</ele>
|
|
<time>2026-07-11T15:32:27.000Z</time>
|
|
</trkpt>
|
|
<trkpt lat="55.683774" lon="8.179399">
|
|
<ele>8.067622</ele>
|
|
<time>2026-07-11T15:32:28.000Z</time>
|
|
</trkpt>
|
|
<trkpt lat="55.683759" lon="8.179458">
|
|
<ele>8.080591</ele>
|
|
<time>2026-07-11T15:32:29.000Z</time>
|
|
</trkpt>
|
|
<trkpt lat="55.683745" lon="8.179518">
|
|
<ele>8.093603</ele>
|
|
<time>2026-07-11T15:32:30.000Z</time>
|
|
</trkpt>
|
|
<trkpt lat="55.683735" lon="8.179579">
|
|
<ele>8.106332</ele>
|
|
<time>2026-07-11T15:32:31.000Z</time>
|
|
</trkpt>
|
|
<trkpt lat="55.683724" lon="8.179641">
|
|
<ele>8.119356</ele>
|
|
<time>2026-07-11T15:32:32.000Z</time>
|
|
</trkpt>
|
|
<trkpt lat="55.683709" lon="8.179704">
|
|
<ele>8.133060</ele>
|
|
<time>2026-07-11T15:32:33.000Z</time>
|
|
</trkpt>
|
|
<trkpt lat="55.683694" lon="8.179765">
|
|
<ele>8.146395</ele>
|
|
<time>2026-07-11T15:32:34.000Z</time>
|
|
</trkpt>
|
|
<trkpt lat="55.683680" lon="8.179827">
|
|
<ele>8.159778</ele>
|
|
<time>2026-07-11T15:32:35.000Z</time>
|
|
</trkpt>
|
|
<trkpt lat="55.683667" lon="8.179889">
|
|
<ele>8.155099</ele>
|
|
<time>2026-07-11T15:32:36.000Z</time>
|
|
</trkpt>
|
|
<trkpt lat="55.683652" lon="8.179950">
|
|
<ele>8.130897</ele>
|
|
<time>2026-07-11T15:32:37.000Z</time>
|
|
</trkpt>
|
|
<trkpt lat="55.683637" lon="8.180014">
|
|
<ele>8.105692</ele>
|
|
<time>2026-07-11T15:32:38.000Z</time>
|
|
</trkpt>
|
|
<trkpt lat="55.683620" lon="8.180079">
|
|
<ele>8.079634</ele>
|
|
<time>2026-07-11T15:32:39.000Z</time>
|
|
</trkpt>
|
|
<trkpt lat="55.683602" lon="8.180143">
|
|
<ele>8.053624</ele>
|
|
<time>2026-07-11T15:32:40.000Z</time>
|
|
</trkpt>
|
|
<trkpt lat="55.683589" lon="8.180209">
|
|
<ele>8.028200</ele>
|
|
<time>2026-07-11T15:32:41.000Z</time>
|
|
</trkpt>
|
|
<trkpt lat="55.683577" lon="8.180275">
|
|
<ele>8.002981</ele>
|
|
<time>2026-07-11T15:32:42.000Z</time>
|
|
</trkpt>
|
|
<trkpt lat="55.683562" lon="8.180342">
|
|
<ele>7.976764</ele>
|
|
<time>2026-07-11T15:32:43.000Z</time>
|
|
</trkpt>
|
|
<trkpt lat="55.683545" lon="8.180409">
|
|
<ele>7.950045</ele>
|
|
<time>2026-07-11T15:32:44.000Z</time>
|
|
</trkpt>
|
|
<trkpt lat="55.683528" lon="8.180478">
|
|
<ele>7.922661</ele>
|
|
<time>2026-07-11T15:32:45.000Z</time>
|
|
</trkpt>
|
|
<trkpt lat="55.683513" lon="8.180549">
|
|
<ele>7.895087</ele>
|
|
<time>2026-07-11T15:32:46.000Z</time>
|
|
</trkpt>
|
|
<trkpt lat="55.683498" lon="8.180619">
|
|
<ele>7.867854</ele>
|
|
<time>2026-07-11T15:32:47.000Z</time>
|
|
</trkpt>
|
|
<trkpt lat="55.683480" lon="8.180687">
|
|
<ele>7.840535</ele>
|
|
<time>2026-07-11T15:32:48.000Z</time>
|
|
</trkpt>
|
|
<trkpt lat="55.683465" lon="8.180752">
|
|
<ele>7.814993</ele>
|
|
<time>2026-07-11T15:32:49.000Z</time>
|
|
</trkpt>
|
|
<trkpt lat="55.683448" lon="8.180815">
|
|
<ele>7.789593</ele>
|
|
<time>2026-07-11T15:32:50.000Z</time>
|
|
</trkpt>
|
|
<trkpt lat="55.683429" lon="8.180875">
|
|
<ele>7.764567</ele>
|
|
<time>2026-07-11T15:32:51.000Z</time>
|
|
</trkpt>
|
|
<trkpt lat="55.683412" lon="8.180935">
|
|
<ele>7.740147</ele>
|
|
<time>2026-07-11T15:32:52.000Z</time>
|
|
</trkpt>
|
|
<trkpt lat="55.683396" lon="8.180999">
|
|
<ele>7.714686</ele>
|
|
<time>2026-07-11T15:32:53.000Z</time>
|
|
</trkpt>
|
|
<trkpt lat="55.683381" lon="8.181064">
|
|
<ele>7.689145</ele>
|
|
<time>2026-07-11T15:32:54.000Z</time>
|
|
</trkpt>
|
|
<trkpt lat="55.683364" lon="8.181126">
|
|
<ele>7.664072</ele>
|
|
<time>2026-07-11T15:32:55.000Z</time>
|
|
</trkpt>
|
|
<trkpt lat="55.683345" lon="8.181187">
|
|
<ele>7.638728</ele>
|
|
<time>2026-07-11T15:32:56.000Z</time>
|
|
</trkpt>
|
|
<trkpt lat="55.683326" lon="8.181251">
|
|
<ele>7.612424</ele>
|
|
<time>2026-07-11T15:32:57.000Z</time>
|
|
</trkpt>
|
|
<trkpt lat="55.683309" lon="8.181318">
|
|
<ele>7.585704</ele>
|
|
<time>2026-07-11T15:32:58.000Z</time>
|
|
</trkpt>
|
|
<trkpt lat="55.683292" lon="8.181383">
|
|
<ele>7.559646</ele>
|
|
<time>2026-07-11T15:32:59.000Z</time>
|
|
</trkpt>
|
|
<trkpt lat="55.683273" lon="8.181446">
|
|
<ele>7.533663</ele>
|
|
<time>2026-07-11T15:33:00.000Z</time>
|
|
</trkpt>
|
|
<trkpt lat="55.683254" lon="8.181506">
|
|
<ele>7.508637</ele>
|
|
<time>2026-07-11T15:33:01.000Z</time>
|
|
</trkpt>
|
|
<trkpt lat="55.683237" lon="8.181565">
|
|
<ele>7.484541</ele>
|
|
<time>2026-07-11T15:33:02.000Z</time>
|
|
</trkpt>
|
|
<trkpt lat="55.683219" lon="8.181627">
|
|
<ele>7.459179</ele>
|
|
<time>2026-07-11T15:33:03.000Z</time>
|
|
</trkpt>
|
|
<trkpt lat="55.683200" lon="8.181690">
|
|
<ele>7.433196</ele>
|
|
<time>2026-07-11T15:33:04.000Z</time>
|
|
</trkpt>
|
|
<trkpt lat="55.683183" lon="8.181753">
|
|
<ele>7.407796</ele>
|
|
<time>2026-07-11T15:33:05.000Z</time>
|
|
</trkpt>
|
|
<trkpt lat="55.683166" lon="8.181820">
|
|
<ele>7.381077</ele>
|
|
<time>2026-07-11T15:33:06.000Z</time>
|
|
</trkpt>
|
|
<trkpt lat="55.683148" lon="8.181889">
|
|
<ele>7.353428</ele>
|
|
<time>2026-07-11T15:33:07.000Z</time>
|
|
</trkpt>
|
|
<trkpt lat="55.683131" lon="8.181959">
|
|
<ele>7.325710</ele>
|
|
<time>2026-07-11T15:33:08.000Z</time>
|
|
</trkpt>
|
|
<trkpt lat="55.683114" lon="8.182023">
|
|
<ele>7.299981</ele>
|
|
<time>2026-07-11T15:33:09.000Z</time>
|
|
</trkpt>
|
|
<trkpt lat="55.683101" lon="8.182074">
|
|
<ele>7.279626</ele>
|
|
<time>2026-07-11T15:33:10.000Z</time>
|
|
</trkpt>
|
|
<trkpt lat="55.683091" lon="8.182115">
|
|
<ele>7.263380</ele>
|
|
<time>2026-07-11T15:33:11.000Z</time>
|
|
</trkpt>
|
|
<trkpt lat="55.683081" lon="8.182155">
|
|
<ele>7.247468</ele>
|
|
<time>2026-07-11T15:33:12.000Z</time>
|
|
</trkpt>
|
|
<trkpt lat="55.683071" lon="8.182204">
|
|
<ele>7.228517</ele>
|
|
<time>2026-07-11T15:33:13.000Z</time>
|
|
</trkpt>
|
|
<trkpt lat="55.683062" lon="8.182246">
|
|
<ele>7.212176</ele>
|
|
<time>2026-07-11T15:33:14.000Z</time>
|
|
</trkpt>
|
|
<trkpt lat="55.683053" lon="8.182302">
|
|
<ele>7.191000</ele>
|
|
<time>2026-07-11T15:33:15.000Z</time>
|
|
</trkpt>
|
|
<trkpt lat="55.683039" lon="8.182359">
|
|
<ele>7.168389</ele>
|
|
<time>2026-07-11T15:33:16.000Z</time>
|
|
</trkpt>
|
|
<trkpt lat="55.683023" lon="8.182410">
|
|
<ele>7.147164</ele>
|
|
<time>2026-07-11T15:33:17.000Z</time>
|
|
</trkpt>
|
|
<trkpt lat="55.683008" lon="8.182463">
|
|
<ele>7.125597</ele>
|
|
<time>2026-07-11T15:33:18.000Z</time>
|
|
</trkpt>
|
|
<trkpt lat="55.682991" lon="8.182521">
|
|
<ele>7.101824</ele>
|
|
<time>2026-07-11T15:33:19.000Z</time>
|
|
</trkpt>
|
|
<trkpt lat="55.682975" lon="8.182571">
|
|
<ele>7.080916</ele>
|
|
<time>2026-07-11T15:33:20.000Z</time>
|
|
</trkpt>
|
|
<trkpt lat="55.682958" lon="8.182616">
|
|
<ele>7.061216</ele>
|
|
<time>2026-07-11T15:33:21.000Z</time>
|
|
</trkpt>
|
|
<trkpt lat="55.682940" lon="8.182661">
|
|
<ele>7.041151</ele>
|
|
<time>2026-07-11T15:33:22.000Z</time>
|
|
</trkpt>
|
|
<trkpt lat="55.682922" lon="8.182710">
|
|
<ele>7.019882</ele>
|
|
<time>2026-07-11T15:33:23.000Z</time>
|
|
</trkpt>
|
|
<trkpt lat="55.682899" lon="8.182752">
|
|
<ele>7.006427</ele>
|
|
<time>2026-07-11T15:33:24.000Z</time>
|
|
</trkpt>
|
|
<trkpt lat="55.682879" lon="8.182790">
|
|
<ele>7.006427</ele>
|
|
<time>2026-07-11T15:33:25.000Z</time>
|
|
</trkpt>
|
|
<trkpt lat="55.682857" lon="8.182825">
|
|
<ele>7.006427</ele>
|
|
<time>2026-07-11T15:33:26.000Z</time>
|
|
</trkpt>
|
|
<trkpt lat="55.682828" lon="8.182860">
|
|
<ele>7.006427</ele>
|
|
<time>2026-07-11T15:33:27.000Z</time>
|
|
</trkpt>
|
|
<trkpt lat="55.682802" lon="8.182889">
|
|
<ele>7.006427</ele>
|
|
<time>2026-07-11T15:33:28.000Z</time>
|
|
</trkpt>
|
|
<trkpt lat="55.682772" lon="8.182923">
|
|
<ele>7.006427</ele>
|
|
<time>2026-07-11T15:33:29.000Z</time>
|
|
</trkpt>
|
|
<trkpt lat="55.682738" lon="8.182961">
|
|
<ele>7.006427</ele>
|
|
<time>2026-07-11T15:33:30.000Z</time>
|
|
</trkpt>
|
|
<trkpt lat="55.682706" lon="8.182994">
|
|
<ele>7.006427</ele>
|
|
<time>2026-07-11T15:33:31.000Z</time>
|
|
</trkpt>
|
|
<trkpt lat="55.682684" lon="8.183022">
|
|
<ele>7.006427</ele>
|
|
<time>2026-07-11T15:33:32.000Z</time>
|
|
</trkpt>
|
|
<trkpt lat="55.682655" lon="8.183064">
|
|
<ele>7.006427</ele>
|
|
<time>2026-07-11T15:33:33.000Z</time>
|
|
</trkpt>
|
|
<trkpt lat="55.682631" lon="8.183108">
|
|
<ele>7.006427</ele>
|
|
<time>2026-07-11T15:33:34.000Z</time>
|
|
</trkpt>
|
|
<trkpt lat="55.682609" lon="8.183156">
|
|
<ele>7.006427</ele>
|
|
<time>2026-07-11T15:33:35.000Z</time>
|
|
</trkpt>
|
|
<trkpt lat="55.682591" lon="8.183202">
|
|
<ele>7.006427</ele>
|
|
<time>2026-07-11T15:33:36.000Z</time>
|
|
</trkpt>
|
|
<trkpt lat="55.682574" lon="8.183250">
|
|
<ele>7.006427</ele>
|
|
<time>2026-07-11T15:33:37.000Z</time>
|
|
</trkpt>
|
|
<trkpt lat="55.682558" lon="8.183296">
|
|
<ele>7.006427</ele>
|
|
<time>2026-07-11T15:33:38.000Z</time>
|
|
</trkpt>
|
|
<trkpt lat="55.682546" lon="8.183340">
|
|
<ele>7.006427</ele>
|
|
<time>2026-07-11T15:33:39.000Z</time>
|
|
</trkpt>
|
|
<trkpt lat="55.682532" lon="8.183386">
|
|
<ele>7.006427</ele>
|
|
<time>2026-07-11T15:33:40.000Z</time>
|
|
</trkpt>
|
|
<trkpt lat="55.682523" lon="8.183432">
|
|
<ele>7.006427</ele>
|
|
<time>2026-07-11T15:33:41.000Z</time>
|
|
</trkpt>
|
|
<trkpt lat="55.682515" lon="8.183474">
|
|
<ele>7.006427</ele>
|
|
<time>2026-07-11T15:33:42.000Z</time>
|
|
</trkpt>
|
|
<trkpt lat="55.682509" lon="8.183509">
|
|
<ele>7.006427</ele>
|
|
<time>2026-07-11T15:33:43.000Z</time>
|
|
</trkpt>
|
|
<trkpt lat="55.682504" lon="8.183551">
|
|
<ele>7.006427</ele>
|
|
<time>2026-07-11T15:33:44.000Z</time>
|
|
</trkpt>
|
|
<trkpt lat="55.682499" lon="8.183592">
|
|
<ele>7.006427</ele>
|
|
<time>2026-07-11T15:33:45.000Z</time>
|
|
</trkpt>
|
|
<trkpt lat="55.682498" lon="8.183639">
|
|
<ele>7.006427</ele>
|
|
<time>2026-07-11T15:33:46.000Z</time>
|
|
</trkpt>
|
|
<trkpt lat="55.682495" lon="8.183677">
|
|
<ele>7.006427</ele>
|
|
<time>2026-07-11T15:33:47.000Z</time>
|
|
</trkpt>
|
|
<trkpt lat="55.682494" lon="8.183728">
|
|
<ele>7.006427</ele>
|
|
<time>2026-07-11T15:33:48.000Z</time>
|
|
</trkpt>
|
|
<trkpt lat="55.682492" lon="8.183769">
|
|
<ele>7.006427</ele>
|
|
<time>2026-07-11T15:33:49.000Z</time>
|
|
</trkpt>
|
|
<trkpt lat="55.682498" lon="8.183818">
|
|
<ele>7.006427</ele>
|
|
<time>2026-07-11T15:33:50.000Z</time>
|
|
</trkpt>
|
|
<trkpt lat="55.682504" lon="8.183853">
|
|
<ele>7.006427</ele>
|
|
<time>2026-07-11T15:33:51.000Z</time>
|
|
</trkpt>
|
|
<trkpt lat="55.682508" lon="8.183897">
|
|
<ele>7.006427</ele>
|
|
<time>2026-07-11T15:33:52.000Z</time>
|
|
</trkpt>
|
|
<trkpt lat="55.682510" lon="8.183932">
|
|
<ele>7.006427</ele>
|
|
<time>2026-07-11T15:33:53.000Z</time>
|
|
</trkpt>
|
|
<trkpt lat="55.682510" lon="8.183972">
|
|
<ele>7.006427</ele>
|
|
<time>2026-07-11T15:33:54.000Z</time>
|
|
</trkpt>
|
|
<trkpt lat="55.682509" lon="8.184002">
|
|
<ele>7.006427</ele>
|
|
<time>2026-07-11T15:33:55.000Z</time>
|
|
</trkpt>
|
|
<trkpt lat="55.682507" lon="8.184034">
|
|
<ele>7.006427</ele>
|
|
<time>2026-07-11T15:33:56.000Z</time>
|
|
</trkpt>
|
|
<trkpt lat="55.682507" lon="8.184056">
|
|
<ele>7.006427</ele>
|
|
<time>2026-07-11T15:33:57.000Z</time>
|
|
</trkpt>
|
|
<trkpt lat="55.682509" lon="8.184096">
|
|
<ele>7.006427</ele>
|
|
<time>2026-07-11T15:33:58.000Z</time>
|
|
</trkpt>
|
|
<trkpt lat="55.682444" lon="8.183936">
|
|
<ele>7.006427</ele>
|
|
<time>2026-07-11T15:36:17.000Z</time>
|
|
</trkpt>
|
|
<trkpt lat="55.682442" lon="8.183904">
|
|
<ele>7.006427</ele>
|
|
<time>2026-07-11T15:36:18.000Z</time>
|
|
</trkpt>
|
|
<trkpt lat="55.682441" lon="8.183878">
|
|
<ele>7.006427</ele>
|
|
<time>2026-07-11T15:36:19.000Z</time>
|
|
</trkpt>
|
|
<trkpt lat="55.682437" lon="8.183840">
|
|
<ele>7.006427</ele>
|
|
<time>2026-07-11T15:36:20.000Z</time>
|
|
</trkpt>
|
|
<trkpt lat="55.682434" lon="8.183810">
|
|
<ele>7.006427</ele>
|
|
<time>2026-07-11T15:36:21.000Z</time>
|
|
</trkpt>
|
|
<trkpt lat="55.682435" lon="8.183775">
|
|
<ele>7.006427</ele>
|
|
<time>2026-07-11T15:36:22.000Z</time>
|
|
</trkpt>
|
|
<trkpt lat="55.682438" lon="8.183757">
|
|
<ele>7.006427</ele>
|
|
<time>2026-07-11T15:36:23.000Z</time>
|
|
</trkpt>
|
|
<trkpt lat="55.682440" lon="8.183752">
|
|
<ele>7.006427</ele>
|
|
<time>2026-07-11T15:36:24.000Z</time>
|
|
</trkpt>
|
|
<trkpt lat="55.682438" lon="8.183755">
|
|
<ele>7.006427</ele>
|
|
<time>2026-07-11T15:36:25.000Z</time>
|
|
</trkpt>
|
|
<trkpt lat="55.682438" lon="8.183755">
|
|
<ele>7.006427</ele>
|
|
<time>2026-07-11T15:36:26.000Z</time>
|
|
</trkpt>
|
|
<trkpt lat="55.682489" lon="8.183760">
|
|
<ele>7.006427</ele>
|
|
<time>2026-07-11T15:36:33.000Z</time>
|
|
</trkpt>
|
|
<trkpt lat="55.682500" lon="8.183764">
|
|
<ele>7.006427</ele>
|
|
<time>2026-07-11T15:36:34.000Z</time>
|
|
</trkpt>
|
|
<trkpt lat="55.682514" lon="8.183770">
|
|
<ele>7.006427</ele>
|
|
<time>2026-07-11T15:36:35.000Z</time>
|
|
</trkpt>
|
|
<trkpt lat="55.682524" lon="8.183778">
|
|
<ele>7.006427</ele>
|
|
<time>2026-07-11T15:36:36.000Z</time>
|
|
</trkpt>
|
|
<trkpt lat="55.682533" lon="8.183787">
|
|
<ele>7.006427</ele>
|
|
<time>2026-07-11T15:36:37.000Z</time>
|
|
</trkpt>
|
|
<trkpt lat="55.682540" lon="8.183795">
|
|
<ele>7.006427</ele>
|
|
<time>2026-07-11T15:36:38.000Z</time>
|
|
</trkpt>
|
|
<trkpt lat="55.682548" lon="8.183801">
|
|
<ele>7.006427</ele>
|
|
<time>2026-07-11T15:36:39.000Z</time>
|
|
</trkpt>
|
|
<trkpt lat="55.682559" lon="8.183811">
|
|
<ele>7.006427</ele>
|
|
<time>2026-07-11T15:36:40.000Z</time>
|
|
</trkpt>
|
|
<trkpt lat="55.682567" lon="8.183818">
|
|
<ele>7.006427</ele>
|
|
<time>2026-07-11T15:36:41.000Z</time>
|
|
</trkpt>
|
|
<trkpt lat="55.682575" lon="8.183823">
|
|
<ele>7.006427</ele>
|
|
<time>2026-07-11T15:36:42.000Z</time>
|
|
</trkpt>
|
|
<trkpt lat="55.682589" lon="8.183824">
|
|
<ele>7.006427</ele>
|
|
<time>2026-07-11T15:36:43.000Z</time>
|
|
</trkpt>
|
|
<trkpt lat="55.682602" lon="8.183825">
|
|
<ele>7.006427</ele>
|
|
<time>2026-07-11T15:36:44.000Z</time>
|
|
</trkpt>
|
|
<trkpt lat="55.682611" lon="8.183827">
|
|
<ele>7.006427</ele>
|
|
<time>2026-07-11T15:36:45.000Z</time>
|
|
</trkpt>
|
|
<trkpt lat="55.682626" lon="8.183831">
|
|
<ele>7.006427</ele>
|
|
<time>2026-07-11T15:36:46.000Z</time>
|
|
</trkpt>
|
|
<trkpt lat="55.682636" lon="8.183832">
|
|
<ele>7.006427</ele>
|
|
<time>2026-07-11T15:36:47.000Z</time>
|
|
</trkpt>
|
|
<trkpt lat="55.682643" lon="8.183835">
|
|
<ele>7.006427</ele>
|
|
<time>2026-07-11T15:36:48.000Z</time>
|
|
</trkpt>
|
|
<trkpt lat="55.682658" lon="8.183834">
|
|
<ele>7.006427</ele>
|
|
<time>2026-07-11T15:36:49.000Z</time>
|
|
</trkpt>
|
|
<trkpt lat="55.682670" lon="8.183834">
|
|
<ele>7.006427</ele>
|
|
<time>2026-07-11T15:36:50.000Z</time>
|
|
</trkpt>
|
|
<trkpt lat="55.682677" lon="8.183835">
|
|
<ele>7.006427</ele>
|
|
<time>2026-07-11T15:36:51.000Z</time>
|
|
</trkpt>
|
|
<trkpt lat="55.682698" lon="8.183837">
|
|
<ele>7.006427</ele>
|
|
<time>2026-07-11T15:36:52.000Z</time>
|
|
</trkpt>
|
|
<trkpt lat="55.682710" lon="8.183842">
|
|
<ele>7.006427</ele>
|
|
<time>2026-07-11T15:36:53.000Z</time>
|
|
</trkpt>
|
|
<trkpt lat="55.682721" lon="8.183847">
|
|
<ele>7.006427</ele>
|
|
<time>2026-07-11T15:36:54.000Z</time>
|
|
</trkpt>
|
|
<trkpt lat="55.682731" lon="8.183855">
|
|
<ele>7.006427</ele>
|
|
<time>2026-07-11T15:36:55.000Z</time>
|
|
</trkpt>
|
|
<trkpt lat="55.682739" lon="8.183865">
|
|
<ele>7.006427</ele>
|
|
<time>2026-07-11T15:36:56.000Z</time>
|
|
</trkpt>
|
|
<trkpt lat="55.682749" lon="8.183872">
|
|
<ele>7.006427</ele>
|
|
<time>2026-07-11T15:36:57.000Z</time>
|
|
</trkpt>
|
|
<trkpt lat="55.682758" lon="8.183882">
|
|
<ele>7.006427</ele>
|
|
<time>2026-07-11T15:36:58.000Z</time>
|
|
</trkpt>
|
|
<trkpt lat="55.682764" lon="8.183889">
|
|
<ele>7.006427</ele>
|
|
<time>2026-07-11T15:36:59.000Z</time>
|
|
</trkpt>
|
|
<trkpt lat="55.682769" lon="8.183895">
|
|
<ele>7.006427</ele>
|
|
<time>2026-07-11T15:37:00.000Z</time>
|
|
</trkpt>
|
|
<trkpt lat="55.682781" lon="8.183910">
|
|
<ele>7.006427</ele>
|
|
<time>2026-07-11T15:37:01.000Z</time>
|
|
</trkpt>
|
|
<trkpt lat="55.682788" lon="8.183922">
|
|
<ele>7.006427</ele>
|
|
<time>2026-07-11T15:37:02.000Z</time>
|
|
</trkpt>
|
|
<trkpt lat="55.682794" lon="8.183935">
|
|
<ele>7.006427</ele>
|
|
<time>2026-07-11T15:37:03.000Z</time>
|
|
</trkpt>
|
|
<trkpt lat="55.682801" lon="8.183953">
|
|
<ele>7.006427</ele>
|
|
<time>2026-07-11T15:37:04.000Z</time>
|
|
</trkpt>
|
|
<trkpt lat="55.682811" lon="8.183967">
|
|
<ele>7.006427</ele>
|
|
<time>2026-07-11T15:37:05.000Z</time>
|
|
</trkpt>
|
|
<trkpt lat="55.682818" lon="8.183981">
|
|
<ele>7.006427</ele>
|
|
<time>2026-07-11T15:37:06.000Z</time>
|
|
</trkpt>
|
|
<trkpt lat="55.682827" lon="8.183998">
|
|
<ele>7.006427</ele>
|
|
<time>2026-07-11T15:37:07.000Z</time>
|
|
</trkpt>
|
|
<trkpt lat="55.682832" lon="8.184010">
|
|
<ele>7.006427</ele>
|
|
<time>2026-07-11T15:37:08.000Z</time>
|
|
</trkpt>
|
|
<trkpt lat="55.682834" lon="8.184019">
|
|
<ele>7.006427</ele>
|
|
<time>2026-07-11T15:37:09.000Z</time>
|
|
</trkpt>
|
|
<trkpt lat="55.682842" lon="8.184041">
|
|
<ele>7.006427</ele>
|
|
<time>2026-07-11T15:37:10.000Z</time>
|
|
</trkpt>
|
|
<trkpt lat="55.682848" lon="8.184047">
|
|
<ele>7.006427</ele>
|
|
<time>2026-07-11T15:37:11.000Z</time>
|
|
</trkpt>
|
|
<trkpt lat="55.682852" lon="8.184042">
|
|
<ele>7.006427</ele>
|
|
<time>2026-07-11T15:37:12.000Z</time>
|
|
</trkpt>
|
|
<trkpt lat="55.682856" lon="8.184037">
|
|
<ele>7.006427</ele>
|
|
<time>2026-07-11T15:37:13.000Z</time>
|
|
</trkpt>
|
|
<trkpt lat="55.682859" lon="8.184032">
|
|
<ele>7.006427</ele>
|
|
<time>2026-07-11T15:37:14.000Z</time>
|
|
</trkpt>
|
|
<trkpt lat="55.682867" lon="8.184053">
|
|
<ele>7.006427</ele>
|
|
<time>2026-07-11T15:37:15.000Z</time>
|
|
</trkpt>
|
|
<trkpt lat="55.682874" lon="8.184081">
|
|
<ele>7.006427</ele>
|
|
<time>2026-07-11T15:37:16.000Z</time>
|
|
</trkpt>
|
|
<trkpt lat="55.682876" lon="8.184091">
|
|
<ele>7.006427</ele>
|
|
<time>2026-07-11T15:37:17.000Z</time>
|
|
</trkpt>
|
|
<trkpt lat="55.682882" lon="8.184100">
|
|
<ele>7.006427</ele>
|
|
<time>2026-07-11T15:37:18.000Z</time>
|
|
</trkpt>
|
|
<trkpt lat="55.682886" lon="8.184107">
|
|
<ele>7.006427</ele>
|
|
<time>2026-07-11T15:37:19.000Z</time>
|
|
</trkpt>
|
|
<trkpt lat="55.683008" lon="8.184044">
|
|
<ele>7.006427</ele>
|
|
<time>2026-07-11T15:41:04.000Z</time>
|
|
</trkpt>
|
|
<trkpt lat="55.683011" lon="8.184049">
|
|
<ele>7.006427</ele>
|
|
<time>2026-07-11T15:41:05.000Z</time>
|
|
</trkpt>
|
|
<trkpt lat="55.683023" lon="8.184053">
|
|
<ele>7.006427</ele>
|
|
<time>2026-07-11T15:41:06.000Z</time>
|
|
</trkpt>
|
|
<trkpt lat="55.683036" lon="8.184064">
|
|
<ele>7.006427</ele>
|
|
<time>2026-07-11T15:41:07.000Z</time>
|
|
</trkpt>
|
|
<trkpt lat="55.683044" lon="8.184067">
|
|
<ele>7.006427</ele>
|
|
<time>2026-07-11T15:41:08.000Z</time>
|
|
</trkpt>
|
|
<trkpt lat="55.683052" lon="8.184069">
|
|
<ele>7.006427</ele>
|
|
<time>2026-07-11T15:41:09.000Z</time>
|
|
</trkpt>
|
|
<trkpt lat="55.683063" lon="8.184064">
|
|
<ele>7.006427</ele>
|
|
<time>2026-07-11T15:41:10.000Z</time>
|
|
</trkpt>
|
|
<trkpt lat="55.683065" lon="8.184056">
|
|
<ele>7.006427</ele>
|
|
<time>2026-07-11T15:41:11.000Z</time>
|
|
</trkpt>
|
|
<trkpt lat="55.683069" lon="8.184054">
|
|
<ele>7.006427</ele>
|
|
<time>2026-07-11T15:41:12.000Z</time>
|
|
</trkpt>
|
|
<trkpt lat="55.683071" lon="8.184055">
|
|
<ele>7.006427</ele>
|
|
<time>2026-07-11T15:41:13.000Z</time>
|
|
</trkpt>
|
|
<trkpt lat="55.683071" lon="8.184054">
|
|
<ele>7.006427</ele>
|
|
<time>2026-07-11T15:41:15.000Z</time>
|
|
</trkpt>
|
|
<trkpt lat="55.683071" lon="8.184055">
|
|
<ele>7.006427</ele>
|
|
<time>2026-07-11T15:41:16.000Z</time>
|
|
</trkpt>
|
|
</trkseg>
|
|
</trk>
|
|
</gpx> |